<?xml version='1.0' encoding='UTF-8'?><gpx version="1.1" creator="JPX - https://github.com/jenetics/jpx" xmlns="http://www.topografix.com/GPX/1/1"><trk><trkseg><trkpt lat="44.6915017" lon="8.800075"><ele>219.0</ele><time>2026-04-21T09:24:57.665Z</time></trkpt><trkpt lat="44.691595" lon="8.800045"><ele>218.99999999999997</ele><time>2026-04-21T09:24:58.664Z</time></trkpt><trkpt lat="44.6917033" lon="8.8000133"><ele>218.99999999999997</ele><time>2026-04-21T09:24:59.665Z</time></trkpt><trkpt lat="44.69181" lon="8.80001"><ele>219.0</ele><time>2026-04-21T09:25:00.665Z</time></trkpt><trkpt lat="44.6919067" lon="8.7999917"><ele>219.0</ele><time>2026-04-21T09:25:01.665Z</time></trkpt><trkpt lat="44.6919967" lon="8.7999517"><ele>219.39999999999998</ele><time>2026-04-21T09:25:02.665Z</time></trkpt><trkpt lat="44.692085" lon="8.7998983"><ele>219.79999999999998</ele><time>2026-04-21T09:25:03.664Z</time></trkpt><trkpt lat="44.692165" lon="8.7998217"><ele>220.20000000000002</ele><time>2026-04-21T09:25:04.664Z</time></trkpt><trkpt lat="44.6922233" lon="8.7997283"><ele>220.60000000000002</ele><time>2026-04-21T09:25:05.665Z</time></trkpt><trkpt lat="44.6922667" lon="8.79964"><ele>221.0</ele><time>2026-04-21T09:25:06.664Z</time></trkpt><trkpt lat="44.6922867" lon="8.7994783"><ele>222.00000000000003</ele><time>2026-04-21T09:25:07.665Z</time></trkpt><trkpt lat="44.6922817" lon="8.7993317"><ele>223.0</ele><time>2026-04-21T09:25:08.664Z</time></trkpt><trkpt lat="44.6922867" lon="8.7992017"><ele>224.0</ele><time>2026-04-21T09:25:09.664Z</time></trkpt><trkpt lat="44.69229" lon="8.7991033"><ele>225.0</ele><time>2026-04-21T09:25:10.664Z</time></trkpt><trkpt lat="44.6923167" lon="8.799015"><ele>226.00000000000003</ele><time>2026-04-21T09:25:11.665Z</time></trkpt><trkpt lat="44.692375" lon="8.7989283"><ele>227.0</ele><time>2026-04-21T09:25:12.665Z</time></trkpt><trkpt lat="44.6924583" lon="8.79884"><ele>227.0</ele><time>2026-04-21T09:25:13.665Z</time></trkpt><trkpt lat="44.6925667" lon="8.7987533"><ele>227.0</ele><time>2026-04-21T09:25:14.665Z</time></trkpt><trkpt lat="44.6926817" lon="8.798655"><ele>227.0</ele><time>2026-04-21T09:25:15.664Z</time></trkpt><trkpt lat="44.6927783" lon="8.79852"><ele>227.0</ele><time>2026-04-21T09:25:16.664Z</time></trkpt><trkpt lat="44.6928883" lon="8.7983467"><ele>233.33333333333334</ele><time>2026-04-21T09:25:17.665Z</time></trkpt><trkpt lat="44.69299" lon="8.79817"><ele>239.66666666666669</ele><time>2026-04-21T09:25:18.664Z</time></trkpt><trkpt lat="44.693095" lon="8.7980033"><ele>246.0</ele><time>2026-04-21T09:25:19.665Z</time></trkpt><trkpt lat="44.69317" lon="8.7978433"><ele>246.0</ele><time>2026-04-21T09:25:20.664Z</time></trkpt><trkpt lat="44.6932433" lon="8.7976967"><ele>246.0</ele><time>2026-04-21T09:25:21.665Z</time></trkpt><trkpt lat="44.69331" lon="8.7975767"><ele>246.0</ele><time>2026-04-21T09:25:22.664Z</time></trkpt><trkpt lat="44.6933717" lon="8.797435"><ele>246.0</ele><time>2026-04-21T09:25:23.664Z</time></trkpt><trkpt lat="44.6934283" lon="8.79727"><ele>244.5</ele><time>2026-04-21T09:25:24.665Z</time></trkpt><trkpt lat="44.69349" lon="8.7971083"><ele>243.0</ele><time>2026-04-21T09:25:25.664Z</time></trkpt><trkpt lat="44.693555" lon="8.7969533"><ele>241.5</ele><time>2026-04-21T09:25:26.664Z</time></trkpt><trkpt lat="44.6936283" lon="8.7968017"><ele>240.0</ele><time>2026-04-21T09:25:27.665Z</time></trkpt><trkpt lat="44.6937167" lon="8.7966667"><ele>240.0</ele><time>2026-04-21T09:25:28.665Z</time></trkpt><trkpt lat="44.69382" lon="8.7965433"><ele>240.0</ele><time>2026-04-21T09:25:29.665Z</time></trkpt><trkpt lat="44.69395" lon="8.7964233"><ele>240.0</ele><time>2026-04-21T09:25:30.664Z</time></trkpt><trkpt lat="44.694085" lon="8.7962867"><ele>240.0</ele><time>2026-04-21T09:25:31.664Z</time></trkpt><trkpt lat="44.6942233" lon="8.7961083"><ele>240.0</ele><time>2026-04-21T09:25:32.665Z</time></trkpt><trkpt lat="44.6943533" lon="8.7959283"><ele>240.0</ele><time>2026-04-21T09:25:33.664Z</time></trkpt><trkpt lat="44.694465" lon="8.7957533"><ele>240.75</ele><time>2026-04-21T09:25:34.664Z</time></trkpt><trkpt lat="44.694565" lon="8.7956"><ele>241.5</ele><time>2026-04-21T09:25:35.665Z</time></trkpt><trkpt lat="44.6946633" lon="8.7954817"><ele>242.25</ele><time>2026-04-21T09:25:36.665Z</time></trkpt><trkpt lat="44.6947717" lon="8.7953833"><ele>243.0</ele><time>2026-04-21T09:25:37.665Z</time></trkpt><trkpt lat="44.6949" lon="8.7953033"><ele>243.0</ele><time>2026-04-21T09:25:38.665Z</time></trkpt><trkpt lat="44.695055" lon="8.795225"><ele>243.0</ele><time>2026-04-21T09:25:39.664Z</time></trkpt><trkpt lat="44.6952183" lon="8.7951133"><ele>243.0</ele><time>2026-04-21T09:25:40.665Z</time></trkpt><trkpt lat="44.6953817" lon="8.7949933"><ele>241.0</ele><time>2026-04-21T09:25:41.665Z</time></trkpt><trkpt lat="44.6955467" lon="8.79488"><ele>239.0</ele><time>2026-04-21T09:25:42.665Z</time></trkpt><trkpt lat="44.6957017" lon="8.7947717"><ele>237.0</ele><time>2026-04-21T09:25:43.665Z</time></trkpt><trkpt lat="44.69587" lon="8.7946617"><ele>237.0</ele><time>2026-04-21T09:25:44.664Z</time></trkpt><trkpt lat="44.6960133" lon="8.794545"><ele>237.0</ele><time>2026-04-21T09:25:45.664Z</time></trkpt><trkpt lat="44.696155" lon="8.7944"><ele>237.0</ele><time>2026-04-21T09:25:46.665Z</time></trkpt><trkpt lat="44.6962867" lon="8.7942333"><ele>234.33333333333331</ele><time>2026-04-21T09:25:47.665Z</time></trkpt><trkpt lat="44.6964067" lon="8.7940433"><ele>231.66666666666666</ele><time>2026-04-21T09:25:48.664Z</time></trkpt><trkpt lat="44.69653" lon="8.7938483"><ele>229.0</ele><time>2026-04-21T09:25:49.665Z</time></trkpt><trkpt lat="44.6966517" lon="8.7936633"><ele>230.66666666666666</ele><time>2026-04-21T09:25:50.664Z</time></trkpt><trkpt lat="44.6967617" lon="8.79348"><ele>232.33333333333331</ele><time>2026-04-21T09:25:51.664Z</time></trkpt><trkpt lat="44.6968567" lon="8.7932967"><ele>234.0</ele><time>2026-04-21T09:25:52.665Z</time></trkpt><trkpt lat="44.696925" lon="8.7931"><ele>234.0</ele><time>2026-04-21T09:25:53.664Z</time></trkpt><trkpt lat="44.696965" lon="8.7929033"><ele>234.0</ele><time>2026-04-21T09:25:54.664Z</time></trkpt><trkpt lat="44.6969817" lon="8.792705"><ele>234.0</ele><time>2026-04-21T09:25:55.665Z</time></trkpt><trkpt lat="44.69697" lon="8.792495"><ele>234.0</ele><time>2026-04-21T09:25:56.664Z</time></trkpt><trkpt lat="44.6969483" lon="8.7922883"><ele>225.33333333333331</ele><time>2026-04-21T09:25:57.665Z</time></trkpt><trkpt lat="44.6969133" lon="8.7920633"><ele>216.66666666666666</ele><time>2026-04-21T09:25:58.664Z</time></trkpt><trkpt lat="44.69689" lon="8.7918067"><ele>208.0</ele><time>2026-04-21T09:25:59.664Z</time></trkpt><trkpt lat="44.6968783" lon="8.79155"><ele>207.0</ele><time>2026-04-21T09:26:00.664Z</time></trkpt><trkpt lat="44.696865" lon="8.7912917"><ele>206.0</ele><time>2026-04-21T09:26:01.665Z</time></trkpt><trkpt lat="44.6968583" lon="8.7910367"><ele>205.0</ele><time>2026-04-21T09:26:02.665Z</time></trkpt><trkpt lat="44.696845" lon="8.7907783"><ele>205.0</ele><time>2026-04-21T09:26:03.664Z</time></trkpt><trkpt lat="44.696825" lon="8.7905383"><ele>205.0</ele><time>2026-04-21T09:26:04.665Z</time></trkpt><trkpt lat="44.6967967" lon="8.790305"><ele>205.0</ele><time>2026-04-21T09:26:05.664Z</time></trkpt><trkpt lat="44.6967483" lon="8.790065"><ele>207.0</ele><time>2026-04-21T09:26:06.664Z</time></trkpt><trkpt lat="44.6966867" lon="8.789835"><ele>209.0</ele><time>2026-04-21T09:26:07.664Z</time></trkpt><trkpt lat="44.69662" lon="8.789605"><ele>211.0</ele><time>2026-04-21T09:26:08.664Z</time></trkpt><trkpt lat="44.6965367" lon="8.78937"><ele>214.0</ele><time>2026-04-21T09:26:09.665Z</time></trkpt><trkpt lat="44.696445" lon="8.7891517"><ele>217.0</ele><time>2026-04-21T09:26:10.665Z</time></trkpt><trkpt lat="44.69635" lon="8.78893"><ele>220.0</ele><time>2026-04-21T09:26:11.664Z</time></trkpt><trkpt lat="44.6962633" lon="8.7886967"><ele>220.66666666666666</ele><time>2026-04-21T09:26:12.665Z</time></trkpt><trkpt lat="44.69619" lon="8.7884533"><ele>221.33333333333331</ele><time>2026-04-21T09:26:13.664Z</time></trkpt><trkpt lat="44.6961183" lon="8.7882183"><ele>222.0</ele><time>2026-04-21T09:26:14.664Z</time></trkpt><trkpt lat="44.696035" lon="8.787995"><ele>217.66666666666669</ele><time>2026-04-21T09:26:15.664Z</time></trkpt><trkpt lat="44.6959433" lon="8.7877617"><ele>213.33333333333334</ele><time>2026-04-21T09:26:16.665Z</time></trkpt><trkpt lat="44.69583" lon="8.7875467"><ele>209.0</ele><time>2026-04-21T09:26:17.665Z</time></trkpt><trkpt lat="44.695715" lon="8.78733"><ele>209.0</ele><time>2026-04-21T09:26:18.664Z</time></trkpt><trkpt lat="44.6956" lon="8.78711"><ele>209.0</ele><time>2026-04-21T09:26:19.664Z</time></trkpt><trkpt lat="44.69549" lon="8.7868767"><ele>209.0</ele><time>2026-04-21T09:26:20.664Z</time></trkpt><trkpt lat="44.6954" lon="8.7866467"><ele>208.0</ele><time>2026-04-21T09:26:21.664Z</time></trkpt><trkpt lat="44.695315" lon="8.7863967"><ele>207.0</ele><time>2026-04-21T09:26:22.664Z</time></trkpt><trkpt lat="44.69523" lon="8.7861267"><ele>206.0</ele><time>2026-04-21T09:26:23.664Z</time></trkpt><trkpt lat="44.6951517" lon="8.7858217"><ele>206.0</ele><time>2026-04-21T09:26:24.664Z</time></trkpt><trkpt lat="44.6950917" lon="8.7855167"><ele>206.0</ele><time>2026-04-21T09:26:25.665Z</time></trkpt><trkpt lat="44.6950283" lon="8.785245"><ele>206.0</ele><time>2026-04-21T09:26:26.665Z</time></trkpt><trkpt lat="44.6949567" lon="8.7850167"><ele>209.33333333333334</ele><time>2026-04-21T09:26:27.665Z</time></trkpt><trkpt lat="44.6948517" lon="8.7847917"><ele>212.66666666666669</ele><time>2026-04-21T09:26:28.665Z</time></trkpt><trkpt lat="44.69475" lon="8.7845617"><ele>216.0</ele><time>2026-04-21T09:26:29.664Z</time></trkpt><trkpt lat="44.6946717" lon="8.7843183"><ele>220.0</ele><time>2026-04-21T09:26:30.665Z</time></trkpt><trkpt lat="44.6946" lon="8.78405"><ele>224.0</ele><time>2026-04-21T09:26:31.664Z</time></trkpt><trkpt lat="44.69453" lon="8.7837767"><ele>228.0</ele><time>2026-04-21T09:26:32.664Z</time></trkpt><trkpt lat="44.6944483" lon="8.783505"><ele>219.33333333333331</ele><time>2026-04-21T09:26:33.665Z</time></trkpt><trkpt lat="44.6943733" lon="8.7832517"><ele>210.66666666666666</ele><time>2026-04-21T09:26:34.664Z</time></trkpt><trkpt lat="44.69429" lon="8.783"><ele>202.0</ele><time>2026-04-21T09:26:35.665Z</time></trkpt><trkpt lat="44.6941967" lon="8.782765"><ele>204.66666666666666</ele><time>2026-04-21T09:26:36.665Z</time></trkpt><trkpt lat="44.6941167" lon="8.7825217"><ele>207.33333333333331</ele><time>2026-04-21T09:26:37.664Z</time></trkpt><trkpt lat="44.6940433" lon="8.7822683"><ele>210.0</ele><time>2026-04-21T09:26:38.664Z</time></trkpt><trkpt lat="44.6939733" lon="8.7820167"><ele>210.66666666666669</ele><time>2026-04-21T09:26:39.664Z</time></trkpt><trkpt lat="44.6939117" lon="8.7817683"><ele>211.33333333333334</ele><time>2026-04-21T09:26:40.665Z</time></trkpt><trkpt lat="44.6938583" lon="8.7815083"><ele>212.0</ele><time>2026-04-21T09:26:41.665Z</time></trkpt><trkpt lat="44.6938033" lon="8.7812567"><ele>211.33333333333334</ele><time>2026-04-21T09:26:42.665Z</time></trkpt><trkpt lat="44.6937683" lon="8.78101"><ele>210.66666666666669</ele><time>2026-04-21T09:26:43.664Z</time></trkpt><trkpt lat="44.69376" lon="8.7807533"><ele>210.0</ele><time>2026-04-21T09:26:44.665Z</time></trkpt><trkpt lat="44.69377" lon="8.7805033"><ele>210.0</ele><time>2026-04-21T09:26:45.664Z</time></trkpt><trkpt lat="44.6937917" lon="8.7802517"><ele>210.0</ele><time>2026-04-21T09:26:46.664Z</time></trkpt><trkpt lat="44.69383" lon="8.7799967"><ele>210.0</ele><time>2026-04-21T09:26:47.664Z</time></trkpt><trkpt lat="44.6938717" lon="8.7797367"><ele>210.0</ele><time>2026-04-21T09:26:48.664Z</time></trkpt><trkpt lat="44.693905" lon="8.779475"><ele>210.0</ele><time>2026-04-21T09:26:49.664Z</time></trkpt><trkpt lat="44.6939417" lon="8.779215"><ele>210.0</ele><time>2026-04-21T09:26:50.665Z</time></trkpt><trkpt lat="44.69398" lon="8.7789783"><ele>209.5</ele><time>2026-04-21T09:26:51.664Z</time></trkpt><trkpt lat="44.69402" lon="8.778775"><ele>209.0</ele><time>2026-04-21T09:26:52.665Z</time></trkpt><trkpt lat="44.69407" lon="8.7786117"><ele>208.5</ele><time>2026-04-21T09:26:53.664Z</time></trkpt><trkpt lat="44.6941417" lon="8.7785"><ele>208.0</ele><time>2026-04-21T09:26:54.665Z</time></trkpt><trkpt lat="44.694235" lon="8.778445"><ele>207.25</ele><time>2026-04-21T09:26:55.664Z</time></trkpt><trkpt lat="44.694345" lon="8.778435"><ele>206.5</ele><time>2026-04-21T09:26:56.665Z</time></trkpt><trkpt lat="44.6944667" lon="8.7784833"><ele>205.75</ele><time>2026-04-21T09:26:57.665Z</time></trkpt><trkpt lat="44.6945917" lon="8.7785633"><ele>205.0</ele><time>2026-04-21T09:26:58.665Z</time></trkpt><trkpt lat="44.694735" lon="8.7786433"><ele>207.75</ele><time>2026-04-21T09:26:59.665Z</time></trkpt><trkpt lat="44.69487" lon="8.778715"><ele>210.5</ele><time>2026-04-21T09:27:00.665Z</time></trkpt><trkpt lat="44.6950033" lon="8.7787917"><ele>213.25</ele><time>2026-04-21T09:27:01.664Z</time></trkpt><trkpt lat="44.6951283" lon="8.778855"><ele>216.0</ele><time>2026-04-21T09:27:02.664Z</time></trkpt><trkpt lat="44.6952467" lon="8.7788933"><ele>219.25</ele><time>2026-04-21T09:27:03.665Z</time></trkpt><trkpt lat="44.6953667" lon="8.778885"><ele>222.5</ele><time>2026-04-21T09:27:04.665Z</time></trkpt><trkpt lat="44.6954717" lon="8.7788217"><ele>225.75</ele><time>2026-04-21T09:27:05.665Z</time></trkpt><trkpt lat="44.6955567" lon="8.7787067"><ele>229.0</ele><time>2026-04-21T09:27:06.665Z</time></trkpt><trkpt lat="44.6956233" lon="8.7785483"><ele>227.0</ele><time>2026-04-21T09:27:07.665Z</time></trkpt><trkpt lat="44.6956617" lon="8.7783433"><ele>225.0</ele><time>2026-04-21T09:27:08.665Z</time></trkpt><trkpt lat="44.6956933" lon="8.77812"><ele>223.0</ele><time>2026-04-21T09:27:09.664Z</time></trkpt><trkpt lat="44.695725" lon="8.777885"><ele>224.33333333333331</ele><time>2026-04-21T09:27:10.664Z</time></trkpt><trkpt lat="44.6957617" lon="8.7776433"><ele>225.66666666666669</ele><time>2026-04-21T09:27:11.664Z</time></trkpt><trkpt lat="44.695795" lon="8.7774067"><ele>227.0</ele><time>2026-04-21T09:27:12.664Z</time></trkpt><trkpt lat="44.6958033" lon="8.77718"><ele>227.0</ele><time>2026-04-21T09:27:13.665Z</time></trkpt><trkpt lat="44.6957933" lon="8.7769583"><ele>227.0</ele><time>2026-04-21T09:27:14.664Z</time></trkpt><trkpt lat="44.6957617" lon="8.7767317"><ele>227.0</ele><time>2026-04-21T09:27:15.664Z</time></trkpt><trkpt lat="44.695705" lon="8.776515"><ele>229.25</ele><time>2026-04-21T09:27:16.664Z</time></trkpt><trkpt lat="44.6956367" lon="8.7763067"><ele>231.5</ele><time>2026-04-21T09:27:17.664Z</time></trkpt><trkpt lat="44.6955783" lon="8.7761183"><ele>233.75</ele><time>2026-04-21T09:27:18.665Z</time></trkpt><trkpt lat="44.695535" lon="8.775935"><ele>236.0</ele><time>2026-04-21T09:27:19.664Z</time></trkpt><trkpt lat="44.6955167" lon="8.7757467"><ele>239.66666666666669</ele><time>2026-04-21T09:27:20.664Z</time></trkpt><trkpt lat="44.69551" lon="8.77555"><ele>243.33333333333331</ele><time>2026-04-21T09:27:21.664Z</time></trkpt><trkpt lat="44.695515" lon="8.7753283"><ele>247.0</ele><time>2026-04-21T09:27:22.664Z</time></trkpt><trkpt lat="44.69553" lon="8.7751"><ele>247.66666666666666</ele><time>2026-04-21T09:27:23.664Z</time></trkpt><trkpt lat="44.6955383" lon="8.77485"><ele>248.33333333333331</ele><time>2026-04-21T09:27:24.665Z</time></trkpt><trkpt lat="44.6955433" lon="8.774595"><ele>249.0</ele><time>2026-04-21T09:27:25.664Z</time></trkpt><trkpt lat="44.6955517" lon="8.7743433"><ele>249.0</ele><time>2026-04-21T09:27:26.665Z</time></trkpt><trkpt lat="44.6955417" lon="8.774085"><ele>249.0</ele><time>2026-04-21T09:27:27.665Z</time></trkpt><trkpt lat="44.695525" lon="8.77383"><ele>249.0</ele><time>2026-04-21T09:27:28.665Z</time></trkpt><trkpt lat="44.6955183" lon="8.7735867"><ele>246.66666666666669</ele><time>2026-04-21T09:27:29.664Z</time></trkpt><trkpt lat="44.6955" lon="8.7733383"><ele>244.33333333333334</ele><time>2026-04-21T09:27:30.665Z</time></trkpt><trkpt lat="44.6954733" lon="8.77311"><ele>242.0</ele><time>2026-04-21T09:27:31.665Z</time></trkpt><trkpt lat="44.6954483" lon="8.7728983"><ele>240.66666666666669</ele><time>2026-04-21T09:27:32.665Z</time></trkpt><trkpt lat="44.6954267" lon="8.7726717"><ele>239.33333333333331</ele><time>2026-04-21T09:27:33.665Z</time></trkpt><trkpt lat="44.6954233" lon="8.7724567"><ele>238.0</ele><time>2026-04-21T09:27:34.665Z</time></trkpt><trkpt lat="44.6954383" lon="8.7722433"><ele>238.0</ele><time>2026-04-21T09:27:35.664Z</time></trkpt><trkpt lat="44.695435" lon="8.7720233"><ele>238.0</ele><time>2026-04-21T09:27:36.664Z</time></trkpt><trkpt lat="44.6954183" lon="8.7718017"><ele>238.0</ele><time>2026-04-21T09:27:37.664Z</time></trkpt><trkpt lat="44.6953617" lon="8.771565"><ele>238.33333333333331</ele><time>2026-04-21T09:27:38.665Z</time></trkpt><trkpt lat="44.695305" lon="8.77135"><ele>238.66666666666669</ele><time>2026-04-21T09:27:39.664Z</time></trkpt><trkpt lat="44.6952467" lon="8.77115"><ele>239.0</ele><time>2026-04-21T09:27:40.664Z</time></trkpt><trkpt lat="44.6952" lon="8.7709583"><ele>231.25</ele><time>2026-04-21T09:27:41.664Z</time></trkpt><trkpt lat="44.6951867" lon="8.770805"><ele>223.5</ele><time>2026-04-21T09:27:42.664Z</time></trkpt><trkpt lat="44.6951833" lon="8.7706467"><ele>215.75</ele><time>2026-04-21T09:27:43.665Z</time></trkpt><trkpt lat="44.69519" lon="8.7704733"><ele>208.0</ele><time>2026-04-21T09:27:44.665Z</time></trkpt><trkpt lat="44.6952283" lon="8.7702967"><ele>216.66666666666666</ele><time>2026-04-21T09:27:45.664Z</time></trkpt><trkpt lat="44.6952683" lon="8.7701083"><ele>225.33333333333331</ele><time>2026-04-21T09:27:46.665Z</time></trkpt><trkpt lat="44.6953483" lon="8.7699283"><ele>234.0</ele><time>2026-04-21T09:27:47.664Z</time></trkpt><trkpt lat="44.6954733" lon="8.7697617"><ele>234.0</ele><time>2026-04-21T09:27:48.664Z</time></trkpt><trkpt lat="44.69558" lon="8.7696033"><ele>234.0</ele><time>2026-04-21T09:27:49.664Z</time></trkpt><trkpt lat="44.6956833" lon="8.76947"><ele>234.0</ele><time>2026-04-21T09:27:50.665Z</time></trkpt><trkpt lat="44.6957983" lon="8.7693467"><ele>234.0</ele><time>2026-04-21T09:27:51.665Z</time></trkpt><trkpt lat="44.69593" lon="8.7692367"><ele>231.33333333333331</ele><time>2026-04-21T09:27:52.664Z</time></trkpt><trkpt lat="44.6960683" lon="8.76912"><ele>228.66666666666666</ele><time>2026-04-21T09:27:53.664Z</time></trkpt><trkpt lat="44.6962167" lon="8.7690017"><ele>226.0</ele><time>2026-04-21T09:27:54.664Z</time></trkpt><trkpt lat="44.6963633" lon="8.7688967"><ele>226.0</ele><time>2026-04-21T09:27:55.664Z</time></trkpt><trkpt lat="44.6965183" lon="8.7687933"><ele>226.0</ele><time>2026-04-21T09:27:56.664Z</time></trkpt><trkpt lat="44.6966683" lon="8.768695"><ele>226.0</ele><time>2026-04-21T09:27:57.664Z</time></trkpt><trkpt lat="44.6968017" lon="8.7685783"><ele>220.33333333333331</ele><time>2026-04-21T09:27:58.664Z</time></trkpt><trkpt lat="44.696915" lon="8.7683933"><ele>214.66666666666669</ele><time>2026-04-21T09:27:59.664Z</time></trkpt><trkpt lat="44.697" lon="8.768215"><ele>209.0</ele><time>2026-04-21T09:28:00.665Z</time></trkpt><trkpt lat="44.6970767" lon="8.7679817"><ele>209.0</ele><time>2026-04-21T09:28:01.665Z</time></trkpt><trkpt lat="44.6971583" lon="8.7677433"><ele>209.0</ele><time>2026-04-21T09:28:02.665Z</time></trkpt><trkpt lat="44.69723" lon="8.7675283"><ele>209.0</ele><time>2026-04-21T09:28:03.665Z</time></trkpt><trkpt lat="44.6973017" lon="8.7673133"><ele>207.66666666666669</ele><time>2026-04-21T09:28:04.664Z</time></trkpt><trkpt lat="44.69737" lon="8.767115"><ele>206.33333333333331</ele><time>2026-04-21T09:28:05.665Z</time></trkpt><trkpt lat="44.697445" lon="8.7669283"><ele>205.0</ele><time>2026-04-21T09:28:06.665Z</time></trkpt><trkpt lat="44.69754" lon="8.7667583"><ele>205.0</ele><time>2026-04-21T09:28:07.664Z</time></trkpt><trkpt lat="44.69765" lon="8.7665983"><ele>205.0</ele><time>2026-04-21T09:28:08.664Z</time></trkpt><trkpt lat="44.697765" lon="8.766435"><ele>205.0</ele><time>2026-04-21T09:28:09.664Z</time></trkpt><trkpt lat="44.6978817" lon="8.76626"><ele>205.0</ele><time>2026-04-21T09:28:10.664Z</time></trkpt><trkpt lat="44.6979967" lon="8.7660683"><ele>205.0</ele><time>2026-04-21T09:28:11.665Z</time></trkpt><trkpt lat="44.69811" lon="8.7658533"><ele>205.0</ele><time>2026-04-21T09:28:12.664Z</time></trkpt><trkpt lat="44.69822" lon="8.7656083"><ele>205.0</ele><time>2026-04-21T09:28:13.665Z</time></trkpt><trkpt lat="44.698335" lon="8.7653583"><ele>205.0</ele><time>2026-04-21T09:28:14.665Z</time></trkpt><trkpt lat="44.698445" lon="8.7651067"><ele>205.0</ele><time>2026-04-21T09:28:15.664Z</time></trkpt><trkpt lat="44.6985433" lon="8.764865"><ele>203.66666666666666</ele><time>2026-04-21T09:28:16.664Z</time></trkpt><trkpt lat="44.6986483" lon="8.7646367"><ele>202.33333333333331</ele><time>2026-04-21T09:28:17.665Z</time></trkpt><trkpt lat="44.698745" lon="8.7644167"><ele>201.0</ele><time>2026-04-21T09:28:18.664Z</time></trkpt><trkpt lat="44.698845" lon="8.7642083"><ele>200.33333333333331</ele><time>2026-04-21T09:28:19.664Z</time></trkpt><trkpt lat="44.6989433" lon="8.7640133"><ele>199.66666666666666</ele><time>2026-04-21T09:28:20.665Z</time></trkpt><trkpt lat="44.6990333" lon="8.76381"><ele>199.0</ele><time>2026-04-21T09:28:21.664Z</time></trkpt><trkpt lat="44.6991383" lon="8.763615"><ele>198.66666666666666</ele><time>2026-04-21T09:28:22.664Z</time></trkpt><trkpt lat="44.6992367" lon="8.7634283"><ele>198.33333333333331</ele><time>2026-04-21T09:28:23.664Z</time></trkpt><trkpt lat="44.6993433" lon="8.763245"><ele>198.0</ele><time>2026-04-21T09:28:24.664Z</time></trkpt><trkpt lat="44.699455" lon="8.763055"><ele>198.0</ele><time>2026-04-21T09:28:25.664Z</time></trkpt><trkpt lat="44.6995783" lon="8.7628617"><ele>198.0</ele><time>2026-04-21T09:28:26.664Z</time></trkpt><trkpt lat="44.6996967" lon="8.76267"><ele>198.0</ele><time>2026-04-21T09:28:27.665Z</time></trkpt><trkpt lat="44.6998083" lon="8.7624833"><ele>196.66666666666669</ele><time>2026-04-21T09:28:28.664Z</time></trkpt><trkpt lat="44.6999217" lon="8.7623083"><ele>195.33333333333334</ele><time>2026-04-21T09:28:29.665Z</time></trkpt><trkpt lat="44.7000283" lon="8.7621283"><ele>194.0</ele><time>2026-04-21T09:28:30.664Z</time></trkpt><trkpt lat="44.7001217" lon="8.76196"><ele>193.33333333333334</ele><time>2026-04-21T09:28:31.665Z</time></trkpt><trkpt lat="44.7002033" lon="8.7617567"><ele>192.66666666666669</ele><time>2026-04-21T09:28:32.664Z</time></trkpt><trkpt lat="44.70026" lon="8.76154"><ele>192.0</ele><time>2026-04-21T09:28:33.665Z</time></trkpt><trkpt lat="44.7003167" lon="8.7612933"><ele>192.0</ele><time>2026-04-21T09:28:34.665Z</time></trkpt><trkpt lat="44.7003783" lon="8.7610533"><ele>192.0</ele><time>2026-04-21T09:28:35.665Z</time></trkpt><trkpt lat="44.7004483" lon="8.760815"><ele>192.0</ele><time>2026-04-21T09:28:36.665Z</time></trkpt><trkpt lat="44.70052" lon="8.7605933"><ele>191.0</ele><time>2026-04-21T09:28:37.664Z</time></trkpt><trkpt lat="44.7006" lon="8.7603683"><ele>190.0</ele><time>2026-04-21T09:28:38.664Z</time></trkpt><trkpt lat="44.70068" lon="8.7601383"><ele>189.0</ele><time>2026-04-21T09:28:39.665Z</time></trkpt><trkpt lat="44.7007617" lon="8.7599083"><ele>187.33333333333334</ele><time>2026-04-21T09:28:40.665Z</time></trkpt><trkpt lat="44.7008433" lon="8.75967"><ele>185.66666666666669</ele><time>2026-04-21T09:28:41.664Z</time></trkpt><trkpt lat="44.70093" lon="8.7594367"><ele>184.0</ele><time>2026-04-21T09:28:42.665Z</time></trkpt><trkpt lat="44.70101" lon="8.7592217"><ele>185.66666666666669</ele><time>2026-04-21T09:28:43.664Z</time></trkpt><trkpt lat="44.7010883" lon="8.759005"><ele>187.33333333333334</ele><time>2026-04-21T09:28:44.665Z</time></trkpt><trkpt lat="44.7011633" lon="8.7588017"><ele>189.0</ele><time>2026-04-21T09:28:45.664Z</time></trkpt><trkpt lat="44.7012433" lon="8.7586133"><ele>188.0</ele><time>2026-04-21T09:28:46.665Z</time></trkpt><trkpt lat="44.7013433" lon="8.7584167"><ele>187.0</ele><time>2026-04-21T09:28:47.664Z</time></trkpt><trkpt lat="44.7014533" lon="8.7582333"><ele>186.0</ele><time>2026-04-21T09:28:48.665Z</time></trkpt><trkpt lat="44.7015867" lon="8.758045"><ele>186.0</ele><time>2026-04-21T09:28:49.664Z</time></trkpt><trkpt lat="44.7017267" lon="8.7578417"><ele>186.0</ele><time>2026-04-21T09:28:50.665Z</time></trkpt><trkpt lat="44.7018733" lon="8.7576317"><ele>186.0</ele><time>2026-04-21T09:28:51.664Z</time></trkpt><trkpt lat="44.702005" lon="8.7574333"><ele>186.66666666666666</ele><time>2026-04-21T09:28:52.664Z</time></trkpt><trkpt lat="44.7021383" lon="8.7572417"><ele>187.33333333333331</ele><time>2026-04-21T09:28:53.665Z</time></trkpt><trkpt lat="44.7022667" lon="8.757065"><ele>188.0</ele><time>2026-04-21T09:28:54.664Z</time></trkpt><trkpt lat="44.7023933" lon="8.7568933"><ele>187.33333333333331</ele><time>2026-04-21T09:28:55.665Z</time></trkpt><trkpt lat="44.7025167" lon="8.7567333"><ele>186.66666666666666</ele><time>2026-04-21T09:28:56.665Z</time></trkpt><trkpt lat="44.702645" lon="8.7565933"><ele>186.0</ele><time>2026-04-21T09:28:57.664Z</time></trkpt><trkpt lat="44.7027683" lon="8.7564733"><ele>186.0</ele><time>2026-04-21T09:28:58.664Z</time></trkpt><trkpt lat="44.7029017" lon="8.75635"><ele>186.0</ele><time>2026-04-21T09:28:59.665Z</time></trkpt><trkpt lat="44.7030433" lon="8.756215"><ele>186.0</ele><time>2026-04-21T09:29:00.664Z</time></trkpt><trkpt lat="44.70319" lon="8.7560467"><ele>183.33333333333334</ele><time>2026-04-21T09:29:01.664Z</time></trkpt><trkpt lat="44.7033317" lon="8.7558383"><ele>180.66666666666669</ele><time>2026-04-21T09:29:02.664Z</time></trkpt><trkpt lat="44.703465" lon="8.7556017"><ele>178.0</ele><time>2026-04-21T09:29:03.664Z</time></trkpt><trkpt lat="44.703575" lon="8.755375"><ele>177.75</ele><time>2026-04-21T09:29:04.664Z</time></trkpt><trkpt lat="44.703665" lon="8.755175"><ele>177.5</ele><time>2026-04-21T09:29:05.665Z</time></trkpt><trkpt lat="44.70374" lon="8.754995"><ele>177.25</ele><time>2026-04-21T09:29:06.664Z</time></trkpt><trkpt lat="44.7038033" lon="8.7548517"><ele>177.0</ele><time>2026-04-21T09:29:07.664Z</time></trkpt><trkpt lat="44.7038483" lon="8.754765"><ele>177.0</ele><time>2026-04-21T09:29:08.664Z</time></trkpt><trkpt lat="44.7038667" lon="8.75468"><ele>177.0</ele><time>2026-04-21T09:29:10.664Z</time></trkpt><trkpt lat="44.7038133" lon="8.7545667"><ele>177.0</ele><time>2026-04-21T09:29:12.664Z</time></trkpt><trkpt lat="44.7037433" lon="8.75448"><ele>177.0</ele><time>2026-04-21T09:29:13.664Z</time></trkpt><trkpt lat="44.7036617" lon="8.754385"><ele>177.0</ele><time>2026-04-21T09:29:14.664Z</time></trkpt><trkpt lat="44.7035783" lon="8.7542683"><ele>177.25</ele><time>2026-04-21T09:29:15.664Z</time></trkpt><trkpt lat="44.7034767" lon="8.7541483"><ele>177.5</ele><time>2026-04-21T09:29:16.664Z</time></trkpt><trkpt lat="44.7033667" lon="8.7540183"><ele>177.75</ele><time>2026-04-21T09:29:17.665Z</time></trkpt><trkpt lat="44.70325" lon="8.7538683"><ele>178.0</ele><time>2026-04-21T09:29:18.664Z</time></trkpt><trkpt lat="44.703125" lon="8.7537083"><ele>178.0</ele><time>2026-04-21T09:29:19.665Z</time></trkpt><trkpt lat="44.7029967" lon="8.7535467"><ele>178.0</ele><time>2026-04-21T09:29:20.664Z</time></trkpt><trkpt lat="44.7028583" lon="8.7533717"><ele>178.0</ele><time>2026-04-21T09:29:21.664Z</time></trkpt><trkpt lat="44.7027233" lon="8.7532067"><ele>177.33333333333334</ele><time>2026-04-21T09:29:22.665Z</time></trkpt><trkpt lat="44.702585" lon="8.753045"><ele>176.66666666666666</ele><time>2026-04-21T09:29:23.665Z</time></trkpt><trkpt lat="44.702445" lon="8.75289"><ele>176.0</ele><time>2026-04-21T09:29:24.664Z</time></trkpt><trkpt lat="44.702295" lon="8.7527267"><ele>176.66666666666666</ele><time>2026-04-21T09:29:25.664Z</time></trkpt><trkpt lat="44.7021483" lon="8.752555"><ele>177.33333333333334</ele><time>2026-04-21T09:29:26.665Z</time></trkpt><trkpt lat="44.7020133" lon="8.7524067"><ele>178.0</ele><time>2026-04-21T09:29:27.665Z</time></trkpt><trkpt lat="44.7018983" lon="8.75228"><ele>178.0</ele><time>2026-04-21T09:29:28.665Z</time></trkpt><trkpt lat="44.7017883" lon="8.7521533"><ele>178.0</ele><time>2026-04-21T09:29:29.664Z</time></trkpt><trkpt lat="44.7016783" lon="8.7520183"><ele>178.0</ele><time>2026-04-21T09:29:30.664Z</time></trkpt><trkpt lat="44.7015667" lon="8.75187"><ele>178.0</ele><time>2026-04-21T09:29:31.665Z</time></trkpt><trkpt lat="44.7014383" lon="8.7517117"><ele>178.66666666666669</ele><time>2026-04-21T09:29:32.664Z</time></trkpt><trkpt lat="44.70133" lon="8.7515417"><ele>179.33333333333334</ele><time>2026-04-21T09:29:33.665Z</time></trkpt><trkpt lat="44.7012283" lon="8.7513833"><ele>180.0</ele><time>2026-04-21T09:29:34.664Z</time></trkpt><trkpt lat="44.7011333" lon="8.751235"><ele>182.0</ele><time>2026-04-21T09:29:35.664Z</time></trkpt><trkpt lat="44.7010183" lon="8.7511033"><ele>184.0</ele><time>2026-04-21T09:29:36.664Z</time></trkpt><trkpt lat="44.7008917" lon="8.7510183"><ele>186.0</ele><time>2026-04-21T09:29:37.665Z</time></trkpt><trkpt lat="44.7007567" lon="8.7509533"><ele>188.0</ele><time>2026-04-21T09:29:38.665Z</time></trkpt><trkpt lat="44.7006033" lon="8.7509067"><ele>188.0</ele><time>2026-04-21T09:29:39.665Z</time></trkpt><trkpt lat="44.70044" lon="8.7508633"><ele>188.0</ele><time>2026-04-21T09:29:40.665Z</time></trkpt><trkpt lat="44.7002783" lon="8.750835"><ele>188.0</ele><time>2026-04-21T09:29:41.665Z</time></trkpt><trkpt lat="44.700115" lon="8.7508167"><ele>190.33333333333331</ele><time>2026-04-21T09:29:42.664Z</time></trkpt><trkpt lat="44.6999583" lon="8.75079"><ele>192.66666666666666</ele><time>2026-04-21T09:29:43.665Z</time></trkpt><trkpt lat="44.6997983" lon="8.7507383"><ele>195.0</ele><time>2026-04-21T09:29:44.664Z</time></trkpt><trkpt lat="44.699655" lon="8.750655"><ele>195.0</ele><time>2026-04-21T09:29:45.664Z</time></trkpt><trkpt lat="44.6995283" lon="8.750565"><ele>195.0</ele><time>2026-04-21T09:29:46.664Z</time></trkpt><trkpt lat="44.6994283" lon="8.750455"><ele>195.0</ele><time>2026-04-21T09:29:47.665Z</time></trkpt><trkpt lat="44.6993483" lon="8.7503183"><ele>195.0</ele><time>2026-04-21T09:29:48.665Z</time></trkpt><trkpt lat="44.6992883" lon="8.750145"><ele>197.66666666666669</ele><time>2026-04-21T09:29:49.664Z</time></trkpt><trkpt lat="44.6992267" lon="8.7499567"><ele>200.33333333333334</ele><time>2026-04-21T09:29:50.665Z</time></trkpt><trkpt lat="44.699165" lon="8.74976"><ele>203.0</ele><time>2026-04-21T09:29:51.664Z</time></trkpt><trkpt lat="44.6990767" lon="8.74959"><ele>203.0</ele><time>2026-04-21T09:29:52.664Z</time></trkpt><trkpt lat="44.69898" lon="8.74943"><ele>203.0</ele><time>2026-04-21T09:29:53.664Z</time></trkpt><trkpt lat="44.6988617" lon="8.7492933"><ele>203.0</ele><time>2026-04-21T09:29:54.665Z</time></trkpt><trkpt lat="44.6987383" lon="8.74918"><ele>203.0</ele><time>2026-04-21T09:29:55.664Z</time></trkpt><trkpt lat="44.69859" lon="8.749085"><ele>203.0</ele><time>2026-04-21T09:29:56.665Z</time></trkpt><trkpt lat="44.6984517" lon="8.7489983"><ele>203.0</ele><time>2026-04-21T09:29:57.665Z</time></trkpt><trkpt lat="44.6982967" lon="8.7489433"><ele>207.0</ele><time>2026-04-21T09:29:58.664Z</time></trkpt><trkpt lat="44.6981433" lon="8.7488883"><ele>211.0</ele><time>2026-04-21T09:29:59.665Z</time></trkpt><trkpt lat="44.6979883" lon="8.748855"><ele>215.0</ele><time>2026-04-21T09:30:00.664Z</time></trkpt><trkpt lat="44.69784" lon="8.7488383"><ele>217.25</ele><time>2026-04-21T09:30:01.665Z</time></trkpt><trkpt lat="44.6977033" lon="8.7488467"><ele>219.5</ele><time>2026-04-21T09:30:02.665Z</time></trkpt><trkpt lat="44.6975817" lon="8.7488883"><ele>221.75</ele><time>2026-04-21T09:30:03.664Z</time></trkpt><trkpt lat="44.697475" lon="8.74897"><ele>224.0</ele><time>2026-04-21T09:30:04.664Z</time></trkpt><trkpt lat="44.697385" lon="8.7490867"><ele>224.0</ele><time>2026-04-21T09:30:05.664Z</time></trkpt><trkpt lat="44.6973117" lon="8.7492517"><ele>224.0</ele><time>2026-04-21T09:30:06.664Z</time></trkpt><trkpt lat="44.6972283" lon="8.7494233"><ele>224.0</ele><time>2026-04-21T09:30:07.664Z</time></trkpt><trkpt lat="44.69714" lon="8.7495933"><ele>224.0</ele><time>2026-04-21T09:30:08.664Z</time></trkpt><trkpt lat="44.69704" lon="8.749735"><ele>226.0</ele><time>2026-04-21T09:30:09.665Z</time></trkpt><trkpt lat="44.696925" lon="8.7498583"><ele>228.0</ele><time>2026-04-21T09:30:10.664Z</time></trkpt><trkpt lat="44.6968033" lon="8.7499333"><ele>230.0</ele><time>2026-04-21T09:30:11.665Z</time></trkpt><trkpt lat="44.6966583" lon="8.7499733"><ele>232.0</ele><time>2026-04-21T09:30:12.664Z</time></trkpt><trkpt lat="44.696515" lon="8.75002"><ele>234.25</ele><time>2026-04-21T09:30:13.664Z</time></trkpt><trkpt lat="44.6963767" lon="8.7500867"><ele>236.5</ele><time>2026-04-21T09:30:14.665Z</time></trkpt><trkpt lat="44.6962417" lon="8.7501633"><ele>238.75</ele><time>2026-04-21T09:30:15.664Z</time></trkpt><trkpt lat="44.69612" lon="8.75026"><ele>241.0</ele><time>2026-04-21T09:30:16.665Z</time></trkpt><trkpt lat="44.6960183" lon="8.750325"><ele>244.4</ele><time>2026-04-21T09:30:17.664Z</time></trkpt><trkpt lat="44.69593" lon="8.7503567"><ele>247.8</ele><time>2026-04-21T09:30:18.664Z</time></trkpt><trkpt lat="44.6958467" lon="8.7503483"><ele>251.20000000000002</ele><time>2026-04-21T09:30:19.664Z</time></trkpt><trkpt lat="44.6957667" lon="8.75033"><ele>254.60000000000002</ele><time>2026-04-21T09:30:20.665Z</time></trkpt><trkpt lat="44.6956783" lon="8.7502967"><ele>258.0</ele><time>2026-04-21T09:30:21.665Z</time></trkpt><trkpt lat="44.6955683" lon="8.7502533"><ele>258.0</ele><time>2026-04-21T09:30:22.664Z</time></trkpt><trkpt lat="44.69546" lon="8.750225"><ele>258.0</ele><time>2026-04-21T09:30:23.664Z</time></trkpt><trkpt lat="44.6953333" lon="8.7502183"><ele>258.0</ele><time>2026-04-21T09:30:24.665Z</time></trkpt><trkpt lat="44.69521" lon="8.7502233"><ele>258.0</ele><time>2026-04-21T09:30:25.665Z</time></trkpt><trkpt lat="44.6951033" lon="8.750235"><ele>259.8</ele><time>2026-04-21T09:30:26.665Z</time></trkpt><trkpt lat="44.695005" lon="8.75023"><ele>261.6</ele><time>2026-04-21T09:30:27.665Z</time></trkpt><trkpt lat="44.6949117" lon="8.750185"><ele>263.4</ele><time>2026-04-21T09:30:28.664Z</time></trkpt><trkpt lat="44.6948183" lon="8.7501167"><ele>265.2</ele><time>2026-04-21T09:30:29.665Z</time></trkpt><trkpt lat="44.69472" lon="8.7500217"><ele>267.0</ele><time>2026-04-21T09:30:30.664Z</time></trkpt><trkpt lat="44.6946067" lon="8.7499217"><ele>267.0</ele><time>2026-04-21T09:30:31.664Z</time></trkpt><trkpt lat="44.6944767" lon="8.74982"><ele>267.0</ele><time>2026-04-21T09:30:32.665Z</time></trkpt><trkpt lat="44.6943333" lon="8.7497233"><ele>267.0</ele><time>2026-04-21T09:30:33.664Z</time></trkpt><trkpt lat="44.6941967" lon="8.7496183"><ele>269.0</ele><time>2026-04-21T09:30:34.665Z</time></trkpt><trkpt lat="44.6940833" lon="8.7495033"><ele>271.0</ele><time>2026-04-21T09:30:35.665Z</time></trkpt><trkpt lat="44.6939883" lon="8.7493833"><ele>273.0</ele><time>2026-04-21T09:30:36.664Z</time></trkpt><trkpt lat="44.693895" lon="8.7492667"><ele>275.0</ele><time>2026-04-21T09:30:37.664Z</time></trkpt><trkpt lat="44.693795" lon="8.7491733"><ele>275.0</ele><time>2026-04-21T09:30:38.664Z</time></trkpt><trkpt lat="44.693675" lon="8.7491117"><ele>275.0</ele><time>2026-04-21T09:30:39.665Z</time></trkpt><trkpt lat="44.6935617" lon="8.7490467"><ele>275.0</ele><time>2026-04-21T09:30:40.664Z</time></trkpt><trkpt lat="44.6934583" lon="8.7489683"><ele>275.0</ele><time>2026-04-21T09:30:41.665Z</time></trkpt><trkpt lat="44.6933733" lon="8.74889"><ele>277.1666666666667</ele><time>2026-04-21T09:30:42.665Z</time></trkpt><trkpt lat="44.6933083" lon="8.7488133"><ele>279.33333333333337</ele><time>2026-04-21T09:30:43.665Z</time></trkpt><trkpt lat="44.693255" lon="8.748765"><ele>281.5</ele><time>2026-04-21T09:30:44.664Z</time></trkpt><trkpt lat="44.6931433" lon="8.7487667"><ele>283.6666666666667</ele><time>2026-04-21T09:30:46.665Z</time></trkpt><trkpt lat="44.6930733" lon="8.74881"><ele>285.8333333333333</ele><time>2026-04-21T09:30:47.665Z</time></trkpt><trkpt lat="44.6929833" lon="8.7488817"><ele>288.0</ele><time>2026-04-21T09:30:48.664Z</time></trkpt><trkpt lat="44.692875" lon="8.748955"><ele>288.0</ele><time>2026-04-21T09:30:49.665Z</time></trkpt><trkpt lat="44.6927683" lon="8.749035"><ele>288.0</ele><time>2026-04-21T09:30:50.664Z</time></trkpt><trkpt lat="44.6926683" lon="8.74912"><ele>288.0</ele><time>2026-04-21T09:30:51.665Z</time></trkpt><trkpt lat="44.6925883" lon="8.7491867"><ele>288.0</ele><time>2026-04-21T09:30:52.665Z</time></trkpt><trkpt lat="44.6925017" lon="8.74925"><ele>288.0</ele><time>2026-04-21T09:30:54.664Z</time></trkpt><trkpt lat="44.6924667" lon="8.7490733"><ele>288.6666666666667</ele><time>2026-04-21T09:31:08.664Z</time></trkpt><trkpt lat="44.6924567" lon="8.7489533"><ele>289.3333333333333</ele><time>2026-04-21T09:31:09.665Z</time></trkpt><trkpt lat="44.6924433" lon="8.748835"><ele>290.0</ele><time>2026-04-21T09:31:10.664Z</time></trkpt><trkpt lat="44.6924383" lon="8.7487133"><ele>290.66666666666663</ele><time>2026-04-21T09:31:11.664Z</time></trkpt><trkpt lat="44.6924317" lon="8.7485867"><ele>291.3333333333333</ele><time>2026-04-21T09:31:12.664Z</time></trkpt><trkpt lat="44.6924133" lon="8.7484467"><ele>292.0</ele><time>2026-04-21T09:31:13.665Z</time></trkpt><trkpt lat="44.6923933" lon="8.7483033"><ele>292.0</ele><time>2026-04-21T09:31:14.664Z</time></trkpt><trkpt lat="44.6923633" lon="8.7481617"><ele>292.0</ele><time>2026-04-21T09:31:15.665Z</time></trkpt><trkpt lat="44.6923383" lon="8.74801"><ele>292.0</ele><time>2026-04-21T09:31:16.664Z</time></trkpt><trkpt lat="44.692305" lon="8.7478783"><ele>292.0</ele><time>2026-04-21T09:31:17.664Z</time></trkpt><trkpt lat="44.6922617" lon="8.7477467"><ele>292.0</ele><time>2026-04-21T09:31:18.664Z</time></trkpt><trkpt lat="44.692215" lon="8.7476217"><ele>292.0</ele><time>2026-04-21T09:31:19.665Z</time></trkpt><trkpt lat="44.692165" lon="8.7475"><ele>292.0</ele><time>2026-04-21T09:31:20.664Z</time></trkpt><trkpt lat="44.6921117" lon="8.74739"><ele>292.0</ele><time>2026-04-21T09:31:21.664Z</time></trkpt><trkpt lat="44.692055" lon="8.747305"><ele>292.0</ele><time>2026-04-21T09:31:22.664Z</time></trkpt><trkpt lat="44.6919917" lon="8.7472433"><ele>292.0</ele><time>2026-04-21T09:31:23.665Z</time></trkpt><trkpt lat="44.69193" lon="8.7472067"><ele>292.0</ele><time>2026-04-21T09:31:24.664Z</time></trkpt><trkpt lat="44.6918067" lon="8.7471933"><ele>291.0</ele><time>2026-04-21T09:31:26.664Z</time></trkpt><trkpt lat="44.6917317" lon="8.7471883"><ele>290.0</ele><time>2026-04-21T09:31:27.665Z</time></trkpt><trkpt lat="44.691645" lon="8.7471683"><ele>289.0</ele><time>2026-04-21T09:31:28.665Z</time></trkpt><trkpt lat="44.6915533" lon="8.7471283"><ele>288.0</ele><time>2026-04-21T09:31:29.665Z</time></trkpt><trkpt lat="44.6914533" lon="8.747055"><ele>287.0</ele><time>2026-04-21T09:31:30.664Z</time></trkpt><trkpt lat="44.691355" lon="8.746945"><ele>288.0</ele><time>2026-04-21T09:31:31.665Z</time></trkpt><trkpt lat="44.6912583" lon="8.746815"><ele>289.0</ele><time>2026-04-21T09:31:32.664Z</time></trkpt><trkpt lat="44.691155" lon="8.7466717"><ele>290.0</ele><time>2026-04-21T09:31:33.664Z</time></trkpt><trkpt lat="44.6910517" lon="8.7465017"><ele>291.0</ele><time>2026-04-21T09:31:34.665Z</time></trkpt><trkpt lat="44.6909533" lon="8.746325"><ele>288.6666666666667</ele><time>2026-04-21T09:31:35.665Z</time></trkpt><trkpt lat="44.6908533" lon="8.74614"><ele>286.33333333333337</ele><time>2026-04-21T09:31:36.664Z</time></trkpt><trkpt lat="44.6907517" lon="8.7459617"><ele>284.0</ele><time>2026-04-21T09:31:37.665Z</time></trkpt><trkpt lat="44.69065" lon="8.74579"><ele>284.0</ele><time>2026-04-21T09:31:38.664Z</time></trkpt><trkpt lat="44.69055" lon="8.7456383"><ele>284.0</ele><time>2026-04-21T09:31:39.665Z</time></trkpt><trkpt lat="44.69045" lon="8.7455033"><ele>284.0</ele><time>2026-04-21T09:31:40.664Z</time></trkpt><trkpt lat="44.6903417" lon="8.7454017"><ele>284.0</ele><time>2026-04-21T09:31:41.664Z</time></trkpt><trkpt lat="44.6902433" lon="8.745315"><ele>280.2</ele><time>2026-04-21T09:31:42.664Z</time></trkpt><trkpt lat="44.6901467" lon="8.745255"><ele>276.4</ele><time>2026-04-21T09:31:43.665Z</time></trkpt><trkpt lat="44.690065" lon="8.7452283"><ele>272.6</ele><time>2026-04-21T09:31:44.665Z</time></trkpt><trkpt lat="44.6899733" lon="8.7452267"><ele>268.8</ele><time>2026-04-21T09:31:45.664Z</time></trkpt><trkpt lat="44.6898633" lon="8.74524"><ele>265.0</ele><time>2026-04-21T09:31:46.665Z</time></trkpt><trkpt lat="44.68974" lon="8.7452717"><ele>265.0</ele><time>2026-04-21T09:31:47.665Z</time></trkpt><trkpt lat="44.6896167" lon="8.745295"><ele>265.0</ele><time>2026-04-21T09:31:48.665Z</time></trkpt><trkpt lat="44.6895083" lon="8.7452967"><ele>265.0</ele><time>2026-04-21T09:31:49.665Z</time></trkpt><trkpt lat="44.6894133" lon="8.74528"><ele>265.0</ele><time>2026-04-21T09:31:50.665Z</time></trkpt><trkpt lat="44.6893217" lon="8.7452517"><ele>265.0</ele><time>2026-04-21T09:31:51.665Z</time></trkpt><trkpt lat="44.6892333" lon="8.7452133"><ele>262.5</ele><time>2026-04-21T09:31:52.664Z</time></trkpt><trkpt lat="44.6891533" lon="8.7451417"><ele>260.0</ele><time>2026-04-21T09:31:53.664Z</time></trkpt><trkpt lat="44.6890683" lon="8.745035"><ele>257.5</ele><time>2026-04-21T09:31:54.665Z</time></trkpt><trkpt lat="44.6889833" lon="8.744905"><ele>255.0</ele><time>2026-04-21T09:31:55.665Z</time></trkpt><trkpt lat="44.6888933" lon="8.7447767"><ele>255.0</ele><time>2026-04-21T09:31:56.665Z</time></trkpt><trkpt lat="44.6888" lon="8.7446533"><ele>255.0</ele><time>2026-04-21T09:31:57.665Z</time></trkpt><trkpt lat="44.6887033" lon="8.7445483"><ele>255.0</ele><time>2026-04-21T09:31:58.665Z</time></trkpt><trkpt lat="44.6885967" lon="8.7444483"><ele>255.0</ele><time>2026-04-21T09:31:59.664Z</time></trkpt><trkpt lat="44.68848" lon="8.74435"><ele>252.5</ele><time>2026-04-21T09:32:00.665Z</time></trkpt><trkpt lat="44.688355" lon="8.7442633"><ele>250.0</ele><time>2026-04-21T09:32:01.664Z</time></trkpt><trkpt lat="44.68821" lon="8.744185"><ele>247.5</ele><time>2026-04-21T09:32:02.664Z</time></trkpt><trkpt lat="44.6880783" lon="8.744105"><ele>245.0</ele><time>2026-04-21T09:32:03.664Z</time></trkpt><trkpt lat="44.6879517" lon="8.744015"><ele>245.0</ele><time>2026-04-21T09:32:04.664Z</time></trkpt><trkpt lat="44.687835" lon="8.7439233"><ele>245.0</ele><time>2026-04-21T09:32:05.664Z</time></trkpt><trkpt lat="44.6877333" lon="8.7438383"><ele>245.0</ele><time>2026-04-21T09:32:06.665Z</time></trkpt><trkpt lat="44.6876533" lon="8.7437517"><ele>245.0</ele><time>2026-04-21T09:32:07.664Z</time></trkpt><trkpt lat="44.6875783" lon="8.74364"><ele>240.75</ele><time>2026-04-21T09:32:08.664Z</time></trkpt><trkpt lat="44.6874967" lon="8.7435067"><ele>236.5</ele><time>2026-04-21T09:32:09.664Z</time></trkpt><trkpt lat="44.687405" lon="8.7433633"><ele>232.25</ele><time>2026-04-21T09:32:10.664Z</time></trkpt><trkpt lat="44.6873067" lon="8.7432317"><ele>228.0</ele><time>2026-04-21T09:32:11.664Z</time></trkpt><trkpt lat="44.68722" lon="8.7431"><ele>228.0</ele><time>2026-04-21T09:32:12.664Z</time></trkpt><trkpt lat="44.6871483" lon="8.7429433"><ele>228.0</ele><time>2026-04-21T09:32:13.664Z</time></trkpt><trkpt lat="44.6870833" lon="8.7427833"><ele>228.0</ele><time>2026-04-21T09:32:14.665Z</time></trkpt><trkpt lat="44.6870233" lon="8.7426717"><ele>228.0</ele><time>2026-04-21T09:32:15.664Z</time></trkpt><trkpt lat="44.6869467" lon="8.7425617"><ele>225.0</ele><time>2026-04-21T09:32:16.665Z</time></trkpt><trkpt lat="44.686845" lon="8.7424783"><ele>222.0</ele><time>2026-04-21T09:32:17.665Z</time></trkpt><trkpt lat="44.6867333" lon="8.74239"><ele>219.0</ele><time>2026-04-21T09:32:18.664Z</time></trkpt><trkpt lat="44.68662" lon="8.74229"><ele>216.0</ele><time>2026-04-21T09:32:19.664Z</time></trkpt><trkpt lat="44.6865" lon="8.7421767"><ele>216.0</ele><time>2026-04-21T09:32:20.665Z</time></trkpt><trkpt lat="44.6863867" lon="8.7420667"><ele>216.0</ele><time>2026-04-21T09:32:21.665Z</time></trkpt><trkpt lat="44.6862767" lon="8.741945"><ele>216.0</ele><time>2026-04-21T09:32:22.664Z</time></trkpt><trkpt lat="44.6861667" lon="8.7417833"><ele>216.0</ele><time>2026-04-21T09:32:23.664Z</time></trkpt><trkpt lat="44.686085" lon="8.7416117"><ele>213.5</ele><time>2026-04-21T09:32:24.664Z</time></trkpt><trkpt lat="44.6860017" lon="8.74145"><ele>211.0</ele><time>2026-04-21T09:32:25.664Z</time></trkpt><trkpt lat="44.685925" lon="8.7413067"><ele>208.5</ele><time>2026-04-21T09:32:26.664Z</time></trkpt><trkpt lat="44.6858333" lon="8.74119"><ele>206.0</ele><time>2026-04-21T09:32:27.664Z</time></trkpt><trkpt lat="44.6857333" lon="8.7411217"><ele>206.0</ele><time>2026-04-21T09:32:28.665Z</time></trkpt><trkpt lat="44.6856367" lon="8.741075"><ele>206.0</ele><time>2026-04-21T09:32:29.665Z</time></trkpt><trkpt lat="44.6855533" lon="8.741015"><ele>206.0</ele><time>2026-04-21T09:32:30.665Z</time></trkpt><trkpt lat="44.685495" lon="8.74094"><ele>206.0</ele><time>2026-04-21T09:32:31.664Z</time></trkpt><trkpt lat="44.68545" lon="8.7408383"><ele>206.0</ele><time>2026-04-21T09:32:32.664Z</time></trkpt><trkpt lat="44.68544" lon="8.7406967"><ele>205.0</ele><time>2026-04-21T09:32:33.664Z</time></trkpt><trkpt lat="44.6854633" lon="8.740525"><ele>204.0</ele><time>2026-04-21T09:32:34.664Z</time></trkpt><trkpt lat="44.68549" lon="8.74035"><ele>203.0</ele><time>2026-04-21T09:32:35.664Z</time></trkpt><trkpt lat="44.68548" lon="8.740165"><ele>202.0</ele><time>2026-04-21T09:32:36.664Z</time></trkpt><trkpt lat="44.6854583" lon="8.7400017"><ele>200.0</ele><time>2026-04-21T09:32:37.664Z</time></trkpt><trkpt lat="44.6853933" lon="8.7398317"><ele>198.0</ele><time>2026-04-21T09:32:38.665Z</time></trkpt><trkpt lat="44.685305" lon="8.7396583"><ele>196.0</ele><time>2026-04-21T09:32:39.665Z</time></trkpt><trkpt lat="44.68521" lon="8.73949"><ele>194.0</ele><time>2026-04-21T09:32:40.664Z</time></trkpt><trkpt lat="44.6851167" lon="8.7393367"><ele>192.5</ele><time>2026-04-21T09:32:41.664Z</time></trkpt><trkpt lat="44.685035" lon="8.739195"><ele>191.0</ele><time>2026-04-21T09:32:42.664Z</time></trkpt><trkpt lat="44.6849783" lon="8.7390583"><ele>189.5</ele><time>2026-04-21T09:32:43.664Z</time></trkpt><trkpt lat="44.684945" lon="8.7388983"><ele>188.0</ele><time>2026-04-21T09:32:44.664Z</time></trkpt><trkpt lat="44.6849417" lon="8.7387183"><ele>187.8</ele><time>2026-04-21T09:32:45.664Z</time></trkpt><trkpt lat="44.68495" lon="8.7385483"><ele>187.60000000000002</ele><time>2026-04-21T09:32:46.665Z</time></trkpt><trkpt lat="44.6849483" lon="8.738415"><ele>187.39999999999998</ele><time>2026-04-21T09:32:47.664Z</time></trkpt><trkpt lat="44.68494" lon="8.7383117"><ele>187.2</ele><time>2026-04-21T09:32:48.664Z</time></trkpt><trkpt lat="44.68492" lon="8.738225"><ele>187.0</ele><time>2026-04-21T09:32:49.664Z</time></trkpt><trkpt lat="44.6848283" lon="8.7381217"><ele>187.0</ele><time>2026-04-21T09:32:51.664Z</time></trkpt><trkpt lat="44.6847367" lon="8.7381133"><ele>187.0</ele><time>2026-04-21T09:32:52.665Z</time></trkpt><trkpt lat="44.68456" lon="8.7381533"><ele>187.0</ele><time>2026-04-21T09:32:53.664Z</time></trkpt><trkpt lat="44.6843367" lon="8.7382083"><ele>186.66666666666669</ele><time>2026-04-21T09:32:54.665Z</time></trkpt><trkpt lat="44.6841167" lon="8.7382533"><ele>186.33333333333334</ele><time>2026-04-21T09:32:55.665Z</time></trkpt><trkpt lat="44.6839067" lon="8.7383133"><ele>186.0</ele><time>2026-04-21T09:32:56.664Z</time></trkpt><trkpt lat="44.6837417" lon="8.7383383"><ele>186.0</ele><time>2026-04-21T09:32:57.664Z</time></trkpt><trkpt lat="44.6836067" lon="8.738325"><ele>186.0</ele><time>2026-04-21T09:32:58.664Z</time></trkpt><trkpt lat="44.683485" lon="8.73826"><ele>186.0</ele><time>2026-04-21T09:32:59.665Z</time></trkpt><trkpt lat="44.68336" lon="8.7381583"><ele>186.0</ele><time>2026-04-21T09:33:00.664Z</time></trkpt><trkpt lat="44.6832483" lon="8.7380483"><ele>188.0</ele><time>2026-04-21T09:33:01.665Z</time></trkpt><trkpt lat="44.6831483" lon="8.73795"><ele>190.0</ele><time>2026-04-21T09:33:02.664Z</time></trkpt><trkpt lat="44.6830517" lon="8.7378783"><ele>192.0</ele><time>2026-04-21T09:33:03.664Z</time></trkpt><trkpt lat="44.6829483" lon="8.7378483"><ele>194.0</ele><time>2026-04-21T09:33:04.665Z</time></trkpt><trkpt lat="44.682845" lon="8.737845"><ele>196.0</ele><time>2026-04-21T09:33:05.664Z</time></trkpt><trkpt lat="44.682725" lon="8.7378667"><ele>197.0</ele><time>2026-04-21T09:33:06.664Z</time></trkpt><trkpt lat="44.6825933" lon="8.73791"><ele>198.0</ele><time>2026-04-21T09:33:07.665Z</time></trkpt><trkpt lat="44.68247" lon="8.7379983"><ele>199.0</ele><time>2026-04-21T09:33:08.664Z</time></trkpt><trkpt lat="44.6823433" lon="8.7381083"><ele>200.0</ele><time>2026-04-21T09:33:09.664Z</time></trkpt><trkpt lat="44.6822267" lon="8.7382533"><ele>200.0</ele><time>2026-04-21T09:33:10.665Z</time></trkpt><trkpt lat="44.6821017" lon="8.7384017"><ele>200.0</ele><time>2026-04-21T09:33:11.664Z</time></trkpt><trkpt lat="44.6819617" lon="8.738555"><ele>200.0</ele><time>2026-04-21T09:33:12.665Z</time></trkpt><trkpt lat="44.68181" lon="8.7386967"><ele>201.0</ele><time>2026-04-21T09:33:13.664Z</time></trkpt><trkpt lat="44.6816433" lon="8.7388467"><ele>202.0</ele><time>2026-04-21T09:33:14.664Z</time></trkpt><trkpt lat="44.681485" lon="8.73899"><ele>203.0</ele><time>2026-04-21T09:33:15.664Z</time></trkpt><trkpt lat="44.6813317" lon="8.739155"><ele>203.0</ele><time>2026-04-21T09:33:16.665Z</time></trkpt><trkpt lat="44.6811917" lon="8.7392883"><ele>203.0</ele><time>2026-04-21T09:33:17.665Z</time></trkpt><trkpt lat="44.6810583" lon="8.73942"><ele>203.0</ele><time>2026-04-21T09:33:18.665Z</time></trkpt><trkpt lat="44.6809083" lon="8.7395533"><ele>205.66666666666669</ele><time>2026-04-21T09:33:19.665Z</time></trkpt><trkpt lat="44.6807633" lon="8.739675"><ele>208.33333333333331</ele><time>2026-04-21T09:33:20.665Z</time></trkpt><trkpt lat="44.6806283" lon="8.7397833"><ele>211.0</ele><time>2026-04-21T09:33:21.664Z</time></trkpt><trkpt lat="44.680495" lon="8.7398583"><ele>211.0</ele><time>2026-04-21T09:33:22.664Z</time></trkpt><trkpt lat="44.6803533" lon="8.7399217"><ele>211.0</ele><time>2026-04-21T09:33:23.664Z</time></trkpt><trkpt lat="44.6802017" lon="8.739975"><ele>211.0</ele><time>2026-04-21T09:33:24.664Z</time></trkpt><trkpt lat="44.68005" lon="8.74002"><ele>212.66666666666666</ele><time>2026-04-21T09:33:25.665Z</time></trkpt><trkpt lat="44.679875" lon="8.740065"><ele>214.33333333333331</ele><time>2026-04-21T09:33:26.664Z</time></trkpt><trkpt lat="44.6796933" lon="8.740105"><ele>216.0</ele><time>2026-04-21T09:33:27.664Z</time></trkpt><trkpt lat="44.6795133" lon="8.740145"><ele>218.0</ele><time>2026-04-21T09:33:28.664Z</time></trkpt><trkpt lat="44.6793317" lon="8.74018"><ele>220.0</ele><time>2026-04-21T09:33:29.665Z</time></trkpt><trkpt lat="44.679155" lon="8.7402283"><ele>222.0</ele><time>2026-04-21T09:33:30.665Z</time></trkpt><trkpt lat="44.6789833" lon="8.7402733"><ele>222.0</ele><time>2026-04-21T09:33:31.665Z</time></trkpt><trkpt lat="44.67882" lon="8.74031"><ele>222.0</ele><time>2026-04-21T09:33:32.665Z</time></trkpt><trkpt lat="44.678675" lon="8.7403517"><ele>222.0</ele><time>2026-04-21T09:33:33.664Z</time></trkpt><trkpt lat="44.6785233" lon="8.7403467"><ele>222.75</ele><time>2026-04-21T09:33:34.664Z</time></trkpt><trkpt lat="44.678365" lon="8.7403217"><ele>223.5</ele><time>2026-04-21T09:33:35.664Z</time></trkpt><trkpt lat="44.6782233" lon="8.7402983"><ele>224.25</ele><time>2026-04-21T09:33:36.664Z</time></trkpt><trkpt lat="44.6780833" lon="8.7402817"><ele>225.0</ele><time>2026-04-21T09:33:37.664Z</time></trkpt><trkpt lat="44.6779533" lon="8.7403033"><ele>225.0</ele><time>2026-04-21T09:33:38.665Z</time></trkpt><trkpt lat="44.677815" lon="8.74037"><ele>225.0</ele><time>2026-04-21T09:33:39.664Z</time></trkpt><trkpt lat="44.67768" lon="8.7404367"><ele>225.0</ele><time>2026-04-21T09:33:40.665Z</time></trkpt><trkpt lat="44.6775467" lon="8.740535"><ele>225.0</ele><time>2026-04-21T09:33:41.665Z</time></trkpt><trkpt lat="44.6774183" lon="8.74068"><ele>223.66666666666669</ele><time>2026-04-21T09:33:42.665Z</time></trkpt><trkpt lat="44.6773033" lon="8.74088"><ele>222.33333333333334</ele><time>2026-04-21T09:33:43.665Z</time></trkpt><trkpt lat="44.67717" lon="8.74103"><ele>221.0</ele><time>2026-04-21T09:33:44.664Z</time></trkpt><trkpt lat="44.67703" lon="8.7411717"><ele>222.33333333333334</ele><time>2026-04-21T09:33:45.665Z</time></trkpt><trkpt lat="44.6768917" lon="8.7413217"><ele>223.66666666666669</ele><time>2026-04-21T09:33:46.664Z</time></trkpt><trkpt lat="44.67674" lon="8.7414367"><ele>225.0</ele><time>2026-04-21T09:33:47.664Z</time></trkpt><trkpt lat="44.67659" lon="8.7415117"><ele>225.0</ele><time>2026-04-21T09:33:48.665Z</time></trkpt><trkpt lat="44.6764367" lon="8.7415767"><ele>225.0</ele><time>2026-04-21T09:33:49.664Z</time></trkpt><trkpt lat="44.6762867" lon="8.7416467"><ele>225.0</ele><time>2026-04-21T09:33:50.665Z</time></trkpt><trkpt lat="44.6761417" lon="8.7417483"><ele>226.0</ele><time>2026-04-21T09:33:51.665Z</time></trkpt><trkpt lat="44.6759883" lon="8.7418567"><ele>227.0</ele><time>2026-04-21T09:33:52.664Z</time></trkpt><trkpt lat="44.6758417" lon="8.7419883"><ele>228.0</ele><time>2026-04-21T09:33:53.665Z</time></trkpt><trkpt lat="44.6757" lon="8.742125"><ele>228.0</ele><time>2026-04-21T09:33:54.665Z</time></trkpt><trkpt lat="44.6755467" lon="8.7422717"><ele>228.0</ele><time>2026-04-21T09:33:55.665Z</time></trkpt><trkpt lat="44.6753983" lon="8.7424133"><ele>228.0</ele><time>2026-04-21T09:33:56.664Z</time></trkpt><trkpt lat="44.6752333" lon="8.7425533"><ele>228.0</ele><time>2026-04-21T09:33:57.665Z</time></trkpt><trkpt lat="44.6750867" lon="8.742695"><ele>228.0</ele><time>2026-04-21T09:33:58.665Z</time></trkpt><trkpt lat="44.6749367" lon="8.7428417"><ele>228.0</ele><time>2026-04-21T09:33:59.664Z</time></trkpt><trkpt lat="44.674795" lon="8.743"><ele>228.0</ele><time>2026-04-21T09:34:00.664Z</time></trkpt><trkpt lat="44.6746417" lon="8.7431517"><ele>228.0</ele><time>2026-04-21T09:34:01.664Z</time></trkpt><trkpt lat="44.67449" lon="8.7433067"><ele>228.0</ele><time>2026-04-21T09:34:02.664Z</time></trkpt><trkpt lat="44.6743117" lon="8.7434117"><ele>228.0</ele><time>2026-04-21T09:34:03.664Z</time></trkpt><trkpt lat="44.6741517" lon="8.7435117"><ele>228.0</ele><time>2026-04-21T09:34:04.664Z</time></trkpt><trkpt lat="44.6739867" lon="8.7436133"><ele>228.0</ele><time>2026-04-21T09:34:05.664Z</time></trkpt><trkpt lat="44.67382" lon="8.7437283"><ele>234.66666666666669</ele><time>2026-04-21T09:34:06.664Z</time></trkpt><trkpt lat="44.6736667" lon="8.7438617"><ele>241.33333333333334</ele><time>2026-04-21T09:34:07.664Z</time></trkpt><trkpt lat="44.6734833" lon="8.7439367"><ele>248.0</ele><time>2026-04-21T09:34:08.665Z</time></trkpt><trkpt lat="44.6732933" lon="8.7439767"><ele>248.0</ele><time>2026-04-21T09:34:09.665Z</time></trkpt><trkpt lat="44.6731083" lon="8.744005"><ele>248.0</ele><time>2026-04-21T09:34:10.665Z</time></trkpt><trkpt lat="44.6729167" lon="8.7440333"><ele>248.0</ele><time>2026-04-21T09:34:11.664Z</time></trkpt><trkpt lat="44.67273" lon="8.74406"><ele>246.33333333333334</ele><time>2026-04-21T09:34:12.665Z</time></trkpt><trkpt lat="44.6725533" lon="8.7440917"><ele>244.66666666666669</ele><time>2026-04-21T09:34:13.664Z</time></trkpt><trkpt lat="44.6723817" lon="8.744115"><ele>243.0</ele><time>2026-04-21T09:34:14.664Z</time></trkpt><trkpt lat="44.6722033" lon="8.744115"><ele>243.0</ele><time>2026-04-21T09:34:15.664Z</time></trkpt><trkpt lat="44.6720133" lon="8.7440817"><ele>243.0</ele><time>2026-04-21T09:34:16.664Z</time></trkpt><trkpt lat="44.671825" lon="8.744055"><ele>243.0</ele><time>2026-04-21T09:34:17.665Z</time></trkpt><trkpt lat="44.6716383" lon="8.7440433"><ele>243.33333333333331</ele><time>2026-04-21T09:34:18.665Z</time></trkpt><trkpt lat="44.6714533" lon="8.74405"><ele>243.66666666666666</ele><time>2026-04-21T09:34:19.665Z</time></trkpt><trkpt lat="44.67127" lon="8.7440567"><ele>244.0</ele><time>2026-04-21T09:34:20.664Z</time></trkpt><trkpt lat="44.6710967" lon="8.7440667"><ele>244.0</ele><time>2026-04-21T09:34:21.664Z</time></trkpt><trkpt lat="44.670925" lon="8.7441083"><ele>244.0</ele><time>2026-04-21T09:34:22.665Z</time></trkpt><trkpt lat="44.6707583" lon="8.744155"><ele>244.0</ele><time>2026-04-21T09:34:23.664Z</time></trkpt><trkpt lat="44.670585" lon="8.7441817"><ele>244.0</ele><time>2026-04-21T09:34:24.664Z</time></trkpt><trkpt lat="44.6704183" lon="8.7442533"><ele>244.0</ele><time>2026-04-21T09:34:25.665Z</time></trkpt><trkpt lat="44.6702583" lon="8.7443467"><ele>244.0</ele><time>2026-04-21T09:34:26.665Z</time></trkpt><trkpt lat="44.670115" lon="8.7444583"><ele>246.75</ele><time>2026-04-21T09:34:27.664Z</time></trkpt><trkpt lat="44.6699817" lon="8.7445683"><ele>249.5</ele><time>2026-04-21T09:34:28.665Z</time></trkpt><trkpt lat="44.66985" lon="8.7446417"><ele>252.25</ele><time>2026-04-21T09:34:29.665Z</time></trkpt><trkpt lat="44.66971" lon="8.7446833"><ele>255.0</ele><time>2026-04-21T09:34:30.664Z</time></trkpt><trkpt lat="44.6695617" lon="8.7446833"><ele>255.25</ele><time>2026-04-21T09:34:31.664Z</time></trkpt><trkpt lat="44.6694233" lon="8.7446633"><ele>255.5</ele><time>2026-04-21T09:34:32.664Z</time></trkpt><trkpt lat="44.669285" lon="8.744655"><ele>255.75</ele><time>2026-04-21T09:34:33.664Z</time></trkpt><trkpt lat="44.6691333" lon="8.7446433"><ele>256.0</ele><time>2026-04-21T09:34:34.664Z</time></trkpt><trkpt lat="44.6689767" lon="8.7446383"><ele>256.0</ele><time>2026-04-21T09:34:35.664Z</time></trkpt><trkpt lat="44.6688217" lon="8.7446367"><ele>256.0</ele><time>2026-04-21T09:34:36.664Z</time></trkpt><trkpt lat="44.6686583" lon="8.7446483"><ele>256.0</ele><time>2026-04-21T09:34:37.664Z</time></trkpt><trkpt lat="44.66849" lon="8.7446667"><ele>255.33333333333331</ele><time>2026-04-21T09:34:38.665Z</time></trkpt><trkpt lat="44.668325" lon="8.74469"><ele>254.66666666666669</ele><time>2026-04-21T09:34:39.665Z</time></trkpt><trkpt lat="44.668175" lon="8.7447317"><ele>254.0</ele><time>2026-04-21T09:34:40.665Z</time></trkpt><trkpt lat="44.668025" lon="8.7447733"><ele>254.0</ele><time>2026-04-21T09:34:41.664Z</time></trkpt><trkpt lat="44.667875" lon="8.7448317"><ele>254.0</ele><time>2026-04-21T09:34:42.665Z</time></trkpt><trkpt lat="44.6677367" lon="8.7449033"><ele>254.0</ele><time>2026-04-21T09:34:43.665Z</time></trkpt><trkpt lat="44.6675983" lon="8.7449917"><ele>253.33333333333334</ele><time>2026-04-21T09:34:44.665Z</time></trkpt><trkpt lat="44.667455" lon="8.7450867"><ele>252.66666666666669</ele><time>2026-04-21T09:34:45.665Z</time></trkpt><trkpt lat="44.6673" lon="8.745185"><ele>252.0</ele><time>2026-04-21T09:34:46.664Z</time></trkpt><trkpt lat="44.6671433" lon="8.7452817"><ele>256.3333333333333</ele><time>2026-04-21T09:34:47.665Z</time></trkpt><trkpt lat="44.6669833" lon="8.7453917"><ele>260.66666666666663</ele><time>2026-04-21T09:34:48.664Z</time></trkpt><trkpt lat="44.666835" lon="8.745475"><ele>265.0</ele><time>2026-04-21T09:34:49.665Z</time></trkpt><trkpt lat="44.6666967" lon="8.7455567"><ele>265.0</ele><time>2026-04-21T09:34:50.664Z</time></trkpt><trkpt lat="44.66658" lon="8.7456433"><ele>265.0</ele><time>2026-04-21T09:34:51.665Z</time></trkpt><trkpt lat="44.6664517" lon="8.7457267"><ele>265.0</ele><time>2026-04-21T09:34:52.664Z</time></trkpt><trkpt lat="44.66633" lon="8.7458017"><ele>265.0</ele><time>2026-04-21T09:34:53.664Z</time></trkpt><trkpt lat="44.6661967" lon="8.745905"><ele>264.3333333333333</ele><time>2026-04-21T09:34:54.665Z</time></trkpt><trkpt lat="44.6660583" lon="8.7460133"><ele>263.6666666666667</ele><time>2026-04-21T09:34:55.664Z</time></trkpt><trkpt lat="44.6659083" lon="8.7461233"><ele>263.0</ele><time>2026-04-21T09:34:56.664Z</time></trkpt><trkpt lat="44.665755" lon="8.74621"><ele>268.0</ele><time>2026-04-21T09:34:57.665Z</time></trkpt><trkpt lat="44.665605" lon="8.7462733"><ele>273.0</ele><time>2026-04-21T09:34:58.664Z</time></trkpt><trkpt lat="44.6654567" lon="8.746335"><ele>278.0</ele><time>2026-04-21T09:34:59.664Z</time></trkpt><trkpt lat="44.6653017" lon="8.74639"><ele>277.0</ele><time>2026-04-21T09:35:00.664Z</time></trkpt><trkpt lat="44.665145" lon="8.746465"><ele>276.0</ele><time>2026-04-21T09:35:01.664Z</time></trkpt><trkpt lat="44.66497" lon="8.7465267"><ele>275.0</ele><time>2026-04-21T09:35:02.665Z</time></trkpt><trkpt lat="44.664795" lon="8.7465933"><ele>275.0</ele><time>2026-04-21T09:35:03.664Z</time></trkpt><trkpt lat="44.6646167" lon="8.74666"><ele>275.0</ele><time>2026-04-21T09:35:04.664Z</time></trkpt><trkpt lat="44.6644317" lon="8.7467183"><ele>275.0</ele><time>2026-04-21T09:35:05.665Z</time></trkpt><trkpt lat="44.6642467" lon="8.746775"><ele>275.33333333333337</ele><time>2026-04-21T09:35:06.664Z</time></trkpt><trkpt lat="44.6640733" lon="8.746825"><ele>275.6666666666667</ele><time>2026-04-21T09:35:07.664Z</time></trkpt><trkpt lat="44.6639067" lon="8.7468783"><ele>276.0</ele><time>2026-04-21T09:35:08.664Z</time></trkpt><trkpt lat="44.6637483" lon="8.7469383"><ele>280.0</ele><time>2026-04-21T09:35:09.664Z</time></trkpt><trkpt lat="44.663585" lon="8.7470017"><ele>284.0</ele><time>2026-04-21T09:35:10.665Z</time></trkpt><trkpt lat="44.6634367" lon="8.7470733"><ele>288.0</ele><time>2026-04-21T09:35:11.664Z</time></trkpt><trkpt lat="44.6633" lon="8.7471317"><ele>288.0</ele><time>2026-04-21T09:35:12.665Z</time></trkpt><trkpt lat="44.663175" lon="8.7471783"><ele>288.0</ele><time>2026-04-21T09:35:13.664Z</time></trkpt><trkpt lat="44.6630633" lon="8.7472017"><ele>288.0</ele><time>2026-04-21T09:35:14.664Z</time></trkpt><trkpt lat="44.6629717" lon="8.7471983"><ele>288.0</ele><time>2026-04-21T09:35:15.665Z</time></trkpt><trkpt lat="44.6629" lon="8.7471583"><ele>288.0</ele><time>2026-04-21T09:35:16.664Z</time></trkpt><trkpt lat="44.6628417" lon="8.7471033"><ele>288.0</ele><time>2026-04-21T09:35:17.664Z</time></trkpt><trkpt lat="44.6628333" lon="8.746915"><ele>288.0</ele><time>2026-04-21T09:35:19.664Z</time></trkpt><trkpt lat="44.6628717" lon="8.7467783"><ele>288.0</ele><time>2026-04-21T09:35:20.664Z</time></trkpt><trkpt lat="44.6629467" lon="8.746625"><ele>288.0</ele><time>2026-04-21T09:35:21.664Z</time></trkpt><trkpt lat="44.6630467" lon="8.7464683"><ele>287.6</ele><time>2026-04-21T09:35:22.664Z</time></trkpt><trkpt lat="44.6631367" lon="8.7463317"><ele>287.20000000000005</ele><time>2026-04-21T09:35:23.664Z</time></trkpt><trkpt lat="44.663205" lon="8.7462367"><ele>286.8</ele><time>2026-04-21T09:35:24.665Z</time></trkpt><trkpt lat="44.6632567" lon="8.7461433"><ele>286.40000000000003</ele><time>2026-04-21T09:35:26.665Z</time></trkpt><trkpt lat="44.6631783" lon="8.746125"><ele>286.0</ele><time>2026-04-21T09:35:30.665Z</time></trkpt><trkpt lat="44.66307" lon="8.7461417"><ele>286.0</ele><time>2026-04-21T09:35:32.665Z</time></trkpt><trkpt lat="44.66299" lon="8.7461517"><ele>286.0</ele><time>2026-04-21T09:35:33.665Z</time></trkpt><trkpt lat="44.6628983" lon="8.7461517"><ele>286.0</ele><time>2026-04-21T09:35:34.664Z</time></trkpt><trkpt lat="44.66281" lon="8.7461583"><ele>286.0</ele><time>2026-04-21T09:35:35.664Z</time></trkpt><trkpt lat="44.6627117" lon="8.7461417"><ele>286.0</ele><time>2026-04-21T09:35:36.664Z</time></trkpt><trkpt lat="44.6626233" lon="8.746125"><ele>286.0</ele><time>2026-04-21T09:35:37.665Z</time></trkpt><trkpt lat="44.66255" lon="8.746105"><ele>287.3333333333333</ele><time>2026-04-21T09:35:38.664Z</time></trkpt><trkpt lat="44.66248" lon="8.7460817"><ele>288.66666666666663</ele><time>2026-04-21T09:35:39.665Z</time></trkpt><trkpt lat="44.66241" lon="8.7460517"><ele>290.0</ele><time>2026-04-21T09:35:40.665Z</time></trkpt><trkpt lat="44.6623283" lon="8.746"><ele>291.3333333333333</ele><time>2026-04-21T09:35:41.664Z</time></trkpt><trkpt lat="44.6622383" lon="8.7459317"><ele>292.6666666666667</ele><time>2026-04-21T09:35:42.664Z</time></trkpt><trkpt lat="44.662155" lon="8.7458367"><ele>294.0</ele><time>2026-04-21T09:35:43.665Z</time></trkpt><trkpt lat="44.662075" lon="8.7457183"><ele>294.0</ele><time>2026-04-21T09:35:44.665Z</time></trkpt><trkpt lat="44.6619967" lon="8.74559"><ele>294.0</ele><time>2026-04-21T09:35:45.664Z</time></trkpt><trkpt lat="44.6619167" lon="8.7454833"><ele>294.0</ele><time>2026-04-21T09:35:46.664Z</time></trkpt><trkpt lat="44.66184" lon="8.7454117"><ele>294.0</ele><time>2026-04-21T09:35:47.665Z</time></trkpt><trkpt lat="44.6617617" lon="8.745365"><ele>294.0</ele><time>2026-04-21T09:35:48.664Z</time></trkpt><trkpt lat="44.6616783" lon="8.7453433"><ele>296.2</ele><time>2026-04-21T09:35:49.665Z</time></trkpt><trkpt lat="44.66159" lon="8.7453383"><ele>298.4</ele><time>2026-04-21T09:35:50.664Z</time></trkpt><trkpt lat="44.6615" lon="8.7453483"><ele>300.6</ele><time>2026-04-21T09:35:51.664Z</time></trkpt><trkpt lat="44.6614067" lon="8.7453833"><ele>302.8</ele><time>2026-04-21T09:35:52.665Z</time></trkpt><trkpt lat="44.66133" lon="8.74543"><ele>305.0</ele><time>2026-04-21T09:35:53.665Z</time></trkpt><trkpt lat="44.66126" lon="8.7455133"><ele>305.0</ele><time>2026-04-21T09:35:54.664Z</time></trkpt><trkpt lat="44.6612083" lon="8.74562"><ele>305.0</ele><time>2026-04-21T09:35:55.665Z</time></trkpt><trkpt lat="44.6611883" lon="8.74575"><ele>305.0</ele><time>2026-04-21T09:35:56.664Z</time></trkpt><trkpt lat="44.6612" lon="8.745895"><ele>305.0</ele><time>2026-04-21T09:35:57.664Z</time></trkpt><trkpt lat="44.66122" lon="8.746035"><ele>305.0</ele><time>2026-04-21T09:35:58.665Z</time></trkpt><trkpt lat="44.661235" lon="8.7461517"><ele>306.0</ele><time>2026-04-21T09:35:59.665Z</time></trkpt><trkpt lat="44.661245" lon="8.7462683"><ele>307.0</ele><time>2026-04-21T09:36:00.664Z</time></trkpt><trkpt lat="44.6612533" lon="8.7464"><ele>308.0</ele><time>2026-04-21T09:36:01.665Z</time></trkpt><trkpt lat="44.6612667" lon="8.7465383"><ele>309.0</ele><time>2026-04-21T09:36:02.664Z</time></trkpt><trkpt lat="44.6612717" lon="8.74669"><ele>310.0</ele><time>2026-04-21T09:36:03.664Z</time></trkpt><trkpt lat="44.66127" lon="8.7468433"><ele>310.4</ele><time>2026-04-21T09:36:04.664Z</time></trkpt><trkpt lat="44.6612733" lon="8.7470017"><ele>310.8</ele><time>2026-04-21T09:36:05.664Z</time></trkpt><trkpt lat="44.6612617" lon="8.7471583"><ele>311.2</ele><time>2026-04-21T09:36:06.665Z</time></trkpt><trkpt lat="44.6612283" lon="8.7473"><ele>311.6</ele><time>2026-04-21T09:36:07.664Z</time></trkpt><trkpt lat="44.6611733" lon="8.7474167"><ele>312.0</ele><time>2026-04-21T09:36:08.664Z</time></trkpt><trkpt lat="44.6610783" lon="8.7475133"><ele>311.75</ele><time>2026-04-21T09:36:09.664Z</time></trkpt><trkpt lat="44.6609717" lon="8.74759"><ele>311.5</ele><time>2026-04-21T09:36:10.664Z</time></trkpt><trkpt lat="44.6608367" lon="8.74765"><ele>311.25</ele><time>2026-04-21T09:36:11.664Z</time></trkpt><trkpt lat="44.6607" lon="8.7476983"><ele>311.0</ele><time>2026-04-21T09:36:12.664Z</time></trkpt><trkpt lat="44.6605583" lon="8.7477617"><ele>311.0</ele><time>2026-04-21T09:36:13.665Z</time></trkpt><trkpt lat="44.6604217" lon="8.7478367"><ele>311.0</ele><time>2026-04-21T09:36:14.665Z</time></trkpt><trkpt lat="44.660285" lon="8.7479167"><ele>311.0</ele><time>2026-04-21T09:36:15.664Z</time></trkpt><trkpt lat="44.660145" lon="8.747995"><ele>311.0</ele><time>2026-04-21T09:36:16.665Z</time></trkpt><trkpt lat="44.6600017" lon="8.7480767"><ele>311.25</ele><time>2026-04-21T09:36:17.665Z</time></trkpt><trkpt lat="44.65986" lon="8.74816"><ele>311.5</ele><time>2026-04-21T09:36:18.664Z</time></trkpt><trkpt lat="44.65972" lon="8.74822"><ele>311.75</ele><time>2026-04-21T09:36:19.664Z</time></trkpt><trkpt lat="44.6595817" lon="8.748255"><ele>312.0</ele><time>2026-04-21T09:36:20.665Z</time></trkpt><trkpt lat="44.6594367" lon="8.7482717"><ele>311.0</ele><time>2026-04-21T09:36:21.665Z</time></trkpt><trkpt lat="44.6592933" lon="8.74831"><ele>310.0</ele><time>2026-04-21T09:36:22.664Z</time></trkpt><trkpt lat="44.6591433" lon="8.748375"><ele>309.0</ele><time>2026-04-21T09:36:23.665Z</time></trkpt><trkpt lat="44.65899" lon="8.7484483"><ele>309.0</ele><time>2026-04-21T09:36:24.665Z</time></trkpt><trkpt lat="44.65884" lon="8.748535"><ele>309.0</ele><time>2026-04-21T09:36:25.665Z</time></trkpt><trkpt lat="44.6586883" lon="8.7486183"><ele>309.0</ele><time>2026-04-21T09:36:26.665Z</time></trkpt><trkpt lat="44.6585283" lon="8.7486967"><ele>307.3333333333333</ele><time>2026-04-21T09:36:27.665Z</time></trkpt><trkpt lat="44.6583783" lon="8.7487717"><ele>305.66666666666663</ele><time>2026-04-21T09:36:28.664Z</time></trkpt><trkpt lat="44.658225" lon="8.748825"><ele>304.0</ele><time>2026-04-21T09:36:29.664Z</time></trkpt><trkpt lat="44.6580767" lon="8.7488483"><ele>304.0</ele><time>2026-04-21T09:36:30.664Z</time></trkpt><trkpt lat="44.657935" lon="8.74884"><ele>304.0</ele><time>2026-04-21T09:36:31.664Z</time></trkpt><trkpt lat="44.65781" lon="8.7487933"><ele>304.0</ele><time>2026-04-21T09:36:32.664Z</time></trkpt><trkpt lat="44.6576783" lon="8.748735"><ele>304.0</ele><time>2026-04-21T09:36:33.665Z</time></trkpt><trkpt lat="44.6575433" lon="8.7487267"><ele>304.3333333333333</ele><time>2026-04-21T09:36:34.664Z</time></trkpt><trkpt lat="44.6573917" lon="8.7487667"><ele>304.6666666666667</ele><time>2026-04-21T09:36:35.665Z</time></trkpt><trkpt lat="44.6572383" lon="8.7488183"><ele>305.0</ele><time>2026-04-21T09:36:36.664Z</time></trkpt><trkpt lat="44.6571" lon="8.74884"><ele>305.0</ele><time>2026-04-21T09:36:37.664Z</time></trkpt><trkpt lat="44.6569633" lon="8.7488217"><ele>305.0</ele><time>2026-04-21T09:36:38.665Z</time></trkpt><trkpt lat="44.6568233" lon="8.7487733"><ele>305.0</ele><time>2026-04-21T09:36:39.665Z</time></trkpt><trkpt lat="44.656675" lon="8.7487083"><ele>305.0</ele><time>2026-04-21T09:36:40.665Z</time></trkpt><trkpt lat="44.6565117" lon="8.7486483"><ele>306.0</ele><time>2026-04-21T09:36:41.664Z</time></trkpt><trkpt lat="44.6563433" lon="8.7485933"><ele>307.0</ele><time>2026-04-21T09:36:42.664Z</time></trkpt><trkpt lat="44.656185" lon="8.7485367"><ele>308.0</ele><time>2026-04-21T09:36:43.664Z</time></trkpt><trkpt lat="44.6560317" lon="8.7484833"><ele>309.0</ele><time>2026-04-21T09:36:44.665Z</time></trkpt><trkpt lat="44.6558867" lon="8.7484483"><ele>310.0</ele><time>2026-04-21T09:36:45.664Z</time></trkpt><trkpt lat="44.6557417" lon="8.7484367"><ele>311.0</ele><time>2026-04-21T09:36:46.664Z</time></trkpt><trkpt lat="44.655595" lon="8.7484383"><ele>312.0</ele><time>2026-04-21T09:36:47.664Z</time></trkpt><trkpt lat="44.6554533" lon="8.7484683"><ele>312.0</ele><time>2026-04-21T09:36:48.664Z</time></trkpt><trkpt lat="44.6553217" lon="8.7485283"><ele>312.0</ele><time>2026-04-21T09:36:49.664Z</time></trkpt><trkpt lat="44.6551767" lon="8.7486267"><ele>312.0</ele><time>2026-04-21T09:36:50.665Z</time></trkpt><trkpt lat="44.6550367" lon="8.7487117"><ele>312.25</ele><time>2026-04-21T09:36:51.664Z</time></trkpt><trkpt lat="44.6548983" lon="8.74881"><ele>312.5</ele><time>2026-04-21T09:36:52.664Z</time></trkpt><trkpt lat="44.654775" lon="8.748915"><ele>312.75</ele><time>2026-04-21T09:36:53.665Z</time></trkpt><trkpt lat="44.654675" lon="8.7490367"><ele>313.0</ele><time>2026-04-21T09:36:54.664Z</time></trkpt><trkpt lat="44.6546017" lon="8.7491667"><ele>313.0</ele><time>2026-04-21T09:36:55.664Z</time></trkpt><trkpt lat="44.6545617" lon="8.7493333"><ele>313.0</ele><time>2026-04-21T09:36:56.665Z</time></trkpt><trkpt lat="44.654555" lon="8.7495183"><ele>313.0</ele><time>2026-04-21T09:36:57.664Z</time></trkpt><trkpt lat="44.6545317" lon="8.7497017"><ele>313.0</ele><time>2026-04-21T09:36:58.664Z</time></trkpt><trkpt lat="44.6545033" lon="8.7498883"><ele>315.66666666666663</ele><time>2026-04-21T09:36:59.665Z</time></trkpt><trkpt lat="44.6544633" lon="8.750085"><ele>318.3333333333333</ele><time>2026-04-21T09:37:00.665Z</time></trkpt><trkpt lat="44.6544167" lon="8.7502883"><ele>321.0</ele><time>2026-04-21T09:37:01.664Z</time></trkpt><trkpt lat="44.65433" lon="8.7505033"><ele>321.0</ele><time>2026-04-21T09:37:02.665Z</time></trkpt><trkpt lat="44.65427" lon="8.7506817"><ele>321.0</ele><time>2026-04-21T09:37:03.664Z</time></trkpt><trkpt lat="44.6542217" lon="8.7508333"><ele>321.0</ele><time>2026-04-21T09:37:04.665Z</time></trkpt><trkpt lat="44.65416" lon="8.75095"><ele>321.0</ele><time>2026-04-21T09:37:05.665Z</time></trkpt><trkpt lat="44.6540733" lon="8.7510367"><ele>319.25</ele><time>2026-04-21T09:37:06.665Z</time></trkpt><trkpt lat="44.653975" lon="8.7511133"><ele>317.5</ele><time>2026-04-21T09:37:07.665Z</time></trkpt><trkpt lat="44.653875" lon="8.7511967"><ele>315.75</ele><time>2026-04-21T09:37:08.664Z</time></trkpt><trkpt lat="44.6537833" lon="8.7513233"><ele>314.0</ele><time>2026-04-21T09:37:09.665Z</time></trkpt><trkpt lat="44.6537133" lon="8.7514817"><ele>314.0</ele><time>2026-04-21T09:37:10.665Z</time></trkpt><trkpt lat="44.6536633" lon="8.751675"><ele>314.0</ele><time>2026-04-21T09:37:11.664Z</time></trkpt><trkpt lat="44.6536317" lon="8.7518483"><ele>314.0</ele><time>2026-04-21T09:37:12.664Z</time></trkpt><trkpt lat="44.653605" lon="8.7519733"><ele>314.0</ele><time>2026-04-21T09:37:13.664Z</time></trkpt><trkpt lat="44.6535617" lon="8.752095"><ele>314.0</ele><time>2026-04-21T09:37:15.665Z</time></trkpt><trkpt lat="44.6535167" lon="8.7519883"><ele>314.0</ele><time>2026-04-21T09:37:19.665Z</time></trkpt><trkpt lat="44.6535367" lon="8.7518917"><ele>314.0</ele><time>2026-04-21T09:37:20.665Z</time></trkpt><trkpt lat="44.6535517" lon="8.75178"><ele>314.0</ele><time>2026-04-21T09:37:21.664Z</time></trkpt><trkpt lat="44.653575" lon="8.75165"><ele>314.0</ele><time>2026-04-21T09:37:22.665Z</time></trkpt><trkpt lat="44.6536" lon="8.7515133"><ele>314.0</ele><time>2026-04-21T09:37:23.665Z</time></trkpt><trkpt lat="44.6536367" lon="8.751375"><ele>314.0</ele><time>2026-04-21T09:37:24.664Z</time></trkpt><trkpt lat="44.6536883" lon="8.7512267"><ele>314.0</ele><time>2026-04-21T09:37:25.664Z</time></trkpt><trkpt lat="44.6537567" lon="8.7510917"><ele>314.0</ele><time>2026-04-21T09:37:26.665Z</time></trkpt><trkpt lat="44.6538267" lon="8.7509767"><ele>314.0</ele><time>2026-04-21T09:37:27.664Z</time></trkpt><trkpt lat="44.65388" lon="8.7508667"><ele>314.0</ele><time>2026-04-21T09:37:28.665Z</time></trkpt><trkpt lat="44.6539083" lon="8.7507333"><ele>315.4</ele><time>2026-04-21T09:37:29.664Z</time></trkpt><trkpt lat="44.6539333" lon="8.750575"><ele>316.79999999999995</ele><time>2026-04-21T09:37:30.664Z</time></trkpt><trkpt lat="44.6539633" lon="8.7504117"><ele>318.20000000000005</ele><time>2026-04-21T09:37:31.665Z</time></trkpt><trkpt lat="44.6539917" lon="8.7502583"><ele>319.6</ele><time>2026-04-21T09:37:32.665Z</time></trkpt><trkpt lat="44.6539933" lon="8.7501367"><ele>321.0</ele><time>2026-04-21T09:37:33.664Z</time></trkpt><trkpt lat="44.6539867" lon="8.75003"><ele>321.8</ele><time>2026-04-21T09:37:34.664Z</time></trkpt><trkpt lat="44.6539517" lon="8.7499233"><ele>322.6</ele><time>2026-04-21T09:37:35.664Z</time></trkpt><trkpt lat="44.65388" lon="8.7498233"><ele>323.4</ele><time>2026-04-21T09:37:36.665Z</time></trkpt><trkpt lat="44.6537817" lon="8.74973"><ele>324.2</ele><time>2026-04-21T09:37:37.664Z</time></trkpt><trkpt lat="44.65367" lon="8.7496183"><ele>325.0</ele><time>2026-04-21T09:37:38.664Z</time></trkpt><trkpt lat="44.6535633" lon="8.7494767"><ele>329.0</ele><time>2026-04-21T09:37:39.664Z</time></trkpt><trkpt lat="44.6534633" lon="8.749315"><ele>333.0</ele><time>2026-04-21T09:37:40.665Z</time></trkpt><trkpt lat="44.653375" lon="8.749145"><ele>337.0</ele><time>2026-04-21T09:37:41.664Z</time></trkpt><trkpt lat="44.6532867" lon="8.7489683"><ele>337.0</ele><time>2026-04-21T09:37:42.664Z</time></trkpt><trkpt lat="44.6532083" lon="8.7488"><ele>337.0</ele><time>2026-04-21T09:37:43.664Z</time></trkpt><trkpt lat="44.6531317" lon="8.748645"><ele>337.0</ele><time>2026-04-21T09:37:44.664Z</time></trkpt><trkpt lat="44.65304" lon="8.7485167"><ele>337.0</ele><time>2026-04-21T09:37:45.665Z</time></trkpt><trkpt lat="44.6529317" lon="8.7483983"><ele>338.5</ele><time>2026-04-21T09:37:46.664Z</time></trkpt><trkpt lat="44.6528117" lon="8.7482817"><ele>340.0</ele><time>2026-04-21T09:37:47.664Z</time></trkpt><trkpt lat="44.6527117" lon="8.7481417"><ele>341.5</ele><time>2026-04-21T09:37:48.664Z</time></trkpt><trkpt lat="44.65263" lon="8.7479767"><ele>343.0</ele><time>2026-04-21T09:37:49.665Z</time></trkpt><trkpt lat="44.6525817" lon="8.7478033"><ele>341.8333333333333</ele><time>2026-04-21T09:37:50.664Z</time></trkpt><trkpt lat="44.6525433" lon="8.7476467"><ele>340.66666666666663</ele><time>2026-04-21T09:37:51.665Z</time></trkpt><trkpt lat="44.6525217" lon="8.7475167"><ele>339.5</ele><time>2026-04-21T09:37:52.665Z</time></trkpt><trkpt lat="44.6524967" lon="8.747405"><ele>338.3333333333333</ele><time>2026-04-21T09:37:53.664Z</time></trkpt><trkpt lat="44.6524717" lon="8.74732"><ele>337.1666666666667</ele><time>2026-04-21T09:37:54.665Z</time></trkpt><trkpt lat="44.6524083" lon="8.7472783"><ele>336.0</ele><time>2026-04-21T09:37:56.664Z</time></trkpt><trkpt lat="44.6523433" lon="8.747335"><ele>336.0</ele><time>2026-04-21T09:37:58.664Z</time></trkpt><trkpt lat="44.6522533" lon="8.7474467"><ele>336.0</ele><time>2026-04-21T09:38:00.664Z</time></trkpt><trkpt lat="44.6522083" lon="8.7475133"><ele>336.0</ele><time>2026-04-21T09:38:01.665Z</time></trkpt><trkpt lat="44.6521683" lon="8.7475833"><ele>336.0</ele><time>2026-04-21T09:38:02.664Z</time></trkpt><trkpt lat="44.65213" lon="8.7476917"><ele>336.0</ele><time>2026-04-21T09:38:03.664Z</time></trkpt><trkpt lat="44.6520933" lon="8.7478383"><ele>336.0</ele><time>2026-04-21T09:38:04.664Z</time></trkpt><trkpt lat="44.6520667" lon="8.7480017"><ele>337.25</ele><time>2026-04-21T09:38:05.664Z</time></trkpt><trkpt lat="44.6520383" lon="8.7481883"><ele>338.5</ele><time>2026-04-21T09:38:06.665Z</time></trkpt><trkpt lat="44.651995" lon="8.74838"><ele>339.75</ele><time>2026-04-21T09:38:07.664Z</time></trkpt><trkpt lat="44.65194" lon="8.7485567"><ele>341.0</ele><time>2026-04-21T09:38:08.664Z</time></trkpt><trkpt lat="44.651875" lon="8.748715"><ele>341.0</ele><time>2026-04-21T09:38:09.665Z</time></trkpt><trkpt lat="44.6518033" lon="8.748825"><ele>341.0</ele><time>2026-04-21T09:38:10.665Z</time></trkpt><trkpt lat="44.651705" lon="8.7488967"><ele>341.0</ele><time>2026-04-21T09:38:11.665Z</time></trkpt><trkpt lat="44.6515967" lon="8.7489217"><ele>341.0</ele><time>2026-04-21T09:38:12.665Z</time></trkpt><trkpt lat="44.65147" lon="8.748895"><ele>341.0</ele><time>2026-04-21T09:38:13.664Z</time></trkpt><trkpt lat="44.651335" lon="8.748875"><ele>341.0</ele><time>2026-04-21T09:38:14.664Z</time></trkpt><trkpt lat="44.6512017" lon="8.7488733"><ele>341.0</ele><time>2026-04-21T09:38:15.664Z</time></trkpt><trkpt lat="44.65107" lon="8.7489067"><ele>341.0</ele><time>2026-04-21T09:38:16.665Z</time></trkpt><trkpt lat="44.6509483" lon="8.7489617"><ele>338.25</ele><time>2026-04-21T09:38:17.665Z</time></trkpt><trkpt lat="44.65085" lon="8.7490367"><ele>335.5</ele><time>2026-04-21T09:38:18.665Z</time></trkpt><trkpt lat="44.650765" lon="8.7491383"><ele>332.75</ele><time>2026-04-21T09:38:19.665Z</time></trkpt><trkpt lat="44.650665" lon="8.7492483"><ele>330.0</ele><time>2026-04-21T09:38:20.664Z</time></trkpt><trkpt lat="44.6505467" lon="8.7493317"><ele>332.6666666666667</ele><time>2026-04-21T09:38:21.665Z</time></trkpt><trkpt lat="44.6504017" lon="8.7493817"><ele>335.33333333333337</ele><time>2026-04-21T09:38:22.665Z</time></trkpt><trkpt lat="44.6502467" lon="8.7494017"><ele>338.0</ele><time>2026-04-21T09:38:23.665Z</time></trkpt><trkpt lat="44.6501017" lon="8.74943"><ele>338.0</ele><time>2026-04-21T09:38:24.664Z</time></trkpt><trkpt lat="44.64998" lon="8.7494683"><ele>338.0</ele><time>2026-04-21T09:38:25.665Z</time></trkpt><trkpt lat="44.64986" lon="8.7495233"><ele>338.0</ele><time>2026-04-21T09:38:26.665Z</time></trkpt><trkpt lat="44.6497517" lon="8.7496067"><ele>338.0</ele><time>2026-04-21T09:38:27.664Z</time></trkpt><trkpt lat="44.6496333" lon="8.7497083"><ele>338.0</ele><time>2026-04-21T09:38:28.664Z</time></trkpt><trkpt lat="44.6495033" lon="8.7498183"><ele>338.0</ele><time>2026-04-21T09:38:29.664Z</time></trkpt><trkpt lat="44.6493667" lon="8.74996"><ele>338.0</ele><time>2026-04-21T09:38:30.665Z</time></trkpt><trkpt lat="44.64924" lon="8.750095"><ele>334.6666666666667</ele><time>2026-04-21T09:38:31.664Z</time></trkpt><trkpt lat="44.6491233" lon="8.75022"><ele>331.3333333333333</ele><time>2026-04-21T09:38:32.665Z</time></trkpt><trkpt lat="44.649005" lon="8.7503467"><ele>328.0</ele><time>2026-04-21T09:38:33.665Z</time></trkpt><trkpt lat="44.6488633" lon="8.75044"><ele>328.0</ele><time>2026-04-21T09:38:34.665Z</time></trkpt><trkpt lat="44.6487067" lon="8.7505083"><ele>328.0</ele><time>2026-04-21T09:38:35.665Z</time></trkpt><trkpt lat="44.64854" lon="8.7505667"><ele>328.0</ele><time>2026-04-21T09:38:36.665Z</time></trkpt><trkpt lat="44.648355" lon="8.7506117"><ele>328.0</ele><time>2026-04-21T09:38:37.665Z</time></trkpt><trkpt lat="44.6481683" lon="8.750635"><ele>328.0</ele><time>2026-04-21T09:38:38.665Z</time></trkpt><trkpt lat="44.6479783" lon="8.7506533"><ele>328.0</ele><time>2026-04-21T09:38:39.664Z</time></trkpt><trkpt lat="44.647795" lon="8.7506683"><ele>332.0</ele><time>2026-04-21T09:38:40.665Z</time></trkpt><trkpt lat="44.64763" lon="8.7506717"><ele>336.0</ele><time>2026-04-21T09:38:41.665Z</time></trkpt><trkpt lat="44.6474783" lon="8.750655"><ele>340.0</ele><time>2026-04-21T09:38:42.665Z</time></trkpt><trkpt lat="44.64733" lon="8.7506317"><ele>340.0</ele><time>2026-04-21T09:38:43.664Z</time></trkpt><trkpt lat="44.647185" lon="8.7506417"><ele>340.0</ele><time>2026-04-21T09:38:44.665Z</time></trkpt><trkpt lat="44.6470367" lon="8.7506783"><ele>340.0</ele><time>2026-04-21T09:38:45.664Z</time></trkpt><trkpt lat="44.6468817" lon="8.750745"><ele>339.25</ele><time>2026-04-21T09:38:46.665Z</time></trkpt><trkpt lat="44.6467333" lon="8.7508017"><ele>338.5</ele><time>2026-04-21T09:38:47.664Z</time></trkpt><trkpt lat="44.6465967" lon="8.75084"><ele>337.75</ele><time>2026-04-21T09:38:48.664Z</time></trkpt><trkpt lat="44.6464817" lon="8.7508317"><ele>337.0</ele><time>2026-04-21T09:38:49.665Z</time></trkpt><trkpt lat="44.646395" lon="8.7507983"><ele>337.0</ele><time>2026-04-21T09:38:50.664Z</time></trkpt><trkpt lat="44.6463183" lon="8.7507567"><ele>337.0</ele><time>2026-04-21T09:38:51.665Z</time></trkpt><trkpt lat="44.646255" lon="8.7506533"><ele>337.0</ele><time>2026-04-21T09:38:52.664Z</time></trkpt><trkpt lat="44.646215" lon="8.7505267"><ele>337.0</ele><time>2026-04-21T09:38:53.664Z</time></trkpt><trkpt lat="44.6461767" lon="8.750375"><ele>337.0</ele><time>2026-04-21T09:38:54.664Z</time></trkpt><trkpt lat="44.6461317" lon="8.75021"><ele>339.25</ele><time>2026-04-21T09:38:55.664Z</time></trkpt><trkpt lat="44.6460717" lon="8.7500467"><ele>341.5</ele><time>2026-04-21T09:38:56.665Z</time></trkpt><trkpt lat="44.645995" lon="8.7499033"><ele>343.75</ele><time>2026-04-21T09:38:57.665Z</time></trkpt><trkpt lat="44.6458983" lon="8.7497967"><ele>346.0</ele><time>2026-04-21T09:38:58.664Z</time></trkpt><trkpt lat="44.6457733" lon="8.74977"><ele>346.0</ele><time>2026-04-21T09:38:59.665Z</time></trkpt><trkpt lat="44.64563" lon="8.7497883"><ele>346.0</ele><time>2026-04-21T09:39:00.665Z</time></trkpt><trkpt lat="44.64547" lon="8.7498167"><ele>346.0</ele><time>2026-04-21T09:39:01.664Z</time></trkpt><trkpt lat="44.6453167" lon="8.7498317"><ele>347.3333333333333</ele><time>2026-04-21T09:39:02.664Z</time></trkpt><trkpt lat="44.6451617" lon="8.7498467"><ele>348.6666666666667</ele><time>2026-04-21T09:39:03.664Z</time></trkpt><trkpt lat="44.6450117" lon="8.7498667"><ele>350.0</ele><time>2026-04-21T09:39:04.665Z</time></trkpt><trkpt lat="44.6448583" lon="8.74988"><ele>350.0</ele><time>2026-04-21T09:39:05.665Z</time></trkpt><trkpt lat="44.6447067" lon="8.7498917"><ele>350.0</ele><time>2026-04-21T09:39:06.665Z</time></trkpt><trkpt lat="44.644555" lon="8.749905"><ele>350.0</ele><time>2026-04-21T09:39:07.664Z</time></trkpt><trkpt lat="44.644395" lon="8.7498817"><ele>348.0</ele><time>2026-04-21T09:39:08.665Z</time></trkpt><trkpt lat="44.6442317" lon="8.7498417"><ele>346.0</ele><time>2026-04-21T09:39:09.664Z</time></trkpt><trkpt lat="44.6440617" lon="8.749785"><ele>344.0</ele><time>2026-04-21T09:39:10.665Z</time></trkpt><trkpt lat="44.643895" lon="8.74972"><ele>344.0</ele><time>2026-04-21T09:39:11.665Z</time></trkpt><trkpt lat="44.6437267" lon="8.7496333"><ele>344.0</ele><time>2026-04-21T09:39:12.665Z</time></trkpt><trkpt lat="44.6435583" lon="8.7495133"><ele>344.0</ele><time>2026-04-21T09:39:13.664Z</time></trkpt><trkpt lat="44.6433967" lon="8.74939"><ele>341.6666666666667</ele><time>2026-04-21T09:39:14.664Z</time></trkpt><trkpt lat="44.6432467" lon="8.74927"><ele>339.3333333333333</ele><time>2026-04-21T09:39:15.665Z</time></trkpt><trkpt lat="44.6431033" lon="8.74916"><ele>337.0</ele><time>2026-04-21T09:39:16.665Z</time></trkpt><trkpt lat="44.64295" lon="8.7490817"><ele>335.3333333333333</ele><time>2026-04-21T09:39:17.664Z</time></trkpt><trkpt lat="44.64279" lon="8.749025"><ele>333.6666666666667</ele><time>2026-04-21T09:39:18.664Z</time></trkpt><trkpt lat="44.6426133" lon="8.7489867"><ele>332.0</ele><time>2026-04-21T09:39:19.665Z</time></trkpt><trkpt lat="44.6424333" lon="8.74896"><ele>332.0</ele><time>2026-04-21T09:39:20.664Z</time></trkpt><trkpt lat="44.64225" lon="8.7489233"><ele>332.0</ele><time>2026-04-21T09:39:21.665Z</time></trkpt><trkpt lat="44.6420583" lon="8.7488917"><ele>332.0</ele><time>2026-04-21T09:39:22.664Z</time></trkpt><trkpt lat="44.6418617" lon="8.7488517"><ele>331.0</ele><time>2026-04-21T09:39:23.665Z</time></trkpt><trkpt lat="44.641665" lon="8.7488183"><ele>330.0</ele><time>2026-04-21T09:39:24.665Z</time></trkpt><trkpt lat="44.6414617" lon="8.7487833"><ele>329.0</ele><time>2026-04-21T09:39:25.664Z</time></trkpt><trkpt lat="44.6412633" lon="8.7487417"><ele>328.6666666666667</ele><time>2026-04-21T09:39:26.664Z</time></trkpt><trkpt lat="44.6410667" lon="8.7487017"><ele>328.3333333333333</ele><time>2026-04-21T09:39:27.665Z</time></trkpt><trkpt lat="44.6408733" lon="8.7486483"><ele>328.0</ele><time>2026-04-21T09:39:28.664Z</time></trkpt><trkpt lat="44.6406883" lon="8.748605"><ele>328.0</ele><time>2026-04-21T09:39:29.664Z</time></trkpt><trkpt lat="44.6405067" lon="8.748565"><ele>328.0</ele><time>2026-04-21T09:39:30.664Z</time></trkpt><trkpt lat="44.6403183" lon="8.7485283"><ele>328.0</ele><time>2026-04-21T09:39:31.665Z</time></trkpt><trkpt lat="44.6401317" lon="8.748485"><ele>327.0</ele><time>2026-04-21T09:39:32.664Z</time></trkpt><trkpt lat="44.6399417" lon="8.7484467"><ele>326.0</ele><time>2026-04-21T09:39:33.664Z</time></trkpt><trkpt lat="44.6397533" lon="8.74841"><ele>325.0</ele><time>2026-04-21T09:39:34.664Z</time></trkpt><trkpt lat="44.6395733" lon="8.7483667"><ele>324.0</ele><time>2026-04-21T09:39:35.665Z</time></trkpt><trkpt lat="44.6393917" lon="8.7483317"><ele>323.0</ele><time>2026-04-21T09:39:36.665Z</time></trkpt><trkpt lat="44.639215" lon="8.7482917"><ele>322.0</ele><time>2026-04-21T09:39:37.664Z</time></trkpt><trkpt lat="44.6390383" lon="8.748245"><ele>322.0</ele><time>2026-04-21T09:39:38.664Z</time></trkpt><trkpt lat="44.6388633" lon="8.7481967"><ele>322.0</ele><time>2026-04-21T09:39:39.664Z</time></trkpt><trkpt lat="44.63868" lon="8.74815"><ele>322.0</ele><time>2026-04-21T09:39:40.664Z</time></trkpt><trkpt lat="44.6385" lon="8.7481"><ele>321.3333333333333</ele><time>2026-04-21T09:39:41.665Z</time></trkpt><trkpt lat="44.6383133" lon="8.7480467"><ele>320.6666666666667</ele><time>2026-04-21T09:39:42.665Z</time></trkpt><trkpt lat="44.6381217" lon="8.7480033"><ele>320.0</ele><time>2026-04-21T09:39:43.664Z</time></trkpt><trkpt lat="44.63793" lon="8.7479683"><ele>320.0</ele><time>2026-04-21T09:39:44.665Z</time></trkpt><trkpt lat="44.637755" lon="8.7479183"><ele>320.0</ele><time>2026-04-21T09:39:45.664Z</time></trkpt><trkpt lat="44.637595" lon="8.7478783"><ele>320.0</ele><time>2026-04-21T09:39:46.664Z</time></trkpt><trkpt lat="44.6374517" lon="8.7478517"><ele>320.0</ele><time>2026-04-21T09:39:47.664Z</time></trkpt><trkpt lat="44.63733" lon="8.747805"><ele>320.0</ele><time>2026-04-21T09:39:48.664Z</time></trkpt><trkpt lat="44.637235" lon="8.7477733"><ele>320.0</ele><time>2026-04-21T09:39:49.665Z</time></trkpt><trkpt lat="44.6371433" lon="8.747765"><ele>320.0</ele><time>2026-04-21T09:39:51.664Z</time></trkpt><trkpt lat="44.6371433" lon="8.747935"><ele>320.0</ele><time>2026-04-21T09:40:01.665Z</time></trkpt><trkpt lat="44.6371667" lon="8.7480567"><ele>320.0</ele><time>2026-04-21T09:40:02.665Z</time></trkpt><trkpt lat="44.6371983" lon="8.7482"><ele>320.0</ele><time>2026-04-21T09:40:03.665Z</time></trkpt><trkpt lat="44.6372417" lon="8.7483567"><ele>320.0</ele><time>2026-04-21T09:40:04.665Z</time></trkpt><trkpt lat="44.6372833" lon="8.7485383"><ele>320.0</ele><time>2026-04-21T09:40:05.664Z</time></trkpt><trkpt lat="44.6373283" lon="8.74874"><ele>321.0</ele><time>2026-04-21T09:40:06.665Z</time></trkpt><trkpt lat="44.6373767" lon="8.7489517"><ele>322.0</ele><time>2026-04-21T09:40:07.665Z</time></trkpt><trkpt lat="44.6374217" lon="8.749175"><ele>323.0</ele><time>2026-04-21T09:40:08.665Z</time></trkpt><trkpt lat="44.637475" lon="8.7494167"><ele>323.6666666666667</ele><time>2026-04-21T09:40:09.665Z</time></trkpt><trkpt lat="44.63753" lon="8.7496667"><ele>324.3333333333333</ele><time>2026-04-21T09:40:10.665Z</time></trkpt><trkpt lat="44.6375717" lon="8.7499233"><ele>325.0</ele><time>2026-04-21T09:40:11.665Z</time></trkpt><trkpt lat="44.6376117" lon="8.7501783"><ele>326.0</ele><time>2026-04-21T09:40:12.665Z</time></trkpt><trkpt lat="44.637655" lon="8.750435"><ele>327.0</ele><time>2026-04-21T09:40:13.664Z</time></trkpt><trkpt lat="44.6377067" lon="8.75069"><ele>328.0</ele><time>2026-04-21T09:40:14.664Z</time></trkpt><trkpt lat="44.637755" lon="8.7509267"><ele>333.0</ele><time>2026-04-21T09:40:15.664Z</time></trkpt><trkpt lat="44.6378033" lon="8.7511417"><ele>338.0</ele><time>2026-04-21T09:40:16.664Z</time></trkpt><trkpt lat="44.6378333" lon="8.7513417"><ele>343.0</ele><time>2026-04-21T09:40:17.664Z</time></trkpt><trkpt lat="44.6378417" lon="8.751525"><ele>348.0</ele><time>2026-04-21T09:40:18.665Z</time></trkpt><trkpt lat="44.6378317" lon="8.7517133"><ele>349.25</ele><time>2026-04-21T09:40:19.664Z</time></trkpt><trkpt lat="44.6378033" lon="8.7519"><ele>350.5</ele><time>2026-04-21T09:40:20.665Z</time></trkpt><trkpt lat="44.637765" lon="8.752095"><ele>351.75</ele><time>2026-04-21T09:40:21.664Z</time></trkpt><trkpt lat="44.63771" lon="8.752285"><ele>353.0</ele><time>2026-04-21T09:40:22.664Z</time></trkpt><trkpt lat="44.6376467" lon="8.7524617"><ele>350.0</ele><time>2026-04-21T09:40:23.664Z</time></trkpt><trkpt lat="44.6376033" lon="8.7526417"><ele>347.0</ele><time>2026-04-21T09:40:24.664Z</time></trkpt><trkpt lat="44.6376033" lon="8.752815"><ele>344.0</ele><time>2026-04-21T09:40:25.665Z</time></trkpt><trkpt lat="44.637635" lon="8.7529833"><ele>341.0</ele><time>2026-04-21T09:40:26.665Z</time></trkpt><trkpt lat="44.63768" lon="8.7531567"><ele>341.0</ele><time>2026-04-21T09:40:27.665Z</time></trkpt><trkpt lat="44.6377367" lon="8.7533383"><ele>341.0</ele><time>2026-04-21T09:40:28.665Z</time></trkpt><trkpt lat="44.63779" lon="8.75353"><ele>341.0</ele><time>2026-04-21T09:40:29.664Z</time></trkpt><trkpt lat="44.6378317" lon="8.75373"><ele>341.0</ele><time>2026-04-21T09:40:30.664Z</time></trkpt><trkpt lat="44.6378467" lon="8.7539167"><ele>342.4</ele><time>2026-04-21T09:40:31.664Z</time></trkpt><trkpt lat="44.6378417" lon="8.75409"><ele>343.8</ele><time>2026-04-21T09:40:32.665Z</time></trkpt><trkpt lat="44.6378033" lon="8.7542433"><ele>345.2</ele><time>2026-04-21T09:40:33.664Z</time></trkpt><trkpt lat="44.6377367" lon="8.7543517"><ele>346.59999999999997</ele><time>2026-04-21T09:40:34.664Z</time></trkpt><trkpt lat="44.6376517" lon="8.7544233"><ele>348.0</ele><time>2026-04-21T09:40:35.664Z</time></trkpt><trkpt lat="44.6375483" lon="8.754465"><ele>349.1666666666667</ele><time>2026-04-21T09:40:36.664Z</time></trkpt><trkpt lat="44.6374567" lon="8.754515"><ele>350.3333333333333</ele><time>2026-04-21T09:40:37.664Z</time></trkpt><trkpt lat="44.63739" lon="8.7545767"><ele>351.5</ele><time>2026-04-21T09:40:38.664Z</time></trkpt><trkpt lat="44.6373567" lon="8.7546583"><ele>352.66666666666663</ele><time>2026-04-21T09:40:39.664Z</time></trkpt><trkpt lat="44.6373417" lon="8.75475"><ele>353.8333333333333</ele><time>2026-04-21T09:40:40.664Z</time></trkpt><trkpt lat="44.6373633" lon="8.7548767"><ele>355.0</ele><time>2026-04-21T09:40:41.665Z</time></trkpt><trkpt lat="44.637405" lon="8.7550183"><ele>355.0</ele><time>2026-04-21T09:40:42.665Z</time></trkpt><trkpt lat="44.6374717" lon="8.75519"><ele>355.0</ele><time>2026-04-21T09:40:43.665Z</time></trkpt><trkpt lat="44.637525" lon="8.7553817"><ele>355.0</ele><time>2026-04-21T09:40:44.665Z</time></trkpt><trkpt lat="44.6375683" lon="8.7555733"><ele>355.0</ele><time>2026-04-21T09:40:45.664Z</time></trkpt><trkpt lat="44.6375933" lon="8.7557383"><ele>356.2</ele><time>2026-04-21T09:40:46.664Z</time></trkpt><trkpt lat="44.6375967" lon="8.7558883"><ele>357.4</ele><time>2026-04-21T09:40:47.665Z</time></trkpt><trkpt lat="44.6375833" lon="8.7560233"><ele>358.6</ele><time>2026-04-21T09:40:48.664Z</time></trkpt><trkpt lat="44.63754" lon="8.7561567"><ele>359.8</ele><time>2026-04-21T09:40:49.664Z</time></trkpt><trkpt lat="44.6374883" lon="8.7562667"><ele>361.0</ele><time>2026-04-21T09:40:50.665Z</time></trkpt><trkpt lat="44.63744" lon="8.7563583"><ele>361.20000000000005</ele><time>2026-04-21T09:40:51.665Z</time></trkpt><trkpt lat="44.6373917" lon="8.7564783"><ele>361.40000000000003</ele><time>2026-04-21T09:40:53.665Z</time></trkpt><trkpt lat="44.6373983" lon="8.75659"><ele>361.6</ele><time>2026-04-21T09:40:56.664Z</time></trkpt><trkpt lat="44.6373533" lon="8.756695"><ele>361.8</ele><time>2026-04-21T09:40:58.664Z</time></trkpt><trkpt lat="44.6372967" lon="8.756755"><ele>362.0</ele><time>2026-04-21T09:40:59.665Z</time></trkpt><trkpt lat="44.6371917" lon="8.7568367"><ele>360.75</ele><time>2026-04-21T09:41:00.664Z</time></trkpt><trkpt lat="44.637085" lon="8.7569283"><ele>359.5</ele><time>2026-04-21T09:41:01.665Z</time></trkpt><trkpt lat="44.6369517" lon="8.757025"><ele>358.25</ele><time>2026-04-21T09:41:02.665Z</time></trkpt><trkpt lat="44.6368133" lon="8.757115"><ele>357.0</ele><time>2026-04-21T09:41:03.665Z</time></trkpt><trkpt lat="44.6366767" lon="8.75718"><ele>357.0</ele><time>2026-04-21T09:41:04.665Z</time></trkpt><trkpt lat="44.6365267" lon="8.757245"><ele>357.0</ele><time>2026-04-21T09:41:05.665Z</time></trkpt><trkpt lat="44.63638" lon="8.7573"><ele>357.0</ele><time>2026-04-21T09:41:06.665Z</time></trkpt><trkpt lat="44.6362483" lon="8.7573433"><ele>357.0</ele><time>2026-04-21T09:41:07.664Z</time></trkpt><trkpt lat="44.636115" lon="8.7573833"><ele>356.5</ele><time>2026-04-21T09:41:08.664Z</time></trkpt><trkpt lat="44.6359833" lon="8.757395"><ele>356.0</ele><time>2026-04-21T09:41:09.664Z</time></trkpt><trkpt lat="44.6358617" lon="8.75737"><ele>355.5</ele><time>2026-04-21T09:41:10.664Z</time></trkpt><trkpt lat="44.63574" lon="8.7573167"><ele>355.0</ele><time>2026-04-21T09:41:11.664Z</time></trkpt><trkpt lat="44.6356183" lon="8.7572683"><ele>355.0</ele><time>2026-04-21T09:41:12.665Z</time></trkpt><trkpt lat="44.6355" lon="8.75724"><ele>355.0</ele><time>2026-04-21T09:41:13.664Z</time></trkpt><trkpt lat="44.635395" lon="8.7572133"><ele>355.0</ele><time>2026-04-21T09:41:14.664Z</time></trkpt><trkpt lat="44.635295" lon="8.7571983"><ele>355.0</ele><time>2026-04-21T09:41:15.665Z</time></trkpt><trkpt lat="44.6351867" lon="8.75723"><ele>355.0</ele><time>2026-04-21T09:41:16.664Z</time></trkpt><trkpt lat="44.635075" lon="8.7572933"><ele>356.0</ele><time>2026-04-21T09:41:17.664Z</time></trkpt><trkpt lat="44.6349517" lon="8.7573533"><ele>357.0</ele><time>2026-04-21T09:41:18.665Z</time></trkpt><trkpt lat="44.63482" lon="8.75741"><ele>358.0</ele><time>2026-04-21T09:41:19.665Z</time></trkpt><trkpt lat="44.6346833" lon="8.7574567"><ele>359.0</ele><time>2026-04-21T09:41:20.665Z</time></trkpt><trkpt lat="44.6345417" lon="8.7575233"><ele>359.25</ele><time>2026-04-21T09:41:21.664Z</time></trkpt><trkpt lat="44.6344283" lon="8.757615"><ele>359.5</ele><time>2026-04-21T09:41:22.665Z</time></trkpt><trkpt lat="44.6343083" lon="8.75771"><ele>359.75</ele><time>2026-04-21T09:41:23.664Z</time></trkpt><trkpt lat="44.6341783" lon="8.75781"><ele>360.0</ele><time>2026-04-21T09:41:24.665Z</time></trkpt><trkpt lat="44.6340433" lon="8.7579133"><ele>360.0</ele><time>2026-04-21T09:41:25.665Z</time></trkpt><trkpt lat="44.6339133" lon="8.757995"><ele>360.0</ele><time>2026-04-21T09:41:26.665Z</time></trkpt><trkpt lat="44.6337867" lon="8.7580683"><ele>360.0</ele><time>2026-04-21T09:41:27.665Z</time></trkpt><trkpt lat="44.63366" lon="8.7581083"><ele>360.0</ele><time>2026-04-21T09:41:28.665Z</time></trkpt><trkpt lat="44.6335367" lon="8.758145"><ele>361.6</ele><time>2026-04-21T09:41:29.665Z</time></trkpt><trkpt lat="44.6334283" lon="8.7582017"><ele>363.2</ele><time>2026-04-21T09:41:30.664Z</time></trkpt><trkpt lat="44.6333333" lon="8.7582883"><ele>364.79999999999995</ele><time>2026-04-21T09:41:31.665Z</time></trkpt><trkpt lat="44.633295" lon="8.7583783"><ele>366.4</ele><time>2026-04-21T09:41:32.664Z</time></trkpt><trkpt lat="44.633245" lon="8.7584967"><ele>368.0</ele><time>2026-04-21T09:41:33.664Z</time></trkpt><trkpt lat="44.63319" lon="8.758655"><ele>368.0</ele><time>2026-04-21T09:41:34.665Z</time></trkpt><trkpt lat="44.6331833" lon="8.75881"><ele>368.0</ele><time>2026-04-21T09:41:35.665Z</time></trkpt><trkpt lat="44.633215" lon="8.7589517"><ele>368.0</ele><time>2026-04-21T09:41:36.664Z</time></trkpt><trkpt lat="44.6332933" lon="8.75908"><ele>368.0</ele><time>2026-04-21T09:41:37.664Z</time></trkpt><trkpt lat="44.633395" lon="8.7591833"><ele>368.0</ele><time>2026-04-21T09:41:38.665Z</time></trkpt><trkpt lat="44.6335117" lon="8.7592467"><ele>368.0</ele><time>2026-04-21T09:41:39.664Z</time></trkpt><trkpt lat="44.63363" lon="8.7593067"><ele>368.0</ele><time>2026-04-21T09:41:40.664Z</time></trkpt><trkpt lat="44.6337433" lon="8.759385"><ele>368.0</ele><time>2026-04-21T09:41:41.664Z</time></trkpt><trkpt lat="44.633825" lon="8.7594917"><ele>366.5</ele><time>2026-04-21T09:41:42.665Z</time></trkpt><trkpt lat="44.6339067" lon="8.7596117"><ele>365.0</ele><time>2026-04-21T09:41:43.665Z</time></trkpt><trkpt lat="44.633975" lon="8.75975"><ele>363.5</ele><time>2026-04-21T09:41:44.664Z</time></trkpt><trkpt lat="44.63405" lon="8.7599167"><ele>362.0</ele><time>2026-04-21T09:41:45.665Z</time></trkpt><trkpt lat="44.6341267" lon="8.7600883"><ele>363.33333333333337</ele><time>2026-04-21T09:41:46.664Z</time></trkpt><trkpt lat="44.6342" lon="8.7602717"><ele>364.6666666666667</ele><time>2026-04-21T09:41:47.665Z</time></trkpt><trkpt lat="44.63424" lon="8.7604733"><ele>366.0</ele><time>2026-04-21T09:41:48.665Z</time></trkpt><trkpt lat="44.6342867" lon="8.76068"><ele>366.0</ele><time>2026-04-21T09:41:49.665Z</time></trkpt><trkpt lat="44.6343183" lon="8.7609033"><ele>366.0</ele><time>2026-04-21T09:41:50.665Z</time></trkpt><trkpt lat="44.634345" lon="8.7610933"><ele>366.0</ele><time>2026-04-21T09:41:51.664Z</time></trkpt><trkpt lat="44.6343617" lon="8.761255"><ele>366.0</ele><time>2026-04-21T09:41:52.665Z</time></trkpt><trkpt lat="44.6343617" lon="8.7614033"><ele>365.0</ele><time>2026-04-21T09:41:53.664Z</time></trkpt><trkpt lat="44.6343317" lon="8.76152"><ele>364.0</ele><time>2026-04-21T09:41:54.664Z</time></trkpt><trkpt lat="44.63425" lon="8.761605"><ele>363.0</ele><time>2026-04-21T09:41:55.664Z</time></trkpt><trkpt lat="44.6341617" lon="8.76167"><ele>362.0</ele><time>2026-04-21T09:41:56.664Z</time></trkpt><trkpt lat="44.6340917" lon="8.7617617"><ele>361.0</ele><time>2026-04-21T09:41:57.664Z</time></trkpt><trkpt lat="44.6340483" lon="8.7618867"><ele>360.4</ele><time>2026-04-21T09:41:58.664Z</time></trkpt><trkpt lat="44.6340167" lon="8.7620367"><ele>359.8</ele><time>2026-04-21T09:41:59.664Z</time></trkpt><trkpt lat="44.63399" lon="8.7621917"><ele>359.2</ele><time>2026-04-21T09:42:00.664Z</time></trkpt><trkpt lat="44.63398" lon="8.762315"><ele>358.59999999999997</ele><time>2026-04-21T09:42:01.664Z</time></trkpt><trkpt lat="44.6339917" lon="8.7624367"><ele>358.0</ele><time>2026-04-21T09:42:02.665Z</time></trkpt><trkpt lat="44.6340117" lon="8.76256"><ele>358.0</ele><time>2026-04-21T09:42:03.665Z</time></trkpt><trkpt lat="44.6340883" lon="8.76265"><ele>358.0</ele><time>2026-04-21T09:42:04.664Z</time></trkpt><trkpt lat="44.6341967" lon="8.7627217"><ele>358.0</ele><time>2026-04-21T09:42:05.665Z</time></trkpt><trkpt lat="44.6343183" lon="8.7628033"><ele>358.0</ele><time>2026-04-21T09:42:06.664Z</time></trkpt><trkpt lat="44.6344367" lon="8.7628833"><ele>359.5</ele><time>2026-04-21T09:42:07.664Z</time></trkpt><trkpt lat="44.6345517" lon="8.7629867"><ele>361.0</ele><time>2026-04-21T09:42:08.665Z</time></trkpt><trkpt lat="44.6346883" lon="8.763075"><ele>362.5</ele><time>2026-04-21T09:42:09.665Z</time></trkpt><trkpt lat="44.6347933" lon="8.763165"><ele>364.0</ele><time>2026-04-21T09:42:10.665Z</time></trkpt><trkpt lat="44.6348733" lon="8.7632683"><ele>364.0</ele><time>2026-04-21T09:42:11.665Z</time></trkpt><trkpt lat="44.6349367" lon="8.7633583"><ele>364.0</ele><time>2026-04-21T09:42:12.665Z</time></trkpt><trkpt lat="44.6349867" lon="8.7634567"><ele>364.0</ele><time>2026-04-21T09:42:13.665Z</time></trkpt><trkpt lat="44.63504" lon="8.7635767"><ele>364.0</ele><time>2026-04-21T09:42:14.664Z</time></trkpt><trkpt lat="44.6350883" lon="8.7637033"><ele>364.0</ele><time>2026-04-21T09:42:15.665Z</time></trkpt><trkpt lat="44.6351617" lon="8.7638283"><ele>363.25</ele><time>2026-04-21T09:42:16.664Z</time></trkpt><trkpt lat="44.635265" lon="8.7639267"><ele>362.5</ele><time>2026-04-21T09:42:17.665Z</time></trkpt><trkpt lat="44.6353717" lon="8.7640283"><ele>361.75</ele><time>2026-04-21T09:42:18.664Z</time></trkpt><trkpt lat="44.6354867" lon="8.7641283"><ele>361.0</ele><time>2026-04-21T09:42:19.664Z</time></trkpt><trkpt lat="44.635615" lon="8.764225"><ele>361.0</ele><time>2026-04-21T09:42:20.664Z</time></trkpt><trkpt lat="44.6357333" lon="8.7643217"><ele>361.0</ele><time>2026-04-21T09:42:21.665Z</time></trkpt><trkpt lat="44.6358417" lon="8.764415"><ele>361.0</ele><time>2026-04-21T09:42:22.664Z</time></trkpt><trkpt lat="44.6359267" lon="8.7645083"><ele>361.0</ele><time>2026-04-21T09:42:23.664Z</time></trkpt><trkpt lat="44.6359767" lon="8.7646217"><ele>361.0</ele><time>2026-04-21T09:42:24.664Z</time></trkpt><trkpt lat="44.6360033" lon="8.764745"><ele>361.0</ele><time>2026-04-21T09:42:25.665Z</time></trkpt><trkpt lat="44.6359983" lon="8.7648733"><ele>361.0</ele><time>2026-04-21T09:42:26.665Z</time></trkpt><trkpt lat="44.6359567" lon="8.7649917"><ele>361.0</ele><time>2026-04-21T09:42:27.664Z</time></trkpt><trkpt lat="44.6358883" lon="8.7651117"><ele>361.0</ele><time>2026-04-21T09:42:28.665Z</time></trkpt><trkpt lat="44.635785" lon="8.7652367"><ele>361.0</ele><time>2026-04-21T09:42:29.665Z</time></trkpt><trkpt lat="44.6356783" lon="8.765365"><ele>361.0</ele><time>2026-04-21T09:42:30.665Z</time></trkpt><trkpt lat="44.6355633" lon="8.76551"><ele>361.0</ele><time>2026-04-21T09:42:31.665Z</time></trkpt><trkpt lat="44.635455" lon="8.765665"><ele>361.0</ele><time>2026-04-21T09:42:32.665Z</time></trkpt><trkpt lat="44.63535" lon="8.765805"><ele>362.8</ele><time>2026-04-21T09:42:33.665Z</time></trkpt><trkpt lat="44.6352517" lon="8.765925"><ele>364.6</ele><time>2026-04-21T09:42:34.666Z</time></trkpt><trkpt lat="44.6351583" lon="8.7660233"><ele>366.4</ele><time>2026-04-21T09:42:35.666Z</time></trkpt><trkpt lat="44.6350917" lon="8.76611"><ele>368.2</ele><time>2026-04-21T09:42:36.666Z</time></trkpt><trkpt lat="44.63504" lon="8.7662067"><ele>370.0</ele><time>2026-04-21T09:42:37.665Z</time></trkpt><trkpt lat="44.635015" lon="8.76632"><ele>370.0</ele><time>2026-04-21T09:42:38.666Z</time></trkpt><trkpt lat="44.63502" lon="8.76643"><ele>370.0</ele><time>2026-04-21T09:42:39.666Z</time></trkpt><trkpt lat="44.6350417" lon="8.7665517"><ele>370.0</ele><time>2026-04-21T09:42:40.666Z</time></trkpt><trkpt lat="44.6350917" lon="8.7666617"><ele>370.0</ele><time>2026-04-21T09:42:41.665Z</time></trkpt><trkpt lat="44.6351617" lon="8.76678"><ele>370.0</ele><time>2026-04-21T09:42:42.666Z</time></trkpt><trkpt lat="44.63523" lon="8.7669267"><ele>370.75</ele><time>2026-04-21T09:42:43.665Z</time></trkpt><trkpt lat="44.635295" lon="8.7670933"><ele>371.5</ele><time>2026-04-21T09:42:44.665Z</time></trkpt><trkpt lat="44.635365" lon="8.7672583"><ele>372.25</ele><time>2026-04-21T09:42:45.665Z</time></trkpt><trkpt lat="44.635415" lon="8.76742"><ele>373.0</ele><time>2026-04-21T09:42:46.665Z</time></trkpt><trkpt lat="44.6354567" lon="8.7675533"><ele>371.0</ele><time>2026-04-21T09:42:47.666Z</time></trkpt><trkpt lat="44.6354667" lon="8.7676717"><ele>369.0</ele><time>2026-04-21T09:42:48.666Z</time></trkpt><trkpt lat="44.6354333" lon="8.7677783"><ele>367.0</ele><time>2026-04-21T09:42:49.665Z</time></trkpt><trkpt lat="44.635365" lon="8.767855"><ele>365.0</ele><time>2026-04-21T09:42:50.666Z</time></trkpt><trkpt lat="44.6352717" lon="8.76792"><ele>363.0</ele><time>2026-04-21T09:42:51.665Z</time></trkpt><trkpt lat="44.635145" lon="8.7679617"><ele>363.0</ele><time>2026-04-21T09:42:52.666Z</time></trkpt><trkpt lat="44.6350283" lon="8.7679967"><ele>363.0</ele><time>2026-04-21T09:42:53.665Z</time></trkpt><trkpt lat="44.6349383" lon="8.7680517"><ele>363.0</ele><time>2026-04-21T09:42:54.665Z</time></trkpt><trkpt lat="44.6348733" lon="8.768145"><ele>363.0</ele><time>2026-04-21T09:42:55.666Z</time></trkpt><trkpt lat="44.6348233" lon="8.768265"><ele>363.0</ele><time>2026-04-21T09:42:56.665Z</time></trkpt><trkpt lat="44.6347867" lon="8.7684017"><ele>365.59999999999997</ele><time>2026-04-21T09:42:57.666Z</time></trkpt><trkpt lat="44.6347933" lon="8.7685417"><ele>368.2</ele><time>2026-04-21T09:42:58.666Z</time></trkpt><trkpt lat="44.6348183" lon="8.76867"><ele>370.8</ele><time>2026-04-21T09:42:59.665Z</time></trkpt><trkpt lat="44.6348667" lon="8.768765"><ele>373.4</ele><time>2026-04-21T09:43:00.666Z</time></trkpt><trkpt lat="44.6349283" lon="8.7688333"><ele>376.0</ele><time>2026-04-21T09:43:01.665Z</time></trkpt><trkpt lat="44.635025" lon="8.7688883"><ele>376.0</ele><time>2026-04-21T09:43:02.665Z</time></trkpt><trkpt lat="44.6351467" lon="8.7689167"><ele>376.0</ele><time>2026-04-21T09:43:03.666Z</time></trkpt><trkpt lat="44.6352933" lon="8.7689083"><ele>376.0</ele><time>2026-04-21T09:43:04.666Z</time></trkpt><trkpt lat="44.6354267" lon="8.7688817"><ele>376.0</ele><time>2026-04-21T09:43:05.666Z</time></trkpt><trkpt lat="44.6355467" lon="8.7688933"><ele>373.4</ele><time>2026-04-21T09:43:06.665Z</time></trkpt><trkpt lat="44.6356317" lon="8.7689417"><ele>370.8</ele><time>2026-04-21T09:43:07.665Z</time></trkpt><trkpt lat="44.6356917" lon="8.7690067"><ele>368.2</ele><time>2026-04-21T09:43:08.666Z</time></trkpt><trkpt lat="44.6357217" lon="8.7691133"><ele>365.59999999999997</ele><time>2026-04-21T09:43:09.666Z</time></trkpt><trkpt lat="44.6357067" lon="8.76925"><ele>363.0</ele><time>2026-04-21T09:43:10.665Z</time></trkpt><trkpt lat="44.6356717" lon="8.7694167"><ele>363.0</ele><time>2026-04-21T09:43:11.666Z</time></trkpt><trkpt lat="44.6356383" lon="8.769605"><ele>363.0</ele><time>2026-04-21T09:43:12.665Z</time></trkpt><trkpt lat="44.63561" lon="8.7697983"><ele>363.0</ele><time>2026-04-21T09:43:13.665Z</time></trkpt><trkpt lat="44.6355883" lon="8.769995"><ele>363.0</ele><time>2026-04-21T09:43:14.665Z</time></trkpt><trkpt lat="44.6355783" lon="8.7701783"><ele>365.25</ele><time>2026-04-21T09:43:15.666Z</time></trkpt><trkpt lat="44.6355967" lon="8.770355"><ele>367.5</ele><time>2026-04-21T09:43:16.665Z</time></trkpt><trkpt lat="44.6356483" lon="8.7705383"><ele>369.75</ele><time>2026-04-21T09:43:17.666Z</time></trkpt><trkpt lat="44.635715" lon="8.7707267"><ele>372.0</ele><time>2026-04-21T09:43:18.666Z</time></trkpt><trkpt lat="44.63578" lon="8.770905"><ele>373.5</ele><time>2026-04-21T09:43:19.666Z</time></trkpt><trkpt lat="44.6358333" lon="8.7710767"><ele>375.0</ele><time>2026-04-21T09:43:20.665Z</time></trkpt><trkpt lat="44.6358667" lon="8.77124"><ele>376.5</ele><time>2026-04-21T09:43:21.665Z</time></trkpt><trkpt lat="44.6358783" lon="8.7714133"><ele>378.0</ele><time>2026-04-21T09:43:22.665Z</time></trkpt><trkpt lat="44.63586" lon="8.771595"><ele>378.0</ele><time>2026-04-21T09:43:23.665Z</time></trkpt><trkpt lat="44.63584" lon="8.7717867"><ele>378.0</ele><time>2026-04-21T09:43:24.666Z</time></trkpt><trkpt lat="44.6358317" lon="8.7719767"><ele>378.0</ele><time>2026-04-21T09:43:25.666Z</time></trkpt><trkpt lat="44.6358333" lon="8.7721617"><ele>378.0</ele><time>2026-04-21T09:43:26.666Z</time></trkpt><trkpt lat="44.635855" lon="8.7723333"><ele>378.75</ele><time>2026-04-21T09:43:27.665Z</time></trkpt><trkpt lat="44.6358633" lon="8.77249"><ele>379.5</ele><time>2026-04-21T09:43:28.666Z</time></trkpt><trkpt lat="44.6358367" lon="8.77263"><ele>380.25</ele><time>2026-04-21T09:43:29.665Z</time></trkpt><trkpt lat="44.635775" lon="8.7727567"><ele>381.0</ele><time>2026-04-21T09:43:30.666Z</time></trkpt><trkpt lat="44.63569" lon="8.7728867"><ele>378.5</ele><time>2026-04-21T09:43:31.665Z</time></trkpt><trkpt lat="44.6355983" lon="8.7730217"><ele>376.0</ele><time>2026-04-21T09:43:32.666Z</time></trkpt><trkpt lat="44.6355" lon="8.7731633"><ele>373.5</ele><time>2026-04-21T09:43:33.665Z</time></trkpt><trkpt lat="44.6353883" lon="8.7733"><ele>371.0</ele><time>2026-04-21T09:43:34.665Z</time></trkpt><trkpt lat="44.635265" lon="8.7734117"><ele>374.25</ele><time>2026-04-21T09:43:35.666Z</time></trkpt><trkpt lat="44.635125" lon="8.7734983"><ele>377.5</ele><time>2026-04-21T09:43:36.666Z</time></trkpt><trkpt lat="44.6349883" lon="8.773575"><ele>380.75</ele><time>2026-04-21T09:43:37.666Z</time></trkpt><trkpt lat="44.63487" lon="8.7736433"><ele>384.0</ele><time>2026-04-21T09:43:38.666Z</time></trkpt><trkpt lat="44.6347767" lon="8.7737167"><ele>384.0</ele><time>2026-04-21T09:43:39.666Z</time></trkpt><trkpt lat="44.634725" lon="8.7738133"><ele>384.0</ele><time>2026-04-21T09:43:40.665Z</time></trkpt><trkpt lat="44.6347133" lon="8.773925"><ele>384.0</ele><time>2026-04-21T09:43:41.666Z</time></trkpt><trkpt lat="44.6347433" lon="8.7740383"><ele>384.0</ele><time>2026-04-21T09:43:42.665Z</time></trkpt><trkpt lat="44.634805" lon="8.7741533"><ele>384.0</ele><time>2026-04-21T09:43:43.666Z</time></trkpt><trkpt lat="44.6348983" lon="8.7742517"><ele>384.0</ele><time>2026-04-21T09:43:44.665Z</time></trkpt><trkpt lat="44.6350133" lon="8.77433"><ele>384.0</ele><time>2026-04-21T09:43:45.665Z</time></trkpt><trkpt lat="44.6350783" lon="8.7744333"><ele>384.0</ele><time>2026-04-21T09:43:46.665Z</time></trkpt><trkpt lat="44.6351067" lon="8.7745417"><ele>384.0</ele><time>2026-04-21T09:43:47.666Z</time></trkpt><trkpt lat="44.6350783" lon="8.774635"><ele>384.0</ele><time>2026-04-21T09:43:48.665Z</time></trkpt><trkpt lat="44.6350167" lon="8.7747217"><ele>383.25</ele><time>2026-04-21T09:43:49.666Z</time></trkpt><trkpt lat="44.634915" lon="8.7748267"><ele>382.5</ele><time>2026-04-21T09:43:50.665Z</time></trkpt><trkpt lat="44.634805" lon="8.774945"><ele>381.75</ele><time>2026-04-21T09:43:51.665Z</time></trkpt><trkpt lat="44.6346983" lon="8.7750417"><ele>381.0</ele><time>2026-04-21T09:43:52.666Z</time></trkpt><trkpt lat="44.6345867" lon="8.7751067"><ele>385.25</ele><time>2026-04-21T09:43:53.665Z</time></trkpt><trkpt lat="44.6344617" lon="8.7751567"><ele>389.5</ele><time>2026-04-21T09:43:54.665Z</time></trkpt><trkpt lat="44.634345" lon="8.7752017"><ele>393.75</ele><time>2026-04-21T09:43:55.666Z</time></trkpt><trkpt lat="44.634235" lon="8.7752483"><ele>398.0</ele><time>2026-04-21T09:43:56.665Z</time></trkpt><trkpt lat="44.6341433" lon="8.7753167"><ele>398.0</ele><time>2026-04-21T09:43:57.666Z</time></trkpt><trkpt lat="44.63409" lon="8.775405"><ele>398.0</ele><time>2026-04-21T09:43:58.666Z</time></trkpt><trkpt lat="44.63406" lon="8.7755117"><ele>398.0</ele><time>2026-04-21T09:43:59.666Z</time></trkpt><trkpt lat="44.6340483" lon="8.7756283"><ele>398.0</ele><time>2026-04-21T09:44:00.665Z</time></trkpt><trkpt lat="44.6340517" lon="8.775775"><ele>398.0</ele><time>2026-04-21T09:44:01.665Z</time></trkpt><trkpt lat="44.634035" lon="8.7759467"><ele>396.79999999999995</ele><time>2026-04-21T09:44:02.666Z</time></trkpt><trkpt lat="44.6340433" lon="8.77611"><ele>395.6</ele><time>2026-04-21T09:44:03.665Z</time></trkpt><trkpt lat="44.6340683" lon="8.7762667"><ele>394.4</ele><time>2026-04-21T09:44:04.666Z</time></trkpt><trkpt lat="44.6340883" lon="8.7763983"><ele>393.20000000000005</ele><time>2026-04-21T09:44:05.665Z</time></trkpt><trkpt lat="44.6340817" lon="8.7765067"><ele>392.0</ele><time>2026-04-21T09:44:06.665Z</time></trkpt><trkpt lat="44.634025" lon="8.7765983"><ele>392.0</ele><time>2026-04-21T09:44:07.666Z</time></trkpt><trkpt lat="44.63394" lon="8.7766733"><ele>392.0</ele><time>2026-04-21T09:44:08.665Z</time></trkpt><trkpt lat="44.633835" lon="8.77674"><ele>392.0</ele><time>2026-04-21T09:44:09.666Z</time></trkpt><trkpt lat="44.6337217" lon="8.77679"><ele>392.0</ele><time>2026-04-21T09:44:10.665Z</time></trkpt><trkpt lat="44.6336083" lon="8.7768183"><ele>395.6</ele><time>2026-04-21T09:44:11.666Z</time></trkpt><trkpt lat="44.6334917" lon="8.7768467"><ele>399.20000000000005</ele><time>2026-04-21T09:44:12.665Z</time></trkpt><trkpt lat="44.6334083" lon="8.7768717"><ele>402.8</ele><time>2026-04-21T09:44:13.665Z</time></trkpt><trkpt lat="44.63334" lon="8.7769217"><ele>406.4</ele><time>2026-04-21T09:44:14.666Z</time></trkpt><trkpt lat="44.6333217" lon="8.7770967"><ele>410.0</ele><time>2026-04-21T09:44:16.665Z</time></trkpt><trkpt lat="44.6333533" lon="8.7772267"><ele>410.0</ele><time>2026-04-21T09:44:17.665Z</time></trkpt><trkpt lat="44.6333733" lon="8.7773883"><ele>410.0</ele><time>2026-04-21T09:44:18.665Z</time></trkpt><trkpt lat="44.633345" lon="8.777555"><ele>410.0</ele><time>2026-04-21T09:44:19.665Z</time></trkpt><trkpt lat="44.633275" lon="8.777705"><ele>410.0</ele><time>2026-04-21T09:44:20.665Z</time></trkpt><trkpt lat="44.6331833" lon="8.77782"><ele>411.2</ele><time>2026-04-21T09:44:21.666Z</time></trkpt><trkpt lat="44.6330783" lon="8.7779117"><ele>412.4</ele><time>2026-04-21T09:44:22.665Z</time></trkpt><trkpt lat="44.6329983" lon="8.7780067"><ele>413.6</ele><time>2026-04-21T09:44:23.665Z</time></trkpt><trkpt lat="44.6329567" lon="8.77811"><ele>414.8</ele><time>2026-04-21T09:44:24.665Z</time></trkpt><trkpt lat="44.632945" lon="8.7782117"><ele>416.0</ele><time>2026-04-21T09:44:25.665Z</time></trkpt><trkpt lat="44.63297" lon="8.7783167"><ele>416.0</ele><time>2026-04-21T09:44:26.666Z</time></trkpt><trkpt lat="44.6330183" lon="8.7784"><ele>416.0</ele><time>2026-04-21T09:44:27.665Z</time></trkpt><trkpt lat="44.6330883" lon="8.77846"><ele>416.0</ele><time>2026-04-21T09:44:28.665Z</time></trkpt><trkpt lat="44.6331867" lon="8.7784917"><ele>416.0</ele><time>2026-04-21T09:44:29.666Z</time></trkpt><trkpt lat="44.63331" lon="8.7785067"><ele>416.0</ele><time>2026-04-21T09:44:30.665Z</time></trkpt><trkpt lat="44.6334467" lon="8.7785"><ele>416.0</ele><time>2026-04-21T09:44:31.666Z</time></trkpt><trkpt lat="44.6335833" lon="8.7784717"><ele>416.0</ele><time>2026-04-21T09:44:32.665Z</time></trkpt><trkpt lat="44.633705" lon="8.7784667"><ele>416.0</ele><time>2026-04-21T09:44:33.666Z</time></trkpt><trkpt lat="44.63383" lon="8.77848"><ele>416.0</ele><time>2026-04-21T09:44:34.665Z</time></trkpt><trkpt lat="44.6339383" lon="8.7785183"><ele>416.25</ele><time>2026-04-21T09:44:35.665Z</time></trkpt><trkpt lat="44.6340233" lon="8.7786"><ele>416.5</ele><time>2026-04-21T09:44:36.665Z</time></trkpt><trkpt lat="44.6340983" lon="8.7787267"><ele>416.75</ele><time>2026-04-21T09:44:37.666Z</time></trkpt><trkpt lat="44.63415" lon="8.7788933"><ele>417.0</ele><time>2026-04-21T09:44:38.665Z</time></trkpt><trkpt lat="44.6341883" lon="8.77908"><ele>417.0</ele><time>2026-04-21T09:44:39.665Z</time></trkpt><trkpt lat="44.63423" lon="8.779265"><ele>417.0</ele><time>2026-04-21T09:44:40.665Z</time></trkpt><trkpt lat="44.6342767" lon="8.779415"><ele>417.0</ele><time>2026-04-21T09:44:41.666Z</time></trkpt><trkpt lat="44.6343217" lon="8.7795367"><ele>417.0</ele><time>2026-04-21T09:44:42.665Z</time></trkpt><trkpt lat="44.634375" lon="8.7796217"><ele>417.0</ele><time>2026-04-21T09:44:43.665Z</time></trkpt><trkpt lat="44.63443" lon="8.7796683"><ele>416.6</ele><time>2026-04-21T09:44:44.666Z</time></trkpt><trkpt lat="44.6345033" lon="8.779675"><ele>416.20000000000005</ele><time>2026-04-21T09:44:45.665Z</time></trkpt><trkpt lat="44.6345767" lon="8.7796267"><ele>415.8</ele><time>2026-04-21T09:44:46.665Z</time></trkpt><trkpt lat="44.6346583" lon="8.7795267"><ele>415.4</ele><time>2026-04-21T09:44:47.665Z</time></trkpt><trkpt lat="44.6347533" lon="8.7793933"><ele>415.0</ele><time>2026-04-21T09:44:48.666Z</time></trkpt><trkpt lat="44.6348667" lon="8.7792083"><ele>415.0</ele><time>2026-04-21T09:44:49.665Z</time></trkpt><trkpt lat="44.6349717" lon="8.7790567"><ele>415.0</ele><time>2026-04-21T09:44:50.666Z</time></trkpt><trkpt lat="44.6350683" lon="8.7789183"><ele>415.0</ele><time>2026-04-21T09:44:51.665Z</time></trkpt><trkpt lat="44.635165" lon="8.778805"><ele>415.0</ele><time>2026-04-21T09:44:52.665Z</time></trkpt><trkpt lat="44.6352633" lon="8.77875"><ele>413.6</ele><time>2026-04-21T09:44:53.665Z</time></trkpt><trkpt lat="44.635355" lon="8.7787283"><ele>412.2</ele><time>2026-04-21T09:44:54.666Z</time></trkpt><trkpt lat="44.6354383" lon="8.778755"><ele>410.79999999999995</ele><time>2026-04-21T09:44:55.665Z</time></trkpt><trkpt lat="44.635515" lon="8.7788633"><ele>409.4</ele><time>2026-04-21T09:44:56.665Z</time></trkpt><trkpt lat="44.6355917" lon="8.7790133"><ele>408.0</ele><time>2026-04-21T09:44:57.666Z</time></trkpt><trkpt lat="44.6356783" lon="8.7791633"><ele>408.0</ele><time>2026-04-21T09:44:58.666Z</time></trkpt><trkpt lat="44.6357683" lon="8.7793167"><ele>408.0</ele><time>2026-04-21T09:44:59.665Z</time></trkpt><trkpt lat="44.6358833" lon="8.779435"><ele>408.0</ele><time>2026-04-21T09:45:00.666Z</time></trkpt><trkpt lat="44.6359917" lon="8.7795317"><ele>408.0</ele><time>2026-04-21T09:45:01.665Z</time></trkpt><trkpt lat="44.6361033" lon="8.779645"><ele>407.25</ele><time>2026-04-21T09:45:02.666Z</time></trkpt><trkpt lat="44.636215" lon="8.7797683"><ele>406.5</ele><time>2026-04-21T09:45:03.666Z</time></trkpt><trkpt lat="44.6363333" lon="8.779905"><ele>405.75</ele><time>2026-04-21T09:45:04.666Z</time></trkpt><trkpt lat="44.6364467" lon="8.7800517"><ele>405.0</ele><time>2026-04-21T09:45:05.665Z</time></trkpt><trkpt lat="44.636545" lon="8.7802"><ele>407.0</ele><time>2026-04-21T09:45:06.666Z</time></trkpt><trkpt lat="44.6366283" lon="8.7803733"><ele>409.0</ele><time>2026-04-21T09:45:07.665Z</time></trkpt><trkpt lat="44.6367083" lon="8.7805533"><ele>411.0</ele><time>2026-04-21T09:45:08.665Z</time></trkpt><trkpt lat="44.6368" lon="8.780715"><ele>413.0</ele><time>2026-04-21T09:45:09.665Z</time></trkpt><trkpt lat="44.636895" lon="8.7808583"><ele>411.79999999999995</ele><time>2026-04-21T09:45:10.665Z</time></trkpt><trkpt lat="44.6369917" lon="8.78099"><ele>410.6</ele><time>2026-04-21T09:45:11.666Z</time></trkpt><trkpt lat="44.637065" lon="8.781115"><ele>409.4</ele><time>2026-04-21T09:45:12.665Z</time></trkpt><trkpt lat="44.6371133" lon="8.7812133"><ele>408.20000000000005</ele><time>2026-04-21T09:45:13.666Z</time></trkpt><trkpt lat="44.6371367" lon="8.7813"><ele>407.0</ele><time>2026-04-21T09:45:14.666Z</time></trkpt><trkpt lat="44.6371333" lon="8.7814317"><ele>406.99999999999994</ele><time>2026-04-21T09:45:16.666Z</time></trkpt><trkpt lat="44.6370917" lon="8.7815383"><ele>407.0</ele><time>2026-04-21T09:45:22.665Z</time></trkpt><trkpt lat="44.63704" lon="8.7816317"><ele>407.0</ele><time>2026-04-21T09:45:24.665Z</time></trkpt><trkpt lat="44.6370533" lon="8.7817483"><ele>407.0</ele><time>2026-04-21T09:45:26.665Z</time></trkpt><trkpt lat="44.637135" lon="8.78184"><ele>406.99999999999994</ele><time>2026-04-21T09:45:28.665Z</time></trkpt><trkpt lat="44.6371967" lon="8.78188"><ele>407.0</ele><time>2026-04-21T09:45:29.666Z</time></trkpt><trkpt lat="44.6372517" lon="8.78195"><ele>410.0</ele><time>2026-04-21T09:45:30.665Z</time></trkpt><trkpt lat="44.6373117" lon="8.7820383"><ele>413.0</ele><time>2026-04-21T09:45:31.666Z</time></trkpt><trkpt lat="44.6373483" lon="8.7821667"><ele>416.0</ele><time>2026-04-21T09:45:32.665Z</time></trkpt><trkpt lat="44.637395" lon="8.7823117"><ele>419.0</ele><time>2026-04-21T09:45:33.665Z</time></trkpt><trkpt lat="44.6374383" lon="8.7824483"><ele>422.0</ele><time>2026-04-21T09:45:34.666Z</time></trkpt><trkpt lat="44.6374633" lon="8.7825533"><ele>422.0</ele><time>2026-04-21T09:45:35.666Z</time></trkpt><trkpt lat="44.63745" lon="8.7826683"><ele>422.0</ele><time>2026-04-21T09:45:37.665Z</time></trkpt><trkpt lat="44.6373783" lon="8.7826517"><ele>422.0</ele><time>2026-04-21T09:45:39.666Z</time></trkpt><trkpt lat="44.637305" lon="8.7824967"><ele>422.0</ele><time>2026-04-21T09:45:41.665Z</time></trkpt><trkpt lat="44.637265" lon="8.7823533"><ele>422.0</ele><time>2026-04-21T09:45:42.666Z</time></trkpt><trkpt lat="44.6372317" lon="8.78223"><ele>422.0</ele><time>2026-04-21T09:45:43.666Z</time></trkpt><trkpt lat="44.6371783" lon="8.7821433"><ele>422.0</ele><time>2026-04-21T09:45:44.665Z</time></trkpt><trkpt lat="44.6371317" lon="8.78208"><ele>422.0</ele><time>2026-04-21T09:45:45.666Z</time></trkpt><trkpt lat="44.6369833" lon="8.7820817"><ele>422.0</ele><time>2026-04-21T09:45:47.665Z</time></trkpt><trkpt lat="44.6368883" lon="8.7821433"><ele>422.0</ele><time>2026-04-21T09:45:48.666Z</time></trkpt><trkpt lat="44.6367817" lon="8.78225"><ele>424.66666666666663</ele><time>2026-04-21T09:45:49.665Z</time></trkpt><trkpt lat="44.63666" lon="8.78239"><ele>427.33333333333337</ele><time>2026-04-21T09:45:50.665Z</time></trkpt><trkpt lat="44.6365417" lon="8.7825317"><ele>430.0</ele><time>2026-04-21T09:45:51.665Z</time></trkpt><trkpt lat="44.6364367" lon="8.7826617"><ele>433.25</ele><time>2026-04-21T09:45:52.666Z</time></trkpt><trkpt lat="44.6363333" lon="8.7827783"><ele>436.5</ele><time>2026-04-21T09:45:53.666Z</time></trkpt><trkpt lat="44.63623" lon="8.7828883"><ele>439.75</ele><time>2026-04-21T09:45:54.666Z</time></trkpt><trkpt lat="44.6361183" lon="8.7829883"><ele>443.0</ele><time>2026-04-21T09:45:55.666Z</time></trkpt><trkpt lat="44.6359967" lon="8.7830933"><ele>443.2</ele><time>2026-04-21T09:45:56.665Z</time></trkpt><trkpt lat="44.635875" lon="8.7831483"><ele>443.4</ele><time>2026-04-21T09:45:57.665Z</time></trkpt><trkpt lat="44.63577" lon="8.783185"><ele>443.59999999999997</ele><time>2026-04-21T09:45:58.666Z</time></trkpt><trkpt lat="44.6356867" lon="8.7832233"><ele>443.79999999999995</ele><time>2026-04-21T09:45:59.666Z</time></trkpt><trkpt lat="44.6356367" lon="8.7833217"><ele>444.0</ele><time>2026-04-21T09:46:01.665Z</time></trkpt><trkpt lat="44.6356917" lon="8.7833983"><ele>444.0</ele><time>2026-04-21T09:46:03.666Z</time></trkpt><trkpt lat="44.6358133" lon="8.7833883"><ele>444.0</ele><time>2026-04-21T09:46:05.666Z</time></trkpt><trkpt lat="44.6359117" lon="8.7833667"><ele>444.0</ele><time>2026-04-21T09:46:06.666Z</time></trkpt><trkpt lat="44.636035" lon="8.7833633"><ele>444.0</ele><time>2026-04-21T09:46:07.665Z</time></trkpt><trkpt lat="44.6361567" lon="8.7833467"><ele>443.75</ele><time>2026-04-21T09:46:08.665Z</time></trkpt><trkpt lat="44.63628" lon="8.783285"><ele>443.5</ele><time>2026-04-21T09:46:09.666Z</time></trkpt><trkpt lat="44.63639" lon="8.7831933"><ele>443.25</ele><time>2026-04-21T09:46:10.665Z</time></trkpt><trkpt lat="44.6364883" lon="8.783115"><ele>443.0</ele><time>2026-04-21T09:46:11.666Z</time></trkpt><trkpt lat="44.6365883" lon="8.7830567"><ele>443.0</ele><time>2026-04-21T09:46:12.666Z</time></trkpt><trkpt lat="44.6366733" lon="8.7830183"><ele>442.99999999999994</ele><time>2026-04-21T09:46:13.666Z</time></trkpt><trkpt lat="44.63676" lon="8.7830517"><ele>442.99999999999994</ele><time>2026-04-21T09:46:14.665Z</time></trkpt><trkpt lat="44.63682" lon="8.783145"><ele>443.0</ele><time>2026-04-21T09:46:15.665Z</time></trkpt><trkpt lat="44.636855" lon="8.7832733"><ele>443.0</ele><time>2026-04-21T09:46:16.666Z</time></trkpt><trkpt lat="44.636875" lon="8.78344"><ele>446.75</ele><time>2026-04-21T09:46:17.666Z</time></trkpt><trkpt lat="44.6368933" lon="8.7836283"><ele>450.5</ele><time>2026-04-21T09:46:18.666Z</time></trkpt><trkpt lat="44.6369033" lon="8.7838283"><ele>454.25</ele><time>2026-04-21T09:46:19.665Z</time></trkpt><trkpt lat="44.6369183" lon="8.7840133"><ele>458.0</ele><time>2026-04-21T09:46:20.665Z</time></trkpt><trkpt lat="44.6369417" lon="8.784205"><ele>454.0</ele><time>2026-04-21T09:46:21.666Z</time></trkpt><trkpt lat="44.6369867" lon="8.7844"><ele>450.0</ele><time>2026-04-21T09:46:22.666Z</time></trkpt><trkpt lat="44.6370233" lon="8.7845867"><ele>446.0</ele><time>2026-04-21T09:46:23.665Z</time></trkpt><trkpt lat="44.6370517" lon="8.7847683"><ele>442.0</ele><time>2026-04-21T09:46:24.666Z</time></trkpt><trkpt lat="44.6370683" lon="8.784945"><ele>442.00000000000006</ele><time>2026-04-21T09:46:25.665Z</time></trkpt><trkpt lat="44.6370717" lon="8.7850983"><ele>442.0</ele><time>2026-04-21T09:46:26.666Z</time></trkpt><trkpt lat="44.6370583" lon="8.785225"><ele>442.0</ele><time>2026-04-21T09:46:27.665Z</time></trkpt><trkpt lat="44.63703" lon="8.785315"><ele>442.0</ele><time>2026-04-21T09:46:28.666Z</time></trkpt><trkpt lat="44.6369683" lon="8.78537"><ele>442.00000000000006</ele><time>2026-04-21T09:46:29.665Z</time></trkpt><trkpt lat="44.6368867" lon="8.7854"><ele>442.0</ele><time>2026-04-21T09:46:30.666Z</time></trkpt><trkpt lat="44.6367767" lon="8.7854167"><ele>442.75</ele><time>2026-04-21T09:46:31.666Z</time></trkpt><trkpt lat="44.6366517" lon="8.78542"><ele>443.5</ele><time>2026-04-21T09:46:32.665Z</time></trkpt><trkpt lat="44.6365283" lon="8.7854283"><ele>444.25</ele><time>2026-04-21T09:46:33.665Z</time></trkpt><trkpt lat="44.6363933" lon="8.7854317"><ele>445.0</ele><time>2026-04-21T09:46:34.666Z</time></trkpt><trkpt lat="44.636255" lon="8.7854217"><ele>447.25</ele><time>2026-04-21T09:46:35.666Z</time></trkpt><trkpt lat="44.6361183" lon="8.7854033"><ele>449.5</ele><time>2026-04-21T09:46:36.666Z</time></trkpt><trkpt lat="44.6359733" lon="8.785355"><ele>451.75</ele><time>2026-04-21T09:46:37.665Z</time></trkpt><trkpt lat="44.6358267" lon="8.785305"><ele>454.0</ele><time>2026-04-21T09:46:38.666Z</time></trkpt><trkpt lat="44.6356733" lon="8.785255"><ele>454.0</ele><time>2026-04-21T09:46:39.665Z</time></trkpt><trkpt lat="44.6355233" lon="8.7852083"><ele>454.0</ele><time>2026-04-21T09:46:40.665Z</time></trkpt><trkpt lat="44.6353733" lon="8.7851683"><ele>454.0</ele><time>2026-04-21T09:46:41.665Z</time></trkpt><trkpt lat="44.635245" lon="8.7851067"><ele>454.0</ele><time>2026-04-21T09:46:42.666Z</time></trkpt><trkpt lat="44.6351217" lon="8.78502"><ele>461.33333333333337</ele><time>2026-04-21T09:46:43.665Z</time></trkpt><trkpt lat="44.6350033" lon="8.784915"><ele>468.66666666666663</ele><time>2026-04-21T09:46:44.665Z</time></trkpt><trkpt lat="44.6348817" lon="8.7847833"><ele>476.0</ele><time>2026-04-21T09:46:45.666Z</time></trkpt><trkpt lat="44.6347567" lon="8.7846417"><ele>476.0</ele><time>2026-04-21T09:46:46.665Z</time></trkpt><trkpt lat="44.6346367" lon="8.78449"><ele>476.0</ele><time>2026-04-21T09:46:47.665Z</time></trkpt><trkpt lat="44.634515" lon="8.7843317"><ele>476.0</ele><time>2026-04-21T09:46:48.666Z</time></trkpt><trkpt lat="44.63438" lon="8.7841717"><ele>481.0</ele><time>2026-04-21T09:46:49.665Z</time></trkpt><trkpt lat="44.6342567" lon="8.7840083"><ele>486.0</ele><time>2026-04-21T09:46:50.666Z</time></trkpt><trkpt lat="44.634145" lon="8.7838583"><ele>491.0</ele><time>2026-04-21T09:46:51.666Z</time></trkpt><trkpt lat="44.6340517" lon="8.7837083"><ele>491.0</ele><time>2026-04-21T09:46:52.666Z</time></trkpt><trkpt lat="44.6339783" lon="8.7835567"><ele>491.0</ele><time>2026-04-21T09:46:53.666Z</time></trkpt><trkpt lat="44.63393" lon="8.783405"><ele>491.0</ele><time>2026-04-21T09:46:54.665Z</time></trkpt><trkpt lat="44.633895" lon="8.7832683"><ele>491.0</ele><time>2026-04-21T09:46:55.665Z</time></trkpt><trkpt lat="44.6338367" lon="8.78316"><ele>491.0</ele><time>2026-04-21T09:46:56.666Z</time></trkpt><trkpt lat="44.6337633" lon="8.7830767"><ele>489.5</ele><time>2026-04-21T09:46:57.666Z</time></trkpt><trkpt lat="44.6336717" lon="8.78301"><ele>488.0</ele><time>2026-04-21T09:46:58.665Z</time></trkpt><trkpt lat="44.6335583" lon="8.782955"><ele>486.5</ele><time>2026-04-21T09:46:59.666Z</time></trkpt><trkpt lat="44.6334333" lon="8.7829133"><ele>485.0</ele><time>2026-04-21T09:47:00.665Z</time></trkpt><trkpt lat="44.6333283" lon="8.7828567"><ele>487.6</ele><time>2026-04-21T09:47:01.666Z</time></trkpt><trkpt lat="44.6332417" lon="8.7827717"><ele>490.2</ele><time>2026-04-21T09:47:02.666Z</time></trkpt><trkpt lat="44.63318" lon="8.7826583"><ele>492.79999999999995</ele><time>2026-04-21T09:47:03.665Z</time></trkpt><trkpt lat="44.6331433" lon="8.7825233"><ele>495.4</ele><time>2026-04-21T09:47:04.666Z</time></trkpt><trkpt lat="44.6331233" lon="8.7824017"><ele>498.0</ele><time>2026-04-21T09:47:05.666Z</time></trkpt><trkpt lat="44.6330833" lon="8.7822933"><ele>498.0</ele><time>2026-04-21T09:47:06.665Z</time></trkpt><trkpt lat="44.6330283" lon="8.7821933"><ele>497.99999999999994</ele><time>2026-04-21T09:47:07.666Z</time></trkpt><trkpt lat="44.6329433" lon="8.78211"><ele>497.99999999999994</ele><time>2026-04-21T09:47:08.665Z</time></trkpt><trkpt lat="44.6328483" lon="8.7820133"><ele>498.0</ele><time>2026-04-21T09:47:09.665Z</time></trkpt><trkpt lat="44.6327433" lon="8.7819017"><ele>498.0</ele><time>2026-04-21T09:47:10.666Z</time></trkpt><trkpt lat="44.6326367" lon="8.781775"><ele>501.5</ele><time>2026-04-21T09:47:11.665Z</time></trkpt><trkpt lat="44.632545" lon="8.7816283"><ele>505.0</ele><time>2026-04-21T09:47:12.666Z</time></trkpt><trkpt lat="44.6324783" lon="8.7814667"><ele>508.5</ele><time>2026-04-21T09:47:13.665Z</time></trkpt><trkpt lat="44.63243" lon="8.781325"><ele>512.0</ele><time>2026-04-21T09:47:14.665Z</time></trkpt><trkpt lat="44.6323867" lon="8.7812183"><ele>511.99999999999994</ele><time>2026-04-21T09:47:15.665Z</time></trkpt><trkpt lat="44.63234" lon="8.7811417"><ele>512.0</ele><time>2026-04-21T09:47:16.665Z</time></trkpt><trkpt lat="44.6322783" lon="8.7811117"><ele>512.0</ele><time>2026-04-21T09:47:17.665Z</time></trkpt><trkpt lat="44.6321983" lon="8.78112"><ele>512.0</ele><time>2026-04-21T09:47:18.666Z</time></trkpt><trkpt lat="44.6321033" lon="8.7811667"><ele>511.99999999999994</ele><time>2026-04-21T09:47:19.666Z</time></trkpt><trkpt lat="44.6320083" lon="8.781245"><ele>512.0</ele><time>2026-04-21T09:47:20.666Z</time></trkpt><trkpt lat="44.631905" lon="8.7813383"><ele>516.0</ele><time>2026-04-21T09:47:21.665Z</time></trkpt><trkpt lat="44.631795" lon="8.78142"><ele>520.0</ele><time>2026-04-21T09:47:22.665Z</time></trkpt><trkpt lat="44.6316867" lon="8.781495"><ele>524.0</ele><time>2026-04-21T09:47:23.666Z</time></trkpt><trkpt lat="44.6315833" lon="8.7815567"><ele>528.0</ele><time>2026-04-21T09:47:24.666Z</time></trkpt><trkpt lat="44.6314767" lon="8.78158"><ele>528.0</ele><time>2026-04-21T09:47:25.665Z</time></trkpt><trkpt lat="44.6313733" lon="8.7815733"><ele>528.0</ele><time>2026-04-21T09:47:26.665Z</time></trkpt><trkpt lat="44.6312633" lon="8.7815383"><ele>528.0</ele><time>2026-04-21T09:47:27.666Z</time></trkpt><trkpt lat="44.63115" lon="8.7814717"><ele>528.0</ele><time>2026-04-21T09:47:28.665Z</time></trkpt><trkpt lat="44.6310533" lon="8.7813867"><ele>529.8</ele><time>2026-04-21T09:47:29.665Z</time></trkpt><trkpt lat="44.630975" lon="8.781325"><ele>531.5999999999999</ele><time>2026-04-21T09:47:30.666Z</time></trkpt><trkpt lat="44.630915" lon="8.78129"><ele>533.4000000000001</ele><time>2026-04-21T09:47:31.665Z</time></trkpt><trkpt lat="44.630815" lon="8.7812867"><ele>535.2</ele><time>2026-04-21T09:47:33.665Z</time></trkpt><trkpt lat="44.6306883" lon="8.7813917"><ele>537.0</ele><time>2026-04-21T09:47:35.665Z</time></trkpt><trkpt lat="44.6306217" lon="8.7814717"><ele>537.0</ele><time>2026-04-21T09:47:36.666Z</time></trkpt><trkpt lat="44.6305733" lon="8.7815367"><ele>537.0</ele><time>2026-04-21T09:47:37.665Z</time></trkpt><trkpt lat="44.630535" lon="8.7816867"><ele>537.0</ele><time>2026-04-21T09:47:39.666Z</time></trkpt><trkpt lat="44.630555" lon="8.7817733"><ele>537.0</ele><time>2026-04-21T09:47:40.665Z</time></trkpt><trkpt lat="44.630575" lon="8.7818583"><ele>537.0</ele><time>2026-04-21T09:47:41.666Z</time></trkpt><trkpt lat="44.630665" lon="8.7819533"><ele>537.0</ele><time>2026-04-21T09:47:43.666Z</time></trkpt><trkpt lat="44.6307333" lon="8.78192"><ele>537.0</ele><time>2026-04-21T09:47:44.665Z</time></trkpt><trkpt lat="44.6307983" lon="8.781845"><ele>537.0</ele><time>2026-04-21T09:47:45.666Z</time></trkpt><trkpt lat="44.6308667" lon="8.7817283"><ele>537.0</ele><time>2026-04-21T09:47:46.665Z</time></trkpt><trkpt lat="44.6309317" lon="8.781645"><ele>537.0</ele><time>2026-04-21T09:47:47.665Z</time></trkpt><trkpt lat="44.631" lon="8.7816417"><ele>537.0</ele><time>2026-04-21T09:47:48.665Z</time></trkpt><trkpt lat="44.631135" lon="8.78176"><ele>539.5</ele><time>2026-04-21T09:47:50.666Z</time></trkpt><trkpt lat="44.631215" lon="8.7819017"><ele>542.0</ele><time>2026-04-21T09:47:51.666Z</time></trkpt><trkpt lat="44.6313" lon="8.7820767"><ele>544.5</ele><time>2026-04-21T09:47:52.666Z</time></trkpt><trkpt lat="44.6313733" lon="8.782225"><ele>547.0</ele><time>2026-04-21T09:47:53.666Z</time></trkpt><trkpt lat="44.6314267" lon="8.7823483"><ele>547.0</ele><time>2026-04-21T09:47:54.666Z</time></trkpt><trkpt lat="44.631495" lon="8.7824317"><ele>547.0</ele><time>2026-04-21T09:47:55.665Z</time></trkpt><trkpt lat="44.6315667" lon="8.782475"><ele>547.0</ele><time>2026-04-21T09:47:56.666Z</time></trkpt><trkpt lat="44.6316633" lon="8.782495"><ele>547.0</ele><time>2026-04-21T09:47:57.665Z</time></trkpt><trkpt lat="44.63176" lon="8.7825333"><ele>547.0</ele><time>2026-04-21T09:47:58.666Z</time></trkpt><trkpt lat="44.6318267" lon="8.7826233"><ele>547.75</ele><time>2026-04-21T09:47:59.665Z</time></trkpt><trkpt lat="44.6318767" lon="8.7827617"><ele>548.5</ele><time>2026-04-21T09:48:00.666Z</time></trkpt><trkpt lat="44.6319233" lon="8.78292"><ele>549.25</ele><time>2026-04-21T09:48:01.666Z</time></trkpt><trkpt lat="44.6319633" lon="8.7830733"><ele>550.0</ele><time>2026-04-21T09:48:02.666Z</time></trkpt><trkpt lat="44.6320033" lon="8.7832117"><ele>550.0</ele><time>2026-04-21T09:48:03.666Z</time></trkpt><trkpt lat="44.6320067" lon="8.7833233"><ele>550.0</ele><time>2026-04-21T09:48:04.666Z</time></trkpt><trkpt lat="44.631925" lon="8.78346"><ele>550.0</ele><time>2026-04-21T09:48:06.666Z</time></trkpt><trkpt lat="44.631835" lon="8.7834783"><ele>550.0</ele><time>2026-04-21T09:48:07.666Z</time></trkpt><trkpt lat="44.63172" lon="8.7834583"><ele>550.0</ele><time>2026-04-21T09:48:08.665Z</time></trkpt><trkpt lat="44.6315867" lon="8.7834283"><ele>550.0</ele><time>2026-04-21T09:48:09.666Z</time></trkpt><trkpt lat="44.631455" lon="8.7834117"><ele>550.0</ele><time>2026-04-21T09:48:10.665Z</time></trkpt><trkpt lat="44.6313283" lon="8.783385"><ele>550.0</ele><time>2026-04-21T09:48:11.666Z</time></trkpt><trkpt lat="44.6312017" lon="8.7833233"><ele>550.0</ele><time>2026-04-21T09:48:12.665Z</time></trkpt><trkpt lat="44.631065" lon="8.78326"><ele>551.25</ele><time>2026-04-21T09:48:13.665Z</time></trkpt><trkpt lat="44.6309183" lon="8.78321"><ele>552.5</ele><time>2026-04-21T09:48:14.666Z</time></trkpt><trkpt lat="44.6307733" lon="8.783175"><ele>553.75</ele><time>2026-04-21T09:48:15.666Z</time></trkpt><trkpt lat="44.6306367" lon="8.7831367"><ele>555.0</ele><time>2026-04-21T09:48:16.665Z</time></trkpt><trkpt lat="44.6305067" lon="8.7831"><ele>555.0</ele><time>2026-04-21T09:48:17.665Z</time></trkpt><trkpt lat="44.630385" lon="8.7830433"><ele>555.0</ele><time>2026-04-21T09:48:18.665Z</time></trkpt><trkpt lat="44.6302733" lon="8.782965"><ele>555.0</ele><time>2026-04-21T09:48:19.665Z</time></trkpt><trkpt lat="44.6301667" lon="8.78285"><ele>555.0</ele><time>2026-04-21T09:48:20.666Z</time></trkpt><trkpt lat="44.6300633" lon="8.7827017"><ele>560.0</ele><time>2026-04-21T09:48:21.666Z</time></trkpt><trkpt lat="44.6299717" lon="8.7825383"><ele>565.0</ele><time>2026-04-21T09:48:22.665Z</time></trkpt><trkpt lat="44.62987" lon="8.782365"><ele>570.0</ele><time>2026-04-21T09:48:23.665Z</time></trkpt><trkpt lat="44.6297733" lon="8.7821833"><ele>570.0</ele><time>2026-04-21T09:48:24.666Z</time></trkpt><trkpt lat="44.62967" lon="8.7820133"><ele>570.0</ele><time>2026-04-21T09:48:25.665Z</time></trkpt><trkpt lat="44.629585" lon="8.78186"><ele>570.0</ele><time>2026-04-21T09:48:26.666Z</time></trkpt><trkpt lat="44.6295067" lon="8.7817233"><ele>570.0</ele><time>2026-04-21T09:48:27.665Z</time></trkpt><trkpt lat="44.6294133" lon="8.7816133"><ele>575.5</ele><time>2026-04-21T09:48:28.665Z</time></trkpt><trkpt lat="44.6293167" lon="8.78153"><ele>581.0</ele><time>2026-04-21T09:48:29.666Z</time></trkpt><trkpt lat="44.6292183" lon="8.7814617"><ele>586.5</ele><time>2026-04-21T09:48:30.666Z</time></trkpt><trkpt lat="44.62912" lon="8.7813833"><ele>592.0</ele><time>2026-04-21T09:48:31.665Z</time></trkpt><trkpt lat="44.6290133" lon="8.7813"><ele>592.0</ele><time>2026-04-21T09:48:32.666Z</time></trkpt><trkpt lat="44.6289033" lon="8.7812117"><ele>592.0</ele><time>2026-04-21T09:48:33.665Z</time></trkpt><trkpt lat="44.62881" lon="8.781115"><ele>592.0</ele><time>2026-04-21T09:48:34.665Z</time></trkpt><trkpt lat="44.6287167" lon="8.78101"><ele>592.0</ele><time>2026-04-21T09:48:35.665Z</time></trkpt><trkpt lat="44.628645" lon="8.780905"><ele>597.0</ele><time>2026-04-21T09:48:36.666Z</time></trkpt><trkpt lat="44.6285933" lon="8.78077"><ele>602.0</ele><time>2026-04-21T09:48:37.665Z</time></trkpt><trkpt lat="44.6285617" lon="8.78062"><ele>607.0</ele><time>2026-04-21T09:48:38.665Z</time></trkpt><trkpt lat="44.6285533" lon="8.7804417"><ele>612.0</ele><time>2026-04-21T09:48:39.665Z</time></trkpt><trkpt lat="44.6285617" lon="8.7802717"><ele>610.6</ele><time>2026-04-21T09:48:40.665Z</time></trkpt><trkpt lat="44.6285867" lon="8.780125"><ele>609.2</ele><time>2026-04-21T09:48:41.665Z</time></trkpt><trkpt lat="44.6286083" lon="8.7799833"><ele>607.8</ele><time>2026-04-21T09:48:42.666Z</time></trkpt><trkpt lat="44.6286133" lon="8.77986"><ele>606.4</ele><time>2026-04-21T09:48:43.666Z</time></trkpt><trkpt lat="44.6286017" lon="8.7797383"><ele>605.0</ele><time>2026-04-21T09:48:44.665Z</time></trkpt><trkpt lat="44.6285717" lon="8.7796333"><ele>605.0</ele><time>2026-04-21T09:48:45.666Z</time></trkpt><trkpt lat="44.628475" lon="8.7795317"><ele>605.0</ele><time>2026-04-21T09:48:47.665Z</time></trkpt><trkpt lat="44.6283967" lon="8.7795483"><ele>605.0</ele><time>2026-04-21T09:48:48.666Z</time></trkpt><trkpt lat="44.6283017" lon="8.779605"><ele>605.0</ele><time>2026-04-21T09:48:49.666Z</time></trkpt><trkpt lat="44.6281967" lon="8.779685"><ele>605.0</ele><time>2026-04-21T09:48:50.666Z</time></trkpt><trkpt lat="44.6280883" lon="8.7797567"><ele>605.0</ele><time>2026-04-21T09:48:51.666Z</time></trkpt><trkpt lat="44.6280033" lon="8.7797933"><ele>605.0</ele><time>2026-04-21T09:48:52.666Z</time></trkpt><trkpt lat="44.6279" lon="8.7798017"><ele>605.0</ele><time>2026-04-21T09:48:53.665Z</time></trkpt><trkpt lat="44.62779" lon="8.779785"><ele>605.0</ele><time>2026-04-21T09:48:54.666Z</time></trkpt><trkpt lat="44.627675" lon="8.7797367"><ele>605.0</ele><time>2026-04-21T09:48:55.665Z</time></trkpt><trkpt lat="44.627565" lon="8.7796683"><ele>604.5</ele><time>2026-04-21T09:48:56.665Z</time></trkpt><trkpt lat="44.6274533" lon="8.7795833"><ele>604.0</ele><time>2026-04-21T09:48:57.665Z</time></trkpt><trkpt lat="44.6273433" lon="8.7794983"><ele>603.5</ele><time>2026-04-21T09:48:58.666Z</time></trkpt><trkpt lat="44.6272483" lon="8.7794033"><ele>603.0</ele><time>2026-04-21T09:48:59.665Z</time></trkpt><trkpt lat="44.6271567" lon="8.77928"><ele>603.0</ele><time>2026-04-21T09:49:00.666Z</time></trkpt><trkpt lat="44.627075" lon="8.7791317"><ele>603.0</ele><time>2026-04-21T09:49:01.666Z</time></trkpt><trkpt lat="44.62701" lon="8.778975"><ele>603.0</ele><time>2026-04-21T09:49:02.666Z</time></trkpt><trkpt lat="44.6269367" lon="8.7787933"><ele>603.0</ele><time>2026-04-21T09:49:03.665Z</time></trkpt><trkpt lat="44.6268733" lon="8.7785917"><ele>609.0</ele><time>2026-04-21T09:49:04.666Z</time></trkpt><trkpt lat="44.6268183" lon="8.7783833"><ele>615.0</ele><time>2026-04-21T09:49:05.666Z</time></trkpt><trkpt lat="44.62678" lon="8.778185"><ele>621.0</ele><time>2026-04-21T09:49:06.665Z</time></trkpt><trkpt lat="44.6267583" lon="8.7779967"><ele>627.0</ele><time>2026-04-21T09:49:07.665Z</time></trkpt><trkpt lat="44.6267617" lon="8.77782"><ele>625.4</ele><time>2026-04-21T09:49:08.665Z</time></trkpt><trkpt lat="44.6267883" lon="8.7776617"><ele>623.8000000000001</ele><time>2026-04-21T09:49:09.665Z</time></trkpt><trkpt lat="44.6268033" lon="8.7775217"><ele>622.2</ele><time>2026-04-21T09:49:10.665Z</time></trkpt><trkpt lat="44.6268317" lon="8.7774017"><ele>620.6</ele><time>2026-04-21T09:49:11.666Z</time></trkpt><trkpt lat="44.626835" lon="8.7773117"><ele>619.0</ele><time>2026-04-21T09:49:12.665Z</time></trkpt><trkpt lat="44.626785" lon="8.7771967"><ele>619.0</ele><time>2026-04-21T09:49:14.666Z</time></trkpt><trkpt lat="44.6266717" lon="8.7772"><ele>619.0</ele><time>2026-04-21T09:49:16.665Z</time></trkpt><trkpt lat="44.6266083" lon="8.7772483"><ele>619.0</ele><time>2026-04-21T09:49:17.666Z</time></trkpt><trkpt lat="44.6265367" lon="8.77734"><ele>619.0</ele><time>2026-04-21T09:49:18.665Z</time></trkpt><trkpt lat="44.6264533" lon="8.7774467"><ele>619.0</ele><time>2026-04-21T09:49:19.665Z</time></trkpt><trkpt lat="44.6263683" lon="8.7775583"><ele>619.0</ele><time>2026-04-21T09:49:20.665Z</time></trkpt><trkpt lat="44.6262683" lon="8.77768"><ele>619.0</ele><time>2026-04-21T09:49:21.665Z</time></trkpt><trkpt lat="44.62616" lon="8.7777967"><ele>619.0</ele><time>2026-04-21T09:49:22.666Z</time></trkpt><trkpt lat="44.6260383" lon="8.777905"><ele>619.0</ele><time>2026-04-21T09:49:23.666Z</time></trkpt><trkpt lat="44.6259133" lon="8.7780083"><ele>623.5</ele><time>2026-04-21T09:49:24.666Z</time></trkpt><trkpt lat="44.6258017" lon="8.7781067"><ele>628.0</ele><time>2026-04-21T09:49:25.666Z</time></trkpt><trkpt lat="44.6256867" lon="8.7781733"><ele>632.5</ele><time>2026-04-21T09:49:26.666Z</time></trkpt><trkpt lat="44.62557" lon="8.7782417"><ele>637.0</ele><time>2026-04-21T09:49:27.665Z</time></trkpt><trkpt lat="44.625475" lon="8.7783117"><ele>637.0</ele><time>2026-04-21T09:49:28.666Z</time></trkpt><trkpt lat="44.6254083" lon="8.7783983"><ele>637.0</ele><time>2026-04-21T09:49:29.666Z</time></trkpt><trkpt lat="44.6253833" lon="8.7785033"><ele>637.0</ele><time>2026-04-21T09:49:30.666Z</time></trkpt><trkpt lat="44.6253733" lon="8.778625"><ele>637.0</ele><time>2026-04-21T09:49:31.666Z</time></trkpt><trkpt lat="44.6253867" lon="8.7787583"><ele>637.0</ele><time>2026-04-21T09:49:32.665Z</time></trkpt><trkpt lat="44.6254217" lon="8.7789017"><ele>639.75</ele><time>2026-04-21T09:49:33.665Z</time></trkpt><trkpt lat="44.62544" lon="8.7790767"><ele>642.5</ele><time>2026-04-21T09:49:34.665Z</time></trkpt><trkpt lat="44.6254367" lon="8.77925"><ele>645.25</ele><time>2026-04-21T09:49:35.665Z</time></trkpt><trkpt lat="44.62541" lon="8.77941"><ele>648.0</ele><time>2026-04-21T09:49:36.665Z</time></trkpt><trkpt lat="44.6253667" lon="8.779575"><ele>648.0</ele><time>2026-04-21T09:49:37.666Z</time></trkpt><trkpt lat="44.6253167" lon="8.7797167"><ele>648.0</ele><time>2026-04-21T09:49:38.665Z</time></trkpt><trkpt lat="44.625285" lon="8.7798517"><ele>648.0</ele><time>2026-04-21T09:49:39.666Z</time></trkpt><trkpt lat="44.6252783" lon="8.77996"><ele>648.0</ele><time>2026-04-21T09:49:40.666Z</time></trkpt><trkpt lat="44.6252917" lon="8.78005"><ele>648.0</ele><time>2026-04-21T09:49:41.666Z</time></trkpt><trkpt lat="44.62534" lon="8.780145"><ele>648.0</ele><time>2026-04-21T09:49:42.665Z</time></trkpt><trkpt lat="44.6254233" lon="8.780225"><ele>648.0</ele><time>2026-04-21T09:49:43.665Z</time></trkpt><trkpt lat="44.6255217" lon="8.7803067"><ele>648.0</ele><time>2026-04-21T09:49:44.666Z</time></trkpt><trkpt lat="44.6256167" lon="8.7804083"><ele>648.0</ele><time>2026-04-21T09:49:45.666Z</time></trkpt><trkpt lat="44.6257117" lon="8.7805333"><ele>648.0</ele><time>2026-04-21T09:49:46.665Z</time></trkpt><trkpt lat="44.6257733" lon="8.7806883"><ele>648.0</ele><time>2026-04-21T09:49:47.666Z</time></trkpt><trkpt lat="44.6258317" lon="8.7808583"><ele>648.0</ele><time>2026-04-21T09:49:48.665Z</time></trkpt><trkpt lat="44.6258733" lon="8.781025"><ele>648.0</ele><time>2026-04-21T09:49:49.666Z</time></trkpt><trkpt lat="44.62589" lon="8.781205"><ele>648.0</ele><time>2026-04-21T09:49:50.666Z</time></trkpt><trkpt lat="44.6258983" lon="8.7813983"><ele>648.3333333333334</ele><time>2026-04-21T09:49:51.666Z</time></trkpt><trkpt lat="44.6258917" lon="8.78161"><ele>648.6666666666667</ele><time>2026-04-21T09:49:52.665Z</time></trkpt><trkpt lat="44.6258883" lon="8.7818167"><ele>649.0</ele><time>2026-04-21T09:49:53.665Z</time></trkpt><trkpt lat="44.6258817" lon="8.78204"><ele>649.3333333333334</ele><time>2026-04-21T09:49:54.666Z</time></trkpt><trkpt lat="44.6258683" lon="8.7822783"><ele>649.6666666666666</ele><time>2026-04-21T09:49:55.665Z</time></trkpt><trkpt lat="44.625845" lon="8.7825117"><ele>650.0</ele><time>2026-04-21T09:49:56.665Z</time></trkpt><trkpt lat="44.625825" lon="8.7827517"><ele>651.0</ele><time>2026-04-21T09:49:57.665Z</time></trkpt><trkpt lat="44.625815" lon="8.7830067"><ele>652.0</ele><time>2026-04-21T09:49:58.666Z</time></trkpt><trkpt lat="44.625805" lon="8.7832583"><ele>653.0</ele><time>2026-04-21T09:49:59.666Z</time></trkpt><trkpt lat="44.6257883" lon="8.783495"><ele>653.3333333333333</ele><time>2026-04-21T09:50:00.666Z</time></trkpt><trkpt lat="44.62577" lon="8.783715"><ele>653.6666666666666</ele><time>2026-04-21T09:50:01.666Z</time></trkpt><trkpt lat="44.6257433" lon="8.783935"><ele>654.0</ele><time>2026-04-21T09:50:02.666Z</time></trkpt><trkpt lat="44.6257" lon="8.78416"><ele>654.3333333333334</ele><time>2026-04-21T09:50:03.666Z</time></trkpt><trkpt lat="44.62566" lon="8.78438"><ele>654.6666666666667</ele><time>2026-04-21T09:50:04.666Z</time></trkpt><trkpt lat="44.62562" lon="8.784595"><ele>655.0</ele><time>2026-04-21T09:50:05.666Z</time></trkpt><trkpt lat="44.625575" lon="8.784815"><ele>655.0</ele><time>2026-04-21T09:50:06.665Z</time></trkpt><trkpt lat="44.6255117" lon="8.785045"><ele>655.0</ele><time>2026-04-21T09:50:07.666Z</time></trkpt><trkpt lat="44.625435" lon="8.7852583"><ele>655.0</ele><time>2026-04-21T09:50:08.665Z</time></trkpt><trkpt lat="44.6253417" lon="8.7854717"><ele>659.6666666666667</ele><time>2026-04-21T09:50:09.666Z</time></trkpt><trkpt lat="44.62525" lon="8.7856767"><ele>664.3333333333334</ele><time>2026-04-21T09:50:10.665Z</time></trkpt><trkpt lat="44.6251533" lon="8.7858517"><ele>669.0</ele><time>2026-04-21T09:50:11.665Z</time></trkpt><trkpt lat="44.6250583" lon="8.786"><ele>670.6</ele><time>2026-04-21T09:50:12.665Z</time></trkpt><trkpt lat="44.6249683" lon="8.7861133"><ele>672.2</ele><time>2026-04-21T09:50:13.666Z</time></trkpt><trkpt lat="44.62487" lon="8.7861767"><ele>673.8000000000001</ele><time>2026-04-21T09:50:14.665Z</time></trkpt><trkpt lat="44.62477" lon="8.7861933"><ele>675.4000000000001</ele><time>2026-04-21T09:50:15.666Z</time></trkpt><trkpt lat="44.6246733" lon="8.78615"><ele>677.0</ele><time>2026-04-21T09:50:16.666Z</time></trkpt><trkpt lat="44.6245883" lon="8.7860983"><ele>677.0</ele><time>2026-04-21T09:50:17.665Z</time></trkpt><trkpt lat="44.6245167" lon="8.786075"><ele>677.0</ele><time>2026-04-21T09:50:18.666Z</time></trkpt><trkpt lat="44.6244517" lon="8.78609"><ele>677.0</ele><time>2026-04-21T09:50:19.665Z</time></trkpt><trkpt lat="44.6243567" lon="8.7861933"><ele>677.0</ele><time>2026-04-21T09:50:21.665Z</time></trkpt><trkpt lat="44.6243383" lon="8.7863117"><ele>677.0</ele><time>2026-04-21T09:50:22.666Z</time></trkpt><trkpt lat="44.6243183" lon="8.7864683"><ele>678.0</ele><time>2026-04-21T09:50:23.666Z</time></trkpt><trkpt lat="44.6243117" lon="8.7866667"><ele>679.0</ele><time>2026-04-21T09:50:24.665Z</time></trkpt><trkpt lat="44.6243233" lon="8.78691"><ele>680.0</ele><time>2026-04-21T09:50:25.666Z</time></trkpt><trkpt lat="44.6243283" lon="8.787155"><ele>680.0</ele><time>2026-04-21T09:50:26.666Z</time></trkpt><trkpt lat="44.6243167" lon="8.7873783"><ele>680.0</ele><time>2026-04-21T09:50:27.666Z</time></trkpt><trkpt lat="44.6242783" lon="8.7876033"><ele>680.0</ele><time>2026-04-21T09:50:28.666Z</time></trkpt><trkpt lat="44.6242417" lon="8.7878083"><ele>683.25</ele><time>2026-04-21T09:50:29.665Z</time></trkpt><trkpt lat="44.624195" lon="8.7879883"><ele>686.5</ele><time>2026-04-21T09:50:30.666Z</time></trkpt><trkpt lat="44.6241283" lon="8.788145"><ele>689.75</ele><time>2026-04-21T09:50:31.665Z</time></trkpt><trkpt lat="44.62405" lon="8.7882783"><ele>693.0</ele><time>2026-04-21T09:50:32.665Z</time></trkpt><trkpt lat="44.62398" lon="8.7883967"><ele>696.25</ele><time>2026-04-21T09:50:33.666Z</time></trkpt><trkpt lat="44.623935" lon="8.788535"><ele>699.5</ele><time>2026-04-21T09:50:34.665Z</time></trkpt><trkpt lat="44.6239133" lon="8.7887083"><ele>702.75</ele><time>2026-04-21T09:50:35.666Z</time></trkpt><trkpt lat="44.623915" lon="8.7889"><ele>706.0</ele><time>2026-04-21T09:50:36.665Z</time></trkpt><trkpt lat="44.623905" lon="8.7890983"><ele>706.0</ele><time>2026-04-21T09:50:37.665Z</time></trkpt><trkpt lat="44.6238717" lon="8.7893"><ele>706.0</ele><time>2026-04-21T09:50:38.665Z</time></trkpt><trkpt lat="44.6238067" lon="8.7895067"><ele>706.0</ele><time>2026-04-21T09:50:39.665Z</time></trkpt><trkpt lat="44.62373" lon="8.78968"><ele>704.3333333333334</ele><time>2026-04-21T09:50:40.665Z</time></trkpt><trkpt lat="44.62363" lon="8.7898383"><ele>702.6666666666666</ele><time>2026-04-21T09:50:41.666Z</time></trkpt><trkpt lat="44.62351" lon="8.7899783"><ele>701.0</ele><time>2026-04-21T09:50:42.666Z</time></trkpt><trkpt lat="44.623375" lon="8.7901017"><ele>700.3333333333333</ele><time>2026-04-21T09:50:43.665Z</time></trkpt><trkpt lat="44.6232217" lon="8.7902167"><ele>699.6666666666666</ele><time>2026-04-21T09:50:44.665Z</time></trkpt><trkpt lat="44.6230667" lon="8.790335"><ele>699.0</ele><time>2026-04-21T09:50:45.665Z</time></trkpt><trkpt lat="44.6229083" lon="8.7904417"><ele>700.6666666666666</ele><time>2026-04-21T09:50:46.665Z</time></trkpt><trkpt lat="44.6227467" lon="8.7905417"><ele>702.3333333333333</ele><time>2026-04-21T09:50:47.666Z</time></trkpt><trkpt lat="44.6225817" lon="8.7906183"><ele>704.0</ele><time>2026-04-21T09:50:48.666Z</time></trkpt><trkpt lat="44.62241" lon="8.7906717"><ele>704.0</ele><time>2026-04-21T09:50:49.666Z</time></trkpt><trkpt lat="44.6222217" lon="8.79072"><ele>704.0</ele><time>2026-04-21T09:50:50.665Z</time></trkpt><trkpt lat="44.6220333" lon="8.7907733"><ele>704.0</ele><time>2026-04-21T09:50:51.666Z</time></trkpt><trkpt lat="44.6218583" lon="8.790815"><ele>707.6666666666666</ele><time>2026-04-21T09:50:52.666Z</time></trkpt><trkpt lat="44.621695" lon="8.79085"><ele>711.3333333333334</ele><time>2026-04-21T09:50:53.665Z</time></trkpt><trkpt lat="44.62154" lon="8.7909083"><ele>715.0</ele><time>2026-04-21T09:50:54.666Z</time></trkpt><trkpt lat="44.6213917" lon="8.7909767"><ele>713.5</ele><time>2026-04-21T09:50:55.666Z</time></trkpt><trkpt lat="44.6212517" lon="8.7910283"><ele>712.0</ele><time>2026-04-21T09:50:56.666Z</time></trkpt><trkpt lat="44.621115" lon="8.791085"><ele>710.5</ele><time>2026-04-21T09:50:57.665Z</time></trkpt><trkpt lat="44.62099" lon="8.79113"><ele>709.0</ele><time>2026-04-21T09:50:58.666Z</time></trkpt><trkpt lat="44.6208583" lon="8.791165"><ele>711.75</ele><time>2026-04-21T09:50:59.665Z</time></trkpt><trkpt lat="44.6207267" lon="8.79116"><ele>714.5</ele><time>2026-04-21T09:51:00.665Z</time></trkpt><trkpt lat="44.6205933" lon="8.7911183"><ele>717.25</ele><time>2026-04-21T09:51:01.666Z</time></trkpt><trkpt lat="44.6204633" lon="8.7910533"><ele>720.0</ele><time>2026-04-21T09:51:02.666Z</time></trkpt><trkpt lat="44.62034" lon="8.7909617"><ele>725.0</ele><time>2026-04-21T09:51:03.665Z</time></trkpt><trkpt lat="44.6202017" lon="8.7908683"><ele>730.0</ele><time>2026-04-21T09:51:04.665Z</time></trkpt><trkpt lat="44.6200567" lon="8.7907867"><ele>735.0</ele><time>2026-04-21T09:51:05.666Z</time></trkpt><trkpt lat="44.6199117" lon="8.790695"><ele>735.0</ele><time>2026-04-21T09:51:06.666Z</time></trkpt><trkpt lat="44.61978" lon="8.7906017"><ele>735.0</ele><time>2026-04-21T09:51:07.665Z</time></trkpt><trkpt lat="44.6196683" lon="8.7904983"><ele>735.0</ele><time>2026-04-21T09:51:08.666Z</time></trkpt><trkpt lat="44.6195667" lon="8.790405"><ele>735.0</ele><time>2026-04-21T09:51:09.665Z</time></trkpt><trkpt lat="44.6194733" lon="8.79034"><ele>735.6</ele><time>2026-04-21T09:51:10.665Z</time></trkpt><trkpt lat="44.6193917" lon="8.7903183"><ele>736.2</ele><time>2026-04-21T09:51:11.666Z</time></trkpt><trkpt lat="44.6193067" lon="8.7903333"><ele>736.8</ele><time>2026-04-21T09:51:12.665Z</time></trkpt><trkpt lat="44.6192233" lon="8.7903967"><ele>737.4</ele><time>2026-04-21T09:51:13.665Z</time></trkpt><trkpt lat="44.6191267" lon="8.790495"><ele>738.0</ele><time>2026-04-21T09:51:14.666Z</time></trkpt><trkpt lat="44.6190233" lon="8.7906067"><ele>738.0</ele><time>2026-04-21T09:51:15.665Z</time></trkpt><trkpt lat="44.6189167" lon="8.7907233"><ele>738.0</ele><time>2026-04-21T09:51:16.665Z</time></trkpt><trkpt lat="44.6188183" lon="8.7908467"><ele>738.0</ele><time>2026-04-21T09:51:17.666Z</time></trkpt><trkpt lat="44.6187267" lon="8.7909617"><ele>738.0</ele><time>2026-04-21T09:51:18.666Z</time></trkpt><trkpt lat="44.618655" lon="8.7910933"><ele>738.75</ele><time>2026-04-21T09:51:19.666Z</time></trkpt><trkpt lat="44.6186033" lon="8.79125"><ele>739.5</ele><time>2026-04-21T09:51:20.666Z</time></trkpt><trkpt lat="44.6185717" lon="8.7914283"><ele>740.25</ele><time>2026-04-21T09:51:21.666Z</time></trkpt><trkpt lat="44.618525" lon="8.7916383"><ele>741.0</ele><time>2026-04-21T09:51:22.665Z</time></trkpt><trkpt lat="44.6184617" lon="8.7918533"><ele>741.0</ele><time>2026-04-21T09:51:23.665Z</time></trkpt><trkpt lat="44.6184017" lon="8.7920567"><ele>741.0</ele><time>2026-04-21T09:51:24.665Z</time></trkpt><trkpt lat="44.61835" lon="8.7922367"><ele>741.0</ele><time>2026-04-21T09:51:25.666Z</time></trkpt><trkpt lat="44.6182983" lon="8.7923967"><ele>741.0</ele><time>2026-04-21T09:51:26.665Z</time></trkpt><trkpt lat="44.6182283" lon="8.7925367"><ele>741.0</ele><time>2026-04-21T09:51:27.665Z</time></trkpt><trkpt lat="44.6181317" lon="8.79265"><ele>741.0</ele><time>2026-04-21T09:51:28.665Z</time></trkpt><trkpt lat="44.6180217" lon="8.7927567"><ele>741.0</ele><time>2026-04-21T09:51:29.665Z</time></trkpt><trkpt lat="44.617905" lon="8.7928333"><ele>741.0</ele><time>2026-04-21T09:51:30.666Z</time></trkpt><trkpt lat="44.617795" lon="8.792865"><ele>740.5999999999999</ele><time>2026-04-21T09:51:31.666Z</time></trkpt><trkpt lat="44.617685" lon="8.7928683"><ele>740.2</ele><time>2026-04-21T09:51:32.665Z</time></trkpt><trkpt lat="44.617575" lon="8.79289"><ele>739.8</ele><time>2026-04-21T09:51:33.666Z</time></trkpt><trkpt lat="44.6174667" lon="8.7929317"><ele>739.4000000000001</ele><time>2026-04-21T09:51:34.665Z</time></trkpt><trkpt lat="44.6173667" lon="8.793005"><ele>739.0</ele><time>2026-04-21T09:51:35.666Z</time></trkpt><trkpt lat="44.6172783" lon="8.793115"><ele>739.0</ele><time>2026-04-21T09:51:36.665Z</time></trkpt><trkpt lat="44.6172" lon="8.793235"><ele>739.0</ele><time>2026-04-21T09:51:37.665Z</time></trkpt><trkpt lat="44.6171133" lon="8.7933617"><ele>739.0</ele><time>2026-04-21T09:51:38.666Z</time></trkpt><trkpt lat="44.617005" lon="8.79347"><ele>739.0</ele><time>2026-04-21T09:51:39.666Z</time></trkpt><trkpt lat="44.6168917" lon="8.79355"><ele>738.5</ele><time>2026-04-21T09:51:40.665Z</time></trkpt><trkpt lat="44.6167817" lon="8.7936317"><ele>738.0</ele><time>2026-04-21T09:51:41.665Z</time></trkpt><trkpt lat="44.616675" lon="8.7937133"><ele>737.5</ele><time>2026-04-21T09:51:42.665Z</time></trkpt><trkpt lat="44.6165733" lon="8.7938"><ele>737.0</ele><time>2026-04-21T09:51:43.666Z</time></trkpt><trkpt lat="44.6164783" lon="8.7939"><ele>737.0</ele><time>2026-04-21T09:51:44.665Z</time></trkpt><trkpt lat="44.61637" lon="8.7939667"><ele>737.0</ele><time>2026-04-21T09:51:45.666Z</time></trkpt><trkpt lat="44.6162617" lon="8.7940083"><ele>737.0</ele><time>2026-04-21T09:51:46.666Z</time></trkpt><trkpt lat="44.616145" lon="8.79402"><ele>737.0</ele><time>2026-04-21T09:51:47.666Z</time></trkpt><trkpt lat="44.6160183" lon="8.7940183"><ele>734.0</ele><time>2026-04-21T09:51:48.666Z</time></trkpt><trkpt lat="44.6158883" lon="8.794005"><ele>731.0</ele><time>2026-04-21T09:51:49.666Z</time></trkpt><trkpt lat="44.615745" lon="8.7940017"><ele>728.0</ele><time>2026-04-21T09:51:50.665Z</time></trkpt><trkpt lat="44.615605" lon="8.7939867"><ele>725.0</ele><time>2026-04-21T09:51:51.666Z</time></trkpt><trkpt lat="44.6154683" lon="8.7939767"><ele>725.0</ele><time>2026-04-21T09:51:52.666Z</time></trkpt><trkpt lat="44.6153333" lon="8.793965"><ele>725.0</ele><time>2026-04-21T09:51:53.666Z</time></trkpt><trkpt lat="44.6152067" lon="8.793965"><ele>725.0</ele><time>2026-04-21T09:51:54.665Z</time></trkpt><trkpt lat="44.61509" lon="8.793975"><ele>725.0</ele><time>2026-04-21T09:51:55.666Z</time></trkpt><trkpt lat="44.61498" lon="8.7939983"><ele>723.6</ele><time>2026-04-21T09:51:56.665Z</time></trkpt><trkpt lat="44.6148833" lon="8.794035"><ele>722.2</ele><time>2026-04-21T09:51:57.666Z</time></trkpt><trkpt lat="44.614795" lon="8.7941067"><ele>720.8</ele><time>2026-04-21T09:51:58.665Z</time></trkpt><trkpt lat="44.6147317" lon="8.7941967"><ele>719.4</ele><time>2026-04-21T09:51:59.665Z</time></trkpt><trkpt lat="44.6146833" lon="8.79433"><ele>718.0</ele><time>2026-04-21T09:52:00.666Z</time></trkpt><trkpt lat="44.61465" lon="8.7944867"><ele>724.0</ele><time>2026-04-21T09:52:01.665Z</time></trkpt><trkpt lat="44.614615" lon="8.7946717"><ele>730.0</ele><time>2026-04-21T09:52:02.666Z</time></trkpt><trkpt lat="44.6145717" lon="8.7948917"><ele>736.0</ele><time>2026-04-21T09:52:03.665Z</time></trkpt><trkpt lat="44.6145117" lon="8.795135"><ele>726.6666666666667</ele><time>2026-04-21T09:52:04.666Z</time></trkpt><trkpt lat="44.6144433" lon="8.7953667"><ele>717.3333333333334</ele><time>2026-04-21T09:52:05.666Z</time></trkpt><trkpt lat="44.6143717" lon="8.7955817"><ele>708.0</ele><time>2026-04-21T09:52:06.666Z</time></trkpt><trkpt lat="44.614305" lon="8.7957617"><ele>708.0</ele><time>2026-04-21T09:52:07.666Z</time></trkpt><trkpt lat="44.614235" lon="8.795915"><ele>708.0</ele><time>2026-04-21T09:52:08.665Z</time></trkpt><trkpt lat="44.6141867" lon="8.7960867"><ele>708.0</ele><time>2026-04-21T09:52:09.665Z</time></trkpt><trkpt lat="44.61415" lon="8.796275"><ele>708.0</ele><time>2026-04-21T09:52:10.665Z</time></trkpt><trkpt lat="44.6141117" lon="8.7964567"><ele>710.5999999999999</ele><time>2026-04-21T09:52:11.666Z</time></trkpt><trkpt lat="44.614075" lon="8.7966167"><ele>713.1999999999999</ele><time>2026-04-21T09:52:12.665Z</time></trkpt><trkpt lat="44.614025" lon="8.7967417"><ele>715.8</ele><time>2026-04-21T09:52:13.666Z</time></trkpt><trkpt lat="44.61398" lon="8.7968467"><ele>718.4</ele><time>2026-04-21T09:52:14.665Z</time></trkpt><trkpt lat="44.61395" lon="8.796965"><ele>721.0</ele><time>2026-04-21T09:52:15.666Z</time></trkpt><trkpt lat="44.6139483" lon="8.7971033"><ele>720.5</ele><time>2026-04-21T09:52:16.666Z</time></trkpt><trkpt lat="44.6139617" lon="8.7972633"><ele>720.0</ele><time>2026-04-21T09:52:17.666Z</time></trkpt><trkpt lat="44.6139767" lon="8.7974517"><ele>719.5</ele><time>2026-04-21T09:52:18.665Z</time></trkpt><trkpt lat="44.6139933" lon="8.7976533"><ele>719.0</ele><time>2026-04-21T09:52:19.665Z</time></trkpt><trkpt lat="44.6140083" lon="8.7978433"><ele>719.0</ele><time>2026-04-21T09:52:20.666Z</time></trkpt><trkpt lat="44.6139983" lon="8.798035"><ele>719.0</ele><time>2026-04-21T09:52:21.665Z</time></trkpt><trkpt lat="44.6139917" lon="8.79823"><ele>719.0</ele><time>2026-04-21T09:52:22.665Z</time></trkpt><trkpt lat="44.6139867" lon="8.7984383"><ele>719.0</ele><time>2026-04-21T09:52:23.665Z</time></trkpt><trkpt lat="44.613985" lon="8.798635"><ele>717.0</ele><time>2026-04-21T09:52:24.665Z</time></trkpt><trkpt lat="44.6139717" lon="8.798805"><ele>715.0</ele><time>2026-04-21T09:52:25.665Z</time></trkpt><trkpt lat="44.61394" lon="8.7989467"><ele>713.0</ele><time>2026-04-21T09:52:26.665Z</time></trkpt><trkpt lat="44.6138833" lon="8.7990733"><ele>711.0</ele><time>2026-04-21T09:52:27.665Z</time></trkpt><trkpt lat="44.6138133" lon="8.79917"><ele>709.0</ele><time>2026-04-21T09:52:28.666Z</time></trkpt><trkpt lat="44.6137217" lon="8.79924"><ele>705.5</ele><time>2026-04-21T09:52:29.666Z</time></trkpt><trkpt lat="44.6136117" lon="8.7992767"><ele>702.0</ele><time>2026-04-21T09:52:30.665Z</time></trkpt><trkpt lat="44.6134717" lon="8.7992733"><ele>698.5</ele><time>2026-04-21T09:52:31.666Z</time></trkpt><trkpt lat="44.61331" lon="8.7992533"><ele>695.0</ele><time>2026-04-21T09:52:32.665Z</time></trkpt><trkpt lat="44.61315" lon="8.799225"><ele>695.0</ele><time>2026-04-21T09:52:33.665Z</time></trkpt><trkpt lat="44.6129967" lon="8.799205"><ele>695.0</ele><time>2026-04-21T09:52:34.665Z</time></trkpt><trkpt lat="44.6128433" lon="8.7991817"><ele>695.0</ele><time>2026-04-21T09:52:35.666Z</time></trkpt><trkpt lat="44.6126983" lon="8.79919"><ele>694.5</ele><time>2026-04-21T09:52:36.665Z</time></trkpt><trkpt lat="44.6125533" lon="8.7992133"><ele>694.0</ele><time>2026-04-21T09:52:37.665Z</time></trkpt><trkpt lat="44.6124117" lon="8.7992317"><ele>693.5</ele><time>2026-04-21T09:52:38.665Z</time></trkpt><trkpt lat="44.6122783" lon="8.7992533"><ele>693.0</ele><time>2026-04-21T09:52:39.666Z</time></trkpt><trkpt lat="44.6121383" lon="8.799305"><ele>689.25</ele><time>2026-04-21T09:52:40.665Z</time></trkpt><trkpt lat="44.612005" lon="8.7993633"><ele>685.5</ele><time>2026-04-21T09:52:41.665Z</time></trkpt><trkpt lat="44.6118733" lon="8.79945"><ele>681.75</ele><time>2026-04-21T09:52:42.666Z</time></trkpt><trkpt lat="44.6117467" lon="8.799555"><ele>678.0</ele><time>2026-04-21T09:52:43.665Z</time></trkpt><trkpt lat="44.611625" lon="8.7996717"><ele>678.0</ele><time>2026-04-21T09:52:44.665Z</time></trkpt><trkpt lat="44.611515" lon="8.7997967"><ele>678.0</ele><time>2026-04-21T09:52:45.666Z</time></trkpt><trkpt lat="44.6114183" lon="8.79993"><ele>678.0</ele><time>2026-04-21T09:52:46.665Z</time></trkpt><trkpt lat="44.6113417" lon="8.8000667"><ele>678.0</ele><time>2026-04-21T09:52:47.665Z</time></trkpt><trkpt lat="44.61126" lon="8.8002183"><ele>676.25</ele><time>2026-04-21T09:52:48.665Z</time></trkpt><trkpt lat="44.6111683" lon="8.8003633"><ele>674.5</ele><time>2026-04-21T09:52:49.666Z</time></trkpt><trkpt lat="44.61107" lon="8.800465"><ele>672.75</ele><time>2026-04-21T09:52:50.665Z</time></trkpt><trkpt lat="44.6109633" lon="8.800525"><ele>671.0</ele><time>2026-04-21T09:52:51.666Z</time></trkpt><trkpt lat="44.6108433" lon="8.80054"><ele>676.5</ele><time>2026-04-21T09:52:52.666Z</time></trkpt><trkpt lat="44.6107067" lon="8.8005217"><ele>682.0</ele><time>2026-04-21T09:52:53.666Z</time></trkpt><trkpt lat="44.610575" lon="8.800495"><ele>687.5</ele><time>2026-04-21T09:52:54.665Z</time></trkpt><trkpt lat="44.6104317" lon="8.8004733"><ele>693.0</ele><time>2026-04-21T09:52:55.666Z</time></trkpt><trkpt lat="44.610285" lon="8.8004733"><ele>693.3333333333334</ele><time>2026-04-21T09:52:56.665Z</time></trkpt><trkpt lat="44.61014" lon="8.800505"><ele>693.6666666666667</ele><time>2026-04-21T09:52:57.666Z</time></trkpt><trkpt lat="44.6099883" lon="8.8005767"><ele>694.0</ele><time>2026-04-21T09:52:58.665Z</time></trkpt><trkpt lat="44.6098233" lon="8.8006583"><ele>694.0</ele><time>2026-04-21T09:52:59.666Z</time></trkpt><trkpt lat="44.6096583" lon="8.8007567"><ele>694.0</ele><time>2026-04-21T09:53:00.665Z</time></trkpt><trkpt lat="44.6095" lon="8.8008733"><ele>694.0</ele><time>2026-04-21T09:53:01.665Z</time></trkpt><trkpt lat="44.6093617" lon="8.8009717"><ele>698.0</ele><time>2026-04-21T09:53:02.665Z</time></trkpt><trkpt lat="44.6092117" lon="8.8010767"><ele>702.0</ele><time>2026-04-21T09:53:03.666Z</time></trkpt><trkpt lat="44.6090617" lon="8.8011783"><ele>706.0</ele><time>2026-04-21T09:53:04.666Z</time></trkpt><trkpt lat="44.6089083" lon="8.8012767"><ele>706.0</ele><time>2026-04-21T09:53:05.666Z</time></trkpt><trkpt lat="44.6087533" lon="8.801365"><ele>706.0</ele><time>2026-04-21T09:53:06.666Z</time></trkpt><trkpt lat="44.608595" lon="8.80144"><ele>706.0</ele><time>2026-04-21T09:53:07.665Z</time></trkpt><trkpt lat="44.6084483" lon="8.8015017"><ele>703.75</ele><time>2026-04-21T09:53:08.666Z</time></trkpt><trkpt lat="44.6083133" lon="8.801565"><ele>701.5</ele><time>2026-04-21T09:53:09.666Z</time></trkpt><trkpt lat="44.6081817" lon="8.8016283"><ele>699.25</ele><time>2026-04-21T09:53:10.666Z</time></trkpt><trkpt lat="44.6080567" lon="8.801695"><ele>697.0</ele><time>2026-04-21T09:53:11.666Z</time></trkpt><trkpt lat="44.6079533" lon="8.8017683"><ele>694.75</ele><time>2026-04-21T09:53:12.665Z</time></trkpt><trkpt lat="44.6078683" lon="8.801865"><ele>692.5</ele><time>2026-04-21T09:53:13.665Z</time></trkpt><trkpt lat="44.6078" lon="8.8019817"><ele>690.25</ele><time>2026-04-21T09:53:14.665Z</time></trkpt><trkpt lat="44.6077583" lon="8.8021367"><ele>688.0</ele><time>2026-04-21T09:53:15.665Z</time></trkpt><trkpt lat="44.607725" lon="8.80231"><ele>688.0</ele><time>2026-04-21T09:53:16.666Z</time></trkpt><trkpt lat="44.6076783" lon="8.8025133"><ele>688.0</ele><time>2026-04-21T09:53:17.665Z</time></trkpt><trkpt lat="44.6076183" lon="8.802705"><ele>688.0</ele><time>2026-04-21T09:53:18.665Z</time></trkpt><trkpt lat="44.6075467" lon="8.8028833"><ele>688.0</ele><time>2026-04-21T09:53:19.666Z</time></trkpt><trkpt lat="44.6074867" lon="8.803055"><ele>689.75</ele><time>2026-04-21T09:53:20.665Z</time></trkpt><trkpt lat="44.607425" lon="8.8032333"><ele>691.5</ele><time>2026-04-21T09:53:21.666Z</time></trkpt><trkpt lat="44.6073617" lon="8.8033833"><ele>693.25</ele><time>2026-04-21T09:53:22.666Z</time></trkpt><trkpt lat="44.60728" lon="8.80352"><ele>695.0</ele><time>2026-04-21T09:53:23.666Z</time></trkpt><trkpt lat="44.60719" lon="8.8036283"><ele>696.5</ele><time>2026-04-21T09:53:24.666Z</time></trkpt><trkpt lat="44.6070783" lon="8.8036967"><ele>698.0</ele><time>2026-04-21T09:53:25.665Z</time></trkpt><trkpt lat="44.60696" lon="8.8037333"><ele>699.5</ele><time>2026-04-21T09:53:26.665Z</time></trkpt><trkpt lat="44.6068367" lon="8.8037233"><ele>701.0</ele><time>2026-04-21T09:53:27.665Z</time></trkpt><trkpt lat="44.6067067" lon="8.803695"><ele>701.5</ele><time>2026-04-21T09:53:28.665Z</time></trkpt><trkpt lat="44.6065767" lon="8.8036517"><ele>702.0</ele><time>2026-04-21T09:53:29.666Z</time></trkpt><trkpt lat="44.6064317" lon="8.803565"><ele>702.5</ele><time>2026-04-21T09:53:30.666Z</time></trkpt><trkpt lat="44.6063017" lon="8.803465"><ele>703.0</ele><time>2026-04-21T09:53:31.665Z</time></trkpt><trkpt lat="44.606175" lon="8.8033567"><ele>701.25</ele><time>2026-04-21T09:53:32.666Z</time></trkpt><trkpt lat="44.6060633" lon="8.80325"><ele>699.5</ele><time>2026-04-21T09:53:33.666Z</time></trkpt><trkpt lat="44.60596" lon="8.80314"><ele>697.75</ele><time>2026-04-21T09:53:34.665Z</time></trkpt><trkpt lat="44.60586" lon="8.8030167"><ele>696.0</ele><time>2026-04-21T09:53:35.666Z</time></trkpt><trkpt lat="44.605775" lon="8.8028617"><ele>696.0</ele><time>2026-04-21T09:53:36.666Z</time></trkpt><trkpt lat="44.6057083" lon="8.802675"><ele>696.0</ele><time>2026-04-21T09:53:37.666Z</time></trkpt><trkpt lat="44.6056433" lon="8.8024683"><ele>696.0</ele><time>2026-04-21T09:53:38.666Z</time></trkpt><trkpt lat="44.6055917" lon="8.8022717"><ele>693.0</ele><time>2026-04-21T09:53:39.666Z</time></trkpt><trkpt lat="44.6055433" lon="8.8020967"><ele>690.0</ele><time>2026-04-21T09:53:40.666Z</time></trkpt><trkpt lat="44.6054933" lon="8.8019433"><ele>687.0</ele><time>2026-04-21T09:53:41.665Z</time></trkpt><trkpt lat="44.6054467" lon="8.8018083"><ele>684.0</ele><time>2026-04-21T09:53:42.665Z</time></trkpt><trkpt lat="44.6053917" lon="8.80169"><ele>685.8000000000001</ele><time>2026-04-21T09:53:43.665Z</time></trkpt><trkpt lat="44.60533" lon="8.80158"><ele>687.6</ele><time>2026-04-21T09:53:44.665Z</time></trkpt><trkpt lat="44.6052517" lon="8.801475"><ele>689.4</ele><time>2026-04-21T09:53:45.666Z</time></trkpt><trkpt lat="44.6051833" lon="8.8013817"><ele>691.2</ele><time>2026-04-21T09:53:46.665Z</time></trkpt><trkpt lat="44.605115" lon="8.8012867"><ele>693.0</ele><time>2026-04-21T09:53:47.665Z</time></trkpt><trkpt lat="44.6050583" lon="8.80117"><ele>693.0</ele><time>2026-04-21T09:53:48.666Z</time></trkpt><trkpt lat="44.6050267" lon="8.80106"><ele>693.0</ele><time>2026-04-21T09:53:49.666Z</time></trkpt><trkpt lat="44.6050083" lon="8.80092"><ele>693.0</ele><time>2026-04-21T09:53:50.665Z</time></trkpt><trkpt lat="44.604985" lon="8.8007667"><ele>693.0</ele><time>2026-04-21T09:53:51.666Z</time></trkpt><trkpt lat="44.6049633" lon="8.8005833"><ele>693.0</ele><time>2026-04-21T09:53:52.666Z</time></trkpt><trkpt lat="44.6049367" lon="8.80041"><ele>691.0</ele><time>2026-04-21T09:53:53.665Z</time></trkpt><trkpt lat="44.6049067" lon="8.8002167"><ele>689.0</ele><time>2026-04-21T09:53:54.666Z</time></trkpt><trkpt lat="44.6048783" lon="8.8000317"><ele>687.0</ele><time>2026-04-21T09:53:55.666Z</time></trkpt><trkpt lat="44.604835" lon="8.799835"><ele>685.0</ele><time>2026-04-21T09:53:56.666Z</time></trkpt><trkpt lat="44.6048" lon="8.79964"><ele>682.5</ele><time>2026-04-21T09:53:57.665Z</time></trkpt><trkpt lat="44.6047733" lon="8.7994567"><ele>680.0</ele><time>2026-04-21T09:53:58.666Z</time></trkpt><trkpt lat="44.6047433" lon="8.7992817"><ele>677.5</ele><time>2026-04-21T09:53:59.665Z</time></trkpt><trkpt lat="44.6047133" lon="8.799105"><ele>675.0</ele><time>2026-04-21T09:54:00.666Z</time></trkpt><trkpt lat="44.6046583" lon="8.798925"><ele>672.3333333333334</ele><time>2026-04-21T09:54:01.666Z</time></trkpt><trkpt lat="44.6045817" lon="8.7987233"><ele>669.6666666666667</ele><time>2026-04-21T09:54:02.665Z</time></trkpt><trkpt lat="44.6044767" lon="8.7985017"><ele>667.0</ele><time>2026-04-21T09:54:03.666Z</time></trkpt><trkpt lat="44.6043833" lon="8.7982817"><ele>666.3333333333334</ele><time>2026-04-21T09:54:04.665Z</time></trkpt><trkpt lat="44.604305" lon="8.7980683"><ele>665.6666666666666</ele><time>2026-04-21T09:54:05.665Z</time></trkpt><trkpt lat="44.604225" lon="8.7978667"><ele>665.0</ele><time>2026-04-21T09:54:06.665Z</time></trkpt><trkpt lat="44.6041617" lon="8.7977067"><ele>665.0</ele><time>2026-04-21T09:54:07.665Z</time></trkpt><trkpt lat="44.604105" lon="8.79759"><ele>665.0</ele><time>2026-04-21T09:54:08.665Z</time></trkpt><trkpt lat="44.60406" lon="8.797505"><ele>665.0</ele><time>2026-04-21T09:54:09.666Z</time></trkpt><trkpt lat="44.6040083" lon="8.7974483"><ele>665.0</ele><time>2026-04-21T09:54:10.666Z</time></trkpt><trkpt lat="44.6039217" lon="8.7974567"><ele>665.0</ele><time>2026-04-21T09:54:12.666Z</time></trkpt><trkpt lat="44.6038967" lon="8.79761"><ele>665.0</ele><time>2026-04-21T09:54:14.665Z</time></trkpt><trkpt lat="44.6039033" lon="8.7977333"><ele>665.0</ele><time>2026-04-21T09:54:15.665Z</time></trkpt><trkpt lat="44.603915" lon="8.7978817"><ele>665.0</ele><time>2026-04-21T09:54:16.666Z</time></trkpt><trkpt lat="44.603925" lon="8.7980367"><ele>665.0</ele><time>2026-04-21T09:54:17.665Z</time></trkpt><trkpt lat="44.6039267" lon="8.7981917"><ele>665.0</ele><time>2026-04-21T09:54:18.665Z</time></trkpt><trkpt lat="44.603945" lon="8.7983333"><ele>665.0</ele><time>2026-04-21T09:54:19.666Z</time></trkpt><trkpt lat="44.6039717" lon="8.7984733"><ele>665.5</ele><time>2026-04-21T09:54:20.665Z</time></trkpt><trkpt lat="44.6039883" lon="8.7986217"><ele>666.0</ele><time>2026-04-21T09:54:21.665Z</time></trkpt><trkpt lat="44.6039933" lon="8.7987933"><ele>666.5</ele><time>2026-04-21T09:54:22.665Z</time></trkpt><trkpt lat="44.6039933" lon="8.7989833"><ele>667.0</ele><time>2026-04-21T09:54:23.666Z</time></trkpt><trkpt lat="44.6039867" lon="8.7991983"><ele>668.5</ele><time>2026-04-21T09:54:24.665Z</time></trkpt><trkpt lat="44.6039683" lon="8.7994117"><ele>670.0</ele><time>2026-04-21T09:54:25.665Z</time></trkpt><trkpt lat="44.6039383" lon="8.7996083"><ele>671.5</ele><time>2026-04-21T09:54:26.665Z</time></trkpt><trkpt lat="44.603895" lon="8.7998083"><ele>673.0</ele><time>2026-04-21T09:54:27.666Z</time></trkpt><trkpt lat="44.6038517" lon="8.80001"><ele>673.5</ele><time>2026-04-21T09:54:28.666Z</time></trkpt><trkpt lat="44.6038083" lon="8.800195"><ele>674.0</ele><time>2026-04-21T09:54:29.665Z</time></trkpt><trkpt lat="44.603765" lon="8.8003467"><ele>674.5</ele><time>2026-04-21T09:54:30.666Z</time></trkpt><trkpt lat="44.6037067" lon="8.8004717"><ele>675.0</ele><time>2026-04-21T09:54:31.666Z</time></trkpt><trkpt lat="44.6036383" lon="8.800575"><ele>668.2</ele><time>2026-04-21T09:54:32.666Z</time></trkpt><trkpt lat="44.60358" lon="8.80068"><ele>661.4</ele><time>2026-04-21T09:54:33.665Z</time></trkpt><trkpt lat="44.6035517" lon="8.80081"><ele>654.5999999999999</ele><time>2026-04-21T09:54:34.666Z</time></trkpt><trkpt lat="44.60354" lon="8.80098"><ele>647.8</ele><time>2026-04-21T09:54:35.665Z</time></trkpt><trkpt lat="44.6035183" lon="8.801165"><ele>641.0</ele><time>2026-04-21T09:54:36.665Z</time></trkpt><trkpt lat="44.6034967" lon="8.8013317"><ele>640.6666666666666</ele><time>2026-04-21T09:54:37.666Z</time></trkpt><trkpt lat="44.60348" lon="8.8014767"><ele>640.3333333333333</ele><time>2026-04-21T09:54:38.665Z</time></trkpt><trkpt lat="44.6034817" lon="8.801615"><ele>640.0</ele><time>2026-04-21T09:54:39.666Z</time></trkpt><trkpt lat="44.6034983" lon="8.801735"><ele>639.6666666666666</ele><time>2026-04-21T09:54:40.666Z</time></trkpt><trkpt lat="44.6035017" lon="8.8018483"><ele>639.3333333333334</ele><time>2026-04-21T09:54:41.666Z</time></trkpt><trkpt lat="44.6034817" lon="8.8019433"><ele>639.0</ele><time>2026-04-21T09:54:42.665Z</time></trkpt><trkpt lat="44.60343" lon="8.802025"><ele>639.8</ele><time>2026-04-21T09:54:43.666Z</time></trkpt><trkpt lat="44.6033517" lon="8.8020867"><ele>640.5999999999999</ele><time>2026-04-21T09:54:44.666Z</time></trkpt><trkpt lat="44.603275" lon="8.8021483"><ele>641.4</ele><time>2026-04-21T09:54:45.665Z</time></trkpt><trkpt lat="44.60321" lon="8.802225"><ele>642.1999999999999</ele><time>2026-04-21T09:54:46.666Z</time></trkpt><trkpt lat="44.6031517" lon="8.80233"><ele>643.0</ele><time>2026-04-21T09:54:47.665Z</time></trkpt><trkpt lat="44.6031133" lon="8.802475"><ele>643.0</ele><time>2026-04-21T09:54:48.665Z</time></trkpt><trkpt lat="44.60308" lon="8.8026333"><ele>643.0</ele><time>2026-04-21T09:54:49.666Z</time></trkpt><trkpt lat="44.60305" lon="8.802775"><ele>643.0</ele><time>2026-04-21T09:54:50.666Z</time></trkpt><trkpt lat="44.6030333" lon="8.8029067"><ele>643.0</ele><time>2026-04-21T09:54:51.666Z</time></trkpt><trkpt lat="44.6030267" lon="8.8030083"><ele>643.0</ele><time>2026-04-21T09:54:52.666Z</time></trkpt><trkpt lat="44.6030717" lon="8.803185"><ele>642.1999999999999</ele><time>2026-04-21T09:54:54.665Z</time></trkpt><trkpt lat="44.6031217" lon="8.8032983"><ele>641.4</ele><time>2026-04-21T09:54:55.666Z</time></trkpt><trkpt lat="44.6031567" lon="8.80343"><ele>640.5999999999999</ele><time>2026-04-21T09:54:56.665Z</time></trkpt><trkpt lat="44.6031733" lon="8.8035817"><ele>639.8</ele><time>2026-04-21T09:54:57.666Z</time></trkpt><trkpt lat="44.60317" lon="8.8037583"><ele>639.0</ele><time>2026-04-21T09:54:58.666Z</time></trkpt><trkpt lat="44.6031617" lon="8.80393"><ele>638.6</ele><time>2026-04-21T09:54:59.666Z</time></trkpt><trkpt lat="44.6031583" lon="8.8041"><ele>638.2</ele><time>2026-04-21T09:55:00.666Z</time></trkpt><trkpt lat="44.6031717" lon="8.80424"><ele>637.8000000000001</ele><time>2026-04-21T09:55:01.665Z</time></trkpt><trkpt lat="44.6031933" lon="8.8043733"><ele>637.4</ele><time>2026-04-21T09:55:02.666Z</time></trkpt><trkpt lat="44.6032167" lon="8.8044767"><ele>637.0</ele><time>2026-04-21T09:55:03.666Z</time></trkpt><trkpt lat="44.6032067" lon="8.8045817"><ele>637.0</ele><time>2026-04-21T09:55:04.665Z</time></trkpt><trkpt lat="44.6031733" lon="8.804685"><ele>637.0</ele><time>2026-04-21T09:55:05.666Z</time></trkpt><trkpt lat="44.6031117" lon="8.8048"><ele>637.0</ele><time>2026-04-21T09:55:06.666Z</time></trkpt><trkpt lat="44.6030167" lon="8.804945"><ele>637.0</ele><time>2026-04-21T09:55:07.666Z</time></trkpt><trkpt lat="44.6029117" lon="8.8051017"><ele>629.75</ele><time>2026-04-21T09:55:08.666Z</time></trkpt><trkpt lat="44.6028017" lon="8.8052467"><ele>622.5</ele><time>2026-04-21T09:55:09.666Z</time></trkpt><trkpt lat="44.6026983" lon="8.80534"><ele>615.25</ele><time>2026-04-21T09:55:10.665Z</time></trkpt><trkpt lat="44.6026017" lon="8.8054033"><ele>608.0</ele><time>2026-04-21T09:55:11.666Z</time></trkpt><trkpt lat="44.6025117" lon="8.8054467"><ele>608.0</ele><time>2026-04-21T09:55:12.666Z</time></trkpt><trkpt lat="44.6024367" lon="8.8054917"><ele>608.0</ele><time>2026-04-21T09:55:13.665Z</time></trkpt><trkpt lat="44.6023783" lon="8.8055367"><ele>608.0</ele><time>2026-04-21T09:55:14.665Z</time></trkpt><trkpt lat="44.6023233" lon="8.8055967"><ele>608.0</ele><time>2026-04-21T09:55:15.666Z</time></trkpt><trkpt lat="44.6022917" lon="8.805675"><ele>608.0</ele><time>2026-04-21T09:55:16.665Z</time></trkpt><trkpt lat="44.6022833" lon="8.8058267"><ele>608.0</ele><time>2026-04-21T09:55:18.665Z</time></trkpt><trkpt lat="44.6023933" lon="8.8059283"><ele>608.0</ele><time>2026-04-21T09:55:20.665Z</time></trkpt><trkpt lat="44.60249" lon="8.80597"><ele>608.0</ele><time>2026-04-21T09:55:21.666Z</time></trkpt><trkpt lat="44.6025967" lon="8.806045"><ele>608.0</ele><time>2026-04-21T09:55:22.665Z</time></trkpt><trkpt lat="44.6027133" lon="8.8061617"><ele>608.0</ele><time>2026-04-21T09:55:23.666Z</time></trkpt><trkpt lat="44.60282" lon="8.806295"><ele>608.0</ele><time>2026-04-21T09:55:24.666Z</time></trkpt><trkpt lat="44.6029067" lon="8.8064333"><ele>608.0</ele><time>2026-04-21T09:55:25.665Z</time></trkpt><trkpt lat="44.602985" lon="8.8065883"><ele>608.0</ele><time>2026-04-21T09:55:26.666Z</time></trkpt><trkpt lat="44.603055" lon="8.8067467"><ele>608.0</ele><time>2026-04-21T09:55:27.665Z</time></trkpt><trkpt lat="44.603125" lon="8.8068767"><ele>603.1999999999999</ele><time>2026-04-21T09:55:28.665Z</time></trkpt><trkpt lat="44.6031783" lon="8.8069717"><ele>598.4</ele><time>2026-04-21T09:55:29.666Z</time></trkpt><trkpt lat="44.603205" lon="8.8070917"><ele>593.5999999999999</ele><time>2026-04-21T09:55:31.666Z</time></trkpt><trkpt lat="44.6031067" lon="8.8070617"><ele>588.8</ele><time>2026-04-21T09:55:34.666Z</time></trkpt><trkpt lat="44.60305" lon="8.8069817"><ele>584.0</ele><time>2026-04-21T09:55:35.666Z</time></trkpt><trkpt lat="44.6029717" lon="8.80687"><ele>585.0</ele><time>2026-04-21T09:55:36.665Z</time></trkpt><trkpt lat="44.6028767" lon="8.80675"><ele>586.0</ele><time>2026-04-21T09:55:37.665Z</time></trkpt><trkpt lat="44.60277" lon="8.8066367"><ele>587.0</ele><time>2026-04-21T09:55:38.666Z</time></trkpt><trkpt lat="44.602675" lon="8.8065667"><ele>588.0</ele><time>2026-04-21T09:55:39.665Z</time></trkpt><trkpt lat="44.6025767" lon="8.8065317"><ele>588.0</ele><time>2026-04-21T09:55:40.665Z</time></trkpt><trkpt lat="44.6024733" lon="8.8065267"><ele>588.0</ele><time>2026-04-21T09:55:41.666Z</time></trkpt><trkpt lat="44.602365" lon="8.8065583"><ele>588.0</ele><time>2026-04-21T09:55:42.665Z</time></trkpt><trkpt lat="44.6022467" lon="8.8066233"><ele>588.0</ele><time>2026-04-21T09:55:43.665Z</time></trkpt><trkpt lat="44.60212" lon="8.8067017"><ele>587.25</ele><time>2026-04-21T09:55:44.666Z</time></trkpt><trkpt lat="44.6019917" lon="8.806785"><ele>586.5</ele><time>2026-04-21T09:55:45.665Z</time></trkpt><trkpt lat="44.6018667" lon="8.8068567"><ele>585.75</ele><time>2026-04-21T09:55:46.665Z</time></trkpt><trkpt lat="44.6017633" lon="8.8069283"><ele>585.0</ele><time>2026-04-21T09:55:47.666Z</time></trkpt><trkpt lat="44.6016617" lon="8.8070017"><ele>579.5</ele><time>2026-04-21T09:55:48.665Z</time></trkpt><trkpt lat="44.6015533" lon="8.80708"><ele>574.0</ele><time>2026-04-21T09:55:49.666Z</time></trkpt><trkpt lat="44.60144" lon="8.8071133"><ele>568.5</ele><time>2026-04-21T09:55:50.665Z</time></trkpt><trkpt lat="44.6013167" lon="8.8071317"><ele>563.0</ele><time>2026-04-21T09:55:51.665Z</time></trkpt><trkpt lat="44.6011967" lon="8.8071517"><ele>564.0</ele><time>2026-04-21T09:55:52.665Z</time></trkpt><trkpt lat="44.6010883" lon="8.8072067"><ele>565.0</ele><time>2026-04-21T09:55:53.665Z</time></trkpt><trkpt lat="44.601" lon="8.80729"><ele>566.0</ele><time>2026-04-21T09:55:54.665Z</time></trkpt><trkpt lat="44.6009233" lon="8.8073767"><ele>567.0</ele><time>2026-04-21T09:55:55.665Z</time></trkpt><trkpt lat="44.600855" lon="8.807435"><ele>568.0</ele><time>2026-04-21T09:55:56.665Z</time></trkpt><trkpt lat="44.600785" lon="8.80746"><ele>568.0</ele><time>2026-04-21T09:55:57.666Z</time></trkpt><trkpt lat="44.6007217" lon="8.8074583"><ele>568.0</ele><time>2026-04-21T09:55:58.665Z</time></trkpt><trkpt lat="44.6006517" lon="8.8074183"><ele>568.0</ele><time>2026-04-21T09:55:59.666Z</time></trkpt><trkpt lat="44.6005683" lon="8.80735"><ele>568.0</ele><time>2026-04-21T09:56:00.666Z</time></trkpt><trkpt lat="44.6004767" lon="8.8072883"><ele>568.0</ele><time>2026-04-21T09:56:01.665Z</time></trkpt><trkpt lat="44.6003833" lon="8.807255"><ele>568.0</ele><time>2026-04-21T09:56:02.666Z</time></trkpt><trkpt lat="44.6002883" lon="8.807265"><ele>567.5</ele><time>2026-04-21T09:56:03.665Z</time></trkpt><trkpt lat="44.6001967" lon="8.8073017"><ele>567.0</ele><time>2026-04-21T09:56:04.666Z</time></trkpt><trkpt lat="44.6001" lon="8.80734"><ele>566.5</ele><time>2026-04-21T09:56:05.666Z</time></trkpt><trkpt lat="44.6000117" lon="8.80735"><ele>566.0</ele><time>2026-04-21T09:56:06.665Z</time></trkpt><trkpt lat="44.5999333" lon="8.8073233"><ele>565.5</ele><time>2026-04-21T09:56:07.665Z</time></trkpt><trkpt lat="44.599865" lon="8.8072717"><ele>565.0</ele><time>2026-04-21T09:56:08.665Z</time></trkpt><trkpt lat="44.59981" lon="8.8072067"><ele>565.0</ele><time>2026-04-21T09:56:09.665Z</time></trkpt><trkpt lat="44.59977" lon="8.8071233"><ele>565.0</ele><time>2026-04-21T09:56:10.665Z</time></trkpt><trkpt lat="44.5997383" lon="8.8070383"><ele>565.0</ele><time>2026-04-21T09:56:11.666Z</time></trkpt><trkpt lat="44.5997033" lon="8.8069283"><ele>565.0</ele><time>2026-04-21T09:56:12.665Z</time></trkpt><trkpt lat="44.59967" lon="8.8067767"><ele>565.0</ele><time>2026-04-21T09:56:13.665Z</time></trkpt><trkpt lat="44.5996333" lon="8.8065917"><ele>565.75</ele><time>2026-04-21T09:56:14.665Z</time></trkpt><trkpt lat="44.59959" lon="8.8063983"><ele>566.5</ele><time>2026-04-21T09:56:15.665Z</time></trkpt><trkpt lat="44.5995567" lon="8.8062067"><ele>567.25</ele><time>2026-04-21T09:56:16.665Z</time></trkpt><trkpt lat="44.5995433" lon="8.8060183"><ele>568.0</ele><time>2026-04-21T09:56:17.665Z</time></trkpt><trkpt lat="44.5995433" lon="8.8058333"><ele>569.0</ele><time>2026-04-21T09:56:18.665Z</time></trkpt><trkpt lat="44.5995417" lon="8.805645"><ele>570.0</ele><time>2026-04-21T09:56:19.665Z</time></trkpt><trkpt lat="44.5995383" lon="8.8054367"><ele>571.0</ele><time>2026-04-21T09:56:20.666Z</time></trkpt><trkpt lat="44.599495" lon="8.805265"><ele>572.0</ele><time>2026-04-21T09:56:21.666Z</time></trkpt><trkpt lat="44.5994617" lon="8.8050917"><ele>572.0</ele><time>2026-04-21T09:56:22.666Z</time></trkpt><trkpt lat="44.5994217" lon="8.8049083"><ele>572.0</ele><time>2026-04-21T09:56:23.666Z</time></trkpt><trkpt lat="44.5993867" lon="8.8047217"><ele>572.0</ele><time>2026-04-21T09:56:24.665Z</time></trkpt><trkpt lat="44.5993417" lon="8.80453"><ele>572.0</ele><time>2026-04-21T09:56:25.666Z</time></trkpt><trkpt lat="44.599295" lon="8.80434"><ele>569.75</ele><time>2026-04-21T09:56:26.666Z</time></trkpt><trkpt lat="44.5992433" lon="8.804145"><ele>567.5</ele><time>2026-04-21T09:56:27.665Z</time></trkpt><trkpt lat="44.5992017" lon="8.8039483"><ele>565.25</ele><time>2026-04-21T09:56:28.665Z</time></trkpt><trkpt lat="44.5991617" lon="8.803755"><ele>563.0</ele><time>2026-04-21T09:56:29.666Z</time></trkpt><trkpt lat="44.5991333" lon="8.803575"><ele>560.75</ele><time>2026-04-21T09:56:30.665Z</time></trkpt><trkpt lat="44.5991167" lon="8.8033983"><ele>558.5</ele><time>2026-04-21T09:56:31.666Z</time></trkpt><trkpt lat="44.5990933" lon="8.8032233"><ele>556.25</ele><time>2026-04-21T09:56:32.666Z</time></trkpt><trkpt lat="44.5990617" lon="8.8030617"><ele>554.0</ele><time>2026-04-21T09:56:33.665Z</time></trkpt><trkpt lat="44.5990117" lon="8.8029183"><ele>554.0</ele><time>2026-04-21T09:56:34.665Z</time></trkpt><trkpt lat="44.5989483" lon="8.8027767"><ele>554.0</ele><time>2026-04-21T09:56:35.666Z</time></trkpt><trkpt lat="44.5988833" lon="8.8026517"><ele>554.0</ele><time>2026-04-21T09:56:36.666Z</time></trkpt><trkpt lat="44.5988217" lon="8.802515"><ele>554.0</ele><time>2026-04-21T09:56:37.666Z</time></trkpt><trkpt lat="44.5987467" lon="8.8023633"><ele>553.75</ele><time>2026-04-21T09:56:38.666Z</time></trkpt><trkpt lat="44.5986883" lon="8.802195"><ele>553.5</ele><time>2026-04-21T09:56:39.666Z</time></trkpt><trkpt lat="44.5986333" lon="8.8020167"><ele>553.25</ele><time>2026-04-21T09:56:40.665Z</time></trkpt><trkpt lat="44.59858" lon="8.8018383"><ele>553.0</ele><time>2026-04-21T09:56:41.666Z</time></trkpt><trkpt lat="44.5985217" lon="8.8016633"><ele>553.0</ele><time>2026-04-21T09:56:42.666Z</time></trkpt><trkpt lat="44.5984733" lon="8.801475"><ele>553.0</ele><time>2026-04-21T09:56:43.666Z</time></trkpt><trkpt lat="44.5984283" lon="8.8012817"><ele>553.0</ele><time>2026-04-21T09:56:44.666Z</time></trkpt><trkpt lat="44.5983883" lon="8.80109"><ele>553.0</ele><time>2026-04-21T09:56:45.665Z</time></trkpt><trkpt lat="44.5983617" lon="8.8009217"><ele>553.0</ele><time>2026-04-21T09:56:46.665Z</time></trkpt><trkpt lat="44.5983283" lon="8.8007833"><ele>553.0</ele><time>2026-04-21T09:56:47.665Z</time></trkpt><trkpt lat="44.5982817" lon="8.8006633"><ele>553.0</ele><time>2026-04-21T09:56:48.666Z</time></trkpt><trkpt lat="44.59823" lon="8.800555"><ele>553.0</ele><time>2026-04-21T09:56:49.665Z</time></trkpt><trkpt lat="44.5981767" lon="8.8004383"><ele>553.0</ele><time>2026-04-21T09:56:50.666Z</time></trkpt><trkpt lat="44.5981117" lon="8.8003117"><ele>551.75</ele><time>2026-04-21T09:56:51.666Z</time></trkpt><trkpt lat="44.5980633" lon="8.8001567"><ele>550.5</ele><time>2026-04-21T09:56:52.665Z</time></trkpt><trkpt lat="44.5980167" lon="8.7999767"><ele>549.25</ele><time>2026-04-21T09:56:53.666Z</time></trkpt><trkpt lat="44.59797" lon="8.799785"><ele>548.0</ele><time>2026-04-21T09:56:54.665Z</time></trkpt><trkpt lat="44.597925" lon="8.7996117"><ele>548.0</ele><time>2026-04-21T09:56:55.666Z</time></trkpt><trkpt lat="44.5978917" lon="8.7994517"><ele>548.0</ele><time>2026-04-21T09:56:56.666Z</time></trkpt><trkpt lat="44.5978717" lon="8.7993117"><ele>548.0</ele><time>2026-04-21T09:56:57.666Z</time></trkpt><trkpt lat="44.59786" lon="8.79918"><ele>548.0</ele><time>2026-04-21T09:56:58.665Z</time></trkpt><trkpt lat="44.5978667" lon="8.7990667"><ele>548.0</ele><time>2026-04-21T09:56:59.666Z</time></trkpt><trkpt lat="44.5978933" lon="8.7989633"><ele>547.3333333333333</ele><time>2026-04-21T09:57:00.666Z</time></trkpt><trkpt lat="44.5979317" lon="8.7988633"><ele>546.6666666666666</ele><time>2026-04-21T09:57:01.665Z</time></trkpt><trkpt lat="44.5979683" lon="8.7987617"><ele>546.0</ele><time>2026-04-21T09:57:02.666Z</time></trkpt><trkpt lat="44.597995" lon="8.798675"><ele>545.3333333333334</ele><time>2026-04-21T09:57:03.666Z</time></trkpt><trkpt lat="44.5979933" lon="8.7985667"><ele>544.6666666666667</ele><time>2026-04-21T09:57:04.666Z</time></trkpt><trkpt lat="44.5979717" lon="8.7984483"><ele>544.0</ele><time>2026-04-21T09:57:05.665Z</time></trkpt><trkpt lat="44.597935" lon="8.79832"><ele>543.75</ele><time>2026-04-21T09:57:06.666Z</time></trkpt><trkpt lat="44.5978767" lon="8.7981517"><ele>543.5</ele><time>2026-04-21T09:57:07.665Z</time></trkpt><trkpt lat="44.5978017" lon="8.7979583"><ele>543.25</ele><time>2026-04-21T09:57:08.665Z</time></trkpt><trkpt lat="44.5977467" lon="8.7977667"><ele>543.0</ele><time>2026-04-21T09:57:09.665Z</time></trkpt><trkpt lat="44.5976917" lon="8.7976083"><ele>546.6666666666666</ele><time>2026-04-21T09:57:10.666Z</time></trkpt><trkpt lat="44.5976383" lon="8.797475"><ele>550.3333333333334</ele><time>2026-04-21T09:57:11.666Z</time></trkpt><trkpt lat="44.597585" lon="8.7973717"><ele>554.0</ele><time>2026-04-21T09:57:12.666Z</time></trkpt><trkpt lat="44.5975433" lon="8.7972933"><ele>557.6666666666667</ele><time>2026-04-21T09:57:13.666Z</time></trkpt><trkpt lat="44.59751" lon="8.797205"><ele>561.3333333333334</ele><time>2026-04-21T09:57:14.665Z</time></trkpt><trkpt lat="44.5975017" lon="8.797115"><ele>565.0</ele><time>2026-04-21T09:57:15.666Z</time></trkpt><trkpt lat="44.5975033" lon="8.797005"><ele>565.0</ele><time>2026-04-21T09:57:16.665Z</time></trkpt><trkpt lat="44.597495" lon="8.7968917"><ele>565.0</ele><time>2026-04-21T09:57:17.665Z</time></trkpt><trkpt lat="44.597485" lon="8.7967933"><ele>565.0</ele><time>2026-04-21T09:57:18.666Z</time></trkpt><trkpt lat="44.5974467" lon="8.79672"><ele>565.0</ele><time>2026-04-21T09:57:19.666Z</time></trkpt><trkpt lat="44.5973767" lon="8.7966783"><ele>565.0</ele><time>2026-04-21T09:57:20.665Z</time></trkpt><trkpt lat="44.5972933" lon="8.796655"><ele>565.0</ele><time>2026-04-21T09:57:21.666Z</time></trkpt><trkpt lat="44.5972117" lon="8.796625"><ele>562.8</ele><time>2026-04-21T09:57:22.665Z</time></trkpt><trkpt lat="44.597145" lon="8.79655"><ele>560.6</ele><time>2026-04-21T09:57:23.665Z</time></trkpt><trkpt lat="44.5971" lon="8.796435"><ele>558.4</ele><time>2026-04-21T09:57:24.665Z</time></trkpt><trkpt lat="44.59706" lon="8.7963067"><ele>556.2</ele><time>2026-04-21T09:57:25.665Z</time></trkpt><trkpt lat="44.5970033" lon="8.79616"><ele>554.0</ele><time>2026-04-21T09:57:26.665Z</time></trkpt><trkpt lat="44.596935" lon="8.7960233"><ele>558.4</ele><time>2026-04-21T09:57:27.666Z</time></trkpt><trkpt lat="44.5968733" lon="8.7958833"><ele>562.8</ele><time>2026-04-21T09:57:28.666Z</time></trkpt><trkpt lat="44.59682" lon="8.7957467"><ele>567.2</ele><time>2026-04-21T09:57:29.666Z</time></trkpt><trkpt lat="44.5967767" lon="8.7955983"><ele>571.6</ele><time>2026-04-21T09:57:30.666Z</time></trkpt><trkpt lat="44.5967533" lon="8.79546"><ele>576.0</ele><time>2026-04-21T09:57:31.666Z</time></trkpt><trkpt lat="44.5967083" lon="8.7953433"><ele>576.0</ele><time>2026-04-21T09:57:32.665Z</time></trkpt><trkpt lat="44.5966467" lon="8.7952233"><ele>576.0</ele><time>2026-04-21T09:57:33.665Z</time></trkpt><trkpt lat="44.596565" lon="8.795115"><ele>576.0</ele><time>2026-04-21T09:57:34.666Z</time></trkpt><trkpt lat="44.5964867" lon="8.7950083"><ele>576.0</ele><time>2026-04-21T09:57:35.666Z</time></trkpt><trkpt lat="44.5964117" lon="8.794885"><ele>576.0</ele><time>2026-04-21T09:57:36.665Z</time></trkpt><trkpt lat="44.5963367" lon="8.794755"><ele>572.8</ele><time>2026-04-21T09:57:37.665Z</time></trkpt><trkpt lat="44.596265" lon="8.794635"><ele>569.6</ele><time>2026-04-21T09:57:38.665Z</time></trkpt><trkpt lat="44.5961917" lon="8.7945333"><ele>566.4</ele><time>2026-04-21T09:57:39.666Z</time></trkpt><trkpt lat="44.5961183" lon="8.794455"><ele>563.2</ele><time>2026-04-21T09:57:40.666Z</time></trkpt><trkpt lat="44.596035" lon="8.7943883"><ele>560.0</ele><time>2026-04-21T09:57:41.665Z</time></trkpt><trkpt lat="44.5959517" lon="8.794335"><ele>560.0</ele><time>2026-04-21T09:57:42.666Z</time></trkpt><trkpt lat="44.5958417" lon="8.7943"><ele>560.0</ele><time>2026-04-21T09:57:43.665Z</time></trkpt><trkpt lat="44.5957417" lon="8.7942583"><ele>560.0</ele><time>2026-04-21T09:57:44.666Z</time></trkpt><trkpt lat="44.5956467" lon="8.7941783"><ele>560.0</ele><time>2026-04-21T09:57:45.665Z</time></trkpt><trkpt lat="44.5955667" lon="8.79407"><ele>560.0</ele><time>2026-04-21T09:57:46.665Z</time></trkpt><trkpt lat="44.5955017" lon="8.7939633"><ele>560.0</ele><time>2026-04-21T09:57:47.665Z</time></trkpt><trkpt lat="44.5954267" lon="8.793865"><ele>560.0</ele><time>2026-04-21T09:57:48.665Z</time></trkpt><trkpt lat="44.5953433" lon="8.79378"><ele>560.0</ele><time>2026-04-21T09:57:49.665Z</time></trkpt><trkpt lat="44.5952633" lon="8.793685"><ele>560.0</ele><time>2026-04-21T09:57:50.666Z</time></trkpt><trkpt lat="44.5952" lon="8.79358"><ele>560.0</ele><time>2026-04-21T09:57:51.665Z</time></trkpt><trkpt lat="44.595145" lon="8.7934833"><ele>559.8333333333333</ele><time>2026-04-21T09:57:52.665Z</time></trkpt><trkpt lat="44.5950833" lon="8.7934067"><ele>559.6666666666666</ele><time>2026-04-21T09:57:53.665Z</time></trkpt><trkpt lat="44.59502" lon="8.79336"><ele>559.5</ele><time>2026-04-21T09:57:54.665Z</time></trkpt><trkpt lat="44.5949467" lon="8.7933567"><ele>559.3333333333334</ele><time>2026-04-21T09:57:55.666Z</time></trkpt><trkpt lat="44.594865" lon="8.79339"><ele>559.1666666666667</ele><time>2026-04-21T09:57:56.666Z</time></trkpt><trkpt lat="44.5947983" lon="8.793455"><ele>559.0</ele><time>2026-04-21T09:57:57.665Z</time></trkpt><trkpt lat="44.5947433" lon="8.793555"><ele>561.0</ele><time>2026-04-21T09:57:58.666Z</time></trkpt><trkpt lat="44.5946967" lon="8.793675"><ele>563.0</ele><time>2026-04-21T09:57:59.666Z</time></trkpt><trkpt lat="44.5946483" lon="8.7937917"><ele>565.0</ele><time>2026-04-21T09:58:00.665Z</time></trkpt><trkpt lat="44.5945867" lon="8.7938817"><ele>567.0</ele><time>2026-04-21T09:58:01.666Z</time></trkpt><trkpt lat="44.5945" lon="8.7939433"><ele>569.0</ele><time>2026-04-21T09:58:02.665Z</time></trkpt><trkpt lat="44.5943783" lon="8.7940167"><ele>569.0</ele><time>2026-04-21T09:58:03.666Z</time></trkpt><trkpt lat="44.5942533" lon="8.7941"><ele>569.0</ele><time>2026-04-21T09:58:04.665Z</time></trkpt><trkpt lat="44.59412" lon="8.7941883"><ele>569.0</ele><time>2026-04-21T09:58:05.666Z</time></trkpt><trkpt lat="44.5939867" lon="8.7942767"><ele>569.0</ele><time>2026-04-21T09:58:06.666Z</time></trkpt><trkpt lat="44.5938567" lon="8.7943417"><ele>573.0</ele><time>2026-04-21T09:58:07.665Z</time></trkpt><trkpt lat="44.59374" lon="8.7943967"><ele>577.0</ele><time>2026-04-21T09:58:08.666Z</time></trkpt><trkpt lat="44.5936133" lon="8.7944133"><ele>581.0</ele><time>2026-04-21T09:58:09.666Z</time></trkpt><trkpt lat="44.593485" lon="8.7944233"><ele>585.0</ele><time>2026-04-21T09:58:10.665Z</time></trkpt><trkpt lat="44.5933583" lon="8.7944467"><ele>585.0</ele><time>2026-04-21T09:58:11.665Z</time></trkpt><trkpt lat="44.593235" lon="8.7944817"><ele>585.0</ele><time>2026-04-21T09:58:12.665Z</time></trkpt><trkpt lat="44.5931117" lon="8.7945217"><ele>585.0</ele><time>2026-04-21T09:58:13.665Z</time></trkpt><trkpt lat="44.5929917" lon="8.7945817"><ele>585.0</ele><time>2026-04-21T09:58:14.665Z</time></trkpt><trkpt lat="44.592875" lon="8.794645"><ele>581.8333333333334</ele><time>2026-04-21T09:58:15.665Z</time></trkpt><trkpt lat="44.5927667" lon="8.79471"><ele>578.6666666666666</ele><time>2026-04-21T09:58:16.666Z</time></trkpt><trkpt lat="44.592675" lon="8.7947833"><ele>575.5</ele><time>2026-04-21T09:58:17.665Z</time></trkpt><trkpt lat="44.5926067" lon="8.7948533"><ele>572.3333333333333</ele><time>2026-04-21T09:58:18.666Z</time></trkpt><trkpt lat="44.5925517" lon="8.7949183"><ele>569.1666666666666</ele><time>2026-04-21T09:58:19.666Z</time></trkpt><trkpt lat="44.5924933" lon="8.794955"><ele>566.0</ele><time>2026-04-21T09:58:20.665Z</time></trkpt><trkpt lat="44.59242" lon="8.79497"><ele>566.0</ele><time>2026-04-21T09:58:21.666Z</time></trkpt><trkpt lat="44.5923317" lon="8.7949717"><ele>566.0</ele><time>2026-04-21T09:58:22.665Z</time></trkpt><trkpt lat="44.59223" lon="8.7949633"><ele>566.0</ele><time>2026-04-21T09:58:23.666Z</time></trkpt><trkpt lat="44.59212" lon="8.7949567"><ele>566.0</ele><time>2026-04-21T09:58:24.666Z</time></trkpt><trkpt lat="44.5920283" lon="8.7949383"><ele>566.0</ele><time>2026-04-21T09:58:25.665Z</time></trkpt><trkpt lat="44.5919583" lon="8.7948867"><ele>563.6</ele><time>2026-04-21T09:58:26.665Z</time></trkpt><trkpt lat="44.5919167" lon="8.7948067"><ele>561.2</ele><time>2026-04-21T09:58:27.665Z</time></trkpt><trkpt lat="44.59188" lon="8.794685"><ele>558.8</ele><time>2026-04-21T09:58:28.665Z</time></trkpt><trkpt lat="44.59185" lon="8.7945233"><ele>556.4</ele><time>2026-04-21T09:58:29.665Z</time></trkpt><trkpt lat="44.59181" lon="8.7943717"><ele>554.0</ele><time>2026-04-21T09:58:30.666Z</time></trkpt><trkpt lat="44.5917833" lon="8.7942333"><ele>554.0</ele><time>2026-04-21T09:58:31.665Z</time></trkpt><trkpt lat="44.5917417" lon="8.7941267"><ele>554.0</ele><time>2026-04-21T09:58:32.666Z</time></trkpt><trkpt lat="44.591695" lon="8.7940567"><ele>554.0</ele><time>2026-04-21T09:58:33.666Z</time></trkpt><trkpt lat="44.5916333" lon="8.7940033"><ele>554.0</ele><time>2026-04-21T09:58:34.666Z</time></trkpt><trkpt lat="44.5915583" lon="8.7939683"><ele>554.0</ele><time>2026-04-21T09:58:35.666Z</time></trkpt><trkpt lat="44.5914733" lon="8.7939183"><ele>554.0</ele><time>2026-04-21T09:58:36.666Z</time></trkpt><trkpt lat="44.59138" lon="8.793835"><ele>554.0</ele><time>2026-04-21T09:58:37.666Z</time></trkpt><trkpt lat="44.591275" lon="8.7937433"><ele>554.0</ele><time>2026-04-21T09:58:38.665Z</time></trkpt><trkpt lat="44.5911767" lon="8.793645"><ele>554.0</ele><time>2026-04-21T09:58:39.665Z</time></trkpt><trkpt lat="44.591085" lon="8.7935717"><ele>554.0</ele><time>2026-04-21T09:58:40.665Z</time></trkpt><trkpt lat="44.5910183" lon="8.7935033"><ele>554.0</ele><time>2026-04-21T09:58:41.666Z</time></trkpt><trkpt lat="44.5909667" lon="8.7934317"><ele>552.8333333333333</ele><time>2026-04-21T09:58:42.665Z</time></trkpt><trkpt lat="44.5909283" lon="8.7933317"><ele>551.6666666666666</ele><time>2026-04-21T09:58:43.665Z</time></trkpt><trkpt lat="44.5909033" lon="8.7932283"><ele>550.5</ele><time>2026-04-21T09:58:44.666Z</time></trkpt><trkpt lat="44.5908867" lon="8.7931283"><ele>549.3333333333334</ele><time>2026-04-21T09:58:45.665Z</time></trkpt><trkpt lat="44.5908383" lon="8.793025"><ele>548.1666666666667</ele><time>2026-04-21T09:58:46.665Z</time></trkpt><trkpt lat="44.5907833" lon="8.7929033"><ele>547.0</ele><time>2026-04-21T09:58:47.665Z</time></trkpt><trkpt lat="44.5907267" lon="8.792775"><ele>543.4</ele><time>2026-04-21T09:58:48.665Z</time></trkpt><trkpt lat="44.5906883" lon="8.7926383"><ele>539.8000000000001</ele><time>2026-04-21T09:58:49.665Z</time></trkpt><trkpt lat="44.5906667" lon="8.7924967"><ele>536.2</ele><time>2026-04-21T09:58:50.665Z</time></trkpt><trkpt lat="44.590665" lon="8.7923633"><ele>532.6</ele><time>2026-04-21T09:58:51.666Z</time></trkpt><trkpt lat="44.5906617" lon="8.792255"><ele>529.0</ele><time>2026-04-21T09:58:52.666Z</time></trkpt><trkpt lat="44.59066" lon="8.792135"><ele>529.0</ele><time>2026-04-21T09:58:53.665Z</time></trkpt><trkpt lat="44.590635" lon="8.79205"><ele>529.0</ele><time>2026-04-21T09:58:54.666Z</time></trkpt><trkpt lat="44.59059" lon="8.7919733"><ele>529.0</ele><time>2026-04-21T09:58:55.665Z</time></trkpt><trkpt lat="44.5905167" lon="8.791885"><ele>529.0</ele><time>2026-04-21T09:58:56.666Z</time></trkpt><trkpt lat="44.5904483" lon="8.7917917"><ele>529.0</ele><time>2026-04-21T09:58:57.666Z</time></trkpt><trkpt lat="44.5903733" lon="8.7917367"><ele>529.0</ele><time>2026-04-21T09:58:58.665Z</time></trkpt><trkpt lat="44.5902983" lon="8.791725"><ele>530.5</ele><time>2026-04-21T09:58:59.666Z</time></trkpt><trkpt lat="44.590235" lon="8.7917433"><ele>532.0</ele><time>2026-04-21T09:59:00.665Z</time></trkpt><trkpt lat="44.5901667" lon="8.79178"><ele>533.5</ele><time>2026-04-21T09:59:01.665Z</time></trkpt><trkpt lat="44.59011" lon="8.791865"><ele>535.0</ele><time>2026-04-21T09:59:02.666Z</time></trkpt><trkpt lat="44.5900483" lon="8.7919883"><ele>536.5</ele><time>2026-04-21T09:59:03.665Z</time></trkpt><trkpt lat="44.5899717" lon="8.7921183"><ele>538.0</ele><time>2026-04-21T09:59:04.665Z</time></trkpt><trkpt lat="44.5898767" lon="8.7922083"><ele>538.0</ele><time>2026-04-21T09:59:05.665Z</time></trkpt><trkpt lat="44.589785" lon="8.7922783"><ele>538.0</ele><time>2026-04-21T09:59:06.666Z</time></trkpt><trkpt lat="44.5897017" lon="8.7923483"><ele>538.0</ele><time>2026-04-21T09:59:07.665Z</time></trkpt><trkpt lat="44.5896067" lon="8.7924317"><ele>538.0</ele><time>2026-04-21T09:59:08.666Z</time></trkpt><trkpt lat="44.58951" lon="8.79252"><ele>538.0</ele><time>2026-04-21T09:59:09.666Z</time></trkpt><trkpt lat="44.5894017" lon="8.7926333"><ele>539.25</ele><time>2026-04-21T09:59:10.665Z</time></trkpt><trkpt lat="44.5892983" lon="8.7927567"><ele>540.5</ele><time>2026-04-21T09:59:11.666Z</time></trkpt><trkpt lat="44.5892133" lon="8.7928817"><ele>541.75</ele><time>2026-04-21T09:59:12.666Z</time></trkpt><trkpt lat="44.5891383" lon="8.79302"><ele>543.0</ele><time>2026-04-21T09:59:13.665Z</time></trkpt><trkpt lat="44.5890717" lon="8.79314"><ele>543.0</ele><time>2026-04-21T09:59:14.666Z</time></trkpt><trkpt lat="44.589005" lon="8.7932483"><ele>543.0</ele><time>2026-04-21T09:59:15.666Z</time></trkpt><trkpt lat="44.5889433" lon="8.793325"><ele>543.0</ele><time>2026-04-21T09:59:16.666Z</time></trkpt><trkpt lat="44.5888783" lon="8.7933633"><ele>543.0</ele><time>2026-04-21T09:59:17.665Z</time></trkpt><trkpt lat="44.5888067" lon="8.7933733"><ele>543.0</ele><time>2026-04-21T09:59:18.666Z</time></trkpt><trkpt lat="44.5887283" lon="8.7933433"><ele>543.0</ele><time>2026-04-21T09:59:19.666Z</time></trkpt><trkpt lat="44.5886567" lon="8.7932767"><ele>545.25</ele><time>2026-04-21T09:59:20.666Z</time></trkpt><trkpt lat="44.58859" lon="8.7931533"><ele>547.5</ele><time>2026-04-21T09:59:21.665Z</time></trkpt><trkpt lat="44.5885317" lon="8.792975"><ele>549.75</ele><time>2026-04-21T09:59:22.665Z</time></trkpt><trkpt lat="44.5885033" lon="8.792775"><ele>552.0</ele><time>2026-04-21T09:59:23.665Z</time></trkpt><trkpt lat="44.58847" lon="8.7925983"><ele>546.6</ele><time>2026-04-21T09:59:24.665Z</time></trkpt><trkpt lat="44.5884283" lon="8.7924567"><ele>541.2</ele><time>2026-04-21T09:59:25.665Z</time></trkpt><trkpt lat="44.5883817" lon="8.79234"><ele>535.8</ele><time>2026-04-21T09:59:26.666Z</time></trkpt><trkpt lat="44.58833" lon="8.79224"><ele>530.4</ele><time>2026-04-21T09:59:27.666Z</time></trkpt><trkpt lat="44.5882833" lon="8.7921633"><ele>525.0</ele><time>2026-04-21T09:59:28.666Z</time></trkpt><trkpt lat="44.5881683" lon="8.792105"><ele>525.0</ele><time>2026-04-21T09:59:30.666Z</time></trkpt><trkpt lat="44.58808" lon="8.7921317"><ele>525.0</ele><time>2026-04-21T09:59:31.665Z</time></trkpt><trkpt lat="44.5879783" lon="8.79217"><ele>525.0</ele><time>2026-04-21T09:59:32.665Z</time></trkpt><trkpt lat="44.58786" lon="8.7922017"><ele>525.0</ele><time>2026-04-21T09:59:33.666Z</time></trkpt><trkpt lat="44.58773" lon="8.7922233"><ele>525.0</ele><time>2026-04-21T09:59:34.666Z</time></trkpt><trkpt lat="44.5876033" lon="8.79222"><ele>530.5</ele><time>2026-04-21T09:59:35.665Z</time></trkpt><trkpt lat="44.5874883" lon="8.7922083"><ele>536.0</ele><time>2026-04-21T09:59:36.666Z</time></trkpt><trkpt lat="44.58738" lon="8.7921717"><ele>541.5</ele><time>2026-04-21T09:59:37.665Z</time></trkpt><trkpt lat="44.5872683" lon="8.7921217"><ele>547.0</ele><time>2026-04-21T09:59:38.666Z</time></trkpt><trkpt lat="44.5871483" lon="8.792065"><ele>547.0</ele><time>2026-04-21T09:59:39.665Z</time></trkpt><trkpt lat="44.5870233" lon="8.79202"><ele>547.0</ele><time>2026-04-21T09:59:40.665Z</time></trkpt><trkpt lat="44.5869033" lon="8.7919767"><ele>547.0</ele><time>2026-04-21T09:59:41.665Z</time></trkpt><trkpt lat="44.5868017" lon="8.791925"><ele>547.0</ele><time>2026-04-21T09:59:42.666Z</time></trkpt><trkpt lat="44.58672" lon="8.7918483"><ele>544.8333333333334</ele><time>2026-04-21T09:59:43.665Z</time></trkpt><trkpt lat="44.5866517" lon="8.791745"><ele>542.6666666666667</ele><time>2026-04-21T09:59:44.666Z</time></trkpt><trkpt lat="44.5865983" lon="8.791625"><ele>540.5</ele><time>2026-04-21T09:59:45.666Z</time></trkpt><trkpt lat="44.58655" lon="8.791515"><ele>538.3333333333334</ele><time>2026-04-21T09:59:46.666Z</time></trkpt><trkpt lat="44.5865117" lon="8.7914317"><ele>536.1666666666666</ele><time>2026-04-21T09:59:47.666Z</time></trkpt><trkpt lat="44.58646" lon="8.7913617"><ele>534.0</ele><time>2026-04-21T09:59:48.666Z</time></trkpt><trkpt lat="44.5864017" lon="8.7912867"><ele>534.0</ele><time>2026-04-21T09:59:49.665Z</time></trkpt><trkpt lat="44.5863267" lon="8.79122"><ele>534.0</ele><time>2026-04-21T09:59:50.666Z</time></trkpt><trkpt lat="44.5862433" lon="8.79117"><ele>534.0</ele><time>2026-04-21T09:59:51.665Z</time></trkpt><trkpt lat="44.5861633" lon="8.7911383"><ele>534.0</ele><time>2026-04-21T09:59:52.665Z</time></trkpt><trkpt lat="44.5860867" lon="8.7911433"><ele>534.0</ele><time>2026-04-21T09:59:53.666Z</time></trkpt><trkpt lat="44.58602" lon="8.79119"><ele>534.0</ele><time>2026-04-21T09:59:54.666Z</time></trkpt><trkpt lat="44.5859583" lon="8.7912867"><ele>534.2</ele><time>2026-04-21T09:59:55.665Z</time></trkpt><trkpt lat="44.5859" lon="8.7914017"><ele>534.4</ele><time>2026-04-21T09:59:56.665Z</time></trkpt><trkpt lat="44.58585" lon="8.791555"><ele>534.6</ele><time>2026-04-21T09:59:57.666Z</time></trkpt><trkpt lat="44.58579" lon="8.79168"><ele>534.8</ele><time>2026-04-21T09:59:58.665Z</time></trkpt><trkpt lat="44.5857333" lon="8.79177"><ele>535.0</ele><time>2026-04-21T09:59:59.666Z</time></trkpt><trkpt lat="44.5856783" lon="8.79182"><ele>535.0</ele><time>2026-04-21T10:00:00.666Z</time></trkpt><trkpt lat="44.5855633" lon="8.791785"><ele>535.0</ele><time>2026-04-21T10:00:02.665Z</time></trkpt><trkpt lat="44.5855133" lon="8.7917067"><ele>535.0</ele><time>2026-04-21T10:00:03.665Z</time></trkpt><trkpt lat="44.5854683" lon="8.7916117"><ele>535.0</ele><time>2026-04-21T10:00:04.665Z</time></trkpt><trkpt lat="44.585445" lon="8.7914817"><ele>535.0</ele><time>2026-04-21T10:00:05.665Z</time></trkpt><trkpt lat="44.5854167" lon="8.7913517"><ele>535.0</ele><time>2026-04-21T10:00:06.665Z</time></trkpt><trkpt lat="44.585365" lon="8.7912233"><ele>535.0</ele><time>2026-04-21T10:00:07.666Z</time></trkpt><trkpt lat="44.5853133" lon="8.7910933"><ele>535.0</ele><time>2026-04-21T10:00:08.665Z</time></trkpt><trkpt lat="44.5852583" lon="8.790955"><ele>535.0</ele><time>2026-04-21T10:00:09.665Z</time></trkpt><trkpt lat="44.58521" lon="8.7908083"><ele>535.0</ele><time>2026-04-21T10:00:10.666Z</time></trkpt><trkpt lat="44.5851633" lon="8.7906567"><ele>533.4</ele><time>2026-04-21T10:00:11.665Z</time></trkpt><trkpt lat="44.5851417" lon="8.7905267"><ele>531.8</ele><time>2026-04-21T10:00:12.666Z</time></trkpt><trkpt lat="44.58512" lon="8.7904267"><ele>530.2</ele><time>2026-04-21T10:00:13.666Z</time></trkpt><trkpt lat="44.5850317" lon="8.79033"><ele>528.6</ele><time>2026-04-21T10:00:15.665Z</time></trkpt><trkpt lat="44.5848967" lon="8.7903433"><ele>527.0</ele><time>2026-04-21T10:00:17.666Z</time></trkpt><trkpt lat="44.5848117" lon="8.7904067"><ele>527.0</ele><time>2026-04-21T10:00:18.666Z</time></trkpt><trkpt lat="44.5847233" lon="8.7904867"><ele>527.0</ele><time>2026-04-21T10:00:19.666Z</time></trkpt><trkpt lat="44.58465" lon="8.7905683"><ele>527.0</ele><time>2026-04-21T10:00:20.667Z</time></trkpt><trkpt lat="44.5845733" lon="8.7906433"><ele>527.0</ele><time>2026-04-21T10:00:21.667Z</time></trkpt><trkpt lat="44.5844983" lon="8.790685"><ele>527.0</ele><time>2026-04-21T10:00:22.666Z</time></trkpt><trkpt lat="44.5844183" lon="8.7906983"><ele>526.4</ele><time>2026-04-21T10:00:23.666Z</time></trkpt><trkpt lat="44.58435" lon="8.79068"><ele>525.8000000000001</ele><time>2026-04-21T10:00:24.666Z</time></trkpt><trkpt lat="44.5842833" lon="8.7906883"><ele>525.2</ele><time>2026-04-21T10:00:25.666Z</time></trkpt><trkpt lat="44.5841633" lon="8.7907683"><ele>524.6</ele><time>2026-04-21T10:00:27.666Z</time></trkpt><trkpt lat="44.584085" lon="8.7908233"><ele>524.0</ele><time>2026-04-21T10:00:28.666Z</time></trkpt><trkpt lat="44.5839817" lon="8.7908817"><ele>524.0</ele><time>2026-04-21T10:00:29.667Z</time></trkpt><trkpt lat="44.5838633" lon="8.7909683"><ele>524.0</ele><time>2026-04-21T10:00:30.667Z</time></trkpt><trkpt lat="44.583735" lon="8.7910583"><ele>524.0</ele><time>2026-04-21T10:00:31.667Z</time></trkpt><trkpt lat="44.58363" lon="8.791135"><ele>524.0</ele><time>2026-04-21T10:00:32.666Z</time></trkpt><trkpt lat="44.58353" lon="8.7911867"><ele>530.0</ele><time>2026-04-21T10:00:33.667Z</time></trkpt><trkpt lat="44.5834283" lon="8.7912217"><ele>536.0</ele><time>2026-04-21T10:00:34.666Z</time></trkpt><trkpt lat="44.58332" lon="8.7912283"><ele>542.0</ele><time>2026-04-21T10:00:35.666Z</time></trkpt><trkpt lat="44.58321" lon="8.7912217"><ele>548.0</ele><time>2026-04-21T10:00:36.666Z</time></trkpt><trkpt lat="44.5830917" lon="8.79121"><ele>554.0</ele><time>2026-04-21T10:00:37.666Z</time></trkpt><trkpt lat="44.5829767" lon="8.7911883"><ele>554.0</ele><time>2026-04-21T10:00:38.667Z</time></trkpt><trkpt lat="44.5828683" lon="8.7911533"><ele>554.0</ele><time>2026-04-21T10:00:39.667Z</time></trkpt><trkpt lat="44.5827683" lon="8.7911083"><ele>554.0</ele><time>2026-04-21T10:00:40.667Z</time></trkpt><trkpt lat="44.58268" lon="8.791075"><ele>554.0</ele><time>2026-04-21T10:00:41.667Z</time></trkpt><trkpt lat="44.58259" lon="8.79107"><ele>554.0</ele><time>2026-04-21T10:00:42.667Z</time></trkpt><trkpt lat="44.5824917" lon="8.7911"><ele>553.5</ele><time>2026-04-21T10:00:43.666Z</time></trkpt><trkpt lat="44.5823967" lon="8.791145"><ele>553.0</ele><time>2026-04-21T10:00:44.667Z</time></trkpt><trkpt lat="44.5823067" lon="8.791205"><ele>552.5</ele><time>2026-04-21T10:00:45.667Z</time></trkpt><trkpt lat="44.5822217" lon="8.791235"><ele>552.0</ele><time>2026-04-21T10:00:46.667Z</time></trkpt><trkpt lat="44.58214" lon="8.79123"><ele>551.5</ele><time>2026-04-21T10:00:47.667Z</time></trkpt><trkpt lat="44.5820733" lon="8.7911817"><ele>551.0</ele><time>2026-04-21T10:00:48.666Z</time></trkpt><trkpt lat="44.5820283" lon="8.791085"><ele>546.0</ele><time>2026-04-21T10:00:49.666Z</time></trkpt><trkpt lat="44.58198" lon="8.7909967"><ele>541.0</ele><time>2026-04-21T10:00:50.667Z</time></trkpt><trkpt lat="44.5819167" lon="8.79093"><ele>536.0</ele><time>2026-04-21T10:00:51.666Z</time></trkpt><trkpt lat="44.5818417" lon="8.79088"><ele>531.0</ele><time>2026-04-21T10:00:52.667Z</time></trkpt><trkpt lat="44.5817467" lon="8.7908517"><ele>526.0</ele><time>2026-04-21T10:00:53.666Z</time></trkpt><trkpt lat="44.5816383" lon="8.7908333"><ele>521.0</ele><time>2026-04-21T10:00:54.666Z</time></trkpt><trkpt lat="44.581515" lon="8.7908317"><ele>521.0</ele><time>2026-04-21T10:00:55.667Z</time></trkpt><trkpt lat="44.581415" lon="8.7908483"><ele>521.0</ele><time>2026-04-21T10:00:56.666Z</time></trkpt><trkpt lat="44.581325" lon="8.790855"><ele>521.0</ele><time>2026-04-21T10:00:57.666Z</time></trkpt><trkpt lat="44.58125" lon="8.7908333"><ele>521.0</ele><time>2026-04-21T10:00:58.667Z</time></trkpt><trkpt lat="44.5811767" lon="8.7907717"><ele>521.0</ele><time>2026-04-21T10:00:59.667Z</time></trkpt><trkpt lat="44.5811017" lon="8.7906667"><ele>521.6</ele><time>2026-04-21T10:01:00.667Z</time></trkpt><trkpt lat="44.5810317" lon="8.7905367"><ele>522.2</ele><time>2026-04-21T10:01:01.666Z</time></trkpt><trkpt lat="44.5809717" lon="8.7904083"><ele>522.8</ele><time>2026-04-21T10:01:02.667Z</time></trkpt><trkpt lat="44.580925" lon="8.7902917"><ele>523.4</ele><time>2026-04-21T10:01:03.666Z</time></trkpt><trkpt lat="44.5808967" lon="8.7901867"><ele>524.0</ele><time>2026-04-21T10:01:04.666Z</time></trkpt><trkpt lat="44.5808817" lon="8.7900583"><ele>524.0</ele><time>2026-04-21T10:01:05.667Z</time></trkpt><trkpt lat="44.5808617" lon="8.7899167"><ele>524.0</ele><time>2026-04-21T10:01:06.667Z</time></trkpt><trkpt lat="44.580845" lon="8.789765"><ele>524.0</ele><time>2026-04-21T10:01:07.666Z</time></trkpt><trkpt lat="44.58083" lon="8.789635"><ele>524.0</ele><time>2026-04-21T10:01:08.666Z</time></trkpt><trkpt lat="44.5808217" lon="8.789515"><ele>524.0</ele><time>2026-04-21T10:01:09.666Z</time></trkpt><trkpt lat="44.580805" lon="8.7893867"><ele>521.0</ele><time>2026-04-21T10:01:10.666Z</time></trkpt><trkpt lat="44.58077" lon="8.789265"><ele>518.0</ele><time>2026-04-21T10:01:11.667Z</time></trkpt><trkpt lat="44.5807383" lon="8.7891533"><ele>515.0</ele><time>2026-04-21T10:01:12.667Z</time></trkpt><trkpt lat="44.5807" lon="8.789055"><ele>512.0</ele><time>2026-04-21T10:01:13.666Z</time></trkpt><trkpt lat="44.5806483" lon="8.7889633"><ele>508.99999999999994</ele><time>2026-04-21T10:01:14.667Z</time></trkpt><trkpt lat="44.5805733" lon="8.7888833"><ele>506.0</ele><time>2026-04-21T10:01:15.667Z</time></trkpt><trkpt lat="44.5805033" lon="8.7888117"><ele>506.0</ele><time>2026-04-21T10:01:16.666Z</time></trkpt><trkpt lat="44.5804433" lon="8.78874"><ele>506.0</ele><time>2026-04-21T10:01:17.666Z</time></trkpt><trkpt lat="44.5803867" lon="8.7886617"><ele>506.0</ele><time>2026-04-21T10:01:18.667Z</time></trkpt><trkpt lat="44.5803367" lon="8.78855"><ele>506.0</ele><time>2026-04-21T10:01:19.666Z</time></trkpt><trkpt lat="44.5802883" lon="8.788425"><ele>506.0</ele><time>2026-04-21T10:01:20.666Z</time></trkpt><trkpt lat="44.5802367" lon="8.7882933"><ele>514.5</ele><time>2026-04-21T10:01:21.666Z</time></trkpt><trkpt lat="44.580175" lon="8.7881633"><ele>523.0</ele><time>2026-04-21T10:01:22.667Z</time></trkpt><trkpt lat="44.5801133" lon="8.7880283"><ele>531.5</ele><time>2026-04-21T10:01:23.666Z</time></trkpt><trkpt lat="44.5800483" lon="8.7878933"><ele>540.0</ele><time>2026-04-21T10:01:24.667Z</time></trkpt><trkpt lat="44.57997" lon="8.7877667"><ele>535.6</ele><time>2026-04-21T10:01:25.666Z</time></trkpt><trkpt lat="44.579915" lon="8.7876483"><ele>531.2</ele><time>2026-04-21T10:01:26.666Z</time></trkpt><trkpt lat="44.5798617" lon="8.7875333"><ele>526.8</ele><time>2026-04-21T10:01:27.667Z</time></trkpt><trkpt lat="44.5798033" lon="8.7874267"><ele>522.4</ele><time>2026-04-21T10:01:28.666Z</time></trkpt><trkpt lat="44.5797483" lon="8.7873233"><ele>518.0</ele><time>2026-04-21T10:01:29.667Z</time></trkpt><trkpt lat="44.5797067" lon="8.787225"><ele>518.0</ele><time>2026-04-21T10:01:30.667Z</time></trkpt><trkpt lat="44.5796783" lon="8.78713"><ele>518.0</ele><time>2026-04-21T10:01:31.667Z</time></trkpt><trkpt lat="44.5796717" lon="8.7870333"><ele>518.0</ele><time>2026-04-21T10:01:32.666Z</time></trkpt><trkpt lat="44.5796867" lon="8.7869283"><ele>518.0</ele><time>2026-04-21T10:01:33.666Z</time></trkpt><trkpt lat="44.5797033" lon="8.7868267"><ele>518.0</ele><time>2026-04-21T10:01:34.667Z</time></trkpt><trkpt lat="44.5797267" lon="8.7867117"><ele>518.0</ele><time>2026-04-21T10:01:35.667Z</time></trkpt><trkpt lat="44.57974" lon="8.7865917"><ele>514.6</ele><time>2026-04-21T10:01:36.667Z</time></trkpt><trkpt lat="44.579735" lon="8.7864633"><ele>511.19999999999993</ele><time>2026-04-21T10:01:37.667Z</time></trkpt><trkpt lat="44.579695" lon="8.7863467"><ele>507.8</ele><time>2026-04-21T10:01:38.667Z</time></trkpt><trkpt lat="44.579645" lon="8.7862283"><ele>504.4</ele><time>2026-04-21T10:01:39.666Z</time></trkpt><trkpt lat="44.5796133" lon="8.786095"><ele>501.0</ele><time>2026-04-21T10:01:40.667Z</time></trkpt><trkpt lat="44.57961" lon="8.7859633"><ele>499.6</ele><time>2026-04-21T10:01:41.667Z</time></trkpt><trkpt lat="44.5796067" lon="8.7858483"><ele>498.20000000000005</ele><time>2026-04-21T10:01:42.667Z</time></trkpt><trkpt lat="44.579595" lon="8.7857217"><ele>496.79999999999995</ele><time>2026-04-21T10:01:43.667Z</time></trkpt><trkpt lat="44.5795567" lon="8.78557"><ele>495.4</ele><time>2026-04-21T10:01:44.666Z</time></trkpt><trkpt lat="44.579515" lon="8.78541"><ele>494.0</ele><time>2026-04-21T10:01:45.667Z</time></trkpt><trkpt lat="44.5794883" lon="8.785255"><ele>500.4</ele><time>2026-04-21T10:01:46.666Z</time></trkpt><trkpt lat="44.5794617" lon="8.785115"><ele>506.79999999999995</ele><time>2026-04-21T10:01:47.667Z</time></trkpt><trkpt lat="44.5794367" lon="8.784985"><ele>513.2</ele><time>2026-04-21T10:01:48.667Z</time></trkpt><trkpt lat="44.57941" lon="8.784855"><ele>519.6</ele><time>2026-04-21T10:01:49.667Z</time></trkpt><trkpt lat="44.5793783" lon="8.784725"><ele>526.0</ele><time>2026-04-21T10:01:50.666Z</time></trkpt><trkpt lat="44.5793433" lon="8.7845917"><ele>526.0</ele><time>2026-04-21T10:01:51.667Z</time></trkpt><trkpt lat="44.5793183" lon="8.7844583"><ele>526.0</ele><time>2026-04-21T10:01:52.667Z</time></trkpt><trkpt lat="44.579285" lon="8.7843333"><ele>526.0</ele><time>2026-04-21T10:01:53.666Z</time></trkpt><trkpt lat="44.5792517" lon="8.784245"><ele>526.0</ele><time>2026-04-21T10:01:54.667Z</time></trkpt><trkpt lat="44.5791717" lon="8.7841617"><ele>526.0</ele><time>2026-04-21T10:01:56.667Z</time></trkpt><trkpt lat="44.5790817" lon="8.784175"><ele>526.0</ele><time>2026-04-21T10:01:59.667Z</time></trkpt><trkpt lat="44.5789967" lon="8.7842333"><ele>526.0</ele><time>2026-04-21T10:02:02.667Z</time></trkpt><trkpt lat="44.5789433" lon="8.7843217"><ele>526.0</ele><time>2026-04-21T10:02:04.667Z</time></trkpt><trkpt lat="44.5789033" lon="8.7843917"><ele>526.0</ele><time>2026-04-21T10:02:05.667Z</time></trkpt><trkpt lat="44.5788667" lon="8.7844667"><ele>526.0</ele><time>2026-04-21T10:02:06.666Z</time></trkpt><trkpt lat="44.578825" lon="8.7845533"><ele>526.0</ele><time>2026-04-21T10:02:07.667Z</time></trkpt><trkpt lat="44.5787833" lon="8.7846567"><ele>526.0</ele><time>2026-04-21T10:02:08.666Z</time></trkpt><trkpt lat="44.5787417" lon="8.78477"><ele>526.0</ele><time>2026-04-21T10:02:09.666Z</time></trkpt><trkpt lat="44.5786933" lon="8.7849067"><ele>526.0</ele><time>2026-04-21T10:02:10.667Z</time></trkpt><trkpt lat="44.5786467" lon="8.7850417"><ele>526.0</ele><time>2026-04-21T10:02:11.666Z</time></trkpt><trkpt lat="44.578595" lon="8.7851867"><ele>526.0</ele><time>2026-04-21T10:02:12.667Z</time></trkpt><trkpt lat="44.5785417" lon="8.7853317"><ele>526.5</ele><time>2026-04-21T10:02:13.667Z</time></trkpt><trkpt lat="44.5784817" lon="8.7854767"><ele>527.0</ele><time>2026-04-21T10:02:14.666Z</time></trkpt><trkpt lat="44.5784183" lon="8.7856117"><ele>527.5</ele><time>2026-04-21T10:02:15.666Z</time></trkpt><trkpt lat="44.5783467" lon="8.7857267"><ele>528.0</ele><time>2026-04-21T10:02:16.666Z</time></trkpt><trkpt lat="44.5782633" lon="8.7858433"><ele>528.0</ele><time>2026-04-21T10:02:17.666Z</time></trkpt><trkpt lat="44.5781817" lon="8.785965"><ele>528.0</ele><time>2026-04-21T10:02:18.667Z</time></trkpt><trkpt lat="44.5781017" lon="8.7861033"><ele>528.0</ele><time>2026-04-21T10:02:19.666Z</time></trkpt><trkpt lat="44.5780167" lon="8.786225"><ele>528.0</ele><time>2026-04-21T10:02:20.666Z</time></trkpt><trkpt lat="44.57792" lon="8.7863333"><ele>524.5</ele><time>2026-04-21T10:02:21.667Z</time></trkpt><trkpt lat="44.5778233" lon="8.78646"><ele>521.0</ele><time>2026-04-21T10:02:22.667Z</time></trkpt><trkpt lat="44.5777317" lon="8.786585"><ele>517.5</ele><time>2026-04-21T10:02:23.666Z</time></trkpt><trkpt lat="44.5776383" lon="8.7867233"><ele>514.0</ele><time>2026-04-21T10:02:24.666Z</time></trkpt><trkpt lat="44.5775567" lon="8.7868683"><ele>522.25</ele><time>2026-04-21T10:02:25.667Z</time></trkpt><trkpt lat="44.5774767" lon="8.7870017"><ele>530.5</ele><time>2026-04-21T10:02:26.667Z</time></trkpt><trkpt lat="44.5773767" lon="8.7871167"><ele>538.75</ele><time>2026-04-21T10:02:27.666Z</time></trkpt><trkpt lat="44.57727" lon="8.7872283"><ele>547.0</ele><time>2026-04-21T10:02:28.666Z</time></trkpt><trkpt lat="44.5771667" lon="8.7873583"><ele>547.0</ele><time>2026-04-21T10:02:29.667Z</time></trkpt><trkpt lat="44.577075" lon="8.78749"><ele>547.0</ele><time>2026-04-21T10:02:30.667Z</time></trkpt><trkpt lat="44.5769817" lon="8.7876067"><ele>547.0</ele><time>2026-04-21T10:02:31.667Z</time></trkpt><trkpt lat="44.57688" lon="8.7877133"><ele>547.0</ele><time>2026-04-21T10:02:32.666Z</time></trkpt><trkpt lat="44.5767933" lon="8.78781"><ele>545.6666666666667</ele><time>2026-04-21T10:02:33.666Z</time></trkpt><trkpt lat="44.5767117" lon="8.7878833"><ele>544.3333333333334</ele><time>2026-04-21T10:02:34.666Z</time></trkpt><trkpt lat="44.57664" lon="8.7879583"><ele>543.0</ele><time>2026-04-21T10:02:35.666Z</time></trkpt><trkpt lat="44.5765817" lon="8.7880467"><ele>541.6666666666666</ele><time>2026-04-21T10:02:36.666Z</time></trkpt><trkpt lat="44.5765233" lon="8.7881383"><ele>540.3333333333333</ele><time>2026-04-21T10:02:37.666Z</time></trkpt><trkpt lat="44.5764633" lon="8.788225"><ele>539.0</ele><time>2026-04-21T10:02:38.667Z</time></trkpt><trkpt lat="44.576405" lon="8.7882967"><ele>539.0</ele><time>2026-04-21T10:02:39.666Z</time></trkpt><trkpt lat="44.5763383" lon="8.78835"><ele>539.0</ele><time>2026-04-21T10:02:40.667Z</time></trkpt><trkpt lat="44.5762633" lon="8.7883767"><ele>539.0</ele><time>2026-04-21T10:02:41.667Z</time></trkpt><trkpt lat="44.5761933" lon="8.78837"><ele>539.0</ele><time>2026-04-21T10:02:42.667Z</time></trkpt><trkpt lat="44.5761183" lon="8.7883467"><ele>539.0</ele><time>2026-04-21T10:02:43.666Z</time></trkpt><trkpt lat="44.5760517" lon="8.788335"><ele>539.0</ele><time>2026-04-21T10:02:44.666Z</time></trkpt><trkpt lat="44.5759517" lon="8.7883817"><ele>537.25</ele><time>2026-04-21T10:02:46.666Z</time></trkpt><trkpt lat="44.5758817" lon="8.7885483"><ele>535.5</ele><time>2026-04-21T10:02:48.667Z</time></trkpt><trkpt lat="44.5758317" lon="8.7886817"><ele>533.75</ele><time>2026-04-21T10:02:49.666Z</time></trkpt><trkpt lat="44.5757783" lon="8.7888167"><ele>532.0</ele><time>2026-04-21T10:02:50.667Z</time></trkpt><trkpt lat="44.5757383" lon="8.7889583"><ele>532.0</ele><time>2026-04-21T10:02:51.667Z</time></trkpt><trkpt lat="44.5757117" lon="8.7890833"><ele>532.0</ele><time>2026-04-21T10:02:52.667Z</time></trkpt><trkpt lat="44.575695" lon="8.7891933"><ele>532.0</ele><time>2026-04-21T10:02:53.666Z</time></trkpt><trkpt lat="44.57566" lon="8.7892767"><ele>532.0</ele><time>2026-04-21T10:02:54.667Z</time></trkpt><trkpt lat="44.5755917" lon="8.7893483"><ele>532.0</ele><time>2026-04-21T10:02:55.666Z</time></trkpt><trkpt lat="44.575495" lon="8.789405"><ele>532.0</ele><time>2026-04-21T10:02:56.666Z</time></trkpt><trkpt lat="44.5753767" lon="8.7894617"><ele>533.6</ele><time>2026-04-21T10:02:57.666Z</time></trkpt><trkpt lat="44.5752633" lon="8.7895183"><ele>535.2</ele><time>2026-04-21T10:02:58.666Z</time></trkpt><trkpt lat="44.575155" lon="8.7895583"><ele>536.8</ele><time>2026-04-21T10:02:59.666Z</time></trkpt><trkpt lat="44.575045" lon="8.7895783"><ele>538.4</ele><time>2026-04-21T10:03:00.666Z</time></trkpt><trkpt lat="44.5749467" lon="8.789595"><ele>540.0</ele><time>2026-04-21T10:03:01.666Z</time></trkpt><trkpt lat="44.5748467" lon="8.7896067"><ele>540.0</ele><time>2026-04-21T10:03:02.666Z</time></trkpt><trkpt lat="44.5747467" lon="8.7896"><ele>540.0</ele><time>2026-04-21T10:03:03.667Z</time></trkpt><trkpt lat="44.5746367" lon="8.7895483"><ele>540.0</ele><time>2026-04-21T10:03:04.666Z</time></trkpt><trkpt lat="44.5745217" lon="8.7895"><ele>540.0</ele><time>2026-04-21T10:03:05.667Z</time></trkpt><trkpt lat="44.5744033" lon="8.7894517"><ele>538.25</ele><time>2026-04-21T10:03:06.667Z</time></trkpt><trkpt lat="44.5742717" lon="8.7893967"><ele>536.5</ele><time>2026-04-21T10:03:07.666Z</time></trkpt><trkpt lat="44.5741467" lon="8.7893583"><ele>534.75</ele><time>2026-04-21T10:03:08.666Z</time></trkpt><trkpt lat="44.57403" lon="8.7893317"><ele>533.0</ele><time>2026-04-21T10:03:09.667Z</time></trkpt><trkpt lat="44.5739167" lon="8.7893133"><ele>526.4</ele><time>2026-04-21T10:03:10.666Z</time></trkpt><trkpt lat="44.5737967" lon="8.7892817"><ele>519.8</ele><time>2026-04-21T10:03:11.666Z</time></trkpt><trkpt lat="44.5736933" lon="8.78924"><ele>513.2</ele><time>2026-04-21T10:03:12.667Z</time></trkpt><trkpt lat="44.5735933" lon="8.7891833"><ele>506.6</ele><time>2026-04-21T10:03:13.666Z</time></trkpt><trkpt lat="44.5734967" lon="8.7891333"><ele>500.0</ele><time>2026-04-21T10:03:14.667Z</time></trkpt><trkpt lat="44.5734017" lon="8.7890883"><ele>498.8333333333333</ele><time>2026-04-21T10:03:15.666Z</time></trkpt><trkpt lat="44.5733117" lon="8.7890583"><ele>497.66666666666663</ele><time>2026-04-21T10:03:16.667Z</time></trkpt><trkpt lat="44.5732217" lon="8.7890383"><ele>496.5</ele><time>2026-04-21T10:03:17.666Z</time></trkpt><trkpt lat="44.5731383" lon="8.7890117"><ele>495.33333333333337</ele><time>2026-04-21T10:03:18.666Z</time></trkpt><trkpt lat="44.5730517" lon="8.78898"><ele>494.1666666666667</ele><time>2026-04-21T10:03:19.666Z</time></trkpt><trkpt lat="44.572975" lon="8.78896"><ele>493.0</ele><time>2026-04-21T10:03:20.666Z</time></trkpt><trkpt lat="44.5729017" lon="8.7889483"><ele>494.2</ele><time>2026-04-21T10:03:21.666Z</time></trkpt><trkpt lat="44.572825" lon="8.788945"><ele>495.4</ele><time>2026-04-21T10:03:22.666Z</time></trkpt><trkpt lat="44.57274" lon="8.7889433"><ele>496.59999999999997</ele><time>2026-04-21T10:03:23.667Z</time></trkpt><trkpt lat="44.572665" lon="8.788955"><ele>497.79999999999995</ele><time>2026-04-21T10:03:24.666Z</time></trkpt><trkpt lat="44.5725783" lon="8.7890417"><ele>499.0</ele><time>2026-04-21T10:03:26.667Z</time></trkpt><trkpt lat="44.5725683" lon="8.7892233"><ele>498.6</ele><time>2026-04-21T10:03:28.666Z</time></trkpt><trkpt lat="44.57257" lon="8.7893433"><ele>498.2</ele><time>2026-04-21T10:03:29.666Z</time></trkpt><trkpt lat="44.5725567" lon="8.7894833"><ele>497.80000000000007</ele><time>2026-04-21T10:03:30.667Z</time></trkpt><trkpt lat="44.572535" lon="8.789645"><ele>497.40000000000003</ele><time>2026-04-21T10:03:31.666Z</time></trkpt><trkpt lat="44.5725067" lon="8.7898217"><ele>497.0</ele><time>2026-04-21T10:03:32.666Z</time></trkpt><trkpt lat="44.572475" lon="8.7900033"><ele>498.0</ele><time>2026-04-21T10:03:33.666Z</time></trkpt><trkpt lat="44.5724567" lon="8.7901917"><ele>499.0</ele><time>2026-04-21T10:03:34.666Z</time></trkpt><trkpt lat="44.572455" lon="8.7903717"><ele>500.0</ele><time>2026-04-21T10:03:35.666Z</time></trkpt><trkpt lat="44.5724567" lon="8.7905433"><ele>501.0</ele><time>2026-04-21T10:03:36.666Z</time></trkpt><trkpt lat="44.5724583" lon="8.79071"><ele>501.0</ele><time>2026-04-21T10:03:37.667Z</time></trkpt><trkpt lat="44.572455" lon="8.7908717"><ele>501.0</ele><time>2026-04-21T10:03:38.667Z</time></trkpt><trkpt lat="44.5724417" lon="8.7910217"><ele>501.0</ele><time>2026-04-21T10:03:39.666Z</time></trkpt><trkpt lat="44.5724067" lon="8.7911733"><ele>501.0</ele><time>2026-04-21T10:03:40.667Z</time></trkpt><trkpt lat="44.5723683" lon="8.79133"><ele>502.0</ele><time>2026-04-21T10:03:41.667Z</time></trkpt><trkpt lat="44.5723267" lon="8.7915033"><ele>503.0</ele><time>2026-04-21T10:03:42.666Z</time></trkpt><trkpt lat="44.5722967" lon="8.7916867"><ele>504.0</ele><time>2026-04-21T10:03:43.667Z</time></trkpt><trkpt lat="44.57229" lon="8.7918767"><ele>505.0</ele><time>2026-04-21T10:03:44.666Z</time></trkpt><trkpt lat="44.572295" lon="8.7920767"><ele>505.0</ele><time>2026-04-21T10:03:45.667Z</time></trkpt><trkpt lat="44.5723" lon="8.7922783"><ele>505.0</ele><time>2026-04-21T10:03:46.667Z</time></trkpt><trkpt lat="44.5722933" lon="8.7924433"><ele>505.0</ele><time>2026-04-21T10:03:47.666Z</time></trkpt><trkpt lat="44.5722767" lon="8.7925483"><ele>505.0</ele><time>2026-04-21T10:03:48.667Z</time></trkpt><trkpt lat="44.5722" lon="8.7926433"><ele>505.0</ele><time>2026-04-21T10:03:50.667Z</time></trkpt><trkpt lat="44.5721183" lon="8.7925717"><ele>505.0</ele><time>2026-04-21T10:03:52.666Z</time></trkpt><trkpt lat="44.5720917" lon="8.7924883"><ele>505.0</ele><time>2026-04-21T10:03:53.667Z</time></trkpt><trkpt lat="44.5720667" lon="8.792385"><ele>505.0</ele><time>2026-04-21T10:03:54.666Z</time></trkpt><trkpt lat="44.5720383" lon="8.7922617"><ele>505.0</ele><time>2026-04-21T10:03:55.667Z</time></trkpt><trkpt lat="44.5719967" lon="8.79213"><ele>505.0</ele><time>2026-04-21T10:03:56.666Z</time></trkpt><trkpt lat="44.571955" lon="8.7919717"><ele>512.75</ele><time>2026-04-21T10:03:57.667Z</time></trkpt><trkpt lat="44.5719117" lon="8.7918133"><ele>520.5</ele><time>2026-04-21T10:03:58.666Z</time></trkpt><trkpt lat="44.571875" lon="8.7916517"><ele>528.25</ele><time>2026-04-21T10:03:59.667Z</time></trkpt><trkpt lat="44.5718433" lon="8.7914867"><ele>536.0</ele><time>2026-04-21T10:04:00.666Z</time></trkpt><trkpt lat="44.5718467" lon="8.7913233"><ele>536.0</ele><time>2026-04-21T10:04:01.667Z</time></trkpt><trkpt lat="44.571845" lon="8.7911717"><ele>536.0</ele><time>2026-04-21T10:04:02.666Z</time></trkpt><trkpt lat="44.5718567" lon="8.7910583"><ele>536.0</ele><time>2026-04-21T10:04:03.666Z</time></trkpt><trkpt lat="44.5718483" lon="8.790925"><ele>536.0</ele><time>2026-04-21T10:04:05.666Z</time></trkpt><trkpt lat="44.5717517" lon="8.7909517"><ele>536.0</ele><time>2026-04-21T10:04:07.666Z</time></trkpt><trkpt lat="44.5716983" lon="8.791025"><ele>536.0</ele><time>2026-04-21T10:04:08.667Z</time></trkpt><trkpt lat="44.5716533" lon="8.79115"><ele>536.0</ele><time>2026-04-21T10:04:09.666Z</time></trkpt><trkpt lat="44.5716117" lon="8.7913017"><ele>536.0</ele><time>2026-04-21T10:04:10.666Z</time></trkpt><trkpt lat="44.5715817" lon="8.7914717"><ele>536.0</ele><time>2026-04-21T10:04:11.667Z</time></trkpt><trkpt lat="44.5715667" lon="8.79164"><ele>536.0</ele><time>2026-04-21T10:04:12.666Z</time></trkpt><trkpt lat="44.5715717" lon="8.791805"><ele>536.0</ele><time>2026-04-21T10:04:13.667Z</time></trkpt><trkpt lat="44.57158" lon="8.7919817"><ele>536.0</ele><time>2026-04-21T10:04:14.666Z</time></trkpt><trkpt lat="44.571575" lon="8.792155"><ele>536.0</ele><time>2026-04-21T10:04:15.666Z</time></trkpt><trkpt lat="44.5715583" lon="8.7923383"><ele>536.0</ele><time>2026-04-21T10:04:16.666Z</time></trkpt><trkpt lat="44.5715383" lon="8.7925167"><ele>536.0</ele><time>2026-04-21T10:04:17.667Z</time></trkpt><trkpt lat="44.571525" lon="8.7926833"><ele>536.0</ele><time>2026-04-21T10:04:18.666Z</time></trkpt><trkpt lat="44.5715217" lon="8.7928633"><ele>536.0</ele><time>2026-04-21T10:04:19.667Z</time></trkpt><trkpt lat="44.571535" lon="8.7930317"><ele>534.2</ele><time>2026-04-21T10:04:20.666Z</time></trkpt><trkpt lat="44.5715267" lon="8.7931767"><ele>532.4000000000001</ele><time>2026-04-21T10:04:21.667Z</time></trkpt><trkpt lat="44.571505" lon="8.7933"><ele>530.6</ele><time>2026-04-21T10:04:22.667Z</time></trkpt><trkpt lat="44.57144" lon="8.7933983"><ele>528.8000000000001</ele><time>2026-04-21T10:04:24.666Z</time></trkpt><trkpt lat="44.57131" lon="8.79338"><ele>527.0</ele><time>2026-04-21T10:04:26.666Z</time></trkpt><trkpt lat="44.5712217" lon="8.7933083"><ele>532.0</ele><time>2026-04-21T10:04:27.666Z</time></trkpt><trkpt lat="44.5711283" lon="8.793235"><ele>537.0</ele><time>2026-04-21T10:04:28.666Z</time></trkpt><trkpt lat="44.5710333" lon="8.7931867"><ele>542.0</ele><time>2026-04-21T10:04:29.667Z</time></trkpt><trkpt lat="44.57094" lon="8.7931617"><ele>547.0</ele><time>2026-04-21T10:04:30.666Z</time></trkpt><trkpt lat="44.570845" lon="8.7931783"><ele>552.0</ele><time>2026-04-21T10:04:31.666Z</time></trkpt><trkpt lat="44.5707533" lon="8.7932283"><ele>552.0</ele><time>2026-04-21T10:04:32.666Z</time></trkpt><trkpt lat="44.5706583" lon="8.793285"><ele>552.0</ele><time>2026-04-21T10:04:33.667Z</time></trkpt><trkpt lat="44.5705567" lon="8.7933217"><ele>552.0</ele><time>2026-04-21T10:04:34.666Z</time></trkpt><trkpt lat="44.5704633" lon="8.7933333"><ele>552.0</ele><time>2026-04-21T10:04:35.666Z</time></trkpt><trkpt lat="44.5703833" lon="8.7933417"><ele>552.0</ele><time>2026-04-21T10:04:36.666Z</time></trkpt><trkpt lat="44.5702833" lon="8.7934217"><ele>554.3333333333334</ele><time>2026-04-21T10:04:38.666Z</time></trkpt><trkpt lat="44.5702517" lon="8.79357"><ele>556.6666666666666</ele><time>2026-04-21T10:04:40.666Z</time></trkpt><trkpt lat="44.5702817" lon="8.7936733"><ele>559.0</ele><time>2026-04-21T10:04:41.666Z</time></trkpt><trkpt lat="44.5703167" lon="8.79379"><ele>561.3333333333333</ele><time>2026-04-21T10:04:42.666Z</time></trkpt><trkpt lat="44.5703267" lon="8.7939067"><ele>563.6666666666666</ele><time>2026-04-21T10:04:43.667Z</time></trkpt><trkpt lat="44.5703067" lon="8.794015"><ele>566.0</ele><time>2026-04-21T10:04:44.667Z</time></trkpt><trkpt lat="44.5702667" lon="8.7941033"><ele>566.0</ele><time>2026-04-21T10:04:45.666Z</time></trkpt><trkpt lat="44.5701933" lon="8.7941817"><ele>566.0</ele><time>2026-04-21T10:04:46.666Z</time></trkpt><trkpt lat="44.5701033" lon="8.7942583"><ele>566.0</ele><time>2026-04-21T10:04:47.666Z</time></trkpt><trkpt lat="44.5699883" lon="8.794335"><ele>566.0</ele><time>2026-04-21T10:04:48.666Z</time></trkpt><trkpt lat="44.5698683" lon="8.7944067"><ele>566.6</ele><time>2026-04-21T10:04:49.666Z</time></trkpt><trkpt lat="44.5697683" lon="8.7944717"><ele>567.2</ele><time>2026-04-21T10:04:50.667Z</time></trkpt><trkpt lat="44.5696967" lon="8.7945283"><ele>567.8</ele><time>2026-04-21T10:04:51.667Z</time></trkpt><trkpt lat="44.5696183" lon="8.7945767"><ele>568.4</ele><time>2026-04-21T10:04:52.666Z</time></trkpt><trkpt lat="44.5695333" lon="8.794605"><ele>569.0</ele><time>2026-04-21T10:04:53.667Z</time></trkpt><trkpt lat="44.5694333" lon="8.79461"><ele>569.0</ele><time>2026-04-21T10:04:54.667Z</time></trkpt><trkpt lat="44.5693217" lon="8.794585"><ele>569.0</ele><time>2026-04-21T10:04:55.666Z</time></trkpt><trkpt lat="44.5692133" lon="8.7945783"><ele>569.0</ele><time>2026-04-21T10:04:56.666Z</time></trkpt><trkpt lat="44.5691" lon="8.794595"><ele>569.0</ele><time>2026-04-21T10:04:57.666Z</time></trkpt><trkpt lat="44.5689867" lon="8.7946333"><ele>569.0</ele><time>2026-04-21T10:04:58.667Z</time></trkpt><trkpt lat="44.568875" lon="8.794695"><ele>569.0</ele><time>2026-04-21T10:04:59.666Z</time></trkpt><trkpt lat="44.5687617" lon="8.7947683"><ele>569.0</ele><time>2026-04-21T10:05:00.666Z</time></trkpt><trkpt lat="44.5686433" lon="8.794825"><ele>569.0</ele><time>2026-04-21T10:05:01.666Z</time></trkpt><trkpt lat="44.5685117" lon="8.79486"><ele>574.25</ele><time>2026-04-21T10:05:02.666Z</time></trkpt><trkpt lat="44.5683733" lon="8.7949067"><ele>579.5</ele><time>2026-04-21T10:05:03.667Z</time></trkpt><trkpt lat="44.5682317" lon="8.7949633"><ele>584.75</ele><time>2026-04-21T10:05:04.667Z</time></trkpt><trkpt lat="44.56811" lon="8.7950283"><ele>590.0</ele><time>2026-04-21T10:05:05.666Z</time></trkpt><trkpt lat="44.568015" lon="8.7951083"><ele>586.2</ele><time>2026-04-21T10:05:06.667Z</time></trkpt><trkpt lat="44.5679283" lon="8.7952083"><ele>582.4</ele><time>2026-04-21T10:05:07.666Z</time></trkpt><trkpt lat="44.5678517" lon="8.795285"><ele>578.6</ele><time>2026-04-21T10:05:08.667Z</time></trkpt><trkpt lat="44.56776" lon="8.7953117"><ele>574.8</ele><time>2026-04-21T10:05:09.666Z</time></trkpt><trkpt lat="44.56767" lon="8.7952767"><ele>571.0</ele><time>2026-04-21T10:05:10.666Z</time></trkpt><trkpt lat="44.567595" lon="8.7951817"><ele>575.6</ele><time>2026-04-21T10:05:11.666Z</time></trkpt><trkpt lat="44.567555" lon="8.795065"><ele>580.2</ele><time>2026-04-21T10:05:12.666Z</time></trkpt><trkpt lat="44.567545" lon="8.7949283"><ele>584.8</ele><time>2026-04-21T10:05:13.666Z</time></trkpt><trkpt lat="44.5675683" lon="8.79478"><ele>589.4</ele><time>2026-04-21T10:05:14.667Z</time></trkpt><trkpt lat="44.5675917" lon="8.7946267"><ele>594.0</ele><time>2026-04-21T10:05:15.666Z</time></trkpt><trkpt lat="44.5676233" lon="8.7944583"><ele>596.0</ele><time>2026-04-21T10:05:16.667Z</time></trkpt><trkpt lat="44.5676567" lon="8.7943017"><ele>598.0</ele><time>2026-04-21T10:05:17.666Z</time></trkpt><trkpt lat="44.5677033" lon="8.7941633"><ele>600.0</ele><time>2026-04-21T10:05:18.667Z</time></trkpt><trkpt lat="44.567775" lon="8.7940617"><ele>602.0</ele><time>2026-04-21T10:05:19.666Z</time></trkpt><trkpt lat="44.5678683" lon="8.7939917"><ele>604.0</ele><time>2026-04-21T10:05:20.667Z</time></trkpt><trkpt lat="44.5679767" lon="8.79394"><ele>604.0</ele><time>2026-04-21T10:05:21.666Z</time></trkpt><trkpt lat="44.5680783" lon="8.7938767"><ele>604.0</ele><time>2026-04-21T10:05:22.666Z</time></trkpt><trkpt lat="44.5681683" lon="8.7937817"><ele>604.0</ele><time>2026-04-21T10:05:23.666Z</time></trkpt><trkpt lat="44.5682617" lon="8.7936617"><ele>604.0</ele><time>2026-04-21T10:05:24.666Z</time></trkpt><trkpt lat="44.56835" lon="8.7935467"><ele>603.75</ele><time>2026-04-21T10:05:25.666Z</time></trkpt><trkpt lat="44.5684633" lon="8.7934367"><ele>603.5</ele><time>2026-04-21T10:05:26.666Z</time></trkpt><trkpt lat="44.5685633" lon="8.7933367"><ele>603.25</ele><time>2026-04-21T10:05:27.667Z</time></trkpt><trkpt lat="44.5686617" lon="8.7932617"><ele>603.0</ele><time>2026-04-21T10:05:28.666Z</time></trkpt><trkpt lat="44.5687417" lon="8.7932133"><ele>603.0</ele><time>2026-04-21T10:05:29.666Z</time></trkpt><trkpt lat="44.568795" lon="8.7931617"><ele>603.0</ele><time>2026-04-21T10:05:30.666Z</time></trkpt><trkpt lat="44.5688283" lon="8.793075"><ele>603.0</ele><time>2026-04-21T10:05:32.666Z</time></trkpt><trkpt lat="44.5687667" lon="8.79303"><ele>603.0</ele><time>2026-04-21T10:05:34.667Z</time></trkpt><trkpt lat="44.5686867" lon="8.7930417"><ele>603.0</ele><time>2026-04-21T10:05:35.666Z</time></trkpt><trkpt lat="44.568585" lon="8.793065"><ele>603.0</ele><time>2026-04-21T10:05:36.666Z</time></trkpt><trkpt lat="44.56848" lon="8.79308"><ele>607.25</ele><time>2026-04-21T10:05:37.666Z</time></trkpt><trkpt lat="44.5683783" lon="8.793085"><ele>611.5</ele><time>2026-04-21T10:05:38.667Z</time></trkpt><trkpt lat="44.5682683" lon="8.793075"><ele>615.75</ele><time>2026-04-21T10:05:39.666Z</time></trkpt><trkpt lat="44.56815" lon="8.7930383"><ele>620.0</ele><time>2026-04-21T10:05:40.666Z</time></trkpt><trkpt lat="44.56803" lon="8.792995"><ele>620.0</ele><time>2026-04-21T10:05:41.666Z</time></trkpt><trkpt lat="44.5679033" lon="8.79295"><ele>620.0</ele><time>2026-04-21T10:05:42.666Z</time></trkpt><trkpt lat="44.567775" lon="8.792905"><ele>620.0</ele><time>2026-04-21T10:05:43.666Z</time></trkpt><trkpt lat="44.5676517" lon="8.79287"><ele>620.0</ele><time>2026-04-21T10:05:44.667Z</time></trkpt><trkpt lat="44.5675367" lon="8.79286"><ele>621.5</ele><time>2026-04-21T10:05:45.666Z</time></trkpt><trkpt lat="44.5674133" lon="8.79286"><ele>623.0</ele><time>2026-04-21T10:05:46.666Z</time></trkpt><trkpt lat="44.5672867" lon="8.79287"><ele>624.5</ele><time>2026-04-21T10:05:47.666Z</time></trkpt><trkpt lat="44.5671617" lon="8.7928833"><ele>626.0</ele><time>2026-04-21T10:05:48.667Z</time></trkpt><trkpt lat="44.5670367" lon="8.7928933"><ele>626.0</ele><time>2026-04-21T10:05:49.666Z</time></trkpt><trkpt lat="44.5669133" lon="8.79289"><ele>626.0</ele><time>2026-04-21T10:05:50.667Z</time></trkpt><trkpt lat="44.5667967" lon="8.79287"><ele>626.0</ele><time>2026-04-21T10:05:51.666Z</time></trkpt><trkpt lat="44.5666917" lon="8.79283"><ele>626.0</ele><time>2026-04-21T10:05:52.667Z</time></trkpt><trkpt lat="44.566585" lon="8.792765"><ele>626.0</ele><time>2026-04-21T10:05:53.667Z</time></trkpt><trkpt lat="44.5664767" lon="8.792705"><ele>626.0</ele><time>2026-04-21T10:05:54.666Z</time></trkpt><trkpt lat="44.5663683" lon="8.7926483"><ele>626.0</ele><time>2026-04-21T10:05:55.666Z</time></trkpt><trkpt lat="44.5662567" lon="8.7926067"><ele>626.0</ele><time>2026-04-21T10:05:56.666Z</time></trkpt><trkpt lat="44.5661533" lon="8.7925633"><ele>629.8</ele><time>2026-04-21T10:05:57.666Z</time></trkpt><trkpt lat="44.5660517" lon="8.7924983"><ele>633.6</ele><time>2026-04-21T10:05:58.666Z</time></trkpt><trkpt lat="44.5659583" lon="8.79241"><ele>637.4</ele><time>2026-04-21T10:05:59.667Z</time></trkpt><trkpt lat="44.565875" lon="8.7922983"><ele>641.2</ele><time>2026-04-21T10:06:00.667Z</time></trkpt><trkpt lat="44.565815" lon="8.7921767"><ele>645.0</ele><time>2026-04-21T10:06:01.667Z</time></trkpt><trkpt lat="44.5657717" lon="8.7920533"><ele>645.0</ele><time>2026-04-21T10:06:02.666Z</time></trkpt><trkpt lat="44.5657433" lon="8.791925"><ele>645.0</ele><time>2026-04-21T10:06:03.667Z</time></trkpt><trkpt lat="44.565745" lon="8.791775"><ele>645.0</ele><time>2026-04-21T10:06:04.667Z</time></trkpt><trkpt lat="44.5657617" lon="8.791625"><ele>645.0</ele><time>2026-04-21T10:06:05.666Z</time></trkpt><trkpt lat="44.565785" lon="8.7914733"><ele>645.0</ele><time>2026-04-21T10:06:06.666Z</time></trkpt><trkpt lat="44.5657933" lon="8.7913183"><ele>646.8</ele><time>2026-04-21T10:06:07.666Z</time></trkpt><trkpt lat="44.5657917" lon="8.7911717"><ele>648.6</ele><time>2026-04-21T10:06:08.667Z</time></trkpt><trkpt lat="44.565785" lon="8.7910483"><ele>650.4000000000001</ele><time>2026-04-21T10:06:09.666Z</time></trkpt><trkpt lat="44.5657783" lon="8.7909583"><ele>652.2</ele><time>2026-04-21T10:06:10.666Z</time></trkpt><trkpt lat="44.5657267" lon="8.79082"><ele>654.0</ele><time>2026-04-21T10:06:22.666Z</time></trkpt><trkpt lat="44.5657183" lon="8.790655"><ele>654.6</ele><time>2026-04-21T10:06:24.667Z</time></trkpt><trkpt lat="44.5657483" lon="8.7905533"><ele>655.2</ele><time>2026-04-21T10:06:25.667Z</time></trkpt><trkpt lat="44.5658083" lon="8.7904617"><ele>655.8000000000001</ele><time>2026-04-21T10:06:26.667Z</time></trkpt><trkpt lat="44.5658767" lon="8.7903683"><ele>656.4000000000001</ele><time>2026-04-21T10:06:27.667Z</time></trkpt><trkpt lat="44.5659517" lon="8.7902617"><ele>657.0</ele><time>2026-04-21T10:06:28.667Z</time></trkpt><trkpt lat="44.5660283" lon="8.7901317"><ele>657.0</ele><time>2026-04-21T10:06:29.667Z</time></trkpt><trkpt lat="44.56611" lon="8.7899867"><ele>657.0</ele><time>2026-04-21T10:06:30.667Z</time></trkpt><trkpt lat="44.5662" lon="8.7898383"><ele>657.0</ele><time>2026-04-21T10:06:31.667Z</time></trkpt><trkpt lat="44.5662767" lon="8.78969"><ele>657.0</ele><time>2026-04-21T10:06:32.666Z</time></trkpt><trkpt lat="44.566345" lon="8.7895617"><ele>659.2</ele><time>2026-04-21T10:06:33.667Z</time></trkpt><trkpt lat="44.5664067" lon="8.7894217"><ele>661.4000000000001</ele><time>2026-04-21T10:06:34.666Z</time></trkpt><trkpt lat="44.566465" lon="8.78929"><ele>663.5999999999999</ele><time>2026-04-21T10:06:35.666Z</time></trkpt><trkpt lat="44.5665233" lon="8.7891733"><ele>665.8</ele><time>2026-04-21T10:06:36.666Z</time></trkpt><trkpt lat="44.5665683" lon="8.7890583"><ele>668.0</ele><time>2026-04-21T10:06:37.666Z</time></trkpt><trkpt lat="44.56659" lon="8.7889417"><ele>668.0</ele><time>2026-04-21T10:06:38.666Z</time></trkpt><trkpt lat="44.5665917" lon="8.7888133"><ele>668.0</ele><time>2026-04-21T10:06:39.666Z</time></trkpt><trkpt lat="44.56658" lon="8.7886617"><ele>668.0</ele><time>2026-04-21T10:06:40.667Z</time></trkpt><trkpt lat="44.56658" lon="8.7885083"><ele>668.0</ele><time>2026-04-21T10:06:41.667Z</time></trkpt><trkpt lat="44.5665883" lon="8.7883633"><ele>668.0</ele><time>2026-04-21T10:06:42.666Z</time></trkpt><trkpt lat="44.5665967" lon="8.7882383"><ele>667.4</ele><time>2026-04-21T10:06:43.666Z</time></trkpt><trkpt lat="44.5665933" lon="8.7881483"><ele>666.8</ele><time>2026-04-21T10:06:44.666Z</time></trkpt><trkpt lat="44.5665383" lon="8.787995"><ele>666.2</ele><time>2026-04-21T10:06:46.667Z</time></trkpt><trkpt lat="44.5664733" lon="8.7878983"><ele>665.6</ele><time>2026-04-21T10:06:47.666Z</time></trkpt><trkpt lat="44.5663933" lon="8.7877883"><ele>665.0</ele><time>2026-04-21T10:06:48.666Z</time></trkpt><trkpt lat="44.5663217" lon="8.7876567"><ele>664.4</ele><time>2026-04-21T10:06:49.666Z</time></trkpt><trkpt lat="44.56626" lon="8.7875333"><ele>663.8</ele><time>2026-04-21T10:06:50.667Z</time></trkpt><trkpt lat="44.56621" lon="8.787395"><ele>663.2</ele><time>2026-04-21T10:06:51.666Z</time></trkpt><trkpt lat="44.5661683" lon="8.787255"><ele>662.6</ele><time>2026-04-21T10:06:52.667Z</time></trkpt><trkpt lat="44.566145" lon="8.7871517"><ele>662.0</ele><time>2026-04-21T10:06:53.666Z</time></trkpt><trkpt lat="44.56615" lon="8.7870583"><ele>662.0</ele><time>2026-04-21T10:06:54.667Z</time></trkpt><trkpt lat="44.566185" lon="8.7869517"><ele>662.0</ele><time>2026-04-21T10:06:55.666Z</time></trkpt><trkpt lat="44.5662233" lon="8.7868517"><ele>662.0</ele><time>2026-04-21T10:06:56.666Z</time></trkpt><trkpt lat="44.5662483" lon="8.7867617"><ele>662.0</ele><time>2026-04-21T10:06:57.667Z</time></trkpt><trkpt lat="44.5662483" lon="8.7866683"><ele>662.0</ele><time>2026-04-21T10:06:58.666Z</time></trkpt><trkpt lat="44.5662133" lon="8.7865617"><ele>662.0</ele><time>2026-04-21T10:06:59.667Z</time></trkpt><trkpt lat="44.5661433" lon="8.786445"><ele>660.8</ele><time>2026-04-21T10:07:00.666Z</time></trkpt><trkpt lat="44.5660883" lon="8.7862983"><ele>659.6</ele><time>2026-04-21T10:07:01.666Z</time></trkpt><trkpt lat="44.566055" lon="8.7861467"><ele>658.4</ele><time>2026-04-21T10:07:02.667Z</time></trkpt><trkpt lat="44.5660133" lon="8.7860017"><ele>657.1999999999999</ele><time>2026-04-21T10:07:03.666Z</time></trkpt><trkpt lat="44.5659567" lon="8.7858783"><ele>656.0</ele><time>2026-04-21T10:07:04.667Z</time></trkpt><trkpt lat="44.5658783" lon="8.78576"><ele>654.8</ele><time>2026-04-21T10:07:05.667Z</time></trkpt><trkpt lat="44.5657867" lon="8.78565"><ele>653.5999999999999</ele><time>2026-04-21T10:07:06.666Z</time></trkpt><trkpt lat="44.5657117" lon="8.78553"><ele>652.4</ele><time>2026-04-21T10:07:07.666Z</time></trkpt><trkpt lat="44.5656533" lon="8.7854083"><ele>651.2</ele><time>2026-04-21T10:07:08.667Z</time></trkpt><trkpt lat="44.5656167" lon="8.7852833"><ele>650.0</ele><time>2026-04-21T10:07:09.667Z</time></trkpt><trkpt lat="44.5655883" lon="8.7851517"><ele>649.75</ele><time>2026-04-21T10:07:10.666Z</time></trkpt><trkpt lat="44.5656" lon="8.78501"><ele>649.5</ele><time>2026-04-21T10:07:11.667Z</time></trkpt><trkpt lat="44.5656083" lon="8.7848267"><ele>649.25</ele><time>2026-04-21T10:07:12.666Z</time></trkpt><trkpt lat="44.565605" lon="8.784615"><ele>649.0</ele><time>2026-04-21T10:07:13.667Z</time></trkpt><trkpt lat="44.5655767" lon="8.7843667"><ele>651.3333333333334</ele><time>2026-04-21T10:07:14.666Z</time></trkpt><trkpt lat="44.5655483" lon="8.7841017"><ele>653.6666666666666</ele><time>2026-04-21T10:07:15.666Z</time></trkpt><trkpt lat="44.5655317" lon="8.7838667"><ele>656.0</ele><time>2026-04-21T10:07:16.667Z</time></trkpt><trkpt lat="44.5655083" lon="8.7836767"><ele>656.0</ele><time>2026-04-21T10:07:17.667Z</time></trkpt><trkpt lat="44.5655033" lon="8.7835333"><ele>656.0</ele><time>2026-04-21T10:07:18.667Z</time></trkpt><trkpt lat="44.565505" lon="8.7834167"><ele>656.0</ele><time>2026-04-21T10:07:19.666Z</time></trkpt><trkpt lat="44.5655383" lon="8.7833033"><ele>656.0</ele><time>2026-04-21T10:07:20.667Z</time></trkpt><trkpt lat="44.5655983" lon="8.7831817"><ele>656.0</ele><time>2026-04-21T10:07:21.666Z</time></trkpt><trkpt lat="44.56567" lon="8.7830783"><ele>657.3333333333333</ele><time>2026-04-21T10:07:22.666Z</time></trkpt><trkpt lat="44.56573" lon="8.7829833"><ele>658.6666666666666</ele><time>2026-04-21T10:07:23.667Z</time></trkpt><trkpt lat="44.5657633" lon="8.7828817"><ele>660.0</ele><time>2026-04-21T10:07:24.667Z</time></trkpt><trkpt lat="44.5657833" lon="8.7827883"><ele>661.3333333333334</ele><time>2026-04-21T10:07:25.666Z</time></trkpt><trkpt lat="44.565775" lon="8.7826933"><ele>662.6666666666667</ele><time>2026-04-21T10:07:26.666Z</time></trkpt><trkpt lat="44.56574" lon="8.7826083"><ele>664.0</ele><time>2026-04-21T10:07:27.666Z</time></trkpt><trkpt lat="44.56567" lon="8.7825183"><ele>664.25</ele><time>2026-04-21T10:07:28.666Z</time></trkpt><trkpt lat="44.5655767" lon="8.7824183"><ele>664.5</ele><time>2026-04-21T10:07:29.667Z</time></trkpt><trkpt lat="44.5654867" lon="8.7822883"><ele>664.75</ele><time>2026-04-21T10:07:30.666Z</time></trkpt><trkpt lat="44.5654083" lon="8.7821117"><ele>665.0</ele><time>2026-04-21T10:07:31.666Z</time></trkpt><trkpt lat="44.5653367" lon="8.781925"><ele>666.75</ele><time>2026-04-21T10:07:32.667Z</time></trkpt><trkpt lat="44.56529" lon="8.7817467"><ele>668.5</ele><time>2026-04-21T10:07:33.666Z</time></trkpt><trkpt lat="44.5652467" lon="8.7815817"><ele>670.25</ele><time>2026-04-21T10:07:34.667Z</time></trkpt><trkpt lat="44.5652217" lon="8.7814267"><ele>672.0</ele><time>2026-04-21T10:07:35.667Z</time></trkpt><trkpt lat="44.5652133" lon="8.7812867"><ele>672.0</ele><time>2026-04-21T10:07:36.667Z</time></trkpt><trkpt lat="44.5652383" lon="8.7811517"><ele>672.0</ele><time>2026-04-21T10:07:37.667Z</time></trkpt><trkpt lat="44.5652933" lon="8.78101"><ele>672.0</ele><time>2026-04-21T10:07:38.667Z</time></trkpt><trkpt lat="44.56536" lon="8.78085"><ele>672.0</ele><time>2026-04-21T10:07:39.667Z</time></trkpt><trkpt lat="44.5654283" lon="8.7806817"><ele>676.3333333333334</ele><time>2026-04-21T10:07:40.666Z</time></trkpt><trkpt lat="44.5655017" lon="8.7804833"><ele>680.6666666666667</ele><time>2026-04-21T10:07:41.667Z</time></trkpt><trkpt lat="44.5655683" lon="8.78028"><ele>685.0</ele><time>2026-04-21T10:07:42.666Z</time></trkpt><trkpt lat="44.5656383" lon="8.7800767"><ele>686.25</ele><time>2026-04-21T10:07:43.666Z</time></trkpt><trkpt lat="44.565705" lon="8.7798867"><ele>687.5</ele><time>2026-04-21T10:07:44.666Z</time></trkpt><trkpt lat="44.56576" lon="8.7797133"><ele>688.75</ele><time>2026-04-21T10:07:45.666Z</time></trkpt><trkpt lat="44.565805" lon="8.7795583"><ele>690.0</ele><time>2026-04-21T10:07:46.666Z</time></trkpt><trkpt lat="44.5658617" lon="8.77941"><ele>689.75</ele><time>2026-04-21T10:07:47.667Z</time></trkpt><trkpt lat="44.56593" lon="8.7792683"><ele>689.5</ele><time>2026-04-21T10:07:48.666Z</time></trkpt><trkpt lat="44.565995" lon="8.779135"><ele>689.25</ele><time>2026-04-21T10:07:49.666Z</time></trkpt><trkpt lat="44.5660567" lon="8.7790067"><ele>689.0</ele><time>2026-04-21T10:07:50.666Z</time></trkpt><trkpt lat="44.5661117" lon="8.7788633"><ele>689.0</ele><time>2026-04-21T10:07:51.666Z</time></trkpt><trkpt lat="44.5661617" lon="8.7787083"><ele>689.0</ele><time>2026-04-21T10:07:52.666Z</time></trkpt><trkpt lat="44.5662083" lon="8.7785383"><ele>689.0</ele><time>2026-04-21T10:07:53.666Z</time></trkpt><trkpt lat="44.5662383" lon="8.77836"><ele>689.0</ele><time>2026-04-21T10:07:54.667Z</time></trkpt><trkpt lat="44.5662617" lon="8.7781933"><ele>689.0</ele><time>2026-04-21T10:07:55.666Z</time></trkpt><trkpt lat="44.56626" lon="8.7780333"><ele>689.0</ele><time>2026-04-21T10:07:56.666Z</time></trkpt><trkpt lat="44.5662533" lon="8.7778983"><ele>689.0</ele><time>2026-04-21T10:07:57.667Z</time></trkpt><trkpt lat="44.5662333" lon="8.7777917"><ele>689.0</ele><time>2026-04-21T10:07:58.666Z</time></trkpt><trkpt lat="44.566175" lon="8.77768"><ele>689.0</ele><time>2026-04-21T10:08:00.666Z</time></trkpt><trkpt lat="44.5661" lon="8.7776917"><ele>689.0</ele><time>2026-04-21T10:08:02.667Z</time></trkpt><trkpt lat="44.566015" lon="8.7777783"><ele>689.0</ele><time>2026-04-21T10:08:04.666Z</time></trkpt><trkpt lat="44.565965" lon="8.7778583"><ele>689.0</ele><time>2026-04-21T10:08:05.666Z</time></trkpt><trkpt lat="44.5658933" lon="8.777965"><ele>689.0</ele><time>2026-04-21T10:08:06.666Z</time></trkpt><trkpt lat="44.5658117" lon="8.7780717"><ele>689.0</ele><time>2026-04-21T10:08:07.666Z</time></trkpt><trkpt lat="44.5657217" lon="8.7781783"><ele>689.0</ele><time>2026-04-21T10:08:08.667Z</time></trkpt><trkpt lat="44.565635" lon="8.7782717"><ele>689.0</ele><time>2026-04-21T10:08:09.666Z</time></trkpt><trkpt lat="44.5655417" lon="8.77833"><ele>689.0</ele><time>2026-04-21T10:08:10.666Z</time></trkpt><trkpt lat="44.5654583" lon="8.778365"><ele>689.0</ele><time>2026-04-21T10:08:11.666Z</time></trkpt><trkpt lat="44.5653683" lon="8.7783683"><ele>689.0</ele><time>2026-04-21T10:08:12.666Z</time></trkpt><trkpt lat="44.56526" lon="8.7783667"><ele>688.8000000000001</ele><time>2026-04-21T10:08:13.666Z</time></trkpt><trkpt lat="44.5651483" lon="8.7783667"><ele>688.6</ele><time>2026-04-21T10:08:14.666Z</time></trkpt><trkpt lat="44.5650483" lon="8.778375"><ele>688.4</ele><time>2026-04-21T10:08:15.666Z</time></trkpt><trkpt lat="44.56496" lon="8.7783817"><ele>688.2</ele><time>2026-04-21T10:08:16.666Z</time></trkpt><trkpt lat="44.564875" lon="8.7783617"><ele>688.0</ele><time>2026-04-21T10:08:17.666Z</time></trkpt><trkpt lat="44.5647983" lon="8.7782983"><ele>688.0</ele><time>2026-04-21T10:08:19.666Z</time></trkpt><trkpt lat="44.5647567" lon="8.77822"><ele>688.0</ele><time>2026-04-21T10:08:21.666Z</time></trkpt><trkpt lat="44.5647217" lon="8.7781233"><ele>688.0</ele><time>2026-04-21T10:08:23.666Z</time></trkpt><trkpt lat="44.5646833" lon="8.77804"><ele>688.0</ele><time>2026-04-21T10:08:25.666Z</time></trkpt><trkpt lat="44.5646617" lon="8.7779517"><ele>688.0</ele><time>2026-04-21T10:08:27.666Z</time></trkpt><trkpt lat="44.5646517" lon="8.777835"><ele>688.0</ele><time>2026-04-21T10:08:37.666Z</time></trkpt><trkpt lat="44.5646667" lon="8.777705"><ele>690.2</ele><time>2026-04-21T10:08:39.666Z</time></trkpt><trkpt lat="44.564685" lon="8.7776133"><ele>692.4</ele><time>2026-04-21T10:08:40.666Z</time></trkpt><trkpt lat="44.5647083" lon="8.7775"><ele>694.6</ele><time>2026-04-21T10:08:41.666Z</time></trkpt><trkpt lat="44.5647217" lon="8.77737"><ele>696.8000000000001</ele><time>2026-04-21T10:08:42.667Z</time></trkpt><trkpt lat="44.564715" lon="8.7772017"><ele>699.0</ele><time>2026-04-21T10:08:43.666Z</time></trkpt><trkpt lat="44.5646933" lon="8.7770183"><ele>702.25</ele><time>2026-04-21T10:08:44.666Z</time></trkpt><trkpt lat="44.5646633" lon="8.776825"><ele>705.5</ele><time>2026-04-21T10:08:45.667Z</time></trkpt><trkpt lat="44.56463" lon="8.7766533"><ele>708.75</ele><time>2026-04-21T10:08:46.666Z</time></trkpt><trkpt lat="44.5645933" lon="8.7765067"><ele>712.0</ele><time>2026-04-21T10:08:47.667Z</time></trkpt><trkpt lat="44.56456" lon="8.7763483"><ele>712.0</ele><time>2026-04-21T10:08:48.667Z</time></trkpt><trkpt lat="44.5645317" lon="8.7762017"><ele>712.0</ele><time>2026-04-21T10:08:49.667Z</time></trkpt><trkpt lat="44.5645117" lon="8.7760517"><ele>712.0</ele><time>2026-04-21T10:08:50.666Z</time></trkpt><trkpt lat="44.5644933" lon="8.77591"><ele>712.0</ele><time>2026-04-21T10:08:51.667Z</time></trkpt><trkpt lat="44.56446" lon="8.7757933"><ele>712.0</ele><time>2026-04-21T10:08:52.666Z</time></trkpt><trkpt lat="44.564405" lon="8.7756967"><ele>711.8</ele><time>2026-04-21T10:08:53.666Z</time></trkpt><trkpt lat="44.5643333" lon="8.7756367"><ele>711.6</ele><time>2026-04-21T10:08:54.666Z</time></trkpt><trkpt lat="44.5642517" lon="8.7755583"><ele>711.4</ele><time>2026-04-21T10:08:55.666Z</time></trkpt><trkpt lat="44.5641667" lon="8.77547"><ele>711.1999999999999</ele><time>2026-04-21T10:08:56.666Z</time></trkpt><trkpt lat="44.5640817" lon="8.775365"><ele>711.0</ele><time>2026-04-21T10:08:57.666Z</time></trkpt><trkpt lat="44.5640133" lon="8.77526"><ele>713.0</ele><time>2026-04-21T10:08:58.666Z</time></trkpt><trkpt lat="44.5639767" lon="8.7751383"><ele>715.0</ele><time>2026-04-21T10:08:59.666Z</time></trkpt><trkpt lat="44.5639617" lon="8.775005"><ele>717.0</ele><time>2026-04-21T10:09:00.666Z</time></trkpt><trkpt lat="44.5639783" lon="8.7748483"><ele>719.0</ele><time>2026-04-21T10:09:01.666Z</time></trkpt><trkpt lat="44.5640017" lon="8.77469"><ele>721.0</ele><time>2026-04-21T10:09:02.666Z</time></trkpt><trkpt lat="44.5640233" lon="8.774555"><ele>721.0</ele><time>2026-04-21T10:09:03.667Z</time></trkpt><trkpt lat="44.5640283" lon="8.77445"><ele>721.0</ele><time>2026-04-21T10:09:04.666Z</time></trkpt><trkpt lat="44.564" lon="8.77431"><ele>721.0</ele><time>2026-04-21T10:09:06.667Z</time></trkpt><trkpt lat="44.56391" lon="8.77424"><ele>721.0</ele><time>2026-04-21T10:09:08.667Z</time></trkpt><trkpt lat="44.5638367" lon="8.7742617"><ele>721.0</ele><time>2026-04-21T10:09:09.666Z</time></trkpt><trkpt lat="44.5637533" lon="8.7743133"><ele>721.0</ele><time>2026-04-21T10:09:10.666Z</time></trkpt><trkpt lat="44.5636617" lon="8.7743567"><ele>720.4</ele><time>2026-04-21T10:09:11.667Z</time></trkpt><trkpt lat="44.56357" lon="8.774385"><ele>719.8</ele><time>2026-04-21T10:09:12.667Z</time></trkpt><trkpt lat="44.5634767" lon="8.7743833"><ele>719.1999999999999</ele><time>2026-04-21T10:09:13.666Z</time></trkpt><trkpt lat="44.5633917" lon="8.7743467"><ele>718.5999999999999</ele><time>2026-04-21T10:09:14.667Z</time></trkpt><trkpt lat="44.5633083" lon="8.77426"><ele>718.0</ele><time>2026-04-21T10:09:15.667Z</time></trkpt><trkpt lat="44.5632317" lon="8.7741417"><ele>720.5</ele><time>2026-04-21T10:09:16.666Z</time></trkpt><trkpt lat="44.563165" lon="8.774005"><ele>723.0</ele><time>2026-04-21T10:09:17.666Z</time></trkpt><trkpt lat="44.563105" lon="8.7738533"><ele>725.5</ele><time>2026-04-21T10:09:18.667Z</time></trkpt><trkpt lat="44.5630617" lon="8.7736883"><ele>728.0</ele><time>2026-04-21T10:09:19.667Z</time></trkpt><trkpt lat="44.563005" lon="8.7735283"><ele>729.75</ele><time>2026-04-21T10:09:20.666Z</time></trkpt><trkpt lat="44.5629417" lon="8.7733783"><ele>731.5</ele><time>2026-04-21T10:09:21.666Z</time></trkpt><trkpt lat="44.562875" lon="8.7732417"><ele>733.25</ele><time>2026-04-21T10:09:22.666Z</time></trkpt><trkpt lat="44.5627967" lon="8.7731117"><ele>735.0</ele><time>2026-04-21T10:09:23.666Z</time></trkpt><trkpt lat="44.5627117" lon="8.7729883"><ele>735.0</ele><time>2026-04-21T10:09:24.666Z</time></trkpt><trkpt lat="44.56263" lon="8.7728717"><ele>735.0</ele><time>2026-04-21T10:09:25.666Z</time></trkpt><trkpt lat="44.56255" lon="8.7727417"><ele>735.0</ele><time>2026-04-21T10:09:26.666Z</time></trkpt><trkpt lat="44.5624767" lon="8.7726217"><ele>735.0</ele><time>2026-04-21T10:09:27.666Z</time></trkpt><trkpt lat="44.5624117" lon="8.7725"><ele>736.6</ele><time>2026-04-21T10:09:28.666Z</time></trkpt><trkpt lat="44.5623567" lon="8.7723617"><ele>738.2</ele><time>2026-04-21T10:09:29.666Z</time></trkpt><trkpt lat="44.56231" lon="8.7722183"><ele>739.8</ele><time>2026-04-21T10:09:30.666Z</time></trkpt><trkpt lat="44.5622783" lon="8.772065"><ele>741.4</ele><time>2026-04-21T10:09:31.666Z</time></trkpt><trkpt lat="44.5622417" lon="8.7719433"><ele>743.0</ele><time>2026-04-21T10:09:32.666Z</time></trkpt><trkpt lat="44.562205" lon="8.7718583"><ele>744.4</ele><time>2026-04-21T10:09:33.666Z</time></trkpt><trkpt lat="44.562105" lon="8.7717767"><ele>745.8</ele><time>2026-04-21T10:09:35.667Z</time></trkpt><trkpt lat="44.5620333" lon="8.77182"><ele>747.2</ele><time>2026-04-21T10:09:36.666Z</time></trkpt><trkpt lat="44.5619483" lon="8.7719217"><ele>748.6</ele><time>2026-04-21T10:09:37.666Z</time></trkpt><trkpt lat="44.561835" lon="8.7720417"><ele>750.0</ele><time>2026-04-21T10:09:38.666Z</time></trkpt><trkpt lat="44.5617117" lon="8.7721433"><ele>750.0</ele><time>2026-04-21T10:09:39.666Z</time></trkpt><trkpt lat="44.5615933" lon="8.7722233"><ele>750.0</ele><time>2026-04-21T10:09:40.667Z</time></trkpt><trkpt lat="44.5614717" lon="8.7722983"><ele>750.0</ele><time>2026-04-21T10:09:41.667Z</time></trkpt><trkpt lat="44.5613617" lon="8.7723617"><ele>750.0</ele><time>2026-04-21T10:09:42.666Z</time></trkpt><trkpt lat="44.56126" lon="8.7724117"><ele>751.0</ele><time>2026-04-21T10:09:43.666Z</time></trkpt><trkpt lat="44.5611683" lon="8.7724383"><ele>752.0</ele><time>2026-04-21T10:09:44.667Z</time></trkpt><trkpt lat="44.5610817" lon="8.772445"><ele>753.0</ele><time>2026-04-21T10:09:45.667Z</time></trkpt><trkpt lat="44.5610067" lon="8.77246"><ele>754.0</ele><time>2026-04-21T10:09:46.667Z</time></trkpt><trkpt lat="44.5609333" lon="8.77251"><ele>755.0</ele><time>2026-04-21T10:09:47.666Z</time></trkpt><trkpt lat="44.5608633" lon="8.7725933"><ele>756.0</ele><time>2026-04-21T10:09:48.666Z</time></trkpt><trkpt lat="44.5607967" lon="8.7727017"><ele>756.0</ele><time>2026-04-21T10:09:49.666Z</time></trkpt><trkpt lat="44.5607383" lon="8.7728317"><ele>756.0</ele><time>2026-04-21T10:09:50.666Z</time></trkpt><trkpt lat="44.56068" lon="8.7729717"><ele>756.0</ele><time>2026-04-21T10:09:51.666Z</time></trkpt><trkpt lat="44.560625" lon="8.77308"><ele>756.0</ele><time>2026-04-21T10:09:52.667Z</time></trkpt><trkpt lat="44.56057" lon="8.773165"><ele>756.0</ele><time>2026-04-21T10:09:53.666Z</time></trkpt><trkpt lat="44.560495" lon="8.7732417"><ele>756.0</ele><time>2026-04-21T10:09:54.667Z</time></trkpt><trkpt lat="44.56041" lon="8.77331"><ele>756.0</ele><time>2026-04-21T10:09:55.666Z</time></trkpt><trkpt lat="44.5603183" lon="8.77337"><ele>756.0</ele><time>2026-04-21T10:09:56.667Z</time></trkpt><trkpt lat="44.5602217" lon="8.7734117"><ele>756.0</ele><time>2026-04-21T10:09:57.666Z</time></trkpt><trkpt lat="44.5601183" lon="8.773425"><ele>756.0</ele><time>2026-04-21T10:09:58.667Z</time></trkpt><trkpt lat="44.56" lon="8.773425"><ele>760.5</ele><time>2026-04-21T10:09:59.666Z</time></trkpt><trkpt lat="44.5598683" lon="8.7734167"><ele>765.0</ele><time>2026-04-21T10:10:00.667Z</time></trkpt><trkpt lat="44.5597317" lon="8.77341"><ele>769.5</ele><time>2026-04-21T10:10:01.666Z</time></trkpt><trkpt lat="44.559595" lon="8.7734067"><ele>774.0</ele><time>2026-04-21T10:10:02.666Z</time></trkpt><trkpt lat="44.5594733" lon="8.7734167"><ele>774.5</ele><time>2026-04-21T10:10:03.667Z</time></trkpt><trkpt lat="44.5593533" lon="8.773445"><ele>775.0</ele><time>2026-04-21T10:10:04.666Z</time></trkpt><trkpt lat="44.5592367" lon="8.7734933"><ele>775.5</ele><time>2026-04-21T10:10:05.666Z</time></trkpt><trkpt lat="44.5591283" lon="8.7735667"><ele>776.0</ele><time>2026-04-21T10:10:06.667Z</time></trkpt><trkpt lat="44.5590183" lon="8.773655"><ele>778.0</ele><time>2026-04-21T10:10:07.667Z</time></trkpt><trkpt lat="44.5589133" lon="8.77375"><ele>780.0</ele><time>2026-04-21T10:10:08.667Z</time></trkpt><trkpt lat="44.5588167" lon="8.7738467"><ele>782.0</ele><time>2026-04-21T10:10:09.667Z</time></trkpt><trkpt lat="44.5587133" lon="8.7739283"><ele>784.0</ele><time>2026-04-21T10:10:10.667Z</time></trkpt><trkpt lat="44.5586083" lon="8.7739833"><ele>784.0</ele><time>2026-04-21T10:10:11.666Z</time></trkpt><trkpt lat="44.5585183" lon="8.7740283"><ele>784.0</ele><time>2026-04-21T10:10:12.666Z</time></trkpt><trkpt lat="44.5584317" lon="8.77405"><ele>784.0</ele><time>2026-04-21T10:10:13.666Z</time></trkpt><trkpt lat="44.55834" lon="8.7740483"><ele>784.0</ele><time>2026-04-21T10:10:14.666Z</time></trkpt><trkpt lat="44.5582333" lon="8.7740267"><ele>784.0</ele><time>2026-04-21T10:10:15.666Z</time></trkpt><trkpt lat="44.5581183" lon="8.7740117"><ele>784.0</ele><time>2026-04-21T10:10:16.667Z</time></trkpt><trkpt lat="44.5579967" lon="8.7740017"><ele>784.0</ele><time>2026-04-21T10:10:17.667Z</time></trkpt><trkpt lat="44.5578717" lon="8.7740083"><ele>784.0</ele><time>2026-04-21T10:10:18.666Z</time></trkpt><trkpt lat="44.5577317" lon="8.7739967"><ele>784.0</ele><time>2026-04-21T10:10:19.666Z</time></trkpt><trkpt lat="44.5575983" lon="8.773995"><ele>783.8000000000001</ele><time>2026-04-21T10:10:20.667Z</time></trkpt><trkpt lat="44.5574733" lon="8.77397"><ele>783.6</ele><time>2026-04-21T10:10:21.666Z</time></trkpt><trkpt lat="44.5573633" lon="8.7739333"><ele>783.4</ele><time>2026-04-21T10:10:22.667Z</time></trkpt><trkpt lat="44.55727" lon="8.7738883"><ele>783.2</ele><time>2026-04-21T10:10:23.666Z</time></trkpt><trkpt lat="44.5571917" lon="8.7738483"><ele>783.0</ele><time>2026-04-21T10:10:24.667Z</time></trkpt><trkpt lat="44.55711" lon="8.7738083"><ele>784.2</ele><time>2026-04-21T10:10:25.667Z</time></trkpt><trkpt lat="44.557015" lon="8.7737867"><ele>785.4</ele><time>2026-04-21T10:10:26.666Z</time></trkpt><trkpt lat="44.5569083" lon="8.7737667"><ele>786.6</ele><time>2026-04-21T10:10:27.667Z</time></trkpt><trkpt lat="44.5567967" lon="8.7737417"><ele>787.8000000000001</ele><time>2026-04-21T10:10:28.667Z</time></trkpt><trkpt lat="44.55669" lon="8.7737067"><ele>789.0</ele><time>2026-04-21T10:10:29.667Z</time></trkpt><trkpt lat="44.5565933" lon="8.7736517"><ele>789.0</ele><time>2026-04-21T10:10:30.666Z</time></trkpt><trkpt lat="44.5564983" lon="8.7735767"><ele>789.0</ele><time>2026-04-21T10:10:31.666Z</time></trkpt><trkpt lat="44.5564133" lon="8.7734283"><ele>789.0</ele><time>2026-04-21T10:10:32.667Z</time></trkpt><trkpt lat="44.5563283" lon="8.7732767"><ele>789.0</ele><time>2026-04-21T10:10:33.667Z</time></trkpt><trkpt lat="44.556235" lon="8.7731133"><ele>791.6666666666667</ele><time>2026-04-21T10:10:34.667Z</time></trkpt><trkpt lat="44.5561317" lon="8.7729433"><ele>794.3333333333334</ele><time>2026-04-21T10:10:35.667Z</time></trkpt><trkpt lat="44.55603" lon="8.77276"><ele>797.0</ele><time>2026-04-21T10:10:36.666Z</time></trkpt><trkpt lat="44.5559433" lon="8.7725733"><ele>791.6666666666667</ele><time>2026-04-21T10:10:37.667Z</time></trkpt><trkpt lat="44.5558467" lon="8.7723933"><ele>786.3333333333333</ele><time>2026-04-21T10:10:38.667Z</time></trkpt><trkpt lat="44.555755" lon="8.772235"><ele>781.0</ele><time>2026-04-21T10:10:39.667Z</time></trkpt><trkpt lat="44.5556733" lon="8.772065"><ele>781.0</ele><time>2026-04-21T10:10:40.667Z</time></trkpt><trkpt lat="44.5555967" lon="8.77188"><ele>781.0</ele><time>2026-04-21T10:10:41.667Z</time></trkpt><trkpt lat="44.555545" lon="8.7716967"><ele>781.0</ele><time>2026-04-21T10:10:42.667Z</time></trkpt><trkpt lat="44.55552" lon="8.77153"><ele>781.0</ele><time>2026-04-21T10:10:43.666Z</time></trkpt><trkpt lat="44.55549" lon="8.771395"><ele>780.5999999999999</ele><time>2026-04-21T10:10:44.666Z</time></trkpt><trkpt lat="44.5554533" lon="8.77128"><ele>780.2</ele><time>2026-04-21T10:10:45.666Z</time></trkpt><trkpt lat="44.5553883" lon="8.7711783"><ele>779.8</ele><time>2026-04-21T10:10:46.666Z</time></trkpt><trkpt lat="44.55529" lon="8.771095"><ele>779.4000000000001</ele><time>2026-04-21T10:10:47.666Z</time></trkpt><trkpt lat="44.5551817" lon="8.7710333"><ele>779.0</ele><time>2026-04-21T10:10:48.666Z</time></trkpt><trkpt lat="44.5550633" lon="8.7709967"><ele>779.0</ele><time>2026-04-21T10:10:49.667Z</time></trkpt><trkpt lat="44.5549367" lon="8.7709983"><ele>779.0</ele><time>2026-04-21T10:10:50.667Z</time></trkpt><trkpt lat="44.5548167" lon="8.771005"><ele>779.0</ele><time>2026-04-21T10:10:51.666Z</time></trkpt><trkpt lat="44.554715" lon="8.77103"><ele>779.0</ele><time>2026-04-21T10:10:52.666Z</time></trkpt><trkpt lat="44.5546167" lon="8.7710733"><ele>773.75</ele><time>2026-04-21T10:10:53.666Z</time></trkpt><trkpt lat="44.5545283" lon="8.771155"><ele>768.5</ele><time>2026-04-21T10:10:54.667Z</time></trkpt><trkpt lat="44.55444" lon="8.7712633"><ele>763.25</ele><time>2026-04-21T10:10:55.666Z</time></trkpt><trkpt lat="44.5543383" lon="8.771375"><ele>758.0</ele><time>2026-04-21T10:10:56.667Z</time></trkpt><trkpt lat="44.5542383" lon="8.7714717"><ele>758.0</ele><time>2026-04-21T10:10:57.666Z</time></trkpt><trkpt lat="44.5541533" lon="8.7715583"><ele>758.0</ele><time>2026-04-21T10:10:58.666Z</time></trkpt><trkpt lat="44.5540917" lon="8.7716667"><ele>758.0</ele><time>2026-04-21T10:10:59.667Z</time></trkpt><trkpt lat="44.5540483" lon="8.7717683"><ele>758.0</ele><time>2026-04-21T10:11:00.667Z</time></trkpt><trkpt lat="44.5540133" lon="8.7719067"><ele>758.0</ele><time>2026-04-21T10:11:01.666Z</time></trkpt><trkpt lat="44.553975" lon="8.7720667"><ele>759.8</ele><time>2026-04-21T10:11:02.666Z</time></trkpt><trkpt lat="44.5539267" lon="8.772215"><ele>761.5999999999999</ele><time>2026-04-21T10:11:03.666Z</time></trkpt><trkpt lat="44.55387" lon="8.7723483"><ele>763.4000000000001</ele><time>2026-04-21T10:11:04.666Z</time></trkpt><trkpt lat="44.5537933" lon="8.7724533"><ele>765.2</ele><time>2026-04-21T10:11:05.666Z</time></trkpt><trkpt lat="44.5537067" lon="8.7725383"><ele>767.0</ele><time>2026-04-21T10:11:06.667Z</time></trkpt><trkpt lat="44.5536183" lon="8.7726317"><ele>765.2</ele><time>2026-04-21T10:11:07.666Z</time></trkpt><trkpt lat="44.5535383" lon="8.7727333"><ele>763.4000000000001</ele><time>2026-04-21T10:11:08.666Z</time></trkpt><trkpt lat="44.5534567" lon="8.772865"><ele>761.5999999999999</ele><time>2026-04-21T10:11:09.666Z</time></trkpt><trkpt lat="44.5533917" lon="8.772995"><ele>759.8</ele><time>2026-04-21T10:11:10.666Z</time></trkpt><trkpt lat="44.5533317" lon="8.773105"><ele>758.0</ele><time>2026-04-21T10:11:11.667Z</time></trkpt><trkpt lat="44.553275" lon="8.7731767"><ele>758.0</ele><time>2026-04-21T10:11:12.666Z</time></trkpt><trkpt lat="44.5531967" lon="8.77323"><ele>758.0</ele><time>2026-04-21T10:11:13.666Z</time></trkpt><trkpt lat="44.5530917" lon="8.7732517"><ele>758.0</ele><time>2026-04-21T10:11:14.666Z</time></trkpt><trkpt lat="44.55296" lon="8.77326"><ele>758.0</ele><time>2026-04-21T10:11:15.667Z</time></trkpt><trkpt lat="44.5527967" lon="8.77326"><ele>757.25</ele><time>2026-04-21T10:11:16.667Z</time></trkpt><trkpt lat="44.552645" lon="8.7732583"><ele>756.5</ele><time>2026-04-21T10:11:17.667Z</time></trkpt><trkpt lat="44.5525083" lon="8.7732733"><ele>755.75</ele><time>2026-04-21T10:11:18.667Z</time></trkpt><trkpt lat="44.5523933" lon="8.7732933"><ele>755.0</ele><time>2026-04-21T10:11:19.667Z</time></trkpt><trkpt lat="44.552285" lon="8.7733333"><ele>755.0</ele><time>2026-04-21T10:11:20.666Z</time></trkpt><trkpt lat="44.5521783" lon="8.7734"><ele>755.0</ele><time>2026-04-21T10:11:21.666Z</time></trkpt><trkpt lat="44.55206" lon="8.77346"><ele>755.0</ele><time>2026-04-21T10:11:22.667Z</time></trkpt><trkpt lat="44.551945" lon="8.77352"><ele>755.0</ele><time>2026-04-21T10:11:23.667Z</time></trkpt><trkpt lat="44.55183" lon="8.7735967"><ele>757.5</ele><time>2026-04-21T10:11:24.666Z</time></trkpt><trkpt lat="44.5517283" lon="8.7736733"><ele>760.0</ele><time>2026-04-21T10:11:25.666Z</time></trkpt><trkpt lat="44.551625" lon="8.77375"><ele>762.5</ele><time>2026-04-21T10:11:26.666Z</time></trkpt><trkpt lat="44.5515217" lon="8.7738133"><ele>765.0</ele><time>2026-04-21T10:11:27.666Z</time></trkpt><trkpt lat="44.55141" lon="8.7738767"><ele>765.0</ele><time>2026-04-21T10:11:28.667Z</time></trkpt><trkpt lat="44.5513017" lon="8.77391"><ele>765.0</ele><time>2026-04-21T10:11:29.666Z</time></trkpt><trkpt lat="44.5511917" lon="8.7739183"><ele>765.0</ele><time>2026-04-21T10:11:30.667Z</time></trkpt><trkpt lat="44.55109" lon="8.7738933"><ele>765.0</ele><time>2026-04-21T10:11:31.667Z</time></trkpt><trkpt lat="44.5509967" lon="8.7738533"><ele>765.0</ele><time>2026-04-21T10:11:32.667Z</time></trkpt><trkpt lat="44.5509217" lon="8.7737883"><ele>764.0</ele><time>2026-04-21T10:11:33.666Z</time></trkpt><trkpt lat="44.5508617" lon="8.7736917"><ele>763.0</ele><time>2026-04-21T10:11:34.666Z</time></trkpt><trkpt lat="44.550825" lon="8.77357"><ele>762.0</ele><time>2026-04-21T10:11:35.666Z</time></trkpt><trkpt lat="44.5507817" lon="8.77344"><ele>761.0</ele><time>2026-04-21T10:11:36.667Z</time></trkpt><trkpt lat="44.5507167" lon="8.77332"><ele>760.0</ele><time>2026-04-21T10:11:37.667Z</time></trkpt><trkpt lat="44.5506333" lon="8.7732233"><ele>760.0</ele><time>2026-04-21T10:11:38.666Z</time></trkpt><trkpt lat="44.5505417" lon="8.77314"><ele>760.0</ele><time>2026-04-21T10:11:39.667Z</time></trkpt><trkpt lat="44.5504483" lon="8.7730833"><ele>760.0</ele><time>2026-04-21T10:11:40.666Z</time></trkpt><trkpt lat="44.5503567" lon="8.7730633"><ele>760.0</ele><time>2026-04-21T10:11:41.666Z</time></trkpt><trkpt lat="44.55025" lon="8.773075"><ele>760.0</ele><time>2026-04-21T10:11:42.667Z</time></trkpt><trkpt lat="44.5501383" lon="8.7731083"><ele>762.3333333333334</ele><time>2026-04-21T10:11:43.666Z</time></trkpt><trkpt lat="44.55003" lon="8.7731317"><ele>764.6666666666667</ele><time>2026-04-21T10:11:44.667Z</time></trkpt><trkpt lat="44.5499367" lon="8.77313"><ele>767.0</ele><time>2026-04-21T10:11:45.667Z</time></trkpt><trkpt lat="44.5498583" lon="8.7730983"><ele>769.3333333333334</ele><time>2026-04-21T10:11:46.666Z</time></trkpt><trkpt lat="44.5497917" lon="8.7730367"><ele>771.6666666666666</ele><time>2026-04-21T10:11:47.667Z</time></trkpt><trkpt lat="44.54973" lon="8.7729567"><ele>774.0</ele><time>2026-04-21T10:11:48.666Z</time></trkpt><trkpt lat="44.5496767" lon="8.7728417"><ele>774.0</ele><time>2026-04-21T10:11:49.666Z</time></trkpt><trkpt lat="44.5496167" lon="8.772735"><ele>774.0</ele><time>2026-04-21T10:11:50.666Z</time></trkpt><trkpt lat="44.54955" lon="8.772625"><ele>774.0</ele><time>2026-04-21T10:11:51.666Z</time></trkpt><trkpt lat="44.5494683" lon="8.7725583"><ele>774.0</ele><time>2026-04-21T10:11:52.667Z</time></trkpt><trkpt lat="44.54936" lon="8.772525"><ele>774.0</ele><time>2026-04-21T10:11:53.667Z</time></trkpt><trkpt lat="44.5492483" lon="8.77251"><ele>773.25</ele><time>2026-04-21T10:11:54.667Z</time></trkpt><trkpt lat="44.5491333" lon="8.772505"><ele>772.5</ele><time>2026-04-21T10:11:55.666Z</time></trkpt><trkpt lat="44.5490083" lon="8.7724983"><ele>771.75</ele><time>2026-04-21T10:11:56.666Z</time></trkpt><trkpt lat="44.54888" lon="8.7724817"><ele>771.0</ele><time>2026-04-21T10:11:57.666Z</time></trkpt><trkpt lat="44.5487517" lon="8.772455"><ele>772.6666666666667</ele><time>2026-04-21T10:11:58.666Z</time></trkpt><trkpt lat="44.5486133" lon="8.772425"><ele>774.3333333333334</ele><time>2026-04-21T10:11:59.666Z</time></trkpt><trkpt lat="44.54845" lon="8.7723933"><ele>776.0</ele><time>2026-04-21T10:12:00.666Z</time></trkpt><trkpt lat="44.5482883" lon="8.7723633"><ele>776.0</ele><time>2026-04-21T10:12:01.667Z</time></trkpt><trkpt lat="44.548135" lon="8.772345"><ele>776.0</ele><time>2026-04-21T10:12:02.666Z</time></trkpt><trkpt lat="44.548" lon="8.77231"><ele>776.0</ele><time>2026-04-21T10:12:03.667Z</time></trkpt><trkpt lat="44.5478717" lon="8.7723233"><ele>776.0</ele><time>2026-04-21T10:12:04.667Z</time></trkpt><trkpt lat="44.5477417" lon="8.7723517"><ele>776.75</ele><time>2026-04-21T10:12:05.667Z</time></trkpt><trkpt lat="44.5476217" lon="8.7723867"><ele>777.5</ele><time>2026-04-21T10:12:06.666Z</time></trkpt><trkpt lat="44.5475083" lon="8.7724017"><ele>778.25</ele><time>2026-04-21T10:12:07.666Z</time></trkpt><trkpt lat="44.5473983" lon="8.7723933"><ele>779.0</ele><time>2026-04-21T10:12:08.666Z</time></trkpt><trkpt lat="44.547295" lon="8.77237"><ele>779.0</ele><time>2026-04-21T10:12:09.666Z</time></trkpt><trkpt lat="44.5472" lon="8.7723367"><ele>779.0</ele><time>2026-04-21T10:12:10.666Z</time></trkpt><trkpt lat="44.5470967" lon="8.7722717"><ele>779.0</ele><time>2026-04-21T10:12:11.666Z</time></trkpt><trkpt lat="44.5469833" lon="8.7722"><ele>779.0</ele><time>2026-04-21T10:12:12.666Z</time></trkpt><trkpt lat="44.5468483" lon="8.77216"><ele>780.75</ele><time>2026-04-21T10:12:13.666Z</time></trkpt><trkpt lat="44.546705" lon="8.7721067"><ele>782.5</ele><time>2026-04-21T10:12:14.666Z</time></trkpt><trkpt lat="44.5465633" lon="8.772065"><ele>784.25</ele><time>2026-04-21T10:12:15.666Z</time></trkpt><trkpt lat="44.546425" lon="8.7719983"><ele>786.0</ele><time>2026-04-21T10:12:16.666Z</time></trkpt><trkpt lat="44.5463" lon="8.7719267"><ele>788.0</ele><time>2026-04-21T10:12:17.666Z</time></trkpt><trkpt lat="44.5461883" lon="8.7718617"><ele>790.0</ele><time>2026-04-21T10:12:18.667Z</time></trkpt><trkpt lat="44.5460917" lon="8.7717817"><ele>792.0</ele><time>2026-04-21T10:12:19.667Z</time></trkpt><trkpt lat="44.5460117" lon="8.771725"><ele>794.0</ele><time>2026-04-21T10:12:20.666Z</time></trkpt><trkpt lat="44.5459417" lon="8.77168"><ele>796.0</ele><time>2026-04-21T10:12:21.667Z</time></trkpt><trkpt lat="44.5458533" lon="8.7716717"><ele>789.5</ele><time>2026-04-21T10:12:22.666Z</time></trkpt><trkpt lat="44.54575" lon="8.7716933"><ele>783.0</ele><time>2026-04-21T10:12:23.666Z</time></trkpt><trkpt lat="44.545635" lon="8.7717283"><ele>776.5</ele><time>2026-04-21T10:12:24.667Z</time></trkpt><trkpt lat="44.5455183" lon="8.7717533"><ele>770.0</ele><time>2026-04-21T10:12:25.667Z</time></trkpt><trkpt lat="44.5453983" lon="8.7717533"><ele>772.5</ele><time>2026-04-21T10:12:26.666Z</time></trkpt><trkpt lat="44.5452667" lon="8.77174"><ele>775.0</ele><time>2026-04-21T10:12:27.667Z</time></trkpt><trkpt lat="44.545125" lon="8.77169"><ele>777.5</ele><time>2026-04-21T10:12:28.666Z</time></trkpt><trkpt lat="44.5449917" lon="8.77163"><ele>780.0</ele><time>2026-04-21T10:12:29.666Z</time></trkpt><trkpt lat="44.5448717" lon="8.7715833"><ele>780.0</ele><time>2026-04-21T10:12:30.667Z</time></trkpt><trkpt lat="44.544755" lon="8.7715433"><ele>780.0</ele><time>2026-04-21T10:12:31.666Z</time></trkpt><trkpt lat="44.5446417" lon="8.7715183"><ele>780.0</ele><time>2026-04-21T10:12:32.666Z</time></trkpt><trkpt lat="44.544525" lon="8.7715267"><ele>780.0</ele><time>2026-04-21T10:12:33.667Z</time></trkpt><trkpt lat="44.5443933" lon="8.7715467"><ele>780.8</ele><time>2026-04-21T10:12:34.666Z</time></trkpt><trkpt lat="44.5442883" lon="8.7715717"><ele>781.6</ele><time>2026-04-21T10:12:35.667Z</time></trkpt><trkpt lat="44.54418" lon="8.7716"><ele>782.4000000000001</ele><time>2026-04-21T10:12:36.667Z</time></trkpt><trkpt lat="44.544085" lon="8.7716533"><ele>783.2</ele><time>2026-04-21T10:12:37.666Z</time></trkpt><trkpt lat="44.54398" lon="8.7717283"><ele>784.0</ele><time>2026-04-21T10:12:38.666Z</time></trkpt><trkpt lat="44.54387" lon="8.77182"><ele>787.75</ele><time>2026-04-21T10:12:39.666Z</time></trkpt><trkpt lat="44.5437583" lon="8.7719133"><ele>791.5</ele><time>2026-04-21T10:12:40.667Z</time></trkpt><trkpt lat="44.5436483" lon="8.77202"><ele>795.25</ele><time>2026-04-21T10:12:41.667Z</time></trkpt><trkpt lat="44.5435567" lon="8.7721517"><ele>799.0</ele><time>2026-04-21T10:12:42.667Z</time></trkpt><trkpt lat="44.5434683" lon="8.7722767"><ele>799.0</ele><time>2026-04-21T10:12:43.666Z</time></trkpt><trkpt lat="44.5433867" lon="8.7723667"><ele>799.0</ele><time>2026-04-21T10:12:44.666Z</time></trkpt><trkpt lat="44.5433033" lon="8.7724183"><ele>799.0</ele><time>2026-04-21T10:12:45.666Z</time></trkpt><trkpt lat="44.5432" lon="8.77241"><ele>799.0</ele><time>2026-04-21T10:12:46.666Z</time></trkpt><trkpt lat="44.5430967" lon="8.77239"><ele>799.0</ele><time>2026-04-21T10:12:47.667Z</time></trkpt><trkpt lat="44.5430017" lon="8.7723867"><ele>798.9999999999999</ele><time>2026-04-21T10:12:48.667Z</time></trkpt><trkpt lat="44.542925" lon="8.7724133"><ele>799.0</ele><time>2026-04-21T10:12:49.667Z</time></trkpt><trkpt lat="44.5428633" lon="8.7724833"><ele>799.0</ele><time>2026-04-21T10:12:50.667Z</time></trkpt><trkpt lat="44.542805" lon="8.7725733"><ele>799.0</ele><time>2026-04-21T10:12:51.667Z</time></trkpt><trkpt lat="44.542765" lon="8.7727"><ele>798.9999999999999</ele><time>2026-04-21T10:12:52.667Z</time></trkpt><trkpt lat="44.5427283" lon="8.7728383"><ele>799.0</ele><time>2026-04-21T10:12:53.667Z</time></trkpt><trkpt lat="44.5426967" lon="8.7729933"><ele>799.0</ele><time>2026-04-21T10:12:54.666Z</time></trkpt><trkpt lat="44.5426483" lon="8.773155"><ele>799.0</ele><time>2026-04-21T10:12:55.666Z</time></trkpt><trkpt lat="44.542605" lon="8.7733067"><ele>799.0</ele><time>2026-04-21T10:12:56.666Z</time></trkpt><trkpt lat="44.5425717" lon="8.7734317"><ele>799.0</ele><time>2026-04-21T10:12:57.667Z</time></trkpt><trkpt lat="44.5425467" lon="8.773565"><ele>799.0</ele><time>2026-04-21T10:12:58.666Z</time></trkpt><trkpt lat="44.54253" lon="8.7737017"><ele>797.8000000000001</ele><time>2026-04-21T10:12:59.667Z</time></trkpt><trkpt lat="44.5425283" lon="8.7738217"><ele>796.6</ele><time>2026-04-21T10:13:00.666Z</time></trkpt><trkpt lat="44.5425433" lon="8.7739283"><ele>795.4</ele><time>2026-04-21T10:13:01.667Z</time></trkpt><trkpt lat="44.54259" lon="8.774035"><ele>794.2</ele><time>2026-04-21T10:13:02.667Z</time></trkpt><trkpt lat="44.54265" lon="8.774145"><ele>793.0</ele><time>2026-04-21T10:13:03.666Z</time></trkpt><trkpt lat="44.54272" lon="8.77427"><ele>794.0</ele><time>2026-04-21T10:13:04.666Z</time></trkpt><trkpt lat="44.5427833" lon="8.7743917"><ele>795.0</ele><time>2026-04-21T10:13:05.667Z</time></trkpt><trkpt lat="44.5428267" lon="8.774515"><ele>796.0</ele><time>2026-04-21T10:13:06.667Z</time></trkpt><trkpt lat="44.5428483" lon="8.7746317"><ele>797.0</ele><time>2026-04-21T10:13:07.667Z</time></trkpt><trkpt lat="44.5428567" lon="8.774745"><ele>798.0</ele><time>2026-04-21T10:13:08.667Z</time></trkpt><trkpt lat="44.542845" lon="8.7748733"><ele>798.0</ele><time>2026-04-21T10:13:09.666Z</time></trkpt><trkpt lat="44.54282" lon="8.774995"><ele>798.0</ele><time>2026-04-21T10:13:10.666Z</time></trkpt><trkpt lat="44.5427983" lon="8.7751167"><ele>798.0</ele><time>2026-04-21T10:13:11.667Z</time></trkpt><trkpt lat="44.5427967" lon="8.7752583"><ele>798.0</ele><time>2026-04-21T10:13:12.666Z</time></trkpt><trkpt lat="44.5428067" lon="8.7754083"><ele>798.0</ele><time>2026-04-21T10:13:13.667Z</time></trkpt><trkpt lat="44.5428017" lon="8.77555"><ele>800.2</ele><time>2026-04-21T10:13:14.667Z</time></trkpt><trkpt lat="44.5427733" lon="8.7756883"><ele>802.4</ele><time>2026-04-21T10:13:15.667Z</time></trkpt><trkpt lat="44.542735" lon="8.77581"><ele>804.6</ele><time>2026-04-21T10:13:16.666Z</time></trkpt><trkpt lat="44.542715" lon="8.775925"><ele>806.8000000000001</ele><time>2026-04-21T10:13:17.667Z</time></trkpt><trkpt lat="44.5427083" lon="8.7760433"><ele>809.0</ele><time>2026-04-21T10:13:18.666Z</time></trkpt><trkpt lat="44.5427267" lon="8.776175"><ele>809.0</ele><time>2026-04-21T10:13:19.666Z</time></trkpt><trkpt lat="44.5427617" lon="8.7763267"><ele>809.0</ele><time>2026-04-21T10:13:20.667Z</time></trkpt><trkpt lat="44.5428117" lon="8.7764983"><ele>809.0</ele><time>2026-04-21T10:13:21.666Z</time></trkpt><trkpt lat="44.5428433" lon="8.7766833"><ele>809.0</ele><time>2026-04-21T10:13:22.666Z</time></trkpt><trkpt lat="44.5428667" lon="8.7768617"><ele>808.75</ele><time>2026-04-21T10:13:23.667Z</time></trkpt><trkpt lat="44.54287" lon="8.7770517"><ele>808.5</ele><time>2026-04-21T10:13:24.666Z</time></trkpt><trkpt lat="44.5428633" lon="8.7772517"><ele>808.25</ele><time>2026-04-21T10:13:25.667Z</time></trkpt><trkpt lat="44.542855" lon="8.777465"><ele>808.0</ele><time>2026-04-21T10:13:26.666Z</time></trkpt><trkpt lat="44.5428283" lon="8.777685"><ele>810.25</ele><time>2026-04-21T10:13:27.666Z</time></trkpt><trkpt lat="44.542795" lon="8.7778583"><ele>812.5</ele><time>2026-04-21T10:13:28.666Z</time></trkpt><trkpt lat="44.5427433" lon="8.778005"><ele>814.75</ele><time>2026-04-21T10:13:29.666Z</time></trkpt><trkpt lat="44.5426717" lon="8.778135"><ele>817.0</ele><time>2026-04-21T10:13:30.666Z</time></trkpt><trkpt lat="44.5425833" lon="8.7782733"><ele>817.0</ele><time>2026-04-21T10:13:31.667Z</time></trkpt><trkpt lat="44.54249" lon="8.7784333"><ele>817.0</ele><time>2026-04-21T10:13:32.667Z</time></trkpt><trkpt lat="44.5423933" lon="8.7785983"><ele>817.0</ele><time>2026-04-21T10:13:33.667Z</time></trkpt><trkpt lat="44.5423067" lon="8.77877"><ele>817.0</ele><time>2026-04-21T10:13:34.666Z</time></trkpt><trkpt lat="44.5422117" lon="8.7789233"><ele>816.5</ele><time>2026-04-21T10:13:35.667Z</time></trkpt><trkpt lat="44.5421167" lon="8.77907"><ele>816.0</ele><time>2026-04-21T10:13:36.667Z</time></trkpt><trkpt lat="44.54202" lon="8.7791967"><ele>815.5</ele><time>2026-04-21T10:13:37.666Z</time></trkpt><trkpt lat="44.5419233" lon="8.779315"><ele>815.0</ele><time>2026-04-21T10:13:38.666Z</time></trkpt><trkpt lat="44.54183" lon="8.7794267"><ele>817.2</ele><time>2026-04-21T10:13:39.666Z</time></trkpt><trkpt lat="44.54174" lon="8.7795333"><ele>819.4</ele><time>2026-04-21T10:13:40.667Z</time></trkpt><trkpt lat="44.5416517" lon="8.7796183"><ele>821.5999999999999</ele><time>2026-04-21T10:13:41.667Z</time></trkpt><trkpt lat="44.5415483" lon="8.779665"><ele>823.8</ele><time>2026-04-21T10:13:42.666Z</time></trkpt><trkpt lat="44.5414433" lon="8.7797033"><ele>826.0</ele><time>2026-04-21T10:13:43.666Z</time></trkpt><trkpt lat="44.5413367" lon="8.77975"><ele>826.0</ele><time>2026-04-21T10:13:44.667Z</time></trkpt><trkpt lat="44.5412317" lon="8.7798283"><ele>826.0</ele><time>2026-04-21T10:13:45.666Z</time></trkpt><trkpt lat="44.541125" lon="8.7799267"><ele>826.0</ele><time>2026-04-21T10:13:46.667Z</time></trkpt><trkpt lat="44.5410183" lon="8.7800367"><ele>826.0</ele><time>2026-04-21T10:13:47.666Z</time></trkpt><trkpt lat="44.540905" lon="8.7801383"><ele>826.5</ele><time>2026-04-21T10:13:48.667Z</time></trkpt><trkpt lat="44.5407783" lon="8.7802283"><ele>827.0</ele><time>2026-04-21T10:13:49.666Z</time></trkpt><trkpt lat="44.540665" lon="8.7803017"><ele>827.5</ele><time>2026-04-21T10:13:50.667Z</time></trkpt><trkpt lat="44.54055" lon="8.7803667"><ele>828.0</ele><time>2026-04-21T10:13:51.667Z</time></trkpt><trkpt lat="44.5404317" lon="8.7804283"><ele>826.75</ele><time>2026-04-21T10:13:52.666Z</time></trkpt><trkpt lat="44.5403183" lon="8.7805"><ele>825.5</ele><time>2026-04-21T10:13:53.666Z</time></trkpt><trkpt lat="44.5402033" lon="8.78059"><ele>824.25</ele><time>2026-04-21T10:13:54.666Z</time></trkpt><trkpt lat="44.5401083" lon="8.78068"><ele>823.0</ele><time>2026-04-21T10:13:55.667Z</time></trkpt><trkpt lat="44.5400017" lon="8.7807667"><ele>823.0</ele><time>2026-04-21T10:13:56.667Z</time></trkpt><trkpt lat="44.53988" lon="8.7808217"><ele>823.0</ele><time>2026-04-21T10:13:57.666Z</time></trkpt><trkpt lat="44.5397417" lon="8.780865"><ele>823.0</ele><time>2026-04-21T10:13:58.666Z</time></trkpt><trkpt lat="44.53958" lon="8.780915"><ele>823.0</ele><time>2026-04-21T10:13:59.667Z</time></trkpt><trkpt lat="44.5394133" lon="8.7809733"><ele>827.6666666666666</ele><time>2026-04-21T10:14:00.666Z</time></trkpt><trkpt lat="44.5392383" lon="8.7810383"><ele>832.3333333333333</ele><time>2026-04-21T10:14:01.667Z</time></trkpt><trkpt lat="44.539065" lon="8.781095"><ele>837.0</ele><time>2026-04-21T10:14:02.667Z</time></trkpt><trkpt lat="44.5388817" lon="8.7811517"><ele>839.6666666666667</ele><time>2026-04-21T10:14:03.666Z</time></trkpt><trkpt lat="44.5387067" lon="8.7812083"><ele>842.3333333333334</ele><time>2026-04-21T10:14:04.667Z</time></trkpt><trkpt lat="44.5385467" lon="8.781265"><ele>845.0</ele><time>2026-04-21T10:14:05.667Z</time></trkpt><trkpt lat="44.5384017" lon="8.7813117"><ele>845.0</ele><time>2026-04-21T10:14:06.666Z</time></trkpt><trkpt lat="44.5382933" lon="8.7813383"><ele>845.0</ele><time>2026-04-21T10:14:07.666Z</time></trkpt><trkpt lat="44.5381967" lon="8.7813217"><ele>845.0</ele><time>2026-04-21T10:14:08.666Z</time></trkpt><trkpt lat="44.53812" lon="8.7812817"><ele>845.0</ele><time>2026-04-21T10:14:09.667Z</time></trkpt><trkpt lat="44.53805" lon="8.7812083"><ele>845.0</ele><time>2026-04-21T10:14:10.666Z</time></trkpt><trkpt lat="44.5379783" lon="8.7811117"><ele>846.5</ele><time>2026-04-21T10:14:11.667Z</time></trkpt><trkpt lat="44.5378933" lon="8.7809933"><ele>848.0</ele><time>2026-04-21T10:14:12.666Z</time></trkpt><trkpt lat="44.537795" lon="8.7808767"><ele>849.5</ele><time>2026-04-21T10:14:13.666Z</time></trkpt><trkpt lat="44.537685" lon="8.7807517"><ele>851.0</ele><time>2026-04-21T10:14:14.667Z</time></trkpt><trkpt lat="44.5375833" lon="8.78062"><ele>851.0</ele><time>2026-04-21T10:14:15.666Z</time></trkpt><trkpt lat="44.5374783" lon="8.780485"><ele>851.0</ele><time>2026-04-21T10:14:16.666Z</time></trkpt><trkpt lat="44.5373817" lon="8.78036"><ele>851.0</ele><time>2026-04-21T10:14:17.667Z</time></trkpt><trkpt lat="44.5372883" lon="8.7802333"><ele>851.0</ele><time>2026-04-21T10:14:18.666Z</time></trkpt><trkpt lat="44.53719" lon="8.78011"><ele>853.0</ele><time>2026-04-21T10:14:19.667Z</time></trkpt><trkpt lat="44.5370817" lon="8.7799933"><ele>855.0</ele><time>2026-04-21T10:14:20.667Z</time></trkpt><trkpt lat="44.536965" lon="8.7798917"><ele>857.0</ele><time>2026-04-21T10:14:21.667Z</time></trkpt><trkpt lat="44.5368317" lon="8.779805"><ele>859.0</ele><time>2026-04-21T10:14:22.667Z</time></trkpt><trkpt lat="44.5366867" lon="8.7796983"><ele>859.0</ele><time>2026-04-21T10:14:23.667Z</time></trkpt><trkpt lat="44.536535" lon="8.7795867"><ele>859.0</ele><time>2026-04-21T10:14:24.666Z</time></trkpt><trkpt lat="44.53637" lon="8.77946"><ele>859.0</ele><time>2026-04-21T10:14:25.666Z</time></trkpt><trkpt lat="44.536205" lon="8.77932"><ele>859.0</ele><time>2026-04-21T10:14:26.666Z</time></trkpt><trkpt lat="44.5360333" lon="8.7791767"><ele>859.0</ele><time>2026-04-21T10:14:27.666Z</time></trkpt><trkpt lat="44.5358517" lon="8.779025"><ele>859.0</ele><time>2026-04-21T10:14:28.667Z</time></trkpt><trkpt lat="44.53566" lon="8.7788783"><ele>859.0</ele><time>2026-04-21T10:14:29.666Z</time></trkpt><trkpt lat="44.535465" lon="8.77872"><ele>859.0</ele><time>2026-04-21T10:14:30.666Z</time></trkpt><trkpt lat="44.5352833" lon="8.7785583"><ele>859.0</ele><time>2026-04-21T10:14:31.666Z</time></trkpt><trkpt lat="44.5351133" lon="8.7784267"><ele>860.6666666666666</ele><time>2026-04-21T10:14:32.666Z</time></trkpt><trkpt lat="44.53495" lon="8.778285"><ele>862.3333333333333</ele><time>2026-04-21T10:14:33.666Z</time></trkpt><trkpt lat="44.5347833" lon="8.7781417"><ele>864.0</ele><time>2026-04-21T10:14:34.667Z</time></trkpt><trkpt lat="44.534625" lon="8.7780067"><ele>865.6666666666667</ele><time>2026-04-21T10:14:35.666Z</time></trkpt><trkpt lat="44.5344717" lon="8.7778867"><ele>867.3333333333334</ele><time>2026-04-21T10:14:36.666Z</time></trkpt><trkpt lat="44.5343133" lon="8.77776"><ele>869.0</ele><time>2026-04-21T10:14:37.667Z</time></trkpt><trkpt lat="44.534165" lon="8.7776267"><ele>869.0</ele><time>2026-04-21T10:14:38.666Z</time></trkpt><trkpt lat="44.534015" lon="8.7774967"><ele>869.0</ele><time>2026-04-21T10:14:39.667Z</time></trkpt><trkpt lat="44.5338467" lon="8.7773633"><ele>869.0</ele><time>2026-04-21T10:14:40.667Z</time></trkpt><trkpt lat="44.533685" lon="8.7772233"><ele>873.3333333333334</ele><time>2026-04-21T10:14:41.667Z</time></trkpt><trkpt lat="44.53353" lon="8.7771033"><ele>877.6666666666667</ele><time>2026-04-21T10:14:42.666Z</time></trkpt><trkpt lat="44.5333917" lon="8.7769967"><ele>882.0</ele><time>2026-04-21T10:14:43.666Z</time></trkpt><trkpt lat="44.5332733" lon="8.776895"><ele>881.5</ele><time>2026-04-21T10:14:44.666Z</time></trkpt><trkpt lat="44.533155" lon="8.776815"><ele>881.0</ele><time>2026-04-21T10:14:45.666Z</time></trkpt><trkpt lat="44.533035" lon="8.7767417"><ele>880.5</ele><time>2026-04-21T10:14:46.666Z</time></trkpt><trkpt lat="44.5328967" lon="8.7766983"><ele>880.0</ele><time>2026-04-21T10:14:47.666Z</time></trkpt><trkpt lat="44.5327417" lon="8.776665"><ele>880.0</ele><time>2026-04-21T10:14:48.667Z</time></trkpt><trkpt lat="44.5325817" lon="8.7766367"><ele>880.0</ele><time>2026-04-21T10:14:49.666Z</time></trkpt><trkpt lat="44.53243" lon="8.7766033"><ele>880.0</ele><time>2026-04-21T10:14:50.666Z</time></trkpt><trkpt lat="44.532285" lon="8.7765567"><ele>880.0</ele><time>2026-04-21T10:14:51.666Z</time></trkpt><trkpt lat="44.532135" lon="8.7765233"><ele>880.0</ele><time>2026-04-21T10:14:52.666Z</time></trkpt><trkpt lat="44.531975" lon="8.7765067"><ele>880.0</ele><time>2026-04-21T10:14:53.666Z</time></trkpt><trkpt lat="44.5318167" lon="8.7764833"><ele>881.5</ele><time>2026-04-21T10:14:54.666Z</time></trkpt><trkpt lat="44.531675" lon="8.7764583"><ele>883.0</ele><time>2026-04-21T10:14:55.667Z</time></trkpt><trkpt lat="44.531535" lon="8.7764217"><ele>884.5</ele><time>2026-04-21T10:14:56.667Z</time></trkpt><trkpt lat="44.531405" lon="8.7763983"><ele>886.0</ele><time>2026-04-21T10:14:57.667Z</time></trkpt><trkpt lat="44.5312683" lon="8.776395"><ele>887.75</ele><time>2026-04-21T10:14:58.667Z</time></trkpt><trkpt lat="44.5311233" lon="8.7764"><ele>889.5</ele><time>2026-04-21T10:14:59.666Z</time></trkpt><trkpt lat="44.530975" lon="8.7763983"><ele>891.25</ele><time>2026-04-21T10:15:00.667Z</time></trkpt><trkpt lat="44.5308333" lon="8.7764"><ele>893.0</ele><time>2026-04-21T10:15:01.667Z</time></trkpt><trkpt lat="44.530695" lon="8.7763817"><ele>893.0</ele><time>2026-04-21T10:15:02.666Z</time></trkpt><trkpt lat="44.53056" lon="8.776355"><ele>893.0</ele><time>2026-04-21T10:15:03.666Z</time></trkpt><trkpt lat="44.530415" lon="8.776345"><ele>893.0</ele><time>2026-04-21T10:15:04.666Z</time></trkpt><trkpt lat="44.5302767" lon="8.7763367"><ele>893.0</ele><time>2026-04-21T10:15:05.667Z</time></trkpt><trkpt lat="44.5301367" lon="8.7763483"><ele>893.3333333333334</ele><time>2026-04-21T10:15:06.666Z</time></trkpt><trkpt lat="44.52998" lon="8.7763883"><ele>893.6666666666667</ele><time>2026-04-21T10:15:07.666Z</time></trkpt><trkpt lat="44.52983" lon="8.7764433"><ele>894.0</ele><time>2026-04-21T10:15:08.666Z</time></trkpt><trkpt lat="44.529695" lon="8.7764683"><ele>893.5</ele><time>2026-04-21T10:15:09.667Z</time></trkpt><trkpt lat="44.5295567" lon="8.7764567"><ele>893.0</ele><time>2026-04-21T10:15:10.667Z</time></trkpt><trkpt lat="44.529425" lon="8.77643"><ele>892.5</ele><time>2026-04-21T10:15:11.666Z</time></trkpt><trkpt lat="44.5292983" lon="8.7763983"><ele>892.0</ele><time>2026-04-21T10:15:12.667Z</time></trkpt><trkpt lat="44.529195" lon="8.7763717"><ele>891.9999999999999</ele><time>2026-04-21T10:15:13.667Z</time></trkpt><trkpt lat="44.5291083" lon="8.7763583"><ele>892.0</ele><time>2026-04-21T10:15:14.667Z</time></trkpt><trkpt lat="44.52903" lon="8.7763783"><ele>892.0</ele><time>2026-04-21T10:15:15.667Z</time></trkpt><trkpt lat="44.5289667" lon="8.7764183"><ele>892.0</ele><time>2026-04-21T10:15:16.667Z</time></trkpt><trkpt lat="44.5289167" lon="8.7764883"><ele>891.9999999999999</ele><time>2026-04-21T10:15:17.668Z</time></trkpt><trkpt lat="44.5288867" lon="8.776615"><ele>892.0</ele><time>2026-04-21T10:15:18.667Z</time></trkpt><trkpt lat="44.5288733" lon="8.7767617"><ele>894.25</ele><time>2026-04-21T10:15:19.667Z</time></trkpt><trkpt lat="44.52887" lon="8.7769517"><ele>896.5</ele><time>2026-04-21T10:15:20.667Z</time></trkpt><trkpt lat="44.5288467" lon="8.7771567"><ele>898.75</ele><time>2026-04-21T10:15:21.667Z</time></trkpt><trkpt lat="44.5287917" lon="8.7773633"><ele>901.0</ele><time>2026-04-21T10:15:22.668Z</time></trkpt><trkpt lat="44.5287217" lon="8.7775667"><ele>898.75</ele><time>2026-04-21T10:15:23.668Z</time></trkpt><trkpt lat="44.5286417" lon="8.7777617"><ele>896.5</ele><time>2026-04-21T10:15:24.667Z</time></trkpt><trkpt lat="44.528565" lon="8.7779367"><ele>894.25</ele><time>2026-04-21T10:15:25.668Z</time></trkpt><trkpt lat="44.5284917" lon="8.7780967"><ele>892.0</ele><time>2026-04-21T10:15:26.668Z</time></trkpt><trkpt lat="44.5284233" lon="8.77825"><ele>892.0</ele><time>2026-04-21T10:15:27.668Z</time></trkpt><trkpt lat="44.5283517" lon="8.77839"><ele>892.0</ele><time>2026-04-21T10:15:28.667Z</time></trkpt><trkpt lat="44.528275" lon="8.7785117"><ele>892.0</ele><time>2026-04-21T10:15:29.667Z</time></trkpt><trkpt lat="44.5281833" lon="8.77863"><ele>892.0</ele><time>2026-04-21T10:15:30.667Z</time></trkpt><trkpt lat="44.5280783" lon="8.7787417"><ele>895.4000000000001</ele><time>2026-04-21T10:15:31.667Z</time></trkpt><trkpt lat="44.5279833" lon="8.7788433"><ele>898.8000000000001</ele><time>2026-04-21T10:15:32.668Z</time></trkpt><trkpt lat="44.5278867" lon="8.7789267"><ele>902.2</ele><time>2026-04-21T10:15:33.667Z</time></trkpt><trkpt lat="44.5278067" lon="8.7790167"><ele>905.6</ele><time>2026-04-21T10:15:34.667Z</time></trkpt><trkpt lat="44.52775" lon="8.7791183"><ele>909.0</ele><time>2026-04-21T10:15:35.667Z</time></trkpt><trkpt lat="44.527725" lon="8.7792467"><ele>899.5</ele><time>2026-04-21T10:15:36.667Z</time></trkpt><trkpt lat="44.5277067" lon="8.7794083"><ele>890.0</ele><time>2026-04-21T10:15:37.668Z</time></trkpt><trkpt lat="44.5276933" lon="8.77959"><ele>880.5</ele><time>2026-04-21T10:15:38.668Z</time></trkpt><trkpt lat="44.5276883" lon="8.7797967"><ele>871.0</ele><time>2026-04-21T10:15:39.667Z</time></trkpt><trkpt lat="44.5276933" lon="8.7800167"><ele>873.25</ele><time>2026-04-21T10:15:40.668Z</time></trkpt><trkpt lat="44.5276867" lon="8.7802367"><ele>875.5</ele><time>2026-04-21T10:15:41.667Z</time></trkpt><trkpt lat="44.5276817" lon="8.7804383"><ele>877.75</ele><time>2026-04-21T10:15:42.668Z</time></trkpt><trkpt lat="44.5276683" lon="8.7806217"><ele>880.0</ele><time>2026-04-21T10:15:43.668Z</time></trkpt><trkpt lat="44.5276333" lon="8.780805"><ele>880.0</ele><time>2026-04-21T10:15:44.668Z</time></trkpt><trkpt lat="44.5275783" lon="8.7809867"><ele>880.0</ele><time>2026-04-21T10:15:45.667Z</time></trkpt><trkpt lat="44.5275" lon="8.781165"><ele>880.0</ele><time>2026-04-21T10:15:46.667Z</time></trkpt><trkpt lat="44.5274167" lon="8.7813367"><ele>880.0</ele><time>2026-04-21T10:15:47.667Z</time></trkpt><trkpt lat="44.5273417" lon="8.781495"><ele>883.0</ele><time>2026-04-21T10:15:48.668Z</time></trkpt><trkpt lat="44.527285" lon="8.7816483"><ele>886.0</ele><time>2026-04-21T10:15:49.667Z</time></trkpt><trkpt lat="44.5272433" lon="8.7818133"><ele>889.0</ele><time>2026-04-21T10:15:50.667Z</time></trkpt><trkpt lat="44.5272217" lon="8.781985"><ele>892.0</ele><time>2026-04-21T10:15:51.667Z</time></trkpt><trkpt lat="44.5271917" lon="8.7821533"><ele>893.6</ele><time>2026-04-21T10:15:52.668Z</time></trkpt><trkpt lat="44.52716" lon="8.7823"><ele>895.2</ele><time>2026-04-21T10:15:53.667Z</time></trkpt><trkpt lat="44.5271383" lon="8.7824017"><ele>896.8</ele><time>2026-04-21T10:15:54.668Z</time></trkpt><trkpt lat="44.52714" lon="8.782505"><ele>898.4</ele><time>2026-04-21T10:15:55.668Z</time></trkpt><trkpt lat="44.5271833" lon="8.782615"><ele>900.0</ele><time>2026-04-21T10:15:56.667Z</time></trkpt><trkpt lat="44.5272467" lon="8.78275"><ele>900.0</ele><time>2026-04-21T10:15:57.667Z</time></trkpt><trkpt lat="44.5272933" lon="8.7828967"><ele>900.0</ele><time>2026-04-21T10:15:58.667Z</time></trkpt><trkpt lat="44.5273133" lon="8.78304"><ele>900.0</ele><time>2026-04-21T10:15:59.667Z</time></trkpt><trkpt lat="44.5273033" lon="8.7831967"><ele>900.0</ele><time>2026-04-21T10:16:00.668Z</time></trkpt><trkpt lat="44.5272767" lon="8.7833733"><ele>901.25</ele><time>2026-04-21T10:16:01.667Z</time></trkpt><trkpt lat="44.52724" lon="8.7835333"><ele>902.5</ele><time>2026-04-21T10:16:02.668Z</time></trkpt><trkpt lat="44.527185" lon="8.783675"><ele>903.75</ele><time>2026-04-21T10:16:03.667Z</time></trkpt><trkpt lat="44.5271333" lon="8.7838033"><ele>905.0</ele><time>2026-04-21T10:16:04.668Z</time></trkpt><trkpt lat="44.527095" lon="8.7839483"><ele>905.0</ele><time>2026-04-21T10:16:05.667Z</time></trkpt><trkpt lat="44.5270717" lon="8.784125"><ele>905.0</ele><time>2026-04-21T10:16:06.668Z</time></trkpt><trkpt lat="44.5270517" lon="8.78431"><ele>905.0</ele><time>2026-04-21T10:16:07.667Z</time></trkpt><trkpt lat="44.5270417" lon="8.7844717"><ele>905.0</ele><time>2026-04-21T10:16:08.667Z</time></trkpt><trkpt lat="44.527015" lon="8.7846017"><ele>899.2</ele><time>2026-04-21T10:16:09.668Z</time></trkpt><trkpt lat="44.52697" lon="8.7846967"><ele>893.4</ele><time>2026-04-21T10:16:10.667Z</time></trkpt><trkpt lat="44.5269017" lon="8.7847883"><ele>887.5999999999999</ele><time>2026-04-21T10:16:11.667Z</time></trkpt><trkpt lat="44.52682" lon="8.7849083"><ele>881.8</ele><time>2026-04-21T10:16:12.668Z</time></trkpt><trkpt lat="44.5267383" lon="8.7850517"><ele>876.0</ele><time>2026-04-21T10:16:13.667Z</time></trkpt><trkpt lat="44.5266483" lon="8.7851767"><ele>876.5999999999999</ele><time>2026-04-21T10:16:14.668Z</time></trkpt><trkpt lat="44.5265683" lon="8.7852567"><ele>877.1999999999999</ele><time>2026-04-21T10:16:15.668Z</time></trkpt><trkpt lat="44.5264833" lon="8.7853033"><ele>877.8000000000001</ele><time>2026-04-21T10:16:16.667Z</time></trkpt><trkpt lat="44.5263933" lon="8.7853017"><ele>878.4000000000001</ele><time>2026-04-21T10:16:17.668Z</time></trkpt><trkpt lat="44.52629" lon="8.78527"><ele>879.0</ele><time>2026-04-21T10:16:18.667Z</time></trkpt><trkpt lat="44.5261933" lon="8.7852233"><ele>876.4000000000001</ele><time>2026-04-21T10:16:19.668Z</time></trkpt><trkpt lat="44.5261067" lon="8.785205"><ele>873.8000000000001</ele><time>2026-04-21T10:16:20.668Z</time></trkpt><trkpt lat="44.5260233" lon="8.7852317"><ele>871.1999999999999</ele><time>2026-04-21T10:16:21.667Z</time></trkpt><trkpt lat="44.5259517" lon="8.78529"><ele>868.5999999999999</ele><time>2026-04-21T10:16:22.667Z</time></trkpt><trkpt lat="44.5258817" lon="8.7854183"><ele>866.0</ele><time>2026-04-21T10:16:23.667Z</time></trkpt><trkpt lat="44.5257967" lon="8.785545"><ele>866.0</ele><time>2026-04-21T10:16:24.668Z</time></trkpt><trkpt lat="44.5257033" lon="8.785655"><ele>866.0</ele><time>2026-04-21T10:16:25.668Z</time></trkpt><trkpt lat="44.5256167" lon="8.7857617"><ele>866.0</ele><time>2026-04-21T10:16:26.667Z</time></trkpt><trkpt lat="44.5255433" lon="8.7858817"><ele>866.0</ele><time>2026-04-21T10:16:27.667Z</time></trkpt><trkpt lat="44.525475" lon="8.785985"><ele>863.0</ele><time>2026-04-21T10:16:28.668Z</time></trkpt><trkpt lat="44.5253933" lon="8.7860733"><ele>859.9999999999999</ele><time>2026-04-21T10:16:29.667Z</time></trkpt><trkpt lat="44.5253267" lon="8.786155"><ele>857.0</ele><time>2026-04-21T10:16:30.668Z</time></trkpt><trkpt lat="44.525275" lon="8.786255"><ele>854.0</ele><time>2026-04-21T10:16:31.668Z</time></trkpt><trkpt lat="44.52525" lon="8.786375"><ele>851.0</ele><time>2026-04-21T10:16:32.668Z</time></trkpt><trkpt lat="44.525235" lon="8.786535"><ele>851.0</ele><time>2026-04-21T10:16:33.667Z</time></trkpt><trkpt lat="44.5252217" lon="8.786715"><ele>851.0</ele><time>2026-04-21T10:16:34.668Z</time></trkpt><trkpt lat="44.5252033" lon="8.786895"><ele>851.0</ele><time>2026-04-21T10:16:35.667Z</time></trkpt><trkpt lat="44.5251817" lon="8.7870533"><ele>851.0</ele><time>2026-04-21T10:16:36.668Z</time></trkpt><trkpt lat="44.5251367" lon="8.7871867"><ele>851.4</ele><time>2026-04-21T10:16:37.667Z</time></trkpt><trkpt lat="44.5250867" lon="8.7872983"><ele>851.8</ele><time>2026-04-21T10:16:38.667Z</time></trkpt><trkpt lat="44.5250483" lon="8.7874167"><ele>852.1999999999999</ele><time>2026-04-21T10:16:39.667Z</time></trkpt><trkpt lat="44.52503" lon="8.7875683"><ele>852.5999999999999</ele><time>2026-04-21T10:16:40.667Z</time></trkpt><trkpt lat="44.5250233" lon="8.787725"><ele>853.0</ele><time>2026-04-21T10:16:41.668Z</time></trkpt><trkpt lat="44.5250167" lon="8.78787"><ele>853.0</ele><time>2026-04-21T10:16:42.668Z</time></trkpt><trkpt lat="44.52498" lon="8.7880267"><ele>853.0</ele><time>2026-04-21T10:16:43.668Z</time></trkpt><trkpt lat="44.5249233" lon="8.7881733"><ele>853.0</ele><time>2026-04-21T10:16:44.667Z</time></trkpt><trkpt lat="44.524855" lon="8.7883067"><ele>853.0</ele><time>2026-04-21T10:16:45.668Z</time></trkpt><trkpt lat="44.5247833" lon="8.78846"><ele>852.75</ele><time>2026-04-21T10:16:46.667Z</time></trkpt><trkpt lat="44.5247233" lon="8.788635"><ele>852.5</ele><time>2026-04-21T10:16:47.667Z</time></trkpt><trkpt lat="44.5246917" lon="8.7888217"><ele>852.25</ele><time>2026-04-21T10:16:48.667Z</time></trkpt><trkpt lat="44.524685" lon="8.7889967"><ele>852.0</ele><time>2026-04-21T10:16:49.668Z</time></trkpt><trkpt lat="44.52471" lon="8.78918"><ele>853.3333333333333</ele><time>2026-04-21T10:16:50.667Z</time></trkpt><trkpt lat="44.5247433" lon="8.7893767"><ele>854.6666666666666</ele><time>2026-04-21T10:16:51.668Z</time></trkpt><trkpt lat="44.5248" lon="8.789595"><ele>856.0</ele><time>2026-04-21T10:16:52.667Z</time></trkpt><trkpt lat="44.524855" lon="8.7898167"><ele>856.0</ele><time>2026-04-21T10:16:53.668Z</time></trkpt><trkpt lat="44.5249017" lon="8.790025"><ele>856.0</ele><time>2026-04-21T10:16:54.668Z</time></trkpt><trkpt lat="44.5249417" lon="8.79022"><ele>856.0</ele><time>2026-04-21T10:16:55.667Z</time></trkpt><trkpt lat="44.5249817" lon="8.7904"><ele>856.0</ele><time>2026-04-21T10:16:56.668Z</time></trkpt><trkpt lat="44.525025" lon="8.7905967"><ele>857.75</ele><time>2026-04-21T10:16:57.667Z</time></trkpt><trkpt lat="44.5250733" lon="8.7907967"><ele>859.5</ele><time>2026-04-21T10:16:58.668Z</time></trkpt><trkpt lat="44.5251183" lon="8.7909883"><ele>861.25</ele><time>2026-04-21T10:16:59.668Z</time></trkpt><trkpt lat="44.5251733" lon="8.7911767"><ele>863.0</ele><time>2026-04-21T10:17:00.667Z</time></trkpt><trkpt lat="44.5252283" lon="8.79134"><ele>862.75</ele><time>2026-04-21T10:17:01.668Z</time></trkpt><trkpt lat="44.5252917" lon="8.791495"><ele>862.5</ele><time>2026-04-21T10:17:02.668Z</time></trkpt><trkpt lat="44.5253733" lon="8.7916333"><ele>862.25</ele><time>2026-04-21T10:17:03.667Z</time></trkpt><trkpt lat="44.5254583" lon="8.7917783"><ele>862.0</ele><time>2026-04-21T10:17:04.668Z</time></trkpt><trkpt lat="44.525535" lon="8.79193"><ele>862.0</ele><time>2026-04-21T10:17:05.668Z</time></trkpt><trkpt lat="44.5255967" lon="8.7920867"><ele>862.0</ele><time>2026-04-21T10:17:06.667Z</time></trkpt><trkpt lat="44.5256333" lon="8.7922417"><ele>862.0</ele><time>2026-04-21T10:17:07.667Z</time></trkpt><trkpt lat="44.52565" lon="8.7923917"><ele>862.0</ele><time>2026-04-21T10:17:08.667Z</time></trkpt><trkpt lat="44.5256467" lon="8.79256"><ele>862.0</ele><time>2026-04-21T10:17:09.667Z</time></trkpt><trkpt lat="44.5256367" lon="8.7927417"><ele>862.0</ele><time>2026-04-21T10:17:10.667Z</time></trkpt><trkpt lat="44.52564" lon="8.7929167"><ele>862.0</ele><time>2026-04-21T10:17:11.667Z</time></trkpt><trkpt lat="44.5256567" lon="8.7930817"><ele>862.0</ele><time>2026-04-21T10:17:12.668Z</time></trkpt><trkpt lat="44.525675" lon="8.7932533"><ele>862.0</ele><time>2026-04-21T10:17:13.667Z</time></trkpt><trkpt lat="44.5256767" lon="8.7934183"><ele>862.0</ele><time>2026-04-21T10:17:14.667Z</time></trkpt><trkpt lat="44.5256583" lon="8.7935767"><ele>862.0</ele><time>2026-04-21T10:17:15.668Z</time></trkpt><trkpt lat="44.5256133" lon="8.7937283"><ele>862.0</ele><time>2026-04-21T10:17:16.667Z</time></trkpt><trkpt lat="44.5255517" lon="8.793885"><ele>863.75</ele><time>2026-04-21T10:17:17.667Z</time></trkpt><trkpt lat="44.52549" lon="8.79407"><ele>865.5</ele><time>2026-04-21T10:17:18.668Z</time></trkpt><trkpt lat="44.52545" lon="8.7942733"><ele>867.25</ele><time>2026-04-21T10:17:19.668Z</time></trkpt><trkpt lat="44.5254233" lon="8.7944767"><ele>869.0</ele><time>2026-04-21T10:17:20.667Z</time></trkpt><trkpt lat="44.5254" lon="8.7946533"><ele>870.6666666666667</ele><time>2026-04-21T10:17:21.667Z</time></trkpt><trkpt lat="44.525385" lon="8.7947883"><ele>872.3333333333334</ele><time>2026-04-21T10:17:22.668Z</time></trkpt><trkpt lat="44.525405" lon="8.7948833"><ele>874.0</ele><time>2026-04-21T10:17:23.668Z</time></trkpt><trkpt lat="44.5254433" lon="8.7949567"><ele>875.6666666666667</ele><time>2026-04-21T10:17:24.667Z</time></trkpt><trkpt lat="44.5255267" lon="8.7950067"><ele>877.3333333333334</ele><time>2026-04-21T10:17:25.667Z</time></trkpt><trkpt lat="44.5256367" lon="8.7950483"><ele>879.0</ele><time>2026-04-21T10:17:26.668Z</time></trkpt><trkpt lat="44.525775" lon="8.7950733"><ele>879.0</ele><time>2026-04-21T10:17:27.667Z</time></trkpt><trkpt lat="44.5258983" lon="8.7950767"><ele>879.0000000000001</ele><time>2026-04-21T10:17:28.667Z</time></trkpt><trkpt lat="44.5260033" lon="8.79508"><ele>879.0000000000001</ele><time>2026-04-21T10:17:29.667Z</time></trkpt><trkpt lat="44.5260883" lon="8.79511"><ele>879.0</ele><time>2026-04-21T10:17:30.667Z</time></trkpt><trkpt lat="44.5261467" lon="8.7951817"><ele>879.0</ele><time>2026-04-21T10:17:31.668Z</time></trkpt><trkpt lat="44.5261817" lon="8.7952783"><ele>880.25</ele><time>2026-04-21T10:17:32.667Z</time></trkpt><trkpt lat="44.5261767" lon="8.79541"><ele>881.5</ele><time>2026-04-21T10:17:33.667Z</time></trkpt><trkpt lat="44.5261567" lon="8.7955583"><ele>882.75</ele><time>2026-04-21T10:17:34.667Z</time></trkpt><trkpt lat="44.52613" lon="8.7957367"><ele>884.0</ele><time>2026-04-21T10:17:35.667Z</time></trkpt><trkpt lat="44.5260917" lon="8.7959367"><ele>883.5</ele><time>2026-04-21T10:17:36.668Z</time></trkpt><trkpt lat="44.5260633" lon="8.7961317"><ele>883.0</ele><time>2026-04-21T10:17:37.667Z</time></trkpt><trkpt lat="44.5260317" lon="8.7963133"><ele>882.5</ele><time>2026-04-21T10:17:38.667Z</time></trkpt><trkpt lat="44.526" lon="8.7964467"><ele>882.0</ele><time>2026-04-21T10:17:39.667Z</time></trkpt><trkpt lat="44.5259483" lon="8.7965417"><ele>882.0</ele><time>2026-04-21T10:17:40.668Z</time></trkpt><trkpt lat="44.5258733" lon="8.7966267"><ele>882.0</ele><time>2026-04-21T10:17:41.668Z</time></trkpt><trkpt lat="44.525805" lon="8.7967233"><ele>882.0</ele><time>2026-04-21T10:17:42.667Z</time></trkpt><trkpt lat="44.5257417" lon="8.7968217"><ele>882.0</ele><time>2026-04-21T10:17:43.667Z</time></trkpt><trkpt lat="44.5256717" lon="8.79692"><ele>882.0</ele><time>2026-04-21T10:17:44.667Z</time></trkpt><trkpt lat="44.5256" lon="8.797015"><ele>881.0</ele><time>2026-04-21T10:17:45.667Z</time></trkpt><trkpt lat="44.525515" lon="8.7971133"><ele>880.0</ele><time>2026-04-21T10:17:46.667Z</time></trkpt><trkpt lat="44.52542" lon="8.7972017"><ele>879.0</ele><time>2026-04-21T10:17:47.667Z</time></trkpt><trkpt lat="44.5253283" lon="8.7972717"><ele>878.0</ele><time>2026-04-21T10:17:48.668Z</time></trkpt><trkpt lat="44.5252333" lon="8.797325"><ele>877.0</ele><time>2026-04-21T10:17:49.668Z</time></trkpt><trkpt lat="44.5251367" lon="8.7973667"><ele>877.0</ele><time>2026-04-21T10:17:50.667Z</time></trkpt><trkpt lat="44.5250417" lon="8.7973967"><ele>877.0</ele><time>2026-04-21T10:17:51.668Z</time></trkpt><trkpt lat="44.5249333" lon="8.7974083"><ele>877.0</ele><time>2026-04-21T10:17:52.668Z</time></trkpt><trkpt lat="44.5248117" lon="8.797405"><ele>877.0</ele><time>2026-04-21T10:17:53.668Z</time></trkpt><trkpt lat="44.5246983" lon="8.7973717"><ele>877.0</ele><time>2026-04-21T10:17:54.667Z</time></trkpt><trkpt lat="44.5245783" lon="8.7973283"><ele>874.5</ele><time>2026-04-21T10:17:55.667Z</time></trkpt><trkpt lat="44.5244517" lon="8.79729"><ele>872.0</ele><time>2026-04-21T10:17:56.667Z</time></trkpt><trkpt lat="44.5243267" lon="8.7972367"><ele>869.5</ele><time>2026-04-21T10:17:57.667Z</time></trkpt><trkpt lat="44.52421" lon="8.7971867"><ele>867.0</ele><time>2026-04-21T10:17:58.668Z</time></trkpt><trkpt lat="44.524095" lon="8.7971317"><ele>867.0</ele><time>2026-04-21T10:17:59.667Z</time></trkpt><trkpt lat="44.5239767" lon="8.7970533"><ele>867.0</ele><time>2026-04-21T10:18:00.668Z</time></trkpt><trkpt lat="44.5238633" lon="8.7969533"><ele>867.0</ele><time>2026-04-21T10:18:01.668Z</time></trkpt><trkpt lat="44.5237583" lon="8.7968333"><ele>867.0</ele><time>2026-04-21T10:18:02.667Z</time></trkpt><trkpt lat="44.5236483" lon="8.79671"><ele>868.5</ele><time>2026-04-21T10:18:03.668Z</time></trkpt><trkpt lat="44.5235217" lon="8.7965933"><ele>870.0</ele><time>2026-04-21T10:18:04.667Z</time></trkpt><trkpt lat="44.5233983" lon="8.7964883"><ele>871.5</ele><time>2026-04-21T10:18:05.667Z</time></trkpt><trkpt lat="44.5232683" lon="8.7963917"><ele>873.0</ele><time>2026-04-21T10:18:06.667Z</time></trkpt><trkpt lat="44.5231433" lon="8.7963067"><ele>873.0</ele><time>2026-04-21T10:18:07.667Z</time></trkpt><trkpt lat="44.5230267" lon="8.796225"><ele>873.0</ele><time>2026-04-21T10:18:08.668Z</time></trkpt><trkpt lat="44.5229017" lon="8.7961683"><ele>873.0</ele><time>2026-04-21T10:18:09.667Z</time></trkpt><trkpt lat="44.5227583" lon="8.7961317"><ele>873.0</ele><time>2026-04-21T10:18:10.667Z</time></trkpt><trkpt lat="44.52262" lon="8.7961033"><ele>874.75</ele><time>2026-04-21T10:18:11.667Z</time></trkpt><trkpt lat="44.522485" lon="8.79608"><ele>876.5</ele><time>2026-04-21T10:18:12.667Z</time></trkpt><trkpt lat="44.5223567" lon="8.7960617"><ele>878.25</ele><time>2026-04-21T10:18:13.668Z</time></trkpt><trkpt lat="44.52224" lon="8.7960167"><ele>880.0</ele><time>2026-04-21T10:18:14.667Z</time></trkpt><trkpt lat="44.5221183" lon="8.7959383"><ele>877.5</ele><time>2026-04-21T10:18:15.667Z</time></trkpt><trkpt lat="44.5219917" lon="8.7958483"><ele>875.0</ele><time>2026-04-21T10:18:16.667Z</time></trkpt><trkpt lat="44.5218633" lon="8.795765"><ele>872.5</ele><time>2026-04-21T10:18:17.667Z</time></trkpt><trkpt lat="44.5217233" lon="8.7956817"><ele>870.0</ele><time>2026-04-21T10:18:18.667Z</time></trkpt><trkpt lat="44.5215883" lon="8.795625"><ele>870.0</ele><time>2026-04-21T10:18:19.667Z</time></trkpt><trkpt lat="44.5214533" lon="8.7955867"><ele>870.0</ele><time>2026-04-21T10:18:20.667Z</time></trkpt><trkpt lat="44.5213233" lon="8.795565"><ele>870.0</ele><time>2026-04-21T10:18:21.668Z</time></trkpt><trkpt lat="44.5211967" lon="8.7955417"><ele>870.0</ele><time>2026-04-21T10:18:22.668Z</time></trkpt><trkpt lat="44.52107" lon="8.7955"><ele>868.0</ele><time>2026-04-21T10:18:23.667Z</time></trkpt><trkpt lat="44.52095" lon="8.7954217"><ele>866.0</ele><time>2026-04-21T10:18:24.667Z</time></trkpt><trkpt lat="44.520815" lon="8.79533"><ele>864.0</ele><time>2026-04-21T10:18:25.667Z</time></trkpt><trkpt lat="44.52068" lon="8.7952433"><ele>862.0</ele><time>2026-04-21T10:18:26.668Z</time></trkpt><trkpt lat="44.5205467" lon="8.7951733"><ele>865.0</ele><time>2026-04-21T10:18:27.668Z</time></trkpt><trkpt lat="44.5204033" lon="8.7951017"><ele>868.0</ele><time>2026-04-21T10:18:28.668Z</time></trkpt><trkpt lat="44.5202467" lon="8.795045"><ele>871.0</ele><time>2026-04-21T10:18:29.668Z</time></trkpt><trkpt lat="44.52009" lon="8.7949767"><ele>871.0</ele><time>2026-04-21T10:18:30.667Z</time></trkpt><trkpt lat="44.5199367" lon="8.7949167"><ele>871.0</ele><time>2026-04-21T10:18:31.668Z</time></trkpt><trkpt lat="44.5197883" lon="8.7948533"><ele>871.0</ele><time>2026-04-21T10:18:32.667Z</time></trkpt><trkpt lat="44.5196317" lon="8.7947917"><ele>869.0</ele><time>2026-04-21T10:18:33.667Z</time></trkpt><trkpt lat="44.519475" lon="8.7947283"><ele>867.0</ele><time>2026-04-21T10:18:34.667Z</time></trkpt><trkpt lat="44.519305" lon="8.794655"><ele>865.0</ele><time>2026-04-21T10:18:35.668Z</time></trkpt><trkpt lat="44.5191233" lon="8.7945617"><ele>865.0</ele><time>2026-04-21T10:18:36.668Z</time></trkpt><trkpt lat="44.5189567" lon="8.794465"><ele>865.0</ele><time>2026-04-21T10:18:37.667Z</time></trkpt><trkpt lat="44.518795" lon="8.794385"><ele>865.0</ele><time>2026-04-21T10:18:38.667Z</time></trkpt><trkpt lat="44.5186433" lon="8.7943133"><ele>867.0</ele><time>2026-04-21T10:18:39.668Z</time></trkpt><trkpt lat="44.5184883" lon="8.7942683"><ele>869.0</ele><time>2026-04-21T10:18:40.667Z</time></trkpt><trkpt lat="44.518315" lon="8.7942383"><ele>871.0</ele><time>2026-04-21T10:18:41.668Z</time></trkpt><trkpt lat="44.5181567" lon="8.7942167"><ele>871.0</ele><time>2026-04-21T10:18:42.668Z</time></trkpt><trkpt lat="44.5180267" lon="8.794205"><ele>870.9999999999999</ele><time>2026-04-21T10:18:43.667Z</time></trkpt><trkpt lat="44.5179183" lon="8.7942017"><ele>870.9999999999999</ele><time>2026-04-21T10:18:44.667Z</time></trkpt><trkpt lat="44.5178267" lon="8.79423"><ele>871.0</ele><time>2026-04-21T10:18:45.668Z</time></trkpt><trkpt lat="44.51775" lon="8.794295"><ele>871.0</ele><time>2026-04-21T10:18:46.668Z</time></trkpt><trkpt lat="44.5176917" lon="8.79441"><ele>871.5</ele><time>2026-04-21T10:18:47.668Z</time></trkpt><trkpt lat="44.5176483" lon="8.7945683"><ele>872.0</ele><time>2026-04-21T10:18:48.668Z</time></trkpt><trkpt lat="44.51761" lon="8.7947517"><ele>872.5</ele><time>2026-04-21T10:18:49.668Z</time></trkpt><trkpt lat="44.517575" lon="8.7949517"><ele>873.0</ele><time>2026-04-21T10:18:50.668Z</time></trkpt><trkpt lat="44.5175483" lon="8.7951633"><ele>873.5</ele><time>2026-04-21T10:18:51.668Z</time></trkpt><trkpt lat="44.5175183" lon="8.7953467"><ele>874.0</ele><time>2026-04-21T10:18:52.667Z</time></trkpt><trkpt lat="44.517475" lon="8.7955117"><ele>874.5</ele><time>2026-04-21T10:18:53.667Z</time></trkpt><trkpt lat="44.5173917" lon="8.7956533"><ele>875.0</ele><time>2026-04-21T10:18:54.668Z</time></trkpt><trkpt lat="44.5173117" lon="8.7958"><ele>875.0</ele><time>2026-04-21T10:18:55.668Z</time></trkpt><trkpt lat="44.5172217" lon="8.795935"><ele>875.0</ele><time>2026-04-21T10:18:56.667Z</time></trkpt><trkpt lat="44.5171233" lon="8.7960717"><ele>875.0</ele><time>2026-04-21T10:18:57.668Z</time></trkpt><trkpt lat="44.5170317" lon="8.796205"><ele>875.0</ele><time>2026-04-21T10:18:58.668Z</time></trkpt><trkpt lat="44.51694" lon="8.796345"><ele>874.25</ele><time>2026-04-21T10:18:59.667Z</time></trkpt><trkpt lat="44.5168533" lon="8.7964683"><ele>873.5</ele><time>2026-04-21T10:19:00.668Z</time></trkpt><trkpt lat="44.5167333" lon="8.7965617"><ele>872.75</ele><time>2026-04-21T10:19:01.667Z</time></trkpt><trkpt lat="44.5166" lon="8.7966267"><ele>872.0</ele><time>2026-04-21T10:19:02.667Z</time></trkpt><trkpt lat="44.516445" lon="8.79669"><ele>872.0</ele><time>2026-04-21T10:19:03.668Z</time></trkpt><trkpt lat="44.5162733" lon="8.796745"><ele>872.0</ele><time>2026-04-21T10:19:04.668Z</time></trkpt><trkpt lat="44.516105" lon="8.7968067"><ele>872.0</ele><time>2026-04-21T10:19:05.668Z</time></trkpt><trkpt lat="44.5159483" lon="8.7968533"><ele>872.0</ele><time>2026-04-21T10:19:06.668Z</time></trkpt><trkpt lat="44.5157967" lon="8.796875"><ele>872.0</ele><time>2026-04-21T10:19:07.667Z</time></trkpt><trkpt lat="44.5156483" lon="8.7968967"><ele>872.0</ele><time>2026-04-21T10:19:08.668Z</time></trkpt><trkpt lat="44.5155117" lon="8.79692"><ele>872.0</ele><time>2026-04-21T10:19:09.667Z</time></trkpt><trkpt lat="44.5154017" lon="8.7969533"><ele>869.6</ele><time>2026-04-21T10:19:10.668Z</time></trkpt><trkpt lat="44.5153283" lon="8.796995"><ele>867.2</ele><time>2026-04-21T10:19:11.667Z</time></trkpt><trkpt lat="44.5152617" lon="8.797145"><ele>864.8</ele><time>2026-04-21T10:19:13.667Z</time></trkpt><trkpt lat="44.5152667" lon="8.7972467"><ele>862.4</ele><time>2026-04-21T10:19:14.667Z</time></trkpt><trkpt lat="44.5153067" lon="8.797365"><ele>860.0</ele><time>2026-04-21T10:19:15.667Z</time></trkpt><trkpt lat="44.5153583" lon="8.797495"><ele>860.0</ele><time>2026-04-21T10:19:16.668Z</time></trkpt><trkpt lat="44.5153917" lon="8.7976467"><ele>860.0</ele><time>2026-04-21T10:19:17.668Z</time></trkpt><trkpt lat="44.515385" lon="8.7977867"><ele>860.0</ele><time>2026-04-21T10:19:18.668Z</time></trkpt><trkpt lat="44.5153667" lon="8.79792"><ele>860.0</ele><time>2026-04-21T10:19:19.667Z</time></trkpt><trkpt lat="44.5153567" lon="8.7980367"><ele>860.0</ele><time>2026-04-21T10:19:20.667Z</time></trkpt><trkpt lat="44.5153883" lon="8.7981317"><ele>860.8</ele><time>2026-04-21T10:19:21.668Z</time></trkpt><trkpt lat="44.51544" lon="8.798195"><ele>861.6</ele><time>2026-04-21T10:19:22.667Z</time></trkpt><trkpt lat="44.5155217" lon="8.7982283"><ele>862.4000000000001</ele><time>2026-04-21T10:19:23.668Z</time></trkpt><trkpt lat="44.5156233" lon="8.7982367"><ele>863.2</ele><time>2026-04-21T10:19:24.667Z</time></trkpt><trkpt lat="44.51574" lon="8.7982417"><ele>864.0</ele><time>2026-04-21T10:19:25.667Z</time></trkpt><trkpt lat="44.5158717" lon="8.7982517"><ele>864.0</ele><time>2026-04-21T10:19:26.668Z</time></trkpt><trkpt lat="44.5160167" lon="8.7982717"><ele>864.0</ele><time>2026-04-21T10:19:27.667Z</time></trkpt><trkpt lat="44.5161517" lon="8.798295"><ele>864.0</ele><time>2026-04-21T10:19:28.667Z</time></trkpt><trkpt lat="44.5162833" lon="8.7983117"><ele>864.0</ele><time>2026-04-21T10:19:29.668Z</time></trkpt><trkpt lat="44.516405" lon="8.7983417"><ele>863.25</ele><time>2026-04-21T10:19:30.668Z</time></trkpt><trkpt lat="44.5165233" lon="8.7983917"><ele>862.5</ele><time>2026-04-21T10:19:31.667Z</time></trkpt><trkpt lat="44.516635" lon="8.7984517"><ele>861.75</ele><time>2026-04-21T10:19:32.667Z</time></trkpt><trkpt lat="44.5167367" lon="8.798535"><ele>861.0</ele><time>2026-04-21T10:19:33.667Z</time></trkpt><trkpt lat="44.5168117" lon="8.79864"><ele>861.0</ele><time>2026-04-21T10:19:34.667Z</time></trkpt><trkpt lat="44.516875" lon="8.7987683"><ele>861.0</ele><time>2026-04-21T10:19:35.668Z</time></trkpt><trkpt lat="44.5169183" lon="8.79893"><ele>861.0</ele><time>2026-04-21T10:19:36.668Z</time></trkpt><trkpt lat="44.5169483" lon="8.7991117"><ele>861.0</ele><time>2026-04-21T10:19:37.667Z</time></trkpt><trkpt lat="44.5169683" lon="8.79929"><ele>859.75</ele><time>2026-04-21T10:19:38.667Z</time></trkpt><trkpt lat="44.5169767" lon="8.7994583"><ele>858.5</ele><time>2026-04-21T10:19:39.668Z</time></trkpt><trkpt lat="44.516965" lon="8.799625"><ele>857.25</ele><time>2026-04-21T10:19:40.667Z</time></trkpt><trkpt lat="44.5169333" lon="8.79978"><ele>856.0</ele><time>2026-04-21T10:19:41.668Z</time></trkpt><trkpt lat="44.5169017" lon="8.799925"><ele>856.0</ele><time>2026-04-21T10:19:42.667Z</time></trkpt><trkpt lat="44.5168817" lon="8.80006"><ele>855.9999999999999</ele><time>2026-04-21T10:19:43.667Z</time></trkpt><trkpt lat="44.5168833" lon="8.8001767"><ele>855.9999999999999</ele><time>2026-04-21T10:19:44.668Z</time></trkpt><trkpt lat="44.5169167" lon="8.8002817"><ele>856.0</ele><time>2026-04-21T10:19:45.668Z</time></trkpt><trkpt lat="44.5169767" lon="8.8003767"><ele>856.0</ele><time>2026-04-21T10:19:46.667Z</time></trkpt><trkpt lat="44.517055" lon="8.8004633"><ele>858.1999999999999</ele><time>2026-04-21T10:19:47.667Z</time></trkpt><trkpt lat="44.5171267" lon="8.8005833"><ele>860.3999999999999</ele><time>2026-04-21T10:19:48.667Z</time></trkpt><trkpt lat="44.517185" lon="8.8007083"><ele>862.6</ele><time>2026-04-21T10:19:49.667Z</time></trkpt><trkpt lat="44.5172183" lon="8.8008467"><ele>864.8</ele><time>2026-04-21T10:19:50.667Z</time></trkpt><trkpt lat="44.517235" lon="8.801"><ele>867.0</ele><time>2026-04-21T10:19:51.668Z</time></trkpt><trkpt lat="44.51724" lon="8.801165"><ele>868.0</ele><time>2026-04-21T10:19:52.667Z</time></trkpt><trkpt lat="44.517225" lon="8.8013233"><ele>869.0</ele><time>2026-04-21T10:19:53.668Z</time></trkpt><trkpt lat="44.5171817" lon="8.80148"><ele>870.0</ele><time>2026-04-21T10:19:54.667Z</time></trkpt><trkpt lat="44.5171217" lon="8.8016417"><ele>871.0</ele><time>2026-04-21T10:19:55.667Z</time></trkpt><trkpt lat="44.517045" lon="8.8018067"><ele>867.25</ele><time>2026-04-21T10:19:56.667Z</time></trkpt><trkpt lat="44.5169617" lon="8.8019667"><ele>863.5</ele><time>2026-04-21T10:19:57.667Z</time></trkpt><trkpt lat="44.5168783" lon="8.8021133"><ele>859.75</ele><time>2026-04-21T10:19:58.667Z</time></trkpt><trkpt lat="44.516805" lon="8.802255"><ele>856.0</ele><time>2026-04-21T10:19:59.668Z</time></trkpt><trkpt lat="44.5167367" lon="8.8024033"><ele>856.0</ele><time>2026-04-21T10:20:00.668Z</time></trkpt><trkpt lat="44.5166767" lon="8.8025383"><ele>856.0</ele><time>2026-04-21T10:20:01.668Z</time></trkpt><trkpt lat="44.5166333" lon="8.802685"><ele>856.0</ele><time>2026-04-21T10:20:02.668Z</time></trkpt><trkpt lat="44.5165967" lon="8.8028633"><ele>856.0</ele><time>2026-04-21T10:20:03.668Z</time></trkpt><trkpt lat="44.51656" lon="8.8030467"><ele>856.25</ele><time>2026-04-21T10:20:04.668Z</time></trkpt><trkpt lat="44.5165417" lon="8.80324"><ele>856.5</ele><time>2026-04-21T10:20:05.668Z</time></trkpt><trkpt lat="44.516535" lon="8.803425"><ele>856.75</ele><time>2026-04-21T10:20:06.668Z</time></trkpt><trkpt lat="44.5165267" lon="8.8036017"><ele>857.0</ele><time>2026-04-21T10:20:07.667Z</time></trkpt><trkpt lat="44.5165217" lon="8.8037633"><ele>855.25</ele><time>2026-04-21T10:20:08.667Z</time></trkpt><trkpt lat="44.516545" lon="8.80392"><ele>853.5</ele><time>2026-04-21T10:20:09.667Z</time></trkpt><trkpt lat="44.5165883" lon="8.8040967"><ele>851.75</ele><time>2026-04-21T10:20:10.667Z</time></trkpt><trkpt lat="44.5166567" lon="8.80427"><ele>850.0</ele><time>2026-04-21T10:20:11.668Z</time></trkpt><trkpt lat="44.5167233" lon="8.80444"><ele>848.0</ele><time>2026-04-21T10:20:12.668Z</time></trkpt><trkpt lat="44.5168" lon="8.804605"><ele>846.0</ele><time>2026-04-21T10:20:13.667Z</time></trkpt><trkpt lat="44.5168617" lon="8.8047667"><ele>844.0</ele><time>2026-04-21T10:20:14.668Z</time></trkpt><trkpt lat="44.516925" lon="8.8049367"><ele>842.0</ele><time>2026-04-21T10:20:15.668Z</time></trkpt><trkpt lat="44.516975" lon="8.805095"><ele>842.2</ele><time>2026-04-21T10:20:16.668Z</time></trkpt><trkpt lat="44.517" lon="8.8052283"><ele>842.4000000000001</ele><time>2026-04-21T10:20:17.668Z</time></trkpt><trkpt lat="44.517" lon="8.805355"><ele>842.5999999999999</ele><time>2026-04-21T10:20:18.668Z</time></trkpt><trkpt lat="44.51697" lon="8.8054783"><ele>842.8</ele><time>2026-04-21T10:20:19.668Z</time></trkpt><trkpt lat="44.5169183" lon="8.8055833"><ele>843.0</ele><time>2026-04-21T10:20:20.668Z</time></trkpt><trkpt lat="44.5168417" lon="8.805675"><ele>843.0</ele><time>2026-04-21T10:20:21.667Z</time></trkpt><trkpt lat="44.5167283" lon="8.8057683"><ele>843.0</ele><time>2026-04-21T10:20:22.667Z</time></trkpt><trkpt lat="44.516605" lon="8.805875"><ele>843.0</ele><time>2026-04-21T10:20:23.668Z</time></trkpt><trkpt lat="44.5164817" lon="8.8059683"><ele>843.0</ele><time>2026-04-21T10:20:24.668Z</time></trkpt><trkpt lat="44.5163683" lon="8.8060717"><ele>843.0</ele><time>2026-04-21T10:20:25.668Z</time></trkpt><trkpt lat="44.5162567" lon="8.8061783"><ele>843.0</ele><time>2026-04-21T10:20:26.667Z</time></trkpt><trkpt lat="44.5161567" lon="8.8063167"><ele>843.0</ele><time>2026-04-21T10:20:27.667Z</time></trkpt><trkpt lat="44.5160683" lon="8.8064767"><ele>843.0</ele><time>2026-04-21T10:20:28.668Z</time></trkpt><trkpt lat="44.5159783" lon="8.8066717"><ele>845.0</ele><time>2026-04-21T10:20:29.667Z</time></trkpt><trkpt lat="44.5158933" lon="8.8068817"><ele>847.0</ele><time>2026-04-21T10:20:30.668Z</time></trkpt><trkpt lat="44.5158017" lon="8.80709"><ele>849.0</ele><time>2026-04-21T10:20:31.667Z</time></trkpt><trkpt lat="44.51571" lon="8.807295"><ele>849.0</ele><time>2026-04-21T10:20:32.668Z</time></trkpt><trkpt lat="44.5156333" lon="8.8075033"><ele>849.0</ele><time>2026-04-21T10:20:33.667Z</time></trkpt><trkpt lat="44.5155567" lon="8.8077017"><ele>849.0</ele><time>2026-04-21T10:20:34.667Z</time></trkpt><trkpt lat="44.51548" lon="8.8078833"><ele>848.3333333333333</ele><time>2026-04-21T10:20:35.668Z</time></trkpt><trkpt lat="44.5154" lon="8.8080667"><ele>847.6666666666666</ele><time>2026-04-21T10:20:36.667Z</time></trkpt><trkpt lat="44.515315" lon="8.808235"><ele>847.0</ele><time>2026-04-21T10:20:37.668Z</time></trkpt><trkpt lat="44.5152183" lon="8.808395"><ele>849.3333333333333</ele><time>2026-04-21T10:20:38.667Z</time></trkpt><trkpt lat="44.5151133" lon="8.808565"><ele>851.6666666666667</ele><time>2026-04-21T10:20:39.668Z</time></trkpt><trkpt lat="44.514995" lon="8.808725"><ele>854.0</ele><time>2026-04-21T10:20:40.667Z</time></trkpt><trkpt lat="44.51487" lon="8.8088717"><ele>854.0</ele><time>2026-04-21T10:20:41.667Z</time></trkpt><trkpt lat="44.514755" lon="8.8090317"><ele>854.0</ele><time>2026-04-21T10:20:42.667Z</time></trkpt><trkpt lat="44.5146583" lon="8.8091883"><ele>854.0</ele><time>2026-04-21T10:20:43.668Z</time></trkpt><trkpt lat="44.5145683" lon="8.80936"><ele>852.0</ele><time>2026-04-21T10:20:44.667Z</time></trkpt><trkpt lat="44.5144883" lon="8.8095467"><ele>850.0</ele><time>2026-04-21T10:20:45.667Z</time></trkpt><trkpt lat="44.5144283" lon="8.8097617"><ele>848.0</ele><time>2026-04-21T10:20:46.668Z</time></trkpt><trkpt lat="44.5143867" lon="8.8099783"><ele>849.75</ele><time>2026-04-21T10:20:47.668Z</time></trkpt><trkpt lat="44.51433" lon="8.8101967"><ele>851.5</ele><time>2026-04-21T10:20:48.668Z</time></trkpt><trkpt lat="44.5142733" lon="8.8103833"><ele>853.25</ele><time>2026-04-21T10:20:49.667Z</time></trkpt><trkpt lat="44.5142217" lon="8.8105567"><ele>855.0</ele><time>2026-04-21T10:20:50.668Z</time></trkpt><trkpt lat="44.5142033" lon="8.8107383"><ele>855.0</ele><time>2026-04-21T10:20:51.667Z</time></trkpt><trkpt lat="44.5142117" lon="8.8109333"><ele>855.0</ele><time>2026-04-21T10:20:52.668Z</time></trkpt><trkpt lat="44.5142367" lon="8.81114"><ele>855.0</ele><time>2026-04-21T10:20:53.667Z</time></trkpt><trkpt lat="44.5142617" lon="8.8113683"><ele>857.0</ele><time>2026-04-21T10:20:54.667Z</time></trkpt><trkpt lat="44.5142933" lon="8.8115983"><ele>859.0</ele><time>2026-04-21T10:20:55.667Z</time></trkpt><trkpt lat="44.51432" lon="8.8118283"><ele>861.0</ele><time>2026-04-21T10:20:56.668Z</time></trkpt><trkpt lat="44.5143517" lon="8.81204"><ele>861.0</ele><time>2026-04-21T10:20:57.668Z</time></trkpt><trkpt lat="44.5143833" lon="8.8122567"><ele>861.0</ele><time>2026-04-21T10:20:58.667Z</time></trkpt><trkpt lat="44.5144217" lon="8.812475"><ele>861.0</ele><time>2026-04-21T10:20:59.668Z</time></trkpt><trkpt lat="44.5144667" lon="8.8127117"><ele>861.0</ele><time>2026-04-21T10:21:00.668Z</time></trkpt><trkpt lat="44.51452" lon="8.81296"><ele>861.0</ele><time>2026-04-21T10:21:01.667Z</time></trkpt><trkpt lat="44.5145867" lon="8.8132133"><ele>861.0</ele><time>2026-04-21T10:21:02.667Z</time></trkpt><trkpt lat="44.5146533" lon="8.8134617"><ele>864.0</ele><time>2026-04-21T10:21:03.667Z</time></trkpt><trkpt lat="44.51472" lon="8.81371"><ele>867.0</ele><time>2026-04-21T10:21:04.667Z</time></trkpt><trkpt lat="44.5147617" lon="8.8139533"><ele>870.0</ele><time>2026-04-21T10:21:05.668Z</time></trkpt><trkpt lat="44.5148083" lon="8.8141783"><ele>869.75</ele><time>2026-04-21T10:21:06.667Z</time></trkpt><trkpt lat="44.5148633" lon="8.81438"><ele>869.5</ele><time>2026-04-21T10:21:07.667Z</time></trkpt><trkpt lat="44.51491" lon="8.8145717"><ele>869.25</ele><time>2026-04-21T10:21:08.667Z</time></trkpt><trkpt lat="44.5149517" lon="8.8147617"><ele>869.0</ele><time>2026-04-21T10:21:09.668Z</time></trkpt><trkpt lat="44.51499" lon="8.8149667"><ele>869.0</ele><time>2026-04-21T10:21:10.668Z</time></trkpt><trkpt lat="44.5150333" lon="8.8151817"><ele>869.0</ele><time>2026-04-21T10:21:11.667Z</time></trkpt><trkpt lat="44.5150833" lon="8.8154017"><ele>869.0</ele><time>2026-04-21T10:21:12.667Z</time></trkpt><trkpt lat="44.5151367" lon="8.8156267"><ele>869.0</ele><time>2026-04-21T10:21:13.668Z</time></trkpt><trkpt lat="44.51521" lon="8.8158533"><ele>869.0</ele><time>2026-04-21T10:21:14.667Z</time></trkpt><trkpt lat="44.5153017" lon="8.81608"><ele>869.0</ele><time>2026-04-21T10:21:15.667Z</time></trkpt><trkpt lat="44.5153967" lon="8.8162883"><ele>871.6666666666667</ele><time>2026-04-21T10:21:16.667Z</time></trkpt><trkpt lat="44.5154933" lon="8.8164833"><ele>874.3333333333333</ele><time>2026-04-21T10:21:17.668Z</time></trkpt><trkpt lat="44.5156117" lon="8.8166617"><ele>877.0</ele><time>2026-04-21T10:21:18.668Z</time></trkpt><trkpt lat="44.5157283" lon="8.81684"><ele>877.0</ele><time>2026-04-21T10:21:19.668Z</time></trkpt><trkpt lat="44.5158567" lon="8.8170083"><ele>877.0</ele><time>2026-04-21T10:21:20.668Z</time></trkpt><trkpt lat="44.515985" lon="8.8171833"><ele>877.0</ele><time>2026-04-21T10:21:21.668Z</time></trkpt><trkpt lat="44.516095" lon="8.8173417"><ele>877.0</ele><time>2026-04-21T10:21:22.667Z</time></trkpt><trkpt lat="44.5162033" lon="8.8174733"><ele>877.0</ele><time>2026-04-21T10:21:23.668Z</time></trkpt><trkpt lat="44.5163133" lon="8.8175917"><ele>877.0</ele><time>2026-04-21T10:21:24.668Z</time></trkpt><trkpt lat="44.5164417" lon="8.8176833"><ele>877.0</ele><time>2026-04-21T10:21:25.667Z</time></trkpt><trkpt lat="44.516585" lon="8.8177667"><ele>878.0</ele><time>2026-04-21T10:21:26.668Z</time></trkpt><trkpt lat="44.5167433" lon="8.8178533"><ele>879.0</ele><time>2026-04-21T10:21:27.668Z</time></trkpt><trkpt lat="44.5169067" lon="8.8179533"><ele>880.0</ele><time>2026-04-21T10:21:28.668Z</time></trkpt><trkpt lat="44.51708" lon="8.81807"><ele>880.0</ele><time>2026-04-21T10:21:29.667Z</time></trkpt><trkpt lat="44.5172583" lon="8.818175"><ele>880.0</ele><time>2026-04-21T10:21:30.667Z</time></trkpt><trkpt lat="44.5174233" lon="8.818295"><ele>880.0</ele><time>2026-04-21T10:21:31.668Z</time></trkpt><trkpt lat="44.51758" lon="8.8184083"><ele>876.6666666666666</ele><time>2026-04-21T10:21:32.667Z</time></trkpt><trkpt lat="44.5177133" lon="8.81851"><ele>873.3333333333333</ele><time>2026-04-21T10:21:33.668Z</time></trkpt><trkpt lat="44.5178467" lon="8.8186117"><ele>870.0</ele><time>2026-04-21T10:21:34.668Z</time></trkpt><trkpt lat="44.517975" lon="8.818715"><ele>870.0</ele><time>2026-04-21T10:21:35.668Z</time></trkpt><trkpt lat="44.5181" lon="8.8188483"><ele>870.0</ele><time>2026-04-21T10:21:36.668Z</time></trkpt><trkpt lat="44.5182183" lon="8.819005"><ele>870.0</ele><time>2026-04-21T10:21:37.667Z</time></trkpt><trkpt lat="44.5183233" lon="8.81917"><ele>867.25</ele><time>2026-04-21T10:21:38.667Z</time></trkpt><trkpt lat="44.5184367" lon="8.8193267"><ele>864.5</ele><time>2026-04-21T10:21:39.667Z</time></trkpt><trkpt lat="44.5185517" lon="8.8194767"><ele>861.75</ele><time>2026-04-21T10:21:40.668Z</time></trkpt><trkpt lat="44.5186583" lon="8.8195883"><ele>859.0</ele><time>2026-04-21T10:21:41.668Z</time></trkpt><trkpt lat="44.51878" lon="8.819675"><ele>859.0</ele><time>2026-04-21T10:21:42.667Z</time></trkpt><trkpt lat="44.51891" lon="8.8197217"><ele>859.0</ele><time>2026-04-21T10:21:43.667Z</time></trkpt><trkpt lat="44.519055" lon="8.8197417"><ele>859.0</ele><time>2026-04-21T10:21:44.667Z</time></trkpt><trkpt lat="44.5192083" lon="8.8197317"><ele>859.0</ele><time>2026-04-21T10:21:45.667Z</time></trkpt><trkpt lat="44.51936" lon="8.8197183"><ele>859.0</ele><time>2026-04-21T10:21:46.668Z</time></trkpt><trkpt lat="44.5194983" lon="8.8197"><ele>859.0</ele><time>2026-04-21T10:21:47.667Z</time></trkpt><trkpt lat="44.5196383" lon="8.819695"><ele>859.0</ele><time>2026-04-21T10:21:48.668Z</time></trkpt><trkpt lat="44.519785" lon="8.8197067"><ele>859.0</ele><time>2026-04-21T10:21:49.668Z</time></trkpt><trkpt lat="44.5199317" lon="8.8197333"><ele>858.6666666666666</ele><time>2026-04-21T10:21:50.668Z</time></trkpt><trkpt lat="44.5200867" lon="8.81979"><ele>858.3333333333333</ele><time>2026-04-21T10:21:51.667Z</time></trkpt><trkpt lat="44.5202433" lon="8.81988"><ele>858.0</ele><time>2026-04-21T10:21:52.667Z</time></trkpt><trkpt lat="44.5204017" lon="8.8199933"><ele>856.0</ele><time>2026-04-21T10:21:53.667Z</time></trkpt><trkpt lat="44.520575" lon="8.82012"><ele>854.0</ele><time>2026-04-21T10:21:54.667Z</time></trkpt><trkpt lat="44.5207567" lon="8.82025"><ele>852.0</ele><time>2026-04-21T10:21:55.668Z</time></trkpt><trkpt lat="44.5209433" lon="8.820375"><ele>852.0</ele><time>2026-04-21T10:21:56.668Z</time></trkpt><trkpt lat="44.5211217" lon="8.8204967"><ele>852.0</ele><time>2026-04-21T10:21:57.668Z</time></trkpt><trkpt lat="44.5212983" lon="8.8206217"><ele>852.0</ele><time>2026-04-21T10:21:58.668Z</time></trkpt><trkpt lat="44.5214667" lon="8.820735"><ele>848.75</ele><time>2026-04-21T10:21:59.668Z</time></trkpt><trkpt lat="44.52161" lon="8.820835"><ele>845.5</ele><time>2026-04-21T10:22:00.668Z</time></trkpt><trkpt lat="44.52172" lon="8.8209283"><ele>842.25</ele><time>2026-04-21T10:22:01.668Z</time></trkpt><trkpt lat="44.5218183" lon="8.821025"><ele>839.0</ele><time>2026-04-21T10:22:02.668Z</time></trkpt><trkpt lat="44.5218867" lon="8.821155"><ele>839.0</ele><time>2026-04-21T10:22:03.667Z</time></trkpt><trkpt lat="44.521935" lon="8.8212933"><ele>839.0</ele><time>2026-04-21T10:22:04.667Z</time></trkpt><trkpt lat="44.5219317" lon="8.8214617"><ele>839.0</ele><time>2026-04-21T10:22:05.667Z</time></trkpt><trkpt lat="44.521885" lon="8.8216583"><ele>839.0</ele><time>2026-04-21T10:22:06.667Z</time></trkpt><trkpt lat="44.5218133" lon="8.8218783"><ele>835.6666666666667</ele><time>2026-04-21T10:22:07.667Z</time></trkpt><trkpt lat="44.5217333" lon="8.8221183"><ele>832.3333333333333</ele><time>2026-04-21T10:22:08.667Z</time></trkpt><trkpt lat="44.52165" lon="8.8223883"><ele>829.0</ele><time>2026-04-21T10:22:09.668Z</time></trkpt><trkpt lat="44.5215683" lon="8.82266"><ele>826.6666666666666</ele><time>2026-04-21T10:22:10.667Z</time></trkpt><trkpt lat="44.5214783" lon="8.82293"><ele>824.3333333333333</ele><time>2026-04-21T10:22:11.667Z</time></trkpt><trkpt lat="44.5213917" lon="8.8232017"><ele>822.0</ele><time>2026-04-21T10:22:12.668Z</time></trkpt><trkpt lat="44.5212983" lon="8.82347"><ele>819.3333333333333</ele><time>2026-04-21T10:22:13.667Z</time></trkpt><trkpt lat="44.5212267" lon="8.8237117"><ele>816.6666666666666</ele><time>2026-04-21T10:22:14.667Z</time></trkpt><trkpt lat="44.5211667" lon="8.8239183"><ele>814.0</ele><time>2026-04-21T10:22:15.668Z</time></trkpt><trkpt lat="44.5211383" lon="8.8241067"><ele>814.0</ele><time>2026-04-21T10:22:16.667Z</time></trkpt><trkpt lat="44.521145" lon="8.82429"><ele>814.0</ele><time>2026-04-21T10:22:17.667Z</time></trkpt><trkpt lat="44.5211983" lon="8.82445"><ele>814.0</ele><time>2026-04-21T10:22:18.668Z</time></trkpt><trkpt lat="44.5212683" lon="8.8246033"><ele>814.0</ele><time>2026-04-21T10:22:19.668Z</time></trkpt><trkpt lat="44.5213717" lon="8.82477"><ele>812.3333333333333</ele><time>2026-04-21T10:22:20.668Z</time></trkpt><trkpt lat="44.5214883" lon="8.824955"><ele>810.6666666666667</ele><time>2026-04-21T10:22:21.667Z</time></trkpt><trkpt lat="44.521605" lon="8.825155"><ele>809.0</ele><time>2026-04-21T10:22:22.668Z</time></trkpt><trkpt lat="44.5217267" lon="8.8253617"><ele>809.0</ele><time>2026-04-21T10:22:23.667Z</time></trkpt><trkpt lat="44.52185" lon="8.8255717"><ele>809.0</ele><time>2026-04-21T10:22:24.667Z</time></trkpt><trkpt lat="44.521965" lon="8.8257767"><ele>809.0</ele><time>2026-04-21T10:22:25.668Z</time></trkpt><trkpt lat="44.5220633" lon="8.8259883"><ele>814.3333333333334</ele><time>2026-04-21T10:22:26.667Z</time></trkpt><trkpt lat="44.5221433" lon="8.82621"><ele>819.6666666666667</ele><time>2026-04-21T10:22:27.667Z</time></trkpt><trkpt lat="44.5222017" lon="8.8264417"><ele>825.0</ele><time>2026-04-21T10:22:28.668Z</time></trkpt><trkpt lat="44.5222417" lon="8.8266783"><ele>822.3333333333333</ele><time>2026-04-21T10:22:29.668Z</time></trkpt><trkpt lat="44.5222467" lon="8.8269317"><ele>819.6666666666666</ele><time>2026-04-21T10:22:30.667Z</time></trkpt><trkpt lat="44.52225" lon="8.8271833"><ele>817.0</ele><time>2026-04-21T10:22:31.667Z</time></trkpt><trkpt lat="44.522245" lon="8.8274267"><ele>813.3333333333333</ele><time>2026-04-21T10:22:32.667Z</time></trkpt><trkpt lat="44.5222533" lon="8.827655"><ele>809.6666666666667</ele><time>2026-04-21T10:22:33.667Z</time></trkpt><trkpt lat="44.5222833" lon="8.8278633"><ele>806.0</ele><time>2026-04-21T10:22:34.668Z</time></trkpt><trkpt lat="44.5223367" lon="8.828055"><ele>806.0</ele><time>2026-04-21T10:22:35.668Z</time></trkpt><trkpt lat="44.522405" lon="8.82823"><ele>806.0</ele><time>2026-04-21T10:22:36.668Z</time></trkpt><trkpt lat="44.5224883" lon="8.828395"><ele>806.0</ele><time>2026-04-21T10:22:37.668Z</time></trkpt><trkpt lat="44.5225917" lon="8.8285367"><ele>806.0</ele><time>2026-04-21T10:22:38.668Z</time></trkpt><trkpt lat="44.522715" lon="8.828675"><ele>803.0</ele><time>2026-04-21T10:22:39.667Z</time></trkpt><trkpt lat="44.5228583" lon="8.82878"><ele>800.0</ele><time>2026-04-21T10:22:40.668Z</time></trkpt><trkpt lat="44.52302" lon="8.8288617"><ele>797.0</ele><time>2026-04-21T10:22:41.667Z</time></trkpt><trkpt lat="44.523205" lon="8.828915"><ele>797.0</ele><time>2026-04-21T10:22:42.668Z</time></trkpt><trkpt lat="44.523395" lon="8.8289567"><ele>797.0</ele><time>2026-04-21T10:22:43.667Z</time></trkpt><trkpt lat="44.5235833" lon="8.8289883"><ele>797.0</ele><time>2026-04-21T10:22:44.668Z</time></trkpt><trkpt lat="44.5237867" lon="8.829"><ele>796.3333333333334</ele><time>2026-04-21T10:22:45.668Z</time></trkpt><trkpt lat="44.523995" lon="8.8290067"><ele>795.6666666666667</ele><time>2026-04-21T10:22:46.667Z</time></trkpt><trkpt lat="44.5241917" lon="8.8290217"><ele>795.0</ele><time>2026-04-21T10:22:47.667Z</time></trkpt><trkpt lat="44.5243883" lon="8.829035"><ele>795.0</ele><time>2026-04-21T10:22:48.668Z</time></trkpt><trkpt lat="44.5245617" lon="8.82905"><ele>795.0</ele><time>2026-04-21T10:22:49.668Z</time></trkpt><trkpt lat="44.5247183" lon="8.8290733"><ele>795.0</ele><time>2026-04-21T10:22:50.667Z</time></trkpt><trkpt lat="44.5248683" lon="8.8291033"><ele>795.0</ele><time>2026-04-21T10:22:51.668Z</time></trkpt><trkpt lat="44.5250033" lon="8.8291617"><ele>795.0</ele><time>2026-04-21T10:22:52.667Z</time></trkpt><trkpt lat="44.5251183" lon="8.82926"><ele>795.0</ele><time>2026-04-21T10:22:53.667Z</time></trkpt><trkpt lat="44.5252417" lon="8.829385"><ele>795.0</ele><time>2026-04-21T10:22:54.667Z</time></trkpt><trkpt lat="44.525355" lon="8.8295317"><ele>795.75</ele><time>2026-04-21T10:22:55.667Z</time></trkpt><trkpt lat="44.5254533" lon="8.8296883"><ele>796.5</ele><time>2026-04-21T10:22:56.667Z</time></trkpt><trkpt lat="44.52552" lon="8.829835"><ele>797.25</ele><time>2026-04-21T10:22:57.667Z</time></trkpt><trkpt lat="44.5255633" lon="8.82996"><ele>798.0</ele><time>2026-04-21T10:22:58.668Z</time></trkpt><trkpt lat="44.52556" lon="8.8300983"><ele>799.75</ele><time>2026-04-21T10:22:59.668Z</time></trkpt><trkpt lat="44.5255283" lon="8.8302317"><ele>801.5</ele><time>2026-04-21T10:23:00.667Z</time></trkpt><trkpt lat="44.525455" lon="8.830355"><ele>803.25</ele><time>2026-04-21T10:23:01.668Z</time></trkpt><trkpt lat="44.525345" lon="8.8304433"><ele>805.0</ele><time>2026-04-21T10:23:02.668Z</time></trkpt><trkpt lat="44.5252183" lon="8.830495"><ele>798.25</ele><time>2026-04-21T10:23:03.667Z</time></trkpt><trkpt lat="44.525085" lon="8.830515"><ele>791.5</ele><time>2026-04-21T10:23:04.668Z</time></trkpt><trkpt lat="44.5249683" lon="8.8305467"><ele>784.75</ele><time>2026-04-21T10:23:05.667Z</time></trkpt><trkpt lat="44.5248633" lon="8.83064"><ele>778.0</ele><time>2026-04-21T10:23:06.668Z</time></trkpt><trkpt lat="44.5247633" lon="8.83076"><ele>778.0</ele><time>2026-04-21T10:23:07.668Z</time></trkpt><trkpt lat="44.5246667" lon="8.8309033"><ele>778.0</ele><time>2026-04-21T10:23:08.668Z</time></trkpt><trkpt lat="44.5245767" lon="8.83106"><ele>778.0</ele><time>2026-04-21T10:23:09.668Z</time></trkpt><trkpt lat="44.5244933" lon="8.83122"><ele>778.0</ele><time>2026-04-21T10:23:10.667Z</time></trkpt><trkpt lat="44.5244317" lon="8.83139"><ele>772.5</ele><time>2026-04-21T10:23:11.667Z</time></trkpt><trkpt lat="44.5243917" lon="8.8315783"><ele>767.0</ele><time>2026-04-21T10:23:12.668Z</time></trkpt><trkpt lat="44.5243667" lon="8.83178"><ele>761.5</ele><time>2026-04-21T10:23:13.668Z</time></trkpt><trkpt lat="44.5243633" lon="8.831965"><ele>756.0</ele><time>2026-04-21T10:23:14.668Z</time></trkpt><trkpt lat="44.5243583" lon="8.8321533"><ele>756.25</ele><time>2026-04-21T10:23:15.667Z</time></trkpt><trkpt lat="44.52435" lon="8.8323467"><ele>756.5</ele><time>2026-04-21T10:23:16.668Z</time></trkpt><trkpt lat="44.524335" lon="8.8325433"><ele>756.75</ele><time>2026-04-21T10:23:17.668Z</time></trkpt><trkpt lat="44.5243133" lon="8.8327433"><ele>757.0</ele><time>2026-04-21T10:23:18.667Z</time></trkpt><trkpt lat="44.5242717" lon="8.8329267"><ele>757.0</ele><time>2026-04-21T10:23:19.667Z</time></trkpt><trkpt lat="44.5242083" lon="8.833085"><ele>757.0</ele><time>2026-04-21T10:23:20.668Z</time></trkpt><trkpt lat="44.5241133" lon="8.8331883"><ele>757.0</ele><time>2026-04-21T10:23:21.668Z</time></trkpt><trkpt lat="44.52399" lon="8.8332733"><ele>757.0</ele><time>2026-04-21T10:23:22.668Z</time></trkpt><trkpt lat="44.523855" lon="8.833335"><ele>757.0</ele><time>2026-04-21T10:23:23.667Z</time></trkpt><trkpt lat="44.5237333" lon="8.8333917"><ele>757.0</ele><time>2026-04-21T10:23:24.668Z</time></trkpt><trkpt lat="44.52366" lon="8.8334833"><ele>757.0</ele><time>2026-04-21T10:23:25.668Z</time></trkpt><trkpt lat="44.52363" lon="8.8336133"><ele>757.0</ele><time>2026-04-21T10:23:26.667Z</time></trkpt><trkpt lat="44.5236333" lon="8.8337583"><ele>757.0</ele><time>2026-04-21T10:23:27.667Z</time></trkpt><trkpt lat="44.523675" lon="8.8339317"><ele>757.0</ele><time>2026-04-21T10:23:28.668Z</time></trkpt><trkpt lat="44.523745" lon="8.8341117"><ele>757.0</ele><time>2026-04-21T10:23:29.668Z</time></trkpt><trkpt lat="44.5238183" lon="8.8343283"><ele>757.0</ele><time>2026-04-21T10:23:30.668Z</time></trkpt><trkpt lat="44.5238983" lon="8.8345417"><ele>751.0</ele><time>2026-04-21T10:23:31.668Z</time></trkpt><trkpt lat="44.5239683" lon="8.8347383"><ele>745.0</ele><time>2026-04-21T10:23:32.668Z</time></trkpt><trkpt lat="44.52406" lon="8.83492"><ele>739.0</ele><time>2026-04-21T10:23:33.667Z</time></trkpt><trkpt lat="44.5241533" lon="8.8350833"><ele>733.3333333333334</ele><time>2026-04-21T10:23:34.667Z</time></trkpt><trkpt lat="44.5242667" lon="8.8352367"><ele>727.6666666666666</ele><time>2026-04-21T10:23:35.668Z</time></trkpt><trkpt lat="44.5243717" lon="8.8353867"><ele>722.0</ele><time>2026-04-21T10:23:36.667Z</time></trkpt><trkpt lat="44.5244783" lon="8.8355267"><ele>720.3333333333333</ele><time>2026-04-21T10:23:37.668Z</time></trkpt><trkpt lat="44.5245917" lon="8.8356767"><ele>718.6666666666666</ele><time>2026-04-21T10:23:38.667Z</time></trkpt><trkpt lat="44.5247" lon="8.8358317"><ele>717.0</ele><time>2026-04-21T10:23:39.667Z</time></trkpt><trkpt lat="44.524805" lon="8.8359883"><ele>717.0</ele><time>2026-04-21T10:23:40.668Z</time></trkpt><trkpt lat="44.5249033" lon="8.836135"><ele>717.0</ele><time>2026-04-21T10:23:41.667Z</time></trkpt><trkpt lat="44.5249833" lon="8.8362617"><ele>717.0</ele><time>2026-04-21T10:23:42.667Z</time></trkpt><trkpt lat="44.5250517" lon="8.836385"><ele>717.0</ele><time>2026-04-21T10:23:43.668Z</time></trkpt><trkpt lat="44.5250917" lon="8.8365217"><ele>717.0</ele><time>2026-04-21T10:23:44.667Z</time></trkpt><trkpt lat="44.5250917" lon="8.836665"><ele>717.0</ele><time>2026-04-21T10:23:45.667Z</time></trkpt><trkpt lat="44.525065" lon="8.8367867"><ele>717.0</ele><time>2026-04-21T10:23:46.667Z</time></trkpt><trkpt lat="44.52499" lon="8.83688"><ele>717.0</ele><time>2026-04-21T10:23:47.667Z</time></trkpt><trkpt lat="44.5248917" lon="8.8369433"><ele>717.0</ele><time>2026-04-21T10:23:48.667Z</time></trkpt><trkpt lat="44.52478" lon="8.8369467"><ele>715.5</ele><time>2026-04-21T10:23:49.667Z</time></trkpt><trkpt lat="44.5246567" lon="8.8368817"><ele>714.0</ele><time>2026-04-21T10:23:50.668Z</time></trkpt><trkpt lat="44.5245367" lon="8.836755"><ele>712.5</ele><time>2026-04-21T10:23:51.667Z</time></trkpt><trkpt lat="44.5244183" lon="8.8366367"><ele>711.0</ele><time>2026-04-21T10:23:52.668Z</time></trkpt><trkpt lat="44.5242867" lon="8.8365283"><ele>711.0</ele><time>2026-04-21T10:23:53.667Z</time></trkpt><trkpt lat="44.524135" lon="8.83645"><ele>711.0</ele><time>2026-04-21T10:23:54.668Z</time></trkpt><trkpt lat="44.5239533" lon="8.8364017"><ele>711.0</ele><time>2026-04-21T10:23:55.668Z</time></trkpt><trkpt lat="44.52376" lon="8.8363433"><ele>707.3333333333334</ele><time>2026-04-21T10:23:56.668Z</time></trkpt><trkpt lat="44.5235683" lon="8.836275"><ele>703.6666666666667</ele><time>2026-04-21T10:23:57.668Z</time></trkpt><trkpt lat="44.5233883" lon="8.836215"><ele>700.0</ele><time>2026-04-21T10:23:58.668Z</time></trkpt><trkpt lat="44.52323" lon="8.8361717"><ele>700.0</ele><time>2026-04-21T10:23:59.667Z</time></trkpt><trkpt lat="44.5230917" lon="8.8361367"><ele>700.0</ele><time>2026-04-21T10:24:00.668Z</time></trkpt><trkpt lat="44.522975" lon="8.8361033"><ele>700.0</ele><time>2026-04-21T10:24:01.667Z</time></trkpt><trkpt lat="44.5228717" lon="8.8361"><ele>700.0</ele><time>2026-04-21T10:24:02.667Z</time></trkpt><trkpt lat="44.5227783" lon="8.83615"><ele>697.8</ele><time>2026-04-21T10:24:03.667Z</time></trkpt><trkpt lat="44.5227083" lon="8.83625"><ele>695.6</ele><time>2026-04-21T10:24:04.668Z</time></trkpt><trkpt lat="44.5226583" lon="8.8363683"><ele>693.4000000000001</ele><time>2026-04-21T10:24:05.667Z</time></trkpt><trkpt lat="44.5226417" lon="8.83652"><ele>691.2</ele><time>2026-04-21T10:24:06.668Z</time></trkpt><trkpt lat="44.5226567" lon="8.8367117"><ele>689.0</ele><time>2026-04-21T10:24:07.668Z</time></trkpt><trkpt lat="44.5226917" lon="8.8369367"><ele>687.5</ele><time>2026-04-21T10:24:08.667Z</time></trkpt><trkpt lat="44.52273" lon="8.837145"><ele>686.0</ele><time>2026-04-21T10:24:09.667Z</time></trkpt><trkpt lat="44.5227717" lon="8.837345"><ele>684.5</ele><time>2026-04-21T10:24:10.667Z</time></trkpt><trkpt lat="44.522825" lon="8.837505"><ele>683.0</ele><time>2026-04-21T10:24:11.667Z</time></trkpt><trkpt lat="44.522875" lon="8.8376533"><ele>682.0</ele><time>2026-04-21T10:24:12.667Z</time></trkpt><trkpt lat="44.5229467" lon="8.8377817"><ele>681.0</ele><time>2026-04-21T10:24:13.668Z</time></trkpt><trkpt lat="44.523055" lon="8.837895"><ele>680.0</ele><time>2026-04-21T10:24:14.668Z</time></trkpt><trkpt lat="44.5231867" lon="8.8379983"><ele>679.0</ele><time>2026-04-21T10:24:15.667Z</time></trkpt><trkpt lat="44.52332" lon="8.838105"><ele>679.0</ele><time>2026-04-21T10:24:16.667Z</time></trkpt><trkpt lat="44.5234467" lon="8.8382067"><ele>679.0</ele><time>2026-04-21T10:24:17.668Z</time></trkpt><trkpt lat="44.5235667" lon="8.8383267"><ele>679.0</ele><time>2026-04-21T10:24:18.668Z</time></trkpt><trkpt lat="44.5236667" lon="8.83848"><ele>679.0</ele><time>2026-04-21T10:24:19.667Z</time></trkpt><trkpt lat="44.5237583" lon="8.838645"><ele>676.3333333333334</ele><time>2026-04-21T10:24:20.668Z</time></trkpt><trkpt lat="44.5238417" lon="8.8388317"><ele>673.6666666666666</ele><time>2026-04-21T10:24:21.667Z</time></trkpt><trkpt lat="44.52392" lon="8.839025"><ele>671.0</ele><time>2026-04-21T10:24:22.668Z</time></trkpt><trkpt lat="44.5240067" lon="8.83919"><ele>664.25</ele><time>2026-04-21T10:24:23.668Z</time></trkpt><trkpt lat="44.5240983" lon="8.8393083"><ele>657.5</ele><time>2026-04-21T10:24:24.668Z</time></trkpt><trkpt lat="44.52421" lon="8.8393867"><ele>650.75</ele><time>2026-04-21T10:24:25.668Z</time></trkpt><trkpt lat="44.5243333" lon="8.83943"><ele>644.0</ele><time>2026-04-21T10:24:26.668Z</time></trkpt><trkpt lat="44.5244767" lon="8.8394467"><ele>647.0</ele><time>2026-04-21T10:24:27.667Z</time></trkpt><trkpt lat="44.5246383" lon="8.839425"><ele>650.0</ele><time>2026-04-21T10:24:28.667Z</time></trkpt><trkpt lat="44.5248183" lon="8.8393967"><ele>653.0</ele><time>2026-04-21T10:24:29.668Z</time></trkpt><trkpt lat="44.5249817" lon="8.8393733"><ele>653.0</ele><time>2026-04-21T10:24:30.667Z</time></trkpt><trkpt lat="44.5251267" lon="8.8393533"><ele>653.0</ele><time>2026-04-21T10:24:31.667Z</time></trkpt><trkpt lat="44.52523" lon="8.839355"><ele>653.0</ele><time>2026-04-21T10:24:32.667Z</time></trkpt><trkpt lat="44.5253033" lon="8.83941"><ele>653.0</ele><time>2026-04-21T10:24:33.667Z</time></trkpt><trkpt lat="44.525375" lon="8.83952"><ele>653.0</ele><time>2026-04-21T10:24:34.667Z</time></trkpt><trkpt lat="44.525415" lon="8.8396667"><ele>653.0</ele><time>2026-04-21T10:24:35.667Z</time></trkpt><trkpt lat="44.525425" lon="8.839825"><ele>653.0</ele><time>2026-04-21T10:24:36.667Z</time></trkpt><trkpt lat="44.5253917" lon="8.8399733"><ele>653.0</ele><time>2026-04-21T10:24:37.668Z</time></trkpt><trkpt lat="44.5253167" lon="8.8401017"><ele>653.0</ele><time>2026-04-21T10:24:38.668Z</time></trkpt><trkpt lat="44.5252033" lon="8.8401683"><ele>646.0</ele><time>2026-04-21T10:24:39.667Z</time></trkpt><trkpt lat="44.52506" lon="8.8401867"><ele>639.0</ele><time>2026-04-21T10:24:40.668Z</time></trkpt><trkpt lat="44.5248883" lon="8.8401767"><ele>632.0</ele><time>2026-04-21T10:24:41.668Z</time></trkpt><trkpt lat="44.5247117" lon="8.84016"><ele>636.0</ele><time>2026-04-21T10:24:42.668Z</time></trkpt><trkpt lat="44.5245267" lon="8.8401567"><ele>640.0</ele><time>2026-04-21T10:24:43.668Z</time></trkpt><trkpt lat="44.5243567" lon="8.8401417"><ele>644.0</ele><time>2026-04-21T10:24:44.667Z</time></trkpt><trkpt lat="44.5242" lon="8.8401183"><ele>644.0</ele><time>2026-04-21T10:24:45.667Z</time></trkpt><trkpt lat="44.5240517" lon="8.8400917"><ele>644.0</ele><time>2026-04-21T10:24:46.667Z</time></trkpt><trkpt lat="44.5239067" lon="8.8400633"><ele>644.0</ele><time>2026-04-21T10:24:47.668Z</time></trkpt><trkpt lat="44.52376" lon="8.840015"><ele>644.0</ele><time>2026-04-21T10:24:48.667Z</time></trkpt><trkpt lat="44.5236233" lon="8.8399417"><ele>640.75</ele><time>2026-04-21T10:24:49.667Z</time></trkpt><trkpt lat="44.52349" lon="8.8398783"><ele>637.5</ele><time>2026-04-21T10:24:50.667Z</time></trkpt><trkpt lat="44.5233767" lon="8.8398533"><ele>634.25</ele><time>2026-04-21T10:24:51.667Z</time></trkpt><trkpt lat="44.5232533" lon="8.8398717"><ele>631.0</ele><time>2026-04-21T10:24:52.667Z</time></trkpt><trkpt lat="44.5231417" lon="8.8399317"><ele>631.0</ele><time>2026-04-21T10:24:53.667Z</time></trkpt><trkpt lat="44.5230367" lon="8.84003"><ele>631.0</ele><time>2026-04-21T10:24:54.667Z</time></trkpt><trkpt lat="44.5229333" lon="8.8401533"><ele>631.0</ele><time>2026-04-21T10:24:55.667Z</time></trkpt><trkpt lat="44.5228333" lon="8.8402883"><ele>631.0</ele><time>2026-04-21T10:24:56.667Z</time></trkpt><trkpt lat="44.5227267" lon="8.8403933"><ele>627.75</ele><time>2026-04-21T10:24:57.667Z</time></trkpt><trkpt lat="44.5225917" lon="8.8404667"><ele>624.5</ele><time>2026-04-21T10:24:58.667Z</time></trkpt><trkpt lat="44.52244" lon="8.840505"><ele>621.25</ele><time>2026-04-21T10:24:59.667Z</time></trkpt><trkpt lat="44.522295" lon="8.840545"><ele>618.0</ele><time>2026-04-21T10:25:00.667Z</time></trkpt><trkpt lat="44.5221783" lon="8.8406083"><ele>618.0</ele><time>2026-04-21T10:25:01.668Z</time></trkpt><trkpt lat="44.52209" lon="8.8407017"><ele>618.0</ele><time>2026-04-21T10:25:02.667Z</time></trkpt><trkpt lat="44.5220283" lon="8.8408233"><ele>618.0</ele><time>2026-04-21T10:25:03.668Z</time></trkpt><trkpt lat="44.5219817" lon="8.840965"><ele>618.0</ele><time>2026-04-21T10:25:04.667Z</time></trkpt><trkpt lat="44.52196" lon="8.841135"><ele>616.1999999999999</ele><time>2026-04-21T10:25:05.667Z</time></trkpt><trkpt lat="44.5219583" lon="8.8413083"><ele>614.4</ele><time>2026-04-21T10:25:06.668Z</time></trkpt><trkpt lat="44.5219617" lon="8.8414733"><ele>612.5999999999999</ele><time>2026-04-21T10:25:07.668Z</time></trkpt><trkpt lat="44.5219667" lon="8.8416183"><ele>610.8</ele><time>2026-04-21T10:25:08.668Z</time></trkpt><trkpt lat="44.5219517" lon="8.8417567"><ele>609.0</ele><time>2026-04-21T10:25:09.667Z</time></trkpt><trkpt lat="44.521905" lon="8.8418817"><ele>605.2</ele><time>2026-04-21T10:25:10.668Z</time></trkpt><trkpt lat="44.5218367" lon="8.841975"><ele>601.4</ele><time>2026-04-21T10:25:11.667Z</time></trkpt><trkpt lat="44.5217617" lon="8.842015"><ele>597.6</ele><time>2026-04-21T10:25:12.667Z</time></trkpt><trkpt lat="44.5216767" lon="8.8420267"><ele>593.8</ele><time>2026-04-21T10:25:13.667Z</time></trkpt><trkpt lat="44.521575" lon="8.8419783"><ele>590.0</ele><time>2026-04-21T10:25:14.668Z</time></trkpt><trkpt lat="44.5214533" lon="8.8418867"><ele>588.3333333333333</ele><time>2026-04-21T10:25:15.667Z</time></trkpt><trkpt lat="44.5213083" lon="8.8417317"><ele>586.6666666666666</ele><time>2026-04-21T10:25:16.667Z</time></trkpt><trkpt lat="44.5211467" lon="8.841555"><ele>585.0</ele><time>2026-04-21T10:25:17.667Z</time></trkpt><trkpt lat="44.5210183" lon="8.841405"><ele>585.0</ele><time>2026-04-21T10:25:18.667Z</time></trkpt><trkpt lat="44.5209" lon="8.84125"><ele>585.0</ele><time>2026-04-21T10:25:19.668Z</time></trkpt><trkpt lat="44.5208" lon="8.8410933"><ele>585.0</ele><time>2026-04-21T10:25:20.667Z</time></trkpt><trkpt lat="44.5207067" lon="8.840905"><ele>591.0</ele><time>2026-04-21T10:25:21.667Z</time></trkpt><trkpt lat="44.520605" lon="8.840725"><ele>597.0</ele><time>2026-04-21T10:25:22.668Z</time></trkpt><trkpt lat="44.5205217" lon="8.8405217"><ele>603.0</ele><time>2026-04-21T10:25:23.667Z</time></trkpt><trkpt lat="44.52043" lon="8.8403267"><ele>595.6666666666666</ele><time>2026-04-21T10:25:24.668Z</time></trkpt><trkpt lat="44.520345" lon="8.84012"><ele>588.3333333333333</ele><time>2026-04-21T10:25:25.667Z</time></trkpt><trkpt lat="44.5202683" lon="8.83994"><ele>581.0</ele><time>2026-04-21T10:25:26.667Z</time></trkpt><trkpt lat="44.52019" lon="8.8397867"><ele>581.0</ele><time>2026-04-21T10:25:27.667Z</time></trkpt><trkpt lat="44.5201167" lon="8.8396617"><ele>581.0</ele><time>2026-04-21T10:25:28.668Z</time></trkpt><trkpt lat="44.5200433" lon="8.8395583"><ele>581.0</ele><time>2026-04-21T10:25:29.667Z</time></trkpt><trkpt lat="44.5199483" lon="8.8395033"><ele>581.0</ele><time>2026-04-21T10:25:30.668Z</time></trkpt><trkpt lat="44.5198283" lon="8.8394833"><ele>581.0</ele><time>2026-04-21T10:25:31.668Z</time></trkpt><trkpt lat="44.5196817" lon="8.8395033"><ele>572.3333333333333</ele><time>2026-04-21T10:25:32.667Z</time></trkpt><trkpt lat="44.51951" lon="8.8395483"><ele>563.6666666666666</ele><time>2026-04-21T10:25:33.668Z</time></trkpt><trkpt lat="44.5193417" lon="8.8395733"><ele>555.0</ele><time>2026-04-21T10:25:34.668Z</time></trkpt><trkpt lat="44.51921" lon="8.8395483"><ele>555.0</ele><time>2026-04-21T10:25:35.667Z</time></trkpt><trkpt lat="44.51911" lon="8.8394983"><ele>555.0</ele><time>2026-04-21T10:25:36.667Z</time></trkpt><trkpt lat="44.5190267" lon="8.83941"><ele>555.0</ele><time>2026-04-21T10:25:37.668Z</time></trkpt><trkpt lat="44.5189533" lon="8.8392867"><ele>555.0</ele><time>2026-04-21T10:25:38.668Z</time></trkpt><trkpt lat="44.5188867" lon="8.8391283"><ele>554.0</ele><time>2026-04-21T10:25:39.667Z</time></trkpt><trkpt lat="44.5188167" lon="8.8389633"><ele>553.0</ele><time>2026-04-21T10:25:40.667Z</time></trkpt><trkpt lat="44.5187533" lon="8.8387817"><ele>552.0</ele><time>2026-04-21T10:25:41.668Z</time></trkpt><trkpt lat="44.5186967" lon="8.8386067"><ele>551.0</ele><time>2026-04-21T10:25:42.668Z</time></trkpt><trkpt lat="44.5186517" lon="8.83843"><ele>551.0</ele><time>2026-04-21T10:25:43.667Z</time></trkpt><trkpt lat="44.51863" lon="8.83826"><ele>551.0</ele><time>2026-04-21T10:25:44.667Z</time></trkpt><trkpt lat="44.5186067" lon="8.8381133"><ele>551.0</ele><time>2026-04-21T10:25:45.667Z</time></trkpt><trkpt lat="44.5185733" lon="8.8380083"><ele>551.0</ele><time>2026-04-21T10:25:46.668Z</time></trkpt><trkpt lat="44.5184817" lon="8.8379133"><ele>551.0</ele><time>2026-04-21T10:25:48.668Z</time></trkpt><trkpt lat="44.51841" lon="8.8379233"><ele>551.0</ele><time>2026-04-21T10:25:49.668Z</time></trkpt><trkpt lat="44.5183467" lon="8.8379767"><ele>551.0</ele><time>2026-04-21T10:25:50.667Z</time></trkpt><trkpt lat="44.5183017" lon="8.8380667"><ele>551.0</ele><time>2026-04-21T10:25:51.668Z</time></trkpt><trkpt lat="44.5182767" lon="8.8381817"><ele>551.0</ele><time>2026-04-21T10:25:52.668Z</time></trkpt><trkpt lat="44.51829" lon="8.8383117"><ele>551.0</ele><time>2026-04-21T10:25:53.668Z</time></trkpt><trkpt lat="44.5183467" lon="8.8384717"><ele>546.0</ele><time>2026-04-21T10:25:54.668Z</time></trkpt><trkpt lat="44.5184367" lon="8.8386633"><ele>541.0</ele><time>2026-04-21T10:25:55.667Z</time></trkpt><trkpt lat="44.51852" lon="8.838915"><ele>536.0</ele><time>2026-04-21T10:25:56.668Z</time></trkpt><trkpt lat="44.5185767" lon="8.8391767"><ele>530.0</ele><time>2026-04-21T10:25:57.667Z</time></trkpt><trkpt lat="44.518625" lon="8.839425"><ele>524.0</ele><time>2026-04-21T10:25:58.667Z</time></trkpt><trkpt lat="44.5186717" lon="8.8396183"><ele>518.0</ele><time>2026-04-21T10:25:59.667Z</time></trkpt><trkpt lat="44.51873" lon="8.8397883"><ele>521.0</ele><time>2026-04-21T10:26:00.668Z</time></trkpt><trkpt lat="44.5188" lon="8.8399717"><ele>524.0</ele><time>2026-04-21T10:26:01.668Z</time></trkpt><trkpt lat="44.5188717" lon="8.8401517"><ele>527.0</ele><time>2026-04-21T10:26:02.667Z</time></trkpt><trkpt lat="44.5189517" lon="8.840315"><ele>530.0</ele><time>2026-04-21T10:26:03.668Z</time></trkpt><trkpt lat="44.519015" lon="8.8404633"><ele>530.0</ele><time>2026-04-21T10:26:04.668Z</time></trkpt><trkpt lat="44.5190817" lon="8.8405783"><ele>530.0</ele><time>2026-04-21T10:26:05.667Z</time></trkpt><trkpt lat="44.5191467" lon="8.8406533"><ele>530.0</ele><time>2026-04-21T10:26:06.667Z</time></trkpt><trkpt lat="44.519215" lon="8.8407033"><ele>530.0</ele><time>2026-04-21T10:26:07.667Z</time></trkpt><trkpt lat="44.5193" lon="8.8407267"><ele>530.0</ele><time>2026-04-21T10:26:08.667Z</time></trkpt><trkpt lat="44.5193983" lon="8.8407517"><ele>530.0</ele><time>2026-04-21T10:26:09.667Z</time></trkpt><trkpt lat="44.51949" lon="8.8408"><ele>530.0</ele><time>2026-04-21T10:26:10.667Z</time></trkpt><trkpt lat="44.519565" lon="8.840865"><ele>530.0</ele><time>2026-04-21T10:26:11.668Z</time></trkpt><trkpt lat="44.5196233" lon="8.8409517"><ele>530.0</ele><time>2026-04-21T10:26:12.667Z</time></trkpt><trkpt lat="44.5196517" lon="8.841065"><ele>530.0</ele><time>2026-04-21T10:26:13.667Z</time></trkpt><trkpt lat="44.519645" lon="8.8411933"><ele>530.0</ele><time>2026-04-21T10:26:14.667Z</time></trkpt><trkpt lat="44.5196167" lon="8.841315"><ele>523.25</ele><time>2026-04-21T10:26:15.668Z</time></trkpt><trkpt lat="44.5195533" lon="8.84144"><ele>516.5</ele><time>2026-04-21T10:26:16.667Z</time></trkpt><trkpt lat="44.5195133" lon="8.84158"><ele>509.75</ele><time>2026-04-21T10:26:17.668Z</time></trkpt><trkpt lat="44.5194767" lon="8.8417433"><ele>503.0</ele><time>2026-04-21T10:26:18.668Z</time></trkpt><trkpt lat="44.5194733" lon="8.84192"><ele>504.0</ele><time>2026-04-21T10:26:19.668Z</time></trkpt><trkpt lat="44.519495" lon="8.8421117"><ele>505.0</ele><time>2026-04-21T10:26:20.668Z</time></trkpt><trkpt lat="44.51954" lon="8.8423083"><ele>506.0</ele><time>2026-04-21T10:26:21.668Z</time></trkpt><trkpt lat="44.5195833" lon="8.842505"><ele>507.0</ele><time>2026-04-21T10:26:22.667Z</time></trkpt><trkpt lat="44.5196333" lon="8.8426767"><ele>507.0</ele><time>2026-04-21T10:26:23.668Z</time></trkpt><trkpt lat="44.5196983" lon="8.8428267"><ele>507.0</ele><time>2026-04-21T10:26:24.668Z</time></trkpt><trkpt lat="44.51977" lon="8.842985"><ele>507.0</ele><time>2026-04-21T10:26:25.668Z</time></trkpt><trkpt lat="44.51984" lon="8.8431283"><ele>507.0</ele><time>2026-04-21T10:26:26.668Z</time></trkpt><trkpt lat="44.5199033" lon="8.8432483"><ele>507.0</ele><time>2026-04-21T10:26:27.667Z</time></trkpt><trkpt lat="44.5199767" lon="8.843355"><ele>507.0</ele><time>2026-04-21T10:26:28.667Z</time></trkpt><trkpt lat="44.5200683" lon="8.843455"><ele>507.0</ele><time>2026-04-21T10:26:29.668Z</time></trkpt><trkpt lat="44.5201817" lon="8.84357"><ele>507.0</ele><time>2026-04-21T10:26:30.667Z</time></trkpt><trkpt lat="44.5203033" lon="8.84366"><ele>505.75</ele><time>2026-04-21T10:26:31.667Z</time></trkpt><trkpt lat="44.5204217" lon="8.84375"><ele>504.5</ele><time>2026-04-21T10:26:32.668Z</time></trkpt><trkpt lat="44.5205283" lon="8.843855"><ele>503.25</ele><time>2026-04-21T10:26:33.668Z</time></trkpt><trkpt lat="44.5206267" lon="8.8439817"><ele>502.0</ele><time>2026-04-21T10:26:34.668Z</time></trkpt><trkpt lat="44.5207183" lon="8.84414"><ele>494.6666666666667</ele><time>2026-04-21T10:26:35.667Z</time></trkpt><trkpt lat="44.5208" lon="8.84432"><ele>487.33333333333337</ele><time>2026-04-21T10:26:36.667Z</time></trkpt><trkpt lat="44.5208817" lon="8.84452"><ele>480.0</ele><time>2026-04-21T10:26:37.668Z</time></trkpt><trkpt lat="44.52097" lon="8.8447133"><ele>480.0</ele><time>2026-04-21T10:26:38.667Z</time></trkpt><trkpt lat="44.5210583" lon="8.84491"><ele>480.0</ele><time>2026-04-21T10:26:39.668Z</time></trkpt><trkpt lat="44.5211567" lon="8.8450783"><ele>480.0</ele><time>2026-04-21T10:26:40.667Z</time></trkpt><trkpt lat="44.5212283" lon="8.8452617"><ele>480.75</ele><time>2026-04-21T10:26:41.667Z</time></trkpt><trkpt lat="44.5212833" lon="8.8454367"><ele>481.5</ele><time>2026-04-21T10:26:42.668Z</time></trkpt><trkpt lat="44.521305" lon="8.8456017"><ele>482.25</ele><time>2026-04-21T10:26:43.668Z</time></trkpt><trkpt lat="44.521285" lon="8.8457883"><ele>483.0</ele><time>2026-04-21T10:26:44.667Z</time></trkpt><trkpt lat="44.521225" lon="8.8459583"><ele>477.5</ele><time>2026-04-21T10:26:45.667Z</time></trkpt><trkpt lat="44.5211317" lon="8.8461217"><ele>472.0</ele><time>2026-04-21T10:26:46.668Z</time></trkpt><trkpt lat="44.5210167" lon="8.8462617"><ele>466.5</ele><time>2026-04-21T10:26:47.668Z</time></trkpt><trkpt lat="44.5209183" lon="8.8464117"><ele>461.0</ele><time>2026-04-21T10:26:48.667Z</time></trkpt><trkpt lat="44.520835" lon="8.8465833"><ele>462.66666666666663</ele><time>2026-04-21T10:26:49.668Z</time></trkpt><trkpt lat="44.520765" lon="8.8468033"><ele>464.33333333333337</ele><time>2026-04-21T10:26:50.668Z</time></trkpt><trkpt lat="44.5207067" lon="8.8470167"><ele>466.0</ele><time>2026-04-21T10:26:51.668Z</time></trkpt><trkpt lat="44.520645" lon="8.8471967"><ele>466.0</ele><time>2026-04-21T10:26:52.668Z</time></trkpt><trkpt lat="44.5205717" lon="8.8473317"><ele>466.0</ele><time>2026-04-21T10:26:53.667Z</time></trkpt><trkpt lat="44.5204867" lon="8.8474333"><ele>466.0</ele><time>2026-04-21T10:26:54.667Z</time></trkpt><trkpt lat="44.52037" lon="8.8475233"><ele>466.0</ele><time>2026-04-21T10:26:55.667Z</time></trkpt><trkpt lat="44.5202283" lon="8.8475783"><ele>465.0</ele><time>2026-04-21T10:26:56.667Z</time></trkpt><trkpt lat="44.5200933" lon="8.8476317"><ele>464.0</ele><time>2026-04-21T10:26:57.667Z</time></trkpt><trkpt lat="44.51997" lon="8.84767"><ele>463.0</ele><time>2026-04-21T10:26:58.667Z</time></trkpt><trkpt lat="44.519885" lon="8.847745"><ele>462.0</ele><time>2026-04-21T10:26:59.668Z</time></trkpt><trkpt lat="44.51983" lon="8.8478533"><ele>462.0</ele><time>2026-04-21T10:27:00.667Z</time></trkpt><trkpt lat="44.519795" lon="8.8480083"><ele>462.0</ele><time>2026-04-21T10:27:01.668Z</time></trkpt><trkpt lat="44.5197733" lon="8.8481833"><ele>462.0</ele><time>2026-04-21T10:27:02.667Z</time></trkpt><trkpt lat="44.5197317" lon="8.8483583"><ele>462.0</ele><time>2026-04-21T10:27:03.667Z</time></trkpt><trkpt lat="44.5196467" lon="8.8485217"><ele>454.66666666666663</ele><time>2026-04-21T10:27:04.667Z</time></trkpt><trkpt lat="44.5195283" lon="8.8486833"><ele>447.3333333333333</ele><time>2026-04-21T10:27:05.668Z</time></trkpt><trkpt lat="44.5194" lon="8.8488117"><ele>440.0</ele><time>2026-04-21T10:27:06.668Z</time></trkpt><trkpt lat="44.519285" lon="8.8489583"><ele>440.0</ele><time>2026-04-21T10:27:07.668Z</time></trkpt><trkpt lat="44.5191917" lon="8.8490967"><ele>440.0</ele><time>2026-04-21T10:27:08.668Z</time></trkpt><trkpt lat="44.5191183" lon="8.849245"><ele>440.0</ele><time>2026-04-21T10:27:09.668Z</time></trkpt><trkpt lat="44.5190667" lon="8.849405"><ele>440.0</ele><time>2026-04-21T10:27:10.668Z</time></trkpt><trkpt lat="44.5190383" lon="8.8495983"><ele>440.75</ele><time>2026-04-21T10:27:11.668Z</time></trkpt><trkpt lat="44.519035" lon="8.8497717"><ele>441.5</ele><time>2026-04-21T10:27:12.667Z</time></trkpt><trkpt lat="44.5190583" lon="8.8499717"><ele>442.25</ele><time>2026-04-21T10:27:13.668Z</time></trkpt><trkpt lat="44.5191117" lon="8.8501717"><ele>443.0</ele><time>2026-04-21T10:27:14.667Z</time></trkpt><trkpt lat="44.51915" lon="8.8503767"><ele>439.66666666666663</ele><time>2026-04-21T10:27:15.667Z</time></trkpt><trkpt lat="44.519145" lon="8.8505983"><ele>436.33333333333337</ele><time>2026-04-21T10:27:16.667Z</time></trkpt><trkpt lat="44.51913" lon="8.8508133"><ele>433.0</ele><time>2026-04-21T10:27:17.668Z</time></trkpt><trkpt lat="44.51908" lon="8.8510583"><ele>432.0</ele><time>2026-04-21T10:27:18.667Z</time></trkpt><trkpt lat="44.51902" lon="8.85131"><ele>431.0</ele><time>2026-04-21T10:27:19.668Z</time></trkpt><trkpt lat="44.518945" lon="8.8515533"><ele>430.0</ele><time>2026-04-21T10:27:20.668Z</time></trkpt><trkpt lat="44.5188683" lon="8.851765"><ele>430.25</ele><time>2026-04-21T10:27:21.667Z</time></trkpt><trkpt lat="44.5188067" lon="8.8519533"><ele>430.5</ele><time>2026-04-21T10:27:22.667Z</time></trkpt><trkpt lat="44.5187533" lon="8.8521517"><ele>430.75</ele><time>2026-04-21T10:27:23.667Z</time></trkpt><trkpt lat="44.518735" lon="8.8523567"><ele>431.0</ele><time>2026-04-21T10:27:24.668Z</time></trkpt><trkpt lat="44.51874" lon="8.85259"><ele>429.66666666666663</ele><time>2026-04-21T10:27:25.667Z</time></trkpt><trkpt lat="44.5187583" lon="8.852845"><ele>428.33333333333337</ele><time>2026-04-21T10:27:26.667Z</time></trkpt><trkpt lat="44.5187567" lon="8.8531033"><ele>427.0</ele><time>2026-04-21T10:27:27.668Z</time></trkpt><trkpt lat="44.51874" lon="8.853355"><ele>419.0</ele><time>2026-04-21T10:27:28.667Z</time></trkpt><trkpt lat="44.5187183" lon="8.8535883"><ele>411.0</ele><time>2026-04-21T10:27:29.667Z</time></trkpt><trkpt lat="44.5186867" lon="8.8537683"><ele>403.0</ele><time>2026-04-21T10:27:30.668Z</time></trkpt><trkpt lat="44.5186417" lon="8.8539133"><ele>395.0</ele><time>2026-04-21T10:27:31.667Z</time></trkpt><trkpt lat="44.5185633" lon="8.854025"><ele>395.0</ele><time>2026-04-21T10:27:32.667Z</time></trkpt><trkpt lat="44.51846" lon="8.8540917"><ele>395.0</ele><time>2026-04-21T10:27:33.668Z</time></trkpt><trkpt lat="44.5183483" lon="8.854095"><ele>395.0</ele><time>2026-04-21T10:27:34.667Z</time></trkpt><trkpt lat="44.5182367" lon="8.854035"><ele>395.0</ele><time>2026-04-21T10:27:35.667Z</time></trkpt><trkpt lat="44.5181017" lon="8.85394"><ele>395.0</ele><time>2026-04-21T10:27:36.667Z</time></trkpt><trkpt lat="44.517955" lon="8.8538317"><ele>395.0</ele><time>2026-04-21T10:27:37.667Z</time></trkpt><trkpt lat="44.5177983" lon="8.85372"><ele>395.0</ele><time>2026-04-21T10:27:38.667Z</time></trkpt><trkpt lat="44.5176533" lon="8.8536017"><ele>391.5</ele><time>2026-04-21T10:27:39.667Z</time></trkpt><trkpt lat="44.5175233" lon="8.8534983"><ele>388.0</ele><time>2026-04-21T10:27:40.667Z</time></trkpt><trkpt lat="44.51741" lon="8.853385"><ele>384.5</ele><time>2026-04-21T10:27:41.668Z</time></trkpt><trkpt lat="44.517325" lon="8.8532567"><ele>381.0</ele><time>2026-04-21T10:27:42.667Z</time></trkpt><trkpt lat="44.5172667" lon="8.8531267"><ele>380.6</ele><time>2026-04-21T10:27:43.667Z</time></trkpt><trkpt lat="44.5172333" lon="8.853015"><ele>380.20000000000005</ele><time>2026-04-21T10:27:44.668Z</time></trkpt><trkpt lat="44.5172317" lon="8.8529033"><ele>379.79999999999995</ele><time>2026-04-21T10:27:45.668Z</time></trkpt><trkpt lat="44.5172667" lon="8.8527833"><ele>379.4</ele><time>2026-04-21T10:27:46.667Z</time></trkpt><trkpt lat="44.51732" lon="8.852625"><ele>379.0</ele><time>2026-04-21T10:27:47.668Z</time></trkpt><trkpt lat="44.51738" lon="8.85248"><ele>378.16666666666663</ele><time>2026-04-21T10:27:48.667Z</time></trkpt><trkpt lat="44.5174383" lon="8.85234"><ele>377.3333333333333</ele><time>2026-04-21T10:27:49.667Z</time></trkpt><trkpt lat="44.51749" lon="8.8522217"><ele>376.5</ele><time>2026-04-21T10:27:50.667Z</time></trkpt><trkpt lat="44.5175183" lon="8.8521167"><ele>375.6666666666667</ele><time>2026-04-21T10:27:51.668Z</time></trkpt><trkpt lat="44.5175283" lon="8.8520117"><ele>374.83333333333337</ele><time>2026-04-21T10:27:52.667Z</time></trkpt><trkpt lat="44.5175067" lon="8.8519117"><ele>374.0</ele><time>2026-04-21T10:27:53.668Z</time></trkpt><trkpt lat="44.5174717" lon="8.851795"><ele>373.75</ele><time>2026-04-21T10:27:54.667Z</time></trkpt><trkpt lat="44.517395" lon="8.8516417"><ele>373.5</ele><time>2026-04-21T10:27:55.667Z</time></trkpt><trkpt lat="44.517325" lon="8.8514783"><ele>373.25</ele><time>2026-04-21T10:27:56.667Z</time></trkpt><trkpt lat="44.5172517" lon="8.8513283"><ele>373.0</ele><time>2026-04-21T10:27:57.668Z</time></trkpt><trkpt lat="44.5172" lon="8.8511933"><ele>373.0</ele><time>2026-04-21T10:27:58.668Z</time></trkpt><trkpt lat="44.5171733" lon="8.8510733"><ele>373.0</ele><time>2026-04-21T10:27:59.667Z</time></trkpt><trkpt lat="44.5171767" lon="8.8509483"><ele>373.0</ele><time>2026-04-21T10:28:00.667Z</time></trkpt><trkpt lat="44.5171967" lon="8.850805"><ele>373.0</ele><time>2026-04-21T10:28:01.668Z</time></trkpt><trkpt lat="44.5172383" lon="8.8506467"><ele>373.0</ele><time>2026-04-21T10:28:02.667Z</time></trkpt><trkpt lat="44.5172733" lon="8.8504783"><ele>372.8333333333333</ele><time>2026-04-21T10:28:03.668Z</time></trkpt><trkpt lat="44.51731" lon="8.8503283"><ele>372.66666666666663</ele><time>2026-04-21T10:28:04.668Z</time></trkpt><trkpt lat="44.5173283" lon="8.8502217"><ele>372.5</ele><time>2026-04-21T10:28:05.668Z</time></trkpt><trkpt lat="44.517335" lon="8.85013"><ele>372.3333333333333</ele><time>2026-04-21T10:28:06.667Z</time></trkpt><trkpt lat="44.51732" lon="8.85003"><ele>372.1666666666667</ele><time>2026-04-21T10:28:07.667Z</time></trkpt><trkpt lat="44.51722" lon="8.8499567"><ele>372.0</ele><time>2026-04-21T10:28:09.667Z</time></trkpt><trkpt lat="44.5171517" lon="8.8499767"><ele>370.5</ele><time>2026-04-21T10:28:10.667Z</time></trkpt><trkpt lat="44.5170817" lon="8.850035"><ele>369.0</ele><time>2026-04-21T10:28:11.668Z</time></trkpt><trkpt lat="44.5169967" lon="8.8501517"><ele>367.5</ele><time>2026-04-21T10:28:12.667Z</time></trkpt><trkpt lat="44.51689" lon="8.850315"><ele>366.0</ele><time>2026-04-21T10:28:13.667Z</time></trkpt><trkpt lat="44.516775" lon="8.85047"><ele>361.6</ele><time>2026-04-21T10:28:14.667Z</time></trkpt><trkpt lat="44.516675" lon="8.850595"><ele>357.20000000000005</ele><time>2026-04-21T10:28:15.667Z</time></trkpt><trkpt lat="44.5166117" lon="8.850695"><ele>352.79999999999995</ele><time>2026-04-21T10:28:16.668Z</time></trkpt><trkpt lat="44.5165767" lon="8.8508183"><ele>348.4</ele><time>2026-04-21T10:28:17.667Z</time></trkpt><trkpt lat="44.51656" lon="8.8509767"><ele>344.0</ele><time>2026-04-21T10:28:18.668Z</time></trkpt><trkpt lat="44.5165783" lon="8.8511817"><ele>344.0</ele><time>2026-04-21T10:28:19.667Z</time></trkpt><trkpt lat="44.5166017" lon="8.8513917"><ele>344.0</ele><time>2026-04-21T10:28:20.667Z</time></trkpt><trkpt lat="44.5166233" lon="8.8515717"><ele>344.0</ele><time>2026-04-21T10:28:21.667Z</time></trkpt><trkpt lat="44.5166217" lon="8.8517467"><ele>344.0</ele><time>2026-04-21T10:28:22.668Z</time></trkpt><trkpt lat="44.51661" lon="8.851895"><ele>344.6</ele><time>2026-04-21T10:28:23.667Z</time></trkpt><trkpt lat="44.5165783" lon="8.8520083"><ele>345.2</ele><time>2026-04-21T10:28:24.668Z</time></trkpt><trkpt lat="44.516515" lon="8.852105"><ele>345.8</ele><time>2026-04-21T10:28:25.667Z</time></trkpt><trkpt lat="44.5164333" lon="8.8521717"><ele>346.40000000000003</ele><time>2026-04-21T10:28:26.667Z</time></trkpt><trkpt lat="44.51635" lon="8.852185"><ele>347.0</ele><time>2026-04-21T10:28:27.667Z</time></trkpt><trkpt lat="44.5162567" lon="8.852145"><ele>343.0</ele><time>2026-04-21T10:28:28.667Z</time></trkpt><trkpt lat="44.51615" lon="8.8520433"><ele>339.0</ele><time>2026-04-21T10:28:29.668Z</time></trkpt><trkpt lat="44.516035" lon="8.85191"><ele>335.0</ele><time>2026-04-21T10:28:30.667Z</time></trkpt><trkpt lat="44.515915" lon="8.8517933"><ele>331.0</ele><time>2026-04-21T10:28:31.668Z</time></trkpt><trkpt lat="44.5158133" lon="8.8516917"><ele>330.6</ele><time>2026-04-21T10:28:32.668Z</time></trkpt><trkpt lat="44.515715" lon="8.8515917"><ele>330.20000000000005</ele><time>2026-04-21T10:28:33.668Z</time></trkpt><trkpt lat="44.5156217" lon="8.851505"><ele>329.79999999999995</ele><time>2026-04-21T10:28:34.668Z</time></trkpt><trkpt lat="44.5155233" lon="8.8514583"><ele>329.4</ele><time>2026-04-21T10:28:35.667Z</time></trkpt><trkpt lat="44.5154167" lon="8.8514517"><ele>329.0</ele><time>2026-04-21T10:28:36.668Z</time></trkpt><trkpt lat="44.5153033" lon="8.851495"><ele>328.25</ele><time>2026-04-21T10:28:37.667Z</time></trkpt><trkpt lat="44.515175" lon="8.8515483"><ele>327.5</ele><time>2026-04-21T10:28:38.667Z</time></trkpt><trkpt lat="44.5150367" lon="8.8516017"><ele>326.75</ele><time>2026-04-21T10:28:39.668Z</time></trkpt><trkpt lat="44.5149" lon="8.851655"><ele>326.0</ele><time>2026-04-21T10:28:40.668Z</time></trkpt><trkpt lat="44.5147733" lon="8.8517133"><ele>326.0</ele><time>2026-04-21T10:28:41.667Z</time></trkpt><trkpt lat="44.5146667" lon="8.85177"><ele>326.0</ele><time>2026-04-21T10:28:42.667Z</time></trkpt><trkpt lat="44.5145817" lon="8.8518283"><ele>326.0</ele><time>2026-04-21T10:28:43.668Z</time></trkpt><trkpt lat="44.51453" lon="8.8519217"><ele>326.0</ele><time>2026-04-21T10:28:44.668Z</time></trkpt><trkpt lat="44.5145017" lon="8.8520233"><ele>326.0</ele><time>2026-04-21T10:28:45.667Z</time></trkpt><trkpt lat="44.5144867" lon="8.8521333"><ele>325.1666666666667</ele><time>2026-04-21T10:28:46.668Z</time></trkpt><trkpt lat="44.5145083" lon="8.8522433"><ele>324.33333333333337</ele><time>2026-04-21T10:28:47.667Z</time></trkpt><trkpt lat="44.5145417" lon="8.8523267"><ele>323.5</ele><time>2026-04-21T10:28:48.668Z</time></trkpt><trkpt lat="44.5146183" lon="8.8523783"><ele>322.6666666666667</ele><time>2026-04-21T10:28:49.668Z</time></trkpt><trkpt lat="44.5147067" lon="8.8524"><ele>321.8333333333333</ele><time>2026-04-21T10:28:50.667Z</time></trkpt><trkpt lat="44.514815" lon="8.8523933"><ele>321.0</ele><time>2026-04-21T10:28:51.667Z</time></trkpt><trkpt lat="44.5149383" lon="8.852365"><ele>321.0</ele><time>2026-04-21T10:28:52.668Z</time></trkpt><trkpt lat="44.5150467" lon="8.8523683"><ele>321.0</ele><time>2026-04-21T10:28:53.667Z</time></trkpt><trkpt lat="44.515135" lon="8.8524267"><ele>321.0</ele><time>2026-04-21T10:28:54.668Z</time></trkpt><trkpt lat="44.51521" lon="8.8525067"><ele>321.0</ele><time>2026-04-21T10:28:55.668Z</time></trkpt><trkpt lat="44.5152433" lon="8.85261"><ele>321.0</ele><time>2026-04-21T10:28:56.667Z</time></trkpt><trkpt lat="44.515245" lon="8.852715"><ele>321.8</ele><time>2026-04-21T10:28:57.668Z</time></trkpt><trkpt lat="44.5152033" lon="8.8528283"><ele>322.6</ele><time>2026-04-21T10:28:58.668Z</time></trkpt><trkpt lat="44.5151317" lon="8.852915"><ele>323.4</ele><time>2026-04-21T10:28:59.668Z</time></trkpt><trkpt lat="44.51503" lon="8.8529783"><ele>324.2</ele><time>2026-04-21T10:29:00.667Z</time></trkpt><trkpt lat="44.514905" lon="8.8529983"><ele>325.0</ele><time>2026-04-21T10:29:01.668Z</time></trkpt><trkpt lat="44.5147833" lon="8.8529867"><ele>325.0</ele><time>2026-04-21T10:29:02.667Z</time></trkpt><trkpt lat="44.5146633" lon="8.8529317"><ele>325.0</ele><time>2026-04-21T10:29:03.668Z</time></trkpt><trkpt lat="44.5145183" lon="8.8528383"><ele>325.0</ele><time>2026-04-21T10:29:04.668Z</time></trkpt><trkpt lat="44.5143683" lon="8.85273"><ele>320.0</ele><time>2026-04-21T10:29:05.667Z</time></trkpt><trkpt lat="44.5142283" lon="8.8526183"><ele>315.0</ele><time>2026-04-21T10:29:06.667Z</time></trkpt><trkpt lat="44.5141033" lon="8.8525217"><ele>310.0</ele><time>2026-04-21T10:29:07.667Z</time></trkpt><trkpt lat="44.5139967" lon="8.852455"><ele>305.0</ele><time>2026-04-21T10:29:08.667Z</time></trkpt><trkpt lat="44.5139" lon="8.8524267"><ele>305.0</ele><time>2026-04-21T10:29:09.667Z</time></trkpt><trkpt lat="44.51382" lon="8.8524333"><ele>305.0</ele><time>2026-04-21T10:29:10.668Z</time></trkpt><trkpt lat="44.5137617" lon="8.8524767"><ele>305.0</ele><time>2026-04-21T10:29:11.667Z</time></trkpt><trkpt lat="44.5137267" lon="8.8525717"><ele>305.0</ele><time>2026-04-21T10:29:12.668Z</time></trkpt><trkpt lat="44.513715" lon="8.8527"><ele>305.0</ele><time>2026-04-21T10:29:13.667Z</time></trkpt><trkpt lat="44.5137183" lon="8.8528433"><ele>305.0</ele><time>2026-04-21T10:29:14.668Z</time></trkpt><trkpt lat="44.51371" lon="8.8529817"><ele>300.0</ele><time>2026-04-21T10:29:15.667Z</time></trkpt><trkpt lat="44.5136833" lon="8.8530817"><ele>295.0</ele><time>2026-04-21T10:29:16.667Z</time></trkpt><trkpt lat="44.5135817" lon="8.8531917"><ele>290.0</ele><time>2026-04-21T10:29:18.667Z</time></trkpt><trkpt lat="44.5135167" lon="8.8531617"><ele>285.0</ele><time>2026-04-21T10:29:19.667Z</time></trkpt><trkpt lat="44.513455" lon="8.8530717"><ele>280.0</ele><time>2026-04-21T10:29:20.668Z</time></trkpt><trkpt lat="44.513405" lon="8.8529117"><ele>280.0</ele><time>2026-04-21T10:29:21.668Z</time></trkpt><trkpt lat="44.51337" lon="8.8526967"><ele>280.0</ele><time>2026-04-21T10:29:22.668Z</time></trkpt><trkpt lat="44.5133467" lon="8.8524233"><ele>280.0</ele><time>2026-04-21T10:29:23.668Z</time></trkpt><trkpt lat="44.5133217" lon="8.8521933"><ele>279.75</ele><time>2026-04-21T10:29:24.667Z</time></trkpt><trkpt lat="44.513295" lon="8.8520083"><ele>279.5</ele><time>2026-04-21T10:29:25.668Z</time></trkpt><trkpt lat="44.5132817" lon="8.8518283"><ele>279.25</ele><time>2026-04-21T10:29:26.667Z</time></trkpt><trkpt lat="44.5132883" lon="8.85165"><ele>279.0</ele><time>2026-04-21T10:29:27.668Z</time></trkpt><trkpt lat="44.5133133" lon="8.8514833"><ele>279.0</ele><time>2026-04-21T10:29:28.667Z</time></trkpt><trkpt lat="44.5133433" lon="8.8513133"><ele>279.0</ele><time>2026-04-21T10:29:29.668Z</time></trkpt><trkpt lat="44.51335" lon="8.8511417"><ele>279.0</ele><time>2026-04-21T10:29:30.667Z</time></trkpt><trkpt lat="44.5133183" lon="8.8509533"><ele>279.0</ele><time>2026-04-21T10:29:31.668Z</time></trkpt><trkpt lat="44.51326" lon="8.85078"><ele>278.5</ele><time>2026-04-21T10:29:32.668Z</time></trkpt><trkpt lat="44.513195" lon="8.8506183"><ele>278.0</ele><time>2026-04-21T10:29:33.667Z</time></trkpt><trkpt lat="44.5131317" lon="8.85047"><ele>277.5</ele><time>2026-04-21T10:29:34.667Z</time></trkpt><trkpt lat="44.5130883" lon="8.850325"><ele>277.0</ele><time>2026-04-21T10:29:35.667Z</time></trkpt><trkpt lat="44.5130717" lon="8.8501633"><ele>277.25</ele><time>2026-04-21T10:29:36.668Z</time></trkpt><trkpt lat="44.51308" lon="8.8499917"><ele>277.5</ele><time>2026-04-21T10:29:37.668Z</time></trkpt><trkpt lat="44.5131017" lon="8.8498233"><ele>277.75</ele><time>2026-04-21T10:29:38.668Z</time></trkpt><trkpt lat="44.5131317" lon="8.8496617"><ele>278.0</ele><time>2026-04-21T10:29:39.668Z</time></trkpt><trkpt lat="44.5131733" lon="8.8495217"><ele>278.0</ele><time>2026-04-21T10:29:40.667Z</time></trkpt><trkpt lat="44.51323" lon="8.8493917"><ele>278.0</ele><time>2026-04-21T10:29:41.668Z</time></trkpt><trkpt lat="44.5132967" lon="8.8492783"><ele>278.0</ele><time>2026-04-21T10:29:42.668Z</time></trkpt><trkpt lat="44.5133617" lon="8.8491767"><ele>278.0</ele><time>2026-04-21T10:29:43.668Z</time></trkpt><trkpt lat="44.5134017" lon="8.8490767"><ele>278.0</ele><time>2026-04-21T10:29:44.667Z</time></trkpt><trkpt lat="44.5134183" lon="8.8489833"><ele>275.8</ele><time>2026-04-21T10:29:45.667Z</time></trkpt><trkpt lat="44.5134033" lon="8.8488883"><ele>273.6</ele><time>2026-04-21T10:29:46.667Z</time></trkpt><trkpt lat="44.5133617" lon="8.84881"><ele>271.4</ele><time>2026-04-21T10:29:47.668Z</time></trkpt><trkpt lat="44.5133017" lon="8.8487183"><ele>269.2</ele><time>2026-04-21T10:29:48.668Z</time></trkpt><trkpt lat="44.513195" lon="8.848655"><ele>267.0</ele><time>2026-04-21T10:29:49.667Z</time></trkpt><trkpt lat="44.5130867" lon="8.8486317"><ele>267.0</ele><time>2026-04-21T10:29:50.667Z</time></trkpt><trkpt lat="44.5129783" lon="8.8486433"><ele>267.0</ele><time>2026-04-21T10:29:51.667Z</time></trkpt><trkpt lat="44.51289" lon="8.8486867"><ele>267.0</ele><time>2026-04-21T10:29:52.667Z</time></trkpt><trkpt lat="44.512815" lon="8.8487467"><ele>267.0</ele><time>2026-04-21T10:29:53.668Z</time></trkpt><trkpt lat="44.5127367" lon="8.848845"><ele>267.0</ele><time>2026-04-21T10:29:54.668Z</time></trkpt><trkpt lat="44.51267" lon="8.8489733"><ele>263.0</ele><time>2026-04-21T10:29:55.667Z</time></trkpt><trkpt lat="44.512595" lon="8.8491233"><ele>259.0</ele><time>2026-04-21T10:29:56.667Z</time></trkpt><trkpt lat="44.5125117" lon="8.849315"><ele>255.0</ele><time>2026-04-21T10:29:57.667Z</time></trkpt><trkpt lat="44.5124533" lon="8.8494917"><ele>251.0</ele><time>2026-04-21T10:29:58.668Z</time></trkpt><trkpt lat="44.5124083" lon="8.849675"><ele>251.0</ele><time>2026-04-21T10:29:59.668Z</time></trkpt><trkpt lat="44.5123667" lon="8.8498517"><ele>251.0</ele><time>2026-04-21T10:30:00.667Z</time></trkpt><trkpt lat="44.51235" lon="8.850025"><ele>251.0</ele><time>2026-04-21T10:30:01.668Z</time></trkpt><trkpt lat="44.5123517" lon="8.850185"><ele>251.0</ele><time>2026-04-21T10:30:02.667Z</time></trkpt><trkpt lat="44.5123583" lon="8.8503433"><ele>252.75</ele><time>2026-04-21T10:30:03.667Z</time></trkpt><trkpt lat="44.5123833" lon="8.8504983"><ele>254.5</ele><time>2026-04-21T10:30:04.667Z</time></trkpt><trkpt lat="44.51242" lon="8.8506583"><ele>256.25</ele><time>2026-04-21T10:30:05.667Z</time></trkpt><trkpt lat="44.5124783" lon="8.850825"><ele>258.0</ele><time>2026-04-21T10:30:06.667Z</time></trkpt><trkpt lat="44.5125567" lon="8.8509933"><ele>258.0</ele><time>2026-04-21T10:30:07.668Z</time></trkpt><trkpt lat="44.51264" lon="8.8511433"><ele>258.0</ele><time>2026-04-21T10:30:08.668Z</time></trkpt><trkpt lat="44.5127033" lon="8.851295"><ele>258.0</ele><time>2026-04-21T10:30:09.668Z</time></trkpt><trkpt lat="44.51277" lon="8.8514433"><ele>258.0</ele><time>2026-04-21T10:30:10.668Z</time></trkpt><trkpt lat="44.512805" lon="8.8515967"><ele>258.0</ele><time>2026-04-21T10:30:11.668Z</time></trkpt><trkpt lat="44.5128167" lon="8.851765"><ele>258.0</ele><time>2026-04-21T10:30:12.668Z</time></trkpt><trkpt lat="44.512815" lon="8.851935"><ele>258.0</ele><time>2026-04-21T10:30:13.668Z</time></trkpt><trkpt lat="44.5127833" lon="8.8521017"><ele>258.0</ele><time>2026-04-21T10:30:14.667Z</time></trkpt><trkpt lat="44.5127333" lon="8.85225"><ele>256.3333333333333</ele><time>2026-04-21T10:30:15.668Z</time></trkpt><trkpt lat="44.5126633" lon="8.8523717"><ele>254.66666666666669</ele><time>2026-04-21T10:30:16.667Z</time></trkpt><trkpt lat="44.5125767" lon="8.852445"><ele>253.0</ele><time>2026-04-21T10:30:17.668Z</time></trkpt><trkpt lat="44.51249" lon="8.852495"><ele>251.33333333333334</ele><time>2026-04-21T10:30:18.667Z</time></trkpt><trkpt lat="44.51243" lon="8.852525"><ele>249.66666666666669</ele><time>2026-04-21T10:30:19.667Z</time></trkpt><trkpt lat="44.5123683" lon="8.8525733"><ele>248.0</ele><time>2026-04-21T10:31:05.667Z</time></trkpt><trkpt lat="44.5123533" lon="8.852695"><ele>247.8</ele><time>2026-04-21T10:31:07.667Z</time></trkpt><trkpt lat="44.512355" lon="8.85281"><ele>247.60000000000002</ele><time>2026-04-21T10:31:08.667Z</time></trkpt><trkpt lat="44.51235" lon="8.8529517"><ele>247.39999999999998</ele><time>2026-04-21T10:31:09.668Z</time></trkpt><trkpt lat="44.5123383" lon="8.8531017"><ele>247.2</ele><time>2026-04-21T10:31:10.668Z</time></trkpt><trkpt lat="44.512305" lon="8.85324"><ele>247.0</ele><time>2026-04-21T10:31:11.667Z</time></trkpt><trkpt lat="44.51223" lon="8.8533717"><ele>244.5</ele><time>2026-04-21T10:31:12.667Z</time></trkpt><trkpt lat="44.5121417" lon="8.8534983"><ele>242.0</ele><time>2026-04-21T10:31:13.668Z</time></trkpt><trkpt lat="44.5120667" lon="8.85362"><ele>239.5</ele><time>2026-04-21T10:31:14.667Z</time></trkpt><trkpt lat="44.5120017" lon="8.85376"><ele>237.0</ele><time>2026-04-21T10:31:15.668Z</time></trkpt><trkpt lat="44.5119417" lon="8.8539267"><ele>237.0</ele><time>2026-04-21T10:31:16.667Z</time></trkpt><trkpt lat="44.5119017" lon="8.8540967"><ele>237.0</ele><time>2026-04-21T10:31:17.667Z</time></trkpt><trkpt lat="44.5118667" lon="8.8542583"><ele>237.0</ele><time>2026-04-21T10:31:18.668Z</time></trkpt><trkpt lat="44.5118467" lon="8.854405"><ele>237.0</ele><time>2026-04-21T10:31:19.668Z</time></trkpt><trkpt lat="44.5118283" lon="8.85455"><ele>236.8</ele><time>2026-04-21T10:31:20.667Z</time></trkpt><trkpt lat="44.5118283" lon="8.85471"><ele>236.6</ele><time>2026-04-21T10:31:21.667Z</time></trkpt><trkpt lat="44.5118133" lon="8.8548567"><ele>236.40000000000003</ele><time>2026-04-21T10:31:22.667Z</time></trkpt><trkpt lat="44.511795" lon="8.855"><ele>236.20000000000002</ele><time>2026-04-21T10:31:23.668Z</time></trkpt><trkpt lat="44.5117833" lon="8.8551317"><ele>236.0</ele><time>2026-04-21T10:31:24.668Z</time></trkpt><trkpt lat="44.511795" lon="8.855265"><ele>234.4</ele><time>2026-04-21T10:31:25.668Z</time></trkpt><trkpt lat="44.511815" lon="8.8553867"><ele>232.8</ele><time>2026-04-21T10:31:26.668Z</time></trkpt><trkpt lat="44.5118483" lon="8.8554983"><ele>231.20000000000002</ele><time>2026-04-21T10:31:27.668Z</time></trkpt><trkpt lat="44.5118983" lon="8.8556267"><ele>229.60000000000002</ele><time>2026-04-21T10:31:28.667Z</time></trkpt><trkpt lat="44.5119483" lon="8.8557633"><ele>228.0</ele><time>2026-04-21T10:31:29.668Z</time></trkpt><trkpt lat="44.5119867" lon="8.85589"><ele>227.2</ele><time>2026-04-21T10:31:30.668Z</time></trkpt><trkpt lat="44.512" lon="8.8560233"><ele>226.4</ele><time>2026-04-21T10:31:31.667Z</time></trkpt><trkpt lat="44.5119817" lon="8.85616"><ele>225.59999999999997</ele><time>2026-04-21T10:31:32.667Z</time></trkpt><trkpt lat="44.5119367" lon="8.8563017"><ele>224.79999999999998</ele><time>2026-04-21T10:31:33.667Z</time></trkpt><trkpt lat="44.5118767" lon="8.8564417"><ele>224.0</ele><time>2026-04-21T10:31:34.667Z</time></trkpt><trkpt lat="44.5117967" lon="8.85657"><ele>224.00000000000003</ele><time>2026-04-21T10:31:35.667Z</time></trkpt><trkpt lat="44.5117183" lon="8.85667"><ele>224.0</ele><time>2026-04-21T10:31:36.667Z</time></trkpt><trkpt lat="44.5116333" lon="8.856755"><ele>224.0</ele><time>2026-04-21T10:31:37.668Z</time></trkpt><trkpt lat="44.511585" lon="8.8568183"><ele>224.0</ele><time>2026-04-21T10:31:38.668Z</time></trkpt><trkpt lat="44.5115533" lon="8.8569067"><ele>224.00000000000003</ele><time>2026-04-21T10:31:39.668Z</time></trkpt><trkpt lat="44.5115417" lon="8.8570117"><ele>224.0</ele><time>2026-04-21T10:31:40.667Z</time></trkpt><trkpt lat="44.5115617" lon="8.8571267"><ele>224.0</ele><time>2026-04-21T10:31:41.668Z</time></trkpt><trkpt lat="44.5116117" lon="8.857255"><ele>224.0</ele><time>2026-04-21T10:31:42.667Z</time></trkpt><trkpt lat="44.511685" lon="8.8574017"><ele>224.0</ele><time>2026-04-21T10:31:43.667Z</time></trkpt><trkpt lat="44.5117467" lon="8.8575417"><ele>224.0</ele><time>2026-04-21T10:31:44.668Z</time></trkpt><trkpt lat="44.511795" lon="8.8576817"><ele>224.2</ele><time>2026-04-21T10:31:45.667Z</time></trkpt><trkpt lat="44.5118183" lon="8.8578133"><ele>224.39999999999998</ele><time>2026-04-21T10:31:46.668Z</time></trkpt><trkpt lat="44.5118133" lon="8.8579433"><ele>224.6</ele><time>2026-04-21T10:31:47.667Z</time></trkpt><trkpt lat="44.511785" lon="8.8580983"><ele>224.8</ele><time>2026-04-21T10:31:48.667Z</time></trkpt><trkpt lat="44.511745" lon="8.8582733"><ele>225.0</ele><time>2026-04-21T10:31:49.667Z</time></trkpt><trkpt lat="44.5116933" lon="8.8584467"><ele>225.6</ele><time>2026-04-21T10:31:50.668Z</time></trkpt><trkpt lat="44.5116383" lon="8.8586033"><ele>226.2</ele><time>2026-04-21T10:31:51.668Z</time></trkpt><trkpt lat="44.5115817" lon="8.8587083"><ele>226.8</ele><time>2026-04-21T10:31:52.668Z</time></trkpt><trkpt lat="44.511505" lon="8.8587717"><ele>227.4</ele><time>2026-04-21T10:31:53.667Z</time></trkpt><trkpt lat="44.5114233" lon="8.8588217"><ele>228.0</ele><time>2026-04-21T10:31:54.667Z</time></trkpt><trkpt lat="44.5113333" lon="8.858865"><ele>228.0</ele><time>2026-04-21T10:31:55.668Z</time></trkpt><trkpt lat="44.511255" lon="8.8589083"><ele>228.0</ele><time>2026-04-21T10:31:56.667Z</time></trkpt><trkpt lat="44.5111883" lon="8.8590033"><ele>228.0</ele><time>2026-04-21T10:31:57.667Z</time></trkpt><trkpt lat="44.5111667" lon="8.8591367"><ele>228.0</ele><time>2026-04-21T10:31:58.667Z</time></trkpt><trkpt lat="44.5111617" lon="8.8593"><ele>228.0</ele><time>2026-04-21T10:31:59.667Z</time></trkpt><trkpt lat="44.5111833" lon="8.85949"><ele>226.5</ele><time>2026-04-21T10:32:00.667Z</time></trkpt><trkpt lat="44.5111983" lon="8.8596817"><ele>225.0</ele><time>2026-04-21T10:32:01.667Z</time></trkpt><trkpt lat="44.511195" lon="8.85988"><ele>223.5</ele><time>2026-04-21T10:32:02.667Z</time></trkpt><trkpt lat="44.5111583" lon="8.8600567"><ele>222.0</ele><time>2026-04-21T10:32:03.667Z</time></trkpt><trkpt lat="44.5110967" lon="8.8602233"><ele>222.0</ele><time>2026-04-21T10:32:04.667Z</time></trkpt><trkpt lat="44.5110117" lon="8.8603767"><ele>222.0</ele><time>2026-04-21T10:32:05.667Z</time></trkpt><trkpt lat="44.51092" lon="8.8605133"><ele>222.0</ele><time>2026-04-21T10:32:06.668Z</time></trkpt><trkpt lat="44.510825" lon="8.8606033"><ele>222.0</ele><time>2026-04-21T10:32:07.668Z</time></trkpt><trkpt lat="44.51074" lon="8.8606717"><ele>222.0</ele><time>2026-04-21T10:32:08.668Z</time></trkpt><trkpt lat="44.5106617" lon="8.8607567"><ele>222.0</ele><time>2026-04-21T10:32:09.667Z</time></trkpt><trkpt lat="44.5105917" lon="8.8608633"><ele>222.0</ele><time>2026-04-21T10:32:10.668Z</time></trkpt><trkpt lat="44.510525" lon="8.8609917"><ele>222.0</ele><time>2026-04-21T10:32:11.667Z</time></trkpt><trkpt lat="44.5104667" lon="8.8611433"><ele>222.0</ele><time>2026-04-21T10:32:12.667Z</time></trkpt><trkpt lat="44.5103967" lon="8.8613033"><ele>219.5</ele><time>2026-04-21T10:32:13.667Z</time></trkpt><trkpt lat="44.5103283" lon="8.8614667"><ele>217.0</ele><time>2026-04-21T10:32:14.667Z</time></trkpt><trkpt lat="44.5102533" lon="8.8616417"><ele>214.5</ele><time>2026-04-21T10:32:15.667Z</time></trkpt><trkpt lat="44.5101717" lon="8.8618333"><ele>212.0</ele><time>2026-04-21T10:32:16.667Z</time></trkpt><trkpt lat="44.5100917" lon="8.8620333"><ele>211.75</ele><time>2026-04-21T10:32:17.667Z</time></trkpt><trkpt lat="44.5100283" lon="8.8622267"><ele>211.5</ele><time>2026-04-21T10:32:18.667Z</time></trkpt><trkpt lat="44.5099583" lon="8.8623933"><ele>211.25</ele><time>2026-04-21T10:32:19.668Z</time></trkpt><trkpt lat="44.5099017" lon="8.8625567"><ele>211.0</ele><time>2026-04-21T10:32:20.667Z</time></trkpt><trkpt lat="44.509835" lon="8.8627167"><ele>211.4</ele><time>2026-04-21T10:32:21.667Z</time></trkpt><trkpt lat="44.5097683" lon="8.86286"><ele>211.8</ele><time>2026-04-21T10:32:22.668Z</time></trkpt><trkpt lat="44.50971" lon="8.8629817"><ele>212.20000000000002</ele><time>2026-04-21T10:32:23.667Z</time></trkpt><trkpt lat="44.509655" lon="8.8630933"><ele>212.60000000000002</ele><time>2026-04-21T10:32:24.668Z</time></trkpt><trkpt lat="44.5095967" lon="8.86319"><ele>213.0</ele><time>2026-04-21T10:32:25.668Z</time></trkpt><trkpt lat="44.5095267" lon="8.8632683"><ele>209.60000000000002</ele><time>2026-04-21T10:32:26.667Z</time></trkpt><trkpt lat="44.5094633" lon="8.86335"><ele>206.20000000000002</ele><time>2026-04-21T10:32:27.668Z</time></trkpt><trkpt lat="44.5094183" lon="8.8634467"><ele>202.8</ele><time>2026-04-21T10:32:28.667Z</time></trkpt><trkpt lat="44.50937" lon="8.86355"><ele>199.4</ele><time>2026-04-21T10:32:29.667Z</time></trkpt><trkpt lat="44.5092883" lon="8.86365"><ele>196.0</ele><time>2026-04-21T10:32:30.667Z</time></trkpt><trkpt lat="44.5091917" lon="8.8637283"><ele>196.0</ele><time>2026-04-21T10:32:31.668Z</time></trkpt><trkpt lat="44.5090817" lon="8.863805"><ele>196.0</ele><time>2026-04-21T10:32:32.668Z</time></trkpt><trkpt lat="44.5089833" lon="8.863875"><ele>196.0</ele><time>2026-04-21T10:32:33.667Z</time></trkpt><trkpt lat="44.5089067" lon="8.86395"><ele>196.0</ele><time>2026-04-21T10:32:34.667Z</time></trkpt><trkpt lat="44.5088483" lon="8.864035"><ele>196.0</ele><time>2026-04-21T10:32:35.668Z</time></trkpt><trkpt lat="44.5088083" lon="8.864155"><ele>195.8</ele><time>2026-04-21T10:32:36.667Z</time></trkpt><trkpt lat="44.5087867" lon="8.8643083"><ele>195.60000000000002</ele><time>2026-04-21T10:32:37.667Z</time></trkpt><trkpt lat="44.508785" lon="8.8644533"><ele>195.4</ele><time>2026-04-21T10:32:38.668Z</time></trkpt><trkpt lat="44.5087967" lon="8.864605"><ele>195.2</ele><time>2026-04-21T10:32:39.667Z</time></trkpt><trkpt lat="44.5088283" lon="8.8647583"><ele>195.0</ele><time>2026-04-21T10:32:40.668Z</time></trkpt><trkpt lat="44.508875" lon="8.8649417"><ele>192.75</ele><time>2026-04-21T10:32:41.667Z</time></trkpt><trkpt lat="44.5089333" lon="8.8651233"><ele>190.5</ele><time>2026-04-21T10:32:42.667Z</time></trkpt><trkpt lat="44.508985" lon="8.8653033"><ele>188.25</ele><time>2026-04-21T10:32:43.667Z</time></trkpt><trkpt lat="44.5090417" lon="8.8654683"><ele>186.0</ele><time>2026-04-21T10:32:44.667Z</time></trkpt><trkpt lat="44.5090817" lon="8.865635"><ele>186.0</ele><time>2026-04-21T10:32:45.668Z</time></trkpt><trkpt lat="44.5091133" lon="8.8658217"><ele>186.0</ele><time>2026-04-21T10:32:46.668Z</time></trkpt><trkpt lat="44.509125" lon="8.8660117"><ele>186.0</ele><time>2026-04-21T10:32:47.668Z</time></trkpt><trkpt lat="44.5091267" lon="8.8662017"><ele>186.0</ele><time>2026-04-21T10:32:48.667Z</time></trkpt><trkpt lat="44.5091183" lon="8.8663867"><ele>186.5</ele><time>2026-04-21T10:32:49.668Z</time></trkpt><trkpt lat="44.5091167" lon="8.8665617"><ele>187.0</ele><time>2026-04-21T10:32:50.667Z</time></trkpt><trkpt lat="44.50913" lon="8.8667067"><ele>187.5</ele><time>2026-04-21T10:32:51.667Z</time></trkpt><trkpt lat="44.509175" lon="8.866875"><ele>188.0</ele><time>2026-04-21T10:32:52.668Z</time></trkpt><trkpt lat="44.509235" lon="8.8670467"><ele>188.0</ele><time>2026-04-21T10:32:53.667Z</time></trkpt><trkpt lat="44.5093017" lon="8.8672067"><ele>188.0</ele><time>2026-04-21T10:32:54.667Z</time></trkpt><trkpt lat="44.5093733" lon="8.8673317"><ele>188.0</ele><time>2026-04-21T10:32:55.667Z</time></trkpt><trkpt lat="44.5094633" lon="8.86743"><ele>188.0</ele><time>2026-04-21T10:32:56.668Z</time></trkpt><trkpt lat="44.5095717" lon="8.8675283"><ele>185.25</ele><time>2026-04-21T10:32:57.667Z</time></trkpt><trkpt lat="44.5096883" lon="8.867615"><ele>182.5</ele><time>2026-04-21T10:32:58.668Z</time></trkpt><trkpt lat="44.5097967" lon="8.8677067"><ele>179.75</ele><time>2026-04-21T10:32:59.667Z</time></trkpt><trkpt lat="44.5099067" lon="8.8678317"><ele>177.0</ele><time>2026-04-21T10:33:00.668Z</time></trkpt><trkpt lat="44.5100067" lon="8.8679733"><ele>177.0</ele><time>2026-04-21T10:33:01.668Z</time></trkpt><trkpt lat="44.5100967" lon="8.8681217"><ele>177.0</ele><time>2026-04-21T10:33:02.667Z</time></trkpt><trkpt lat="44.51018" lon="8.8682617"><ele>177.0</ele><time>2026-04-21T10:33:03.668Z</time></trkpt><trkpt lat="44.51026" lon="8.868405"><ele>177.0</ele><time>2026-04-21T10:33:04.667Z</time></trkpt><trkpt lat="44.51034" lon="8.8685467"><ele>175.5</ele><time>2026-04-21T10:33:05.667Z</time></trkpt><trkpt lat="44.51042" lon="8.86868"><ele>174.0</ele><time>2026-04-21T10:33:06.668Z</time></trkpt><trkpt lat="44.5104933" lon="8.868825"><ele>172.5</ele><time>2026-04-21T10:33:07.667Z</time></trkpt><trkpt lat="44.5105633" lon="8.8689983"><ele>171.0</ele><time>2026-04-21T10:33:08.668Z</time></trkpt><trkpt lat="44.5106333" lon="8.8692133"><ele>175.0</ele><time>2026-04-21T10:33:09.667Z</time></trkpt><trkpt lat="44.510715" lon="8.8694367"><ele>179.0</ele><time>2026-04-21T10:33:10.668Z</time></trkpt><trkpt lat="44.5108117" lon="8.8696583"><ele>183.0</ele><time>2026-04-21T10:33:11.667Z</time></trkpt><trkpt lat="44.510915" lon="8.86987"><ele>183.0</ele><time>2026-04-21T10:33:12.668Z</time></trkpt><trkpt lat="44.5110083" lon="8.87008"><ele>183.0</ele><time>2026-04-21T10:33:13.667Z</time></trkpt><trkpt lat="44.5111033" lon="8.8702783"><ele>183.0</ele><time>2026-04-21T10:33:14.667Z</time></trkpt><trkpt lat="44.511205" lon="8.8704633"><ele>182.66666666666666</ele><time>2026-04-21T10:33:15.667Z</time></trkpt><trkpt lat="44.5112967" lon="8.87064"><ele>182.33333333333331</ele><time>2026-04-21T10:33:16.667Z</time></trkpt><trkpt lat="44.5113933" lon="8.8708017"><ele>182.0</ele><time>2026-04-21T10:33:17.667Z</time></trkpt><trkpt lat="44.5114933" lon="8.870955"><ele>182.0</ele><time>2026-04-21T10:33:18.667Z</time></trkpt><trkpt lat="44.5115983" lon="8.8711017"><ele>182.0</ele><time>2026-04-21T10:33:19.667Z</time></trkpt><trkpt lat="44.5116967" lon="8.8712367"><ele>182.0</ele><time>2026-04-21T10:33:20.668Z</time></trkpt><trkpt lat="44.5117867" lon="8.87137"><ele>182.0</ele><time>2026-04-21T10:33:21.667Z</time></trkpt><trkpt lat="44.5118817" lon="8.8714983"><ele>182.0</ele><time>2026-04-21T10:33:22.668Z</time></trkpt><trkpt lat="44.5119783" lon="8.8716267"><ele>182.0</ele><time>2026-04-21T10:33:23.667Z</time></trkpt><trkpt lat="44.5120767" lon="8.8717533"><ele>182.0</ele><time>2026-04-21T10:33:24.668Z</time></trkpt><trkpt lat="44.5121667" lon="8.8718733"><ele>182.0</ele><time>2026-04-21T10:33:25.668Z</time></trkpt><trkpt lat="44.51226" lon="8.872"><ele>179.75</ele><time>2026-04-21T10:33:26.668Z</time></trkpt><trkpt lat="44.51235" lon="8.8721183"><ele>177.5</ele><time>2026-04-21T10:33:27.667Z</time></trkpt><trkpt lat="44.5124383" lon="8.8722417"><ele>175.25</ele><time>2026-04-21T10:33:28.667Z</time></trkpt><trkpt lat="44.51253" lon="8.8723517"><ele>173.0</ele><time>2026-04-21T10:33:29.668Z</time></trkpt><trkpt lat="44.5126217" lon="8.87246"><ele>173.0</ele><time>2026-04-21T10:33:30.667Z</time></trkpt><trkpt lat="44.5127133" lon="8.8725633"><ele>173.0</ele><time>2026-04-21T10:33:31.667Z</time></trkpt><trkpt lat="44.5127983" lon="8.87266"><ele>173.0</ele><time>2026-04-21T10:33:32.668Z</time></trkpt><trkpt lat="44.5128867" lon="8.8727467"><ele>173.0</ele><time>2026-04-21T10:33:33.668Z</time></trkpt><trkpt lat="44.5129733" lon="8.8728433"><ele>173.0</ele><time>2026-04-21T10:33:34.668Z</time></trkpt><trkpt lat="44.5130667" lon="8.87293"><ele>170.25</ele><time>2026-04-21T10:33:35.668Z</time></trkpt><trkpt lat="44.51316" lon="8.873025"><ele>167.5</ele><time>2026-04-21T10:33:36.667Z</time></trkpt><trkpt lat="44.5132417" lon="8.87315"><ele>164.75</ele><time>2026-04-21T10:33:37.667Z</time></trkpt><trkpt lat="44.5133167" lon="8.8732817"><ele>162.0</ele><time>2026-04-21T10:33:38.667Z</time></trkpt><trkpt lat="44.5133783" lon="8.873425"><ele>163.2</ele><time>2026-04-21T10:33:39.667Z</time></trkpt><trkpt lat="44.5134183" lon="8.87358"><ele>164.39999999999998</ele><time>2026-04-21T10:33:40.667Z</time></trkpt><trkpt lat="44.5134467" lon="8.8737333"><ele>165.60000000000002</ele><time>2026-04-21T10:33:41.668Z</time></trkpt><trkpt lat="44.5134667" lon="8.8738833"><ele>166.8</ele><time>2026-04-21T10:33:42.667Z</time></trkpt><trkpt lat="44.5134633" lon="8.874035"><ele>168.0</ele><time>2026-04-21T10:33:43.668Z</time></trkpt><trkpt lat="44.5134467" lon="8.8741733"><ele>166.8</ele><time>2026-04-21T10:33:44.668Z</time></trkpt><trkpt lat="44.5134017" lon="8.8743067"><ele>165.60000000000002</ele><time>2026-04-21T10:33:45.668Z</time></trkpt><trkpt lat="44.5133833" lon="8.8744367"><ele>164.39999999999998</ele><time>2026-04-21T10:33:46.668Z</time></trkpt><trkpt lat="44.5133433" lon="8.874555"><ele>163.2</ele><time>2026-04-21T10:33:47.668Z</time></trkpt><trkpt lat="44.513305" lon="8.874685"><ele>162.0</ele><time>2026-04-21T10:33:48.668Z</time></trkpt><trkpt lat="44.513275" lon="8.87483"><ele>162.0</ele><time>2026-04-21T10:33:49.668Z</time></trkpt><trkpt lat="44.513245" lon="8.8749833"><ele>162.0</ele><time>2026-04-21T10:33:50.668Z</time></trkpt><trkpt lat="44.513215" lon="8.8751483"><ele>162.0</ele><time>2026-04-21T10:33:51.667Z</time></trkpt><trkpt lat="44.5132133" lon="8.8753233"><ele>162.0</ele><time>2026-04-21T10:33:52.668Z</time></trkpt><trkpt lat="44.5132033" lon="8.8754933"><ele>160.5</ele><time>2026-04-21T10:33:53.668Z</time></trkpt><trkpt lat="44.5132017" lon="8.8756733"><ele>159.0</ele><time>2026-04-21T10:33:54.668Z</time></trkpt><trkpt lat="44.5131933" lon="8.8758667"><ele>157.5</ele><time>2026-04-21T10:33:55.668Z</time></trkpt><trkpt lat="44.5131633" lon="8.8760583"><ele>156.0</ele><time>2026-04-21T10:33:56.667Z</time></trkpt><trkpt lat="44.5131283" lon="8.8762433"><ele>155.5</ele><time>2026-04-21T10:33:57.668Z</time></trkpt><trkpt lat="44.513075" lon="8.8764167"><ele>155.0</ele><time>2026-04-21T10:33:58.668Z</time></trkpt><trkpt lat="44.51302" lon="8.8765617"><ele>154.5</ele><time>2026-04-21T10:33:59.668Z</time></trkpt><trkpt lat="44.5129733" lon="8.8766933"><ele>154.0</ele><time>2026-04-21T10:34:00.667Z</time></trkpt><trkpt lat="44.5129333" lon="8.876835"><ele>155.16666666666669</ele><time>2026-04-21T10:34:01.667Z</time></trkpt><trkpt lat="44.5129033" lon="8.8769567"><ele>156.33333333333334</ele><time>2026-04-21T10:34:02.668Z</time></trkpt><trkpt lat="44.5128567" lon="8.8770583"><ele>157.5</ele><time>2026-04-21T10:34:03.667Z</time></trkpt><trkpt lat="44.5128167" lon="8.8771567"><ele>158.66666666666666</ele><time>2026-04-21T10:34:04.668Z</time></trkpt><trkpt lat="44.51279" lon="8.8772617"><ele>159.83333333333331</ele><time>2026-04-21T10:34:05.668Z</time></trkpt><trkpt lat="44.5127733" lon="8.8773717"><ele>161.0</ele><time>2026-04-21T10:34:06.668Z</time></trkpt><trkpt lat="44.5127483" lon="8.877485"><ele>161.0</ele><time>2026-04-21T10:34:07.667Z</time></trkpt><trkpt lat="44.5127217" lon="8.8775983"><ele>161.0</ele><time>2026-04-21T10:34:08.667Z</time></trkpt><trkpt lat="44.5126883" lon="8.8777167"><ele>161.0</ele><time>2026-04-21T10:34:09.668Z</time></trkpt><trkpt lat="44.512645" lon="8.8778367"><ele>161.0</ele><time>2026-04-21T10:34:10.667Z</time></trkpt><trkpt lat="44.512605" lon="8.87798"><ele>161.0</ele><time>2026-04-21T10:34:11.668Z</time></trkpt><trkpt lat="44.5125567" lon="8.8781133"><ele>159.8</ele><time>2026-04-21T10:34:12.668Z</time></trkpt><trkpt lat="44.51251" lon="8.87824"><ele>158.60000000000002</ele><time>2026-04-21T10:34:13.668Z</time></trkpt><trkpt lat="44.5124683" lon="8.8783467"><ele>157.4</ele><time>2026-04-21T10:34:14.668Z</time></trkpt><trkpt lat="44.51242" lon="8.8784433"><ele>156.2</ele><time>2026-04-21T10:34:15.667Z</time></trkpt><trkpt lat="44.5123517" lon="8.8785117"><ele>155.0</ele><time>2026-04-21T10:34:16.668Z</time></trkpt><trkpt lat="44.51227" lon="8.878575"><ele>155.0</ele><time>2026-04-21T10:34:17.667Z</time></trkpt><trkpt lat="44.512175" lon="8.87862"><ele>155.0</ele><time>2026-04-21T10:34:18.668Z</time></trkpt><trkpt lat="44.5120883" lon="8.878675"><ele>155.0</ele><time>2026-04-21T10:34:19.668Z</time></trkpt><trkpt lat="44.51199" lon="8.8787333"><ele>155.0</ele><time>2026-04-21T10:34:20.668Z</time></trkpt><trkpt lat="44.5118967" lon="8.8788133"><ele>155.0</ele><time>2026-04-21T10:34:21.668Z</time></trkpt><trkpt lat="44.5118133" lon="8.8789033"><ele>155.0</ele><time>2026-04-21T10:34:22.668Z</time></trkpt><trkpt lat="44.5117333" lon="8.8790017"><ele>155.0</ele><time>2026-04-21T10:34:23.668Z</time></trkpt><trkpt lat="44.5116567" lon="8.8791033"><ele>155.0</ele><time>2026-04-21T10:34:24.667Z</time></trkpt><trkpt lat="44.511585" lon="8.8791917"><ele>155.0</ele><time>2026-04-21T10:34:25.667Z</time></trkpt><trkpt lat="44.5115133" lon="8.8792833"><ele>155.0</ele><time>2026-04-21T10:34:26.667Z</time></trkpt><trkpt lat="44.5114467" lon="8.8793683"><ele>155.4</ele><time>2026-04-21T10:34:27.667Z</time></trkpt><trkpt lat="44.511385" lon="8.8794467"><ele>155.8</ele><time>2026-04-21T10:34:28.667Z</time></trkpt><trkpt lat="44.5113183" lon="8.8795317"><ele>156.2</ele><time>2026-04-21T10:34:29.668Z</time></trkpt><trkpt lat="44.5112533" lon="8.8796233"><ele>156.6</ele><time>2026-04-21T10:34:30.667Z</time></trkpt><trkpt lat="44.511195" lon="8.8797283"><ele>157.0</ele><time>2026-04-21T10:34:31.668Z</time></trkpt><trkpt lat="44.5111617" lon="8.87985"><ele>157.0</ele><time>2026-04-21T10:34:32.667Z</time></trkpt><trkpt lat="44.51115" lon="8.8799917"><ele>157.0</ele><time>2026-04-21T10:34:33.668Z</time></trkpt><trkpt lat="44.5111467" lon="8.8801233"><ele>157.0</ele><time>2026-04-21T10:34:34.667Z</time></trkpt><trkpt lat="44.511135" lon="8.8802667"><ele>157.0</ele><time>2026-04-21T10:34:35.667Z</time></trkpt><trkpt lat="44.51112" lon="8.88042"><ele>157.0</ele><time>2026-04-21T10:34:36.667Z</time></trkpt><trkpt lat="44.5111067" lon="8.8805817"><ele>155.5</ele><time>2026-04-21T10:34:37.667Z</time></trkpt><trkpt lat="44.51108" lon="8.8807383"><ele>154.0</ele><time>2026-04-21T10:34:38.668Z</time></trkpt><trkpt lat="44.5110517" lon="8.8809"><ele>152.5</ele><time>2026-04-21T10:34:39.667Z</time></trkpt><trkpt lat="44.511025" lon="8.8810617"><ele>151.0</ele><time>2026-04-21T10:34:40.668Z</time></trkpt><trkpt lat="44.5110067" lon="8.88122"><ele>149.2</ele><time>2026-04-21T10:34:41.667Z</time></trkpt><trkpt lat="44.5109967" lon="8.88137"><ele>147.39999999999998</ele><time>2026-04-21T10:34:42.667Z</time></trkpt><trkpt lat="44.510985" lon="8.8815183"><ele>145.6</ele><time>2026-04-21T10:34:43.667Z</time></trkpt><trkpt lat="44.5109633" lon="8.88168"><ele>143.79999999999998</ele><time>2026-04-21T10:34:44.668Z</time></trkpt><trkpt lat="44.5109383" lon="8.881835"><ele>142.0</ele><time>2026-04-21T10:34:45.667Z</time></trkpt><trkpt lat="44.510915" lon="8.8819833"><ele>140.79999999999998</ele><time>2026-04-21T10:34:46.667Z</time></trkpt><trkpt lat="44.5108817" lon="8.8821267"><ele>139.6</ele><time>2026-04-21T10:34:47.667Z</time></trkpt><trkpt lat="44.5108517" lon="8.88227"><ele>138.39999999999998</ele><time>2026-04-21T10:34:48.667Z</time></trkpt><trkpt lat="44.510815" lon="8.88241"><ele>137.2</ele><time>2026-04-21T10:34:49.668Z</time></trkpt><trkpt lat="44.5107783" lon="8.88254"><ele>136.0</ele><time>2026-04-21T10:34:50.667Z</time></trkpt><trkpt lat="44.5107417" lon="8.88266"><ele>135.0</ele><time>2026-04-21T10:34:51.668Z</time></trkpt><trkpt lat="44.5107067" lon="8.8827667"><ele>134.0</ele><time>2026-04-21T10:34:52.668Z</time></trkpt><trkpt lat="44.5106683" lon="8.8828683"><ele>133.0</ele><time>2026-04-21T10:34:53.667Z</time></trkpt><trkpt lat="44.5106217" lon="8.8829633"><ele>132.0</ele><time>2026-04-21T10:34:54.668Z</time></trkpt><trkpt lat="44.5105583" lon="8.8830333"><ele>131.0</ele><time>2026-04-21T10:34:55.667Z</time></trkpt><trkpt lat="44.5105067" lon="8.88309"><ele>130.0</ele><time>2026-04-21T10:34:56.668Z</time></trkpt><trkpt lat="44.510445" lon="8.8831383"><ele>130.0</ele><time>2026-04-21T10:34:57.668Z</time></trkpt><trkpt lat="44.51036" lon="8.8832283"><ele>130.0</ele><time>2026-04-21T10:34:59.667Z</time></trkpt><trkpt lat="44.5103417" lon="8.8833583"><ele>130.0</ele><time>2026-04-21T10:35:01.667Z</time></trkpt><trkpt lat="44.5103617" lon="8.883445"><ele>130.0</ele><time>2026-04-21T10:35:02.667Z</time></trkpt><trkpt lat="44.5103967" lon="8.8835617"><ele>130.0</ele><time>2026-04-21T10:35:03.668Z</time></trkpt><trkpt lat="44.510435" lon="8.883675"><ele>130.0</ele><time>2026-04-21T10:35:04.667Z</time></trkpt><trkpt lat="44.510465" lon="8.8837583"><ele>130.0</ele><time>2026-04-21T10:35:05.668Z</time></trkpt><trkpt lat="44.5104917" lon="8.883865"><ele>130.0</ele><time>2026-04-21T10:35:07.668Z</time></trkpt><trkpt lat="44.51048" lon="8.8840017"><ele>130.0</ele><time>2026-04-21T10:35:20.667Z</time></trkpt><trkpt lat="44.510375" lon="8.8840783"><ele>130.0</ele><time>2026-04-21T10:35:22.668Z</time></trkpt><trkpt lat="44.5102933" lon="8.884095"><ele>130.0</ele><time>2026-04-21T10:35:23.667Z</time></trkpt><trkpt lat="44.5102133" lon="8.8841333"><ele>130.0</ele><time>2026-04-21T10:35:24.668Z</time></trkpt><trkpt lat="44.5101283" lon="8.8841883"><ele>130.0</ele><time>2026-04-21T10:35:25.667Z</time></trkpt><trkpt lat="44.51005" lon="8.884245"><ele>130.0</ele><time>2026-04-21T10:35:26.667Z</time></trkpt><trkpt lat="44.5099817" lon="8.884295"><ele>130.0</ele><time>2026-04-21T10:35:27.667Z</time></trkpt><trkpt lat="44.50992" lon="8.8843383"><ele>130.0</ele><time>2026-04-21T10:35:28.667Z</time></trkpt><trkpt lat="44.5098567" lon="8.8843767"><ele>130.0</ele><time>2026-04-21T10:35:29.667Z</time></trkpt><trkpt lat="44.5098" lon="8.8844233"><ele>130.66666666666669</ele><time>2026-04-21T10:35:30.667Z</time></trkpt><trkpt lat="44.509735" lon="8.8844667"><ele>131.33333333333334</ele><time>2026-04-21T10:35:31.668Z</time></trkpt><trkpt lat="44.50966" lon="8.88451"><ele>132.0</ele><time>2026-04-21T10:35:32.668Z</time></trkpt><trkpt lat="44.5095867" lon="8.8845467"><ele>132.66666666666666</ele><time>2026-04-21T10:35:33.668Z</time></trkpt><trkpt lat="44.5095167" lon="8.884585"><ele>133.33333333333331</ele><time>2026-04-21T10:35:34.667Z</time></trkpt><trkpt lat="44.5094467" lon="8.8846267"><ele>134.0</ele><time>2026-04-21T10:35:35.667Z</time></trkpt><trkpt lat="44.5093717" lon="8.8846683"><ele>134.0</ele><time>2026-04-21T10:35:36.667Z</time></trkpt><trkpt lat="44.509295" lon="8.8847017"><ele>134.0</ele><time>2026-04-21T10:35:37.667Z</time></trkpt><trkpt lat="44.5092167" lon="8.8847383"><ele>134.0</ele><time>2026-04-21T10:35:38.668Z</time></trkpt><trkpt lat="44.5091433" lon="8.884765"><ele>134.0</ele><time>2026-04-21T10:35:39.668Z</time></trkpt><trkpt lat="44.5090633" lon="8.8848117"><ele>134.0</ele><time>2026-04-21T10:35:40.667Z</time></trkpt><trkpt lat="44.5089967" lon="8.884885"><ele>134.0</ele><time>2026-04-21T10:35:41.668Z</time></trkpt><trkpt lat="44.5089383" lon="8.88497"><ele>134.0</ele><time>2026-04-21T10:35:42.667Z</time></trkpt><trkpt lat="44.5088833" lon="8.8850817"><ele>134.0</ele><time>2026-04-21T10:35:43.668Z</time></trkpt><trkpt lat="44.5088383" lon="8.885215"><ele>134.0</ele><time>2026-04-21T10:35:44.667Z</time></trkpt><trkpt lat="44.5087883" lon="8.8853583"><ele>134.0</ele><time>2026-04-21T10:35:45.667Z</time></trkpt><trkpt lat="44.5087467" lon="8.8855017"><ele>134.0</ele><time>2026-04-21T10:35:46.667Z</time></trkpt><trkpt lat="44.50872" lon="8.8856383"><ele>133.33333333333331</ele><time>2026-04-21T10:35:47.668Z</time></trkpt><trkpt lat="44.5086817" lon="8.885755"><ele>132.66666666666666</ele><time>2026-04-21T10:35:48.667Z</time></trkpt><trkpt lat="44.5086483" lon="8.8858617"><ele>132.0</ele><time>2026-04-21T10:35:49.667Z</time></trkpt><trkpt lat="44.5086133" lon="8.8859633"><ele>131.33333333333334</ele><time>2026-04-21T10:35:50.667Z</time></trkpt><trkpt lat="44.5085867" lon="8.8860667"><ele>130.66666666666669</ele><time>2026-04-21T10:35:51.667Z</time></trkpt><trkpt lat="44.5085633" lon="8.8861733"><ele>130.0</ele><time>2026-04-21T10:35:52.668Z</time></trkpt><trkpt lat="44.508545" lon="8.8862733"><ele>130.0</ele><time>2026-04-21T10:35:53.668Z</time></trkpt><trkpt lat="44.5085183" lon="8.886365"><ele>130.0</ele><time>2026-04-21T10:35:54.667Z</time></trkpt><trkpt lat="44.5084917" lon="8.8864517"><ele>130.0</ele><time>2026-04-21T10:35:55.667Z</time></trkpt><trkpt lat="44.5084583" lon="8.8866117"><ele>130.0</ele><time>2026-04-21T10:35:57.667Z</time></trkpt><trkpt lat="44.5084183" lon="8.88675"><ele>130.0</ele><time>2026-04-21T10:35:59.668Z</time></trkpt><trkpt lat="44.5083733" lon="8.886905"><ele>130.66666666666669</ele><time>2026-04-21T10:36:01.668Z</time></trkpt><trkpt lat="44.5083533" lon="8.8869983"><ele>131.33333333333334</ele><time>2026-04-21T10:36:02.667Z</time></trkpt><trkpt lat="44.508325" lon="8.8870917"><ele>132.0</ele><time>2026-04-21T10:36:03.668Z</time></trkpt><trkpt lat="44.5082983" lon="8.8871883"><ele>132.66666666666666</ele><time>2026-04-21T10:36:04.668Z</time></trkpt><trkpt lat="44.5082667" lon="8.88729"><ele>133.33333333333331</ele><time>2026-04-21T10:36:05.667Z</time></trkpt><trkpt lat="44.5082333" lon="8.8873983"><ele>134.0</ele><time>2026-04-21T10:36:06.667Z</time></trkpt><trkpt lat="44.5082" lon="8.887495"><ele>134.0</ele><time>2026-04-21T10:36:07.668Z</time></trkpt><trkpt lat="44.5081517" lon="8.88759"><ele>134.0</ele><time>2026-04-21T10:36:08.668Z</time></trkpt><trkpt lat="44.5080867" lon="8.88769"><ele>134.0</ele><time>2026-04-21T10:36:09.667Z</time></trkpt><trkpt lat="44.5080083" lon="8.8877733"><ele>134.0</ele><time>2026-04-21T10:36:10.667Z</time></trkpt><trkpt lat="44.5079367" lon="8.887845"><ele>134.0</ele><time>2026-04-21T10:36:11.667Z</time></trkpt><trkpt lat="44.5078683" lon="8.8879167"><ele>133.0</ele><time>2026-04-21T10:36:12.667Z</time></trkpt><trkpt lat="44.5078067" lon="8.8879783"><ele>132.0</ele><time>2026-04-21T10:36:13.667Z</time></trkpt><trkpt lat="44.5077583" lon="8.8880367"><ele>131.0</ele><time>2026-04-21T10:36:14.667Z</time></trkpt><trkpt lat="44.5076633" lon="8.8881483"><ele>130.0</ele><time>2026-04-21T10:36:16.668Z</time></trkpt><trkpt lat="44.5076117" lon="8.8882067"><ele>129.0</ele><time>2026-04-21T10:36:17.667Z</time></trkpt><trkpt lat="44.5075683" lon="8.888275"><ele>128.0</ele><time>2026-04-21T10:36:18.667Z</time></trkpt><trkpt lat="44.5075167" lon="8.888335"><ele>128.0</ele><time>2026-04-21T10:36:19.668Z</time></trkpt><trkpt lat="44.507465" lon="8.888405"><ele>127.99999999999999</ele><time>2026-04-21T10:36:20.668Z</time></trkpt><trkpt lat="44.5074217" lon="8.8884733"><ele>128.0</ele><time>2026-04-21T10:36:21.668Z</time></trkpt><trkpt lat="44.50738" lon="8.8885483"><ele>128.0</ele><time>2026-04-21T10:36:22.667Z</time></trkpt><trkpt lat="44.5073383" lon="8.8886217"><ele>127.99999999999999</ele><time>2026-04-21T10:36:23.667Z</time></trkpt><trkpt lat="44.5072983" lon="8.8887017"><ele>128.0</ele><time>2026-04-21T10:36:24.668Z</time></trkpt><trkpt lat="44.5072617" lon="8.8887833"><ele>128.0</ele><time>2026-04-21T10:36:25.668Z</time></trkpt><trkpt lat="44.5072367" lon="8.8888717"><ele>128.66666666666666</ele><time>2026-04-21T10:36:26.668Z</time></trkpt><trkpt lat="44.5072" lon="8.8890383"><ele>129.33333333333331</ele><time>2026-04-21T10:36:28.668Z</time></trkpt><trkpt lat="44.507185" lon="8.889135"><ele>130.0</ele><time>2026-04-21T10:36:29.668Z</time></trkpt><trkpt lat="44.50717" lon="8.88923"><ele>130.66666666666666</ele><time>2026-04-21T10:36:30.668Z</time></trkpt><trkpt lat="44.5071683" lon="8.8894"><ele>131.33333333333334</ele><time>2026-04-21T10:36:32.668Z</time></trkpt><trkpt lat="44.5071717" lon="8.8894883"><ele>132.0</ele><time>2026-04-21T10:36:33.668Z</time></trkpt><trkpt lat="44.50719" lon="8.88966"><ele>132.42857142857142</ele><time>2026-04-21T10:36:35.667Z</time></trkpt><trkpt lat="44.5071983" lon="8.8897483"><ele>132.85714285714286</ele><time>2026-04-21T10:36:36.668Z</time></trkpt><trkpt lat="44.5072083" lon="8.8898383"><ele>133.28571428571428</ele><time>2026-04-21T10:36:37.667Z</time></trkpt><trkpt lat="44.5072083" lon="8.88993"><ele>133.71428571428572</ele><time>2026-04-21T10:36:38.668Z</time></trkpt><trkpt lat="44.5072033" lon="8.8900383"><ele>134.14285714285714</ele><time>2026-04-21T10:36:39.667Z</time></trkpt><trkpt lat="44.5071867" lon="8.8901367"><ele>134.57142857142856</ele><time>2026-04-21T10:36:40.667Z</time></trkpt><trkpt lat="44.50716" lon="8.8902267"><ele>135.0</ele><time>2026-04-21T10:36:41.668Z</time></trkpt><trkpt lat="44.5071067" lon="8.890365"><ele>133.6</ele><time>2026-04-21T10:36:43.667Z</time></trkpt><trkpt lat="44.5070467" lon="8.8904983"><ele>132.2</ele><time>2026-04-21T10:36:45.667Z</time></trkpt><trkpt lat="44.5070033" lon="8.8906533"><ele>130.8</ele><time>2026-04-21T10:36:47.668Z</time></trkpt><trkpt lat="44.5069833" lon="8.890745"><ele>129.4</ele><time>2026-04-21T10:36:48.667Z</time></trkpt><trkpt lat="44.506965" lon="8.8908433"><ele>128.0</ele><time>2026-04-21T10:36:49.667Z</time></trkpt><trkpt lat="44.5069483" lon="8.8910117"><ele>127.99999999999999</ele><time>2026-04-21T10:36:51.667Z</time></trkpt><trkpt lat="44.506925" lon="8.89117"><ele>128.0</ele><time>2026-04-21T10:36:53.667Z</time></trkpt><trkpt lat="44.5069117" lon="8.8912633"><ele>128.0</ele><time>2026-04-21T10:36:54.668Z</time></trkpt><trkpt lat="44.5069017" lon="8.8913533"><ele>128.0</ele><time>2026-04-21T10:36:55.668Z</time></trkpt><trkpt lat="44.5069067" lon="8.89145"><ele>127.99999999999999</ele><time>2026-04-21T10:36:56.667Z</time></trkpt><trkpt lat="44.5069033" lon="8.8915567"><ele>128.0</ele><time>2026-04-21T10:36:57.668Z</time></trkpt><trkpt lat="44.50689" lon="8.8916517"><ele>127.99999999999999</ele><time>2026-04-21T10:36:58.667Z</time></trkpt><trkpt lat="44.506875" lon="8.8917417"><ele>128.0</ele><time>2026-04-21T10:36:59.668Z</time></trkpt><trkpt lat="44.50686" lon="8.89183"><ele>128.0</ele><time>2026-04-21T10:37:00.668Z</time></trkpt><trkpt lat="44.5068183" lon="8.8919867"><ele>128.0</ele><time>2026-04-21T10:37:02.667Z</time></trkpt><trkpt lat="44.5067583" lon="8.8921017"><ele>127.99999999999999</ele><time>2026-04-21T10:37:04.668Z</time></trkpt><trkpt lat="44.5067067" lon="8.8921667"><ele>128.0</ele><time>2026-04-21T10:37:06.668Z</time></trkpt><trkpt lat="44.5066833" lon="8.8922767"><ele>127.60000000000001</ele><time>2026-04-21T10:37:13.668Z</time></trkpt><trkpt lat="44.5066367" lon="8.8924117"><ele>127.20000000000002</ele><time>2026-04-21T10:37:19.668Z</time></trkpt><trkpt lat="44.5066117" lon="8.89254"><ele>126.8</ele><time>2026-04-21T10:37:21.667Z</time></trkpt><trkpt lat="44.5065817" lon="8.8927"><ele>126.4</ele><time>2026-04-21T10:37:23.668Z</time></trkpt><trkpt lat="44.5065417" lon="8.89283"><ele>126.0</ele><time>2026-04-21T10:37:25.667Z</time></trkpt><trkpt lat="44.5065233" lon="8.89294"><ele>125.83333333333333</ele><time>2026-04-21T10:37:27.667Z</time></trkpt><trkpt lat="44.50651" lon="8.893085"><ele>125.66666666666666</ele><time>2026-04-21T10:37:29.667Z</time></trkpt><trkpt lat="44.5065033" lon="8.8931933"><ele>125.5</ele><time>2026-04-21T10:37:30.668Z</time></trkpt><trkpt lat="44.506505" lon="8.8933"><ele>125.33333333333333</ele><time>2026-04-21T10:37:31.668Z</time></trkpt><trkpt lat="44.506515" lon="8.8934383"><ele>125.16666666666666</ele><time>2026-04-21T10:37:33.667Z</time></trkpt><trkpt lat="44.50653" lon="8.8935283"><ele>125.0</ele><time>2026-04-21T10:37:35.668Z</time></trkpt><trkpt lat="44.5065417" lon="8.8936217"><ele>124.6</ele><time>2026-04-21T10:37:37.667Z</time></trkpt><trkpt lat="44.50657" lon="8.8937667"><ele>124.2</ele><time>2026-04-21T10:37:39.667Z</time></trkpt><trkpt lat="44.50658" lon="8.8938983"><ele>123.80000000000001</ele><time>2026-04-21T10:37:40.667Z</time></trkpt><trkpt lat="44.5065683" lon="8.89406"><ele>123.4</ele><time>2026-04-21T10:37:41.667Z</time></trkpt><trkpt lat="44.5065383" lon="8.8942317"><ele>123.0</ele><time>2026-04-21T10:37:42.667Z</time></trkpt><trkpt lat="44.506515" lon="8.89438"><ele>121.5</ele><time>2026-04-21T10:37:43.667Z</time></trkpt><trkpt lat="44.506495" lon="8.8945183"><ele>120.0</ele><time>2026-04-21T10:37:44.667Z</time></trkpt><trkpt lat="44.50647" lon="8.8946733"><ele>118.5</ele><time>2026-04-21T10:37:45.668Z</time></trkpt><trkpt lat="44.5064467" lon="8.8948467"><ele>117.0</ele><time>2026-04-21T10:37:46.667Z</time></trkpt><trkpt lat="44.5064217" lon="8.895025"><ele>117.0</ele><time>2026-04-21T10:37:47.667Z</time></trkpt><trkpt lat="44.5063917" lon="8.8951917"><ele>117.0</ele><time>2026-04-21T10:37:48.667Z</time></trkpt><trkpt lat="44.50637" lon="8.8953567"><ele>117.0</ele><time>2026-04-21T10:37:49.667Z</time></trkpt><trkpt lat="44.5063583" lon="8.89553"><ele>117.0</ele><time>2026-04-21T10:37:50.667Z</time></trkpt><trkpt lat="44.5063383" lon="8.8956983"><ele>117.0</ele><time>2026-04-21T10:37:51.667Z</time></trkpt><trkpt lat="44.5062967" lon="8.8958583"><ele>117.0</ele><time>2026-04-21T10:37:52.667Z</time></trkpt><trkpt lat="44.50623" lon="8.89602"><ele>117.0</ele><time>2026-04-21T10:37:53.667Z</time></trkpt><trkpt lat="44.5061383" lon="8.8961917"><ele>117.0</ele><time>2026-04-21T10:37:54.668Z</time></trkpt><trkpt lat="44.5060217" lon="8.8963383"><ele>117.0</ele><time>2026-04-21T10:37:55.668Z</time></trkpt><trkpt lat="44.50592" lon="8.8964767"><ele>117.0</ele><time>2026-04-21T10:37:56.667Z</time></trkpt><trkpt lat="44.5058133" lon="8.8965967"><ele>117.0</ele><time>2026-04-21T10:37:57.667Z</time></trkpt><trkpt lat="44.505715" lon="8.89672"><ele>117.0</ele><time>2026-04-21T10:37:58.667Z</time></trkpt><trkpt lat="44.5056267" lon="8.8968367"><ele>117.8</ele><time>2026-04-21T10:37:59.667Z</time></trkpt><trkpt lat="44.5055483" lon="8.8969367"><ele>118.6</ele><time>2026-04-21T10:38:00.667Z</time></trkpt><trkpt lat="44.5054817" lon="8.89702"><ele>119.39999999999999</ele><time>2026-04-21T10:38:01.667Z</time></trkpt><trkpt lat="44.5054117" lon="8.8971067"><ele>120.19999999999999</ele><time>2026-04-21T10:38:02.668Z</time></trkpt><trkpt lat="44.505335" lon="8.8971833"><ele>121.0</ele><time>2026-04-21T10:38:03.667Z</time></trkpt><trkpt lat="44.5052433" lon="8.89725"><ele>121.0</ele><time>2026-04-21T10:38:04.668Z</time></trkpt><trkpt lat="44.5051533" lon="8.8973117"><ele>121.0</ele><time>2026-04-21T10:38:05.667Z</time></trkpt><trkpt lat="44.5050717" lon="8.8973817"><ele>121.0</ele><time>2026-04-21T10:38:06.667Z</time></trkpt><trkpt lat="44.5049767" lon="8.8974517"><ele>121.0</ele><time>2026-04-21T10:38:07.667Z</time></trkpt><trkpt lat="44.5048717" lon="8.8975183"><ele>121.0</ele><time>2026-04-21T10:38:08.667Z</time></trkpt><trkpt lat="44.5047717" lon="8.8975833"><ele>121.25</ele><time>2026-04-21T10:38:09.667Z</time></trkpt><trkpt lat="44.5046717" lon="8.8976583"><ele>121.5</ele><time>2026-04-21T10:38:10.667Z</time></trkpt><trkpt lat="44.504555" lon="8.8977217"><ele>121.75</ele><time>2026-04-21T10:38:11.667Z</time></trkpt><trkpt lat="44.5044483" lon="8.897795"><ele>122.0</ele><time>2026-04-21T10:38:12.667Z</time></trkpt><trkpt lat="44.5043433" lon="8.89788"><ele>122.0</ele><time>2026-04-21T10:38:13.668Z</time></trkpt><trkpt lat="44.5042283" lon="8.8979567"><ele>122.0</ele><time>2026-04-21T10:38:14.667Z</time></trkpt><trkpt lat="44.504115" lon="8.8980367"><ele>122.0</ele><time>2026-04-21T10:38:15.667Z</time></trkpt><trkpt lat="44.5040117" lon="8.898125"><ele>122.0</ele><time>2026-04-21T10:38:16.668Z</time></trkpt><trkpt lat="44.5038967" lon="8.89817"><ele>122.0</ele><time>2026-04-21T10:38:17.667Z</time></trkpt><trkpt lat="44.5037917" lon="8.89823"><ele>121.99999999999999</ele><time>2026-04-21T10:38:18.667Z</time></trkpt><trkpt lat="44.503695" lon="8.898285"><ele>121.99999999999999</ele><time>2026-04-21T10:38:19.667Z</time></trkpt><trkpt lat="44.5036033" lon="8.89836"><ele>122.0</ele><time>2026-04-21T10:38:20.668Z</time></trkpt><trkpt lat="44.5035183" lon="8.8984367"><ele>122.0</ele><time>2026-04-21T10:38:21.668Z</time></trkpt><trkpt lat="44.50345" lon="8.8985217"><ele>121.19999999999999</ele><time>2026-04-21T10:38:22.668Z</time></trkpt><trkpt lat="44.5033783" lon="8.898605"><ele>120.39999999999999</ele><time>2026-04-21T10:38:23.667Z</time></trkpt><trkpt lat="44.5033283" lon="8.8987433"><ele>119.60000000000001</ele><time>2026-04-21T10:38:24.668Z</time></trkpt><trkpt lat="44.5032733" lon="8.8988733"><ele>118.80000000000001</ele><time>2026-04-21T10:38:25.668Z</time></trkpt><trkpt lat="44.50321" lon="8.898985"><ele>118.0</ele><time>2026-04-21T10:38:26.667Z</time></trkpt><trkpt lat="44.5031417" lon="8.8991067"><ele>118.0</ele><time>2026-04-21T10:38:27.667Z</time></trkpt><trkpt lat="44.503055" lon="8.8992367"><ele>118.0</ele><time>2026-04-21T10:38:28.668Z</time></trkpt><trkpt lat="44.5029817" lon="8.8993633"><ele>118.0</ele><time>2026-04-21T10:38:29.668Z</time></trkpt><trkpt lat="44.5028983" lon="8.8994733"><ele>118.0</ele><time>2026-04-21T10:38:30.668Z</time></trkpt><trkpt lat="44.5028117" lon="8.899565"><ele>116.75</ele><time>2026-04-21T10:38:31.668Z</time></trkpt><trkpt lat="44.50272" lon="8.899645"><ele>115.5</ele><time>2026-04-21T10:38:32.668Z</time></trkpt><trkpt lat="44.5026233" lon="8.8997233"><ele>114.25</ele><time>2026-04-21T10:38:33.667Z</time></trkpt><trkpt lat="44.502525" lon="8.8997967"><ele>113.0</ele><time>2026-04-21T10:38:34.668Z</time></trkpt><trkpt lat="44.5024167" lon="8.8998717"><ele>113.0</ele><time>2026-04-21T10:38:35.668Z</time></trkpt><trkpt lat="44.5023133" lon="8.899955"><ele>113.0</ele><time>2026-04-21T10:38:36.667Z</time></trkpt><trkpt lat="44.5022133" lon="8.900045"><ele>113.0</ele><time>2026-04-21T10:38:37.668Z</time></trkpt><trkpt lat="44.5021117" lon="8.9001533"><ele>113.0</ele><time>2026-04-21T10:38:38.667Z</time></trkpt><trkpt lat="44.5020283" lon="8.900255"><ele>114.4</ele><time>2026-04-21T10:38:39.667Z</time></trkpt><trkpt lat="44.5019367" lon="8.900345"><ele>115.80000000000001</ele><time>2026-04-21T10:38:40.667Z</time></trkpt><trkpt lat="44.50185" lon="8.900435"><ele>117.2</ele><time>2026-04-21T10:38:41.668Z</time></trkpt><trkpt lat="44.5017667" lon="8.90052"><ele>118.6</ele><time>2026-04-21T10:38:42.667Z</time></trkpt><trkpt lat="44.5016817" lon="8.9006033"><ele>120.0</ele><time>2026-04-21T10:38:43.668Z</time></trkpt><trkpt lat="44.5016083" lon="8.9006867"><ele>120.0</ele><time>2026-04-21T10:38:44.667Z</time></trkpt><trkpt lat="44.5015333" lon="8.9007667"><ele>120.0</ele><time>2026-04-21T10:38:45.667Z</time></trkpt><trkpt lat="44.501445" lon="8.9008517"><ele>120.0</ele><time>2026-04-21T10:38:46.667Z</time></trkpt><trkpt lat="44.5013483" lon="8.9009267"><ele>120.0</ele><time>2026-04-21T10:38:47.668Z</time></trkpt><trkpt lat="44.501245" lon="8.9009983"><ele>120.0</ele><time>2026-04-21T10:38:48.668Z</time></trkpt><trkpt lat="44.5011467" lon="8.9010617"><ele>120.0</ele><time>2026-04-21T10:38:49.667Z</time></trkpt><trkpt lat="44.50104" lon="8.901125"><ele>120.0</ele><time>2026-04-21T10:38:50.667Z</time></trkpt><trkpt lat="44.5009283" lon="8.9011667"><ele>120.0</ele><time>2026-04-21T10:38:51.667Z</time></trkpt><trkpt lat="44.5008183" lon="8.9012233"><ele>120.0</ele><time>2026-04-21T10:38:52.668Z</time></trkpt><trkpt lat="44.50072" lon="8.901285"><ele>120.0</ele><time>2026-04-21T10:38:53.667Z</time></trkpt><trkpt lat="44.5006117" lon="8.9013467"><ele>120.0</ele><time>2026-04-21T10:38:54.668Z</time></trkpt><trkpt lat="44.5005133" lon="8.90142"><ele>120.0</ele><time>2026-04-21T10:38:55.668Z</time></trkpt><trkpt lat="44.500415" lon="8.9015067"><ele>120.0</ele><time>2026-04-21T10:38:56.668Z</time></trkpt><trkpt lat="44.5003333" lon="8.9016067"><ele>117.2</ele><time>2026-04-21T10:38:57.667Z</time></trkpt><trkpt lat="44.5002667" lon="8.9017417"><ele>114.4</ele><time>2026-04-21T10:38:58.668Z</time></trkpt><trkpt lat="44.5002217" lon="8.90187"><ele>111.6</ele><time>2026-04-21T10:38:59.667Z</time></trkpt><trkpt lat="44.500195" lon="8.9019967"><ele>108.8</ele><time>2026-04-21T10:39:00.667Z</time></trkpt><trkpt lat="44.5001967" lon="8.90213"><ele>106.0</ele><time>2026-04-21T10:39:01.667Z</time></trkpt><trkpt lat="44.5002233" lon="8.902255"><ele>106.0</ele><time>2026-04-21T10:39:02.667Z</time></trkpt><trkpt lat="44.500275" lon="8.9023667"><ele>106.0</ele><time>2026-04-21T10:39:03.668Z</time></trkpt><trkpt lat="44.5003483" lon="8.9024533"><ele>106.0</ele><time>2026-04-21T10:39:04.667Z</time></trkpt><trkpt lat="44.500435" lon="8.9025383"><ele>106.0</ele><time>2026-04-21T10:39:05.668Z</time></trkpt><trkpt lat="44.5005133" lon="8.9026233"><ele>106.0</ele><time>2026-04-21T10:39:06.668Z</time></trkpt><trkpt lat="44.5005867" lon="8.90272"><ele>106.8</ele><time>2026-04-21T10:39:07.668Z</time></trkpt><trkpt lat="44.5006683" lon="8.9028083"><ele>107.6</ele><time>2026-04-21T10:39:08.668Z</time></trkpt><trkpt lat="44.50074" lon="8.9028817"><ele>108.4</ele><time>2026-04-21T10:39:09.667Z</time></trkpt><trkpt lat="44.50081" lon="8.9029833"><ele>109.2</ele><time>2026-04-21T10:39:10.667Z</time></trkpt><trkpt lat="44.5008617" lon="8.9031133"><ele>110.0</ele><time>2026-04-21T10:39:11.668Z</time></trkpt><trkpt lat="44.50091" lon="8.9032583"><ele>108.4</ele><time>2026-04-21T10:39:12.667Z</time></trkpt><trkpt lat="44.500945" lon="8.9034167"><ele>106.8</ele><time>2026-04-21T10:39:13.667Z</time></trkpt><trkpt lat="44.5009783" lon="8.9035683"><ele>105.19999999999999</ele><time>2026-04-21T10:39:14.668Z</time></trkpt><trkpt lat="44.501015" lon="8.9037017"><ele>103.6</ele><time>2026-04-21T10:39:15.668Z</time></trkpt><trkpt lat="44.501045" lon="8.9038367"><ele>102.0</ele><time>2026-04-21T10:39:16.667Z</time></trkpt><trkpt lat="44.5010817" lon="8.903955"><ele>102.0</ele><time>2026-04-21T10:39:17.667Z</time></trkpt><trkpt lat="44.5011217" lon="8.904065"><ele>102.0</ele><time>2026-04-21T10:39:18.667Z</time></trkpt><trkpt lat="44.501165" lon="8.90414"><ele>102.0</ele><time>2026-04-21T10:39:19.667Z</time></trkpt><trkpt lat="44.5012133" lon="8.90423"><ele>102.0</ele><time>2026-04-21T10:39:21.668Z</time></trkpt><trkpt lat="44.501255" lon="8.9043367"><ele>102.0</ele><time>2026-04-21T10:40:07.668Z</time></trkpt><trkpt lat="44.5013017" lon="8.9044317"><ele>102.0</ele><time>2026-04-21T10:40:09.668Z</time></trkpt><trkpt lat="44.50133" lon="8.9045333"><ele>101.6</ele><time>2026-04-21T10:40:11.668Z</time></trkpt><trkpt lat="44.50132" lon="8.9046317"><ele>101.19999999999999</ele><time>2026-04-21T10:40:13.667Z</time></trkpt><trkpt lat="44.5012483" lon="8.9046917"><ele>100.8</ele><time>2026-04-21T10:40:15.668Z</time></trkpt><trkpt lat="44.5011733" lon="8.9046417"><ele>100.4</ele><time>2026-04-21T10:40:17.667Z</time></trkpt><trkpt lat="44.501105" lon="8.90451"><ele>100.0</ele><time>2026-04-21T10:40:19.667Z</time></trkpt><trkpt lat="44.5010483" lon="8.9043783"><ele>100.0</ele><time>2026-04-21T10:40:21.667Z</time></trkpt><trkpt lat="44.5010017" lon="8.904255"><ele>100.0</ele><time>2026-04-21T10:40:23.668Z</time></trkpt><trkpt lat="44.5008733" lon="8.90426"><ele>100.0</ele><time>2026-04-21T10:40:25.667Z</time></trkpt><trkpt lat="44.5008117" lon="8.904295"><ele>100.0</ele><time>2026-04-21T10:40:27.667Z</time></trkpt><trkpt lat="44.50074" lon="8.9043667"><ele>100.0</ele><time>2026-04-21T10:40:30.668Z</time></trkpt><trkpt lat="44.5007517" lon="8.90447"><ele>100.0</ele><time>2026-04-21T10:40:34.668Z</time></trkpt><trkpt lat="44.5008317" lon="8.9045133"><ele>100.0</ele><time>2026-04-21T10:40:36.668Z</time></trkpt><trkpt lat="44.5009283" lon="8.9045983"><ele>100.0</ele><time>2026-04-21T10:40:38.668Z</time></trkpt><trkpt lat="44.5010217" lon="8.9047133"><ele>100.0</ele><time>2026-04-21T10:40:40.667Z</time></trkpt><trkpt lat="44.50107" lon="8.9047733"><ele>100.0</ele><time>2026-04-21T10:40:41.667Z</time></trkpt><trkpt lat="44.5011183" lon="8.904835"><ele>100.00000000000001</ele><time>2026-04-21T10:40:42.667Z</time></trkpt><trkpt lat="44.50117" lon="8.9049017"><ele>100.0</ele><time>2026-04-21T10:40:43.667Z</time></trkpt><trkpt lat="44.50123" lon="8.9049667"><ele>100.0</ele><time>2026-04-21T10:40:44.668Z</time></trkpt><trkpt lat="44.50129" lon="8.905045"><ele>100.0</ele><time>2026-04-21T10:40:45.668Z</time></trkpt><trkpt lat="44.5013483" lon="8.9051167"><ele>100.00000000000001</ele><time>2026-04-21T10:40:46.667Z</time></trkpt><trkpt lat="44.5014117" lon="8.9051967"><ele>100.0</ele><time>2026-04-21T10:40:47.668Z</time></trkpt><trkpt lat="44.5014433" lon="8.9052967"><ele>99.8</ele><time>2026-04-21T10:40:48.668Z</time></trkpt><trkpt lat="44.5015" lon="8.9054033"><ele>99.6</ele><time>2026-04-21T10:40:49.668Z</time></trkpt><trkpt lat="44.50158" lon="8.905505"><ele>99.4</ele><time>2026-04-21T10:40:50.668Z</time></trkpt><trkpt lat="44.501675" lon="8.9055883"><ele>99.2</ele><time>2026-04-21T10:40:51.668Z</time></trkpt><trkpt lat="44.5017783" lon="8.905665"><ele>99.0</ele><time>2026-04-21T10:40:52.667Z</time></trkpt><trkpt lat="44.5018783" lon="8.9057483"><ele>99.0</ele><time>2026-04-21T10:40:53.667Z</time></trkpt><trkpt lat="44.50197" lon="8.9058183"><ele>99.0</ele><time>2026-04-21T10:40:54.668Z</time></trkpt><trkpt lat="44.5020567" lon="8.9058883"><ele>99.0</ele><time>2026-04-21T10:40:55.667Z</time></trkpt><trkpt lat="44.5021417" lon="8.9059533"><ele>99.0</ele><time>2026-04-21T10:40:56.668Z</time></trkpt><trkpt lat="44.5022333" lon="8.9060117"><ele>99.0</ele><time>2026-04-21T10:40:57.668Z</time></trkpt><trkpt lat="44.502325" lon="8.9060683"><ele>99.33333333333333</ele><time>2026-04-21T10:40:58.668Z</time></trkpt><trkpt lat="44.5024083" lon="8.9061167"><ele>99.66666666666666</ele><time>2026-04-21T10:40:59.667Z</time></trkpt><trkpt lat="44.5024833" lon="8.9061467"><ele>100.0</ele><time>2026-04-21T10:41:00.667Z</time></trkpt><trkpt lat="44.5025633" lon="8.9061517"><ele>100.33333333333333</ele><time>2026-04-21T10:41:01.668Z</time></trkpt><trkpt lat="44.5026367" lon="8.9061183"><ele>100.66666666666666</ele><time>2026-04-21T10:41:02.667Z</time></trkpt><trkpt lat="44.5027233" lon="8.9060683"><ele>101.0</ele><time>2026-04-21T10:41:03.668Z</time></trkpt><trkpt lat="44.5028267" lon="8.9060133"><ele>101.25</ele><time>2026-04-21T10:41:04.667Z</time></trkpt><trkpt lat="44.50296" lon="8.9060033"><ele>101.5</ele><time>2026-04-21T10:41:05.668Z</time></trkpt><trkpt lat="44.5030933" lon="8.9060017"><ele>101.75</ele><time>2026-04-21T10:41:06.667Z</time></trkpt><trkpt lat="44.5032217" lon="8.9060283"><ele>102.0</ele><time>2026-04-21T10:41:07.668Z</time></trkpt><trkpt lat="44.5033367" lon="8.90608"><ele>102.0</ele><time>2026-04-21T10:41:08.668Z</time></trkpt><trkpt lat="44.5034417" lon="8.9061567"><ele>102.0</ele><time>2026-04-21T10:41:09.668Z</time></trkpt><trkpt lat="44.5035483" lon="8.9062517"><ele>102.0</ele><time>2026-04-21T10:41:10.667Z</time></trkpt><trkpt lat="44.50365" lon="8.90635"><ele>102.0</ele><time>2026-04-21T10:41:11.667Z</time></trkpt><trkpt lat="44.503745" lon="8.9064733"><ele>102.25</ele><time>2026-04-21T10:41:12.668Z</time></trkpt><trkpt lat="44.5038317" lon="8.9066117"><ele>102.5</ele><time>2026-04-21T10:41:13.668Z</time></trkpt><trkpt lat="44.5039183" lon="8.906735"><ele>102.75</ele><time>2026-04-21T10:41:14.668Z</time></trkpt><trkpt lat="44.5040133" lon="8.906855"><ele>103.0</ele><time>2026-04-21T10:41:15.667Z</time></trkpt><trkpt lat="44.504085" lon="8.9069717"><ele>103.0</ele><time>2026-04-21T10:41:16.667Z</time></trkpt><trkpt lat="44.50416" lon="8.90708"><ele>103.0</ele><time>2026-04-21T10:41:17.667Z</time></trkpt><trkpt lat="44.5042333" lon="8.9071783"><ele>103.0</ele><time>2026-04-21T10:41:18.668Z</time></trkpt><trkpt lat="44.50431" lon="8.907265"><ele>103.0</ele><time>2026-04-21T10:41:19.667Z</time></trkpt><trkpt lat="44.5043767" lon="8.9073217"><ele>103.0</ele><time>2026-04-21T10:41:20.667Z</time></trkpt><trkpt lat="44.5044417" lon="8.9073683"><ele>103.00000000000001</ele><time>2026-04-21T10:41:21.668Z</time></trkpt><trkpt lat="44.5045033" lon="8.9074133"><ele>103.0</ele><time>2026-04-21T10:41:22.667Z</time></trkpt><trkpt lat="44.5045883" lon="8.907465"><ele>103.0</ele><time>2026-04-21T10:41:24.667Z</time></trkpt><trkpt lat="44.504675" lon="8.9075183"><ele>103.0</ele><time>2026-04-21T10:41:26.668Z</time></trkpt><trkpt lat="44.50478" lon="8.907595"><ele>103.00000000000001</ele><time>2026-04-21T10:41:28.667Z</time></trkpt><trkpt lat="44.5048383" lon="8.9076417"><ele>103.0</ele><time>2026-04-21T10:41:29.667Z</time></trkpt><trkpt lat="44.5049017" lon="8.9077033"><ele>104.0</ele><time>2026-04-21T10:41:30.668Z</time></trkpt><trkpt lat="44.5049867" lon="8.9077933"><ele>105.0</ele><time>2026-04-21T10:41:31.667Z</time></trkpt><trkpt lat="44.5050967" lon="8.9079033"><ele>106.0</ele><time>2026-04-21T10:41:32.667Z</time></trkpt><trkpt lat="44.5052167" lon="8.90802"><ele>107.0</ele><time>2026-04-21T10:41:33.667Z</time></trkpt><trkpt lat="44.50532" lon="8.908135"><ele>107.19999999999999</ele><time>2026-04-21T10:41:34.668Z</time></trkpt><trkpt lat="44.505415" lon="8.908235"><ele>107.39999999999999</ele><time>2026-04-21T10:41:35.667Z</time></trkpt><trkpt lat="44.5055" lon="8.9083183"><ele>107.60000000000001</ele><time>2026-04-21T10:41:36.667Z</time></trkpt><trkpt lat="44.5055867" lon="8.9084"><ele>107.80000000000001</ele><time>2026-04-21T10:41:37.667Z</time></trkpt><trkpt lat="44.5056817" lon="8.9084833"><ele>108.0</ele><time>2026-04-21T10:41:38.667Z</time></trkpt><trkpt lat="44.505785" lon="8.9085583"><ele>108.0</ele><time>2026-04-21T10:41:39.668Z</time></trkpt><trkpt lat="44.505885" lon="8.9086417"><ele>108.0</ele><time>2026-04-21T10:41:40.668Z</time></trkpt><trkpt lat="44.50599" lon="8.90873"><ele>108.0</ele><time>2026-04-21T10:41:41.668Z</time></trkpt><trkpt lat="44.5060833" lon="8.9088183"><ele>108.0</ele><time>2026-04-21T10:41:42.668Z</time></trkpt><trkpt lat="44.5061783" lon="8.9088867"><ele>109.25</ele><time>2026-04-21T10:41:43.668Z</time></trkpt><trkpt lat="44.50628" lon="8.9089267"><ele>110.5</ele><time>2026-04-21T10:41:44.668Z</time></trkpt><trkpt lat="44.5064" lon="8.908965"><ele>111.75</ele><time>2026-04-21T10:41:45.667Z</time></trkpt><trkpt lat="44.50653" lon="8.9090033"><ele>113.0</ele><time>2026-04-21T10:41:46.667Z</time></trkpt><trkpt lat="44.50667" lon="8.9090533"><ele>113.0</ele><time>2026-04-21T10:41:47.668Z</time></trkpt><trkpt lat="44.5068117" lon="8.9091233"><ele>113.0</ele><time>2026-04-21T10:41:48.667Z</time></trkpt><trkpt lat="44.506945" lon="8.9092067"><ele>113.0</ele><time>2026-04-21T10:41:49.668Z</time></trkpt><trkpt lat="44.50707" lon="8.909295"><ele>113.0</ele><time>2026-04-21T10:41:50.668Z</time></trkpt><trkpt lat="44.5071833" lon="8.9093783"><ele>112.5</ele><time>2026-04-21T10:41:51.668Z</time></trkpt><trkpt lat="44.5072983" lon="8.909475"><ele>112.0</ele><time>2026-04-21T10:41:52.667Z</time></trkpt><trkpt lat="44.507405" lon="8.9095833"><ele>111.5</ele><time>2026-04-21T10:41:53.667Z</time></trkpt><trkpt lat="44.5075117" lon="8.9097067"><ele>111.0</ele><time>2026-04-21T10:41:54.668Z</time></trkpt><trkpt lat="44.5076217" lon="8.9098117"><ele>111.0</ele><time>2026-04-21T10:41:55.667Z</time></trkpt><trkpt lat="44.5077017" lon="8.90995"><ele>111.0</ele><time>2026-04-21T10:41:56.667Z</time></trkpt><trkpt lat="44.5077533" lon="8.9101167"><ele>111.0</ele><time>2026-04-21T10:41:57.667Z</time></trkpt><trkpt lat="44.5077883" lon="8.9102933"><ele>111.0</ele><time>2026-04-21T10:41:58.668Z</time></trkpt><trkpt lat="44.5078333" lon="8.9104717"><ele>111.0</ele><time>2026-04-21T10:41:59.667Z</time></trkpt><trkpt lat="44.507875" lon="8.9106633"><ele>111.0</ele><time>2026-04-21T10:42:00.667Z</time></trkpt><trkpt lat="44.5079217" lon="8.910855"><ele>111.0</ele><time>2026-04-21T10:42:01.667Z</time></trkpt><trkpt lat="44.5079667" lon="8.9110467"><ele>111.0</ele><time>2026-04-21T10:42:02.667Z</time></trkpt><trkpt lat="44.508025" lon="8.9112517"><ele>112.5</ele><time>2026-04-21T10:42:03.668Z</time></trkpt><trkpt lat="44.5080733" lon="8.9114533"><ele>114.0</ele><time>2026-04-21T10:42:04.668Z</time></trkpt><trkpt lat="44.5081417" lon="8.9116367"><ele>115.5</ele><time>2026-04-21T10:42:05.667Z</time></trkpt><trkpt lat="44.50819" lon="8.9118083"><ele>117.0</ele><time>2026-04-21T10:42:06.668Z</time></trkpt><trkpt lat="44.50824" lon="8.9119717"><ele>117.0</ele><time>2026-04-21T10:42:07.668Z</time></trkpt><trkpt lat="44.5082817" lon="8.9121483"><ele>117.0</ele><time>2026-04-21T10:42:08.667Z</time></trkpt><trkpt lat="44.5083317" lon="8.9123133"><ele>117.0</ele><time>2026-04-21T10:42:09.667Z</time></trkpt><trkpt lat="44.5083717" lon="8.9124633"><ele>117.0</ele><time>2026-04-21T10:42:10.667Z</time></trkpt><trkpt lat="44.5084133" lon="8.9126017"><ele>117.19999999999999</ele><time>2026-04-21T10:42:11.667Z</time></trkpt><trkpt lat="44.5084883" lon="8.912715"><ele>117.39999999999999</ele><time>2026-04-21T10:42:12.667Z</time></trkpt><trkpt lat="44.508585" lon="8.9128017"><ele>117.60000000000001</ele><time>2026-04-21T10:42:13.668Z</time></trkpt><trkpt lat="44.5086917" lon="8.9128567"><ele>117.80000000000001</ele><time>2026-04-21T10:42:14.667Z</time></trkpt><trkpt lat="44.5087917" lon="8.9128817"><ele>118.0</ele><time>2026-04-21T10:42:15.667Z</time></trkpt><trkpt lat="44.5089017" lon="8.9128617"><ele>118.0</ele><time>2026-04-21T10:42:16.667Z</time></trkpt><trkpt lat="44.509025" lon="8.9128033"><ele>118.0</ele><time>2026-04-21T10:42:17.667Z</time></trkpt><trkpt lat="44.5091683" lon="8.912725"><ele>118.0</ele><time>2026-04-21T10:42:18.668Z</time></trkpt><trkpt lat="44.5093017" lon="8.9126583"><ele>118.0</ele><time>2026-04-21T10:42:19.668Z</time></trkpt><trkpt lat="44.5094233" lon="8.9125967"><ele>118.75</ele><time>2026-04-21T10:42:20.667Z</time></trkpt><trkpt lat="44.509535" lon="8.912545"><ele>119.5</ele><time>2026-04-21T10:42:21.667Z</time></trkpt><trkpt lat="44.5097333" lon="8.9124467"><ele>120.25</ele><time>2026-04-21T10:42:23.668Z</time></trkpt><trkpt lat="44.5098267" lon="8.91241"><ele>121.0</ele><time>2026-04-21T10:42:24.668Z</time></trkpt><trkpt lat="44.5099333" lon="8.9123783"><ele>121.4</ele><time>2026-04-21T10:42:25.667Z</time></trkpt><trkpt lat="44.5100367" lon="8.9122917"><ele>121.8</ele><time>2026-04-21T10:42:26.668Z</time></trkpt><trkpt lat="44.5101083" lon="8.9122617"><ele>122.20000000000002</ele><time>2026-04-21T10:42:27.667Z</time></trkpt><trkpt lat="44.5102167" lon="8.9123217"><ele>122.60000000000001</ele><time>2026-04-21T10:42:29.667Z</time></trkpt><trkpt lat="44.510295" lon="8.9124183"><ele>123.0</ele><time>2026-04-21T10:42:31.667Z</time></trkpt><trkpt lat="44.5102983" lon="8.912325"><ele>123.0</ele><time>2026-04-21T10:42:35.667Z</time></trkpt><trkpt lat="44.5101833" lon="8.9123283"><ele>123.00000000000001</ele><time>2026-04-21T10:42:37.667Z</time></trkpt><trkpt lat="44.5100983" lon="8.91233"><ele>123.00000000000001</ele><time>2026-04-21T10:42:39.667Z</time></trkpt><trkpt lat="44.5100167" lon="8.9123217"><ele>123.0</ele><time>2026-04-21T10:42:42.667Z</time></trkpt><trkpt lat="44.5098983" lon="8.91233"><ele>123.0</ele><time>2026-04-21T10:42:44.668Z</time></trkpt><trkpt lat="44.509835" lon="8.9123433"><ele>123.0</ele><time>2026-04-21T10:42:45.667Z</time></trkpt><trkpt lat="44.5097033" lon="8.912385"><ele>123.0</ele><time>2026-04-21T10:42:46.668Z</time></trkpt><trkpt lat="44.5096017" lon="8.9124233"><ele>123.0</ele><time>2026-04-21T10:42:47.667Z</time></trkpt><trkpt lat="44.5094867" lon="8.912475"><ele>123.0</ele><time>2026-04-21T10:42:48.668Z</time></trkpt><trkpt lat="44.5093883" lon="8.9125383"><ele>122.0</ele><time>2026-04-21T10:42:49.667Z</time></trkpt><trkpt lat="44.5092383" lon="8.9126383"><ele>121.00000000000001</ele><time>2026-04-21T10:42:51.668Z</time></trkpt><trkpt lat="44.5091767" lon="8.9126717"><ele>120.00000000000001</ele><time>2026-04-21T10:42:52.667Z</time></trkpt><trkpt lat="44.5090767" lon="8.91272"><ele>119.0</ele><time>2026-04-21T10:42:54.668Z</time></trkpt><trkpt lat="44.509065" lon="8.912845"><ele>118.0</ele><time>2026-04-21T10:43:01.668Z</time></trkpt><trkpt lat="44.5090983" lon="8.91292"><ele>118.00000000000001</ele><time>2026-04-21T10:43:02.668Z</time></trkpt><trkpt lat="44.5091367" lon="8.9129967"><ele>118.0</ele><time>2026-04-21T10:43:03.667Z</time></trkpt><trkpt lat="44.5091767" lon="8.91307"><ele>118.0</ele><time>2026-04-21T10:43:04.667Z</time></trkpt><trkpt lat="44.5092283" lon="8.9131883"><ele>118.0</ele><time>2026-04-21T10:43:06.667Z</time></trkpt><trkpt lat="44.5092017" lon="8.9132983"><ele>118.00000000000001</ele><time>2026-04-21T10:43:09.668Z</time></trkpt><trkpt lat="44.509085" lon="8.9133817"><ele>118.0</ele><time>2026-04-21T10:43:11.667Z</time></trkpt><trkpt lat="44.509015" lon="8.913425"><ele>120.16666666666667</ele><time>2026-04-21T10:43:12.667Z</time></trkpt><trkpt lat="44.5089383" lon="8.9134633"><ele>122.33333333333334</ele><time>2026-04-21T10:43:13.667Z</time></trkpt><trkpt lat="44.5088667" lon="8.9135"><ele>124.5</ele><time>2026-04-21T10:43:14.667Z</time></trkpt><trkpt lat="44.5088067" lon="8.9135367"><ele>126.66666666666666</ele><time>2026-04-21T10:43:15.667Z</time></trkpt><trkpt lat="44.508755" lon="8.9135933"><ele>128.83333333333331</ele><time>2026-04-21T10:43:16.668Z</time></trkpt><trkpt lat="44.508715" lon="8.9136883"><ele>131.0</ele><time>2026-04-21T10:43:17.668Z</time></trkpt><trkpt lat="44.5086833" lon="8.913815"><ele>131.2</ele><time>2026-04-21T10:43:18.667Z</time></trkpt><trkpt lat="44.5086617" lon="8.913975"><ele>131.39999999999998</ele><time>2026-04-21T10:43:19.668Z</time></trkpt><trkpt lat="44.5086317" lon="8.9141317"><ele>131.6</ele><time>2026-04-21T10:43:20.667Z</time></trkpt><trkpt lat="44.5086017" lon="8.9142817"><ele>131.79999999999998</ele><time>2026-04-21T10:43:21.667Z</time></trkpt><trkpt lat="44.5085567" lon="8.914405"><ele>132.0</ele><time>2026-04-21T10:43:22.667Z</time></trkpt><trkpt lat="44.50852" lon="8.9145"><ele>132.0</ele><time>2026-04-21T10:43:23.667Z</time></trkpt><trkpt lat="44.5084283" lon="8.914565"><ele>132.0</ele><time>2026-04-21T10:43:25.667Z</time></trkpt><trkpt lat="44.508325" lon="8.9144767"><ele>132.0</ele><time>2026-04-21T10:43:27.667Z</time></trkpt><trkpt lat="44.5082683" lon="8.9143783"><ele>132.0</ele><time>2026-04-21T10:43:28.667Z</time></trkpt><trkpt lat="44.5081983" lon="8.914275"><ele>132.0</ele><time>2026-04-21T10:43:29.667Z</time></trkpt><trkpt lat="44.508125" lon="8.9141683"><ele>132.0</ele><time>2026-04-21T10:43:30.667Z</time></trkpt><trkpt lat="44.5080533" lon="8.9140767"><ele>132.0</ele><time>2026-04-21T10:43:31.668Z</time></trkpt><trkpt lat="44.5079567" lon="8.9140383"><ele>132.0</ele><time>2026-04-21T10:43:32.667Z</time></trkpt><trkpt lat="44.507845" lon="8.9140183"><ele>132.0</ele><time>2026-04-21T10:43:33.667Z</time></trkpt><trkpt lat="44.50773" lon="8.9140033"><ele>132.0</ele><time>2026-04-21T10:43:34.668Z</time></trkpt><trkpt lat="44.5076017" lon="8.9140083"><ele>134.5</ele><time>2026-04-21T10:43:35.667Z</time></trkpt><trkpt lat="44.507475" lon="8.9140133"><ele>137.0</ele><time>2026-04-21T10:43:36.668Z</time></trkpt><trkpt lat="44.5073467" lon="8.91403"><ele>139.5</ele><time>2026-04-21T10:43:37.667Z</time></trkpt><trkpt lat="44.5072317" lon="8.9140383"><ele>142.0</ele><time>2026-04-21T10:43:38.668Z</time></trkpt><trkpt lat="44.50713" lon="8.9140217"><ele>146.6</ele><time>2026-04-21T10:43:39.667Z</time></trkpt><trkpt lat="44.5070433" lon="8.913965"><ele>151.2</ele><time>2026-04-21T10:43:40.668Z</time></trkpt><trkpt lat="44.5069717" lon="8.91387"><ele>155.8</ele><time>2026-04-21T10:43:41.668Z</time></trkpt><trkpt lat="44.5069033" lon="8.91378"><ele>160.4</ele><time>2026-04-21T10:43:42.668Z</time></trkpt><trkpt lat="44.5068133" lon="8.9137133"><ele>165.0</ele><time>2026-04-21T10:43:43.667Z</time></trkpt><trkpt lat="44.506715" lon="8.9136567"><ele>165.0</ele><time>2026-04-21T10:43:44.667Z</time></trkpt><trkpt lat="44.50663" lon="8.9135983"><ele>165.0</ele><time>2026-04-21T10:43:45.668Z</time></trkpt><trkpt lat="44.5065667" lon="8.9135483"><ele>165.0</ele><time>2026-04-21T10:43:46.668Z</time></trkpt><trkpt lat="44.506515" lon="8.9133833"><ele>165.0</ele><time>2026-04-21T10:43:48.668Z</time></trkpt><trkpt lat="44.50653" lon="8.91326"><ele>165.0</ele><time>2026-04-21T10:43:49.668Z</time></trkpt><trkpt lat="44.5065533" lon="8.9131183"><ele>163.6</ele><time>2026-04-21T10:43:50.668Z</time></trkpt><trkpt lat="44.506575" lon="8.9129567"><ele>162.2</ele><time>2026-04-21T10:43:51.668Z</time></trkpt><trkpt lat="44.5065833" lon="8.9128167"><ele>160.8</ele><time>2026-04-21T10:43:52.667Z</time></trkpt><trkpt lat="44.5065767" lon="8.9126967"><ele>159.4</ele><time>2026-04-21T10:43:53.668Z</time></trkpt><trkpt lat="44.5065517" lon="8.91259"><ele>158.0</ele><time>2026-04-21T10:43:54.667Z</time></trkpt><trkpt lat="44.50651" lon="8.9124733"><ele>157.0</ele><time>2026-04-21T10:43:55.667Z</time></trkpt><trkpt lat="44.5064683" lon="8.9123467"><ele>156.0</ele><time>2026-04-21T10:43:56.668Z</time></trkpt><trkpt lat="44.50642" lon="8.9122117"><ele>155.0</ele><time>2026-04-21T10:43:57.668Z</time></trkpt><trkpt lat="44.50638" lon="8.91208"><ele>154.0</ele><time>2026-04-21T10:43:58.667Z</time></trkpt><trkpt lat="44.5063417" lon="8.9119717"><ele>153.0</ele><time>2026-04-21T10:43:59.667Z</time></trkpt><trkpt lat="44.5062833" lon="8.9118933"><ele>158.8</ele><time>2026-04-21T10:44:00.668Z</time></trkpt><trkpt lat="44.50621" lon="8.9118417"><ele>164.60000000000002</ele><time>2026-04-21T10:44:01.668Z</time></trkpt><trkpt lat="44.5061233" lon="8.9118183"><ele>170.39999999999998</ele><time>2026-04-21T10:44:02.668Z</time></trkpt><trkpt lat="44.5060233" lon="8.91183"><ele>176.2</ele><time>2026-04-21T10:44:03.668Z</time></trkpt><trkpt lat="44.5059067" lon="8.9118583"><ele>182.0</ele><time>2026-04-21T10:44:04.667Z</time></trkpt><trkpt lat="44.5057833" lon="8.9118917"><ele>182.0</ele><time>2026-04-21T10:44:05.667Z</time></trkpt><trkpt lat="44.5056567" lon="8.91193"><ele>182.0</ele><time>2026-04-21T10:44:06.667Z</time></trkpt><trkpt lat="44.5055417" lon="8.9119933"><ele>182.0</ele><time>2026-04-21T10:44:07.668Z</time></trkpt><trkpt lat="44.5054517" lon="8.9120717"><ele>182.0</ele><time>2026-04-21T10:44:08.667Z</time></trkpt><trkpt lat="44.5053733" lon="8.9121183"><ele>182.0</ele><time>2026-04-21T10:44:09.668Z</time></trkpt><trkpt lat="44.5053083" lon="8.9121317"><ele>183.6</ele><time>2026-04-21T10:44:10.667Z</time></trkpt><trkpt lat="44.5052083" lon="8.9120333"><ele>185.2</ele><time>2026-04-21T10:44:12.667Z</time></trkpt><trkpt lat="44.50518" lon="8.9119283"><ele>186.8</ele><time>2026-04-21T10:44:13.668Z</time></trkpt><trkpt lat="44.505165" lon="8.9117667"><ele>188.4</ele><time>2026-04-21T10:44:14.667Z</time></trkpt><trkpt lat="44.5051517" lon="8.911585"><ele>190.0</ele><time>2026-04-21T10:44:15.667Z</time></trkpt><trkpt lat="44.5051233" lon="8.91143"><ele>190.0</ele><time>2026-04-21T10:44:16.667Z</time></trkpt><trkpt lat="44.5050583" lon="8.911295"><ele>190.0</ele><time>2026-04-21T10:44:17.668Z</time></trkpt><trkpt lat="44.50499" lon="8.9111617"><ele>190.0</ele><time>2026-04-21T10:44:18.668Z</time></trkpt><trkpt lat="44.5049083" lon="8.911055"><ele>190.0</ele><time>2026-04-21T10:44:19.668Z</time></trkpt><trkpt lat="44.5048383" lon="8.9109783"><ele>190.0</ele><time>2026-04-21T10:44:20.668Z</time></trkpt><trkpt lat="44.5047617" lon="8.910935"><ele>190.0</ele><time>2026-04-21T10:44:21.668Z</time></trkpt><trkpt lat="44.5046567" lon="8.910945"><ele>190.0</ele><time>2026-04-21T10:44:22.668Z</time></trkpt><trkpt lat="44.504545" lon="8.9110017"><ele>190.0</ele><time>2026-04-21T10:44:23.667Z</time></trkpt><trkpt lat="44.5044233" lon="8.9110917"><ele>190.0</ele><time>2026-04-21T10:44:24.667Z</time></trkpt><trkpt lat="44.5042867" lon="8.9112117"><ele>191.75</ele><time>2026-04-21T10:44:25.667Z</time></trkpt><trkpt lat="44.5041483" lon="8.9113283"><ele>193.5</ele><time>2026-04-21T10:44:26.668Z</time></trkpt><trkpt lat="44.5040283" lon="8.9114367"><ele>195.25</ele><time>2026-04-21T10:44:27.667Z</time></trkpt><trkpt lat="44.503935" lon="8.911505"><ele>197.0</ele><time>2026-04-21T10:44:28.668Z</time></trkpt><trkpt lat="44.5038533" lon="8.9115367"><ele>197.0</ele><time>2026-04-21T10:44:29.668Z</time></trkpt><trkpt lat="44.5037583" lon="8.9115333"><ele>197.0</ele><time>2026-04-21T10:44:30.668Z</time></trkpt><trkpt lat="44.5036517" lon="8.9115183"><ele>197.0</ele><time>2026-04-21T10:44:31.667Z</time></trkpt><trkpt lat="44.503545" lon="8.9114783"><ele>197.0</ele><time>2026-04-21T10:44:32.668Z</time></trkpt><trkpt lat="44.50344" lon="8.9114567"><ele>197.0</ele><time>2026-04-21T10:44:33.668Z</time></trkpt><trkpt lat="44.503345" lon="8.9114617"><ele>197.0</ele><time>2026-04-21T10:44:34.667Z</time></trkpt><trkpt lat="44.5032333" lon="8.9114917"><ele>197.0</ele><time>2026-04-21T10:44:35.667Z</time></trkpt><trkpt lat="44.503125" lon="8.9115683"><ele>197.0</ele><time>2026-04-21T10:44:36.667Z</time></trkpt><trkpt lat="44.5030183" lon="8.9116483"><ele>197.0</ele><time>2026-04-21T10:44:37.667Z</time></trkpt><trkpt lat="44.50291" lon="8.91172"><ele>204.75</ele><time>2026-04-21T10:44:38.667Z</time></trkpt><trkpt lat="44.5028" lon="8.91177"><ele>212.5</ele><time>2026-04-21T10:44:39.667Z</time></trkpt><trkpt lat="44.5026867" lon="8.9118067"><ele>220.25</ele><time>2026-04-21T10:44:40.668Z</time></trkpt><trkpt lat="44.5025733" lon="8.9118367"><ele>228.0</ele><time>2026-04-21T10:44:41.668Z</time></trkpt><trkpt lat="44.5024617" lon="8.91184"><ele>228.0</ele><time>2026-04-21T10:44:42.667Z</time></trkpt><trkpt lat="44.5023667" lon="8.9118233"><ele>228.0</ele><time>2026-04-21T10:44:43.667Z</time></trkpt><trkpt lat="44.5022867" lon="8.9117817"><ele>228.0</ele><time>2026-04-21T10:44:44.667Z</time></trkpt><trkpt lat="44.5022183" lon="8.9117217"><ele>228.0</ele><time>2026-04-21T10:44:45.667Z</time></trkpt><trkpt lat="44.5021567" lon="8.911635"><ele>228.0</ele><time>2026-04-21T10:44:46.667Z</time></trkpt><trkpt lat="44.5021133" lon="8.9115267"><ele>228.0</ele><time>2026-04-21T10:44:47.667Z</time></trkpt><trkpt lat="44.5020733" lon="8.9114"><ele>227.0</ele><time>2026-04-21T10:44:48.667Z</time></trkpt><trkpt lat="44.5020183" lon="8.9113"><ele>226.0</ele><time>2026-04-21T10:44:49.668Z</time></trkpt><trkpt lat="44.5019517" lon="8.911205"><ele>225.0</ele><time>2026-04-21T10:44:50.668Z</time></trkpt><trkpt lat="44.501865" lon="8.91112"><ele>224.0</ele><time>2026-04-21T10:44:51.667Z</time></trkpt><trkpt lat="44.5017617" lon="8.9110683"><ele>223.0</ele><time>2026-04-21T10:44:52.667Z</time></trkpt><trkpt lat="44.501645" lon="8.9110617"><ele>223.0</ele><time>2026-04-21T10:44:53.667Z</time></trkpt><trkpt lat="44.501525" lon="8.9110767"><ele>223.0</ele><time>2026-04-21T10:44:54.668Z</time></trkpt><trkpt lat="44.5013983" lon="8.911095"><ele>223.0</ele><time>2026-04-21T10:44:55.668Z</time></trkpt><trkpt lat="44.501275" lon="8.9111033"><ele>223.0</ele><time>2026-04-21T10:44:56.667Z</time></trkpt><trkpt lat="44.5011517" lon="8.9110983"><ele>223.75</ele><time>2026-04-21T10:44:57.667Z</time></trkpt><trkpt lat="44.501035" lon="8.9110883"><ele>224.5</ele><time>2026-04-21T10:44:58.667Z</time></trkpt><trkpt lat="44.5009167" lon="8.911115"><ele>225.25</ele><time>2026-04-21T10:44:59.667Z</time></trkpt><trkpt lat="44.5007983" lon="8.9111817"><ele>226.0</ele><time>2026-04-21T10:45:00.667Z</time></trkpt><trkpt lat="44.5006867" lon="8.9112317"><ele>226.0</ele><time>2026-04-21T10:45:01.668Z</time></trkpt><trkpt lat="44.5005883" lon="8.9112467"><ele>226.00000000000003</ele><time>2026-04-21T10:45:02.668Z</time></trkpt><trkpt lat="44.5004883" lon="8.911225"><ele>226.00000000000003</ele><time>2026-04-21T10:45:03.668Z</time></trkpt><trkpt lat="44.5003983" lon="8.9111633"><ele>226.0</ele><time>2026-04-21T10:45:04.668Z</time></trkpt><trkpt lat="44.5003317" lon="8.91106"><ele>226.0</ele><time>2026-04-21T10:45:05.668Z</time></trkpt><trkpt lat="44.50028" lon="8.9109383"><ele>227.0</ele><time>2026-04-21T10:45:06.668Z</time></trkpt><trkpt lat="44.5002583" lon="8.910795"><ele>228.00000000000003</ele><time>2026-04-21T10:45:07.667Z</time></trkpt><trkpt lat="44.500245" lon="8.910635"><ele>229.00000000000003</ele><time>2026-04-21T10:45:08.668Z</time></trkpt><trkpt lat="44.5002333" lon="8.9104733"><ele>230.0</ele><time>2026-04-21T10:45:09.667Z</time></trkpt><trkpt lat="44.5002233" lon="8.9103283"><ele>231.0</ele><time>2026-04-21T10:45:10.667Z</time></trkpt><trkpt lat="44.5001917" lon="8.9102"><ele>231.0</ele><time>2026-04-21T10:45:11.667Z</time></trkpt><trkpt lat="44.5001183" lon="8.9100967"><ele>231.0</ele><time>2026-04-21T10:45:12.668Z</time></trkpt><trkpt lat="44.5000217" lon="8.9099967"><ele>231.0</ele><time>2026-04-21T10:45:13.668Z</time></trkpt><trkpt lat="44.4999033" lon="8.9099017"><ele>231.0</ele><time>2026-04-21T10:45:14.668Z</time></trkpt><trkpt lat="44.4997733" lon="8.9098167"><ele>227.5</ele><time>2026-04-21T10:45:15.667Z</time></trkpt><trkpt lat="44.4996583" lon="8.9097383"><ele>224.0</ele><time>2026-04-21T10:45:16.667Z</time></trkpt><trkpt lat="44.4995533" lon="8.909685"><ele>220.5</ele><time>2026-04-21T10:45:17.667Z</time></trkpt><trkpt lat="44.49945" lon="8.9096633"><ele>217.0</ele><time>2026-04-21T10:45:18.668Z</time></trkpt><trkpt lat="44.499335" lon="8.9096817"><ele>216.8</ele><time>2026-04-21T10:45:19.668Z</time></trkpt><trkpt lat="44.4992117" lon="8.9097233"><ele>216.6</ele><time>2026-04-21T10:45:20.667Z</time></trkpt><trkpt lat="44.499105" lon="8.9097567"><ele>216.40000000000003</ele><time>2026-04-21T10:45:21.667Z</time></trkpt><trkpt lat="44.4990283" lon="8.9098033"><ele>216.20000000000002</ele><time>2026-04-21T10:45:22.668Z</time></trkpt><trkpt lat="44.4989667" lon="8.909895"><ele>216.0</ele><time>2026-04-21T10:45:23.667Z</time></trkpt><trkpt lat="44.4989183" lon="8.91001"><ele>216.5</ele><time>2026-04-21T10:45:24.668Z</time></trkpt><trkpt lat="44.498865" lon="8.9101433"><ele>217.0</ele><time>2026-04-21T10:45:25.668Z</time></trkpt><trkpt lat="44.4987983" lon="8.9102767"><ele>217.5</ele><time>2026-04-21T10:45:26.668Z</time></trkpt><trkpt lat="44.4986983" lon="8.9103983"><ele>218.0</ele><time>2026-04-21T10:45:27.668Z</time></trkpt><trkpt lat="44.4985867" lon="8.91051"><ele>218.0</ele><time>2026-04-21T10:45:28.667Z</time></trkpt><trkpt lat="44.49847" lon="8.91062"><ele>218.0</ele><time>2026-04-21T10:45:29.667Z</time></trkpt><trkpt lat="44.4983667" lon="8.9107317"><ele>218.0</ele><time>2026-04-21T10:45:30.668Z</time></trkpt><trkpt lat="44.4982867" lon="8.9108533"><ele>218.0</ele><time>2026-04-21T10:45:31.666Z</time></trkpt><trkpt lat="44.4982283" lon="8.9109917"><ele>219.50000000000003</ele><time>2026-04-21T10:45:32.666Z</time></trkpt><trkpt lat="44.4981733" lon="8.9111117"><ele>221.0</ele><time>2026-04-21T10:45:33.667Z</time></trkpt><trkpt lat="44.49811" lon="8.9112017"><ele>222.5</ele><time>2026-04-21T10:45:34.666Z</time></trkpt><trkpt lat="44.4980467" lon="8.91128"><ele>224.0</ele><time>2026-04-21T10:45:35.667Z</time></trkpt><trkpt lat="44.4979733" lon="8.91133"><ele>225.50000000000003</ele><time>2026-04-21T10:45:36.667Z</time></trkpt><trkpt lat="44.4979017" lon="8.9113683"><ele>227.0</ele><time>2026-04-21T10:45:37.666Z</time></trkpt><trkpt lat="44.4978333" lon="8.9114267"><ele>227.00000000000003</ele><time>2026-04-21T10:45:38.667Z</time></trkpt><trkpt lat="44.4977833" lon="8.9115033"><ele>227.0</ele><time>2026-04-21T10:45:39.667Z</time></trkpt><trkpt lat="44.497735" lon="8.9116"><ele>227.0</ele><time>2026-04-21T10:45:40.666Z</time></trkpt><trkpt lat="44.4977017" lon="8.91172"><ele>227.0</ele><time>2026-04-21T10:45:41.666Z</time></trkpt><trkpt lat="44.4976767" lon="8.9118533"><ele>227.00000000000003</ele><time>2026-04-21T10:45:42.666Z</time></trkpt><trkpt lat="44.4976483" lon="8.9119783"><ele>227.0</ele><time>2026-04-21T10:45:43.667Z</time></trkpt><trkpt lat="44.4975967" lon="8.9120983"><ele>227.50000000000003</ele><time>2026-04-21T10:45:44.667Z</time></trkpt><trkpt lat="44.4975367" lon="8.9121983"><ele>228.0</ele><time>2026-04-21T10:45:45.667Z</time></trkpt><trkpt lat="44.497495" lon="8.9122967"><ele>228.5</ele><time>2026-04-21T10:45:46.666Z</time></trkpt><trkpt lat="44.4974767" lon="8.9123933"><ele>229.0</ele><time>2026-04-21T10:45:47.666Z</time></trkpt><trkpt lat="44.4974867" lon="8.9125183"><ele>229.50000000000003</ele><time>2026-04-21T10:45:49.667Z</time></trkpt><trkpt lat="44.497535" lon="8.912605"><ele>230.0</ele><time>2026-04-21T10:45:54.667Z</time></trkpt><trkpt lat="44.497635" lon="8.9126117"><ele>230.00000000000003</ele><time>2026-04-21T10:45:56.666Z</time></trkpt><trkpt lat="44.4977" lon="8.9126183"><ele>230.0</ele><time>2026-04-21T10:45:57.666Z</time></trkpt><trkpt lat="44.4977667" lon="8.91262"><ele>230.0</ele><time>2026-04-21T10:45:58.667Z</time></trkpt><trkpt lat="44.4978333" lon="8.9126117"><ele>230.0</ele><time>2026-04-21T10:45:59.666Z</time></trkpt><trkpt lat="44.497945" lon="8.9125833"><ele>230.00000000000003</ele><time>2026-04-21T10:46:01.667Z</time></trkpt><trkpt lat="44.49801" lon="8.9125783"><ele>230.0</ele><time>2026-04-21T10:46:02.666Z</time></trkpt><trkpt lat="44.49813" lon="8.9126233"><ele>230.6</ele><time>2026-04-21T10:46:04.667Z</time></trkpt><trkpt lat="44.4981917" lon="8.91267"><ele>231.2</ele><time>2026-04-21T10:46:05.666Z</time></trkpt><trkpt lat="44.4982817" lon="8.9127417"><ele>231.8</ele><time>2026-04-21T10:46:07.666Z</time></trkpt><trkpt lat="44.4983583" lon="8.9128167"><ele>232.4</ele><time>2026-04-21T10:46:09.666Z</time></trkpt><trkpt lat="44.498445" lon="8.91291"><ele>233.0</ele><time>2026-04-21T10:46:11.667Z</time></trkpt><trkpt lat="44.4985267" lon="8.9129917"><ele>233.0</ele><time>2026-04-21T10:46:13.666Z</time></trkpt><trkpt lat="44.4985783" lon="8.9130517"><ele>233.0</ele><time>2026-04-21T10:46:14.666Z</time></trkpt><trkpt lat="44.4986817" lon="8.9131433"><ele>233.0</ele><time>2026-04-21T10:46:16.667Z</time></trkpt><trkpt lat="44.498795" lon="8.913205"><ele>233.0</ele><time>2026-04-21T10:46:18.666Z</time></trkpt><trkpt lat="44.4988683" lon="8.913225"><ele>233.0</ele><time>2026-04-21T10:46:19.666Z</time></trkpt><trkpt lat="44.4989533" lon="8.9132383"><ele>232.83333333333334</ele><time>2026-04-21T10:46:20.667Z</time></trkpt><trkpt lat="44.4990417" lon="8.91326"><ele>232.66666666666669</ele><time>2026-04-21T10:46:21.666Z</time></trkpt><trkpt lat="44.49912" lon="8.913295"><ele>232.5</ele><time>2026-04-21T10:46:22.667Z</time></trkpt><trkpt lat="44.49918" lon="8.9133533"><ele>232.33333333333331</ele><time>2026-04-21T10:46:23.666Z</time></trkpt><trkpt lat="44.499225" lon="8.913425"><ele>232.16666666666666</ele><time>2026-04-21T10:46:24.667Z</time></trkpt><trkpt lat="44.4992667" lon="8.9135383"><ele>232.0</ele><time>2026-04-21T10:46:25.667Z</time></trkpt><trkpt lat="44.4993167" lon="8.9136617"><ele>232.0</ele><time>2026-04-21T10:46:26.666Z</time></trkpt><trkpt lat="44.4993533" lon="8.9138"><ele>232.0</ele><time>2026-04-21T10:46:27.667Z</time></trkpt><trkpt lat="44.499405" lon="8.9139483"><ele>232.0</ele><time>2026-04-21T10:46:28.667Z</time></trkpt><trkpt lat="44.4994633" lon="8.9141067"><ele>232.0</ele><time>2026-04-21T10:46:29.666Z</time></trkpt><trkpt lat="44.49954" lon="8.91429"><ele>232.75</ele><time>2026-04-21T10:46:30.667Z</time></trkpt><trkpt lat="44.49961" lon="8.9144667"><ele>233.5</ele><time>2026-04-21T10:46:31.667Z</time></trkpt><trkpt lat="44.4996767" lon="8.9146317"><ele>234.25</ele><time>2026-04-21T10:46:32.667Z</time></trkpt><trkpt lat="44.499745" lon="8.9147983"><ele>235.0</ele><time>2026-04-21T10:46:33.666Z</time></trkpt><trkpt lat="44.4998117" lon="8.914955"><ele>232.2</ele><time>2026-04-21T10:46:34.666Z</time></trkpt><trkpt lat="44.4998617" lon="8.9151033"><ele>229.4</ele><time>2026-04-21T10:46:35.667Z</time></trkpt><trkpt lat="44.4998983" lon="8.9152517"><ele>226.60000000000002</ele><time>2026-04-21T10:46:36.666Z</time></trkpt><trkpt lat="44.4999317" lon="8.9153783"><ele>223.8</ele><time>2026-04-21T10:46:37.666Z</time></trkpt><trkpt lat="44.4999783" lon="8.9154817"><ele>221.0</ele><time>2026-04-21T10:46:38.666Z</time></trkpt><trkpt lat="44.5000567" lon="8.9155783"><ele>221.0</ele><time>2026-04-21T10:46:39.667Z</time></trkpt><trkpt lat="44.50016" lon="8.9156733"><ele>221.0</ele><time>2026-04-21T10:46:40.666Z</time></trkpt><trkpt lat="44.50027" lon="8.9157633"><ele>221.0</ele><time>2026-04-21T10:46:41.667Z</time></trkpt><trkpt lat="44.50037" lon="8.9158467"><ele>221.0</ele><time>2026-04-21T10:46:42.666Z</time></trkpt><trkpt lat="44.5004717" lon="8.915925"><ele>218.20000000000002</ele><time>2026-04-21T10:46:43.666Z</time></trkpt><trkpt lat="44.50057" lon="8.91598"><ele>215.40000000000003</ele><time>2026-04-21T10:46:44.666Z</time></trkpt><trkpt lat="44.5006533" lon="8.916025"><ele>212.6</ele><time>2026-04-21T10:46:45.666Z</time></trkpt><trkpt lat="44.5007333" lon="8.9160333"><ele>209.8</ele><time>2026-04-21T10:46:46.667Z</time></trkpt><trkpt lat="44.5008167" lon="8.9160217"><ele>207.0</ele><time>2026-04-21T10:46:47.667Z</time></trkpt><trkpt lat="44.50092" lon="8.9159933"><ele>207.0</ele><time>2026-04-21T10:46:48.666Z</time></trkpt><trkpt lat="44.5010317" lon="8.9159617"><ele>207.0</ele><time>2026-04-21T10:46:49.667Z</time></trkpt><trkpt lat="44.50115" lon="8.9159417"><ele>207.0</ele><time>2026-04-21T10:46:50.666Z</time></trkpt><trkpt lat="44.50125" lon="8.91593"><ele>207.0</ele><time>2026-04-21T10:46:51.666Z</time></trkpt><trkpt lat="44.5013367" lon="8.9159633"><ele>207.0</ele><time>2026-04-21T10:46:52.666Z</time></trkpt><trkpt lat="44.5014" lon="8.9160283"><ele>209.39999999999998</ele><time>2026-04-21T10:46:53.667Z</time></trkpt><trkpt lat="44.5014283" lon="8.9161083"><ele>211.79999999999998</ele><time>2026-04-21T10:46:54.667Z</time></trkpt><trkpt lat="44.5014517" lon="8.91623"><ele>214.2</ele><time>2026-04-21T10:46:55.667Z</time></trkpt><trkpt lat="44.5014583" lon="8.9163767"><ele>216.6</ele><time>2026-04-21T10:46:56.666Z</time></trkpt><trkpt lat="44.501465" lon="8.9165233"><ele>219.0</ele><time>2026-04-21T10:46:57.667Z</time></trkpt><trkpt lat="44.501485" lon="8.9166717"><ele>216.5</ele><time>2026-04-21T10:46:58.666Z</time></trkpt><trkpt lat="44.501535" lon="8.91684"><ele>214.0</ele><time>2026-04-21T10:46:59.666Z</time></trkpt><trkpt lat="44.50159" lon="8.9169917"><ele>211.5</ele><time>2026-04-21T10:47:00.666Z</time></trkpt><trkpt lat="44.5016467" lon="8.917125"><ele>209.0</ele><time>2026-04-21T10:47:01.666Z</time></trkpt><trkpt lat="44.5017167" lon="8.9172517"><ele>209.0</ele><time>2026-04-21T10:47:02.666Z</time></trkpt><trkpt lat="44.5017983" lon="8.9173783"><ele>209.0</ele><time>2026-04-21T10:47:03.667Z</time></trkpt><trkpt lat="44.5018733" lon="8.91751"><ele>209.0</ele><time>2026-04-21T10:47:04.666Z</time></trkpt><trkpt lat="44.5019633" lon="8.9176383"><ele>209.0</ele><time>2026-04-21T10:47:05.667Z</time></trkpt><trkpt lat="44.5020567" lon="8.917765"><ele>210.75</ele><time>2026-04-21T10:47:06.666Z</time></trkpt><trkpt lat="44.5021417" lon="8.9178933"><ele>212.5</ele><time>2026-04-21T10:47:07.666Z</time></trkpt><trkpt lat="44.502225" lon="8.9180233"><ele>214.25</ele><time>2026-04-21T10:47:08.666Z</time></trkpt><trkpt lat="44.5023017" lon="8.91814"><ele>216.0</ele><time>2026-04-21T10:47:09.666Z</time></trkpt><trkpt lat="44.502365" lon="8.9182383"><ele>216.0</ele><time>2026-04-21T10:47:10.667Z</time></trkpt><trkpt lat="44.5024067" lon="8.9183183"><ele>216.0</ele><time>2026-04-21T10:47:11.666Z</time></trkpt><trkpt lat="44.5024083" lon="8.9184417"><ele>216.0</ele><time>2026-04-21T10:47:13.666Z</time></trkpt><trkpt lat="44.5023517" lon="8.9185733"><ele>216.0</ele><time>2026-04-21T10:47:15.666Z</time></trkpt><trkpt lat="44.5023083" lon="8.91866"><ele>216.0</ele><time>2026-04-21T10:47:16.667Z</time></trkpt><trkpt lat="44.5022633" lon="8.9187533"><ele>216.0</ele><time>2026-04-21T10:47:17.666Z</time></trkpt><trkpt lat="44.502225" lon="8.91886"><ele>214.20000000000002</ele><time>2026-04-21T10:47:18.666Z</time></trkpt><trkpt lat="44.502195" lon="8.9189833"><ele>212.40000000000003</ele><time>2026-04-21T10:47:19.666Z</time></trkpt><trkpt lat="44.5021867" lon="8.9191133"><ele>210.6</ele><time>2026-04-21T10:47:20.666Z</time></trkpt><trkpt lat="44.5021933" lon="8.9192433"><ele>208.8</ele><time>2026-04-21T10:47:21.667Z</time></trkpt><trkpt lat="44.502215" lon="8.9193733"><ele>207.0</ele><time>2026-04-21T10:47:22.667Z</time></trkpt><trkpt lat="44.5022467" lon="8.919485"><ele>205.0</ele><time>2026-04-21T10:47:23.667Z</time></trkpt><trkpt lat="44.5022933" lon="8.919565"><ele>203.0</ele><time>2026-04-21T10:47:24.667Z</time></trkpt><trkpt lat="44.5023483" lon="8.9196317"><ele>201.0</ele><time>2026-04-21T10:47:25.667Z</time></trkpt><trkpt lat="44.502415" lon="8.9196767"><ele>199.0</ele><time>2026-04-21T10:47:26.666Z</time></trkpt><trkpt lat="44.5024817" lon="8.919685"><ele>197.0</ele><time>2026-04-21T10:47:27.667Z</time></trkpt><trkpt lat="44.5025717" lon="8.9196783"><ele>195.0</ele><time>2026-04-21T10:47:28.667Z</time></trkpt><trkpt lat="44.502665" lon="8.9196933"><ele>195.0</ele><time>2026-04-21T10:47:29.667Z</time></trkpt><trkpt lat="44.502765" lon="8.919745"><ele>195.0</ele><time>2026-04-21T10:47:30.667Z</time></trkpt><trkpt lat="44.5028833" lon="8.9198217"><ele>195.0</ele><time>2026-04-21T10:47:31.667Z</time></trkpt><trkpt lat="44.5030133" lon="8.9199033"><ele>195.0</ele><time>2026-04-21T10:47:32.667Z</time></trkpt><trkpt lat="44.503145" lon="8.9199983"><ele>189.0</ele><time>2026-04-21T10:47:33.667Z</time></trkpt><trkpt lat="44.5032717" lon="8.9201033"><ele>183.0</ele><time>2026-04-21T10:47:34.666Z</time></trkpt><trkpt lat="44.5033967" lon="8.9202117"><ele>177.0</ele><time>2026-04-21T10:47:35.667Z</time></trkpt><trkpt lat="44.5035133" lon="8.9203283"><ele>171.0</ele><time>2026-04-21T10:47:36.666Z</time></trkpt><trkpt lat="44.5036267" lon="8.9204483"><ele>171.0</ele><time>2026-04-21T10:47:37.666Z</time></trkpt><trkpt lat="44.5037367" lon="8.9205567"><ele>171.0</ele><time>2026-04-21T10:47:38.667Z</time></trkpt><trkpt lat="44.503835" lon="8.9206617"><ele>171.0</ele><time>2026-04-21T10:47:39.666Z</time></trkpt><trkpt lat="44.503915" lon="8.9207633"><ele>171.0</ele><time>2026-04-21T10:47:40.667Z</time></trkpt><trkpt lat="44.503985" lon="8.920855"><ele>171.5</ele><time>2026-04-21T10:47:41.667Z</time></trkpt><trkpt lat="44.504025" lon="8.9209317"><ele>172.0</ele><time>2026-04-21T10:47:42.666Z</time></trkpt><trkpt lat="44.5040617" lon="8.921005"><ele>172.5</ele><time>2026-04-21T10:47:43.667Z</time></trkpt><trkpt lat="44.5040883" lon="8.9211233"><ele>173.0</ele><time>2026-04-21T10:47:45.667Z</time></trkpt><trkpt lat="44.5040367" lon="8.9212567"><ele>173.5</ele><time>2026-04-21T10:47:47.666Z</time></trkpt><trkpt lat="44.5039933" lon="8.9213467"><ele>174.0</ele><time>2026-04-21T10:47:48.666Z</time></trkpt><trkpt lat="44.5039333" lon="8.92148"><ele>174.0</ele><time>2026-04-21T10:47:49.666Z</time></trkpt><trkpt lat="44.5038783" lon="8.9216433"><ele>174.0</ele><time>2026-04-21T10:47:50.667Z</time></trkpt><trkpt lat="44.503835" lon="8.921805"><ele>174.0</ele><time>2026-04-21T10:47:51.667Z</time></trkpt><trkpt lat="44.5037867" lon="8.92196"><ele>174.0</ele><time>2026-04-21T10:47:52.667Z</time></trkpt><trkpt lat="44.5037267" lon="8.9220967"><ele>170.66666666666666</ele><time>2026-04-21T10:47:53.666Z</time></trkpt><trkpt lat="44.5036717" lon="8.922205"><ele>167.33333333333334</ele><time>2026-04-21T10:47:54.667Z</time></trkpt><trkpt lat="44.5036267" lon="8.9223117"><ele>164.0</ele><time>2026-04-21T10:47:55.667Z</time></trkpt><trkpt lat="44.5036133" lon="8.9224233"><ele>160.66666666666669</ele><time>2026-04-21T10:47:56.666Z</time></trkpt><trkpt lat="44.50363" lon="8.9225433"><ele>157.33333333333334</ele><time>2026-04-21T10:47:57.667Z</time></trkpt><trkpt lat="44.5036533" lon="8.9226667"><ele>154.0</ele><time>2026-04-21T10:47:58.667Z</time></trkpt><trkpt lat="44.5036633" lon="8.9227917"><ele>154.0</ele><time>2026-04-21T10:47:59.666Z</time></trkpt><trkpt lat="44.5036567" lon="8.922905"><ele>154.0</ele><time>2026-04-21T10:48:00.667Z</time></trkpt><trkpt lat="44.5036133" lon="8.9230083"><ele>154.0</ele><time>2026-04-21T10:48:01.666Z</time></trkpt><trkpt lat="44.5035467" lon="8.923115"><ele>154.0</ele><time>2026-04-21T10:48:02.666Z</time></trkpt><trkpt lat="44.50345" lon="8.9232317"><ele>154.0</ele><time>2026-04-21T10:48:03.666Z</time></trkpt><trkpt lat="44.50337" lon="8.92336"><ele>154.2</ele><time>2026-04-21T10:48:04.667Z</time></trkpt><trkpt lat="44.5032983" lon="8.923495"><ele>154.4</ele><time>2026-04-21T10:48:05.666Z</time></trkpt><trkpt lat="44.5032317" lon="8.9236283"><ele>154.6</ele><time>2026-04-21T10:48:06.666Z</time></trkpt><trkpt lat="44.503175" lon="8.9237367"><ele>154.8</ele><time>2026-04-21T10:48:07.666Z</time></trkpt><trkpt lat="44.503135" lon="8.923835"><ele>155.0</ele><time>2026-04-21T10:48:08.667Z</time></trkpt><trkpt lat="44.50312" lon="8.9239383"><ele>155.0</ele><time>2026-04-21T10:48:09.667Z</time></trkpt><trkpt lat="44.5031283" lon="8.9240883"><ele>155.0</ele><time>2026-04-21T10:48:10.666Z</time></trkpt><trkpt lat="44.5031383" lon="8.9242467"><ele>155.0</ele><time>2026-04-21T10:48:11.666Z</time></trkpt><trkpt lat="44.5031433" lon="8.9244017"><ele>155.0</ele><time>2026-04-21T10:48:12.667Z</time></trkpt><trkpt lat="44.5031433" lon="8.92454"><ele>155.0</ele><time>2026-04-21T10:48:13.667Z</time></trkpt><trkpt lat="44.50314" lon="8.924685"><ele>152.25</ele><time>2026-04-21T10:48:14.667Z</time></trkpt><trkpt lat="44.50317" lon="8.9248317"><ele>149.5</ele><time>2026-04-21T10:48:15.667Z</time></trkpt><trkpt lat="44.50322" lon="8.9249917"><ele>146.75</ele><time>2026-04-21T10:48:16.667Z</time></trkpt><trkpt lat="44.5032767" lon="8.9251633"><ele>144.0</ele><time>2026-04-21T10:48:17.667Z</time></trkpt><trkpt lat="44.50334" lon="8.92533"><ele>140.0</ele><time>2026-04-21T10:48:18.667Z</time></trkpt><trkpt lat="44.5034167" lon="8.925485"><ele>136.0</ele><time>2026-04-21T10:48:19.667Z</time></trkpt><trkpt lat="44.5034883" lon="8.9256417"><ele>132.0</ele><time>2026-04-21T10:48:20.666Z</time></trkpt><trkpt lat="44.5035667" lon="8.9258017"><ele>128.0</ele><time>2026-04-21T10:48:21.666Z</time></trkpt><trkpt lat="44.5036333" lon="8.9259483"><ele>128.16666666666666</ele><time>2026-04-21T10:48:22.667Z</time></trkpt><trkpt lat="44.5036983" lon="8.9260667"><ele>128.33333333333331</ele><time>2026-04-21T10:48:23.667Z</time></trkpt><trkpt lat="44.503755" lon="8.9261533"><ele>128.5</ele><time>2026-04-21T10:48:24.666Z</time></trkpt><trkpt lat="44.503815" lon="8.9262167"><ele>128.66666666666666</ele><time>2026-04-21T10:48:25.667Z</time></trkpt><trkpt lat="44.5038783" lon="8.92625"><ele>128.83333333333334</ele><time>2026-04-21T10:48:26.666Z</time></trkpt><trkpt lat="44.5039483" lon="8.9262433"><ele>129.0</ele><time>2026-04-21T10:48:27.666Z</time></trkpt><trkpt lat="44.50403" lon="8.9261917"><ele>129.0</ele><time>2026-04-21T10:48:28.666Z</time></trkpt><trkpt lat="44.5041083" lon="8.9261317"><ele>129.0</ele><time>2026-04-21T10:48:29.666Z</time></trkpt><trkpt lat="44.5041867" lon="8.9260767"><ele>129.0</ele><time>2026-04-21T10:48:30.667Z</time></trkpt><trkpt lat="44.5042717" lon="8.9261117"><ele>129.0</ele><time>2026-04-21T10:48:32.667Z</time></trkpt><trkpt lat="44.5042717" lon="8.9262517"><ele>129.0</ele><time>2026-04-21T10:48:34.666Z</time></trkpt><trkpt lat="44.5042283" lon="8.9263483"><ele>129.0</ele><time>2026-04-21T10:48:35.667Z</time></trkpt><trkpt lat="44.5041433" lon="8.9264633"><ele>129.0</ele><time>2026-04-21T10:48:36.666Z</time></trkpt><trkpt lat="44.504025" lon="8.9265633"><ele>129.0</ele><time>2026-04-21T10:48:37.667Z</time></trkpt><trkpt lat="44.5038817" lon="8.9266683"><ele>129.0</ele><time>2026-04-21T10:48:38.667Z</time></trkpt><trkpt lat="44.50376" lon="8.9267867"><ele>129.0</ele><time>2026-04-21T10:48:39.666Z</time></trkpt><trkpt lat="44.5036567" lon="8.9269033"><ele>126.2</ele><time>2026-04-21T10:48:40.666Z</time></trkpt><trkpt lat="44.5035733" lon="8.9270233"><ele>123.4</ele><time>2026-04-21T10:48:41.666Z</time></trkpt><trkpt lat="44.503505" lon="8.927145"><ele>120.6</ele><time>2026-04-21T10:48:42.667Z</time></trkpt><trkpt lat="44.5034367" lon="8.9272533"><ele>117.8</ele><time>2026-04-21T10:48:43.667Z</time></trkpt><trkpt lat="44.5033833" lon="8.92734"><ele>115.0</ele><time>2026-04-21T10:48:44.667Z</time></trkpt><trkpt lat="44.50334" lon="8.9274183"><ele>115.0</ele><time>2026-04-21T10:48:46.666Z</time></trkpt><trkpt lat="44.5034083" lon="8.9275317"><ele>115.0</ele><time>2026-04-21T10:48:58.666Z</time></trkpt><trkpt lat="44.5034783" lon="8.9275967"><ele>115.0</ele><time>2026-04-21T10:48:59.667Z</time></trkpt><trkpt lat="44.503565" lon="8.92769"><ele>115.0</ele><time>2026-04-21T10:49:00.667Z</time></trkpt><trkpt lat="44.5036717" lon="8.927795"><ele>115.0</ele><time>2026-04-21T10:49:01.666Z</time></trkpt><trkpt lat="44.503785" lon="8.9279067"><ele>115.5</ele><time>2026-04-21T10:49:02.666Z</time></trkpt><trkpt lat="44.5039" lon="8.9280267"><ele>116.0</ele><time>2026-04-21T10:49:03.666Z</time></trkpt><trkpt lat="44.50402" lon="8.9281433"><ele>116.5</ele><time>2026-04-21T10:49:04.667Z</time></trkpt><trkpt lat="44.5041383" lon="8.9282717"><ele>117.0</ele><time>2026-04-21T10:49:05.667Z</time></trkpt><trkpt lat="44.5042467" lon="8.928425"><ele>117.66666666666666</ele><time>2026-04-21T10:49:06.667Z</time></trkpt><trkpt lat="44.504355" lon="8.9285833"><ele>118.33333333333333</ele><time>2026-04-21T10:49:07.666Z</time></trkpt><trkpt lat="44.5044617" lon="8.9287533"><ele>119.0</ele><time>2026-04-21T10:49:08.667Z</time></trkpt><trkpt lat="44.50458" lon="8.9289267"><ele>119.66666666666666</ele><time>2026-04-21T10:49:09.666Z</time></trkpt><trkpt lat="44.504695" lon="8.9291"><ele>120.33333333333334</ele><time>2026-04-21T10:49:10.667Z</time></trkpt><trkpt lat="44.50481" lon="8.9292717"><ele>121.0</ele><time>2026-04-21T10:49:11.667Z</time></trkpt><trkpt lat="44.5049283" lon="8.9294317"><ele>121.0</ele><time>2026-04-21T10:49:12.667Z</time></trkpt><trkpt lat="44.5050433" lon="8.9296067"><ele>121.0</ele><time>2026-04-21T10:49:13.667Z</time></trkpt><trkpt lat="44.5051617" lon="8.92978"><ele>121.0</ele><time>2026-04-21T10:49:14.667Z</time></trkpt><trkpt lat="44.5052767" lon="8.9299567"><ele>122.0</ele><time>2026-04-21T10:49:15.667Z</time></trkpt><trkpt lat="44.5053933" lon="8.930145"><ele>123.0</ele><time>2026-04-21T10:49:16.667Z</time></trkpt><trkpt lat="44.5055067" lon="8.9303317"><ele>124.0</ele><time>2026-04-21T10:49:17.666Z</time></trkpt><trkpt lat="44.505615" lon="8.9305083"><ele>124.0</ele><time>2026-04-21T10:49:18.666Z</time></trkpt><trkpt lat="44.5057217" lon="8.9306717"><ele>124.0</ele><time>2026-04-21T10:49:19.666Z</time></trkpt><trkpt lat="44.5058233" lon="8.9308383"><ele>124.0</ele><time>2026-04-21T10:49:20.667Z</time></trkpt><trkpt lat="44.505925" lon="8.93101"><ele>124.0</ele><time>2026-04-21T10:49:21.666Z</time></trkpt><trkpt lat="44.5060233" lon="8.93118"><ele>124.0</ele><time>2026-04-21T10:49:22.666Z</time></trkpt><trkpt lat="44.5061183" lon="8.9313617"><ele>124.0</ele><time>2026-04-21T10:49:23.666Z</time></trkpt><trkpt lat="44.5062233" lon="8.9315483"><ele>123.66666666666667</ele><time>2026-04-21T10:49:24.666Z</time></trkpt><trkpt lat="44.5063233" lon="8.9317283"><ele>123.33333333333334</ele><time>2026-04-21T10:49:25.666Z</time></trkpt><trkpt lat="44.5064133" lon="8.93191"><ele>123.0</ele><time>2026-04-21T10:49:26.667Z</time></trkpt><trkpt lat="44.506495" lon="8.9320817"><ele>123.0</ele><time>2026-04-21T10:49:27.666Z</time></trkpt><trkpt lat="44.5065767" lon="8.9322417"><ele>123.0</ele><time>2026-04-21T10:49:28.666Z</time></trkpt><trkpt lat="44.5066617" lon="8.9323983"><ele>123.0</ele><time>2026-04-21T10:49:29.666Z</time></trkpt><trkpt lat="44.5067533" lon="8.93255"><ele>123.0</ele><time>2026-04-21T10:49:30.667Z</time></trkpt><trkpt lat="44.50684" lon="8.9327117"><ele>123.0</ele><time>2026-04-21T10:49:31.666Z</time></trkpt><trkpt lat="44.5069233" lon="8.9328683"><ele>123.0</ele><time>2026-04-21T10:49:32.666Z</time></trkpt><trkpt lat="44.5070033" lon="8.933035"><ele>123.0</ele><time>2026-04-21T10:49:33.666Z</time></trkpt><trkpt lat="44.50708" lon="8.933205"><ele>123.0</ele><time>2026-04-21T10:49:34.667Z</time></trkpt><trkpt lat="44.5071483" lon="8.9333983"><ele>125.33333333333334</ele><time>2026-04-21T10:49:35.667Z</time></trkpt><trkpt lat="44.5072183" lon="8.9335917"><ele>127.66666666666667</ele><time>2026-04-21T10:49:36.666Z</time></trkpt><trkpt lat="44.507275" lon="8.933785"><ele>130.0</ele><time>2026-04-21T10:49:37.666Z</time></trkpt><trkpt lat="44.507335" lon="8.93399"><ele>130.0</ele><time>2026-04-21T10:49:38.667Z</time></trkpt><trkpt lat="44.5073933" lon="8.93419"><ele>130.0</ele><time>2026-04-21T10:49:39.667Z</time></trkpt><trkpt lat="44.5074467" lon="8.9343867"><ele>130.0</ele><time>2026-04-21T10:49:40.667Z</time></trkpt><trkpt lat="44.5074983" lon="8.9345683"><ele>130.0</ele><time>2026-04-21T10:49:41.667Z</time></trkpt><trkpt lat="44.5075583" lon="8.9347333"><ele>129.75</ele><time>2026-04-21T10:49:42.666Z</time></trkpt><trkpt lat="44.5076017" lon="8.9349267"><ele>129.5</ele><time>2026-04-21T10:49:43.666Z</time></trkpt><trkpt lat="44.50763" lon="8.9351267"><ele>129.25</ele><time>2026-04-21T10:49:44.666Z</time></trkpt><trkpt lat="44.5076533" lon="8.93532"><ele>129.0</ele><time>2026-04-21T10:49:45.667Z</time></trkpt><trkpt lat="44.5076733" lon="8.9355083"><ele>129.0</ele><time>2026-04-21T10:49:46.667Z</time></trkpt><trkpt lat="44.50769" lon="8.93569"><ele>129.0</ele><time>2026-04-21T10:49:47.667Z</time></trkpt><trkpt lat="44.5077067" lon="8.935875"><ele>129.0</ele><time>2026-04-21T10:49:48.666Z</time></trkpt><trkpt lat="44.5077217" lon="8.9360633"><ele>129.0</ele><time>2026-04-21T10:49:49.667Z</time></trkpt><trkpt lat="44.507745" lon="8.936235"><ele>130.0</ele><time>2026-04-21T10:49:50.667Z</time></trkpt><trkpt lat="44.50779" lon="8.9364067"><ele>131.0</ele><time>2026-04-21T10:49:51.666Z</time></trkpt><trkpt lat="44.507845" lon="8.9365733"><ele>132.0</ele><time>2026-04-21T10:49:52.667Z</time></trkpt><trkpt lat="44.5079033" lon="8.9367183"><ele>133.0</ele><time>2026-04-21T10:49:53.666Z</time></trkpt><trkpt lat="44.5079667" lon="8.9368583"><ele>133.20000000000002</ele><time>2026-04-21T10:49:54.666Z</time></trkpt><trkpt lat="44.5080267" lon="8.9369933"><ele>133.4</ele><time>2026-04-21T10:49:55.667Z</time></trkpt><trkpt lat="44.5080833" lon="8.9371217"><ele>133.60000000000002</ele><time>2026-04-21T10:49:56.667Z</time></trkpt><trkpt lat="44.5081417" lon="8.937225"><ele>133.8</ele><time>2026-04-21T10:49:57.666Z</time></trkpt><trkpt lat="44.5081983" lon="8.9373083"><ele>134.0</ele><time>2026-04-21T10:49:58.666Z</time></trkpt><trkpt lat="44.5082717" lon="8.9373583"><ele>134.0</ele><time>2026-04-21T10:49:59.667Z</time></trkpt><trkpt lat="44.50837" lon="8.9373783"><ele>134.0</ele><time>2026-04-21T10:50:00.667Z</time></trkpt><trkpt lat="44.5084833" lon="8.9373917"><ele>134.0</ele><time>2026-04-21T10:50:01.666Z</time></trkpt><trkpt lat="44.5086117" lon="8.937405"><ele>134.0</ele><time>2026-04-21T10:50:02.666Z</time></trkpt><trkpt lat="44.50874" lon="8.93742"><ele>135.0</ele><time>2026-04-21T10:50:03.666Z</time></trkpt><trkpt lat="44.5088683" lon="8.937445"><ele>136.0</ele><time>2026-04-21T10:50:04.666Z</time></trkpt><trkpt lat="44.5089933" lon="8.937465"><ele>137.0</ele><time>2026-04-21T10:50:05.666Z</time></trkpt><trkpt lat="44.5091083" lon="8.9375"><ele>138.0</ele><time>2026-04-21T10:50:06.666Z</time></trkpt><trkpt lat="44.5092233" lon="8.93755"><ele>138.20000000000002</ele><time>2026-04-21T10:50:07.667Z</time></trkpt><trkpt lat="44.5093333" lon="8.9375983"><ele>138.4</ele><time>2026-04-21T10:50:08.666Z</time></trkpt><trkpt lat="44.5094367" lon="8.9376483"><ele>138.60000000000002</ele><time>2026-04-21T10:50:09.667Z</time></trkpt><trkpt lat="44.50954" lon="8.9376967"><ele>138.8</ele><time>2026-04-21T10:50:10.667Z</time></trkpt><trkpt lat="44.5096467" lon="8.937745"><ele>139.0</ele><time>2026-04-21T10:50:11.666Z</time></trkpt><trkpt lat="44.5097483" lon="8.9377983"><ele>139.25</ele><time>2026-04-21T10:50:12.666Z</time></trkpt><trkpt lat="44.5098533" lon="8.9378717"><ele>139.5</ele><time>2026-04-21T10:50:13.666Z</time></trkpt><trkpt lat="44.509945" lon="8.9379733"><ele>139.75</ele><time>2026-04-21T10:50:14.667Z</time></trkpt><trkpt lat="44.5100467" lon="8.9380833"><ele>140.0</ele><time>2026-04-21T10:50:15.667Z</time></trkpt><trkpt lat="44.5101633" lon="8.9381983"><ele>140.0</ele><time>2026-04-21T10:50:16.666Z</time></trkpt><trkpt lat="44.5102883" lon="8.93831"><ele>140.0</ele><time>2026-04-21T10:50:17.666Z</time></trkpt><trkpt lat="44.510415" lon="8.938425"><ele>140.0</ele><time>2026-04-21T10:50:18.666Z</time></trkpt><trkpt lat="44.51053" lon="8.9385383"><ele>140.0</ele><time>2026-04-21T10:50:19.667Z</time></trkpt><trkpt lat="44.51063" lon="8.9386533"><ele>140.75</ele><time>2026-04-21T10:50:20.666Z</time></trkpt><trkpt lat="44.51073" lon="8.9387617"><ele>141.5</ele><time>2026-04-21T10:50:21.667Z</time></trkpt><trkpt lat="44.5108383" lon="8.938865"><ele>142.25</ele><time>2026-04-21T10:50:22.667Z</time></trkpt><trkpt lat="44.5109417" lon="8.938975"><ele>143.0</ele><time>2026-04-21T10:50:23.666Z</time></trkpt><trkpt lat="44.5110467" lon="8.9390817"><ele>143.0</ele><time>2026-04-21T10:50:24.666Z</time></trkpt><trkpt lat="44.5111567" lon="8.939185"><ele>143.0</ele><time>2026-04-21T10:50:25.667Z</time></trkpt><trkpt lat="44.511265" lon="8.9392967"><ele>143.0</ele><time>2026-04-21T10:50:26.667Z</time></trkpt><trkpt lat="44.51138" lon="8.93941"><ele>143.0</ele><time>2026-04-21T10:50:27.666Z</time></trkpt><trkpt lat="44.5114833" lon="8.9395383"><ele>144.5</ele><time>2026-04-21T10:50:28.667Z</time></trkpt><trkpt lat="44.51158" lon="8.9396617"><ele>146.0</ele><time>2026-04-21T10:50:29.667Z</time></trkpt><trkpt lat="44.5116767" lon="8.9397833"><ele>147.5</ele><time>2026-04-21T10:50:30.666Z</time></trkpt><trkpt lat="44.5117583" lon="8.9399283"><ele>149.0</ele><time>2026-04-21T10:50:31.667Z</time></trkpt><trkpt lat="44.5118433" lon="8.9400833"><ele>149.25</ele><time>2026-04-21T10:50:32.667Z</time></trkpt><trkpt lat="44.5119283" lon="8.9402367"><ele>149.5</ele><time>2026-04-21T10:50:33.666Z</time></trkpt><trkpt lat="44.5120133" lon="8.9403833"><ele>149.75</ele><time>2026-04-21T10:50:34.666Z</time></trkpt><trkpt lat="44.5120967" lon="8.94052"><ele>150.0</ele><time>2026-04-21T10:50:35.667Z</time></trkpt><trkpt lat="44.51218" lon="8.9406583"><ele>150.0</ele><time>2026-04-21T10:50:36.667Z</time></trkpt><trkpt lat="44.5122617" lon="8.9408067"><ele>150.0</ele><time>2026-04-21T10:50:37.667Z</time></trkpt><trkpt lat="44.5123383" lon="8.940945"><ele>150.0</ele><time>2026-04-21T10:50:38.667Z</time></trkpt><trkpt lat="44.5123967" lon="8.9411017"><ele>150.0</ele><time>2026-04-21T10:50:39.666Z</time></trkpt><trkpt lat="44.5124483" lon="8.9412717"><ele>150.5</ele><time>2026-04-21T10:50:40.666Z</time></trkpt><trkpt lat="44.5124967" lon="8.9414433"><ele>151.0</ele><time>2026-04-21T10:50:41.666Z</time></trkpt><trkpt lat="44.512545" lon="8.9416083"><ele>151.5</ele><time>2026-04-21T10:50:42.666Z</time></trkpt><trkpt lat="44.5125883" lon="8.9417783"><ele>152.0</ele><time>2026-04-21T10:50:43.666Z</time></trkpt><trkpt lat="44.51263" lon="8.941945"><ele>152.0</ele><time>2026-04-21T10:50:44.667Z</time></trkpt><trkpt lat="44.5126517" lon="8.9421083"><ele>152.0</ele><time>2026-04-21T10:50:45.666Z</time></trkpt><trkpt lat="44.51266" lon="8.94227"><ele>152.0</ele><time>2026-04-21T10:50:46.667Z</time></trkpt><trkpt lat="44.5126633" lon="8.9424267"><ele>152.0</ele><time>2026-04-21T10:50:47.666Z</time></trkpt><trkpt lat="44.512665" lon="8.9426033"><ele>153.0</ele><time>2026-04-21T10:50:48.667Z</time></trkpt><trkpt lat="44.5126583" lon="8.9427933"><ele>154.0</ele><time>2026-04-21T10:50:49.666Z</time></trkpt><trkpt lat="44.5126517" lon="8.943"><ele>155.0</ele><time>2026-04-21T10:50:50.666Z</time></trkpt><trkpt lat="44.5126433" lon="8.9432033"><ele>156.0</ele><time>2026-04-21T10:50:51.666Z</time></trkpt><trkpt lat="44.5126283" lon="8.94341"><ele>159.0</ele><time>2026-04-21T10:50:52.667Z</time></trkpt><trkpt lat="44.512615" lon="8.9436167"><ele>162.0</ele><time>2026-04-21T10:50:53.667Z</time></trkpt><trkpt lat="44.5126083" lon="8.9438433"><ele>165.0</ele><time>2026-04-21T10:50:54.667Z</time></trkpt><trkpt lat="44.5125917" lon="8.9440633"><ele>168.33333333333334</ele><time>2026-04-21T10:50:55.666Z</time></trkpt><trkpt lat="44.5125683" lon="8.9443133"><ele>171.66666666666669</ele><time>2026-04-21T10:50:56.667Z</time></trkpt><trkpt lat="44.5125633" lon="8.9445383"><ele>175.0</ele><time>2026-04-21T10:50:57.666Z</time></trkpt><trkpt lat="44.51255" lon="8.9447667"><ele>175.0</ele><time>2026-04-21T10:50:58.667Z</time></trkpt><trkpt lat="44.5125317" lon="8.9449967"><ele>175.0</ele><time>2026-04-21T10:50:59.666Z</time></trkpt><trkpt lat="44.5125167" lon="8.9452217"><ele>175.0</ele><time>2026-04-21T10:51:00.666Z</time></trkpt><trkpt lat="44.5124983" lon="8.9454417"><ele>175.75</ele><time>2026-04-21T10:51:01.667Z</time></trkpt><trkpt lat="44.51248" lon="8.945655"><ele>176.5</ele><time>2026-04-21T10:51:02.667Z</time></trkpt><trkpt lat="44.5124583" lon="8.94586"><ele>177.25</ele><time>2026-04-21T10:51:03.667Z</time></trkpt><trkpt lat="44.5124333" lon="8.9460567"><ele>178.0</ele><time>2026-04-21T10:51:04.666Z</time></trkpt><trkpt lat="44.5124183" lon="8.9462483"><ele>177.25</ele><time>2026-04-21T10:51:05.667Z</time></trkpt><trkpt lat="44.5124083" lon="8.9464217"><ele>176.5</ele><time>2026-04-21T10:51:06.666Z</time></trkpt><trkpt lat="44.5124083" lon="8.9466"><ele>175.75</ele><time>2026-04-21T10:51:07.666Z</time></trkpt><trkpt lat="44.5124233" lon="8.94676"><ele>175.0</ele><time>2026-04-21T10:51:08.667Z</time></trkpt><trkpt lat="44.512465" lon="8.94691"><ele>175.0</ele><time>2026-04-21T10:51:09.667Z</time></trkpt><trkpt lat="44.512515" lon="8.9470683"><ele>175.0</ele><time>2026-04-21T10:51:10.666Z</time></trkpt><trkpt lat="44.5125617" lon="8.9472417"><ele>175.0</ele><time>2026-04-21T10:51:11.667Z</time></trkpt><trkpt lat="44.5126083" lon="8.9474333"><ele>175.0</ele><time>2026-04-21T10:51:12.667Z</time></trkpt><trkpt lat="44.5126333" lon="8.94762"><ele>175.25</ele><time>2026-04-21T10:51:13.667Z</time></trkpt><trkpt lat="44.5126633" lon="8.9477983"><ele>175.5</ele><time>2026-04-21T10:51:14.666Z</time></trkpt><trkpt lat="44.5127117" lon="8.9479517"><ele>175.75</ele><time>2026-04-21T10:51:15.666Z</time></trkpt><trkpt lat="44.5127833" lon="8.9481017"><ele>176.0</ele><time>2026-04-21T10:51:16.666Z</time></trkpt><trkpt lat="44.5128733" lon="8.9482567"><ele>176.33333333333331</ele><time>2026-04-21T10:51:17.666Z</time></trkpt><trkpt lat="44.5129633" lon="8.9484233"><ele>176.66666666666666</ele><time>2026-04-21T10:51:18.666Z</time></trkpt><trkpt lat="44.513055" lon="8.9486033"><ele>177.0</ele><time>2026-04-21T10:51:19.666Z</time></trkpt><trkpt lat="44.5131467" lon="8.948785"><ele>177.0</ele><time>2026-04-21T10:51:20.666Z</time></trkpt><trkpt lat="44.51324" lon="8.9489783"><ele>177.0</ele><time>2026-04-21T10:51:21.667Z</time></trkpt><trkpt lat="44.5133317" lon="8.949185"><ele>177.0</ele><time>2026-04-21T10:51:22.666Z</time></trkpt><trkpt lat="44.5134183" lon="8.9493867"><ele>180.33333333333334</ele><time>2026-04-21T10:51:23.667Z</time></trkpt><trkpt lat="44.5135067" lon="8.9495933"><ele>183.66666666666669</ele><time>2026-04-21T10:51:24.666Z</time></trkpt><trkpt lat="44.5135917" lon="8.9497817"><ele>187.0</ele><time>2026-04-21T10:51:25.667Z</time></trkpt><trkpt lat="44.5136683" lon="8.9499517"><ele>186.75</ele><time>2026-04-21T10:51:26.666Z</time></trkpt><trkpt lat="44.5137567" lon="8.9501083"><ele>186.5</ele><time>2026-04-21T10:51:27.666Z</time></trkpt><trkpt lat="44.513835" lon="8.9502633"><ele>186.25</ele><time>2026-04-21T10:51:28.666Z</time></trkpt><trkpt lat="44.5139083" lon="8.950405"><ele>186.0</ele><time>2026-04-21T10:51:29.667Z</time></trkpt><trkpt lat="44.51397" lon="8.9505433"><ele>186.0</ele><time>2026-04-21T10:51:30.667Z</time></trkpt><trkpt lat="44.514015" lon="8.950675"><ele>186.0</ele><time>2026-04-21T10:51:31.667Z</time></trkpt><trkpt lat="44.5140517" lon="8.95079"><ele>186.0</ele><time>2026-04-21T10:51:32.666Z</time></trkpt><trkpt lat="44.51406" lon="8.950895"><ele>186.0</ele><time>2026-04-21T10:51:33.666Z</time></trkpt><trkpt lat="44.5140417" lon="8.9509967"><ele>186.0</ele><time>2026-04-21T10:51:34.666Z</time></trkpt><trkpt lat="44.514" lon="8.951095"><ele>186.0</ele><time>2026-04-21T10:51:35.666Z</time></trkpt><trkpt lat="44.5139417" lon="8.951195"><ele>186.83333333333334</ele><time>2026-04-21T10:51:36.666Z</time></trkpt><trkpt lat="44.5138817" lon="8.9512817"><ele>187.66666666666666</ele><time>2026-04-21T10:51:37.666Z</time></trkpt><trkpt lat="44.5138133" lon="8.9513517"><ele>188.5</ele><time>2026-04-21T10:51:38.666Z</time></trkpt><trkpt lat="44.5137483" lon="8.9513683"><ele>189.33333333333331</ele><time>2026-04-21T10:51:39.666Z</time></trkpt><trkpt lat="44.5136717" lon="8.9513517"><ele>190.16666666666666</ele><time>2026-04-21T10:51:40.667Z</time></trkpt><trkpt lat="44.5135983" lon="8.9513033"><ele>191.0</ele><time>2026-04-21T10:51:41.667Z</time></trkpt><trkpt lat="44.513535" lon="8.951215"><ele>192.75</ele><time>2026-04-21T10:51:42.666Z</time></trkpt><trkpt lat="44.513475" lon="8.9511067"><ele>194.5</ele><time>2026-04-21T10:51:43.666Z</time></trkpt><trkpt lat="44.5134283" lon="8.95094"><ele>196.25</ele><time>2026-04-21T10:51:44.667Z</time></trkpt><trkpt lat="44.51336" lon="8.9507917"><ele>198.0</ele><time>2026-04-21T10:51:45.666Z</time></trkpt><trkpt lat="44.51329" lon="8.9506183"><ele>198.0</ele><time>2026-04-21T10:51:46.666Z</time></trkpt><trkpt lat="44.5132117" lon="8.9504567"><ele>198.0</ele><time>2026-04-21T10:51:47.666Z</time></trkpt><trkpt lat="44.5131217" lon="8.9502667"><ele>198.0</ele><time>2026-04-21T10:51:48.666Z</time></trkpt><trkpt lat="44.513025" lon="8.9500883"><ele>194.33333333333334</ele><time>2026-04-21T10:51:49.667Z</time></trkpt><trkpt lat="44.51293" lon="8.9499167"><ele>190.66666666666669</ele><time>2026-04-21T10:51:50.667Z</time></trkpt><trkpt lat="44.5128367" lon="8.949755"><ele>187.0</ele><time>2026-04-21T10:51:51.667Z</time></trkpt><trkpt lat="44.51274" lon="8.9495917"><ele>191.0</ele><time>2026-04-21T10:51:52.666Z</time></trkpt><trkpt lat="44.51263" lon="8.9494367"><ele>195.0</ele><time>2026-04-21T10:51:53.666Z</time></trkpt><trkpt lat="44.5125183" lon="8.9492733"><ele>199.0</ele><time>2026-04-21T10:51:54.666Z</time></trkpt><trkpt lat="44.5124183" lon="8.9491217"><ele>199.0</ele><time>2026-04-21T10:51:55.666Z</time></trkpt><trkpt lat="44.512325" lon="8.9489783"><ele>199.0</ele><time>2026-04-21T10:51:56.666Z</time></trkpt><trkpt lat="44.512225" lon="8.94884"><ele>199.0</ele><time>2026-04-21T10:51:57.667Z</time></trkpt><trkpt lat="44.512115" lon="8.94873"><ele>199.0</ele><time>2026-04-21T10:51:58.667Z</time></trkpt><trkpt lat="44.5120233" lon="8.9486067"><ele>205.75</ele><time>2026-04-21T10:51:59.666Z</time></trkpt><trkpt lat="44.5119467" lon="8.948455"><ele>212.5</ele><time>2026-04-21T10:52:00.666Z</time></trkpt><trkpt lat="44.5118733" lon="8.948285"><ele>219.25</ele><time>2026-04-21T10:52:01.666Z</time></trkpt><trkpt lat="44.51181" lon="8.9480883"><ele>226.0</ele><time>2026-04-21T10:52:02.666Z</time></trkpt><trkpt lat="44.51175" lon="8.9478917"><ele>226.0</ele><time>2026-04-21T10:52:03.666Z</time></trkpt><trkpt lat="44.51169" lon="8.9476917"><ele>226.0</ele><time>2026-04-21T10:52:04.666Z</time></trkpt><trkpt lat="44.5116617" lon="8.9474917"><ele>226.0</ele><time>2026-04-21T10:52:05.667Z</time></trkpt><trkpt lat="44.5116417" lon="8.947285"><ele>226.0</ele><time>2026-04-21T10:52:06.666Z</time></trkpt><trkpt lat="44.5116333" lon="8.9470767"><ele>222.5</ele><time>2026-04-21T10:52:07.667Z</time></trkpt><trkpt lat="44.5116283" lon="8.946875"><ele>219.0</ele><time>2026-04-21T10:52:08.666Z</time></trkpt><trkpt lat="44.511625" lon="8.9466767"><ele>215.5</ele><time>2026-04-21T10:52:09.666Z</time></trkpt><trkpt lat="44.5116033" lon="8.946505"><ele>212.0</ele><time>2026-04-21T10:52:10.667Z</time></trkpt><trkpt lat="44.5115583" lon="8.94634"><ele>209.75</ele><time>2026-04-21T10:52:11.667Z</time></trkpt><trkpt lat="44.5115033" lon="8.9461783"><ele>207.5</ele><time>2026-04-21T10:52:12.666Z</time></trkpt><trkpt lat="44.5114467" lon="8.9460067"><ele>205.25</ele><time>2026-04-21T10:52:13.667Z</time></trkpt><trkpt lat="44.5113883" lon="8.9458233"><ele>203.0</ele><time>2026-04-21T10:52:14.666Z</time></trkpt><trkpt lat="44.511325" lon="8.9456333"><ele>202.33333333333334</ele><time>2026-04-21T10:52:15.666Z</time></trkpt><trkpt lat="44.511265" lon="8.94544"><ele>201.66666666666669</ele><time>2026-04-21T10:52:16.666Z</time></trkpt><trkpt lat="44.5112067" lon="8.945235"><ele>201.0</ele><time>2026-04-21T10:52:17.666Z</time></trkpt><trkpt lat="44.511155" lon="8.9450433"><ele>210.75</ele><time>2026-04-21T10:52:18.666Z</time></trkpt><trkpt lat="44.51112" lon="8.9448533"><ele>220.5</ele><time>2026-04-21T10:52:19.667Z</time></trkpt><trkpt lat="44.51111" lon="8.94466"><ele>230.25</ele><time>2026-04-21T10:52:20.667Z</time></trkpt><trkpt lat="44.511125" lon="8.944455"><ele>240.0</ele><time>2026-04-21T10:52:21.666Z</time></trkpt><trkpt lat="44.5111317" lon="8.9442517"><ele>238.0</ele><time>2026-04-21T10:52:22.666Z</time></trkpt><trkpt lat="44.5111083" lon="8.9440533"><ele>236.0</ele><time>2026-04-21T10:52:23.666Z</time></trkpt><trkpt lat="44.5110717" lon="8.9438533"><ele>234.0</ele><time>2026-04-21T10:52:24.667Z</time></trkpt><trkpt lat="44.5110217" lon="8.9436533"><ele>232.0</ele><time>2026-04-21T10:52:25.666Z</time></trkpt><trkpt lat="44.510985" lon="8.9434533"><ele>230.25</ele><time>2026-04-21T10:52:26.666Z</time></trkpt><trkpt lat="44.510965" lon="8.9432517"><ele>228.5</ele><time>2026-04-21T10:52:27.666Z</time></trkpt><trkpt lat="44.51095" lon="8.9430667"><ele>226.75</ele><time>2026-04-21T10:52:28.666Z</time></trkpt><trkpt lat="44.51093" lon="8.9429167"><ele>225.0</ele><time>2026-04-21T10:52:29.666Z</time></trkpt><trkpt lat="44.5108867" lon="8.942825"><ele>225.0</ele><time>2026-04-21T10:52:30.667Z</time></trkpt><trkpt lat="44.5108217" lon="8.942735"><ele>225.0</ele><time>2026-04-21T10:52:31.667Z</time></trkpt><trkpt lat="44.510735" lon="8.9426483"><ele>225.0</ele><time>2026-04-21T10:52:32.666Z</time></trkpt><trkpt lat="44.5106383" lon="8.9425483"><ele>225.0</ele><time>2026-04-21T10:52:33.666Z</time></trkpt><trkpt lat="44.5105417" lon="8.9424333"><ele>225.0</ele><time>2026-04-21T10:52:34.667Z</time></trkpt><trkpt lat="44.510445" lon="8.94231"><ele>227.5</ele><time>2026-04-21T10:52:35.666Z</time></trkpt><trkpt lat="44.5103483" lon="8.9421817"><ele>230.0</ele><time>2026-04-21T10:52:36.667Z</time></trkpt><trkpt lat="44.51025" lon="8.942065"><ele>232.5</ele><time>2026-04-21T10:52:37.667Z</time></trkpt><trkpt lat="44.5101517" lon="8.9419783"><ele>235.0</ele><time>2026-04-21T10:52:38.666Z</time></trkpt><trkpt lat="44.510045" lon="8.9419417"><ele>235.0</ele><time>2026-04-21T10:52:39.667Z</time></trkpt><trkpt lat="44.5099267" lon="8.94196"><ele>235.0</ele><time>2026-04-21T10:52:40.667Z</time></trkpt><trkpt lat="44.5098033" lon="8.9419983"><ele>235.0</ele><time>2026-04-21T10:52:41.666Z</time></trkpt><trkpt lat="44.50967" lon="8.9420283"><ele>235.0</ele><time>2026-04-21T10:52:42.666Z</time></trkpt><trkpt lat="44.50954" lon="8.9420433"><ele>231.8</ele><time>2026-04-21T10:52:43.666Z</time></trkpt><trkpt lat="44.5094217" lon="8.9420483"><ele>228.6</ele><time>2026-04-21T10:52:44.666Z</time></trkpt><trkpt lat="44.5093183" lon="8.9420667"><ele>225.39999999999998</ele><time>2026-04-21T10:52:45.667Z</time></trkpt><trkpt lat="44.5092217" lon="8.942135"><ele>222.2</ele><time>2026-04-21T10:52:46.667Z</time></trkpt><trkpt lat="44.5091383" lon="8.9422267"><ele>219.0</ele><time>2026-04-21T10:52:47.666Z</time></trkpt><trkpt lat="44.5090633" lon="8.94236"><ele>219.0</ele><time>2026-04-21T10:52:48.667Z</time></trkpt><trkpt lat="44.5089883" lon="8.9425283"><ele>219.0</ele><time>2026-04-21T10:52:49.667Z</time></trkpt><trkpt lat="44.508945" lon="8.9427133"><ele>219.0</ele><time>2026-04-21T10:52:50.667Z</time></trkpt><trkpt lat="44.5089067" lon="8.9429033"><ele>219.0</ele><time>2026-04-21T10:52:51.666Z</time></trkpt><trkpt lat="44.5088717" lon="8.9431283"><ele>217.66666666666669</ele><time>2026-04-21T10:52:52.666Z</time></trkpt><trkpt lat="44.5088183" lon="8.9433483"><ele>216.33333333333334</ele><time>2026-04-21T10:52:53.666Z</time></trkpt><trkpt lat="44.508755" lon="8.9435817"><ele>215.0</ele><time>2026-04-21T10:52:54.666Z</time></trkpt><trkpt lat="44.50869" lon="8.9437967"><ele>215.0</ele><time>2026-04-21T10:52:55.666Z</time></trkpt><trkpt lat="44.50861" lon="8.94399"><ele>215.0</ele><time>2026-04-21T10:52:56.666Z</time></trkpt><trkpt lat="44.5085317" lon="8.94418"><ele>215.0</ele><time>2026-04-21T10:52:57.667Z</time></trkpt><trkpt lat="44.5084517" lon="8.9443467"><ele>221.0</ele><time>2026-04-21T10:52:58.666Z</time></trkpt><trkpt lat="44.5083783" lon="8.9444933"><ele>227.0</ele><time>2026-04-21T10:52:59.667Z</time></trkpt><trkpt lat="44.5083367" lon="8.9446367"><ele>233.0</ele><time>2026-04-21T10:53:00.666Z</time></trkpt><trkpt lat="44.5083083" lon="8.9448017"><ele>239.0</ele><time>2026-04-21T10:53:01.667Z</time></trkpt><trkpt lat="44.50829" lon="8.944985"><ele>243.66666666666669</ele><time>2026-04-21T10:53:02.667Z</time></trkpt><trkpt lat="44.5082533" lon="8.9451783"><ele>248.33333333333331</ele><time>2026-04-21T10:53:03.667Z</time></trkpt><trkpt lat="44.5081883" lon="8.94538"><ele>253.0</ele><time>2026-04-21T10:53:04.666Z</time></trkpt><trkpt lat="44.50812" lon="8.9455733"><ele>253.0</ele><time>2026-04-21T10:53:05.667Z</time></trkpt><trkpt lat="44.5080533" lon="8.9457667"><ele>253.0</ele><time>2026-04-21T10:53:06.667Z</time></trkpt><trkpt lat="44.5079883" lon="8.9459617"><ele>253.0</ele><time>2026-04-21T10:53:07.666Z</time></trkpt><trkpt lat="44.5079233" lon="8.9461283"><ele>253.0</ele><time>2026-04-21T10:53:08.666Z</time></trkpt><trkpt lat="44.507865" lon="8.9462783"><ele>248.5</ele><time>2026-04-21T10:53:09.666Z</time></trkpt><trkpt lat="44.507825" lon="8.9464467"><ele>244.0</ele><time>2026-04-21T10:53:10.667Z</time></trkpt><trkpt lat="44.507795" lon="8.9466333"><ele>239.5</ele><time>2026-04-21T10:53:11.667Z</time></trkpt><trkpt lat="44.5077667" lon="8.9468417"><ele>235.0</ele><time>2026-04-21T10:53:12.667Z</time></trkpt><trkpt lat="44.507745" lon="8.947055"><ele>235.0</ele><time>2026-04-21T10:53:13.667Z</time></trkpt><trkpt lat="44.5077183" lon="8.947265"><ele>235.0</ele><time>2026-04-21T10:53:14.666Z</time></trkpt><trkpt lat="44.507695" lon="8.947475"><ele>235.0</ele><time>2026-04-21T10:53:15.666Z</time></trkpt><trkpt lat="44.5076667" lon="8.9476633"><ele>235.0</ele><time>2026-04-21T10:53:16.667Z</time></trkpt><trkpt lat="44.5076417" lon="8.94784"><ele>240.25</ele><time>2026-04-21T10:53:17.666Z</time></trkpt><trkpt lat="44.5076017" lon="8.948005"><ele>245.5</ele><time>2026-04-21T10:53:18.666Z</time></trkpt><trkpt lat="44.5075317" lon="8.948155"><ele>250.75</ele><time>2026-04-21T10:53:19.666Z</time></trkpt><trkpt lat="44.5074467" lon="8.948305"><ele>256.0</ele><time>2026-04-21T10:53:20.666Z</time></trkpt><trkpt lat="44.5073817" lon="8.9484717"><ele>253.25</ele><time>2026-04-21T10:53:21.666Z</time></trkpt><trkpt lat="44.507325" lon="8.9486433"><ele>250.5</ele><time>2026-04-21T10:53:22.667Z</time></trkpt><trkpt lat="44.50726" lon="8.948815"><ele>247.75</ele><time>2026-04-21T10:53:23.667Z</time></trkpt><trkpt lat="44.5071733" lon="8.948955"><ele>245.0</ele><time>2026-04-21T10:53:24.667Z</time></trkpt><trkpt lat="44.5070683" lon="8.949055"><ele>245.0</ele><time>2026-04-21T10:53:25.666Z</time></trkpt><trkpt lat="44.50695" lon="8.9491233"><ele>245.0</ele><time>2026-04-21T10:53:26.667Z</time></trkpt><trkpt lat="44.506835" lon="8.949185"><ele>245.0</ele><time>2026-04-21T10:53:27.667Z</time></trkpt><trkpt lat="44.5067533" lon="8.9492433"><ele>245.0</ele><time>2026-04-21T10:53:28.666Z</time></trkpt><trkpt lat="44.5066933" lon="8.9493133"><ele>245.0</ele><time>2026-04-21T10:53:29.666Z</time></trkpt><trkpt lat="44.5066583" lon="8.9493983"><ele>246.8</ele><time>2026-04-21T10:53:30.666Z</time></trkpt><trkpt lat="44.5066583" lon="8.9495083"><ele>248.6</ele><time>2026-04-21T10:53:31.667Z</time></trkpt><trkpt lat="44.50671" lon="8.9496367"><ele>250.39999999999998</ele><time>2026-04-21T10:53:32.666Z</time></trkpt><trkpt lat="44.5067983" lon="8.9497733"><ele>252.2</ele><time>2026-04-21T10:53:33.667Z</time></trkpt><trkpt lat="44.5068783" lon="8.949915"><ele>254.0</ele><time>2026-04-21T10:53:34.666Z</time></trkpt><trkpt lat="44.5069217" lon="8.9500517"><ele>257.25</ele><time>2026-04-21T10:53:35.666Z</time></trkpt><trkpt lat="44.5069217" lon="8.9502033"><ele>260.5</ele><time>2026-04-21T10:53:36.666Z</time></trkpt><trkpt lat="44.5068867" lon="8.9503633"><ele>263.75</ele><time>2026-04-21T10:53:37.666Z</time></trkpt><trkpt lat="44.5068183" lon="8.9504933"><ele>267.0</ele><time>2026-04-21T10:53:38.667Z</time></trkpt><trkpt lat="44.5067217" lon="8.9505917"><ele>267.0</ele><time>2026-04-21T10:53:39.666Z</time></trkpt><trkpt lat="44.5065983" lon="8.9506417"><ele>267.0</ele><time>2026-04-21T10:53:40.666Z</time></trkpt><trkpt lat="44.5064717" lon="8.950685"><ele>267.0</ele><time>2026-04-21T10:53:41.667Z</time></trkpt><trkpt lat="44.5063617" lon="8.95073"><ele>267.0</ele><time>2026-04-21T10:53:42.666Z</time></trkpt><trkpt lat="44.5062533" lon="8.9507783"><ele>265.2</ele><time>2026-04-21T10:53:43.666Z</time></trkpt><trkpt lat="44.50615" lon="8.9508367"><ele>263.4</ele><time>2026-04-21T10:53:44.667Z</time></trkpt><trkpt lat="44.5060583" lon="8.9509117"><ele>261.6</ele><time>2026-04-21T10:53:45.666Z</time></trkpt><trkpt lat="44.5059883" lon="8.9510017"><ele>259.8</ele><time>2026-04-21T10:53:46.666Z</time></trkpt><trkpt lat="44.5059417" lon="8.9511017"><ele>258.0</ele><time>2026-04-21T10:53:47.666Z</time></trkpt><trkpt lat="44.5059183" lon="8.95121"><ele>258.0</ele><time>2026-04-21T10:53:48.666Z</time></trkpt><trkpt lat="44.5059267" lon="8.9513367"><ele>258.0</ele><time>2026-04-21T10:53:49.667Z</time></trkpt><trkpt lat="44.5059633" lon="8.9514883"><ele>258.0</ele><time>2026-04-21T10:53:50.667Z</time></trkpt><trkpt lat="44.50601" lon="8.9516733"><ele>258.0</ele><time>2026-04-21T10:53:51.667Z</time></trkpt><trkpt lat="44.5060483" lon="8.9518583"><ele>258.0</ele><time>2026-04-21T10:53:52.666Z</time></trkpt><trkpt lat="44.5060817" lon="8.9520317"><ele>258.0</ele><time>2026-04-21T10:53:53.667Z</time></trkpt><trkpt lat="44.5061133" lon="8.9521883"><ele>258.0</ele><time>2026-04-21T10:53:54.666Z</time></trkpt><trkpt lat="44.506145" lon="8.9523433"><ele>258.0</ele><time>2026-04-21T10:53:55.666Z</time></trkpt><trkpt lat="44.5061483" lon="8.9524883"><ele>261.8</ele><time>2026-04-21T10:53:56.667Z</time></trkpt><trkpt lat="44.5061283" lon="8.9526217"><ele>265.6</ele><time>2026-04-21T10:53:57.667Z</time></trkpt><trkpt lat="44.506075" lon="8.952745"><ele>269.4</ele><time>2026-04-21T10:53:58.666Z</time></trkpt><trkpt lat="44.5060067" lon="8.9528567"><ele>273.2</ele><time>2026-04-21T10:53:59.667Z</time></trkpt><trkpt lat="44.5059667" lon="8.9529817"><ele>277.0</ele><time>2026-04-21T10:54:00.667Z</time></trkpt><trkpt lat="44.5059483" lon="8.9531317"><ele>277.0</ele><time>2026-04-21T10:54:01.666Z</time></trkpt><trkpt lat="44.5059383" lon="8.9532867"><ele>277.0</ele><time>2026-04-21T10:54:02.667Z</time></trkpt><trkpt lat="44.50594" lon="8.953455"><ele>277.0</ele><time>2026-04-21T10:54:03.666Z</time></trkpt><trkpt lat="44.5059533" lon="8.95362"><ele>277.0</ele><time>2026-04-21T10:54:04.667Z</time></trkpt><trkpt lat="44.5059717" lon="8.9537783"><ele>281.0</ele><time>2026-04-21T10:54:05.666Z</time></trkpt><trkpt lat="44.505985" lon="8.9539183"><ele>285.0</ele><time>2026-04-21T10:54:06.666Z</time></trkpt><trkpt lat="44.505985" lon="8.95404"><ele>289.0</ele><time>2026-04-21T10:54:07.666Z</time></trkpt><trkpt lat="44.5059583" lon="8.9541333"><ele>293.0</ele><time>2026-04-21T10:54:08.667Z</time></trkpt><trkpt lat="44.505915" lon="8.954215"><ele>297.0</ele><time>2026-04-21T10:54:09.666Z</time></trkpt><trkpt lat="44.5058433" lon="8.9542833"><ele>301.0</ele><time>2026-04-21T10:54:10.666Z</time></trkpt><trkpt lat="44.5057517" lon="8.9543317"><ele>310.25</ele><time>2026-04-21T10:54:11.666Z</time></trkpt><trkpt lat="44.5056467" lon="8.9543867"><ele>319.5</ele><time>2026-04-21T10:54:12.666Z</time></trkpt><trkpt lat="44.505535" lon="8.9544217"><ele>328.75</ele><time>2026-04-21T10:54:13.667Z</time></trkpt><trkpt lat="44.5054217" lon="8.9544067"><ele>338.0</ele><time>2026-04-21T10:54:14.666Z</time></trkpt><trkpt lat="44.505315" lon="8.9543533"><ele>338.0</ele><time>2026-04-21T10:54:15.667Z</time></trkpt><trkpt lat="44.5052117" lon="8.9543117"><ele>338.0</ele><time>2026-04-21T10:54:16.667Z</time></trkpt><trkpt lat="44.5051117" lon="8.9542983"><ele>338.0</ele><time>2026-04-21T10:54:17.667Z</time></trkpt><trkpt lat="44.5049983" lon="8.9542983"><ele>338.0</ele><time>2026-04-21T10:54:18.667Z</time></trkpt><trkpt lat="44.504875" lon="8.95431"><ele>338.0</ele><time>2026-04-21T10:54:19.667Z</time></trkpt><trkpt lat="44.5047417" lon="8.95435"><ele>338.0</ele><time>2026-04-21T10:54:20.667Z</time></trkpt><trkpt lat="44.50461" lon="8.9543767"><ele>338.0</ele><time>2026-04-21T10:54:21.666Z</time></trkpt><trkpt lat="44.50448" lon="8.9543983"><ele>338.0</ele><time>2026-04-21T10:54:22.667Z</time></trkpt><trkpt lat="44.5043617" lon="8.9543983"><ele>338.0</ele><time>2026-04-21T10:54:23.667Z</time></trkpt><trkpt lat="44.5042567" lon="8.9544067"><ele>332.83333333333337</ele><time>2026-04-21T10:54:24.666Z</time></trkpt><trkpt lat="44.50416" lon="8.9544283"><ele>327.6666666666667</ele><time>2026-04-21T10:54:25.666Z</time></trkpt><trkpt lat="44.5040833" lon="8.9544783"><ele>322.5</ele><time>2026-04-21T10:54:26.667Z</time></trkpt><trkpt lat="44.5040183" lon="8.9545267"><ele>317.3333333333333</ele><time>2026-04-21T10:54:27.666Z</time></trkpt><trkpt lat="44.5039733" lon="8.9546083"><ele>312.16666666666663</ele><time>2026-04-21T10:54:28.666Z</time></trkpt><trkpt lat="44.5039467" lon="8.954705"><ele>307.0</ele><time>2026-04-21T10:54:29.667Z</time></trkpt><trkpt lat="44.503965" lon="8.9548333"><ele>307.0</ele><time>2026-04-21T10:54:30.667Z</time></trkpt><trkpt lat="44.5040067" lon="8.95496"><ele>307.0</ele><time>2026-04-21T10:54:31.666Z</time></trkpt><trkpt lat="44.5040617" lon="8.95508"><ele>307.0</ele><time>2026-04-21T10:54:32.666Z</time></trkpt><trkpt lat="44.5041283" lon="8.9552083"><ele>307.0</ele><time>2026-04-21T10:54:33.666Z</time></trkpt><trkpt lat="44.5041633" lon="8.9553433"><ele>307.0</ele><time>2026-04-21T10:54:34.666Z</time></trkpt><trkpt lat="44.504165" lon="8.9554767"><ele>310.0</ele><time>2026-04-21T10:54:35.667Z</time></trkpt><trkpt lat="44.5041367" lon="8.9556217"><ele>313.0</ele><time>2026-04-21T10:54:36.666Z</time></trkpt><trkpt lat="44.5041133" lon="8.9557833"><ele>316.0</ele><time>2026-04-21T10:54:37.667Z</time></trkpt><trkpt lat="44.50407" lon="8.955955"><ele>319.0</ele><time>2026-04-21T10:54:38.667Z</time></trkpt><trkpt lat="44.5040267" lon="8.956105"><ele>320.0</ele><time>2026-04-21T10:54:39.666Z</time></trkpt><trkpt lat="44.5039867" lon="8.95624"><ele>321.0</ele><time>2026-04-21T10:54:40.666Z</time></trkpt><trkpt lat="44.5039583" lon="8.9563633"><ele>322.0</ele><time>2026-04-21T10:54:41.666Z</time></trkpt><trkpt lat="44.5039567" lon="8.9564933"><ele>323.0</ele><time>2026-04-21T10:54:42.666Z</time></trkpt><trkpt lat="44.5039733" lon="8.9566433"><ele>324.0</ele><time>2026-04-21T10:54:43.666Z</time></trkpt><trkpt lat="44.504005" lon="8.9567983"><ele>324.0</ele><time>2026-04-21T10:54:44.667Z</time></trkpt><trkpt lat="44.5040517" lon="8.95697"><ele>324.0</ele><time>2026-04-21T10:54:45.666Z</time></trkpt><trkpt lat="44.5041017" lon="8.95712"><ele>324.0</ele><time>2026-04-21T10:54:46.667Z</time></trkpt><trkpt lat="44.5041483" lon="8.9572617"><ele>324.0</ele><time>2026-04-21T10:54:47.666Z</time></trkpt><trkpt lat="44.5041933" lon="8.9574033"><ele>324.0</ele><time>2026-04-21T10:54:48.667Z</time></trkpt><trkpt lat="44.5042083" lon="8.9575317"><ele>324.0</ele><time>2026-04-21T10:54:49.667Z</time></trkpt><trkpt lat="44.504195" lon="8.957655"><ele>324.0</ele><time>2026-04-21T10:54:50.666Z</time></trkpt><trkpt lat="44.50416" lon="8.9577717"><ele>324.0</ele><time>2026-04-21T10:54:51.666Z</time></trkpt><trkpt lat="44.5041317" lon="8.957875"><ele>324.0</ele><time>2026-04-21T10:54:52.667Z</time></trkpt><trkpt lat="44.5041117" lon="8.9579867"><ele>324.0</ele><time>2026-04-21T10:54:53.666Z</time></trkpt><trkpt lat="44.5040983" lon="8.9580883"><ele>323.6</ele><time>2026-04-21T10:54:54.667Z</time></trkpt><trkpt lat="44.5041183" lon="8.95821"><ele>323.2</ele><time>2026-04-21T10:54:55.666Z</time></trkpt><trkpt lat="44.50417" lon="8.9583367"><ele>322.8</ele><time>2026-04-21T10:54:56.667Z</time></trkpt><trkpt lat="44.50426" lon="8.9584633"><ele>322.40000000000003</ele><time>2026-04-21T10:54:57.667Z</time></trkpt><trkpt lat="44.5043433" lon="8.958585"><ele>322.0</ele><time>2026-04-21T10:54:58.667Z</time></trkpt><trkpt lat="44.5044017" lon="8.9586933"><ele>326.40000000000003</ele><time>2026-04-21T10:54:59.667Z</time></trkpt><trkpt lat="44.50441" lon="8.9588117"><ele>330.8</ele><time>2026-04-21T10:55:00.666Z</time></trkpt><trkpt lat="44.5043883" lon="8.958915"><ele>335.2</ele><time>2026-04-21T10:55:01.666Z</time></trkpt><trkpt lat="44.50434" lon="8.9590083"><ele>339.6</ele><time>2026-04-21T10:55:02.667Z</time></trkpt><trkpt lat="44.50426" lon="8.9590983"><ele>344.0</ele><time>2026-04-21T10:55:03.667Z</time></trkpt><trkpt lat="44.5041533" lon="8.9591517"><ele>344.0</ele><time>2026-04-21T10:55:04.666Z</time></trkpt><trkpt lat="44.504005" lon="8.9591533"><ele>344.0</ele><time>2026-04-21T10:55:05.667Z</time></trkpt><trkpt lat="44.503855" lon="8.959155"><ele>344.0</ele><time>2026-04-21T10:55:06.667Z</time></trkpt><trkpt lat="44.5037083" lon="8.95917"><ele>344.0</ele><time>2026-04-21T10:55:07.667Z</time></trkpt><trkpt lat="44.5035833" lon="8.9591933"><ele>344.4</ele><time>2026-04-21T10:55:08.667Z</time></trkpt><trkpt lat="44.503465" lon="8.95921"><ele>344.79999999999995</ele><time>2026-04-21T10:55:09.666Z</time></trkpt><trkpt lat="44.50337" lon="8.9592517"><ele>345.20000000000005</ele><time>2026-04-21T10:55:10.666Z</time></trkpt><trkpt lat="44.503295" lon="8.9592917"><ele>345.6</ele><time>2026-04-21T10:55:11.666Z</time></trkpt><trkpt lat="44.5032317" lon="8.9593517"><ele>346.0</ele><time>2026-04-21T10:55:12.666Z</time></trkpt><trkpt lat="44.5031833" lon="8.9594317"><ele>346.0</ele><time>2026-04-21T10:55:13.666Z</time></trkpt><trkpt lat="44.5031533" lon="8.9595483"><ele>346.0</ele><time>2026-04-21T10:55:14.666Z</time></trkpt><trkpt lat="44.5031533" lon="8.959735"><ele>346.0</ele><time>2026-04-21T10:55:15.666Z</time></trkpt><trkpt lat="44.5031683" lon="8.959965"><ele>346.0</ele><time>2026-04-21T10:55:16.666Z</time></trkpt><trkpt lat="44.503165" lon="8.9601717"><ele>352.25</ele><time>2026-04-21T10:55:17.667Z</time></trkpt><trkpt lat="44.5031467" lon="8.960365"><ele>358.5</ele><time>2026-04-21T10:55:18.667Z</time></trkpt><trkpt lat="44.5031117" lon="8.9605383"><ele>364.75</ele><time>2026-04-21T10:55:19.667Z</time></trkpt><trkpt lat="44.5030683" lon="8.9606733"><ele>371.0</ele><time>2026-04-21T10:55:20.666Z</time></trkpt><trkpt lat="44.5030017" lon="8.96078"><ele>367.4</ele><time>2026-04-21T10:55:21.667Z</time></trkpt><trkpt lat="44.5029033" lon="8.9608583"><ele>363.8</ele><time>2026-04-21T10:55:22.666Z</time></trkpt><trkpt lat="44.5028117" lon="8.9608967"><ele>360.2</ele><time>2026-04-21T10:55:23.666Z</time></trkpt><trkpt lat="44.5027167" lon="8.9609333"><ele>356.59999999999997</ele><time>2026-04-21T10:55:24.666Z</time></trkpt><trkpt lat="44.5026367" lon="8.9609933"><ele>353.0</ele><time>2026-04-21T10:55:25.667Z</time></trkpt><trkpt lat="44.5025767" lon="8.9610917"><ele>353.0</ele><time>2026-04-21T10:55:26.667Z</time></trkpt><trkpt lat="44.5025417" lon="8.9612017"><ele>353.0</ele><time>2026-04-21T10:55:27.666Z</time></trkpt><trkpt lat="44.5025283" lon="8.9613517"><ele>353.0</ele><time>2026-04-21T10:55:28.666Z</time></trkpt><trkpt lat="44.5025133" lon="8.9615083"><ele>353.0</ele><time>2026-04-21T10:55:29.667Z</time></trkpt><trkpt lat="44.5024767" lon="8.9616483"><ele>353.0</ele><time>2026-04-21T10:55:30.666Z</time></trkpt><trkpt lat="44.50241" lon="8.9617683"><ele>352.2</ele><time>2026-04-21T10:55:31.666Z</time></trkpt><trkpt lat="44.5023217" lon="8.9618683"><ele>351.4</ele><time>2026-04-21T10:55:32.667Z</time></trkpt><trkpt lat="44.5022217" lon="8.9619433"><ele>350.59999999999997</ele><time>2026-04-21T10:55:33.667Z</time></trkpt><trkpt lat="44.502115" lon="8.9619767"><ele>349.79999999999995</ele><time>2026-04-21T10:55:34.666Z</time></trkpt><trkpt lat="44.5020133" lon="8.9620133"><ele>349.0</ele><time>2026-04-21T10:55:35.666Z</time></trkpt><trkpt lat="44.5019167" lon="8.9620933"><ele>349.0</ele><time>2026-04-21T10:55:36.667Z</time></trkpt><trkpt lat="44.5018367" lon="8.9622033"><ele>349.0</ele><time>2026-04-21T10:55:37.667Z</time></trkpt><trkpt lat="44.50178" lon="8.962365"><ele>349.0</ele><time>2026-04-21T10:55:38.666Z</time></trkpt><trkpt lat="44.5017217" lon="8.9625317"><ele>349.0</ele><time>2026-04-21T10:55:39.666Z</time></trkpt><trkpt lat="44.5016533" lon="8.9627"><ele>349.79999999999995</ele><time>2026-04-21T10:55:40.667Z</time></trkpt><trkpt lat="44.5015867" lon="8.962845"><ele>350.59999999999997</ele><time>2026-04-21T10:55:41.667Z</time></trkpt><trkpt lat="44.50154" lon="8.962975"><ele>351.4</ele><time>2026-04-21T10:55:42.667Z</time></trkpt><trkpt lat="44.5015317" lon="8.96309"><ele>352.2</ele><time>2026-04-21T10:55:43.667Z</time></trkpt><trkpt lat="44.5015583" lon="8.9632117"><ele>353.0</ele><time>2026-04-21T10:55:44.667Z</time></trkpt><trkpt lat="44.50162" lon="8.9633133"><ele>355.4</ele><time>2026-04-21T10:55:45.666Z</time></trkpt><trkpt lat="44.5017067" lon="8.9634117"><ele>357.79999999999995</ele><time>2026-04-21T10:55:46.666Z</time></trkpt><trkpt lat="44.5018" lon="8.9635117"><ele>360.2</ele><time>2026-04-21T10:55:47.666Z</time></trkpt><trkpt lat="44.5018883" lon="8.9635883"><ele>362.6</ele><time>2026-04-21T10:55:48.667Z</time></trkpt><trkpt lat="44.5019917" lon="8.9636433"><ele>365.0</ele><time>2026-04-21T10:55:49.667Z</time></trkpt><trkpt lat="44.5020983" lon="8.9636933"><ele>365.0</ele><time>2026-04-21T10:55:50.666Z</time></trkpt><trkpt lat="44.502215" lon="8.9637417"><ele>365.0</ele><time>2026-04-21T10:55:51.667Z</time></trkpt><trkpt lat="44.5023383" lon="8.963795"><ele>365.0</ele><time>2026-04-21T10:55:52.666Z</time></trkpt><trkpt lat="44.5024683" lon="8.9638367"><ele>365.0</ele><time>2026-04-21T10:55:53.667Z</time></trkpt><trkpt lat="44.5025967" lon="8.963865"><ele>365.0</ele><time>2026-04-21T10:55:54.667Z</time></trkpt><trkpt lat="44.5027133" lon="8.9638633"><ele>365.0</ele><time>2026-04-21T10:55:55.666Z</time></trkpt><trkpt lat="44.5028117" lon="8.9638817"><ele>365.0</ele><time>2026-04-21T10:55:56.667Z</time></trkpt><trkpt lat="44.5029" lon="8.9638967"><ele>365.0</ele><time>2026-04-21T10:55:57.666Z</time></trkpt><trkpt lat="44.5029767" lon="8.9639067"><ele>365.0</ele><time>2026-04-21T10:55:58.667Z</time></trkpt><trkpt lat="44.5030517" lon="8.9640183"><ele>361.75</ele><time>2026-04-21T10:56:00.667Z</time></trkpt><trkpt lat="44.5030417" lon="8.9641167"><ele>358.5</ele><time>2026-04-21T10:56:01.666Z</time></trkpt><trkpt lat="44.5029983" lon="8.9642583"><ele>355.25</ele><time>2026-04-21T10:56:02.666Z</time></trkpt><trkpt lat="44.50292" lon="8.9644467"><ele>352.0</ele><time>2026-04-21T10:56:03.666Z</time></trkpt><trkpt lat="44.502845" lon="8.9646567"><ele>352.0</ele><time>2026-04-21T10:56:04.666Z</time></trkpt><trkpt lat="44.5027833" lon="8.9648267"><ele>352.0</ele><time>2026-04-21T10:56:05.666Z</time></trkpt><trkpt lat="44.5027617" lon="8.9649917"><ele>352.0</ele><time>2026-04-21T10:56:06.666Z</time></trkpt><trkpt lat="44.5027533" lon="8.9651517"><ele>352.0</ele><time>2026-04-21T10:56:07.666Z</time></trkpt><trkpt lat="44.5027733" lon="8.9652883"><ele>350.75</ele><time>2026-04-21T10:56:08.666Z</time></trkpt><trkpt lat="44.5028383" lon="8.9654083"><ele>349.5</ele><time>2026-04-21T10:56:09.666Z</time></trkpt><trkpt lat="44.502925" lon="8.9655417"><ele>348.25</ele><time>2026-04-21T10:56:10.666Z</time></trkpt><trkpt lat="44.502985" lon="8.9656833"><ele>347.0</ele><time>2026-04-21T10:56:11.666Z</time></trkpt><trkpt lat="44.50301" lon="8.9658533"><ele>360.25</ele><time>2026-04-21T10:56:12.666Z</time></trkpt><trkpt lat="44.5030183" lon="8.9660433"><ele>373.5</ele><time>2026-04-21T10:56:13.667Z</time></trkpt><trkpt lat="44.5030217" lon="8.9662217"><ele>386.75</ele><time>2026-04-21T10:56:14.667Z</time></trkpt><trkpt lat="44.5030383" lon="8.9663883"><ele>400.0</ele><time>2026-04-21T10:56:15.667Z</time></trkpt><trkpt lat="44.503075" lon="8.966565"><ele>396.25</ele><time>2026-04-21T10:56:16.666Z</time></trkpt><trkpt lat="44.5031367" lon="8.96673"><ele>392.5</ele><time>2026-04-21T10:56:17.667Z</time></trkpt><trkpt lat="44.5031917" lon="8.966905"><ele>388.75</ele><time>2026-04-21T10:56:18.667Z</time></trkpt><trkpt lat="44.5032283" lon="8.967085"><ele>385.0</ele><time>2026-04-21T10:56:19.667Z</time></trkpt><trkpt lat="44.5032533" lon="8.967255"><ele>385.0</ele><time>2026-04-21T10:56:20.666Z</time></trkpt><trkpt lat="44.5033017" lon="8.96739"><ele>385.0</ele><time>2026-04-21T10:56:21.666Z</time></trkpt><trkpt lat="44.5033783" lon="8.967515"><ele>385.0</ele><time>2026-04-21T10:56:22.667Z</time></trkpt><trkpt lat="44.5034817" lon="8.9676417"><ele>385.0</ele><time>2026-04-21T10:56:23.667Z</time></trkpt><trkpt lat="44.5035833" lon="8.96777"><ele>383.8</ele><time>2026-04-21T10:56:24.666Z</time></trkpt><trkpt lat="44.50367" lon="8.9678983"><ele>382.6</ele><time>2026-04-21T10:56:25.666Z</time></trkpt><trkpt lat="44.5037517" lon="8.96801"><ele>381.4</ele><time>2026-04-21T10:56:26.667Z</time></trkpt><trkpt lat="44.503835" lon="8.9680867"><ele>380.2</ele><time>2026-04-21T10:56:27.667Z</time></trkpt><trkpt lat="44.5039217" lon="8.9681117"><ele>379.0</ele><time>2026-04-21T10:56:28.667Z</time></trkpt><trkpt lat="44.504015" lon="8.9681033"><ele>379.0</ele><time>2026-04-21T10:56:29.667Z</time></trkpt><trkpt lat="44.5041217" lon="8.9680667"><ele>379.0</ele><time>2026-04-21T10:56:30.667Z</time></trkpt><trkpt lat="44.5042567" lon="8.9679983"><ele>379.0</ele><time>2026-04-21T10:56:31.666Z</time></trkpt><trkpt lat="44.5043933" lon="8.9679317"><ele>379.0</ele><time>2026-04-21T10:56:32.667Z</time></trkpt><trkpt lat="44.5045217" lon="8.9678767"><ele>379.75</ele><time>2026-04-21T10:56:33.666Z</time></trkpt><trkpt lat="44.5046483" lon="8.9678433"><ele>380.5</ele><time>2026-04-21T10:56:34.667Z</time></trkpt><trkpt lat="44.5047667" lon="8.9678317"><ele>381.25</ele><time>2026-04-21T10:56:35.667Z</time></trkpt><trkpt lat="44.5049" lon="8.9678283"><ele>382.0</ele><time>2026-04-21T10:56:36.666Z</time></trkpt><trkpt lat="44.50503" lon="8.9678133"><ele>382.0</ele><time>2026-04-21T10:56:37.666Z</time></trkpt><trkpt lat="44.5051783" lon="8.9678017"><ele>382.0</ele><time>2026-04-21T10:56:38.667Z</time></trkpt><trkpt lat="44.5053217" lon="8.9678133"><ele>382.0</ele><time>2026-04-21T10:56:39.666Z</time></trkpt><trkpt lat="44.5054583" lon="8.9678433"><ele>382.0</ele><time>2026-04-21T10:56:40.667Z</time></trkpt><trkpt lat="44.5055867" lon="8.96786"><ele>383.75</ele><time>2026-04-21T10:56:41.667Z</time></trkpt><trkpt lat="44.50572" lon="8.9678533"><ele>385.5</ele><time>2026-04-21T10:56:42.666Z</time></trkpt><trkpt lat="44.5058533" lon="8.9678167"><ele>387.25</ele><time>2026-04-21T10:56:43.667Z</time></trkpt><trkpt lat="44.5059867" lon="8.967765"><ele>389.0</ele><time>2026-04-21T10:56:44.667Z</time></trkpt><trkpt lat="44.506105" lon="8.9677017"><ele>389.0</ele><time>2026-04-21T10:56:45.666Z</time></trkpt><trkpt lat="44.506205" lon="8.9676283"><ele>389.0</ele><time>2026-04-21T10:56:46.666Z</time></trkpt><trkpt lat="44.5063017" lon="8.9675717"><ele>389.0</ele><time>2026-04-21T10:56:47.666Z</time></trkpt><trkpt lat="44.5064033" lon="8.9675817"><ele>389.0</ele><time>2026-04-21T10:56:48.666Z</time></trkpt><trkpt lat="44.5065017" lon="8.967625"><ele>389.0</ele><time>2026-04-21T10:56:49.667Z</time></trkpt><trkpt lat="44.5066033" lon="8.9676917"><ele>393.5</ele><time>2026-04-21T10:56:50.666Z</time></trkpt><trkpt lat="44.5066883" lon="8.9677817"><ele>398.0</ele><time>2026-04-21T10:56:51.666Z</time></trkpt><trkpt lat="44.5067583" lon="8.9679133"><ele>402.5</ele><time>2026-04-21T10:56:52.666Z</time></trkpt><trkpt lat="44.5068133" lon="8.9680867"><ele>407.0</ele><time>2026-04-21T10:56:53.666Z</time></trkpt><trkpt lat="44.5068683" lon="8.9682583"><ele>405.0</ele><time>2026-04-21T10:56:54.667Z</time></trkpt><trkpt lat="44.5069133" lon="8.968435"><ele>403.0</ele><time>2026-04-21T10:56:55.667Z</time></trkpt><trkpt lat="44.5069517" lon="8.9685867"><ele>401.0</ele><time>2026-04-21T10:56:56.667Z</time></trkpt><trkpt lat="44.5069583" lon="8.9687233"><ele>399.0</ele><time>2026-04-21T10:56:57.666Z</time></trkpt><trkpt lat="44.5069467" lon="8.9688433"><ele>397.0</ele><time>2026-04-21T10:56:58.666Z</time></trkpt><trkpt lat="44.5069033" lon="8.9689417"><ele>397.00000000000006</ele><time>2026-04-21T10:56:59.667Z</time></trkpt><trkpt lat="44.5068767" lon="8.969055"><ele>397.0</ele><time>2026-04-21T10:57:00.667Z</time></trkpt><trkpt lat="44.5068767" lon="8.9691633"><ele>397.0</ele><time>2026-04-21T10:57:01.667Z</time></trkpt><trkpt lat="44.506905" lon="8.9692633"><ele>397.0</ele><time>2026-04-21T10:57:02.667Z</time></trkpt><trkpt lat="44.50696" lon="8.969375"><ele>397.00000000000006</ele><time>2026-04-21T10:57:03.667Z</time></trkpt><trkpt lat="44.5070083" lon="8.9694883"><ele>397.0</ele><time>2026-04-21T10:57:04.667Z</time></trkpt><trkpt lat="44.50703" lon="8.9696117"><ele>399.0</ele><time>2026-04-21T10:57:05.667Z</time></trkpt><trkpt lat="44.5070217" lon="8.9697433"><ele>401.0</ele><time>2026-04-21T10:57:06.666Z</time></trkpt><trkpt lat="44.5069767" lon="8.9698967"><ele>403.0</ele><time>2026-04-21T10:57:07.666Z</time></trkpt><trkpt lat="44.5069117" lon="8.9700617"><ele>405.0</ele><time>2026-04-21T10:57:08.667Z</time></trkpt><trkpt lat="44.50682" lon="8.97022"><ele>409.0</ele><time>2026-04-21T10:57:09.667Z</time></trkpt><trkpt lat="44.5067283" lon="8.9703617"><ele>413.0</ele><time>2026-04-21T10:57:10.667Z</time></trkpt><trkpt lat="44.506655" lon="8.9704883"><ele>417.0</ele><time>2026-04-21T10:57:11.666Z</time></trkpt><trkpt lat="44.5065917" lon="8.970615"><ele>421.0</ele><time>2026-04-21T10:57:12.666Z</time></trkpt><trkpt lat="44.50656" lon="8.9707717"><ele>424.0</ele><time>2026-04-21T10:57:13.666Z</time></trkpt><trkpt lat="44.5065617" lon="8.97096"><ele>427.0</ele><time>2026-04-21T10:57:14.667Z</time></trkpt><trkpt lat="44.5065867" lon="8.971165"><ele>430.0</ele><time>2026-04-21T10:57:15.667Z</time></trkpt><trkpt lat="44.5065867" lon="8.9713483"><ele>433.0</ele><time>2026-04-21T10:57:16.667Z</time></trkpt><trkpt lat="44.5065633" lon="8.9714933"><ele>433.0</ele><time>2026-04-21T10:57:17.666Z</time></trkpt><trkpt lat="44.50651" lon="8.971625"><ele>432.99999999999994</ele><time>2026-04-21T10:57:18.667Z</time></trkpt><trkpt lat="44.5064317" lon="8.97173"><ele>432.99999999999994</ele><time>2026-04-21T10:57:19.666Z</time></trkpt><trkpt lat="44.50633" lon="8.9718283"><ele>433.0</ele><time>2026-04-21T10:57:20.667Z</time></trkpt><trkpt lat="44.5062417" lon="8.97191"><ele>433.0</ele><time>2026-04-21T10:57:21.667Z</time></trkpt><trkpt lat="44.506175" lon="8.9720233"><ele>429.0</ele><time>2026-04-21T10:57:22.666Z</time></trkpt><trkpt lat="44.5061283" lon="8.972175"><ele>425.0</ele><time>2026-04-21T10:57:23.666Z</time></trkpt><trkpt lat="44.5060917" lon="8.972345"><ele>421.0</ele><time>2026-04-21T10:57:24.667Z</time></trkpt><trkpt lat="44.50607" lon="8.9725283"><ele>417.0</ele><time>2026-04-21T10:57:25.667Z</time></trkpt><trkpt lat="44.5060583" lon="8.97272"><ele>417.0</ele><time>2026-04-21T10:57:26.666Z</time></trkpt><trkpt lat="44.5060433" lon="8.9728967"><ele>417.0</ele><time>2026-04-21T10:57:27.666Z</time></trkpt><trkpt lat="44.506025" lon="8.9730533"><ele>417.0</ele><time>2026-04-21T10:57:28.667Z</time></trkpt><trkpt lat="44.5060217" lon="8.9731967"><ele>417.0</ele><time>2026-04-21T10:57:29.667Z</time></trkpt><trkpt lat="44.5060433" lon="8.9733383"><ele>417.0</ele><time>2026-04-21T10:57:30.667Z</time></trkpt><trkpt lat="44.506085" lon="8.973465"><ele>414.8</ele><time>2026-04-21T10:57:31.667Z</time></trkpt><trkpt lat="44.506135" lon="8.973575"><ele>412.6</ele><time>2026-04-21T10:57:32.667Z</time></trkpt><trkpt lat="44.5061983" lon="8.9736683"><ele>410.40000000000003</ele><time>2026-04-21T10:57:33.666Z</time></trkpt><trkpt lat="44.50629" lon="8.9737367"><ele>408.20000000000005</ele><time>2026-04-21T10:57:34.667Z</time></trkpt><trkpt lat="44.5064033" lon="8.97377"><ele>406.0</ele><time>2026-04-21T10:57:35.667Z</time></trkpt><trkpt lat="44.5065267" lon="8.9737817"><ele>411.5</ele><time>2026-04-21T10:57:36.666Z</time></trkpt><trkpt lat="44.5066517" lon="8.973745"><ele>417.0</ele><time>2026-04-21T10:57:37.667Z</time></trkpt><trkpt lat="44.506775" lon="8.9737067"><ele>422.5</ele><time>2026-04-21T10:57:38.666Z</time></trkpt><trkpt lat="44.50688" lon="8.9737133"><ele>428.0</ele><time>2026-04-21T10:57:39.667Z</time></trkpt><trkpt lat="44.5069633" lon="8.9737667"><ele>427.99999999999994</ele><time>2026-04-21T10:57:40.667Z</time></trkpt><trkpt lat="44.507015" lon="8.9738683"><ele>428.0</ele><time>2026-04-21T10:57:41.667Z</time></trkpt><trkpt lat="44.5070433" lon="8.97399"><ele>428.0</ele><time>2026-04-21T10:57:42.667Z</time></trkpt><trkpt lat="44.5070617" lon="8.974105"><ele>428.0</ele><time>2026-04-21T10:57:43.666Z</time></trkpt><trkpt lat="44.5071067" lon="8.9742"><ele>427.99999999999994</ele><time>2026-04-21T10:57:44.666Z</time></trkpt><trkpt lat="44.5071767" lon="8.9742733"><ele>428.0</ele><time>2026-04-21T10:57:45.666Z</time></trkpt><trkpt lat="44.5072733" lon="8.9743083"><ele>425.75</ele><time>2026-04-21T10:57:46.667Z</time></trkpt><trkpt lat="44.5073833" lon="8.9743267"><ele>423.5</ele><time>2026-04-21T10:57:47.666Z</time></trkpt><trkpt lat="44.5075017" lon="8.9743033"><ele>421.25</ele><time>2026-04-21T10:57:48.666Z</time></trkpt><trkpt lat="44.5076117" lon="8.97425"><ele>419.0</ele><time>2026-04-21T10:57:49.666Z</time></trkpt><trkpt lat="44.5077167" lon="8.9741833"><ele>420.4</ele><time>2026-04-21T10:57:50.666Z</time></trkpt><trkpt lat="44.5078083" lon="8.9741033"><ele>421.79999999999995</ele><time>2026-04-21T10:57:51.667Z</time></trkpt><trkpt lat="44.507875" lon="8.9740117"><ele>423.20000000000005</ele><time>2026-04-21T10:57:52.666Z</time></trkpt><trkpt lat="44.5079183" lon="8.9738967"><ele>424.6</ele><time>2026-04-21T10:57:53.666Z</time></trkpt><trkpt lat="44.50796" lon="8.97377"><ele>426.0</ele><time>2026-04-21T10:57:54.666Z</time></trkpt><trkpt lat="44.5079983" lon="8.973615"><ele>426.0</ele><time>2026-04-21T10:57:55.667Z</time></trkpt><trkpt lat="44.5080367" lon="8.9734617"><ele>426.0</ele><time>2026-04-21T10:57:56.666Z</time></trkpt><trkpt lat="44.5080833" lon="8.9733167"><ele>426.0</ele><time>2026-04-21T10:57:57.666Z</time></trkpt><trkpt lat="44.5081283" lon="8.9731733"><ele>426.0</ele><time>2026-04-21T10:57:58.667Z</time></trkpt><trkpt lat="44.50818" lon="8.973055"><ele>426.0</ele><time>2026-04-21T10:57:59.667Z</time></trkpt><trkpt lat="44.5082383" lon="8.9729733"><ele>430.20000000000005</ele><time>2026-04-21T10:58:00.667Z</time></trkpt><trkpt lat="44.5083267" lon="8.9729317"><ele>434.40000000000003</ele><time>2026-04-21T10:58:01.667Z</time></trkpt><trkpt lat="44.5084233" lon="8.9729567"><ele>438.6</ele><time>2026-04-21T10:58:02.666Z</time></trkpt><trkpt lat="44.508525" lon="8.9730317"><ele>442.8</ele><time>2026-04-21T10:58:03.666Z</time></trkpt><trkpt lat="44.5086167" lon="8.973085"><ele>447.0</ele><time>2026-04-21T10:58:04.667Z</time></trkpt><trkpt lat="44.5087433" lon="8.9730983"><ele>448.0</ele><time>2026-04-21T10:58:05.666Z</time></trkpt><trkpt lat="44.508875" lon="8.97308"><ele>449.0</ele><time>2026-04-21T10:58:06.666Z</time></trkpt><trkpt lat="44.509" lon="8.9730467"><ele>450.0</ele><time>2026-04-21T10:58:07.666Z</time></trkpt><trkpt lat="44.5091083" lon="8.9730133"><ele>451.0</ele><time>2026-04-21T10:58:08.666Z</time></trkpt><trkpt lat="44.50922" lon="8.9730117"><ele>451.0</ele><time>2026-04-21T10:58:09.667Z</time></trkpt><trkpt lat="44.5093333" lon="8.9730467"><ele>451.0</ele><time>2026-04-21T10:58:10.666Z</time></trkpt><trkpt lat="44.5094383" lon="8.9731283"><ele>451.0</ele><time>2026-04-21T10:58:11.667Z</time></trkpt><trkpt lat="44.5095417" lon="8.97323"><ele>451.0</ele><time>2026-04-21T10:58:12.666Z</time></trkpt><trkpt lat="44.5096283" lon="8.9733667"><ele>449.0</ele><time>2026-04-21T10:58:13.667Z</time></trkpt><trkpt lat="44.5097017" lon="8.97351"><ele>447.0</ele><time>2026-04-21T10:58:14.667Z</time></trkpt><trkpt lat="44.5097783" lon="8.9736367"><ele>445.0</ele><time>2026-04-21T10:58:15.666Z</time></trkpt><trkpt lat="44.509855" lon="8.9737233"><ele>443.0</ele><time>2026-04-21T10:58:16.667Z</time></trkpt><trkpt lat="44.5099367" lon="8.9737617"><ele>441.0</ele><time>2026-04-21T10:58:17.667Z</time></trkpt><trkpt lat="44.510035" lon="8.9737517"><ele>441.0</ele><time>2026-04-21T10:58:18.666Z</time></trkpt><trkpt lat="44.5101283" lon="8.9737017"><ele>441.0</ele><time>2026-04-21T10:58:19.666Z</time></trkpt><trkpt lat="44.5102" lon="8.9736517"><ele>441.0</ele><time>2026-04-21T10:58:20.666Z</time></trkpt><trkpt lat="44.5102583" lon="8.9736017"><ele>441.0</ele><time>2026-04-21T10:58:21.666Z</time></trkpt><trkpt lat="44.51032" lon="8.9735483"><ele>441.0</ele><time>2026-04-21T10:58:22.667Z</time></trkpt><trkpt lat="44.5103983" lon="8.9734683"><ele>441.0</ele><time>2026-04-21T10:58:23.667Z</time></trkpt><trkpt lat="44.510485" lon="8.9733783"><ele>447.25</ele><time>2026-04-21T10:58:24.667Z</time></trkpt><trkpt lat="44.5105833" lon="8.9732933"><ele>453.5</ele><time>2026-04-21T10:58:25.666Z</time></trkpt><trkpt lat="44.510705" lon="8.9732217"><ele>459.75</ele><time>2026-04-21T10:58:26.667Z</time></trkpt><trkpt lat="44.5108233" lon="8.97316"><ele>466.0</ele><time>2026-04-21T10:58:27.666Z</time></trkpt><trkpt lat="44.5109317" lon="8.9731383"><ele>466.0</ele><time>2026-04-21T10:58:28.667Z</time></trkpt><trkpt lat="44.5110433" lon="8.9731617"><ele>466.0</ele><time>2026-04-21T10:58:29.667Z</time></trkpt><trkpt lat="44.51116" lon="8.9732217"><ele>466.0</ele><time>2026-04-21T10:58:30.666Z</time></trkpt><trkpt lat="44.5112817" lon="8.9732983"><ele>466.0</ele><time>2026-04-21T10:58:31.667Z</time></trkpt><trkpt lat="44.5113983" lon="8.9733917"><ele>464.25</ele><time>2026-04-21T10:58:32.667Z</time></trkpt><trkpt lat="44.5115033" lon="8.9734867"><ele>462.5</ele><time>2026-04-21T10:58:33.666Z</time></trkpt><trkpt lat="44.5115883" lon="8.9736083"><ele>460.75</ele><time>2026-04-21T10:58:34.667Z</time></trkpt><trkpt lat="44.5116567" lon="8.97375"><ele>459.0</ele><time>2026-04-21T10:58:35.667Z</time></trkpt><trkpt lat="44.5117283" lon="8.9738867"><ele>459.0</ele><time>2026-04-21T10:58:36.667Z</time></trkpt><trkpt lat="44.511815" lon="8.9739917"><ele>459.0</ele><time>2026-04-21T10:58:37.667Z</time></trkpt><trkpt lat="44.511925" lon="8.9740733"><ele>459.0</ele><time>2026-04-21T10:58:38.667Z</time></trkpt><trkpt lat="44.512065" lon="8.974115"><ele>459.0</ele><time>2026-04-21T10:58:39.666Z</time></trkpt><trkpt lat="44.5122233" lon="8.9741183"><ele>458.0</ele><time>2026-04-21T10:58:40.667Z</time></trkpt><trkpt lat="44.512385" lon="8.9741367"><ele>457.0</ele><time>2026-04-21T10:58:41.666Z</time></trkpt><trkpt lat="44.5125317" lon="8.974185"><ele>456.0</ele><time>2026-04-21T10:58:42.666Z</time></trkpt><trkpt lat="44.5126483" lon="8.97428"><ele>455.0</ele><time>2026-04-21T10:58:43.667Z</time></trkpt><trkpt lat="44.512755" lon="8.9743633"><ele>455.0</ele><time>2026-04-21T10:58:44.666Z</time></trkpt><trkpt lat="44.5128683" lon="8.974415"><ele>455.0</ele><time>2026-04-21T10:58:45.666Z</time></trkpt><trkpt lat="44.5129917" lon="8.9744083"><ele>455.0</ele><time>2026-04-21T10:58:46.666Z</time></trkpt><trkpt lat="44.513125" lon="8.9743767"><ele>455.0</ele><time>2026-04-21T10:58:47.667Z</time></trkpt><trkpt lat="44.5132583" lon="8.9743567"><ele>457.2</ele><time>2026-04-21T10:58:48.667Z</time></trkpt><trkpt lat="44.5133667" lon="8.9743717"><ele>459.4</ele><time>2026-04-21T10:58:49.666Z</time></trkpt><trkpt lat="44.5134517" lon="8.9744417"><ele>461.6</ele><time>2026-04-21T10:58:50.667Z</time></trkpt><trkpt lat="44.5135233" lon="8.97456"><ele>463.8</ele><time>2026-04-21T10:58:51.667Z</time></trkpt><trkpt lat="44.513585" lon="8.9747067"><ele>466.0</ele><time>2026-04-21T10:58:52.666Z</time></trkpt><trkpt lat="44.5136567" lon="8.9748617"><ele>465.0</ele><time>2026-04-21T10:58:53.667Z</time></trkpt><trkpt lat="44.5137667" lon="8.9749717"><ele>464.0</ele><time>2026-04-21T10:58:54.667Z</time></trkpt><trkpt lat="44.5139133" lon="8.9750517"><ele>463.0</ele><time>2026-04-21T10:58:55.666Z</time></trkpt><trkpt lat="44.5140633" lon="8.97514"><ele>463.0</ele><time>2026-04-21T10:58:56.667Z</time></trkpt><trkpt lat="44.51421" lon="8.9752583"><ele>463.0</ele><time>2026-04-21T10:58:57.666Z</time></trkpt><trkpt lat="44.5143617" lon="8.975385"><ele>463.0</ele><time>2026-04-21T10:58:58.667Z</time></trkpt><trkpt lat="44.514515" lon="8.975515"><ele>464.0</ele><time>2026-04-21T10:58:59.666Z</time></trkpt><trkpt lat="44.5146483" lon="8.9756333"><ele>465.0</ele><time>2026-04-21T10:59:00.666Z</time></trkpt><trkpt lat="44.514785" lon="8.975755"><ele>466.0</ele><time>2026-04-21T10:59:01.666Z</time></trkpt><trkpt lat="44.5149267" lon="8.9758817"><ele>466.0</ele><time>2026-04-21T10:59:02.666Z</time></trkpt><trkpt lat="44.5150767" lon="8.976"><ele>466.0</ele><time>2026-04-21T10:59:03.667Z</time></trkpt><trkpt lat="44.5152183" lon="8.97613"><ele>466.0</ele><time>2026-04-21T10:59:04.667Z</time></trkpt><trkpt lat="44.5153617" lon="8.9762517"><ele>470.0</ele><time>2026-04-21T10:59:05.667Z</time></trkpt><trkpt lat="44.515505" lon="8.9763783"><ele>474.0</ele><time>2026-04-21T10:59:06.667Z</time></trkpt><trkpt lat="44.51564" lon="8.9764983"><ele>478.0</ele><time>2026-04-21T10:59:07.667Z</time></trkpt><trkpt lat="44.5157667" lon="8.9766267"><ele>474.6666666666667</ele><time>2026-04-21T10:59:08.667Z</time></trkpt><trkpt lat="44.51588" lon="8.9767683"><ele>471.33333333333337</ele><time>2026-04-21T10:59:09.666Z</time></trkpt><trkpt lat="44.5159967" lon="8.976905"><ele>468.0</ele><time>2026-04-21T10:59:10.667Z</time></trkpt><trkpt lat="44.5160983" lon="8.9770583"><ele>468.0</ele><time>2026-04-21T10:59:11.667Z</time></trkpt><trkpt lat="44.5162083" lon="8.9772217"><ele>468.0</ele><time>2026-04-21T10:59:12.666Z</time></trkpt><trkpt lat="44.5163083" lon="8.97738"><ele>468.0</ele><time>2026-04-21T10:59:13.666Z</time></trkpt><trkpt lat="44.5163833" lon="8.9775217"><ele>468.0</ele><time>2026-04-21T10:59:14.667Z</time></trkpt><trkpt lat="44.5164233" lon="8.9776617"><ele>470.0</ele><time>2026-04-21T10:59:15.666Z</time></trkpt><trkpt lat="44.5164533" lon="8.97783"><ele>472.0</ele><time>2026-04-21T10:59:16.667Z</time></trkpt><trkpt lat="44.5164917" lon="8.978"><ele>474.0</ele><time>2026-04-21T10:59:17.666Z</time></trkpt><trkpt lat="44.5165367" lon="8.978165"><ele>476.0</ele><time>2026-04-21T10:59:18.666Z</time></trkpt><trkpt lat="44.5165733" lon="8.9783233"><ele>474.0</ele><time>2026-04-21T10:59:19.666Z</time></trkpt><trkpt lat="44.5166367" lon="8.9784633"><ele>472.0</ele><time>2026-04-21T10:59:20.667Z</time></trkpt><trkpt lat="44.5167033" lon="8.9786067"><ele>470.0</ele><time>2026-04-21T10:59:21.667Z</time></trkpt><trkpt lat="44.516755" lon="8.97876"><ele>468.0</ele><time>2026-04-21T10:59:22.666Z</time></trkpt><trkpt lat="44.516775" lon="8.9789183"><ele>468.0</ele><time>2026-04-21T10:59:23.666Z</time></trkpt><trkpt lat="44.5167817" lon="8.979075"><ele>467.99999999999994</ele><time>2026-04-21T10:59:24.666Z</time></trkpt><trkpt lat="44.5167783" lon="8.9792417"><ele>467.99999999999994</ele><time>2026-04-21T10:59:25.666Z</time></trkpt><trkpt lat="44.5167933" lon="8.9793917"><ele>468.0</ele><time>2026-04-21T10:59:26.666Z</time></trkpt><trkpt lat="44.5168417" lon="8.9795283"><ele>468.0</ele><time>2026-04-21T10:59:27.666Z</time></trkpt><trkpt lat="44.5169117" lon="8.97965"><ele>467.4</ele><time>2026-04-21T10:59:28.667Z</time></trkpt><trkpt lat="44.5169717" lon="8.979765"><ele>466.79999999999995</ele><time>2026-04-21T10:59:29.666Z</time></trkpt><trkpt lat="44.516995" lon="8.9798617"><ele>466.2</ele><time>2026-04-21T10:59:30.666Z</time></trkpt><trkpt lat="44.51698" lon="8.979975"><ele>465.6</ele><time>2026-04-21T10:59:31.667Z</time></trkpt><trkpt lat="44.5169367" lon="8.9801017"><ele>465.0</ele><time>2026-04-21T10:59:32.667Z</time></trkpt><trkpt lat="44.5168833" lon="8.98023"><ele>463.5</ele><time>2026-04-21T10:59:33.666Z</time></trkpt><trkpt lat="44.5168467" lon="8.9803667"><ele>462.0</ele><time>2026-04-21T10:59:34.667Z</time></trkpt><trkpt lat="44.5168433" lon="8.980525"><ele>460.5</ele><time>2026-04-21T10:59:35.666Z</time></trkpt><trkpt lat="44.5168333" lon="8.9806983"><ele>459.0</ele><time>2026-04-21T10:59:36.666Z</time></trkpt><trkpt lat="44.5168567" lon="8.9808767"><ele>456.75</ele><time>2026-04-21T10:59:37.666Z</time></trkpt><trkpt lat="44.5168833" lon="8.981065"><ele>454.5</ele><time>2026-04-21T10:59:38.666Z</time></trkpt><trkpt lat="44.5169283" lon="8.9812517"><ele>452.25</ele><time>2026-04-21T10:59:39.666Z</time></trkpt><trkpt lat="44.5169883" lon="8.9814217"><ele>450.0</ele><time>2026-04-21T10:59:40.667Z</time></trkpt><trkpt lat="44.5170683" lon="8.9815967"><ele>455.33333333333337</ele><time>2026-04-21T10:59:41.666Z</time></trkpt><trkpt lat="44.5171533" lon="8.98177"><ele>460.6666666666667</ele><time>2026-04-21T10:59:42.666Z</time></trkpt><trkpt lat="44.5172367" lon="8.981955"><ele>466.0</ele><time>2026-04-21T10:59:43.667Z</time></trkpt><trkpt lat="44.5173167" lon="8.98214"><ele>466.0</ele><time>2026-04-21T10:59:44.667Z</time></trkpt><trkpt lat="44.517375" lon="8.9823133"><ele>466.0</ele><time>2026-04-21T10:59:45.667Z</time></trkpt><trkpt lat="44.5174283" lon="8.9824667"><ele>466.0</ele><time>2026-04-21T10:59:46.666Z</time></trkpt><trkpt lat="44.5174783" lon="8.9826033"><ele>466.0</ele><time>2026-04-21T10:59:47.666Z</time></trkpt><trkpt lat="44.51754" lon="8.982705"><ele>468.4</ele><time>2026-04-21T10:59:48.666Z</time></trkpt><trkpt lat="44.5176283" lon="8.98277"><ele>470.8</ele><time>2026-04-21T10:59:49.666Z</time></trkpt><trkpt lat="44.51773" lon="8.9827983"><ele>473.19999999999993</ele><time>2026-04-21T10:59:50.667Z</time></trkpt><trkpt lat="44.517845" lon="8.9828283"><ele>475.59999999999997</ele><time>2026-04-21T10:59:51.666Z</time></trkpt><trkpt lat="44.51793" lon="8.9828917"><ele>478.0</ele><time>2026-04-21T10:59:52.667Z</time></trkpt><trkpt lat="44.517975" lon="8.9829933"><ele>478.0</ele><time>2026-04-21T10:59:53.667Z</time></trkpt><trkpt lat="44.5179883" lon="8.9831233"><ele>477.99999999999994</ele><time>2026-04-21T10:59:54.667Z</time></trkpt><trkpt lat="44.5179783" lon="8.9832683"><ele>477.99999999999994</ele><time>2026-04-21T10:59:55.666Z</time></trkpt><trkpt lat="44.5179767" lon="8.9834033"><ele>478.0</ele><time>2026-04-21T10:59:56.666Z</time></trkpt><trkpt lat="44.5179933" lon="8.9835617"><ele>478.0</ele><time>2026-04-21T10:59:57.666Z</time></trkpt><trkpt lat="44.5180333" lon="8.9836867"><ele>473.0</ele><time>2026-04-21T10:59:58.666Z</time></trkpt><trkpt lat="44.5181133" lon="8.9837833"><ele>468.0</ele><time>2026-04-21T10:59:59.667Z</time></trkpt><trkpt lat="44.5182233" lon="8.983885"><ele>463.0</ele><time>2026-04-21T11:00:00.667Z</time></trkpt><trkpt lat="44.5183267" lon="8.983945"><ele>458.0</ele><time>2026-04-21T11:00:01.666Z</time></trkpt><trkpt lat="44.5184283" lon="8.9839933"><ele>458.0</ele><time>2026-04-21T11:00:02.666Z</time></trkpt><trkpt lat="44.5185233" lon="8.984015"><ele>457.99999999999994</ele><time>2026-04-21T11:00:03.666Z</time></trkpt><trkpt lat="44.5186183" lon="8.98399"><ele>457.99999999999994</ele><time>2026-04-21T11:00:04.666Z</time></trkpt><trkpt lat="44.5187217" lon="8.983945"><ele>458.0</ele><time>2026-04-21T11:00:05.667Z</time></trkpt><trkpt lat="44.5188233" lon="8.983945"><ele>458.0</ele><time>2026-04-21T11:00:06.667Z</time></trkpt><trkpt lat="44.518915" lon="8.9839983"><ele>459.75</ele><time>2026-04-21T11:00:07.666Z</time></trkpt><trkpt lat="44.5189817" lon="8.98411"><ele>461.5</ele><time>2026-04-21T11:00:08.667Z</time></trkpt><trkpt lat="44.519035" lon="8.9842633"><ele>463.25</ele><time>2026-04-21T11:00:09.667Z</time></trkpt><trkpt lat="44.5190683" lon="8.984445"><ele>465.0</ele><time>2026-04-21T11:00:10.666Z</time></trkpt><trkpt lat="44.519095" lon="8.984625"><ele>465.0</ele><time>2026-04-21T11:00:11.667Z</time></trkpt><trkpt lat="44.5191233" lon="8.9848117"><ele>465.0</ele><time>2026-04-21T11:00:12.666Z</time></trkpt><trkpt lat="44.5191633" lon="8.9849717"><ele>465.0</ele><time>2026-04-21T11:00:13.667Z</time></trkpt><trkpt lat="44.5192217" lon="8.985115"><ele>465.0</ele><time>2026-04-21T11:00:14.666Z</time></trkpt><trkpt lat="44.5193033" lon="8.98524"><ele>468.0</ele><time>2026-04-21T11:00:15.666Z</time></trkpt><trkpt lat="44.5194033" lon="8.98535"><ele>471.0</ele><time>2026-04-21T11:00:16.667Z</time></trkpt><trkpt lat="44.5195" lon="8.9854517"><ele>474.0</ele><time>2026-04-21T11:00:17.667Z</time></trkpt><trkpt lat="44.5195717" lon="8.985585"><ele>477.0</ele><time>2026-04-21T11:00:18.666Z</time></trkpt><trkpt lat="44.5196017" lon="8.9857567"><ele>476.66666666666663</ele><time>2026-04-21T11:00:19.667Z</time></trkpt><trkpt lat="44.5195967" lon="8.9859667"><ele>476.3333333333333</ele><time>2026-04-21T11:00:20.667Z</time></trkpt><trkpt lat="44.5195933" lon="8.98619"><ele>476.0</ele><time>2026-04-21T11:00:21.666Z</time></trkpt><trkpt lat="44.5195917" lon="8.9864033"><ele>476.0</ele><time>2026-04-21T11:00:22.667Z</time></trkpt><trkpt lat="44.5195817" lon="8.986605"><ele>476.0</ele><time>2026-04-21T11:00:23.667Z</time></trkpt><trkpt lat="44.51958" lon="8.9868017"><ele>476.0</ele><time>2026-04-21T11:00:24.666Z</time></trkpt><trkpt lat="44.5195833" lon="8.986975"><ele>476.0</ele><time>2026-04-21T11:00:25.667Z</time></trkpt><trkpt lat="44.5195983" lon="8.9871417"><ele>475.20000000000005</ele><time>2026-04-21T11:00:26.666Z</time></trkpt><trkpt lat="44.51962" lon="8.9872983"><ele>474.40000000000003</ele><time>2026-04-21T11:00:27.667Z</time></trkpt><trkpt lat="44.5196417" lon="8.987455"><ele>473.6</ele><time>2026-04-21T11:00:28.667Z</time></trkpt><trkpt lat="44.5196583" lon="8.9875833"><ele>472.8</ele><time>2026-04-21T11:00:29.667Z</time></trkpt><trkpt lat="44.5196767" lon="8.98769"><ele>472.0</ele><time>2026-04-21T11:00:30.667Z</time></trkpt><trkpt lat="44.519735" lon="8.98779"><ele>471.8</ele><time>2026-04-21T11:00:32.667Z</time></trkpt><trkpt lat="44.5197917" lon="8.987835"><ele>471.6</ele><time>2026-04-21T11:00:34.666Z</time></trkpt><trkpt lat="44.519865" lon="8.98788"><ele>471.40000000000003</ele><time>2026-04-21T11:00:36.667Z</time></trkpt><trkpt lat="44.519995" lon="8.9878583"><ele>471.20000000000005</ele><time>2026-04-21T11:00:38.667Z</time></trkpt><trkpt lat="44.520085" lon="8.987825"><ele>471.0</ele><time>2026-04-21T11:00:39.666Z</time></trkpt><trkpt lat="44.5201967" lon="8.9877917"><ele>471.0</ele><time>2026-04-21T11:00:40.666Z</time></trkpt><trkpt lat="44.520325" lon="8.9877617"><ele>471.0</ele><time>2026-04-21T11:00:41.667Z</time></trkpt><trkpt lat="44.5204567" lon="8.987735"><ele>471.0</ele><time>2026-04-21T11:00:42.666Z</time></trkpt><trkpt lat="44.5205917" lon="8.9877133"><ele>471.0</ele><time>2026-04-21T11:00:43.666Z</time></trkpt><trkpt lat="44.5207233" lon="8.9877033"><ele>469.25</ele><time>2026-04-21T11:00:44.666Z</time></trkpt><trkpt lat="44.52085" lon="8.9876817"><ele>467.5</ele><time>2026-04-21T11:00:45.667Z</time></trkpt><trkpt lat="44.5209667" lon="8.987675"><ele>465.75</ele><time>2026-04-21T11:00:46.666Z</time></trkpt><trkpt lat="44.5210833" lon="8.987655"><ele>464.0</ele><time>2026-04-21T11:00:47.667Z</time></trkpt><trkpt lat="44.5212183" lon="8.9876517"><ele>462.75</ele><time>2026-04-21T11:00:48.667Z</time></trkpt><trkpt lat="44.5213483" lon="8.9876433"><ele>461.5</ele><time>2026-04-21T11:00:49.666Z</time></trkpt><trkpt lat="44.5214767" lon="8.9876417"><ele>460.25</ele><time>2026-04-21T11:00:50.667Z</time></trkpt><trkpt lat="44.5216217" lon="8.9876483"><ele>459.0</ele><time>2026-04-21T11:00:51.667Z</time></trkpt><trkpt lat="44.521765" lon="8.98768"><ele>459.0</ele><time>2026-04-21T11:00:52.666Z</time></trkpt><trkpt lat="44.5219217" lon="8.9877433"><ele>459.0</ele><time>2026-04-21T11:00:53.666Z</time></trkpt><trkpt lat="44.5220767" lon="8.9878133"><ele>459.0</ele><time>2026-04-21T11:00:54.666Z</time></trkpt><trkpt lat="44.5222167" lon="8.9878917"><ele>458.5</ele><time>2026-04-21T11:00:55.666Z</time></trkpt><trkpt lat="44.5223533" lon="8.987965"><ele>458.0</ele><time>2026-04-21T11:00:56.666Z</time></trkpt><trkpt lat="44.5224783" lon="8.9880267"><ele>457.5</ele><time>2026-04-21T11:00:57.666Z</time></trkpt><trkpt lat="44.5226" lon="8.9880867"><ele>457.0</ele><time>2026-04-21T11:00:58.666Z</time></trkpt><trkpt lat="44.522725" lon="8.9881433"><ele>457.0</ele><time>2026-04-21T11:00:59.666Z</time></trkpt><trkpt lat="44.5228567" lon="8.9882033"><ele>457.0</ele><time>2026-04-21T11:01:00.666Z</time></trkpt><trkpt lat="44.5229833" lon="8.9882667"><ele>457.0</ele><time>2026-04-21T11:01:01.666Z</time></trkpt><trkpt lat="44.5231083" lon="8.98833"><ele>457.0</ele><time>2026-04-21T11:01:02.666Z</time></trkpt><trkpt lat="44.5232283" lon="8.98839"><ele>455.5</ele><time>2026-04-21T11:01:03.667Z</time></trkpt><trkpt lat="44.5233483" lon="8.98845"><ele>454.0</ele><time>2026-04-21T11:01:04.666Z</time></trkpt><trkpt lat="44.5234733" lon="8.9885"><ele>452.5</ele><time>2026-04-21T11:01:05.666Z</time></trkpt><trkpt lat="44.5236033" lon="8.9885533"><ele>451.0</ele><time>2026-04-21T11:01:06.667Z</time></trkpt><trkpt lat="44.5237283" lon="8.98861"><ele>451.0</ele><time>2026-04-21T11:01:07.666Z</time></trkpt><trkpt lat="44.52385" lon="8.9886767"><ele>451.0</ele><time>2026-04-21T11:01:08.666Z</time></trkpt><trkpt lat="44.5239767" lon="8.9887617"><ele>451.0</ele><time>2026-04-21T11:01:09.667Z</time></trkpt><trkpt lat="44.5240917" lon="8.98886"><ele>451.0</ele><time>2026-04-21T11:01:10.667Z</time></trkpt><trkpt lat="44.524205" lon="8.9889717"><ele>451.0</ele><time>2026-04-21T11:01:11.666Z</time></trkpt><trkpt lat="44.5243217" lon="8.9890833"><ele>451.0</ele><time>2026-04-21T11:01:12.666Z</time></trkpt><trkpt lat="44.52444" lon="8.98919"><ele>451.0</ele><time>2026-04-21T11:01:13.667Z</time></trkpt><trkpt lat="44.52456" lon="8.9892967"><ele>451.0</ele><time>2026-04-21T11:01:14.667Z</time></trkpt><trkpt lat="44.5246717" lon="8.9894"><ele>448.75</ele><time>2026-04-21T11:01:15.667Z</time></trkpt><trkpt lat="44.5247917" lon="8.9894917"><ele>446.5</ele><time>2026-04-21T11:01:16.667Z</time></trkpt><trkpt lat="44.5249083" lon="8.98959"><ele>444.25</ele><time>2026-04-21T11:01:17.667Z</time></trkpt><trkpt lat="44.525025" lon="8.9896883"><ele>442.0</ele><time>2026-04-21T11:01:18.666Z</time></trkpt><trkpt lat="44.5251467" lon="8.989785"><ele>442.0</ele><time>2026-04-21T11:01:19.667Z</time></trkpt><trkpt lat="44.5252683" lon="8.98988"><ele>442.0</ele><time>2026-04-21T11:01:20.667Z</time></trkpt><trkpt lat="44.5253883" lon="8.9899717"><ele>442.0</ele><time>2026-04-21T11:01:21.667Z</time></trkpt><trkpt lat="44.5255117" lon="8.9900667"><ele>442.0</ele><time>2026-04-21T11:01:22.666Z</time></trkpt><trkpt lat="44.5256417" lon="8.99016"><ele>439.25</ele><time>2026-04-21T11:01:23.666Z</time></trkpt><trkpt lat="44.525775" lon="8.99025"><ele>436.5</ele><time>2026-04-21T11:01:24.666Z</time></trkpt><trkpt lat="44.5259067" lon="8.9903267"><ele>433.75</ele><time>2026-04-21T11:01:25.667Z</time></trkpt><trkpt lat="44.52604" lon="8.990405"><ele>431.0</ele><time>2026-04-21T11:01:26.666Z</time></trkpt><trkpt lat="44.5261733" lon="8.9904783"><ele>431.0</ele><time>2026-04-21T11:01:27.667Z</time></trkpt><trkpt lat="44.5263083" lon="8.9905517"><ele>431.0</ele><time>2026-04-21T11:01:28.666Z</time></trkpt><trkpt lat="44.5264383" lon="8.9906267"><ele>431.0</ele><time>2026-04-21T11:01:29.666Z</time></trkpt><trkpt lat="44.52657" lon="8.9906967"><ele>431.0</ele><time>2026-04-21T11:01:30.667Z</time></trkpt><trkpt lat="44.5267" lon="8.9907717"><ele>430.66666666666663</ele><time>2026-04-21T11:01:31.666Z</time></trkpt><trkpt lat="44.5268383" lon="8.9908567"><ele>430.33333333333337</ele><time>2026-04-21T11:01:32.667Z</time></trkpt><trkpt lat="44.5269767" lon="8.99095"><ele>430.0</ele><time>2026-04-21T11:01:33.666Z</time></trkpt><trkpt lat="44.5271167" lon="8.991045"><ele>429.25</ele><time>2026-04-21T11:01:34.666Z</time></trkpt><trkpt lat="44.5272417" lon="8.9911367"><ele>428.5</ele><time>2026-04-21T11:01:35.667Z</time></trkpt><trkpt lat="44.5273683" lon="8.9912217"><ele>427.75</ele><time>2026-04-21T11:01:36.666Z</time></trkpt><trkpt lat="44.5274933" lon="8.9913083"><ele>427.0</ele><time>2026-04-21T11:01:37.666Z</time></trkpt><trkpt lat="44.5276133" lon="8.9913967"><ele>427.0</ele><time>2026-04-21T11:01:38.666Z</time></trkpt><trkpt lat="44.5277267" lon="8.9914883"><ele>427.0</ele><time>2026-04-21T11:01:39.667Z</time></trkpt><trkpt lat="44.5278417" lon="8.9915883"><ele>427.0</ele><time>2026-04-21T11:01:40.667Z</time></trkpt><trkpt lat="44.5279483" lon="8.9916883"><ele>427.0</ele><time>2026-04-21T11:01:41.666Z</time></trkpt><trkpt lat="44.5280583" lon="8.991795"><ele>424.0</ele><time>2026-04-21T11:01:42.666Z</time></trkpt><trkpt lat="44.5281617" lon="8.991905"><ele>421.0</ele><time>2026-04-21T11:01:43.666Z</time></trkpt><trkpt lat="44.5282717" lon="8.99202"><ele>418.0</ele><time>2026-04-21T11:01:44.666Z</time></trkpt><trkpt lat="44.5283833" lon="8.99212"><ele>415.0</ele><time>2026-04-21T11:01:45.666Z</time></trkpt><trkpt lat="44.528495" lon="8.9922183"><ele>415.0</ele><time>2026-04-21T11:01:46.667Z</time></trkpt><trkpt lat="44.5286017" lon="8.9923167"><ele>415.0</ele><time>2026-04-21T11:01:47.667Z</time></trkpt><trkpt lat="44.5287067" lon="8.992395"><ele>415.0</ele><time>2026-04-21T11:01:48.666Z</time></trkpt><trkpt lat="44.5288133" lon="8.9924633"><ele>415.0</ele><time>2026-04-21T11:01:49.666Z</time></trkpt><trkpt lat="44.5289183" lon="8.9925067"><ele>412.75</ele><time>2026-04-21T11:01:50.666Z</time></trkpt><trkpt lat="44.5290317" lon="8.9925233"><ele>410.5</ele><time>2026-04-21T11:01:51.666Z</time></trkpt><trkpt lat="44.5291533" lon="8.99253"><ele>408.25</ele><time>2026-04-21T11:01:52.666Z</time></trkpt><trkpt lat="44.5292817" lon="8.9925333"><ele>406.0</ele><time>2026-04-21T11:01:53.667Z</time></trkpt><trkpt lat="44.5294083" lon="8.99254"><ele>406.0</ele><time>2026-04-21T11:01:54.666Z</time></trkpt><trkpt lat="44.5295367" lon="8.9925467"><ele>406.0</ele><time>2026-04-21T11:01:55.667Z</time></trkpt><trkpt lat="44.5296717" lon="8.99256"><ele>406.0</ele><time>2026-04-21T11:01:56.666Z</time></trkpt><trkpt lat="44.52981" lon="8.9925733"><ele>406.0</ele><time>2026-04-21T11:01:57.666Z</time></trkpt><trkpt lat="44.5299567" lon="8.992595"><ele>404.33333333333337</ele><time>2026-04-21T11:01:58.667Z</time></trkpt><trkpt lat="44.5301067" lon="8.9926267"><ele>402.66666666666663</ele><time>2026-04-21T11:01:59.667Z</time></trkpt><trkpt lat="44.5302517" lon="8.992675"><ele>401.0</ele><time>2026-04-21T11:02:00.667Z</time></trkpt><trkpt lat="44.530405" lon="8.99274"><ele>398.66666666666663</ele><time>2026-04-21T11:02:01.666Z</time></trkpt><trkpt lat="44.5305583" lon="8.992815"><ele>396.33333333333337</ele><time>2026-04-21T11:02:02.666Z</time></trkpt><trkpt lat="44.5307117" lon="8.9928917"><ele>394.0</ele><time>2026-04-21T11:02:03.667Z</time></trkpt><trkpt lat="44.530865" lon="8.9929717"><ele>394.0</ele><time>2026-04-21T11:02:04.667Z</time></trkpt><trkpt lat="44.531015" lon="8.993045"><ele>394.0</ele><time>2026-04-21T11:02:05.666Z</time></trkpt><trkpt lat="44.5311633" lon="8.9931067"><ele>394.0</ele><time>2026-04-21T11:02:06.666Z</time></trkpt><trkpt lat="44.5313" lon="8.993165"><ele>394.4</ele><time>2026-04-21T11:02:07.667Z</time></trkpt><trkpt lat="44.5314133" lon="8.993215"><ele>394.79999999999995</ele><time>2026-04-21T11:02:08.666Z</time></trkpt><trkpt lat="44.5315067" lon="8.99325"><ele>395.20000000000005</ele><time>2026-04-21T11:02:09.667Z</time></trkpt><trkpt lat="44.5315883" lon="8.9932933"><ele>395.6</ele><time>2026-04-21T11:02:10.667Z</time></trkpt><trkpt lat="44.5316533" lon="8.993325"><ele>396.0</ele><time>2026-04-21T11:02:11.666Z</time></trkpt><trkpt lat="44.5317467" lon="8.9933767"><ele>396.4</ele><time>2026-04-21T11:02:13.666Z</time></trkpt><trkpt lat="44.531825" lon="8.993395"><ele>396.8</ele><time>2026-04-21T11:02:15.666Z</time></trkpt><trkpt lat="44.5318917" lon="8.9934433"><ele>397.2</ele><time>2026-04-21T11:02:19.667Z</time></trkpt><trkpt lat="44.531935" lon="8.9935967"><ele>397.59999999999997</ele><time>2026-04-21T11:02:21.666Z</time></trkpt><trkpt lat="44.5319367" lon="8.9937167"><ele>398.0</ele><time>2026-04-21T11:02:22.666Z</time></trkpt><trkpt lat="44.53193" lon="8.9938617"><ele>398.0</ele><time>2026-04-21T11:02:23.667Z</time></trkpt><trkpt lat="44.5319167" lon="8.9940217"><ele>398.0</ele><time>2026-04-21T11:02:24.667Z</time></trkpt><trkpt lat="44.53191" lon="8.9942033"><ele>398.0</ele><time>2026-04-21T11:02:25.666Z</time></trkpt><trkpt lat="44.5319033" lon="8.9943933"><ele>398.0</ele><time>2026-04-21T11:02:26.667Z</time></trkpt><trkpt lat="44.5318967" lon="8.9945967"><ele>398.0</ele><time>2026-04-21T11:02:27.666Z</time></trkpt><trkpt lat="44.531885" lon="8.99481"><ele>398.0</ele><time>2026-04-21T11:02:28.666Z</time></trkpt><trkpt lat="44.531865" lon="8.9950417"><ele>398.0</ele><time>2026-04-21T11:02:29.667Z</time></trkpt><trkpt lat="44.53185" lon="8.9952783"><ele>398.0</ele><time>2026-04-21T11:02:30.666Z</time></trkpt><trkpt lat="44.5318367" lon="8.99553"><ele>398.0</ele><time>2026-04-21T11:02:31.667Z</time></trkpt><trkpt lat="44.5318283" lon="8.9957917"><ele>398.0</ele><time>2026-04-21T11:02:32.666Z</time></trkpt><trkpt lat="44.531815" lon="8.9960667"><ele>397.66666666666663</ele><time>2026-04-21T11:02:33.666Z</time></trkpt><trkpt lat="44.53181" lon="8.9963317"><ele>397.33333333333337</ele><time>2026-04-21T11:02:34.666Z</time></trkpt><trkpt lat="44.531805" lon="8.9966067"><ele>397.0</ele><time>2026-04-21T11:02:35.666Z</time></trkpt><trkpt lat="44.5317917" lon="8.9968917"><ele>397.0</ele><time>2026-04-21T11:02:36.666Z</time></trkpt><trkpt lat="44.53178" lon="8.99718"><ele>397.0</ele><time>2026-04-21T11:02:37.667Z</time></trkpt><trkpt lat="44.531775" lon="8.9974683"><ele>397.0</ele><time>2026-04-21T11:02:38.667Z</time></trkpt><trkpt lat="44.531765" lon="8.9977533"><ele>397.33333333333337</ele><time>2026-04-21T11:02:39.667Z</time></trkpt><trkpt lat="44.531755" lon="8.9980533"><ele>397.66666666666663</ele><time>2026-04-21T11:02:40.667Z</time></trkpt><trkpt lat="44.5317467" lon="8.9983517"><ele>398.0</ele><time>2026-04-21T11:02:41.666Z</time></trkpt><trkpt lat="44.5317317" lon="8.99866"><ele>398.0</ele><time>2026-04-21T11:02:42.667Z</time></trkpt><trkpt lat="44.5317167" lon="8.998975"><ele>398.0</ele><time>2026-04-21T11:02:43.666Z</time></trkpt><trkpt lat="44.5317033" lon="8.9992933"><ele>397.66666666666663</ele><time>2026-04-21T11:02:44.666Z</time></trkpt><trkpt lat="44.531695" lon="8.9996067"><ele>397.33333333333337</ele><time>2026-04-21T11:02:45.666Z</time></trkpt><trkpt lat="44.531685" lon="8.99992"><ele>397.0</ele><time>2026-04-21T11:02:46.666Z</time></trkpt><trkpt lat="44.5316683" lon="9.0002333"><ele>397.0</ele><time>2026-04-21T11:02:47.666Z</time></trkpt><trkpt lat="44.53165" lon="9.0005533"><ele>397.0</ele><time>2026-04-21T11:02:48.666Z</time></trkpt><trkpt lat="44.5316467" lon="9.0008617"><ele>397.0</ele><time>2026-04-21T11:02:49.666Z</time></trkpt><trkpt lat="44.53163" lon="9.001175"><ele>397.6666666666667</ele><time>2026-04-21T11:02:50.666Z</time></trkpt><trkpt lat="44.5316167" lon="9.001485"><ele>398.33333333333337</ele><time>2026-04-21T11:02:51.666Z</time></trkpt><trkpt lat="44.531605" lon="9.00179"><ele>399.0</ele><time>2026-04-21T11:02:52.666Z</time></trkpt><trkpt lat="44.531595" lon="9.0021"><ele>399.33333333333337</ele><time>2026-04-21T11:02:53.667Z</time></trkpt><trkpt lat="44.5315833" lon="9.002405"><ele>399.6666666666667</ele><time>2026-04-21T11:02:54.666Z</time></trkpt><trkpt lat="44.5315717" lon="9.002705"><ele>400.0</ele><time>2026-04-21T11:02:55.666Z</time></trkpt><trkpt lat="44.53156" lon="9.0030033"><ele>400.33333333333337</ele><time>2026-04-21T11:02:56.667Z</time></trkpt><trkpt lat="44.5315483" lon="9.0033033"><ele>400.66666666666663</ele><time>2026-04-21T11:02:57.667Z</time></trkpt><trkpt lat="44.5315333" lon="9.0035983"><ele>401.0</ele><time>2026-04-21T11:02:58.666Z</time></trkpt><trkpt lat="44.5315183" lon="9.0038917"><ele>401.66666666666663</ele><time>2026-04-21T11:02:59.667Z</time></trkpt><trkpt lat="44.5315067" lon="9.0041867"><ele>402.33333333333337</ele><time>2026-04-21T11:03:00.667Z</time></trkpt><trkpt lat="44.5314967" lon="9.004475"><ele>403.0</ele><time>2026-04-21T11:03:01.667Z</time></trkpt><trkpt lat="44.5314883" lon="9.00477"><ele>403.6666666666667</ele><time>2026-04-21T11:03:02.667Z</time></trkpt><trkpt lat="44.5314733" lon="9.005055"><ele>404.33333333333337</ele><time>2026-04-21T11:03:03.667Z</time></trkpt><trkpt lat="44.5314567" lon="9.00533"><ele>405.0</ele><time>2026-04-21T11:03:04.666Z</time></trkpt><trkpt lat="44.5314533" lon="9.0055933"><ele>405.33333333333337</ele><time>2026-04-21T11:03:05.667Z</time></trkpt><trkpt lat="44.531455" lon="9.005855"><ele>405.6666666666667</ele><time>2026-04-21T11:03:06.667Z</time></trkpt><trkpt lat="44.531465" lon="9.0061133"><ele>406.0</ele><time>2026-04-21T11:03:07.667Z</time></trkpt><trkpt lat="44.5315" lon="9.0063683"><ele>406.0</ele><time>2026-04-21T11:03:08.667Z</time></trkpt><trkpt lat="44.531545" lon="9.0066233"><ele>406.0</ele><time>2026-04-21T11:03:09.667Z</time></trkpt><trkpt lat="44.5316" lon="9.006875"><ele>406.0</ele><time>2026-04-21T11:03:10.667Z</time></trkpt><trkpt lat="44.5316717" lon="9.0071117"><ele>406.0</ele><time>2026-04-21T11:03:11.666Z</time></trkpt><trkpt lat="44.531745" lon="9.0073233"><ele>406.0</ele><time>2026-04-21T11:03:12.667Z</time></trkpt><trkpt lat="44.53181" lon="9.0075383"><ele>406.0</ele><time>2026-04-21T11:03:13.667Z</time></trkpt><trkpt lat="44.5318917" lon="9.0077517"><ele>407.33333333333337</ele><time>2026-04-21T11:03:14.666Z</time></trkpt><trkpt lat="44.5319617" lon="9.0079783"><ele>408.66666666666663</ele><time>2026-04-21T11:03:15.666Z</time></trkpt><trkpt lat="44.532035" lon="9.0082067"><ele>410.0</ele><time>2026-04-21T11:03:16.666Z</time></trkpt><trkpt lat="44.5321217" lon="9.00843"><ele>416.0</ele><time>2026-04-21T11:03:17.667Z</time></trkpt><trkpt lat="44.532205" lon="9.0086517"><ele>422.0</ele><time>2026-04-21T11:03:18.667Z</time></trkpt><trkpt lat="44.5322783" lon="9.0088633"><ele>428.0</ele><time>2026-04-21T11:03:19.666Z</time></trkpt><trkpt lat="44.532345" lon="9.0090717"><ele>427.66666666666663</ele><time>2026-04-21T11:03:20.667Z</time></trkpt><trkpt lat="44.5324117" lon="9.0092733"><ele>427.33333333333337</ele><time>2026-04-21T11:03:21.667Z</time></trkpt><trkpt lat="44.5324767" lon="9.0094517"><ele>427.0</ele><time>2026-04-21T11:03:22.666Z</time></trkpt><trkpt lat="44.5325417" lon="9.0096483"><ele>427.0</ele><time>2026-04-21T11:03:23.667Z</time></trkpt><trkpt lat="44.5326017" lon="9.0098367"><ele>427.0</ele><time>2026-04-21T11:03:24.667Z</time></trkpt><trkpt lat="44.5326517" lon="9.010025"><ele>427.0</ele><time>2026-04-21T11:03:25.667Z</time></trkpt><trkpt lat="44.5326683" lon="9.01022"><ele>427.0</ele><time>2026-04-21T11:03:26.666Z</time></trkpt><trkpt lat="44.532665" lon="9.0104033"><ele>426.33333333333337</ele><time>2026-04-21T11:03:27.666Z</time></trkpt><trkpt lat="44.532635" lon="9.010605"><ele>425.66666666666663</ele><time>2026-04-21T11:03:28.666Z</time></trkpt><trkpt lat="44.5326017" lon="9.01083"><ele>425.0</ele><time>2026-04-21T11:03:29.667Z</time></trkpt><trkpt lat="44.5325667" lon="9.0110633"><ele>424.25</ele><time>2026-04-21T11:03:30.666Z</time></trkpt><trkpt lat="44.53254" lon="9.01128"><ele>423.5</ele><time>2026-04-21T11:03:31.667Z</time></trkpt><trkpt lat="44.5325117" lon="9.0114967"><ele>422.75</ele><time>2026-04-21T11:03:32.667Z</time></trkpt><trkpt lat="44.5325333" lon="9.0116667"><ele>422.0</ele><time>2026-04-21T11:03:33.666Z</time></trkpt><trkpt lat="44.5325433" lon="9.0118667"><ele>421.25</ele><time>2026-04-21T11:03:34.666Z</time></trkpt><trkpt lat="44.5325783" lon="9.0120367"><ele>420.5</ele><time>2026-04-21T11:03:35.667Z</time></trkpt><trkpt lat="44.5326133" lon="9.0122"><ele>419.75</ele><time>2026-04-21T11:03:36.667Z</time></trkpt><trkpt lat="44.5326517" lon="9.01236"><ele>419.0</ele><time>2026-04-21T11:03:37.666Z</time></trkpt><trkpt lat="44.532685" lon="9.012515"><ele>418.79999999999995</ele><time>2026-04-21T11:03:38.666Z</time></trkpt><trkpt lat="44.5327067" lon="9.0126583"><ele>418.59999999999997</ele><time>2026-04-21T11:03:39.666Z</time></trkpt><trkpt lat="44.5327083" lon="9.0127733"><ele>418.4</ele><time>2026-04-21T11:03:40.666Z</time></trkpt><trkpt lat="44.5326783" lon="9.0128867"><ele>418.2</ele><time>2026-04-21T11:03:41.666Z</time></trkpt><trkpt lat="44.5326117" lon="9.0129767"><ele>418.0</ele><time>2026-04-21T11:03:42.667Z</time></trkpt><trkpt lat="44.5325317" lon="9.0130583"><ele>418.0</ele><time>2026-04-21T11:03:43.666Z</time></trkpt><trkpt lat="44.5324433" lon="9.0131317"><ele>418.0</ele><time>2026-04-21T11:03:44.666Z</time></trkpt><trkpt lat="44.53236" lon="9.0132117"><ele>418.0</ele><time>2026-04-21T11:03:45.666Z</time></trkpt><trkpt lat="44.5322917" lon="9.0132733"><ele>418.0</ele><time>2026-04-21T11:03:46.667Z</time></trkpt><trkpt lat="44.532215" lon="9.0133467"><ele>418.0</ele><time>2026-04-21T11:03:48.667Z</time></trkpt><trkpt lat="44.5321483" lon="9.0133867"><ele>419.0</ele><time>2026-04-21T11:03:50.667Z</time></trkpt><trkpt lat="44.5320283" lon="9.0134333"><ele>420.0</ele><time>2026-04-21T11:03:52.666Z</time></trkpt><trkpt lat="44.5319433" lon="9.0134317"><ele>421.0</ele><time>2026-04-21T11:03:53.666Z</time></trkpt><trkpt lat="44.5318333" lon="9.0134017"><ele>422.0</ele><time>2026-04-21T11:03:54.667Z</time></trkpt><trkpt lat="44.5317067" lon="9.0133583"><ele>419.75</ele><time>2026-04-21T11:03:55.666Z</time></trkpt><trkpt lat="44.5315733" lon="9.01332"><ele>417.5</ele><time>2026-04-21T11:03:56.666Z</time></trkpt><trkpt lat="44.5314233" lon="9.0132967"><ele>415.25</ele><time>2026-04-21T11:03:57.666Z</time></trkpt><trkpt lat="44.5312683" lon="9.0132667"><ele>413.0</ele><time>2026-04-21T11:03:58.667Z</time></trkpt><trkpt lat="44.5311067" lon="9.0132433"><ele>413.0</ele><time>2026-04-21T11:03:59.666Z</time></trkpt><trkpt lat="44.53095" lon="9.0132117"><ele>413.0</ele><time>2026-04-21T11:04:00.666Z</time></trkpt><trkpt lat="44.530805" lon="9.0131983"><ele>413.0</ele><time>2026-04-21T11:04:01.667Z</time></trkpt><trkpt lat="44.5306667" lon="9.0131817"><ele>413.0</ele><time>2026-04-21T11:04:02.666Z</time></trkpt><trkpt lat="44.5305283" lon="9.0131317"><ele>413.66666666666663</ele><time>2026-04-21T11:04:03.667Z</time></trkpt><trkpt lat="44.53038" lon="9.0130433"><ele>414.33333333333337</ele><time>2026-04-21T11:04:04.666Z</time></trkpt><trkpt lat="44.5302317" lon="9.0129333"><ele>415.0</ele><time>2026-04-21T11:04:05.666Z</time></trkpt><trkpt lat="44.5300933" lon="9.0128333"><ele>415.0</ele><time>2026-04-21T11:04:06.666Z</time></trkpt><trkpt lat="44.52996" lon="9.0127483"><ele>415.0</ele><time>2026-04-21T11:04:07.667Z</time></trkpt><trkpt lat="44.5298183" lon="9.0126783"><ele>415.0</ele><time>2026-04-21T11:04:08.667Z</time></trkpt><trkpt lat="44.5296783" lon="9.01264"><ele>415.0</ele><time>2026-04-21T11:04:09.666Z</time></trkpt><trkpt lat="44.5295417" lon="9.0126133"><ele>416.0</ele><time>2026-04-21T11:04:10.666Z</time></trkpt><trkpt lat="44.529405" lon="9.0126067"><ele>417.0</ele><time>2026-04-21T11:04:11.666Z</time></trkpt><trkpt lat="44.529275" lon="9.0125933"><ele>418.0</ele><time>2026-04-21T11:04:12.667Z</time></trkpt><trkpt lat="44.5291483" lon="9.0125817"><ele>419.0</ele><time>2026-04-21T11:04:13.666Z</time></trkpt><trkpt lat="44.5290183" lon="9.0125383"><ele>417.5</ele><time>2026-04-21T11:04:14.666Z</time></trkpt><trkpt lat="44.5288867" lon="9.0124783"><ele>416.0</ele><time>2026-04-21T11:04:15.666Z</time></trkpt><trkpt lat="44.528765" lon="9.0124217"><ele>414.5</ele><time>2026-04-21T11:04:16.666Z</time></trkpt><trkpt lat="44.5286467" lon="9.0123683"><ele>413.0</ele><time>2026-04-21T11:04:17.666Z</time></trkpt><trkpt lat="44.52853" lon="9.0123483"><ele>413.0</ele><time>2026-04-21T11:04:18.667Z</time></trkpt><trkpt lat="44.5284" lon="9.0123483"><ele>413.0</ele><time>2026-04-21T11:04:19.666Z</time></trkpt><trkpt lat="44.5282717" lon="9.012405"><ele>413.0</ele><time>2026-04-21T11:04:20.667Z</time></trkpt><trkpt lat="44.52813" lon="9.0124883"><ele>413.0</ele><time>2026-04-21T11:04:21.666Z</time></trkpt><trkpt lat="44.5279917" lon="9.0125933"><ele>413.0</ele><time>2026-04-21T11:04:22.667Z</time></trkpt><trkpt lat="44.5278467" lon="9.0127067"><ele>413.0</ele><time>2026-04-21T11:04:23.666Z</time></trkpt><trkpt lat="44.5277033" lon="9.01282"><ele>413.0</ele><time>2026-04-21T11:04:24.666Z</time></trkpt><trkpt lat="44.5275633" lon="9.0129417"><ele>413.0</ele><time>2026-04-21T11:04:25.667Z</time></trkpt><trkpt lat="44.52743" lon="9.0130717"><ele>413.0</ele><time>2026-04-21T11:04:26.667Z</time></trkpt><trkpt lat="44.5273117" lon="9.013195"><ele>413.0</ele><time>2026-04-21T11:04:27.667Z</time></trkpt><trkpt lat="44.5272" lon="9.0133267"><ele>412.4</ele><time>2026-04-21T11:04:28.667Z</time></trkpt><trkpt lat="44.5271017" lon="9.01343"><ele>411.79999999999995</ele><time>2026-04-21T11:04:29.666Z</time></trkpt><trkpt lat="44.527005" lon="9.0135067"><ele>411.2</ele><time>2026-04-21T11:04:30.666Z</time></trkpt><trkpt lat="44.5269033" lon="9.0135317"><ele>410.6</ele><time>2026-04-21T11:04:31.666Z</time></trkpt><trkpt lat="44.5268067" lon="9.0134967"><ele>410.0</ele><time>2026-04-21T11:04:32.666Z</time></trkpt><trkpt lat="44.5267183" lon="9.01341"><ele>410.0</ele><time>2026-04-21T11:04:33.666Z</time></trkpt><trkpt lat="44.52662" lon="9.013305"><ele>410.0</ele><time>2026-04-21T11:04:34.666Z</time></trkpt><trkpt lat="44.52651" lon="9.0131917"><ele>410.0</ele><time>2026-04-21T11:04:35.667Z</time></trkpt><trkpt lat="44.5263917" lon="9.01309"><ele>410.0</ele><time>2026-04-21T11:04:36.666Z</time></trkpt><trkpt lat="44.5262717" lon="9.0130033"><ele>415.25</ele><time>2026-04-21T11:04:37.665Z</time></trkpt><trkpt lat="44.52616" lon="9.012955"><ele>420.5</ele><time>2026-04-21T11:04:38.665Z</time></trkpt><trkpt lat="44.526035" lon="9.0129433"><ele>425.75</ele><time>2026-04-21T11:04:39.665Z</time></trkpt><trkpt lat="44.525905" lon="9.01299"><ele>431.0</ele><time>2026-04-21T11:04:40.666Z</time></trkpt><trkpt lat="44.5257783" lon="9.0130917"><ele>431.0</ele><time>2026-04-21T11:04:41.665Z</time></trkpt><trkpt lat="44.5256567" lon="9.0132367"><ele>431.0</ele><time>2026-04-21T11:04:42.666Z</time></trkpt><trkpt lat="44.52553" lon="9.0134167"><ele>431.0</ele><time>2026-04-21T11:04:43.665Z</time></trkpt><trkpt lat="44.5254" lon="9.0135933"><ele>430.0</ele><time>2026-04-21T11:04:44.665Z</time></trkpt><trkpt lat="44.5252667" lon="9.0137767"><ele>429.0</ele><time>2026-04-21T11:04:45.665Z</time></trkpt><trkpt lat="44.525125" lon="9.0139683"><ele>428.0</ele><time>2026-04-21T11:04:46.665Z</time></trkpt><trkpt lat="44.52499" lon="9.0141467"><ele>424.3333333333333</ele><time>2026-04-21T11:04:47.665Z</time></trkpt><trkpt lat="44.52486" lon="9.0143167"><ele>420.66666666666663</ele><time>2026-04-21T11:04:48.666Z</time></trkpt><trkpt lat="44.5247317" lon="9.0144883"><ele>417.0</ele><time>2026-04-21T11:04:49.666Z</time></trkpt><trkpt lat="44.5245983" lon="9.0146667"><ele>418.0</ele><time>2026-04-21T11:04:50.665Z</time></trkpt><trkpt lat="44.5244483" lon="9.0148433"><ele>419.0</ele><time>2026-04-21T11:04:51.665Z</time></trkpt><trkpt lat="44.524285" lon="9.0150033"><ele>420.0</ele><time>2026-04-21T11:04:52.665Z</time></trkpt><trkpt lat="44.524095" lon="9.01515"><ele>420.0</ele><time>2026-04-21T11:04:53.665Z</time></trkpt><trkpt lat="44.52389" lon="9.0152783"><ele>420.0</ele><time>2026-04-21T11:04:54.665Z</time></trkpt><trkpt lat="44.523675" lon="9.015405"><ele>425.5</ele><time>2026-04-21T11:04:55.665Z</time></trkpt><trkpt lat="44.5234583" lon="9.0155183"><ele>431.0</ele><time>2026-04-21T11:04:56.665Z</time></trkpt><trkpt lat="44.5232517" lon="9.0156433"><ele>431.0</ele><time>2026-04-21T11:04:57.665Z</time></trkpt><trkpt lat="44.5230617" lon="9.0157617"><ele>431.0</ele><time>2026-04-21T11:04:58.665Z</time></trkpt><trkpt lat="44.522885" lon="9.0158883"><ele>431.0</ele><time>2026-04-21T11:04:59.665Z</time></trkpt><trkpt lat="44.52272" lon="9.0160317"><ele>429.0</ele><time>2026-04-21T11:05:00.665Z</time></trkpt><trkpt lat="44.522565" lon="9.0162117"><ele>427.0</ele><time>2026-04-21T11:05:01.665Z</time></trkpt><trkpt lat="44.5224067" lon="9.0164167"><ele>425.0</ele><time>2026-04-21T11:05:02.665Z</time></trkpt><trkpt lat="44.5222533" lon="9.016605"><ele>423.66666666666663</ele><time>2026-04-21T11:05:03.666Z</time></trkpt><trkpt lat="44.5221033" lon="9.0167833"><ele>422.33333333333337</ele><time>2026-04-21T11:05:04.666Z</time></trkpt><trkpt lat="44.5219617" lon="9.01697"><ele>421.0</ele><time>2026-04-21T11:05:05.666Z</time></trkpt><trkpt lat="44.52182" lon="9.0171683"><ele>421.6666666666667</ele><time>2026-04-21T11:05:06.666Z</time></trkpt><trkpt lat="44.5216883" lon="9.017375"><ele>422.33333333333337</ele><time>2026-04-21T11:05:07.665Z</time></trkpt><trkpt lat="44.5215733" lon="9.017575"><ele>423.0</ele><time>2026-04-21T11:05:08.665Z</time></trkpt><trkpt lat="44.5214583" lon="9.017755"><ele>423.0</ele><time>2026-04-21T11:05:09.665Z</time></trkpt><trkpt lat="44.521335" lon="9.0179233"><ele>423.0</ele><time>2026-04-21T11:05:10.665Z</time></trkpt><trkpt lat="44.521195" lon="9.0180817"><ele>423.0</ele><time>2026-04-21T11:05:11.666Z</time></trkpt><trkpt lat="44.521035" lon="9.0182117"><ele>424.66666666666663</ele><time>2026-04-21T11:05:12.666Z</time></trkpt><trkpt lat="44.5208733" lon="9.0183367"><ele>426.3333333333333</ele><time>2026-04-21T11:05:13.666Z</time></trkpt><trkpt lat="44.5207117" lon="9.0184617"><ele>428.0</ele><time>2026-04-21T11:05:14.666Z</time></trkpt><trkpt lat="44.5205433" lon="9.0185917"><ele>435.3333333333333</ele><time>2026-04-21T11:05:15.665Z</time></trkpt><trkpt lat="44.520375" lon="9.01872"><ele>442.66666666666663</ele><time>2026-04-21T11:05:16.665Z</time></trkpt><trkpt lat="44.5202183" lon="9.0188667"><ele>450.0</ele><time>2026-04-21T11:05:17.666Z</time></trkpt><trkpt lat="44.5200833" lon="9.0190283"><ele>443.33333333333337</ele><time>2026-04-21T11:05:18.665Z</time></trkpt><trkpt lat="44.5199583" lon="9.0192117"><ele>436.6666666666667</ele><time>2026-04-21T11:05:19.665Z</time></trkpt><trkpt lat="44.51983" lon="9.0194133"><ele>430.0</ele><time>2026-04-21T11:05:20.666Z</time></trkpt><trkpt lat="44.5196967" lon="9.0196183"><ele>430.6666666666667</ele><time>2026-04-21T11:05:21.665Z</time></trkpt><trkpt lat="44.5195517" lon="9.019815"><ele>431.33333333333337</ele><time>2026-04-21T11:05:22.665Z</time></trkpt><trkpt lat="44.5194067" lon="9.0200017"><ele>432.0</ele><time>2026-04-21T11:05:23.665Z</time></trkpt><trkpt lat="44.5192433" lon="9.020175"><ele>432.0</ele><time>2026-04-21T11:05:24.666Z</time></trkpt><trkpt lat="44.5190683" lon="9.0203467"><ele>432.0</ele><time>2026-04-21T11:05:25.666Z</time></trkpt><trkpt lat="44.5188933" lon="9.0205033"><ele>432.0</ele><time>2026-04-21T11:05:26.665Z</time></trkpt><trkpt lat="44.5187217" lon="9.0206433"><ele>433.0</ele><time>2026-04-21T11:05:27.666Z</time></trkpt><trkpt lat="44.518565" lon="9.02076"><ele>434.0</ele><time>2026-04-21T11:05:28.665Z</time></trkpt><trkpt lat="44.5184033" lon="9.0208717"><ele>435.0</ele><time>2026-04-21T11:05:29.666Z</time></trkpt><trkpt lat="44.5182417" lon="9.0209617"><ele>435.0</ele><time>2026-04-21T11:05:30.665Z</time></trkpt><trkpt lat="44.5180783" lon="9.0210467"><ele>435.0</ele><time>2026-04-21T11:05:31.666Z</time></trkpt><trkpt lat="44.5179267" lon="9.021165"><ele>435.0</ele><time>2026-04-21T11:05:32.666Z</time></trkpt><trkpt lat="44.5177883" lon="9.0213133"><ele>434.0</ele><time>2026-04-21T11:05:33.666Z</time></trkpt><trkpt lat="44.5176417" lon="9.0214867"><ele>433.0</ele><time>2026-04-21T11:05:34.665Z</time></trkpt><trkpt lat="44.5175033" lon="9.0216583"><ele>432.0</ele><time>2026-04-21T11:05:35.665Z</time></trkpt><trkpt lat="44.517375" lon="9.0218217"><ele>432.0</ele><time>2026-04-21T11:05:36.665Z</time></trkpt><trkpt lat="44.5172417" lon="9.0219783"><ele>432.0</ele><time>2026-04-21T11:05:37.666Z</time></trkpt><trkpt lat="44.5171117" lon="9.02213"><ele>432.0</ele><time>2026-04-21T11:05:38.665Z</time></trkpt><trkpt lat="44.516995" lon="9.0222817"><ele>432.33333333333337</ele><time>2026-04-21T11:05:39.665Z</time></trkpt><trkpt lat="44.516895" lon="9.022445"><ele>432.6666666666667</ele><time>2026-04-21T11:05:40.665Z</time></trkpt><trkpt lat="44.5167967" lon="9.02263"><ele>433.0</ele><time>2026-04-21T11:05:41.665Z</time></trkpt><trkpt lat="44.516715" lon="9.02281"><ele>433.0</ele><time>2026-04-21T11:05:42.666Z</time></trkpt><trkpt lat="44.51665" lon="9.023"><ele>433.0</ele><time>2026-04-21T11:05:43.665Z</time></trkpt><trkpt lat="44.5166133" lon="9.023205"><ele>433.0</ele><time>2026-04-21T11:05:44.665Z</time></trkpt><trkpt lat="44.5165783" lon="9.0234067"><ele>433.0</ele><time>2026-04-21T11:05:45.666Z</time></trkpt><trkpt lat="44.5165433" lon="9.02361"><ele>433.0</ele><time>2026-04-21T11:05:46.666Z</time></trkpt><trkpt lat="44.5164833" lon="9.02379"><ele>433.0</ele><time>2026-04-21T11:05:47.665Z</time></trkpt><trkpt lat="44.5164083" lon="9.0239367"><ele>433.0</ele><time>2026-04-21T11:05:48.665Z</time></trkpt><trkpt lat="44.5162967" lon="9.0240617"><ele>433.0</ele><time>2026-04-21T11:05:49.666Z</time></trkpt><trkpt lat="44.51618" lon="9.0241767"><ele>433.0</ele><time>2026-04-21T11:05:50.665Z</time></trkpt><trkpt lat="44.5160467" lon="9.0242867"><ele>433.0</ele><time>2026-04-21T11:05:51.666Z</time></trkpt><trkpt lat="44.51591" lon="9.02439"><ele>433.0</ele><time>2026-04-21T11:05:52.665Z</time></trkpt><trkpt lat="44.515785" lon="9.0245017"><ele>433.0</ele><time>2026-04-21T11:05:53.666Z</time></trkpt><trkpt lat="44.5156683" lon="9.02461"><ele>433.0</ele><time>2026-04-21T11:05:54.665Z</time></trkpt><trkpt lat="44.5155733" lon="9.02473"><ele>433.0</ele><time>2026-04-21T11:05:55.665Z</time></trkpt><trkpt lat="44.5155267" lon="9.0248483"><ele>433.0</ele><time>2026-04-21T11:05:56.665Z</time></trkpt><trkpt lat="44.5154867" lon="9.0250183"><ele>431.0</ele><time>2026-04-21T11:05:57.666Z</time></trkpt><trkpt lat="44.51549" lon="9.0252233"><ele>429.0</ele><time>2026-04-21T11:05:58.666Z</time></trkpt><trkpt lat="44.5155083" lon="9.0254533"><ele>427.0</ele><time>2026-04-21T11:05:59.666Z</time></trkpt><trkpt lat="44.51552" lon="9.0256767"><ele>427.33333333333337</ele><time>2026-04-21T11:06:00.666Z</time></trkpt><trkpt lat="44.5155233" lon="9.0258933"><ele>427.66666666666663</ele><time>2026-04-21T11:06:01.666Z</time></trkpt><trkpt lat="44.5155067" lon="9.0261117"><ele>428.0</ele><time>2026-04-21T11:06:02.665Z</time></trkpt><trkpt lat="44.51547" lon="9.0263483"><ele>428.0</ele><time>2026-04-21T11:06:03.666Z</time></trkpt><trkpt lat="44.5154217" lon="9.0266"><ele>428.0</ele><time>2026-04-21T11:06:04.666Z</time></trkpt><trkpt lat="44.515375" lon="9.0268567"><ele>428.0</ele><time>2026-04-21T11:06:05.666Z</time></trkpt><trkpt lat="44.5153333" lon="9.0271133"><ele>429.0</ele><time>2026-04-21T11:06:06.666Z</time></trkpt><trkpt lat="44.5152867" lon="9.027385"><ele>430.0</ele><time>2026-04-21T11:06:07.665Z</time></trkpt><trkpt lat="44.515235" lon="9.0276717"><ele>431.0</ele><time>2026-04-21T11:06:08.665Z</time></trkpt><trkpt lat="44.515175" lon="9.0279733"><ele>431.66666666666663</ele><time>2026-04-21T11:06:09.665Z</time></trkpt><trkpt lat="44.51512" lon="9.0282817"><ele>432.33333333333337</ele><time>2026-04-21T11:06:10.665Z</time></trkpt><trkpt lat="44.51507" lon="9.028575"><ele>433.0</ele><time>2026-04-21T11:06:11.665Z</time></trkpt><trkpt lat="44.5150167" lon="9.02888"><ele>433.0</ele><time>2026-04-21T11:06:12.665Z</time></trkpt><trkpt lat="44.514965" lon="9.02919"><ele>433.0</ele><time>2026-04-21T11:06:13.665Z</time></trkpt><trkpt lat="44.514915" lon="9.0294933"><ele>433.0</ele><time>2026-04-21T11:06:14.665Z</time></trkpt><trkpt lat="44.5148633" lon="9.0297767"><ele>433.6666666666667</ele><time>2026-04-21T11:06:15.665Z</time></trkpt><trkpt lat="44.5147983" lon="9.0300483"><ele>434.33333333333337</ele><time>2026-04-21T11:06:16.665Z</time></trkpt><trkpt lat="44.5147383" lon="9.030315"><ele>435.0</ele><time>2026-04-21T11:06:17.666Z</time></trkpt><trkpt lat="44.51467" lon="9.0305617"><ele>435.0</ele><time>2026-04-21T11:06:18.665Z</time></trkpt><trkpt lat="44.5145867" lon="9.030795"><ele>435.0</ele><time>2026-04-21T11:06:19.666Z</time></trkpt><trkpt lat="44.5145" lon="9.0309983"><ele>435.0</ele><time>2026-04-21T11:06:20.666Z</time></trkpt><trkpt lat="44.5143933" lon="9.0311933"><ele>439.0</ele><time>2026-04-21T11:06:21.665Z</time></trkpt><trkpt lat="44.51425" lon="9.0313833"><ele>443.0</ele><time>2026-04-21T11:06:22.666Z</time></trkpt><trkpt lat="44.5141017" lon="9.03156"><ele>447.0</ele><time>2026-04-21T11:06:23.665Z</time></trkpt><trkpt lat="44.51394" lon="9.0317333"><ele>447.0</ele><time>2026-04-21T11:06:24.665Z</time></trkpt><trkpt lat="44.513795" lon="9.0319033"><ele>447.0</ele><time>2026-04-21T11:06:25.665Z</time></trkpt><trkpt lat="44.5136517" lon="9.0321117"><ele>447.0</ele><time>2026-04-21T11:06:26.666Z</time></trkpt><trkpt lat="44.5135033" lon="9.0323217"><ele>451.33333333333337</ele><time>2026-04-21T11:06:27.665Z</time></trkpt><trkpt lat="44.5133533" lon="9.0325433"><ele>455.6666666666667</ele><time>2026-04-21T11:06:28.666Z</time></trkpt><trkpt lat="44.513215" lon="9.03274"><ele>460.0</ele><time>2026-04-21T11:06:29.665Z</time></trkpt><trkpt lat="44.51309" lon="9.032935"><ele>460.0</ele><time>2026-04-21T11:06:30.666Z</time></trkpt><trkpt lat="44.5129883" lon="9.0331117"><ele>460.0</ele><time>2026-04-21T11:06:31.666Z</time></trkpt><trkpt lat="44.5129217" lon="9.0332867"><ele>460.0</ele><time>2026-04-21T11:06:32.665Z</time></trkpt><trkpt lat="44.5128633" lon="9.033495"><ele>463.75</ele><time>2026-04-21T11:06:33.666Z</time></trkpt><trkpt lat="44.5128417" lon="9.033705"><ele>467.5</ele><time>2026-04-21T11:06:34.665Z</time></trkpt><trkpt lat="44.5128633" lon="9.0338933"><ele>471.25</ele><time>2026-04-21T11:06:35.665Z</time></trkpt><trkpt lat="44.5129217" lon="9.0340583"><ele>475.0</ele><time>2026-04-21T11:06:36.665Z</time></trkpt><trkpt lat="44.51302" lon="9.0341967"><ele>464.6666666666667</ele><time>2026-04-21T11:06:37.665Z</time></trkpt><trkpt lat="44.5131467" lon="9.0343083"><ele>454.33333333333337</ele><time>2026-04-21T11:06:38.666Z</time></trkpt><trkpt lat="44.5132683" lon="9.0344417"><ele>444.0</ele><time>2026-04-21T11:06:39.665Z</time></trkpt><trkpt lat="44.51336" lon="9.0346183"><ele>444.0</ele><time>2026-04-21T11:06:40.666Z</time></trkpt><trkpt lat="44.51342" lon="9.03483"><ele>444.0</ele><time>2026-04-21T11:06:41.665Z</time></trkpt><trkpt lat="44.5134917" lon="9.0350533"><ele>444.0</ele><time>2026-04-21T11:06:42.665Z</time></trkpt><trkpt lat="44.5135733" lon="9.03527"><ele>442.0</ele><time>2026-04-21T11:06:43.665Z</time></trkpt><trkpt lat="44.5136617" lon="9.035495"><ele>440.0</ele><time>2026-04-21T11:06:44.665Z</time></trkpt><trkpt lat="44.5137183" lon="9.035735"><ele>438.0</ele><time>2026-04-21T11:06:45.665Z</time></trkpt><trkpt lat="44.51375" lon="9.035975"><ele>438.0</ele><time>2026-04-21T11:06:46.666Z</time></trkpt><trkpt lat="44.5137717" lon="9.0361967"><ele>438.0</ele><time>2026-04-21T11:06:47.665Z</time></trkpt><trkpt lat="44.513785" lon="9.0364033"><ele>438.0</ele><time>2026-04-21T11:06:48.666Z</time></trkpt><trkpt lat="44.5137917" lon="9.036585"><ele>438.0</ele><time>2026-04-21T11:06:49.665Z</time></trkpt><trkpt lat="44.5138233" lon="9.0367267"><ele>439.75</ele><time>2026-04-21T11:06:50.666Z</time></trkpt><trkpt lat="44.513865" lon="9.0368583"><ele>441.5</ele><time>2026-04-21T11:06:51.666Z</time></trkpt><trkpt lat="44.513945" lon="9.036995"><ele>443.25</ele><time>2026-04-21T11:06:52.665Z</time></trkpt><trkpt lat="44.5140217" lon="9.0371417"><ele>445.0</ele><time>2026-04-21T11:06:53.666Z</time></trkpt><trkpt lat="44.5140817" lon="9.037295"><ele>445.0</ele><time>2026-04-21T11:06:54.665Z</time></trkpt><trkpt lat="44.5141267" lon="9.037455"><ele>445.0</ele><time>2026-04-21T11:06:55.666Z</time></trkpt><trkpt lat="44.5141133" lon="9.037615"><ele>445.0</ele><time>2026-04-21T11:06:56.666Z</time></trkpt><trkpt lat="44.514115" lon="9.0377617"><ele>445.0</ele><time>2026-04-21T11:06:57.666Z</time></trkpt><trkpt lat="44.5140733" lon="9.0379067"><ele>446.25</ele><time>2026-04-21T11:06:58.665Z</time></trkpt><trkpt lat="44.5140133" lon="9.0380333"><ele>447.5</ele><time>2026-04-21T11:06:59.665Z</time></trkpt><trkpt lat="44.51394" lon="9.0381517"><ele>448.75</ele><time>2026-04-21T11:07:00.666Z</time></trkpt><trkpt lat="44.51384" lon="9.0382433"><ele>450.0</ele><time>2026-04-21T11:07:01.665Z</time></trkpt><trkpt lat="44.5137383" lon="9.038325"><ele>452.8</ele><time>2026-04-21T11:07:02.666Z</time></trkpt><trkpt lat="44.5136333" lon="9.0383833"><ele>455.6</ele><time>2026-04-21T11:07:03.665Z</time></trkpt><trkpt lat="44.513525" lon="9.03841"><ele>458.4</ele><time>2026-04-21T11:07:04.665Z</time></trkpt><trkpt lat="44.5134333" lon="9.0383933"><ele>461.2</ele><time>2026-04-21T11:07:05.665Z</time></trkpt><trkpt lat="44.513335" lon="9.0383317"><ele>464.0</ele><time>2026-04-21T11:07:06.665Z</time></trkpt><trkpt lat="44.5132433" lon="9.0382433"><ele>467.79999999999995</ele><time>2026-04-21T11:07:07.665Z</time></trkpt><trkpt lat="44.5131383" lon="9.038155"><ele>471.59999999999997</ele><time>2026-04-21T11:07:08.665Z</time></trkpt><trkpt lat="44.51304" lon="9.0380933"><ele>475.4</ele><time>2026-04-21T11:07:09.666Z</time></trkpt><trkpt lat="44.51294" lon="9.0380733"><ele>479.2</ele><time>2026-04-21T11:07:10.666Z</time></trkpt><trkpt lat="44.512835" lon="9.0381083"><ele>483.0</ele><time>2026-04-21T11:07:11.665Z</time></trkpt><trkpt lat="44.5127333" lon="9.03818"><ele>483.59999999999997</ele><time>2026-04-21T11:07:12.665Z</time></trkpt><trkpt lat="44.5126583" lon="9.038285"><ele>484.19999999999993</ele><time>2026-04-21T11:07:13.666Z</time></trkpt><trkpt lat="44.5126183" lon="9.0384183"><ele>484.8</ele><time>2026-04-21T11:07:14.666Z</time></trkpt><trkpt lat="44.5126083" lon="9.0385717"><ele>485.4</ele><time>2026-04-21T11:07:15.665Z</time></trkpt><trkpt lat="44.5126267" lon="9.0387433"><ele>486.0</ele><time>2026-04-21T11:07:16.665Z</time></trkpt><trkpt lat="44.51268" lon="9.03891"><ele>482.75</ele><time>2026-04-21T11:07:17.666Z</time></trkpt><trkpt lat="44.512755" lon="9.0390683"><ele>479.5</ele><time>2026-04-21T11:07:18.666Z</time></trkpt><trkpt lat="44.512845" lon="9.0392017"><ele>476.25</ele><time>2026-04-21T11:07:19.665Z</time></trkpt><trkpt lat="44.5129467" lon="9.0393283"><ele>473.0</ele><time>2026-04-21T11:07:20.666Z</time></trkpt><trkpt lat="44.5130483" lon="9.03946"><ele>468.25</ele><time>2026-04-21T11:07:21.665Z</time></trkpt><trkpt lat="44.5131317" lon="9.0396167"><ele>463.5</ele><time>2026-04-21T11:07:22.666Z</time></trkpt><trkpt lat="44.5132033" lon="9.0398"><ele>458.75</ele><time>2026-04-21T11:07:23.665Z</time></trkpt><trkpt lat="44.51326" lon="9.0400017"><ele>454.0</ele><time>2026-04-21T11:07:24.666Z</time></trkpt><trkpt lat="44.513305" lon="9.0402067"><ele>454.0</ele><time>2026-04-21T11:07:25.666Z</time></trkpt><trkpt lat="44.5133533" lon="9.0404083"><ele>454.0</ele><time>2026-04-21T11:07:26.665Z</time></trkpt><trkpt lat="44.5134083" lon="9.0405983"><ele>454.0</ele><time>2026-04-21T11:07:27.665Z</time></trkpt><trkpt lat="44.5134333" lon="9.0407783"><ele>454.0</ele><time>2026-04-21T11:07:28.665Z</time></trkpt><trkpt lat="44.513445" lon="9.040955"><ele>454.0</ele><time>2026-04-21T11:07:29.665Z</time></trkpt><trkpt lat="44.5134133" lon="9.0411467"><ele>454.0</ele><time>2026-04-21T11:07:30.665Z</time></trkpt><trkpt lat="44.51336" lon="9.0413367"><ele>454.0</ele><time>2026-04-21T11:07:31.666Z</time></trkpt><trkpt lat="44.513325" lon="9.041535"><ele>454.0</ele><time>2026-04-21T11:07:32.665Z</time></trkpt><trkpt lat="44.5132833" lon="9.0417133"><ele>454.0</ele><time>2026-04-21T11:07:33.666Z</time></trkpt><trkpt lat="44.5133383" lon="9.0419033"><ele>454.0</ele><time>2026-04-21T11:07:34.665Z</time></trkpt><trkpt lat="44.51342" lon="9.0421067"><ele>454.0</ele><time>2026-04-21T11:07:35.665Z</time></trkpt><trkpt lat="44.513515" lon="9.042315"><ele>454.33333333333337</ele><time>2026-04-21T11:07:36.665Z</time></trkpt><trkpt lat="44.5135983" lon="9.0425283"><ele>454.66666666666663</ele><time>2026-04-21T11:07:37.665Z</time></trkpt><trkpt lat="44.51367" lon="9.0427283"><ele>455.0</ele><time>2026-04-21T11:07:38.665Z</time></trkpt><trkpt lat="44.513735" lon="9.04293"><ele>451.25</ele><time>2026-04-21T11:07:39.665Z</time></trkpt><trkpt lat="44.5137917" lon="9.04312"><ele>447.5</ele><time>2026-04-21T11:07:40.666Z</time></trkpt><trkpt lat="44.5138367" lon="9.0433167"><ele>443.75</ele><time>2026-04-21T11:07:41.666Z</time></trkpt><trkpt lat="44.5138633" lon="9.0435083"><ele>440.0</ele><time>2026-04-21T11:07:42.665Z</time></trkpt><trkpt lat="44.5138733" lon="9.04369"><ele>439.75</ele><time>2026-04-21T11:07:43.666Z</time></trkpt><trkpt lat="44.5139133" lon="9.04387"><ele>439.5</ele><time>2026-04-21T11:07:44.666Z</time></trkpt><trkpt lat="44.5139533" lon="9.0440533"><ele>439.25</ele><time>2026-04-21T11:07:45.665Z</time></trkpt><trkpt lat="44.5139967" lon="9.0442167"><ele>439.0</ele><time>2026-04-21T11:07:46.665Z</time></trkpt><trkpt lat="44.5140517" lon="9.04439"><ele>439.75</ele><time>2026-04-21T11:07:47.666Z</time></trkpt><trkpt lat="44.5140883" lon="9.04456"><ele>440.5</ele><time>2026-04-21T11:07:48.666Z</time></trkpt><trkpt lat="44.5141217" lon="9.0447217"><ele>441.25</ele><time>2026-04-21T11:07:49.665Z</time></trkpt><trkpt lat="44.514155" lon="9.04487"><ele>442.0</ele><time>2026-04-21T11:07:50.665Z</time></trkpt><trkpt lat="44.5141833" lon="9.045045"><ele>442.25</ele><time>2026-04-21T11:07:51.665Z</time></trkpt><trkpt lat="44.514205" lon="9.0452233"><ele>442.5</ele><time>2026-04-21T11:07:52.665Z</time></trkpt><trkpt lat="44.5142217" lon="9.0454233"><ele>442.75</ele><time>2026-04-21T11:07:53.666Z</time></trkpt><trkpt lat="44.5142533" lon="9.04563"><ele>443.0</ele><time>2026-04-21T11:07:54.665Z</time></trkpt><trkpt lat="44.5143" lon="9.045845"><ele>443.3333333333333</ele><time>2026-04-21T11:07:55.666Z</time></trkpt><trkpt lat="44.5143533" lon="9.0460683"><ele>443.66666666666663</ele><time>2026-04-21T11:07:56.665Z</time></trkpt><trkpt lat="44.5144033" lon="9.0463"><ele>444.0</ele><time>2026-04-21T11:07:57.665Z</time></trkpt><trkpt lat="44.5144567" lon="9.04653"><ele>444.66666666666663</ele><time>2026-04-21T11:07:58.666Z</time></trkpt><trkpt lat="44.5145233" lon="9.0467633"><ele>445.3333333333333</ele><time>2026-04-21T11:07:59.666Z</time></trkpt><trkpt lat="44.5145817" lon="9.0470017"><ele>446.0</ele><time>2026-04-21T11:08:00.666Z</time></trkpt><trkpt lat="44.5146467" lon="9.0472267"><ele>445.0</ele><time>2026-04-21T11:08:01.665Z</time></trkpt><trkpt lat="44.5146867" lon="9.0474417"><ele>444.0</ele><time>2026-04-21T11:08:02.665Z</time></trkpt><trkpt lat="44.514735" lon="9.04762"><ele>443.0</ele><time>2026-04-21T11:08:03.665Z</time></trkpt><trkpt lat="44.5147833" lon="9.0477667"><ele>442.0</ele><time>2026-04-21T11:08:04.665Z</time></trkpt><trkpt lat="44.514845" lon="9.0478667"><ele>442.0</ele><time>2026-04-21T11:08:05.665Z</time></trkpt><trkpt lat="44.5149167" lon="9.0479383"><ele>442.0</ele><time>2026-04-21T11:08:06.665Z</time></trkpt><trkpt lat="44.5150117" lon="9.0479767"><ele>442.0</ele><time>2026-04-21T11:08:07.665Z</time></trkpt><trkpt lat="44.5151317" lon="9.047965"><ele>442.0</ele><time>2026-04-21T11:08:08.665Z</time></trkpt><trkpt lat="44.5152733" lon="9.0479183"><ele>441.33333333333337</ele><time>2026-04-21T11:08:09.666Z</time></trkpt><trkpt lat="44.515425" lon="9.0478617"><ele>440.66666666666663</ele><time>2026-04-21T11:08:10.666Z</time></trkpt><trkpt lat="44.5155817" lon="9.04781"><ele>440.0</ele><time>2026-04-21T11:08:11.666Z</time></trkpt><trkpt lat="44.5157417" lon="9.04777"><ele>440.0</ele><time>2026-04-21T11:08:12.665Z</time></trkpt><trkpt lat="44.5158917" lon="9.0477117"><ele>440.0</ele><time>2026-04-21T11:08:13.666Z</time></trkpt><trkpt lat="44.5160367" lon="9.04766"><ele>440.0</ele><time>2026-04-21T11:08:14.665Z</time></trkpt><trkpt lat="44.5161733" lon="9.0476283"><ele>440.0</ele><time>2026-04-21T11:08:15.666Z</time></trkpt><trkpt lat="44.5162933" lon="9.0476417"><ele>443.25</ele><time>2026-04-21T11:08:16.665Z</time></trkpt><trkpt lat="44.5164083" lon="9.0476883"><ele>446.5</ele><time>2026-04-21T11:08:17.665Z</time></trkpt><trkpt lat="44.51652" lon="9.0477867"><ele>449.75</ele><time>2026-04-21T11:08:18.666Z</time></trkpt><trkpt lat="44.5166183" lon="9.047915"><ele>453.0</ele><time>2026-04-21T11:08:19.666Z</time></trkpt><trkpt lat="44.5167083" lon="9.0480783"><ele>453.0</ele><time>2026-04-21T11:08:20.666Z</time></trkpt><trkpt lat="44.5167717" lon="9.0482683"><ele>453.0</ele><time>2026-04-21T11:08:21.665Z</time></trkpt><trkpt lat="44.51684" lon="9.0484567"><ele>453.0</ele><time>2026-04-21T11:08:22.665Z</time></trkpt><trkpt lat="44.516905" lon="9.0486433"><ele>453.0</ele><time>2026-04-21T11:08:23.665Z</time></trkpt><trkpt lat="44.5169833" lon="9.0488217"><ele>452.25</ele><time>2026-04-21T11:08:24.666Z</time></trkpt><trkpt lat="44.5170683" lon="9.0489833"><ele>451.5</ele><time>2026-04-21T11:08:25.665Z</time></trkpt><trkpt lat="44.5171483" lon="9.0491283"><ele>450.75</ele><time>2026-04-21T11:08:26.665Z</time></trkpt><trkpt lat="44.5172433" lon="9.049265"><ele>450.0</ele><time>2026-04-21T11:08:27.666Z</time></trkpt><trkpt lat="44.5173367" lon="9.0493767"><ele>450.0</ele><time>2026-04-21T11:08:28.666Z</time></trkpt><trkpt lat="44.5174183" lon="9.049485"><ele>450.0</ele><time>2026-04-21T11:08:29.666Z</time></trkpt><trkpt lat="44.51749" lon="9.04958"><ele>450.0</ele><time>2026-04-21T11:08:30.665Z</time></trkpt><trkpt lat="44.5175367" lon="9.0496917"><ele>450.0</ele><time>2026-04-21T11:08:31.665Z</time></trkpt><trkpt lat="44.5175583" lon="9.0498333"><ele>450.0</ele><time>2026-04-21T11:08:32.665Z</time></trkpt><trkpt lat="44.5175667" lon="9.0499817"><ele>449.2</ele><time>2026-04-21T11:08:33.666Z</time></trkpt><trkpt lat="44.5175717" lon="9.050155"><ele>448.4</ele><time>2026-04-21T11:08:34.666Z</time></trkpt><trkpt lat="44.5175833" lon="9.0503033"><ele>447.6</ele><time>2026-04-21T11:08:35.665Z</time></trkpt><trkpt lat="44.51758" lon="9.05044"><ele>446.8</ele><time>2026-04-21T11:08:36.666Z</time></trkpt><trkpt lat="44.5175667" lon="9.0505517"><ele>446.0</ele><time>2026-04-21T11:08:37.666Z</time></trkpt><trkpt lat="44.51757" lon="9.0506633"><ele>445.99999999999994</ele><time>2026-04-21T11:08:38.666Z</time></trkpt><trkpt lat="44.5175633" lon="9.0507633"><ele>446.0</ele><time>2026-04-21T11:08:39.665Z</time></trkpt><trkpt lat="44.5175633" lon="9.05086"><ele>446.0</ele><time>2026-04-21T11:08:40.665Z</time></trkpt><trkpt lat="44.5175633" lon="9.0509667"><ele>446.0</ele><time>2026-04-21T11:08:41.665Z</time></trkpt><trkpt lat="44.5175717" lon="9.05109"><ele>445.99999999999994</ele><time>2026-04-21T11:08:42.665Z</time></trkpt><trkpt lat="44.5175833" lon="9.0512317"><ele>446.0</ele><time>2026-04-21T11:08:43.665Z</time></trkpt><trkpt lat="44.5175983" lon="9.0513667"><ele>446.0</ele><time>2026-04-21T11:08:44.666Z</time></trkpt><trkpt lat="44.5176117" lon="9.0515"><ele>446.0</ele><time>2026-04-21T11:08:45.665Z</time></trkpt><trkpt lat="44.5176383" lon="9.0516267"><ele>446.0</ele><time>2026-04-21T11:08:46.666Z</time></trkpt><trkpt lat="44.51767" lon="9.0517433"><ele>446.0</ele><time>2026-04-21T11:08:47.665Z</time></trkpt><trkpt lat="44.5177167" lon="9.0518633"><ele>446.0</ele><time>2026-04-21T11:08:48.666Z</time></trkpt><trkpt lat="44.5177883" lon="9.0519833"><ele>446.0</ele><time>2026-04-21T11:08:49.666Z</time></trkpt><trkpt lat="44.5178633" lon="9.052115"><ele>446.0</ele><time>2026-04-21T11:08:50.666Z</time></trkpt><trkpt lat="44.5179317" lon="9.0522417"><ele>446.0</ele><time>2026-04-21T11:08:51.666Z</time></trkpt><trkpt lat="44.5180033" lon="9.05235"><ele>446.0</ele><time>2026-04-21T11:08:52.665Z</time></trkpt><trkpt lat="44.5180567" lon="9.05247"><ele>446.0</ele><time>2026-04-21T11:08:53.665Z</time></trkpt><trkpt lat="44.5181167" lon="9.0525867"><ele>447.6</ele><time>2026-04-21T11:08:54.666Z</time></trkpt><trkpt lat="44.518165" lon="9.05272"><ele>449.20000000000005</ele><time>2026-04-21T11:08:55.666Z</time></trkpt><trkpt lat="44.5182317" lon="9.05285"><ele>450.79999999999995</ele><time>2026-04-21T11:08:56.665Z</time></trkpt><trkpt lat="44.5182867" lon="9.0529783"><ele>452.4</ele><time>2026-04-21T11:08:57.666Z</time></trkpt><trkpt lat="44.5183283" lon="9.0531"><ele>454.0</ele><time>2026-04-21T11:08:58.666Z</time></trkpt><trkpt lat="44.5183633" lon="9.053225"><ele>453.25</ele><time>2026-04-21T11:08:59.665Z</time></trkpt><trkpt lat="44.5183917" lon="9.0533617"><ele>452.5</ele><time>2026-04-21T11:09:00.665Z</time></trkpt><trkpt lat="44.5184133" lon="9.0535233"><ele>451.75</ele><time>2026-04-21T11:09:01.666Z</time></trkpt><trkpt lat="44.5184333" lon="9.053695"><ele>451.0</ele><time>2026-04-21T11:09:02.666Z</time></trkpt><trkpt lat="44.5184517" lon="9.05387"><ele>451.0</ele><time>2026-04-21T11:09:03.665Z</time></trkpt><trkpt lat="44.5185067" lon="9.05404"><ele>451.0</ele><time>2026-04-21T11:09:04.665Z</time></trkpt><trkpt lat="44.5185833" lon="9.0542167"><ele>451.0</ele><time>2026-04-21T11:09:05.666Z</time></trkpt><trkpt lat="44.5186833" lon="9.0543867"><ele>451.0</ele><time>2026-04-21T11:09:06.666Z</time></trkpt><trkpt lat="44.5187917" lon="9.054565"><ele>452.6666666666667</ele><time>2026-04-21T11:09:07.666Z</time></trkpt><trkpt lat="44.5188933" lon="9.0547483"><ele>454.33333333333337</ele><time>2026-04-21T11:09:08.665Z</time></trkpt><trkpt lat="44.519" lon="9.0549167"><ele>456.0</ele><time>2026-04-21T11:09:09.665Z</time></trkpt><trkpt lat="44.519095" lon="9.055085"><ele>456.0</ele><time>2026-04-21T11:09:10.665Z</time></trkpt><trkpt lat="44.5191667" lon="9.0552733"><ele>456.0</ele><time>2026-04-21T11:09:11.665Z</time></trkpt><trkpt lat="44.519225" lon="9.0554617"><ele>456.0</ele><time>2026-04-21T11:09:12.665Z</time></trkpt><trkpt lat="44.5192467" lon="9.0556917"><ele>455.75</ele><time>2026-04-21T11:09:13.666Z</time></trkpt><trkpt lat="44.5192633" lon="9.0559"><ele>455.5</ele><time>2026-04-21T11:09:14.666Z</time></trkpt><trkpt lat="44.5192583" lon="9.0560783"><ele>455.25</ele><time>2026-04-21T11:09:15.666Z</time></trkpt><trkpt lat="44.5192417" lon="9.0562183"><ele>455.0</ele><time>2026-04-21T11:09:16.665Z</time></trkpt><trkpt lat="44.51919" lon="9.0563333"><ele>455.0</ele><time>2026-04-21T11:09:17.665Z</time></trkpt><trkpt lat="44.5190917" lon="9.0564233"><ele>455.0</ele><time>2026-04-21T11:09:18.666Z</time></trkpt><trkpt lat="44.51896" lon="9.056475"><ele>455.0</ele><time>2026-04-21T11:09:19.665Z</time></trkpt><trkpt lat="44.518815" lon="9.0565167"><ele>455.0</ele><time>2026-04-21T11:09:20.666Z</time></trkpt><trkpt lat="44.518645" lon="9.0565383"><ele>452.0</ele><time>2026-04-21T11:09:21.665Z</time></trkpt><trkpt lat="44.5184683" lon="9.0565683"><ele>449.0</ele><time>2026-04-21T11:09:22.665Z</time></trkpt><trkpt lat="44.5182783" lon="9.056585"><ele>446.0</ele><time>2026-04-21T11:09:23.666Z</time></trkpt><trkpt lat="44.5181067" lon="9.0566117"><ele>446.3333333333333</ele><time>2026-04-21T11:09:24.666Z</time></trkpt><trkpt lat="44.5179417" lon="9.0566433"><ele>446.66666666666663</ele><time>2026-04-21T11:09:25.665Z</time></trkpt><trkpt lat="44.5177917" lon="9.056665"><ele>447.0</ele><time>2026-04-21T11:09:26.666Z</time></trkpt><trkpt lat="44.5176517" lon="9.0566867"><ele>448.5</ele><time>2026-04-21T11:09:27.665Z</time></trkpt><trkpt lat="44.5175283" lon="9.0567567"><ele>450.0</ele><time>2026-04-21T11:09:28.666Z</time></trkpt><trkpt lat="44.51743" lon="9.05682"><ele>451.5</ele><time>2026-04-21T11:09:29.666Z</time></trkpt><trkpt lat="44.5173517" lon="9.0569217"><ele>453.0</ele><time>2026-04-21T11:09:30.665Z</time></trkpt><trkpt lat="44.5173067" lon="9.0570633"><ele>453.0</ele><time>2026-04-21T11:09:31.666Z</time></trkpt><trkpt lat="44.5172667" lon="9.057245"><ele>453.0</ele><time>2026-04-21T11:09:32.666Z</time></trkpt><trkpt lat="44.51724" lon="9.0574367"><ele>453.0</ele><time>2026-04-21T11:09:33.665Z</time></trkpt><trkpt lat="44.5172" lon="9.0576083"><ele>453.0</ele><time>2026-04-21T11:09:34.666Z</time></trkpt><trkpt lat="44.5171383" lon="9.0577583"><ele>452.5</ele><time>2026-04-21T11:09:35.666Z</time></trkpt><trkpt lat="44.5170667" lon="9.0578933"><ele>452.0</ele><time>2026-04-21T11:09:36.665Z</time></trkpt><trkpt lat="44.516975" lon="9.0579917"><ele>451.5</ele><time>2026-04-21T11:09:37.666Z</time></trkpt><trkpt lat="44.5168983" lon="9.0581067"><ele>451.0</ele><time>2026-04-21T11:09:38.665Z</time></trkpt><trkpt lat="44.5168317" lon="9.0582667"><ele>452.0</ele><time>2026-04-21T11:09:39.665Z</time></trkpt><trkpt lat="44.516775" lon="9.0584283"><ele>453.0</ele><time>2026-04-21T11:09:40.666Z</time></trkpt><trkpt lat="44.5167267" lon="9.0586083"><ele>454.0</ele><time>2026-04-21T11:09:41.666Z</time></trkpt><trkpt lat="44.51667" lon="9.058795"><ele>455.0</ele><time>2026-04-21T11:09:42.665Z</time></trkpt><trkpt lat="44.5166183" lon="9.05898"><ele>456.5</ele><time>2026-04-21T11:09:43.666Z</time></trkpt><trkpt lat="44.5165583" lon="9.0591667"><ele>458.0</ele><time>2026-04-21T11:09:44.666Z</time></trkpt><trkpt lat="44.51649" lon="9.059355"><ele>459.5</ele><time>2026-04-21T11:09:45.666Z</time></trkpt><trkpt lat="44.5164133" lon="9.0595383"><ele>461.0</ele><time>2026-04-21T11:09:46.666Z</time></trkpt><trkpt lat="44.51633" lon="9.0596967"><ele>461.0</ele><time>2026-04-21T11:09:47.666Z</time></trkpt><trkpt lat="44.516245" lon="9.059845"><ele>461.0</ele><time>2026-04-21T11:09:48.665Z</time></trkpt><trkpt lat="44.5161567" lon="9.05998"><ele>461.0</ele><time>2026-04-21T11:09:49.665Z</time></trkpt><trkpt lat="44.5160617" lon="9.0601167"><ele>461.0</ele><time>2026-04-21T11:09:50.666Z</time></trkpt><trkpt lat="44.5159467" lon="9.060225"><ele>459.5</ele><time>2026-04-21T11:09:51.666Z</time></trkpt><trkpt lat="44.515835" lon="9.0603217"><ele>458.0</ele><time>2026-04-21T11:09:52.665Z</time></trkpt><trkpt lat="44.5157333" lon="9.06042"><ele>456.5</ele><time>2026-04-21T11:09:53.665Z</time></trkpt><trkpt lat="44.5156383" lon="9.06056"><ele>455.0</ele><time>2026-04-21T11:09:54.666Z</time></trkpt><trkpt lat="44.5155583" lon="9.0607167"><ele>454.75</ele><time>2026-04-21T11:09:55.665Z</time></trkpt><trkpt lat="44.5154883" lon="9.0608833"><ele>454.5</ele><time>2026-04-21T11:09:56.666Z</time></trkpt><trkpt lat="44.5154217" lon="9.0610633"><ele>454.25</ele><time>2026-04-21T11:09:57.666Z</time></trkpt><trkpt lat="44.51537" lon="9.0612383"><ele>454.0</ele><time>2026-04-21T11:09:58.665Z</time></trkpt><trkpt lat="44.5153433" lon="9.0614333"><ele>455.0</ele><time>2026-04-21T11:09:59.665Z</time></trkpt><trkpt lat="44.5153367" lon="9.06166"><ele>456.0</ele><time>2026-04-21T11:10:00.666Z</time></trkpt><trkpt lat="44.5153217" lon="9.061885"><ele>457.0</ele><time>2026-04-21T11:10:01.666Z</time></trkpt><trkpt lat="44.5152983" lon="9.0621067"><ele>457.0</ele><time>2026-04-21T11:10:02.666Z</time></trkpt><trkpt lat="44.5152617" lon="9.0623217"><ele>457.0</ele><time>2026-04-21T11:10:03.665Z</time></trkpt><trkpt lat="44.51524" lon="9.0625417"><ele>457.0</ele><time>2026-04-21T11:10:04.666Z</time></trkpt><trkpt lat="44.5152283" lon="9.062765"><ele>458.0</ele><time>2026-04-21T11:10:05.665Z</time></trkpt><trkpt lat="44.5152033" lon="9.062995"><ele>459.0</ele><time>2026-04-21T11:10:06.666Z</time></trkpt><trkpt lat="44.51517" lon="9.0632133"><ele>460.0</ele><time>2026-04-21T11:10:07.666Z</time></trkpt><trkpt lat="44.515125" lon="9.0634567"><ele>461.0</ele><time>2026-04-21T11:10:08.665Z</time></trkpt><trkpt lat="44.5150833" lon="9.0637"><ele>462.0</ele><time>2026-04-21T11:10:09.665Z</time></trkpt><trkpt lat="44.515045" lon="9.0639433"><ele>463.0</ele><time>2026-04-21T11:10:10.666Z</time></trkpt><trkpt lat="44.5150083" lon="9.0641883"><ele>465.33333333333337</ele><time>2026-04-21T11:10:11.665Z</time></trkpt><trkpt lat="44.5149667" lon="9.064425"><ele>467.66666666666663</ele><time>2026-04-21T11:10:12.665Z</time></trkpt><trkpt lat="44.5149083" lon="9.0646517"><ele>470.0</ele><time>2026-04-21T11:10:13.666Z</time></trkpt><trkpt lat="44.51484" lon="9.064865"><ele>472.3333333333333</ele><time>2026-04-21T11:10:14.665Z</time></trkpt><trkpt lat="44.5147483" lon="9.0650733"><ele>474.66666666666663</ele><time>2026-04-21T11:10:15.666Z</time></trkpt><trkpt lat="44.5146717" lon="9.0652733"><ele>477.0</ele><time>2026-04-21T11:10:16.666Z</time></trkpt><trkpt lat="44.5146067" lon="9.0654867"><ele>474.75</ele><time>2026-04-21T11:10:17.665Z</time></trkpt><trkpt lat="44.5145567" lon="9.0656783"><ele>472.5</ele><time>2026-04-21T11:10:18.665Z</time></trkpt><trkpt lat="44.5144917" lon="9.0658517"><ele>470.25</ele><time>2026-04-21T11:10:19.665Z</time></trkpt><trkpt lat="44.514425" lon="9.0659883"><ele>468.0</ele><time>2026-04-21T11:10:20.665Z</time></trkpt><trkpt lat="44.5143367" lon="9.0660867"><ele>468.0</ele><time>2026-04-21T11:10:21.666Z</time></trkpt><trkpt lat="44.51422" lon="9.0661483"><ele>468.0</ele><time>2026-04-21T11:10:22.666Z</time></trkpt><trkpt lat="44.51409" lon="9.0661617"><ele>468.0</ele><time>2026-04-21T11:10:23.666Z</time></trkpt><trkpt lat="44.5139467" lon="9.0661417"><ele>468.0</ele><time>2026-04-21T11:10:24.665Z</time></trkpt><trkpt lat="44.513795" lon="9.0661167"><ele>468.33333333333337</ele><time>2026-04-21T11:10:25.666Z</time></trkpt><trkpt lat="44.513635" lon="9.0660833"><ele>468.6666666666667</ele><time>2026-04-21T11:10:26.665Z</time></trkpt><trkpt lat="44.51346" lon="9.0660467"><ele>469.0</ele><time>2026-04-21T11:10:27.666Z</time></trkpt><trkpt lat="44.5132917" lon="9.0660183"><ele>469.0</ele><time>2026-04-21T11:10:28.665Z</time></trkpt><trkpt lat="44.513135" lon="9.06599"><ele>469.0</ele><time>2026-04-21T11:10:29.666Z</time></trkpt><trkpt lat="44.5129817" lon="9.0659383"><ele>469.0</ele><time>2026-04-21T11:10:30.665Z</time></trkpt><trkpt lat="44.5128333" lon="9.0658867"><ele>469.0</ele><time>2026-04-21T11:10:31.666Z</time></trkpt><trkpt lat="44.5127033" lon="9.06588"><ele>469.0</ele><time>2026-04-21T11:10:32.665Z</time></trkpt><trkpt lat="44.51257" lon="9.0659167"><ele>469.0</ele><time>2026-04-21T11:10:33.666Z</time></trkpt><trkpt lat="44.5124517" lon="9.0659933"><ele>469.0</ele><time>2026-04-21T11:10:34.665Z</time></trkpt><trkpt lat="44.51235" lon="9.06612"><ele>469.0</ele><time>2026-04-21T11:10:35.665Z</time></trkpt><trkpt lat="44.5122567" lon="9.0662983"><ele>469.0</ele><time>2026-04-21T11:10:36.665Z</time></trkpt><trkpt lat="44.5121883" lon="9.0665033"><ele>469.0</ele><time>2026-04-21T11:10:37.666Z</time></trkpt><trkpt lat="44.5121367" lon="9.06672"><ele>470.33333333333337</ele><time>2026-04-21T11:10:38.666Z</time></trkpt><trkpt lat="44.5120883" lon="9.0669267"><ele>471.66666666666663</ele><time>2026-04-21T11:10:39.666Z</time></trkpt><trkpt lat="44.5120483" lon="9.06714"><ele>473.0</ele><time>2026-04-21T11:10:40.666Z</time></trkpt><trkpt lat="44.512015" lon="9.0673467"><ele>473.66666666666663</ele><time>2026-04-21T11:10:41.666Z</time></trkpt><trkpt lat="44.5120183" lon="9.0675767"><ele>474.33333333333337</ele><time>2026-04-21T11:10:42.665Z</time></trkpt><trkpt lat="44.51207" lon="9.0678117"><ele>475.0</ele><time>2026-04-21T11:10:43.666Z</time></trkpt><trkpt lat="44.5121417" lon="9.0680467"><ele>485.6666666666667</ele><time>2026-04-21T11:10:44.666Z</time></trkpt><trkpt lat="44.5122067" lon="9.0683017"><ele>496.33333333333337</ele><time>2026-04-21T11:10:45.665Z</time></trkpt><trkpt lat="44.5122567" lon="9.06856"><ele>507.0</ele><time>2026-04-21T11:10:46.665Z</time></trkpt><trkpt lat="44.5122967" lon="9.0688233"><ele>507.0</ele><time>2026-04-21T11:10:47.665Z</time></trkpt><trkpt lat="44.5123367" lon="9.0691033"><ele>507.0</ele><time>2026-04-21T11:10:48.666Z</time></trkpt><trkpt lat="44.5123667" lon="9.0693733"><ele>507.0</ele><time>2026-04-21T11:10:49.665Z</time></trkpt><trkpt lat="44.5123983" lon="9.0696467"><ele>504.0</ele><time>2026-04-21T11:10:50.665Z</time></trkpt><trkpt lat="44.5124333" lon="9.0699283"><ele>501.0</ele><time>2026-04-21T11:10:51.666Z</time></trkpt><trkpt lat="44.5124667" lon="9.070215"><ele>498.0</ele><time>2026-04-21T11:10:52.665Z</time></trkpt><trkpt lat="44.5124833" lon="9.07049"><ele>495.0</ele><time>2026-04-21T11:10:53.665Z</time></trkpt><trkpt lat="44.5124933" lon="9.0707583"><ele>492.0</ele><time>2026-04-21T11:10:54.665Z</time></trkpt><trkpt lat="44.51249" lon="9.0710183"><ele>489.0</ele><time>2026-04-21T11:10:55.665Z</time></trkpt><trkpt lat="44.512475" lon="9.0712533"><ele>488.0</ele><time>2026-04-21T11:10:56.665Z</time></trkpt><trkpt lat="44.5124183" lon="9.0714717"><ele>487.0</ele><time>2026-04-21T11:10:57.665Z</time></trkpt><trkpt lat="44.5123483" lon="9.0716833"><ele>486.0</ele><time>2026-04-21T11:10:58.665Z</time></trkpt><trkpt lat="44.5123" lon="9.0718833"><ele>486.0</ele><time>2026-04-21T11:10:59.665Z</time></trkpt><trkpt lat="44.5122517" lon="9.0720733"><ele>486.0</ele><time>2026-04-21T11:11:00.665Z</time></trkpt><trkpt lat="44.512245" lon="9.07226"><ele>486.0</ele><time>2026-04-21T11:11:01.665Z</time></trkpt><trkpt lat="44.5122817" lon="9.0724317"><ele>486.0</ele><time>2026-04-21T11:11:02.666Z</time></trkpt><trkpt lat="44.5123583" lon="9.0725883"><ele>486.0</ele><time>2026-04-21T11:11:03.665Z</time></trkpt><trkpt lat="44.5124567" lon="9.07273"><ele>486.0</ele><time>2026-04-21T11:11:04.666Z</time></trkpt><trkpt lat="44.5125567" lon="9.0728767"><ele>486.0</ele><time>2026-04-21T11:11:05.665Z</time></trkpt><trkpt lat="44.512635" lon="9.0730567"><ele>486.0</ele><time>2026-04-21T11:11:06.665Z</time></trkpt><trkpt lat="44.5126883" lon="9.0732533"><ele>485.0</ele><time>2026-04-21T11:11:07.666Z</time></trkpt><trkpt lat="44.512725" lon="9.0734567"><ele>484.0</ele><time>2026-04-21T11:11:08.665Z</time></trkpt><trkpt lat="44.5127333" lon="9.0736533"><ele>483.0</ele><time>2026-04-21T11:11:09.666Z</time></trkpt><trkpt lat="44.5127183" lon="9.07387"><ele>482.0</ele><time>2026-04-21T11:11:10.665Z</time></trkpt><trkpt lat="44.5126817" lon="9.0740917"><ele>481.3333333333333</ele><time>2026-04-21T11:11:11.666Z</time></trkpt><trkpt lat="44.5126383" lon="9.074335"><ele>480.66666666666663</ele><time>2026-04-21T11:11:12.665Z</time></trkpt><trkpt lat="44.51258" lon="9.0745767"><ele>480.0</ele><time>2026-04-21T11:11:13.665Z</time></trkpt><trkpt lat="44.51251" lon="9.07481"><ele>484.0</ele><time>2026-04-21T11:11:14.666Z</time></trkpt><trkpt lat="44.5124483" lon="9.0750617"><ele>488.0</ele><time>2026-04-21T11:11:15.665Z</time></trkpt><trkpt lat="44.51238" lon="9.0753133"><ele>492.0</ele><time>2026-04-21T11:11:16.666Z</time></trkpt><trkpt lat="44.512325" lon="9.075565"><ele>496.33333333333337</ele><time>2026-04-21T11:11:17.665Z</time></trkpt><trkpt lat="44.51227" lon="9.0758133"><ele>500.6666666666667</ele><time>2026-04-21T11:11:18.665Z</time></trkpt><trkpt lat="44.5122133" lon="9.07605"><ele>505.0</ele><time>2026-04-21T11:11:19.666Z</time></trkpt><trkpt lat="44.5121533" lon="9.0762733"><ele>505.0</ele><time>2026-04-21T11:11:20.666Z</time></trkpt><trkpt lat="44.5120967" lon="9.076475"><ele>505.0</ele><time>2026-04-21T11:11:21.665Z</time></trkpt><trkpt lat="44.5120317" lon="9.07666"><ele>505.0</ele><time>2026-04-21T11:11:22.665Z</time></trkpt><trkpt lat="44.5119683" lon="9.07683"><ele>505.0</ele><time>2026-04-21T11:11:23.665Z</time></trkpt><trkpt lat="44.5118967" lon="9.076995"><ele>500.75</ele><time>2026-04-21T11:11:24.666Z</time></trkpt><trkpt lat="44.5118133" lon="9.0771467"><ele>496.5</ele><time>2026-04-21T11:11:25.666Z</time></trkpt><trkpt lat="44.51172" lon="9.0772933"><ele>492.25</ele><time>2026-04-21T11:11:26.665Z</time></trkpt><trkpt lat="44.5116217" lon="9.077455"><ele>488.0</ele><time>2026-04-21T11:11:27.665Z</time></trkpt><trkpt lat="44.511535" lon="9.077645"><ele>488.0</ele><time>2026-04-21T11:11:28.665Z</time></trkpt><trkpt lat="44.5114583" lon="9.0778583"><ele>488.0</ele><time>2026-04-21T11:11:29.666Z</time></trkpt><trkpt lat="44.5113783" lon="9.07809"><ele>488.0</ele><time>2026-04-21T11:11:30.665Z</time></trkpt><trkpt lat="44.511295" lon="9.07832"><ele>489.3333333333333</ele><time>2026-04-21T11:11:31.666Z</time></trkpt><trkpt lat="44.5112033" lon="9.0785533"><ele>490.66666666666663</ele><time>2026-04-21T11:11:32.666Z</time></trkpt><trkpt lat="44.51111" lon="9.07877"><ele>492.0</ele><time>2026-04-21T11:11:33.666Z</time></trkpt><trkpt lat="44.5110283" lon="9.0789817"><ele>492.0</ele><time>2026-04-21T11:11:34.666Z</time></trkpt><trkpt lat="44.5109533" lon="9.0791867"><ele>492.0</ele><time>2026-04-21T11:11:35.666Z</time></trkpt><trkpt lat="44.5108883" lon="9.079385"><ele>492.0</ele><time>2026-04-21T11:11:36.666Z</time></trkpt><trkpt lat="44.5108217" lon="9.0795667"><ele>492.0</ele><time>2026-04-21T11:11:37.665Z</time></trkpt><trkpt lat="44.5107883" lon="9.0797583"><ele>492.0</ele><time>2026-04-21T11:11:38.666Z</time></trkpt><trkpt lat="44.5107683" lon="9.07994"><ele>492.0</ele><time>2026-04-21T11:11:39.665Z</time></trkpt><trkpt lat="44.5107433" lon="9.0801133"><ele>492.0</ele><time>2026-04-21T11:11:40.666Z</time></trkpt><trkpt lat="44.5106967" lon="9.080255"><ele>491.0</ele><time>2026-04-21T11:11:41.666Z</time></trkpt><trkpt lat="44.5106117" lon="9.0803717"><ele>490.0</ele><time>2026-04-21T11:11:42.665Z</time></trkpt><trkpt lat="44.5105" lon="9.0804983"><ele>489.0</ele><time>2026-04-21T11:11:43.665Z</time></trkpt><trkpt lat="44.51039" lon="9.08062"><ele>488.0</ele><time>2026-04-21T11:11:44.665Z</time></trkpt><trkpt lat="44.5102733" lon="9.0807567"><ele>488.3333333333333</ele><time>2026-04-21T11:11:45.665Z</time></trkpt><trkpt lat="44.51016" lon="9.0809133"><ele>488.66666666666663</ele><time>2026-04-21T11:11:46.666Z</time></trkpt><trkpt lat="44.5100533" lon="9.08108"><ele>489.0</ele><time>2026-04-21T11:11:47.665Z</time></trkpt><trkpt lat="44.509955" lon="9.0812567"><ele>489.0</ele><time>2026-04-21T11:11:48.665Z</time></trkpt><trkpt lat="44.5098683" lon="9.0814417"><ele>489.0</ele><time>2026-04-21T11:11:49.666Z</time></trkpt><trkpt lat="44.5098017" lon="9.08164"><ele>489.0</ele><time>2026-04-21T11:11:50.665Z</time></trkpt><trkpt lat="44.50975" lon="9.0818233"><ele>493.33333333333337</ele><time>2026-04-21T11:11:51.665Z</time></trkpt><trkpt lat="44.5097" lon="9.08202"><ele>497.6666666666667</ele><time>2026-04-21T11:11:52.666Z</time></trkpt><trkpt lat="44.509675" lon="9.08224"><ele>502.0</ele><time>2026-04-21T11:11:53.666Z</time></trkpt><trkpt lat="44.509645" lon="9.08244"><ele>502.0</ele><time>2026-04-21T11:11:54.665Z</time></trkpt><trkpt lat="44.5096017" lon="9.0826233"><ele>502.0</ele><time>2026-04-21T11:11:55.665Z</time></trkpt><trkpt lat="44.5095417" lon="9.08281"><ele>502.0</ele><time>2026-04-21T11:11:56.665Z</time></trkpt><trkpt lat="44.5094617" lon="9.0829783"><ele>502.0</ele><time>2026-04-21T11:11:57.665Z</time></trkpt><trkpt lat="44.5093733" lon="9.0831367"><ele>499.0</ele><time>2026-04-21T11:11:58.666Z</time></trkpt><trkpt lat="44.5093317" lon="9.08329"><ele>496.0</ele><time>2026-04-21T11:11:59.666Z</time></trkpt><trkpt lat="44.5093133" lon="9.0834233"><ele>493.0</ele><time>2026-04-21T11:12:00.666Z</time></trkpt><trkpt lat="44.5093167" lon="9.0835867"><ele>490.0</ele><time>2026-04-21T11:12:01.666Z</time></trkpt><trkpt lat="44.5093533" lon="9.0837533"><ele>490.0</ele><time>2026-04-21T11:12:02.666Z</time></trkpt><trkpt lat="44.5094267" lon="9.083895"><ele>490.0</ele><time>2026-04-21T11:12:03.666Z</time></trkpt><trkpt lat="44.5095183" lon="9.0839967"><ele>490.0</ele><time>2026-04-21T11:12:04.665Z</time></trkpt><trkpt lat="44.5096217" lon="9.084065"><ele>490.0</ele><time>2026-04-21T11:12:05.665Z</time></trkpt><trkpt lat="44.5097483" lon="9.08411"><ele>492.25</ele><time>2026-04-21T11:12:06.666Z</time></trkpt><trkpt lat="44.50989" lon="9.0841683"><ele>494.5</ele><time>2026-04-21T11:12:07.666Z</time></trkpt><trkpt lat="44.5100183" lon="9.08425"><ele>496.75</ele><time>2026-04-21T11:12:08.666Z</time></trkpt><trkpt lat="44.5101267" lon="9.0843467"><ele>499.0</ele><time>2026-04-21T11:12:09.666Z</time></trkpt><trkpt lat="44.5102317" lon="9.0844467"><ele>499.0</ele><time>2026-04-21T11:12:10.666Z</time></trkpt><trkpt lat="44.5103133" lon="9.0845433"><ele>499.0</ele><time>2026-04-21T11:12:11.666Z</time></trkpt><trkpt lat="44.5103867" lon="9.0846483"><ele>499.0</ele><time>2026-04-21T11:12:12.666Z</time></trkpt><trkpt lat="44.5104283" lon="9.0847817"><ele>499.0</ele><time>2026-04-21T11:12:13.666Z</time></trkpt><trkpt lat="44.510435" lon="9.0849367"><ele>499.0</ele><time>2026-04-21T11:12:14.665Z</time></trkpt><trkpt lat="44.5104233" lon="9.0851267"><ele>500.5</ele><time>2026-04-21T11:12:15.665Z</time></trkpt><trkpt lat="44.51042" lon="9.0853133"><ele>502.0</ele><time>2026-04-21T11:12:16.666Z</time></trkpt><trkpt lat="44.5104233" lon="9.0854767"><ele>503.5</ele><time>2026-04-21T11:12:17.666Z</time></trkpt><trkpt lat="44.51044" lon="9.0856283"><ele>505.0</ele><time>2026-04-21T11:12:18.665Z</time></trkpt><trkpt lat="44.5104883" lon="9.085745"><ele>503.25</ele><time>2026-04-21T11:12:19.665Z</time></trkpt><trkpt lat="44.5105633" lon="9.085825"><ele>501.5</ele><time>2026-04-21T11:12:20.665Z</time></trkpt><trkpt lat="44.5106633" lon="9.08587"><ele>499.75</ele><time>2026-04-21T11:12:21.666Z</time></trkpt><trkpt lat="44.5107917" lon="9.085895"><ele>498.0</ele><time>2026-04-21T11:12:22.666Z</time></trkpt><trkpt lat="44.51094" lon="9.0859083"><ele>498.0</ele><time>2026-04-21T11:12:23.665Z</time></trkpt><trkpt lat="44.5110983" lon="9.0859033"><ele>498.0</ele><time>2026-04-21T11:12:24.665Z</time></trkpt><trkpt lat="44.5112417" lon="9.0858883"><ele>498.0</ele><time>2026-04-21T11:12:25.666Z</time></trkpt><trkpt lat="44.5113617" lon="9.0858733"><ele>498.0</ele><time>2026-04-21T11:12:26.666Z</time></trkpt><trkpt lat="44.511465" lon="9.0858767"><ele>499.6666666666667</ele><time>2026-04-21T11:12:27.665Z</time></trkpt><trkpt lat="44.5115467" lon="9.085915"><ele>501.33333333333337</ele><time>2026-04-21T11:12:28.665Z</time></trkpt><trkpt lat="44.5116033" lon="9.0859983"><ele>503.0</ele><time>2026-04-21T11:12:29.665Z</time></trkpt><trkpt lat="44.5116367" lon="9.086115"><ele>504.6666666666667</ele><time>2026-04-21T11:12:30.665Z</time></trkpt><trkpt lat="44.5116417" lon="9.0862483"><ele>506.33333333333337</ele><time>2026-04-21T11:12:31.665Z</time></trkpt><trkpt lat="44.5116117" lon="9.0863717"><ele>508.0</ele><time>2026-04-21T11:12:32.666Z</time></trkpt><trkpt lat="44.5115567" lon="9.0864917"><ele>509.75</ele><time>2026-04-21T11:12:33.665Z</time></trkpt><trkpt lat="44.5114967" lon="9.0866167"><ele>511.5</ele><time>2026-04-21T11:12:34.665Z</time></trkpt><trkpt lat="44.511455" lon="9.086765"><ele>513.25</ele><time>2026-04-21T11:12:35.665Z</time></trkpt><trkpt lat="44.5114333" lon="9.08693"><ele>515.0</ele><time>2026-04-21T11:12:36.665Z</time></trkpt><trkpt lat="44.5114267" lon="9.0871133"><ele>515.0</ele><time>2026-04-21T11:12:37.665Z</time></trkpt><trkpt lat="44.5114167" lon="9.0873133"><ele>515.0</ele><time>2026-04-21T11:12:38.666Z</time></trkpt><trkpt lat="44.51139" lon="9.0875033"><ele>515.0</ele><time>2026-04-21T11:12:39.666Z</time></trkpt><trkpt lat="44.5113483" lon="9.087675"><ele>515.0</ele><time>2026-04-21T11:12:40.666Z</time></trkpt><trkpt lat="44.5112833" lon="9.0877983"><ele>511.25</ele><time>2026-04-21T11:12:41.666Z</time></trkpt><trkpt lat="44.5111883" lon="9.0879017"><ele>507.5</ele><time>2026-04-21T11:12:42.666Z</time></trkpt><trkpt lat="44.5110633" lon="9.0880033"><ele>503.75</ele><time>2026-04-21T11:12:43.666Z</time></trkpt><trkpt lat="44.5109383" lon="9.088095"><ele>500.0</ele><time>2026-04-21T11:12:44.665Z</time></trkpt><trkpt lat="44.5108167" lon="9.08816"><ele>500.0</ele><time>2026-04-21T11:12:45.665Z</time></trkpt><trkpt lat="44.5106783" lon="9.0882083"><ele>500.0</ele><time>2026-04-21T11:12:46.666Z</time></trkpt><trkpt lat="44.5105233" lon="9.0882367"><ele>500.0</ele><time>2026-04-21T11:12:47.665Z</time></trkpt><trkpt lat="44.51037" lon="9.0882633"><ele>504.0</ele><time>2026-04-21T11:12:48.665Z</time></trkpt><trkpt lat="44.5102217" lon="9.0883067"><ele>508.0</ele><time>2026-04-21T11:12:49.665Z</time></trkpt><trkpt lat="44.5100717" lon="9.0883533"><ele>512.0</ele><time>2026-04-21T11:12:50.665Z</time></trkpt><trkpt lat="44.5099267" lon="9.0884083"><ele>512.0</ele><time>2026-04-21T11:12:51.666Z</time></trkpt><trkpt lat="44.5097917" lon="9.0884883"><ele>512.0</ele><time>2026-04-21T11:12:52.666Z</time></trkpt><trkpt lat="44.5096633" lon="9.0885733"><ele>512.0</ele><time>2026-04-21T11:12:53.665Z</time></trkpt><trkpt lat="44.50955" lon="9.0886667"><ele>512.0</ele><time>2026-04-21T11:12:54.665Z</time></trkpt><trkpt lat="44.5094567" lon="9.088745"><ele>511.99999999999994</ele><time>2026-04-21T11:12:55.665Z</time></trkpt><trkpt lat="44.5094083" lon="9.0888417"><ele>512.0</ele><time>2026-04-21T11:12:56.666Z</time></trkpt><trkpt lat="44.5093917" lon="9.08896"><ele>512.0</ele><time>2026-04-21T11:12:57.665Z</time></trkpt><trkpt lat="44.50942" lon="9.0890767"><ele>512.0</ele><time>2026-04-21T11:12:58.666Z</time></trkpt><trkpt lat="44.5094667" lon="9.0891683"><ele>511.99999999999994</ele><time>2026-04-21T11:12:59.666Z</time></trkpt><trkpt lat="44.5095367" lon="9.0892233"><ele>512.0</ele><time>2026-04-21T11:13:00.666Z</time></trkpt><trkpt lat="44.5096333" lon="9.08925"><ele>512.0</ele><time>2026-04-21T11:13:01.665Z</time></trkpt><trkpt lat="44.50977" lon="9.089235"><ele>512.0</ele><time>2026-04-21T11:13:02.665Z</time></trkpt><trkpt lat="44.5099183" lon="9.0892217"><ele>512.0</ele><time>2026-04-21T11:13:03.665Z</time></trkpt><trkpt lat="44.51005" lon="9.0892417"><ele>512.0</ele><time>2026-04-21T11:13:04.666Z</time></trkpt><trkpt lat="44.510195" lon="9.0892867"><ele>512.0</ele><time>2026-04-21T11:13:05.666Z</time></trkpt><trkpt lat="44.510315" lon="9.0893533"><ele>512.0</ele><time>2026-04-21T11:13:06.665Z</time></trkpt><trkpt lat="44.51041" lon="9.08946"><ele>512.0</ele><time>2026-04-21T11:13:07.665Z</time></trkpt><trkpt lat="44.5104833" lon="9.0895883"><ele>512.0</ele><time>2026-04-21T11:13:08.665Z</time></trkpt><trkpt lat="44.5105283" lon="9.0897467"><ele>518.75</ele><time>2026-04-21T11:13:09.666Z</time></trkpt><trkpt lat="44.5105417" lon="9.0899367"><ele>525.5</ele><time>2026-04-21T11:13:10.666Z</time></trkpt><trkpt lat="44.5105317" lon="9.0901433"><ele>532.25</ele><time>2026-04-21T11:13:11.665Z</time></trkpt><trkpt lat="44.5105133" lon="9.09034"><ele>539.0</ele><time>2026-04-21T11:13:12.665Z</time></trkpt><trkpt lat="44.5104917" lon="9.09052"><ele>539.0</ele><time>2026-04-21T11:13:13.666Z</time></trkpt><trkpt lat="44.5104933" lon="9.0906867"><ele>539.0</ele><time>2026-04-21T11:13:14.665Z</time></trkpt><trkpt lat="44.510525" lon="9.0908533"><ele>539.0</ele><time>2026-04-21T11:13:15.666Z</time></trkpt><trkpt lat="44.5105617" lon="9.091025"><ele>539.0</ele><time>2026-04-21T11:13:16.666Z</time></trkpt><trkpt lat="44.5105867" lon="9.09118"><ele>538.0</ele><time>2026-04-21T11:13:17.666Z</time></trkpt><trkpt lat="44.5105967" lon="9.0913233"><ele>537.0</ele><time>2026-04-21T11:13:18.665Z</time></trkpt><trkpt lat="44.5105783" lon="9.09147"><ele>536.0</ele><time>2026-04-21T11:13:19.666Z</time></trkpt><trkpt lat="44.5105383" lon="9.09159"><ele>535.0</ele><time>2026-04-21T11:13:20.665Z</time></trkpt><trkpt lat="44.51047" lon="9.0916883"><ele>534.0</ele><time>2026-04-21T11:13:21.666Z</time></trkpt><trkpt lat="44.5103817" lon="9.0917567"><ele>529.6</ele><time>2026-04-21T11:13:22.666Z</time></trkpt><trkpt lat="44.5103017" lon="9.0918167"><ele>525.2</ele><time>2026-04-21T11:13:23.665Z</time></trkpt><trkpt lat="44.5102333" lon="9.0918933"><ele>520.8000000000001</ele><time>2026-04-21T11:13:24.665Z</time></trkpt><trkpt lat="44.510185" lon="9.0919983"><ele>516.4</ele><time>2026-04-21T11:13:25.665Z</time></trkpt><trkpt lat="44.5101533" lon="9.0921433"><ele>512.0</ele><time>2026-04-21T11:13:26.665Z</time></trkpt><trkpt lat="44.5101467" lon="9.09232"><ele>513.25</ele><time>2026-04-21T11:13:27.666Z</time></trkpt><trkpt lat="44.510165" lon="9.0925467"><ele>514.5</ele><time>2026-04-21T11:13:28.666Z</time></trkpt><trkpt lat="44.5101917" lon="9.0927483"><ele>515.75</ele><time>2026-04-21T11:13:29.665Z</time></trkpt><trkpt lat="44.51019" lon="9.0929"><ele>517.0</ele><time>2026-04-21T11:13:30.666Z</time></trkpt><trkpt lat="44.5101667" lon="9.0930517"><ele>517.0</ele><time>2026-04-21T11:13:31.666Z</time></trkpt><trkpt lat="44.5101433" lon="9.093195"><ele>517.0</ele><time>2026-04-21T11:13:32.666Z</time></trkpt><trkpt lat="44.5101217" lon="9.0933617"><ele>517.0</ele><time>2026-04-21T11:13:33.666Z</time></trkpt><trkpt lat="44.5100867" lon="9.09353"><ele>517.0</ele><time>2026-04-21T11:13:34.666Z</time></trkpt><trkpt lat="44.5100283" lon="9.09368"><ele>518.5</ele><time>2026-04-21T11:13:35.665Z</time></trkpt><trkpt lat="44.50993" lon="9.0937967"><ele>520.0</ele><time>2026-04-21T11:13:36.665Z</time></trkpt><trkpt lat="44.5098183" lon="9.0938967"><ele>521.5</ele><time>2026-04-21T11:13:37.665Z</time></trkpt><trkpt lat="44.5096867" lon="9.0939683"><ele>523.0</ele><time>2026-04-21T11:13:38.666Z</time></trkpt><trkpt lat="44.5095517" lon="9.0940117"><ele>519.75</ele><time>2026-04-21T11:13:39.665Z</time></trkpt><trkpt lat="44.5094167" lon="9.0940417"><ele>516.5</ele><time>2026-04-21T11:13:40.666Z</time></trkpt><trkpt lat="44.5092783" lon="9.0940533"><ele>513.25</ele><time>2026-04-21T11:13:41.665Z</time></trkpt><trkpt lat="44.509155" lon="9.0940683"><ele>510.0</ele><time>2026-04-21T11:13:42.665Z</time></trkpt><trkpt lat="44.50903" lon="9.0940317"><ele>510.0</ele><time>2026-04-21T11:13:43.666Z</time></trkpt><trkpt lat="44.5089" lon="9.0939733"><ele>510.0</ele><time>2026-04-21T11:13:44.665Z</time></trkpt><trkpt lat="44.5087567" lon="9.0939083"><ele>510.0</ele><time>2026-04-21T11:13:45.665Z</time></trkpt><trkpt lat="44.5086233" lon="9.093855"><ele>510.0</ele><time>2026-04-21T11:13:46.666Z</time></trkpt><trkpt lat="44.5085" lon="9.09382"><ele>509.25</ele><time>2026-04-21T11:13:47.665Z</time></trkpt><trkpt lat="44.5083817" lon="9.093845"><ele>508.5</ele><time>2026-04-21T11:13:48.666Z</time></trkpt><trkpt lat="44.508255" lon="9.0938767"><ele>507.75</ele><time>2026-04-21T11:13:49.665Z</time></trkpt><trkpt lat="44.5081433" lon="9.09394"><ele>507.0</ele><time>2026-04-21T11:13:50.666Z</time></trkpt><trkpt lat="44.5080317" lon="9.0940583"><ele>509.0</ele><time>2026-04-21T11:13:51.666Z</time></trkpt><trkpt lat="44.50792" lon="9.09419"><ele>511.0</ele><time>2026-04-21T11:13:52.666Z</time></trkpt><trkpt lat="44.507805" lon="9.0943317"><ele>513.0</ele><time>2026-04-21T11:13:53.666Z</time></trkpt><trkpt lat="44.507685" lon="9.09449"><ele>513.0</ele><time>2026-04-21T11:13:54.666Z</time></trkpt><trkpt lat="44.5075567" lon="9.094645"><ele>513.0</ele><time>2026-04-21T11:13:55.665Z</time></trkpt><trkpt lat="44.5074367" lon="9.094795"><ele>513.0</ele><time>2026-04-21T11:13:56.665Z</time></trkpt><trkpt lat="44.507335" lon="9.0949267"><ele>515.5</ele><time>2026-04-21T11:13:57.665Z</time></trkpt><trkpt lat="44.507245" lon="9.0950417"><ele>518.0</ele><time>2026-04-21T11:13:58.665Z</time></trkpt><trkpt lat="44.5071767" lon="9.0951817"><ele>520.5</ele><time>2026-04-21T11:13:59.666Z</time></trkpt><trkpt lat="44.507155" lon="9.0953483"><ele>523.0</ele><time>2026-04-21T11:14:00.666Z</time></trkpt><trkpt lat="44.5071417" lon="9.0955333"><ele>523.0</ele><time>2026-04-21T11:14:01.665Z</time></trkpt><trkpt lat="44.5071333" lon="9.0957467"><ele>523.0</ele><time>2026-04-21T11:14:02.665Z</time></trkpt><trkpt lat="44.5071167" lon="9.0959583"><ele>523.0</ele><time>2026-04-21T11:14:03.665Z</time></trkpt><trkpt lat="44.507085" lon="9.09616"><ele>522.6666666666667</ele><time>2026-04-21T11:14:04.665Z</time></trkpt><trkpt lat="44.507025" lon="9.0963583"><ele>522.3333333333334</ele><time>2026-04-21T11:14:05.665Z</time></trkpt><trkpt lat="44.50695" lon="9.0965567"><ele>522.0</ele><time>2026-04-21T11:14:06.665Z</time></trkpt><trkpt lat="44.5068783" lon="9.09676"><ele>520.0</ele><time>2026-04-21T11:14:07.665Z</time></trkpt><trkpt lat="44.5068133" lon="9.0969817"><ele>518.0</ele><time>2026-04-21T11:14:08.666Z</time></trkpt><trkpt lat="44.5067517" lon="9.0972017"><ele>516.0</ele><time>2026-04-21T11:14:09.666Z</time></trkpt><trkpt lat="44.5066967" lon="9.0974183"><ele>519.0</ele><time>2026-04-21T11:14:10.665Z</time></trkpt><trkpt lat="44.50661" lon="9.0976117"><ele>522.0</ele><time>2026-04-21T11:14:11.665Z</time></trkpt><trkpt lat="44.506515" lon="9.09777"><ele>525.0</ele><time>2026-04-21T11:14:12.666Z</time></trkpt><trkpt lat="44.5064183" lon="9.0979133"><ele>525.0</ele><time>2026-04-21T11:14:13.665Z</time></trkpt><trkpt lat="44.5063133" lon="9.0980333"><ele>525.0</ele><time>2026-04-21T11:14:14.665Z</time></trkpt><trkpt lat="44.50619" lon="9.09812"><ele>525.0</ele><time>2026-04-21T11:14:15.665Z</time></trkpt><trkpt lat="44.5060583" lon="9.09821"><ele>525.0</ele><time>2026-04-21T11:14:16.665Z</time></trkpt><trkpt lat="44.50592" lon="9.0982817"><ele>524.25</ele><time>2026-04-21T11:14:17.666Z</time></trkpt><trkpt lat="44.5057783" lon="9.0983433"><ele>523.5</ele><time>2026-04-21T11:14:18.665Z</time></trkpt><trkpt lat="44.505635" lon="9.0983867"><ele>522.75</ele><time>2026-04-21T11:14:19.665Z</time></trkpt><trkpt lat="44.5054983" lon="9.0984133"><ele>522.0</ele><time>2026-04-21T11:14:20.665Z</time></trkpt><trkpt lat="44.50537" lon="9.09842"><ele>520.25</ele><time>2026-04-21T11:14:21.666Z</time></trkpt><trkpt lat="44.50525" lon="9.09843"><ele>518.5</ele><time>2026-04-21T11:14:22.666Z</time></trkpt><trkpt lat="44.5051533" lon="9.0984583"><ele>516.75</ele><time>2026-04-21T11:14:23.666Z</time></trkpt><trkpt lat="44.505065" lon="9.098565"><ele>515.0</ele><time>2026-04-21T11:14:24.665Z</time></trkpt><trkpt lat="44.5049567" lon="9.09869"><ele>515.0</ele><time>2026-04-21T11:14:25.665Z</time></trkpt><trkpt lat="44.5048517" lon="9.0988133"><ele>515.0</ele><time>2026-04-21T11:14:26.666Z</time></trkpt><trkpt lat="44.50475" lon="9.0989133"><ele>515.0</ele><time>2026-04-21T11:14:27.665Z</time></trkpt><trkpt lat="44.50467" lon="9.099035"><ele>515.0</ele><time>2026-04-21T11:14:28.665Z</time></trkpt><trkpt lat="44.5046167" lon="9.0991817"><ele>515.6666666666666</ele><time>2026-04-21T11:14:29.665Z</time></trkpt><trkpt lat="44.50458" lon="9.0993483"><ele>516.3333333333334</ele><time>2026-04-21T11:14:30.665Z</time></trkpt><trkpt lat="44.5045633" lon="9.0995633"><ele>517.0</ele><time>2026-04-21T11:14:31.665Z</time></trkpt><trkpt lat="44.50456" lon="9.0998083"><ele>519.0</ele><time>2026-04-21T11:14:32.666Z</time></trkpt><trkpt lat="44.504555" lon="9.100065"><ele>521.0</ele><time>2026-04-21T11:14:33.665Z</time></trkpt><trkpt lat="44.50454" lon="9.10031"><ele>523.0</ele><time>2026-04-21T11:14:34.666Z</time></trkpt><trkpt lat="44.504525" lon="9.100545"><ele>524.75</ele><time>2026-04-21T11:14:35.665Z</time></trkpt><trkpt lat="44.5045067" lon="9.1007517"><ele>526.5</ele><time>2026-04-21T11:14:36.665Z</time></trkpt><trkpt lat="44.5045067" lon="9.10094"><ele>528.25</ele><time>2026-04-21T11:14:37.665Z</time></trkpt><trkpt lat="44.5045083" lon="9.1011533"><ele>530.0</ele><time>2026-04-21T11:14:38.666Z</time></trkpt><trkpt lat="44.5045183" lon="9.1013667"><ele>531.3333333333333</ele><time>2026-04-21T11:14:39.666Z</time></trkpt><trkpt lat="44.5045217" lon="9.1016017"><ele>532.6666666666666</ele><time>2026-04-21T11:14:40.666Z</time></trkpt><trkpt lat="44.5045417" lon="9.101835"><ele>534.0</ele><time>2026-04-21T11:14:41.665Z</time></trkpt><trkpt lat="44.5045567" lon="9.1020783"><ele>540.6666666666666</ele><time>2026-04-21T11:14:42.665Z</time></trkpt><trkpt lat="44.5045817" lon="9.1023167"><ele>547.3333333333333</ele><time>2026-04-21T11:14:43.665Z</time></trkpt><trkpt lat="44.5045983" lon="9.102535"><ele>554.0</ele><time>2026-04-21T11:14:44.665Z</time></trkpt><trkpt lat="44.5046017" lon="9.102715"><ele>548.0</ele><time>2026-04-21T11:14:45.666Z</time></trkpt><trkpt lat="44.5045617" lon="9.1028633"><ele>542.0</ele><time>2026-04-21T11:14:46.665Z</time></trkpt><trkpt lat="44.5045" lon="9.10301"><ele>536.0</ele><time>2026-04-21T11:14:47.665Z</time></trkpt><trkpt lat="44.5044333" lon="9.1031767"><ele>530.0</ele><time>2026-04-21T11:14:48.666Z</time></trkpt><trkpt lat="44.5043533" lon="9.10332"><ele>530.0</ele><time>2026-04-21T11:14:49.665Z</time></trkpt><trkpt lat="44.5042733" lon="9.1034267"><ele>530.0</ele><time>2026-04-21T11:14:50.666Z</time></trkpt><trkpt lat="44.504175" lon="9.103485"><ele>530.0</ele><time>2026-04-21T11:14:51.665Z</time></trkpt><trkpt lat="44.5040617" lon="9.1035233"><ele>530.0</ele><time>2026-04-21T11:14:52.666Z</time></trkpt><trkpt lat="44.5039267" lon="9.103525"><ele>530.0</ele><time>2026-04-21T11:14:53.665Z</time></trkpt><trkpt lat="44.503775" lon="9.1035117"><ele>530.0</ele><time>2026-04-21T11:14:54.665Z</time></trkpt><trkpt lat="44.503605" lon="9.103515"><ele>530.0</ele><time>2026-04-21T11:14:55.666Z</time></trkpt><trkpt lat="44.5034333" lon="9.103525"><ele>529.0</ele><time>2026-04-21T11:14:56.665Z</time></trkpt><trkpt lat="44.5032733" lon="9.1035483"><ele>528.0</ele><time>2026-04-21T11:14:57.665Z</time></trkpt><trkpt lat="44.5031033" lon="9.1035617"><ele>527.0</ele><time>2026-04-21T11:14:58.665Z</time></trkpt><trkpt lat="44.5029517" lon="9.1035783"><ele>527.6666666666666</ele><time>2026-04-21T11:14:59.665Z</time></trkpt><trkpt lat="44.5028067" lon="9.103595"><ele>528.3333333333334</ele><time>2026-04-21T11:15:00.665Z</time></trkpt><trkpt lat="44.5026617" lon="9.1036467"><ele>529.0</ele><time>2026-04-21T11:15:01.665Z</time></trkpt><trkpt lat="44.50252" lon="9.1037367"><ele>529.0</ele><time>2026-04-21T11:15:02.665Z</time></trkpt><trkpt lat="44.5023817" lon="9.1038683"><ele>529.0</ele><time>2026-04-21T11:15:03.665Z</time></trkpt><trkpt lat="44.5022667" lon="9.104035"><ele>529.0</ele><time>2026-04-21T11:15:04.666Z</time></trkpt><trkpt lat="44.5021683" lon="9.1042033"><ele>530.75</ele><time>2026-04-21T11:15:05.666Z</time></trkpt><trkpt lat="44.5020917" lon="9.1043917"><ele>532.5</ele><time>2026-04-21T11:15:06.665Z</time></trkpt><trkpt lat="44.502035" lon="9.1045767"><ele>534.25</ele><time>2026-04-21T11:15:07.666Z</time></trkpt><trkpt lat="44.5019833" lon="9.104745"><ele>536.0</ele><time>2026-04-21T11:15:08.666Z</time></trkpt><trkpt lat="44.5019183" lon="9.1048833"><ele>537.75</ele><time>2026-04-21T11:15:09.666Z</time></trkpt><trkpt lat="44.5018217" lon="9.105"><ele>539.5</ele><time>2026-04-21T11:15:10.666Z</time></trkpt><trkpt lat="44.50172" lon="9.10513"><ele>541.25</ele><time>2026-04-21T11:15:11.665Z</time></trkpt><trkpt lat="44.5015967" lon="9.1052567"><ele>543.0</ele><time>2026-04-21T11:15:12.665Z</time></trkpt><trkpt lat="44.501465" lon="9.105335"><ele>543.0</ele><time>2026-04-21T11:15:13.665Z</time></trkpt><trkpt lat="44.5013317" lon="9.105375"><ele>543.0</ele><time>2026-04-21T11:15:14.666Z</time></trkpt><trkpt lat="44.5011783" lon="9.105375"><ele>543.0</ele><time>2026-04-21T11:15:15.666Z</time></trkpt><trkpt lat="44.5010383" lon="9.1053767"><ele>543.0</ele><time>2026-04-21T11:15:16.666Z</time></trkpt><trkpt lat="44.5008767" lon="9.105345"><ele>541.0</ele><time>2026-04-21T11:15:17.666Z</time></trkpt><trkpt lat="44.500735" lon="9.10538"><ele>539.0</ele><time>2026-04-21T11:15:18.666Z</time></trkpt><trkpt lat="44.5006133" lon="9.1054383"><ele>537.0</ele><time>2026-04-21T11:15:19.665Z</time></trkpt><trkpt lat="44.5005217" lon="9.1055267"><ele>535.0</ele><time>2026-04-21T11:15:20.665Z</time></trkpt><trkpt lat="44.5004633" lon="9.1056233"><ele>541.0</ele><time>2026-04-21T11:15:21.666Z</time></trkpt><trkpt lat="44.5004317" lon="9.10575"><ele>547.0</ele><time>2026-04-21T11:15:22.665Z</time></trkpt><trkpt lat="44.5004367" lon="9.1059217"><ele>553.0</ele><time>2026-04-21T11:15:23.665Z</time></trkpt><trkpt lat="44.5004667" lon="9.1061333"><ele>559.0</ele><time>2026-04-21T11:15:24.665Z</time></trkpt><trkpt lat="44.5004817" lon="9.106345"><ele>559.0</ele><time>2026-04-21T11:15:25.666Z</time></trkpt><trkpt lat="44.5004883" lon="9.1065683"><ele>559.0</ele><time>2026-04-21T11:15:26.665Z</time></trkpt><trkpt lat="44.5004933" lon="9.1067983"><ele>559.0</ele><time>2026-04-21T11:15:27.666Z</time></trkpt><trkpt lat="44.5005" lon="9.1070183"><ele>562.5</ele><time>2026-04-21T11:15:28.666Z</time></trkpt><trkpt lat="44.5005" lon="9.1072267"><ele>566.0</ele><time>2026-04-21T11:15:29.665Z</time></trkpt><trkpt lat="44.5005017" lon="9.10741"><ele>569.5</ele><time>2026-04-21T11:15:30.666Z</time></trkpt><trkpt lat="44.500495" lon="9.1075933"><ele>573.0</ele><time>2026-04-21T11:15:31.666Z</time></trkpt><trkpt lat="44.5004417" lon="9.1077517"><ele>564.5</ele><time>2026-04-21T11:15:32.665Z</time></trkpt><trkpt lat="44.50037" lon="9.107905"><ele>556.0</ele><time>2026-04-21T11:15:33.666Z</time></trkpt><trkpt lat="44.5002883" lon="9.1080367"><ele>547.5</ele><time>2026-04-21T11:15:34.665Z</time></trkpt><trkpt lat="44.500205" lon="9.10814"><ele>539.0</ele><time>2026-04-21T11:15:35.666Z</time></trkpt><trkpt lat="44.5001033" lon="9.1082033"><ele>539.0</ele><time>2026-04-21T11:15:36.665Z</time></trkpt><trkpt lat="44.4999817" lon="9.10821"><ele>539.0</ele><time>2026-04-21T11:15:37.665Z</time></trkpt><trkpt lat="44.49985" lon="9.1082067"><ele>539.0</ele><time>2026-04-21T11:15:38.666Z</time></trkpt><trkpt lat="44.49972" lon="9.1082233"><ele>539.0</ele><time>2026-04-21T11:15:39.665Z</time></trkpt><trkpt lat="44.499605" lon="9.1082533"><ele>539.0</ele><time>2026-04-21T11:15:40.666Z</time></trkpt><trkpt lat="44.499515" lon="9.108325"><ele>539.0</ele><time>2026-04-21T11:15:41.666Z</time></trkpt><trkpt lat="44.4994383" lon="9.1084417"><ele>539.0</ele><time>2026-04-21T11:15:42.665Z</time></trkpt><trkpt lat="44.4993967" lon="9.10862"><ele>539.0</ele><time>2026-04-21T11:15:43.665Z</time></trkpt><trkpt lat="44.4993483" lon="9.1088167"><ele>539.0</ele><time>2026-04-21T11:15:44.666Z</time></trkpt><trkpt lat="44.499305" lon="9.1090233"><ele>539.0</ele><time>2026-04-21T11:15:45.666Z</time></trkpt><trkpt lat="44.4992483" lon="9.109205"><ele>539.0</ele><time>2026-04-21T11:15:46.666Z</time></trkpt><trkpt lat="44.4992233" lon="9.109385"><ele>539.0</ele><time>2026-04-21T11:15:47.665Z</time></trkpt><trkpt lat="44.4992167" lon="9.10956"><ele>544.5</ele><time>2026-04-21T11:15:48.665Z</time></trkpt><trkpt lat="44.49924" lon="9.1097433"><ele>550.0</ele><time>2026-04-21T11:15:49.665Z</time></trkpt><trkpt lat="44.4992683" lon="9.1099167"><ele>555.5</ele><time>2026-04-21T11:15:50.665Z</time></trkpt><trkpt lat="44.4992917" lon="9.1100667"><ele>561.0</ele><time>2026-04-21T11:15:51.666Z</time></trkpt><trkpt lat="44.4992733" lon="9.110185"><ele>561.8</ele><time>2026-04-21T11:15:52.666Z</time></trkpt><trkpt lat="44.4992167" lon="9.11029"><ele>562.6</ele><time>2026-04-21T11:15:53.665Z</time></trkpt><trkpt lat="44.4991333" lon="9.1103917"><ele>563.4</ele><time>2026-04-21T11:15:54.665Z</time></trkpt><trkpt lat="44.4990533" lon="9.1104867"><ele>564.2</ele><time>2026-04-21T11:15:55.665Z</time></trkpt><trkpt lat="44.49898" lon="9.1105967"><ele>565.0</ele><time>2026-04-21T11:15:56.665Z</time></trkpt><trkpt lat="44.4989383" lon="9.1107"><ele>565.25</ele><time>2026-04-21T11:15:57.666Z</time></trkpt><trkpt lat="44.4989067" lon="9.1108283"><ele>565.5</ele><time>2026-04-21T11:15:58.666Z</time></trkpt><trkpt lat="44.4989283" lon="9.110985"><ele>565.75</ele><time>2026-04-21T11:15:59.666Z</time></trkpt><trkpt lat="44.4989767" lon="9.1111567"><ele>566.0</ele><time>2026-04-21T11:16:00.666Z</time></trkpt><trkpt lat="44.49906" lon="9.1113217"><ele>566.0</ele><time>2026-04-21T11:16:01.665Z</time></trkpt><trkpt lat="44.499125" lon="9.11147"><ele>566.0</ele><time>2026-04-21T11:16:02.665Z</time></trkpt><trkpt lat="44.499155" lon="9.1116333"><ele>566.0</ele><time>2026-04-21T11:16:03.666Z</time></trkpt><trkpt lat="44.49917" lon="9.1117867"><ele>566.0</ele><time>2026-04-21T11:16:04.666Z</time></trkpt><trkpt lat="44.49919" lon="9.1119567"><ele>566.25</ele><time>2026-04-21T11:16:05.666Z</time></trkpt><trkpt lat="44.4992117" lon="9.1121367"><ele>566.5</ele><time>2026-04-21T11:16:06.666Z</time></trkpt><trkpt lat="44.4992117" lon="9.1123367"><ele>566.75</ele><time>2026-04-21T11:16:07.666Z</time></trkpt><trkpt lat="44.499185" lon="9.1125317"><ele>567.0</ele><time>2026-04-21T11:16:08.665Z</time></trkpt><trkpt lat="44.4991217" lon="9.1127183"><ele>570.25</ele><time>2026-04-21T11:16:09.665Z</time></trkpt><trkpt lat="44.4990433" lon="9.1129017"><ele>573.5</ele><time>2026-04-21T11:16:10.665Z</time></trkpt><trkpt lat="44.4989633" lon="9.1130633"><ele>576.75</ele><time>2026-04-21T11:16:11.666Z</time></trkpt><trkpt lat="44.4988617" lon="9.113195"><ele>580.0</ele><time>2026-04-21T11:16:12.666Z</time></trkpt><trkpt lat="44.4987533" lon="9.1133017"><ele>574.6</ele><time>2026-04-21T11:16:13.666Z</time></trkpt><trkpt lat="44.498655" lon="9.113385"><ele>569.2</ele><time>2026-04-21T11:16:14.665Z</time></trkpt><trkpt lat="44.4985867" lon="9.113475"><ele>563.8</ele><time>2026-04-21T11:16:15.665Z</time></trkpt><trkpt lat="44.4985433" lon="9.113585"><ele>558.4</ele><time>2026-04-21T11:16:16.666Z</time></trkpt><trkpt lat="44.4985417" lon="9.1137117"><ele>553.0</ele><time>2026-04-21T11:16:17.666Z</time></trkpt><trkpt lat="44.4985867" lon="9.1138767"><ele>553.0</ele><time>2026-04-21T11:16:18.665Z</time></trkpt><trkpt lat="44.4986" lon="9.1140467"><ele>553.0</ele><time>2026-04-21T11:16:19.666Z</time></trkpt><trkpt lat="44.4985933" lon="9.114215"><ele>553.0</ele><time>2026-04-21T11:16:20.665Z</time></trkpt><trkpt lat="44.4985633" lon="9.1143967"><ele>553.0</ele><time>2026-04-21T11:16:21.665Z</time></trkpt><trkpt lat="44.498545" lon="9.114585"><ele>554.5</ele><time>2026-04-21T11:16:22.666Z</time></trkpt><trkpt lat="44.4985367" lon="9.1147817"><ele>556.0</ele><time>2026-04-21T11:16:23.665Z</time></trkpt><trkpt lat="44.4985333" lon="9.1149933"><ele>557.5</ele><time>2026-04-21T11:16:24.665Z</time></trkpt><trkpt lat="44.498535" lon="9.115205"><ele>559.0</ele><time>2026-04-21T11:16:25.665Z</time></trkpt><trkpt lat="44.4985383" lon="9.115405"><ele>560.3333333333334</ele><time>2026-04-21T11:16:26.666Z</time></trkpt><trkpt lat="44.4985233" lon="9.1156"><ele>561.6666666666666</ele><time>2026-04-21T11:16:27.666Z</time></trkpt><trkpt lat="44.4984783" lon="9.1157983"><ele>563.0</ele><time>2026-04-21T11:16:28.665Z</time></trkpt><trkpt lat="44.498415" lon="9.1160183"><ele>566.3333333333333</ele><time>2026-04-21T11:16:29.666Z</time></trkpt><trkpt lat="44.49834" lon="9.1162433"><ele>569.6666666666666</ele><time>2026-04-21T11:16:30.665Z</time></trkpt><trkpt lat="44.4982817" lon="9.1164767"><ele>573.0</ele><time>2026-04-21T11:16:31.665Z</time></trkpt><trkpt lat="44.4982" lon="9.1167383"><ele>579.3333333333334</ele><time>2026-04-21T11:16:32.665Z</time></trkpt><trkpt lat="44.49811" lon="9.1169867"><ele>585.6666666666667</ele><time>2026-04-21T11:16:33.665Z</time></trkpt><trkpt lat="44.4980083" lon="9.117195"><ele>592.0</ele><time>2026-04-21T11:16:34.666Z</time></trkpt><trkpt lat="44.4979367" lon="9.1173717"><ele>589.5</ele><time>2026-04-21T11:16:35.665Z</time></trkpt><trkpt lat="44.497865" lon="9.1175133"><ele>587.0</ele><time>2026-04-21T11:16:36.666Z</time></trkpt><trkpt lat="44.4977533" lon="9.1175983"><ele>584.5</ele><time>2026-04-21T11:16:37.666Z</time></trkpt><trkpt lat="44.4976383" lon="9.1176867"><ele>582.0</ele><time>2026-04-21T11:16:38.665Z</time></trkpt><trkpt lat="44.4974983" lon="9.1177533"><ele>582.0</ele><time>2026-04-21T11:16:39.665Z</time></trkpt><trkpt lat="44.4973667" lon="9.1178217"><ele>582.0</ele><time>2026-04-21T11:16:40.666Z</time></trkpt><trkpt lat="44.4972533" lon="9.1178833"><ele>582.0</ele><time>2026-04-21T11:16:41.665Z</time></trkpt><trkpt lat="44.4971583" lon="9.1179567"><ele>582.0</ele><time>2026-04-21T11:16:42.665Z</time></trkpt><trkpt lat="44.4970833" lon="9.1180583"><ele>579.4</ele><time>2026-04-21T11:16:43.665Z</time></trkpt><trkpt lat="44.4970183" lon="9.118195"><ele>576.8000000000001</ele><time>2026-04-21T11:16:44.666Z</time></trkpt><trkpt lat="44.4969667" lon="9.1183517"><ele>574.2</ele><time>2026-04-21T11:16:45.666Z</time></trkpt><trkpt lat="44.4969267" lon="9.118495"><ele>571.6</ele><time>2026-04-21T11:16:46.665Z</time></trkpt><trkpt lat="44.496905" lon="9.1186217"><ele>569.0</ele><time>2026-04-21T11:16:47.665Z</time></trkpt><trkpt lat="44.4969117" lon="9.1187433"><ele>569.0</ele><time>2026-04-21T11:16:48.666Z</time></trkpt><trkpt lat="44.4969433" lon="9.1188567"><ele>569.0</ele><time>2026-04-21T11:16:49.665Z</time></trkpt><trkpt lat="44.49699" lon="9.1189583"><ele>569.0</ele><time>2026-04-21T11:16:50.665Z</time></trkpt><trkpt lat="44.4970683" lon="9.1190367"><ele>569.0</ele><time>2026-04-21T11:16:51.665Z</time></trkpt><trkpt lat="44.4971883" lon="9.1191033"><ele>569.0</ele><time>2026-04-21T11:16:52.665Z</time></trkpt><trkpt lat="44.4973133" lon="9.1191483"><ele>575.6</ele><time>2026-04-21T11:16:53.666Z</time></trkpt><trkpt lat="44.49743" lon="9.1192017"><ele>582.2</ele><time>2026-04-21T11:16:54.666Z</time></trkpt><trkpt lat="44.49751" lon="9.11928"><ele>588.8000000000001</ele><time>2026-04-21T11:16:55.665Z</time></trkpt><trkpt lat="44.4975567" lon="9.1193917"><ele>595.4</ele><time>2026-04-21T11:16:56.665Z</time></trkpt><trkpt lat="44.4975617" lon="9.1195567"><ele>602.0</ele><time>2026-04-21T11:16:57.665Z</time></trkpt><trkpt lat="44.4975433" lon="9.11977"><ele>602.5</ele><time>2026-04-21T11:16:58.665Z</time></trkpt><trkpt lat="44.4975167" lon="9.1199967"><ele>603.0</ele><time>2026-04-21T11:16:59.666Z</time></trkpt><trkpt lat="44.4974983" lon="9.120205"><ele>603.5</ele><time>2026-04-21T11:17:00.665Z</time></trkpt><trkpt lat="44.4974567" lon="9.1203733"><ele>604.0</ele><time>2026-04-21T11:17:01.665Z</time></trkpt><trkpt lat="44.4973683" lon="9.1205167"><ele>604.0</ele><time>2026-04-21T11:17:02.665Z</time></trkpt><trkpt lat="44.4972533" lon="9.1206"><ele>604.0</ele><time>2026-04-21T11:17:03.666Z</time></trkpt><trkpt lat="44.4971517" lon="9.1206783"><ele>604.0</ele><time>2026-04-21T11:17:04.666Z</time></trkpt><trkpt lat="44.4970617" lon="9.1207833"><ele>604.0</ele><time>2026-04-21T11:17:05.665Z</time></trkpt><trkpt lat="44.4969983" lon="9.1209133"><ele>597.25</ele><time>2026-04-21T11:17:06.665Z</time></trkpt><trkpt lat="44.4969583" lon="9.12106"><ele>590.5</ele><time>2026-04-21T11:17:07.666Z</time></trkpt><trkpt lat="44.49696" lon="9.12123"><ele>583.75</ele><time>2026-04-21T11:17:08.665Z</time></trkpt><trkpt lat="44.4970067" lon="9.1214233"><ele>577.0</ele><time>2026-04-21T11:17:09.665Z</time></trkpt><trkpt lat="44.4970767" lon="9.12162"><ele>588.0</ele><time>2026-04-21T11:17:10.665Z</time></trkpt><trkpt lat="44.4971767" lon="9.121795"><ele>599.0</ele><time>2026-04-21T11:17:11.665Z</time></trkpt><trkpt lat="44.4972867" lon="9.1219467"><ele>610.0</ele><time>2026-04-21T11:17:12.665Z</time></trkpt><trkpt lat="44.4974083" lon="9.122115"><ele>610.0</ele><time>2026-04-21T11:17:13.665Z</time></trkpt><trkpt lat="44.497535" lon="9.1222867"><ele>610.0</ele><time>2026-04-21T11:17:14.666Z</time></trkpt><trkpt lat="44.49765" lon="9.1224717"><ele>610.0</ele><time>2026-04-21T11:17:15.665Z</time></trkpt><trkpt lat="44.49776" lon="9.1226683"><ele>613.3333333333334</ele><time>2026-04-21T11:17:16.665Z</time></trkpt><trkpt lat="44.497875" lon="9.1228267"><ele>616.6666666666666</ele><time>2026-04-21T11:17:17.666Z</time></trkpt><trkpt lat="44.497985" lon="9.1230083"><ele>620.0</ele><time>2026-04-21T11:17:18.666Z</time></trkpt><trkpt lat="44.4981" lon="9.1231633"><ele>615.25</ele><time>2026-04-21T11:17:19.666Z</time></trkpt><trkpt lat="44.4982117" lon="9.1233133"><ele>610.5</ele><time>2026-04-21T11:17:20.666Z</time></trkpt><trkpt lat="44.4983217" lon="9.12345"><ele>605.75</ele><time>2026-04-21T11:17:21.665Z</time></trkpt><trkpt lat="44.4984067" lon="9.1235917"><ele>601.0</ele><time>2026-04-21T11:17:22.666Z</time></trkpt><trkpt lat="44.4984617" lon="9.1237567"><ele>601.0</ele><time>2026-04-21T11:17:23.665Z</time></trkpt><trkpt lat="44.4985" lon="9.12395"><ele>601.0</ele><time>2026-04-21T11:17:24.665Z</time></trkpt><trkpt lat="44.49853" lon="9.1241517"><ele>601.0</ele><time>2026-04-21T11:17:25.666Z</time></trkpt><trkpt lat="44.4985517" lon="9.1243483"><ele>601.0</ele><time>2026-04-21T11:17:26.665Z</time></trkpt><trkpt lat="44.4985617" lon="9.1245483"><ele>598.25</ele><time>2026-04-21T11:17:27.665Z</time></trkpt><trkpt lat="44.4985467" lon="9.1247367"><ele>595.5</ele><time>2026-04-21T11:17:28.666Z</time></trkpt><trkpt lat="44.4985117" lon="9.12493"><ele>592.75</ele><time>2026-04-21T11:17:29.665Z</time></trkpt><trkpt lat="44.4984733" lon="9.1251067"><ele>590.0</ele><time>2026-04-21T11:17:30.666Z</time></trkpt><trkpt lat="44.498435" lon="9.1252717"><ele>589.5</ele><time>2026-04-21T11:17:31.665Z</time></trkpt><trkpt lat="44.4983917" lon="9.1254183"><ele>589.0</ele><time>2026-04-21T11:17:32.665Z</time></trkpt><trkpt lat="44.4983367" lon="9.1255467"><ele>588.5</ele><time>2026-04-21T11:17:33.665Z</time></trkpt><trkpt lat="44.4982517" lon="9.12567"><ele>588.0</ele><time>2026-04-21T11:17:34.665Z</time></trkpt><trkpt lat="44.498145" lon="9.1257583"><ele>588.75</ele><time>2026-04-21T11:17:35.665Z</time></trkpt><trkpt lat="44.4980233" lon="9.1258267"><ele>589.5</ele><time>2026-04-21T11:17:36.665Z</time></trkpt><trkpt lat="44.4978933" lon="9.12582"><ele>590.25</ele><time>2026-04-21T11:17:37.665Z</time></trkpt><trkpt lat="44.4977667" lon="9.1257767"><ele>591.0</ele><time>2026-04-21T11:17:38.666Z</time></trkpt><trkpt lat="44.4976433" lon="9.1256817"><ele>591.0</ele><time>2026-04-21T11:17:39.666Z</time></trkpt><trkpt lat="44.49753" lon="9.1255367"><ele>591.0</ele><time>2026-04-21T11:17:40.665Z</time></trkpt><trkpt lat="44.497445" lon="9.1253833"><ele>591.0</ele><time>2026-04-21T11:17:41.665Z</time></trkpt><trkpt lat="44.4973917" lon="9.1251933"><ele>591.0</ele><time>2026-04-21T11:17:42.666Z</time></trkpt><trkpt lat="44.497355" lon="9.12499"><ele>589.0</ele><time>2026-04-21T11:17:43.665Z</time></trkpt><trkpt lat="44.497335" lon="9.1247567"><ele>587.0</ele><time>2026-04-21T11:17:44.666Z</time></trkpt><trkpt lat="44.4972967" lon="9.1245667"><ele>585.0</ele><time>2026-04-21T11:17:45.665Z</time></trkpt><trkpt lat="44.4972333" lon="9.1243867"><ele>585.0</ele><time>2026-04-21T11:17:46.665Z</time></trkpt><trkpt lat="44.4971583" lon="9.1242233"><ele>585.0</ele><time>2026-04-21T11:17:47.666Z</time></trkpt><trkpt lat="44.4970733" lon="9.12406"><ele>585.0</ele><time>2026-04-21T11:17:48.666Z</time></trkpt><trkpt lat="44.4969883" lon="9.1239067"><ele>585.0</ele><time>2026-04-21T11:17:49.665Z</time></trkpt><trkpt lat="44.4968967" lon="9.12378"><ele>585.25</ele><time>2026-04-21T11:17:50.665Z</time></trkpt><trkpt lat="44.4968117" lon="9.1236767"><ele>585.5</ele><time>2026-04-21T11:17:51.666Z</time></trkpt><trkpt lat="44.4967117" lon="9.1236117"><ele>585.75</ele><time>2026-04-21T11:17:52.665Z</time></trkpt><trkpt lat="44.4965967" lon="9.12357"><ele>586.0</ele><time>2026-04-21T11:17:53.666Z</time></trkpt><trkpt lat="44.4964717" lon="9.1235683"><ele>586.0</ele><time>2026-04-21T11:17:54.665Z</time></trkpt><trkpt lat="44.4963417" lon="9.1235983"><ele>586.0</ele><time>2026-04-21T11:17:55.665Z</time></trkpt><trkpt lat="44.4962317" lon="9.12365"><ele>586.0</ele><time>2026-04-21T11:17:56.666Z</time></trkpt><trkpt lat="44.496135" lon="9.1237217"><ele>586.0</ele><time>2026-04-21T11:17:57.666Z</time></trkpt><trkpt lat="44.4960567" lon="9.123825"><ele>584.0</ele><time>2026-04-21T11:17:58.665Z</time></trkpt><trkpt lat="44.4959883" lon="9.123975"><ele>582.0</ele><time>2026-04-21T11:17:59.665Z</time></trkpt><trkpt lat="44.4959183" lon="9.12413"><ele>580.0</ele><time>2026-04-21T11:18:00.665Z</time></trkpt><trkpt lat="44.4958467" lon="9.1242917"><ele>578.0</ele><time>2026-04-21T11:18:01.666Z</time></trkpt><trkpt lat="44.495775" lon="9.124465"><ele>582.5</ele><time>2026-04-21T11:18:02.665Z</time></trkpt><trkpt lat="44.495695" lon="9.12462"><ele>587.0</ele><time>2026-04-21T11:18:03.665Z</time></trkpt><trkpt lat="44.4955917" lon="9.1247467"><ele>591.5</ele><time>2026-04-21T11:18:04.666Z</time></trkpt><trkpt lat="44.495475" lon="9.1248483"><ele>596.0</ele><time>2026-04-21T11:18:05.665Z</time></trkpt><trkpt lat="44.4953683" lon="9.1249317"><ele>596.0</ele><time>2026-04-21T11:18:06.665Z</time></trkpt><trkpt lat="44.4952867" lon="9.1250233"><ele>596.0</ele><time>2026-04-21T11:18:07.665Z</time></trkpt><trkpt lat="44.4952417" lon="9.12512"><ele>596.0</ele><time>2026-04-21T11:18:08.665Z</time></trkpt><trkpt lat="44.4952083" lon="9.125225"><ele>596.0</ele><time>2026-04-21T11:18:09.665Z</time></trkpt><trkpt lat="44.4952333" lon="9.1253517"><ele>596.0</ele><time>2026-04-21T11:18:10.665Z</time></trkpt><trkpt lat="44.4952783" lon="9.12547"><ele>596.0</ele><time>2026-04-21T11:18:11.665Z</time></trkpt><trkpt lat="44.4953567" lon="9.1255883"><ele>596.0</ele><time>2026-04-21T11:18:12.665Z</time></trkpt><trkpt lat="44.49546" lon="9.125695"><ele>596.0</ele><time>2026-04-21T11:18:13.665Z</time></trkpt><trkpt lat="44.4955783" lon="9.1257817"><ele>596.0</ele><time>2026-04-21T11:18:14.666Z</time></trkpt><trkpt lat="44.4956867" lon="9.125875"><ele>600.5</ele><time>2026-04-21T11:18:15.666Z</time></trkpt><trkpt lat="44.4957967" lon="9.12598"><ele>605.0</ele><time>2026-04-21T11:18:16.666Z</time></trkpt><trkpt lat="44.4958867" lon="9.1261"><ele>609.5</ele><time>2026-04-21T11:18:17.665Z</time></trkpt><trkpt lat="44.4959333" lon="9.1262367"><ele>614.0</ele><time>2026-04-21T11:18:18.666Z</time></trkpt><trkpt lat="44.4959417" lon="9.1263617"><ele>614.0</ele><time>2026-04-21T11:18:19.666Z</time></trkpt><trkpt lat="44.495925" lon="9.12649"><ele>614.0</ele><time>2026-04-21T11:18:20.666Z</time></trkpt><trkpt lat="44.4958733" lon="9.1266333"><ele>614.0</ele><time>2026-04-21T11:18:21.666Z</time></trkpt><trkpt lat="44.4957933" lon="9.126775"><ele>614.0</ele><time>2026-04-21T11:18:22.666Z</time></trkpt><trkpt lat="44.4957067" lon="9.1269333"><ele>613.0</ele><time>2026-04-21T11:18:23.666Z</time></trkpt><trkpt lat="44.4956167" lon="9.1271033"><ele>612.0</ele><time>2026-04-21T11:18:24.666Z</time></trkpt><trkpt lat="44.4955433" lon="9.1272717"><ele>611.0</ele><time>2026-04-21T11:18:25.665Z</time></trkpt><trkpt lat="44.4954867" lon="9.12747"><ele>610.0</ele><time>2026-04-21T11:18:26.666Z</time></trkpt><trkpt lat="44.4954767" lon="9.12766"><ele>611.0</ele><time>2026-04-21T11:18:27.666Z</time></trkpt><trkpt lat="44.4954733" lon="9.1278533"><ele>612.0</ele><time>2026-04-21T11:18:28.665Z</time></trkpt><trkpt lat="44.4954667" lon="9.128035"><ele>613.0</ele><time>2026-04-21T11:18:29.665Z</time></trkpt><trkpt lat="44.49544" lon="9.12822"><ele>614.0</ele><time>2026-04-21T11:18:30.666Z</time></trkpt><trkpt lat="44.49539" lon="9.128405"><ele>614.0</ele><time>2026-04-21T11:18:31.666Z</time></trkpt><trkpt lat="44.495315" lon="9.1285833"><ele>614.0</ele><time>2026-04-21T11:18:32.666Z</time></trkpt><trkpt lat="44.49522" lon="9.1287417"><ele>614.0</ele><time>2026-04-21T11:18:33.665Z</time></trkpt><trkpt lat="44.495115" lon="9.1288967"><ele>614.0</ele><time>2026-04-21T11:18:34.665Z</time></trkpt><trkpt lat="44.4950067" lon="9.12905"><ele>616.0</ele><time>2026-04-21T11:18:35.666Z</time></trkpt><trkpt lat="44.494895" lon="9.12919"><ele>618.0</ele><time>2026-04-21T11:18:36.665Z</time></trkpt><trkpt lat="44.4947867" lon="9.129305"><ele>620.0</ele><time>2026-04-21T11:18:37.666Z</time></trkpt><trkpt lat="44.494675" lon="9.12941"><ele>622.0</ele><time>2026-04-21T11:18:38.666Z</time></trkpt><trkpt lat="44.494555" lon="9.1295383"><ele>620.25</ele><time>2026-04-21T11:18:39.666Z</time></trkpt><trkpt lat="44.4944433" lon="9.1296617"><ele>618.5</ele><time>2026-04-21T11:18:40.666Z</time></trkpt><trkpt lat="44.4943483" lon="9.1298033"><ele>616.75</ele><time>2026-04-21T11:18:41.666Z</time></trkpt><trkpt lat="44.4942533" lon="9.12993"><ele>615.0</ele><time>2026-04-21T11:18:42.665Z</time></trkpt><trkpt lat="44.4941567" lon="9.1300417"><ele>615.0</ele><time>2026-04-21T11:18:43.665Z</time></trkpt><trkpt lat="44.4940467" lon="9.1301683"><ele>615.0</ele><time>2026-04-21T11:18:44.666Z</time></trkpt><trkpt lat="44.4939417" lon="9.1302833"><ele>615.0</ele><time>2026-04-21T11:18:45.666Z</time></trkpt><trkpt lat="44.49381" lon="9.1303817"><ele>615.0</ele><time>2026-04-21T11:18:46.665Z</time></trkpt><trkpt lat="44.493675" lon="9.1304567"><ele>610.3333333333334</ele><time>2026-04-21T11:18:47.665Z</time></trkpt><trkpt lat="44.493525" lon="9.1305167"><ele>605.6666666666667</ele><time>2026-04-21T11:18:48.665Z</time></trkpt><trkpt lat="44.4933717" lon="9.1305417"><ele>601.0</ele><time>2026-04-21T11:18:49.666Z</time></trkpt><trkpt lat="44.49322" lon="9.13057"><ele>601.0</ele><time>2026-04-21T11:18:50.666Z</time></trkpt><trkpt lat="44.4930767" lon="9.1305817"><ele>601.0</ele><time>2026-04-21T11:18:51.666Z</time></trkpt><trkpt lat="44.492935" lon="9.1305933"><ele>601.0</ele><time>2026-04-21T11:18:52.666Z</time></trkpt><trkpt lat="44.4928033" lon="9.130615"><ele>601.0</ele><time>2026-04-21T11:18:53.665Z</time></trkpt><trkpt lat="44.4927067" lon="9.130605"><ele>599.0</ele><time>2026-04-21T11:18:54.665Z</time></trkpt><trkpt lat="44.492625" lon="9.1305833"><ele>597.0</ele><time>2026-04-21T11:18:55.666Z</time></trkpt><trkpt lat="44.4925517" lon="9.1305367"><ele>595.0</ele><time>2026-04-21T11:18:56.666Z</time></trkpt><trkpt lat="44.4925017" lon="9.1304533"><ele>593.0</ele><time>2026-04-21T11:18:57.666Z</time></trkpt><trkpt lat="44.4924833" lon="9.1303467"><ele>591.0</ele><time>2026-04-21T11:18:58.665Z</time></trkpt><trkpt lat="44.4924967" lon="9.1302167"><ele>589.0</ele><time>2026-04-21T11:18:59.665Z</time></trkpt><trkpt lat="44.4925533" lon="9.1300917"><ele>589.0</ele><time>2026-04-21T11:19:00.665Z</time></trkpt><trkpt lat="44.4926517" lon="9.1299933"><ele>589.0</ele><time>2026-04-21T11:19:01.665Z</time></trkpt><trkpt lat="44.4927567" lon="9.1299617"><ele>589.0</ele><time>2026-04-21T11:19:02.665Z</time></trkpt><trkpt lat="44.4928567" lon="9.1299767"><ele>589.0</ele><time>2026-04-21T11:19:03.665Z</time></trkpt><trkpt lat="44.4929583" lon="9.1300283"><ele>589.0</ele><time>2026-04-21T11:19:04.665Z</time></trkpt><trkpt lat="44.4930317" lon="9.1301367"><ele>592.0</ele><time>2026-04-21T11:19:05.665Z</time></trkpt><trkpt lat="44.4930967" lon="9.1302617"><ele>595.0</ele><time>2026-04-21T11:19:06.666Z</time></trkpt><trkpt lat="44.4931483" lon="9.1303967"><ele>598.0</ele><time>2026-04-21T11:19:07.665Z</time></trkpt><trkpt lat="44.4931983" lon="9.1305383"><ele>601.0</ele><time>2026-04-21T11:19:08.665Z</time></trkpt><trkpt lat="44.4932417" lon="9.1306933"><ele>604.75</ele><time>2026-04-21T11:19:09.666Z</time></trkpt><trkpt lat="44.4932883" lon="9.1308433"><ele>608.5</ele><time>2026-04-21T11:19:10.665Z</time></trkpt><trkpt lat="44.4933483" lon="9.1309983"><ele>612.25</ele><time>2026-04-21T11:19:11.666Z</time></trkpt><trkpt lat="44.4934233" lon="9.131145"><ele>616.0</ele><time>2026-04-21T11:19:12.665Z</time></trkpt><trkpt lat="44.4935167" lon="9.1312867"><ele>616.0</ele><time>2026-04-21T11:19:13.665Z</time></trkpt><trkpt lat="44.4936267" lon="9.13141"><ele>616.0</ele><time>2026-04-21T11:19:14.665Z</time></trkpt><trkpt lat="44.4937517" lon="9.1315283"><ele>616.0</ele><time>2026-04-21T11:19:15.665Z</time></trkpt><trkpt lat="44.4938867" lon="9.1316483"><ele>622.0</ele><time>2026-04-21T11:19:16.666Z</time></trkpt><trkpt lat="44.494025" lon="9.1317917"><ele>628.0</ele><time>2026-04-21T11:19:17.666Z</time></trkpt><trkpt lat="44.49417" lon="9.1319267"><ele>634.0</ele><time>2026-04-21T11:19:18.665Z</time></trkpt><trkpt lat="44.49432" lon="9.132065"><ele>634.0</ele><time>2026-04-21T11:19:19.665Z</time></trkpt><trkpt lat="44.4944667" lon="9.1321933"><ele>634.0</ele><time>2026-04-21T11:19:20.665Z</time></trkpt><trkpt lat="44.4946017" lon="9.13231"><ele>634.0</ele><time>2026-04-21T11:19:21.665Z</time></trkpt><trkpt lat="44.49473" lon="9.13242"><ele>636.6666666666667</ele><time>2026-04-21T11:19:22.665Z</time></trkpt><trkpt lat="44.4948633" lon="9.1325317"><ele>639.3333333333334</ele><time>2026-04-21T11:19:23.665Z</time></trkpt><trkpt lat="44.4949983" lon="9.132645"><ele>642.0</ele><time>2026-04-21T11:19:24.665Z</time></trkpt><trkpt lat="44.4971033" lon="9.1347233"><ele>642.0</ele><time>2026-04-21T11:19:40.666Z</time></trkpt><trkpt lat="44.4972167" lon="9.134855"><ele>642.0</ele><time>2026-04-21T11:19:41.666Z</time></trkpt><trkpt lat="44.4973367" lon="9.1350017"><ele>642.0</ele><time>2026-04-21T11:19:42.665Z</time></trkpt><trkpt lat="44.4974667" lon="9.1351567"><ele>644.3333333333334</ele><time>2026-04-21T11:19:43.666Z</time></trkpt><trkpt lat="44.4975833" lon="9.1353183"><ele>646.6666666666667</ele><time>2026-04-21T11:19:44.666Z</time></trkpt><trkpt lat="44.4977117" lon="9.1354783"><ele>649.0</ele><time>2026-04-21T11:19:45.666Z</time></trkpt><trkpt lat="44.4978317" lon="9.1356467"><ele>651.3333333333334</ele><time>2026-04-21T11:19:46.666Z</time></trkpt><trkpt lat="44.4979583" lon="9.13581"><ele>653.6666666666666</ele><time>2026-04-21T11:19:47.666Z</time></trkpt><trkpt lat="44.4980833" lon="9.1359733"><ele>656.0</ele><time>2026-04-21T11:19:48.666Z</time></trkpt><trkpt lat="44.4982167" lon="9.136135"><ele>656.0</ele><time>2026-04-21T11:19:49.665Z</time></trkpt><trkpt lat="44.4983467" lon="9.1363"><ele>656.0</ele><time>2026-04-21T11:19:50.665Z</time></trkpt><trkpt lat="44.498485" lon="9.1364733"><ele>656.0</ele><time>2026-04-21T11:19:51.666Z</time></trkpt><trkpt lat="44.4986183" lon="9.1366517"><ele>658.0</ele><time>2026-04-21T11:19:52.666Z</time></trkpt><trkpt lat="44.498755" lon="9.1368283"><ele>660.0</ele><time>2026-04-21T11:19:53.665Z</time></trkpt><trkpt lat="44.4988883" lon="9.1370033"><ele>662.0</ele><time>2026-04-21T11:19:54.666Z</time></trkpt><trkpt lat="44.4990083" lon="9.1371917"><ele>662.0</ele><time>2026-04-21T11:19:55.665Z</time></trkpt><trkpt lat="44.499125" lon="9.137375"><ele>662.0</ele><time>2026-04-21T11:19:56.665Z</time></trkpt><trkpt lat="44.4992567" lon="9.13756"><ele>662.0</ele><time>2026-04-21T11:19:57.665Z</time></trkpt><trkpt lat="44.4994067" lon="9.1377433"><ele>664.0</ele><time>2026-04-21T11:19:58.665Z</time></trkpt><trkpt lat="44.49954" lon="9.1379317"><ele>666.0</ele><time>2026-04-21T11:19:59.665Z</time></trkpt><trkpt lat="44.4996383" lon="9.13813"><ele>668.0</ele><time>2026-04-21T11:20:00.666Z</time></trkpt><trkpt lat="44.49975" lon="9.1383367"><ele>670.6666666666666</ele><time>2026-04-21T11:20:01.665Z</time></trkpt><trkpt lat="44.49987" lon="9.1385317"><ele>673.3333333333334</ele><time>2026-04-21T11:20:02.665Z</time></trkpt><trkpt lat="44.4999883" lon="9.1387417"><ele>676.0</ele><time>2026-04-21T11:20:03.666Z</time></trkpt><trkpt lat="44.50011" lon="9.1389383"><ele>679.6666666666667</ele><time>2026-04-21T11:20:04.666Z</time></trkpt><trkpt lat="44.5002267" lon="9.1391467"><ele>683.3333333333334</ele><time>2026-04-21T11:20:05.666Z</time></trkpt><trkpt lat="44.5003367" lon="9.13936"><ele>687.0</ele><time>2026-04-21T11:20:06.666Z</time></trkpt><trkpt lat="44.5004567" lon="9.1395733"><ele>687.0</ele><time>2026-04-21T11:20:07.666Z</time></trkpt><trkpt lat="44.5005733" lon="9.1397867"><ele>687.0</ele><time>2026-04-21T11:20:08.666Z</time></trkpt><trkpt lat="44.5006817" lon="9.14001"><ele>687.0</ele><time>2026-04-21T11:20:09.665Z</time></trkpt><trkpt lat="44.50079" lon="9.1402267"><ele>694.5</ele><time>2026-04-21T11:20:10.666Z</time></trkpt><trkpt lat="44.5008933" lon="9.140435"><ele>702.0</ele><time>2026-04-21T11:20:11.665Z</time></trkpt><trkpt lat="44.5026483" lon="9.1459333"><ele>701.3333333333334</ele><time>2026-04-21T11:20:32.666Z</time></trkpt><trkpt lat="44.5026733" lon="9.1461417"><ele>700.6666666666667</ele><time>2026-04-21T11:20:33.665Z</time></trkpt><trkpt lat="44.5027683" lon="9.1464267"><ele>700.0</ele><time>2026-04-21T11:20:34.665Z</time></trkpt><trkpt lat="44.50285" lon="9.1466983"><ele>705.0</ele><time>2026-04-21T11:20:35.665Z</time></trkpt><trkpt lat="44.50292" lon="9.1469617"><ele>710.0</ele><time>2026-04-21T11:20:36.666Z</time></trkpt><trkpt lat="44.5030133" lon="9.1472067"><ele>715.0</ele><time>2026-04-21T11:20:37.666Z</time></trkpt><trkpt lat="44.5030933" lon="9.147455"><ele>715.0</ele><time>2026-04-21T11:20:38.665Z</time></trkpt><trkpt lat="44.5031933" lon="9.1476817"><ele>715.0</ele><time>2026-04-21T11:20:39.665Z</time></trkpt><trkpt lat="44.503295" lon="9.1479083"><ele>715.0</ele><time>2026-04-21T11:20:40.665Z</time></trkpt><trkpt lat="44.5033933" lon="9.148135"><ele>710.0</ele><time>2026-04-21T11:20:41.666Z</time></trkpt><trkpt lat="44.5035083" lon="9.148345"><ele>705.0</ele><time>2026-04-21T11:20:42.665Z</time></trkpt><trkpt lat="44.5036233" lon="9.14855"><ele>700.0</ele><time>2026-04-21T11:20:43.666Z</time></trkpt><trkpt lat="44.5037617" lon="9.148735"><ele>704.0</ele><time>2026-04-21T11:20:44.666Z</time></trkpt><trkpt lat="44.5039017" lon="9.1489233"><ele>708.0</ele><time>2026-04-21T11:20:45.665Z</time></trkpt><trkpt lat="44.5040483" lon="9.1491033"><ele>712.0</ele><time>2026-04-21T11:20:46.666Z</time></trkpt><trkpt lat="44.5041917" lon="9.1492933"><ele>712.0</ele><time>2026-04-21T11:20:47.666Z</time></trkpt><trkpt lat="44.504345" lon="9.1494717"><ele>712.0</ele><time>2026-04-21T11:20:48.665Z</time></trkpt><trkpt lat="44.504505" lon="9.1496517"><ele>712.0</ele><time>2026-04-21T11:20:49.665Z</time></trkpt><trkpt lat="44.5046667" lon="9.1498217"><ele>722.0</ele><time>2026-04-21T11:20:50.665Z</time></trkpt><trkpt lat="44.504835" lon="9.149995"><ele>732.0</ele><time>2026-04-21T11:20:51.666Z</time></trkpt><trkpt lat="44.5050067" lon="9.1501667"><ele>742.0</ele><time>2026-04-21T11:20:52.665Z</time></trkpt><trkpt lat="44.5051783" lon="9.1503383"><ele>742.0</ele><time>2026-04-21T11:20:53.666Z</time></trkpt><trkpt lat="44.5053517" lon="9.15051"><ele>742.0</ele><time>2026-04-21T11:20:54.666Z</time></trkpt><trkpt lat="44.506725" lon="9.1519417"><ele>735.0</ele><time>2026-04-21T11:21:02.665Z</time></trkpt><trkpt lat="44.5069633" lon="9.1520733"><ele>728.0</ele><time>2026-04-21T11:21:03.666Z</time></trkpt><trkpt lat="44.5071317" lon="9.152235"><ele>729.6666666666666</ele><time>2026-04-21T11:21:04.666Z</time></trkpt><trkpt lat="44.5073083" lon="9.1524133"><ele>731.3333333333334</ele><time>2026-04-21T11:21:05.665Z</time></trkpt><trkpt lat="44.5074717" lon="9.152575"><ele>733.0</ele><time>2026-04-21T11:21:06.665Z</time></trkpt><trkpt lat="44.5076317" lon="9.152745"><ele>733.0</ele><time>2026-04-21T11:21:07.665Z</time></trkpt><trkpt lat="44.5077883" lon="9.15291"><ele>733.0</ele><time>2026-04-21T11:21:08.665Z</time></trkpt><trkpt lat="44.5079433" lon="9.1530783"><ele>733.0</ele><time>2026-04-21T11:21:09.666Z</time></trkpt><trkpt lat="44.508095" lon="9.15324"><ele>736.6666666666667</ele><time>2026-04-21T11:21:10.665Z</time></trkpt><trkpt lat="44.5082433" lon="9.15339"><ele>740.3333333333334</ele><time>2026-04-21T11:21:11.666Z</time></trkpt><trkpt lat="44.5084" lon="9.1535517"><ele>744.0</ele><time>2026-04-21T11:21:12.665Z</time></trkpt><trkpt lat="44.508665" lon="9.1535983"><ele>740.5</ele><time>2026-04-21T11:21:13.666Z</time></trkpt><trkpt lat="44.5089283" lon="9.153625"><ele>737.0</ele><time>2026-04-21T11:21:14.666Z</time></trkpt><trkpt lat="44.509155" lon="9.1536817"><ele>737.0</ele><time>2026-04-21T11:21:15.665Z</time></trkpt><trkpt lat="44.5093517" lon="9.15375"><ele>737.0</ele><time>2026-04-21T11:21:16.666Z</time></trkpt><trkpt lat="44.5095517" lon="9.1537983"><ele>737.0</ele><time>2026-04-21T11:21:17.665Z</time></trkpt><trkpt lat="44.5097483" lon="9.1538633"><ele>738.0</ele><time>2026-04-21T11:21:18.666Z</time></trkpt><trkpt lat="44.50995" lon="9.1539383"><ele>739.0</ele><time>2026-04-21T11:21:19.666Z</time></trkpt><trkpt lat="44.51015" lon="9.1540117"><ele>740.0</ele><time>2026-04-21T11:21:20.665Z</time></trkpt><trkpt lat="44.510355" lon="9.1540817"><ele>738.3333333333333</ele><time>2026-04-21T11:21:21.666Z</time></trkpt><trkpt lat="44.51055" lon="9.1541683"><ele>736.6666666666666</ele><time>2026-04-21T11:21:22.666Z</time></trkpt><trkpt lat="44.510755" lon="9.1542533"><ele>735.0</ele><time>2026-04-21T11:21:23.665Z</time></trkpt><trkpt lat="44.5109517" lon="9.1543283"><ele>735.0</ele><time>2026-04-21T11:21:24.665Z</time></trkpt><trkpt lat="44.5111567" lon="9.15441"><ele>735.0</ele><time>2026-04-21T11:21:25.665Z</time></trkpt><trkpt lat="44.5113483" lon="9.1545167"><ele>735.0</ele><time>2026-04-21T11:21:26.665Z</time></trkpt><trkpt lat="44.5115433" lon="9.1546283"><ele>736.3333333333334</ele><time>2026-04-21T11:21:27.666Z</time></trkpt><trkpt lat="44.51173" lon="9.1547633"><ele>737.6666666666667</ele><time>2026-04-21T11:21:28.666Z</time></trkpt><trkpt lat="44.5119167" lon="9.15491"><ele>739.0</ele><time>2026-04-21T11:21:29.665Z</time></trkpt><trkpt lat="44.5120933" lon="9.155085"><ele>742.0</ele><time>2026-04-21T11:21:30.665Z</time></trkpt><trkpt lat="44.5122667" lon="9.1552667"><ele>745.0</ele><time>2026-04-21T11:21:31.665Z</time></trkpt><trkpt lat="44.512445" lon="9.155455"><ele>748.0</ele><time>2026-04-21T11:21:32.665Z</time></trkpt><trkpt lat="44.5126083" lon="9.15566"><ele>746.6666666666667</ele><time>2026-04-21T11:21:33.665Z</time></trkpt><trkpt lat="44.5127667" lon="9.1558783"><ele>745.3333333333334</ele><time>2026-04-21T11:21:34.666Z</time></trkpt><trkpt lat="44.5129133" lon="9.1561033"><ele>744.0</ele><time>2026-04-21T11:21:35.665Z</time></trkpt><trkpt lat="44.51305" lon="9.15634"><ele>744.0</ele><time>2026-04-21T11:21:36.665Z</time></trkpt><trkpt lat="44.5131833" lon="9.1565667"><ele>744.0</ele><time>2026-04-21T11:21:37.666Z</time></trkpt><trkpt lat="44.5133183" lon="9.1568017"><ele>744.0</ele><time>2026-04-21T11:21:38.665Z</time></trkpt><trkpt lat="44.513455" lon="9.157035"><ele>744.0</ele><time>2026-04-21T11:21:39.666Z</time></trkpt><trkpt lat="44.5135917" lon="9.1572683"><ele>744.0</ele><time>2026-04-21T11:21:40.665Z</time></trkpt><trkpt lat="44.5137267" lon="9.1575017"><ele>744.0</ele><time>2026-04-21T11:21:41.666Z</time></trkpt><trkpt lat="44.513845" lon="9.157725"><ele>744.0</ele><time>2026-04-21T11:21:42.665Z</time></trkpt><trkpt lat="44.5138633" lon="9.1580883"><ele>744.0</ele><time>2026-04-21T11:21:43.666Z</time></trkpt><trkpt lat="44.513895" lon="9.1584033"><ele>744.0</ele><time>2026-04-21T11:21:44.666Z</time></trkpt><trkpt lat="44.5139083" lon="9.1586883"><ele>744.0</ele><time>2026-04-21T11:21:45.665Z</time></trkpt><trkpt lat="44.5139383" lon="9.1589683"><ele>744.0</ele><time>2026-04-21T11:21:46.666Z</time></trkpt><trkpt lat="44.5139617" lon="9.1592483"><ele>739.6666666666666</ele><time>2026-04-21T11:21:47.666Z</time></trkpt><trkpt lat="44.513985" lon="9.1595233"><ele>735.3333333333333</ele><time>2026-04-21T11:21:48.666Z</time></trkpt><trkpt lat="44.513995" lon="9.1597983"><ele>731.0</ele><time>2026-04-21T11:21:49.665Z</time></trkpt><trkpt lat="44.5139933" lon="9.1600683"><ele>728.3333333333333</ele><time>2026-04-21T11:21:50.665Z</time></trkpt><trkpt lat="44.5139767" lon="9.160345"><ele>725.6666666666666</ele><time>2026-04-21T11:21:51.666Z</time></trkpt><trkpt lat="44.5139633" lon="9.16061"><ele>723.0</ele><time>2026-04-21T11:21:52.665Z</time></trkpt><trkpt lat="44.5139383" lon="9.160875"><ele>723.0</ele><time>2026-04-21T11:21:53.665Z</time></trkpt><trkpt lat="44.5139083" lon="9.16113"><ele>723.0</ele><time>2026-04-21T11:21:54.666Z</time></trkpt><trkpt lat="44.5138733" lon="9.161375"><ele>723.0</ele><time>2026-04-21T11:21:55.666Z</time></trkpt><trkpt lat="44.5138317" lon="9.16161"><ele>728.3333333333334</ele><time>2026-04-21T11:21:56.666Z</time></trkpt><trkpt lat="44.513785" lon="9.1618517"><ele>733.6666666666667</ele><time>2026-04-21T11:21:57.665Z</time></trkpt><trkpt lat="44.5137383" lon="9.1620917"><ele>739.0</ele><time>2026-04-21T11:21:58.666Z</time></trkpt><trkpt lat="44.5136817" lon="9.1623317"><ele>749.0</ele><time>2026-04-21T11:21:59.665Z</time></trkpt><trkpt lat="44.5136233" lon="9.1625633"><ele>759.0</ele><time>2026-04-21T11:22:00.665Z</time></trkpt><trkpt lat="44.5135617" lon="9.1627867"><ele>769.0</ele><time>2026-04-21T11:22:01.665Z</time></trkpt><trkpt lat="44.513505" lon="9.163005"><ele>774.3333333333333</ele><time>2026-04-21T11:22:02.665Z</time></trkpt><trkpt lat="44.5134467" lon="9.163225"><ele>779.6666666666667</ele><time>2026-04-21T11:22:03.666Z</time></trkpt><trkpt lat="44.5133883" lon="9.1634433"><ele>785.0</ele><time>2026-04-21T11:22:04.665Z</time></trkpt><trkpt lat="44.5095633" lon="9.183285"><ele>798.0</ele><time>2026-04-21T11:23:19.664Z</time></trkpt><trkpt lat="44.5091067" lon="9.183745"><ele>798.0</ele><time>2026-04-21T11:23:21.664Z</time></trkpt><trkpt lat="44.50902" lon="9.183975"><ele>798.0</ele><time>2026-04-21T11:23:22.664Z</time></trkpt><trkpt lat="44.5089533" lon="9.1841933"><ele>798.0</ele><time>2026-04-21T11:23:23.664Z</time></trkpt><trkpt lat="44.5089083" lon="9.1844117"><ele>796.3333333333333</ele><time>2026-04-21T11:23:24.664Z</time></trkpt><trkpt lat="44.5088583" lon="9.18463"><ele>794.6666666666666</ele><time>2026-04-21T11:23:25.663Z</time></trkpt><trkpt lat="44.5088117" lon="9.1848267"><ele>793.0</ele><time>2026-04-21T11:23:26.663Z</time></trkpt><trkpt lat="44.5087733" lon="9.1850217"><ele>797.2</ele><time>2026-04-21T11:23:27.663Z</time></trkpt><trkpt lat="44.5087333" lon="9.1851783"><ele>801.4</ele><time>2026-04-21T11:23:28.664Z</time></trkpt><trkpt lat="44.5087117" lon="9.1852667"><ele>805.6</ele><time>2026-04-21T11:23:29.663Z</time></trkpt><trkpt lat="44.5086383" lon="9.1853233"><ele>809.8000000000001</ele><time>2026-04-21T11:23:31.663Z</time></trkpt><trkpt lat="44.5085767" lon="9.1852783"><ele>814.0</ele><time>2026-04-21T11:23:33.663Z</time></trkpt><trkpt lat="44.5085133" lon="9.1851333"><ele>814.0</ele><time>2026-04-21T11:23:35.663Z</time></trkpt><trkpt lat="44.5084783" lon="9.18503"><ele>814.0</ele><time>2026-04-21T11:23:36.663Z</time></trkpt><trkpt lat="44.5084583" lon="9.1849067"><ele>814.0</ele><time>2026-04-21T11:23:37.663Z</time></trkpt><trkpt lat="44.5084567" lon="9.18477"><ele>814.0</ele><time>2026-04-21T11:23:38.664Z</time></trkpt><trkpt lat="44.5084767" lon="9.1846317"><ele>814.0</ele><time>2026-04-21T11:23:39.664Z</time></trkpt><trkpt lat="44.5085283" lon="9.184495"><ele>814.4000000000001</ele><time>2026-04-21T11:23:40.663Z</time></trkpt><trkpt lat="44.5085683" lon="9.1843567"><ele>814.8</ele><time>2026-04-21T11:23:41.663Z</time></trkpt><trkpt lat="44.50857" lon="9.18422"><ele>815.2</ele><time>2026-04-21T11:23:42.664Z</time></trkpt><trkpt lat="44.50855" lon="9.1841017"><ele>815.5999999999999</ele><time>2026-04-21T11:23:43.663Z</time></trkpt><trkpt lat="44.5085117" lon="9.183995"><ele>816.0</ele><time>2026-04-21T11:23:44.663Z</time></trkpt><trkpt lat="44.5084383" lon="9.183905"><ele>816.8</ele><time>2026-04-21T11:23:45.664Z</time></trkpt><trkpt lat="44.5083367" lon="9.1838283"><ele>817.5999999999999</ele><time>2026-04-21T11:23:46.664Z</time></trkpt><trkpt lat="44.50823" lon="9.1837617"><ele>818.4</ele><time>2026-04-21T11:23:47.664Z</time></trkpt><trkpt lat="44.5081483" lon="9.183675"><ele>819.2</ele><time>2026-04-21T11:23:48.664Z</time></trkpt><trkpt lat="44.508115" lon="9.183575"><ele>820.0</ele><time>2026-04-21T11:23:49.663Z</time></trkpt><trkpt lat="44.5081167" lon="9.18348"><ele>820.0</ele><time>2026-04-21T11:23:50.663Z</time></trkpt><trkpt lat="44.5081533" lon="9.1834017"><ele>820.0</ele><time>2026-04-21T11:23:51.663Z</time></trkpt><trkpt lat="44.5082383" lon="9.183335"><ele>820.0</ele><time>2026-04-21T11:23:52.664Z</time></trkpt><trkpt lat="44.5083783" lon="9.1832967"><ele>820.0</ele><time>2026-04-21T11:23:53.663Z</time></trkpt><trkpt lat="44.5085283" lon="9.1832267"><ele>815.3333333333333</ele><time>2026-04-21T11:23:54.664Z</time></trkpt><trkpt lat="44.50866" lon="9.18311"><ele>810.6666666666667</ele><time>2026-04-21T11:23:55.663Z</time></trkpt><trkpt lat="44.5087533" lon="9.18295"><ele>806.0</ele><time>2026-04-21T11:23:56.664Z</time></trkpt><trkpt lat="44.50881" lon="9.1827583"><ele>806.0</ele><time>2026-04-21T11:23:57.664Z</time></trkpt><trkpt lat="44.5088417" lon="9.18256"><ele>806.0</ele><time>2026-04-21T11:23:58.664Z</time></trkpt><trkpt lat="44.5088683" lon="9.1823733"><ele>806.0</ele><time>2026-04-21T11:23:59.663Z</time></trkpt><trkpt lat="44.5089117" lon="9.1822083"><ele>806.0</ele><time>2026-04-21T11:24:00.663Z</time></trkpt><trkpt lat="44.5089767" lon="9.1820883"><ele>811.25</ele><time>2026-04-21T11:24:01.663Z</time></trkpt><trkpt lat="44.50908" lon="9.181995"><ele>816.5</ele><time>2026-04-21T11:24:02.664Z</time></trkpt><trkpt lat="44.5092017" lon="9.1818983"><ele>821.75</ele><time>2026-04-21T11:24:03.664Z</time></trkpt><trkpt lat="44.509315" lon="9.18178"><ele>827.0</ele><time>2026-04-21T11:24:04.663Z</time></trkpt><trkpt lat="44.509425" lon="9.18165"><ele>827.0</ele><time>2026-04-21T11:24:05.664Z</time></trkpt><trkpt lat="44.5095283" lon="9.1815283"><ele>827.0</ele><time>2026-04-21T11:24:06.664Z</time></trkpt><trkpt lat="44.5096083" lon="9.1814033"><ele>827.0</ele><time>2026-04-21T11:24:07.664Z</time></trkpt><trkpt lat="44.5096967" lon="9.18125"><ele>827.0</ele><time>2026-04-21T11:24:08.663Z</time></trkpt><trkpt lat="44.5097817" lon="9.1810933"><ele>826.0</ele><time>2026-04-21T11:24:09.664Z</time></trkpt><trkpt lat="44.5098717" lon="9.18095"><ele>825.0</ele><time>2026-04-21T11:24:10.663Z</time></trkpt><trkpt lat="44.5099633" lon="9.1808367"><ele>824.0</ele><time>2026-04-21T11:24:11.664Z</time></trkpt><trkpt lat="44.51006" lon="9.1807183"><ele>823.0</ele><time>2026-04-21T11:24:12.664Z</time></trkpt><trkpt lat="44.51014" lon="9.180585"><ele>826.25</ele><time>2026-04-21T11:24:13.663Z</time></trkpt><trkpt lat="44.5101967" lon="9.1804417"><ele>829.5</ele><time>2026-04-21T11:24:14.663Z</time></trkpt><trkpt lat="44.5102267" lon="9.1802633"><ele>832.75</ele><time>2026-04-21T11:24:15.664Z</time></trkpt><trkpt lat="44.5102433" lon="9.1800933"><ele>836.0</ele><time>2026-04-21T11:24:16.663Z</time></trkpt><trkpt lat="44.5102367" lon="9.1799367"><ele>833.25</ele><time>2026-04-21T11:24:17.664Z</time></trkpt><trkpt lat="44.5102067" lon="9.179795"><ele>830.5</ele><time>2026-04-21T11:24:18.663Z</time></trkpt><trkpt lat="44.510135" lon="9.1796733"><ele>827.75</ele><time>2026-04-21T11:24:19.663Z</time></trkpt><trkpt lat="44.51005" lon="9.179555"><ele>825.0</ele><time>2026-04-21T11:24:20.664Z</time></trkpt><trkpt lat="44.5099417" lon="9.1794433"><ele>825.0</ele><time>2026-04-21T11:24:21.663Z</time></trkpt><trkpt lat="44.5098317" lon="9.1793217"><ele>825.0</ele><time>2026-04-21T11:24:22.664Z</time></trkpt><trkpt lat="44.5097367" lon="9.1791783"><ele>825.0</ele><time>2026-04-21T11:24:23.663Z</time></trkpt><trkpt lat="44.5096483" lon="9.17901"><ele>825.0</ele><time>2026-04-21T11:24:24.664Z</time></trkpt><trkpt lat="44.5095717" lon="9.1788467"><ele>828.5</ele><time>2026-04-21T11:24:25.664Z</time></trkpt><trkpt lat="44.509495" lon="9.1787083"><ele>832.0</ele><time>2026-04-21T11:24:26.664Z</time></trkpt><trkpt lat="44.5094067" lon="9.178605"><ele>835.5</ele><time>2026-04-21T11:24:27.664Z</time></trkpt><trkpt lat="44.5093" lon="9.1785017"><ele>839.0</ele><time>2026-04-21T11:24:28.663Z</time></trkpt><trkpt lat="44.5091833" lon="9.1784"><ele>839.0</ele><time>2026-04-21T11:24:29.663Z</time></trkpt><trkpt lat="44.509075" lon="9.1782833"><ele>839.0</ele><time>2026-04-21T11:24:30.664Z</time></trkpt><trkpt lat="44.5089767" lon="9.1781583"><ele>839.0</ele><time>2026-04-21T11:24:31.664Z</time></trkpt><trkpt lat="44.5088633" lon="9.17802"><ele>839.0</ele><time>2026-04-21T11:24:32.663Z</time></trkpt><trkpt lat="44.508745" lon="9.1778667"><ele>839.0</ele><time>2026-04-21T11:24:33.664Z</time></trkpt><trkpt lat="44.5086217" lon="9.1776967"><ele>839.0</ele><time>2026-04-21T11:24:34.664Z</time></trkpt><trkpt lat="44.5085067" lon="9.1775083"><ele>839.0</ele><time>2026-04-21T11:24:35.664Z</time></trkpt><trkpt lat="44.508405" lon="9.17733"><ele>835.25</ele><time>2026-04-21T11:24:36.664Z</time></trkpt><trkpt lat="44.5083067" lon="9.177155"><ele>831.5</ele><time>2026-04-21T11:24:37.663Z</time></trkpt><trkpt lat="44.508205" lon="9.1770117"><ele>827.75</ele><time>2026-04-21T11:24:38.663Z</time></trkpt><trkpt lat="44.5080817" lon="9.1769083"><ele>824.0</ele><time>2026-04-21T11:24:39.664Z</time></trkpt><trkpt lat="44.5079333" lon="9.1768283"><ele>827.0</ele><time>2026-04-21T11:24:40.663Z</time></trkpt><trkpt lat="44.50777" lon="9.1767733"><ele>830.0</ele><time>2026-04-21T11:24:41.663Z</time></trkpt><trkpt lat="44.5076017" lon="9.1767233"><ele>833.0</ele><time>2026-04-21T11:24:42.664Z</time></trkpt><trkpt lat="44.5074617" lon="9.1766483"><ele>833.0</ele><time>2026-04-21T11:24:43.663Z</time></trkpt><trkpt lat="44.5073567" lon="9.1765517"><ele>833.0</ele><time>2026-04-21T11:24:44.663Z</time></trkpt><trkpt lat="44.5072583" lon="9.176445"><ele>833.0</ele><time>2026-04-21T11:24:45.663Z</time></trkpt><trkpt lat="44.5071683" lon="9.1763483"><ele>833.0</ele><time>2026-04-21T11:24:46.664Z</time></trkpt><trkpt lat="44.5070133" lon="9.1762117"><ele>832.75</ele><time>2026-04-21T11:24:48.664Z</time></trkpt><trkpt lat="44.5069467" lon="9.1761633"><ele>832.5</ele><time>2026-04-21T11:24:49.664Z</time></trkpt><trkpt lat="44.5068633" lon="9.17609"><ele>832.25</ele><time>2026-04-21T11:24:51.664Z</time></trkpt><trkpt lat="44.5068783" lon="9.1761933"><ele>832.0</ele><time>2026-04-21T11:24:56.664Z</time></trkpt><trkpt lat="44.5070933" lon="9.1763517"><ele>832.25</ele><time>2026-04-21T11:24:59.663Z</time></trkpt><trkpt lat="44.5072" lon="9.1764317"><ele>832.5</ele><time>2026-04-21T11:25:00.664Z</time></trkpt><trkpt lat="44.5073133" lon="9.1765167"><ele>832.75</ele><time>2026-04-21T11:25:01.663Z</time></trkpt><trkpt lat="44.50742" lon="9.1765983"><ele>833.0</ele><time>2026-04-21T11:25:02.663Z</time></trkpt><trkpt lat="44.5075183" lon="9.1766867"><ele>833.0</ele><time>2026-04-21T11:25:03.663Z</time></trkpt><trkpt lat="44.5076067" lon="9.1767817"><ele>833.0</ele><time>2026-04-21T11:25:04.663Z</time></trkpt><trkpt lat="44.5076933" lon="9.1768717"><ele>833.0</ele><time>2026-04-21T11:25:05.663Z</time></trkpt><trkpt lat="44.50779" lon="9.17693"><ele>833.0</ele><time>2026-04-21T11:25:06.664Z</time></trkpt><trkpt lat="44.5078883" lon="9.17696"><ele>833.0</ele><time>2026-04-21T11:25:07.664Z</time></trkpt><trkpt lat="44.5079817" lon="9.1769867"><ele>834.2</ele><time>2026-04-21T11:25:08.663Z</time></trkpt><trkpt lat="44.50807" lon="9.17703"><ele>835.4</ele><time>2026-04-21T11:25:09.663Z</time></trkpt><trkpt lat="44.5081567" lon="9.17711"><ele>836.6</ele><time>2026-04-21T11:25:10.664Z</time></trkpt><trkpt lat="44.5082333" lon="9.17721"><ele>837.8000000000001</ele><time>2026-04-21T11:25:11.663Z</time></trkpt><trkpt lat="44.5083117" lon="9.177325"><ele>839.0</ele><time>2026-04-21T11:25:12.664Z</time></trkpt><trkpt lat="44.508385" lon="9.177455"><ele>839.0</ele><time>2026-04-21T11:25:13.663Z</time></trkpt><trkpt lat="44.50845" lon="9.1775817"><ele>839.0</ele><time>2026-04-21T11:25:14.664Z</time></trkpt><trkpt lat="44.5085017" lon="9.1777183"><ele>839.0</ele><time>2026-04-21T11:25:15.663Z</time></trkpt><trkpt lat="44.5085483" lon="9.1778383"><ele>839.0</ele><time>2026-04-21T11:25:16.663Z</time></trkpt><trkpt lat="44.5085933" lon="9.177965"><ele>839.0</ele><time>2026-04-21T11:25:17.663Z</time></trkpt><trkpt lat="44.5086483" lon="9.17807"><ele>839.0000000000001</ele><time>2026-04-21T11:25:18.663Z</time></trkpt><trkpt lat="44.50872" lon="9.1781733"><ele>839.0</ele><time>2026-04-21T11:25:19.663Z</time></trkpt><trkpt lat="44.5087883" lon="9.1782817"><ele>839.0</ele><time>2026-04-21T11:25:20.664Z</time></trkpt><trkpt lat="44.50884" lon="9.1783883"><ele>839.0</ele><time>2026-04-21T11:25:21.663Z</time></trkpt><trkpt lat="44.5088733" lon="9.1784667"><ele>839.0000000000001</ele><time>2026-04-21T11:25:22.663Z</time></trkpt><trkpt lat="44.5088733" lon="9.1785567"><ele>839.0</ele><time>2026-04-21T11:25:24.664Z</time></trkpt><trkpt lat="44.50878" lon="9.1785233"><ele>839.0</ele><time>2026-04-21T11:25:27.663Z</time></trkpt><trkpt lat="44.508685" lon="9.1784033"><ele>839.0</ele><time>2026-04-21T11:25:29.664Z</time></trkpt><trkpt lat="44.5085933" lon="9.1782883"><ele>839.0</ele><time>2026-04-21T11:25:30.664Z</time></trkpt><trkpt lat="44.508475" lon="9.1781517"><ele>839.0</ele><time>2026-04-21T11:25:31.664Z</time></trkpt><trkpt lat="44.50834" lon="9.178005"><ele>839.0</ele><time>2026-04-21T11:25:32.664Z</time></trkpt><trkpt lat="44.5082133" lon="9.1778367"><ele>839.0</ele><time>2026-04-21T11:25:33.663Z</time></trkpt><trkpt lat="44.5080883" lon="9.1777083"><ele>839.0</ele><time>2026-04-21T11:25:34.663Z</time></trkpt><trkpt lat="44.5079767" lon="9.1776233"><ele>843.4000000000001</ele><time>2026-04-21T11:25:35.663Z</time></trkpt><trkpt lat="44.507875" lon="9.1775867"><ele>847.8</ele><time>2026-04-21T11:25:36.663Z</time></trkpt><trkpt lat="44.5077783" lon="9.177575"><ele>852.1999999999999</ele><time>2026-04-21T11:25:37.663Z</time></trkpt><trkpt lat="44.50767" lon="9.1775917"><ele>856.5999999999999</ele><time>2026-04-21T11:25:38.664Z</time></trkpt><trkpt lat="44.50755" lon="9.1776"><ele>861.0</ele><time>2026-04-21T11:25:39.664Z</time></trkpt><trkpt lat="44.50742" lon="9.17758"><ele>861.0</ele><time>2026-04-21T11:25:40.663Z</time></trkpt><trkpt lat="44.5072983" lon="9.1775567"><ele>860.9999999999999</ele><time>2026-04-21T11:25:41.664Z</time></trkpt><trkpt lat="44.507175" lon="9.17752"><ele>860.9999999999999</ele><time>2026-04-21T11:25:42.664Z</time></trkpt><trkpt lat="44.5070783" lon="9.1774967"><ele>861.0</ele><time>2026-04-21T11:25:43.663Z</time></trkpt><trkpt lat="44.5070017" lon="9.1775133"><ele>861.0</ele><time>2026-04-21T11:25:44.663Z</time></trkpt><trkpt lat="44.50692" lon="9.177545"><ele>863.4</ele><time>2026-04-21T11:25:45.663Z</time></trkpt><trkpt lat="44.5068283" lon="9.1775717"><ele>865.8</ele><time>2026-04-21T11:25:46.664Z</time></trkpt><trkpt lat="44.506745" lon="9.1775667"><ele>868.1999999999999</ele><time>2026-04-21T11:25:47.664Z</time></trkpt><trkpt lat="44.5066567" lon="9.1775083"><ele>870.5999999999999</ele><time>2026-04-21T11:25:48.664Z</time></trkpt><trkpt lat="44.50657" lon="9.1774017"><ele>873.0</ele><time>2026-04-21T11:25:49.664Z</time></trkpt><trkpt lat="44.506485" lon="9.177285"><ele>869.8333333333334</ele><time>2026-04-21T11:25:50.664Z</time></trkpt><trkpt lat="44.5064067" lon="9.1772033"><ele>866.6666666666667</ele><time>2026-04-21T11:25:51.664Z</time></trkpt><trkpt lat="44.5063333" lon="9.1771633"><ele>863.5</ele><time>2026-04-21T11:25:52.664Z</time></trkpt><trkpt lat="44.506265" lon="9.177155"><ele>860.3333333333334</ele><time>2026-04-21T11:25:53.664Z</time></trkpt><trkpt lat="44.5061867" lon="9.177175"><ele>857.1666666666667</ele><time>2026-04-21T11:25:54.664Z</time></trkpt><trkpt lat="44.5060883" lon="9.1772167"><ele>854.0</ele><time>2026-04-21T11:25:55.663Z</time></trkpt><trkpt lat="44.5059833" lon="9.1772433"><ele>854.0</ele><time>2026-04-21T11:25:56.664Z</time></trkpt><trkpt lat="44.5058783" lon="9.177285"><ele>854.0000000000001</ele><time>2026-04-21T11:25:57.664Z</time></trkpt><trkpt lat="44.5057883" lon="9.177335"><ele>854.0000000000001</ele><time>2026-04-21T11:25:58.663Z</time></trkpt><trkpt lat="44.5057133" lon="9.1774033"><ele>854.0</ele><time>2026-04-21T11:25:59.663Z</time></trkpt><trkpt lat="44.5056567" lon="9.1774883"><ele>854.0</ele><time>2026-04-21T11:26:00.664Z</time></trkpt><trkpt lat="44.5056117" lon="9.1776017"><ele>858.2</ele><time>2026-04-21T11:26:01.664Z</time></trkpt><trkpt lat="44.50559" lon="9.1777333"><ele>862.4000000000001</ele><time>2026-04-21T11:26:02.664Z</time></trkpt><trkpt lat="44.5055767" lon="9.17788"><ele>866.6</ele><time>2026-04-21T11:26:03.663Z</time></trkpt><trkpt lat="44.5055567" lon="9.1780033"><ele>870.8</ele><time>2026-04-21T11:26:04.664Z</time></trkpt><trkpt lat="44.5054683" lon="9.1780867"><ele>875.0</ele><time>2026-04-21T11:26:06.663Z</time></trkpt><trkpt lat="44.5053383" lon="9.178065"><ele>875.0</ele><time>2026-04-21T11:26:08.664Z</time></trkpt><trkpt lat="44.5052617" lon="9.17806"><ele>875.0</ele><time>2026-04-21T11:26:09.663Z</time></trkpt><trkpt lat="44.5051883" lon="9.17811"><ele>875.0</ele><time>2026-04-21T11:26:11.664Z</time></trkpt><trkpt lat="44.5053083" lon="9.1781933"><ele>875.0</ele><time>2026-04-21T11:26:14.664Z</time></trkpt><trkpt lat="44.505415" lon="9.17822"><ele>875.0</ele><time>2026-04-21T11:26:15.664Z</time></trkpt><trkpt lat="44.5055233" lon="9.1782383"><ele>875.3333333333334</ele><time>2026-04-21T11:26:16.663Z</time></trkpt><trkpt lat="44.5056117" lon="9.1782417"><ele>875.6666666666667</ele><time>2026-04-21T11:26:17.664Z</time></trkpt><trkpt lat="44.5056783" lon="9.1782217"><ele>876.0</ele><time>2026-04-21T11:26:18.663Z</time></trkpt><trkpt lat="44.5057333" lon="9.1781617"><ele>876.3333333333333</ele><time>2026-04-21T11:26:19.663Z</time></trkpt><trkpt lat="44.5057933" lon="9.17806"><ele>876.6666666666666</ele><time>2026-04-21T11:26:20.664Z</time></trkpt><trkpt lat="44.50586" lon="9.17793"><ele>877.0</ele><time>2026-04-21T11:26:21.663Z</time></trkpt><trkpt lat="44.50593" lon="9.1778333"><ele>877.0</ele><time>2026-04-21T11:26:22.664Z</time></trkpt><trkpt lat="44.5060167" lon="9.1777617"><ele>877.0</ele><time>2026-04-21T11:26:23.664Z</time></trkpt><trkpt lat="44.5061167" lon="9.17771"><ele>877.0</ele><time>2026-04-21T11:26:24.664Z</time></trkpt><trkpt lat="44.5062067" lon="9.1777033"><ele>877.0</ele><time>2026-04-21T11:26:25.664Z</time></trkpt><trkpt lat="44.50629" lon="9.1777617"><ele>877.0</ele><time>2026-04-21T11:26:27.664Z</time></trkpt><trkpt lat="44.5062183" lon="9.1778417"><ele>876.9999999999999</ele><time>2026-04-21T11:26:29.664Z</time></trkpt><trkpt lat="44.5061517" lon="9.17787"><ele>877.0</ele><time>2026-04-21T11:26:30.663Z</time></trkpt><trkpt lat="44.5060783" lon="9.1779133"><ele>877.0</ele><time>2026-04-21T11:26:31.663Z</time></trkpt><trkpt lat="44.5060083" lon="9.1779833"><ele>877.0</ele><time>2026-04-21T11:26:32.664Z</time></trkpt><trkpt lat="44.5059483" lon="9.178055"><ele>876.9999999999999</ele><time>2026-04-21T11:26:33.663Z</time></trkpt><trkpt lat="44.5058917" lon="9.1781633"><ele>877.0</ele><time>2026-04-21T11:26:34.664Z</time></trkpt><trkpt lat="44.5058383" lon="9.1782867"><ele>882.8</ele><time>2026-04-21T11:26:35.663Z</time></trkpt><trkpt lat="44.5058067" lon="9.1784083"><ele>888.6</ele><time>2026-04-21T11:26:36.663Z</time></trkpt><trkpt lat="44.5057633" lon="9.178515"><ele>894.3999999999999</ele><time>2026-04-21T11:26:37.663Z</time></trkpt><trkpt lat="44.5057083" lon="9.1786133"><ele>900.1999999999999</ele><time>2026-04-21T11:26:38.663Z</time></trkpt><trkpt lat="44.5056317" lon="9.1786933"><ele>906.0</ele><time>2026-04-21T11:26:39.664Z</time></trkpt><trkpt lat="44.5055483" lon="9.17873"><ele>906.0</ele><time>2026-04-21T11:26:40.663Z</time></trkpt><trkpt lat="44.5054617" lon="9.1787433"><ele>906.0</ele><time>2026-04-21T11:26:41.663Z</time></trkpt><trkpt lat="44.5053867" lon="9.1787333"><ele>906.0</ele><time>2026-04-21T11:26:42.664Z</time></trkpt><trkpt lat="44.505305" lon="9.1787383"><ele>906.0</ele><time>2026-04-21T11:26:43.663Z</time></trkpt><trkpt lat="44.5052233" lon="9.17876"><ele>906.0</ele><time>2026-04-21T11:26:44.663Z</time></trkpt><trkpt lat="44.5051483" lon="9.1788033"><ele>906.0</ele><time>2026-04-21T11:26:45.663Z</time></trkpt><trkpt lat="44.5050733" lon="9.178865"><ele>903.0</ele><time>2026-04-21T11:26:46.663Z</time></trkpt><trkpt lat="44.505005" lon="9.178965"><ele>899.9999999999999</ele><time>2026-04-21T11:26:47.663Z</time></trkpt><trkpt lat="44.5049467" lon="9.1790767"><ele>896.9999999999999</ele><time>2026-04-21T11:26:48.663Z</time></trkpt><trkpt lat="44.5048983" lon="9.1792"><ele>894.0</ele><time>2026-04-21T11:26:49.664Z</time></trkpt><trkpt lat="44.5048567" lon="9.17931"><ele>891.0</ele><time>2026-04-21T11:26:50.664Z</time></trkpt><trkpt lat="44.5048183" lon="9.1794"><ele>894.5999999999999</ele><time>2026-04-21T11:26:51.664Z</time></trkpt><trkpt lat="44.5047133" lon="9.1795017"><ele>898.1999999999999</ele><time>2026-04-21T11:26:53.663Z</time></trkpt><trkpt lat="44.5046517" lon="9.1795333"><ele>901.8000000000001</ele><time>2026-04-21T11:26:54.663Z</time></trkpt><trkpt lat="44.5045567" lon="9.17965"><ele>905.4000000000001</ele><time>2026-04-21T11:26:56.664Z</time></trkpt><trkpt lat="44.5045133" lon="9.17974"><ele>909.0</ele><time>2026-04-21T11:26:57.664Z</time></trkpt><trkpt lat="44.504465" lon="9.1798267"><ele>909.0</ele><time>2026-04-21T11:26:58.664Z</time></trkpt><trkpt lat="44.5044017" lon="9.1798833"><ele>909.0</ele><time>2026-04-21T11:26:59.664Z</time></trkpt><trkpt lat="44.5042717" lon="9.17989"><ele>909.0</ele><time>2026-04-21T11:27:01.663Z</time></trkpt><trkpt lat="44.5041967" lon="9.179865"><ele>909.0</ele><time>2026-04-21T11:27:02.663Z</time></trkpt><trkpt lat="44.50412" lon="9.179845"><ele>909.0</ele><time>2026-04-21T11:27:03.663Z</time></trkpt><trkpt lat="44.5040467" lon="9.1798483"><ele>909.0</ele><time>2026-04-21T11:27:04.664Z</time></trkpt><trkpt lat="44.5039817" lon="9.1798883"><ele>913.6</ele><time>2026-04-21T11:27:05.664Z</time></trkpt><trkpt lat="44.5039233" lon="9.1799533"><ele>918.2</ele><time>2026-04-21T11:27:06.663Z</time></trkpt><trkpt lat="44.5038483" lon="9.18001"><ele>922.8000000000001</ele><time>2026-04-21T11:27:07.664Z</time></trkpt><trkpt lat="44.50376" lon="9.1800717"><ele>927.4000000000001</ele><time>2026-04-21T11:27:08.664Z</time></trkpt><trkpt lat="44.503665" lon="9.18013"><ele>932.0</ele><time>2026-04-21T11:27:09.663Z</time></trkpt><trkpt lat="44.5035567" lon="9.1801667"><ele>933.0000000000001</ele><time>2026-04-21T11:27:10.663Z</time></trkpt><trkpt lat="44.5034767" lon="9.1801717"><ele>934.0</ele><time>2026-04-21T11:27:11.664Z</time></trkpt><trkpt lat="44.5034083" lon="9.1801683"><ele>935.0</ele><time>2026-04-21T11:27:12.663Z</time></trkpt><trkpt lat="44.50335" lon="9.1801117"><ele>936.0</ele><time>2026-04-21T11:27:13.663Z</time></trkpt><trkpt lat="44.5033" lon="9.1800117"><ele>937.0000000000001</ele><time>2026-04-21T11:27:14.663Z</time></trkpt><trkpt lat="44.5032683" lon="9.1798783"><ele>938.0</ele><time>2026-04-21T11:27:15.663Z</time></trkpt><trkpt lat="44.5032317" lon="9.179735"><ele>938.0</ele><time>2026-04-21T11:27:16.664Z</time></trkpt><trkpt lat="44.5032217" lon="9.179585"><ele>938.0</ele><time>2026-04-21T11:27:17.664Z</time></trkpt><trkpt lat="44.503245" lon="9.1794533"><ele>938.0</ele><time>2026-04-21T11:27:18.663Z</time></trkpt><trkpt lat="44.5032967" lon="9.17932"><ele>938.0</ele><time>2026-04-21T11:27:19.663Z</time></trkpt><trkpt lat="44.503345" lon="9.1791783"><ele>938.0</ele><time>2026-04-21T11:27:20.663Z</time></trkpt><trkpt lat="44.5033683" lon="9.1790383"><ele>939.0</ele><time>2026-04-21T11:27:21.663Z</time></trkpt><trkpt lat="44.5033567" lon="9.178895"><ele>940.0</ele><time>2026-04-21T11:27:22.664Z</time></trkpt><trkpt lat="44.5033483" lon="9.1787533"><ele>941.0</ele><time>2026-04-21T11:27:23.663Z</time></trkpt><trkpt lat="44.5033417" lon="9.1786267"><ele>942.0</ele><time>2026-04-21T11:27:24.663Z</time></trkpt><trkpt lat="44.5033467" lon="9.1785133"><ele>943.0</ele><time>2026-04-21T11:27:25.664Z</time></trkpt><trkpt lat="44.503355" lon="9.1783783"><ele>943.0</ele><time>2026-04-21T11:27:26.664Z</time></trkpt><trkpt lat="44.5033767" lon="9.1782133"><ele>943.0</ele><time>2026-04-21T11:27:27.663Z</time></trkpt><trkpt lat="44.503395" lon="9.1780433"><ele>943.0</ele><time>2026-04-21T11:27:28.664Z</time></trkpt><trkpt lat="44.5034" lon="9.177885"><ele>943.0</ele><time>2026-04-21T11:27:29.663Z</time></trkpt><trkpt lat="44.5034067" lon="9.177765"><ele>943.0</ele><time>2026-04-21T11:27:30.663Z</time></trkpt><trkpt lat="44.5034017" lon="9.1776717"><ele>942.4</ele><time>2026-04-21T11:27:31.663Z</time></trkpt><trkpt lat="44.5033617" lon="9.1775633"><ele>941.8</ele><time>2026-04-21T11:27:33.664Z</time></trkpt><trkpt lat="44.5033017" lon="9.1775267"><ele>941.2</ele><time>2026-04-21T11:27:34.664Z</time></trkpt><trkpt lat="44.50322" lon="9.1774967"><ele>940.6</ele><time>2026-04-21T11:27:35.664Z</time></trkpt><trkpt lat="44.5031167" lon="9.17746"><ele>940.0</ele><time>2026-04-21T11:27:36.663Z</time></trkpt><trkpt lat="44.5029983" lon="9.1774317"><ele>940.8333333333333</ele><time>2026-04-21T11:27:37.664Z</time></trkpt><trkpt lat="44.5028833" lon="9.1773917"><ele>941.6666666666666</ele><time>2026-04-21T11:27:38.664Z</time></trkpt><trkpt lat="44.5027933" lon="9.1773617"><ele>942.5</ele><time>2026-04-21T11:27:39.663Z</time></trkpt><trkpt lat="44.50273" lon="9.1773667"><ele>943.3333333333333</ele><time>2026-04-21T11:27:40.664Z</time></trkpt><trkpt lat="44.5026667" lon="9.1773767"><ele>944.1666666666666</ele><time>2026-04-21T11:27:41.663Z</time></trkpt><trkpt lat="44.5026067" lon="9.17742"><ele>945.0</ele><time>2026-04-21T11:27:42.663Z</time></trkpt><trkpt lat="44.5025567" lon="9.1775083"><ele>945.0</ele><time>2026-04-21T11:27:43.663Z</time></trkpt><trkpt lat="44.502505" lon="9.1776183"><ele>945.0</ele><time>2026-04-21T11:27:44.663Z</time></trkpt><trkpt lat="44.5024533" lon="9.17775"><ele>945.0</ele><time>2026-04-21T11:27:45.663Z</time></trkpt><trkpt lat="44.5023983" lon="9.1778917"><ele>945.0</ele><time>2026-04-21T11:27:46.663Z</time></trkpt><trkpt lat="44.5023383" lon="9.1779917"><ele>945.0</ele><time>2026-04-21T11:27:47.663Z</time></trkpt><trkpt lat="44.502255" lon="9.1780683"><ele>945.0</ele><time>2026-04-21T11:27:48.664Z</time></trkpt><trkpt lat="44.5021483" lon="9.1781133"><ele>945.0</ele><time>2026-04-21T11:27:49.663Z</time></trkpt><trkpt lat="44.5020283" lon="9.17815"><ele>945.0</ele><time>2026-04-21T11:27:50.664Z</time></trkpt><trkpt lat="44.5019183" lon="9.1782067"><ele>945.0</ele><time>2026-04-21T11:27:51.664Z</time></trkpt><trkpt lat="44.5018183" lon="9.178265"><ele>950.25</ele><time>2026-04-21T11:27:52.663Z</time></trkpt><trkpt lat="44.5017133" lon="9.1783433"><ele>955.5</ele><time>2026-04-21T11:27:53.664Z</time></trkpt><trkpt lat="44.5016017" lon="9.1784317"><ele>960.75</ele><time>2026-04-21T11:27:54.663Z</time></trkpt><trkpt lat="44.5014917" lon="9.1785083"><ele>966.0</ele><time>2026-04-21T11:27:55.664Z</time></trkpt><trkpt lat="44.5013867" lon="9.1785633"><ele>966.0</ele><time>2026-04-21T11:27:56.664Z</time></trkpt><trkpt lat="44.5012883" lon="9.1786"><ele>966.0</ele><time>2026-04-21T11:27:57.664Z</time></trkpt><trkpt lat="44.5012033" lon="9.1786183"><ele>966.0</ele><time>2026-04-21T11:27:58.664Z</time></trkpt><trkpt lat="44.5011217" lon="9.17859"><ele>966.0</ele><time>2026-04-21T11:27:59.664Z</time></trkpt><trkpt lat="44.5010467" lon="9.17854"><ele>966.0</ele><time>2026-04-21T11:28:00.664Z</time></trkpt><trkpt lat="44.5009917" lon="9.1784467"><ele>966.0</ele><time>2026-04-21T11:28:01.664Z</time></trkpt><trkpt lat="44.500935" lon="9.1783633"><ele>966.6666666666666</ele><time>2026-04-21T11:28:02.663Z</time></trkpt><trkpt lat="44.5008733" lon="9.178305"><ele>967.3333333333333</ele><time>2026-04-21T11:28:03.663Z</time></trkpt><trkpt lat="44.5008017" lon="9.17827"><ele>968.0</ele><time>2026-04-21T11:28:04.664Z</time></trkpt><trkpt lat="44.5007267" lon="9.1782483"><ele>968.6666666666666</ele><time>2026-04-21T11:28:05.664Z</time></trkpt><trkpt lat="44.5006467" lon="9.1782617"><ele>969.3333333333333</ele><time>2026-04-21T11:28:06.663Z</time></trkpt><trkpt lat="44.5005683" lon="9.1783083"><ele>970.0</ele><time>2026-04-21T11:28:07.663Z</time></trkpt><trkpt lat="44.500485" lon="9.1783567"><ele>970.0000000000001</ele><time>2026-04-21T11:28:08.663Z</time></trkpt><trkpt lat="44.5004217" lon="9.1783617"><ele>970.0</ele><time>2026-04-21T11:28:09.664Z</time></trkpt><trkpt lat="44.50035" lon="9.1783617"><ele>970.0000000000001</ele><time>2026-04-21T11:28:10.663Z</time></trkpt><trkpt lat="44.5002817" lon="9.1783583"><ele>970.0000000000001</ele><time>2026-04-21T11:28:11.663Z</time></trkpt><trkpt lat="44.500215" lon="9.1783667"><ele>970.0</ele><time>2026-04-21T11:28:12.664Z</time></trkpt><trkpt lat="44.5001517" lon="9.1783967"><ele>970.0000000000001</ele><time>2026-04-21T11:28:13.664Z</time></trkpt><trkpt lat="44.500095" lon="9.17845"><ele>970.0000000000001</ele><time>2026-04-21T11:28:14.663Z</time></trkpt><trkpt lat="44.50004" lon="9.17853"><ele>968.8333333333333</ele><time>2026-04-21T11:28:15.663Z</time></trkpt><trkpt lat="44.4999983" lon="9.17863"><ele>967.6666666666666</ele><time>2026-04-21T11:28:16.664Z</time></trkpt><trkpt lat="44.4999733" lon="9.1787467"><ele>966.5</ele><time>2026-04-21T11:28:17.664Z</time></trkpt><trkpt lat="44.4999567" lon="9.1788683"><ele>965.3333333333333</ele><time>2026-04-21T11:28:18.663Z</time></trkpt><trkpt lat="44.4999533" lon="9.1789983"><ele>964.1666666666666</ele><time>2026-04-21T11:28:19.663Z</time></trkpt><trkpt lat="44.4999333" lon="9.1791183"><ele>963.0</ele><time>2026-04-21T11:28:20.663Z</time></trkpt><trkpt lat="44.4998967" lon="9.17924"><ele>965.0</ele><time>2026-04-21T11:28:21.664Z</time></trkpt><trkpt lat="44.49984" lon="9.179345"><ele>967.0</ele><time>2026-04-21T11:28:22.663Z</time></trkpt><trkpt lat="44.49976" lon="9.1794367"><ele>969.0</ele><time>2026-04-21T11:28:23.663Z</time></trkpt><trkpt lat="44.4996683" lon="9.1795067"><ele>971.0</ele><time>2026-04-21T11:28:24.663Z</time></trkpt><trkpt lat="44.4995917" lon="9.1795467"><ele>973.0</ele><time>2026-04-21T11:28:25.664Z</time></trkpt><trkpt lat="44.4994833" lon="9.1795633"><ele>973.0</ele><time>2026-04-21T11:28:26.664Z</time></trkpt><trkpt lat="44.4993667" lon="9.179585"><ele>973.0</ele><time>2026-04-21T11:28:27.664Z</time></trkpt><trkpt lat="44.499255" lon="9.1796317"><ele>973.0</ele><time>2026-04-21T11:28:28.663Z</time></trkpt><trkpt lat="44.49915" lon="9.1796967"><ele>973.0</ele><time>2026-04-21T11:28:29.663Z</time></trkpt><trkpt lat="44.499055" lon="9.1797433"><ele>973.0</ele><time>2026-04-21T11:28:30.664Z</time></trkpt><trkpt lat="44.4989583" lon="9.1797567"><ele>973.0</ele><time>2026-04-21T11:28:31.664Z</time></trkpt><trkpt lat="44.498855" lon="9.1797367"><ele>973.0</ele><time>2026-04-21T11:28:32.664Z</time></trkpt><trkpt lat="44.4987417" lon="9.17971"><ele>973.0</ele><time>2026-04-21T11:28:33.663Z</time></trkpt><trkpt lat="44.498625" lon="9.179725"><ele>973.0</ele><time>2026-04-21T11:28:34.663Z</time></trkpt><trkpt lat="44.4985117" lon="9.1797467"><ele>975.8333333333333</ele><time>2026-04-21T11:28:35.663Z</time></trkpt><trkpt lat="44.4984183" lon="9.1797383"><ele>978.6666666666666</ele><time>2026-04-21T11:28:36.664Z</time></trkpt><trkpt lat="44.498345" lon="9.1797083"><ele>981.5</ele><time>2026-04-21T11:28:37.664Z</time></trkpt><trkpt lat="44.4982833" lon="9.17965"><ele>984.3333333333333</ele><time>2026-04-21T11:28:38.664Z</time></trkpt><trkpt lat="44.4982283" lon="9.17957"><ele>987.1666666666666</ele><time>2026-04-21T11:28:39.664Z</time></trkpt><trkpt lat="44.4981733" lon="9.1794567"><ele>990.0</ele><time>2026-04-21T11:28:40.664Z</time></trkpt><trkpt lat="44.4981267" lon="9.1793117"><ele>990.0</ele><time>2026-04-21T11:28:41.663Z</time></trkpt><trkpt lat="44.4981017" lon="9.17914"><ele>990.0</ele><time>2026-04-21T11:28:42.663Z</time></trkpt><trkpt lat="44.4980817" lon="9.1789933"><ele>990.0</ele><time>2026-04-21T11:28:43.664Z</time></trkpt><trkpt lat="44.4980583" lon="9.178865"><ele>990.0</ele><time>2026-04-21T11:28:44.663Z</time></trkpt><trkpt lat="44.4980233" lon="9.1787433"><ele>990.0</ele><time>2026-04-21T11:28:45.663Z</time></trkpt><trkpt lat="44.4979733" lon="9.1786367"><ele>991.75</ele><time>2026-04-21T11:28:46.663Z</time></trkpt><trkpt lat="44.4978983" lon="9.1785367"><ele>993.5</ele><time>2026-04-21T11:28:47.664Z</time></trkpt><trkpt lat="44.4977917" lon="9.178445"><ele>995.25</ele><time>2026-04-21T11:28:48.664Z</time></trkpt><trkpt lat="44.4976617" lon="9.1783667"><ele>997.0</ele><time>2026-04-21T11:28:49.664Z</time></trkpt><trkpt lat="44.497555" lon="9.1782983"><ele>997.0</ele><time>2026-04-21T11:28:50.663Z</time></trkpt><trkpt lat="44.49746" lon="9.1782483"><ele>997.0</ele><time>2026-04-21T11:28:51.664Z</time></trkpt><trkpt lat="44.49738" lon="9.1782417"><ele>997.0</ele><time>2026-04-21T11:28:52.664Z</time></trkpt><trkpt lat="44.4972933" lon="9.178295"><ele>997.0</ele><time>2026-04-21T11:28:54.664Z</time></trkpt><trkpt lat="44.4973733" lon="9.1784083"><ele>997.0</ele><time>2026-04-21T11:28:57.664Z</time></trkpt><trkpt lat="44.49746" lon="9.1784583"><ele>997.0</ele><time>2026-04-21T11:28:58.664Z</time></trkpt><trkpt lat="44.497545" lon="9.1785267"><ele>997.0</ele><time>2026-04-21T11:28:59.664Z</time></trkpt><trkpt lat="44.497615" lon="9.1786383"><ele>997.0</ele><time>2026-04-21T11:29:00.664Z</time></trkpt><trkpt lat="44.4976717" lon="9.1788033"><ele>997.0</ele><time>2026-04-21T11:29:01.663Z</time></trkpt><trkpt lat="44.497715" lon="9.17899"><ele>1001.6</ele><time>2026-04-21T11:29:02.663Z</time></trkpt><trkpt lat="44.49777" lon="9.1791767"><ele>1006.2</ele><time>2026-04-21T11:29:03.663Z</time></trkpt><trkpt lat="44.497825" lon="9.179325"><ele>1010.8</ele><time>2026-04-21T11:29:04.663Z</time></trkpt><trkpt lat="44.4978617" lon="9.1794433"><ele>1015.4</ele><time>2026-04-21T11:29:05.663Z</time></trkpt><trkpt lat="44.4978833" lon="9.17953"><ele>1020.0</ele><time>2026-04-21T11:29:06.663Z</time></trkpt><trkpt lat="44.4978267" lon="9.1796083"><ele>1020.0</ele><time>2026-04-21T11:29:09.663Z</time></trkpt><trkpt lat="44.4977467" lon="9.1795667"><ele>1020.0</ele><time>2026-04-21T11:29:11.663Z</time></trkpt><trkpt lat="44.4976933" lon="9.1795017"><ele>1020.0</ele><time>2026-04-21T11:29:12.663Z</time></trkpt><trkpt lat="44.497635" lon="9.1793933"><ele>1020.0</ele><time>2026-04-21T11:29:13.664Z</time></trkpt><trkpt lat="44.4975683" lon="9.179275"><ele>1020.0</ele><time>2026-04-21T11:29:14.663Z</time></trkpt><trkpt lat="44.497495" lon="9.1791367"><ele>1020.0</ele><time>2026-04-21T11:29:15.664Z</time></trkpt><trkpt lat="44.49743" lon="9.17902"><ele>1020.0</ele><time>2026-04-21T11:29:16.664Z</time></trkpt><trkpt lat="44.497365" lon="9.17893"><ele>1020.0</ele><time>2026-04-21T11:29:17.663Z</time></trkpt><trkpt lat="44.4973017" lon="9.1788817"><ele>1020.0</ele><time>2026-04-21T11:29:18.663Z</time></trkpt><trkpt lat="44.4972267" lon="9.1788583"><ele>1020.0</ele><time>2026-04-21T11:29:19.663Z</time></trkpt><trkpt lat="44.497135" lon="9.1788783"><ele>1020.0</ele><time>2026-04-21T11:29:20.663Z</time></trkpt><trkpt lat="44.49702" lon="9.17892"><ele>1016.5</ele><time>2026-04-21T11:29:21.664Z</time></trkpt><trkpt lat="44.496885" lon="9.1789517"><ele>1013.0</ele><time>2026-04-21T11:29:22.664Z</time></trkpt><trkpt lat="44.4967517" lon="9.1789617"><ele>1009.5</ele><time>2026-04-21T11:29:23.663Z</time></trkpt><trkpt lat="44.4966317" lon="9.1789633"><ele>1006.0</ele><time>2026-04-21T11:29:24.663Z</time></trkpt><trkpt lat="44.4965183" lon="9.1789567"><ele>1006.0</ele><time>2026-04-21T11:29:25.664Z</time></trkpt><trkpt lat="44.496415" lon="9.1789433"><ele>1005.9999999999999</ele><time>2026-04-21T11:29:26.664Z</time></trkpt><trkpt lat="44.4963083" lon="9.1789533"><ele>1005.9999999999999</ele><time>2026-04-21T11:29:27.663Z</time></trkpt><trkpt lat="44.49621" lon="9.1789833"><ele>1006.0</ele><time>2026-04-21T11:29:28.664Z</time></trkpt><trkpt lat="44.4961217" lon="9.1790467"><ele>1006.0</ele><time>2026-04-21T11:29:29.664Z</time></trkpt><trkpt lat="44.496035" lon="9.1791033"><ele>1009.4</ele><time>2026-04-21T11:29:30.663Z</time></trkpt><trkpt lat="44.4959483" lon="9.1791283"><ele>1012.8</ele><time>2026-04-21T11:29:31.664Z</time></trkpt><trkpt lat="44.4958633" lon="9.179115"><ele>1016.1999999999999</ele><time>2026-04-21T11:29:32.664Z</time></trkpt><trkpt lat="44.4957783" lon="9.179075"><ele>1019.5999999999999</ele><time>2026-04-21T11:29:33.663Z</time></trkpt><trkpt lat="44.4957" lon="9.1789933"><ele>1023.0</ele><time>2026-04-21T11:29:34.663Z</time></trkpt><trkpt lat="44.4956317" lon="9.1789117"><ele>1023.0</ele><time>2026-04-21T11:29:35.663Z</time></trkpt><trkpt lat="44.495565" lon="9.1788367"><ele>1023.0</ele><time>2026-04-21T11:29:36.663Z</time></trkpt><trkpt lat="44.4955017" lon="9.1787783"><ele>1023.0</ele><time>2026-04-21T11:29:37.664Z</time></trkpt><trkpt lat="44.4953767" lon="9.1787367"><ele>1023.0</ele><time>2026-04-21T11:29:39.664Z</time></trkpt><trkpt lat="44.4952667" lon="9.17878"><ele>1023.0</ele><time>2026-04-21T11:29:41.663Z</time></trkpt><trkpt lat="44.4952417" lon="9.1789117"><ele>1019.2</ele><time>2026-04-21T11:29:43.664Z</time></trkpt><trkpt lat="44.4952467" lon="9.1790217"><ele>1015.4</ele><time>2026-04-21T11:29:44.664Z</time></trkpt><trkpt lat="44.4952633" lon="9.1791467"><ele>1011.6000000000001</ele><time>2026-04-21T11:29:45.664Z</time></trkpt><trkpt lat="44.4952933" lon="9.1793033"><ele>1007.8000000000001</ele><time>2026-04-21T11:29:46.664Z</time></trkpt><trkpt lat="44.4953267" lon="9.1794483"><ele>1004.0</ele><time>2026-04-21T11:29:47.663Z</time></trkpt><trkpt lat="44.4953533" lon="9.17959"><ele>1004.0</ele><time>2026-04-21T11:29:48.664Z</time></trkpt><trkpt lat="44.495365" lon="9.1797267"><ele>1004.0000000000001</ele><time>2026-04-21T11:29:49.664Z</time></trkpt><trkpt lat="44.4953633" lon="9.17985"><ele>1004.0000000000001</ele><time>2026-04-21T11:29:50.663Z</time></trkpt><trkpt lat="44.4953483" lon="9.1799883"><ele>1004.0</ele><time>2026-04-21T11:29:51.664Z</time></trkpt><trkpt lat="44.49531" lon="9.1801433"><ele>1004.0</ele><time>2026-04-21T11:29:52.664Z</time></trkpt><trkpt lat="44.495245" lon="9.1802917"><ele>1004.75</ele><time>2026-04-21T11:29:53.664Z</time></trkpt><trkpt lat="44.4951717" lon="9.1804467"><ele>1005.5</ele><time>2026-04-21T11:29:54.663Z</time></trkpt><trkpt lat="44.4950883" lon="9.1805917"><ele>1006.25</ele><time>2026-04-21T11:29:55.664Z</time></trkpt><trkpt lat="44.4950117" lon="9.1807167"><ele>1007.0</ele><time>2026-04-21T11:29:56.663Z</time></trkpt><trkpt lat="44.494935" lon="9.1808417"><ele>1011.25</ele><time>2026-04-21T11:29:57.663Z</time></trkpt><trkpt lat="44.4948517" lon="9.1809533"><ele>1015.5</ele><time>2026-04-21T11:29:58.664Z</time></trkpt><trkpt lat="44.4947817" lon="9.181085"><ele>1019.75</ele><time>2026-04-21T11:29:59.663Z</time></trkpt><trkpt lat="44.4947283" lon="9.1812383"><ele>1024.0</ele><time>2026-04-21T11:30:00.664Z</time></trkpt><trkpt lat="44.49468" lon="9.18141"><ele>1019.6</ele><time>2026-04-21T11:30:01.663Z</time></trkpt><trkpt lat="44.494635" lon="9.1815717"><ele>1015.2</ele><time>2026-04-21T11:30:02.664Z</time></trkpt><trkpt lat="44.494595" lon="9.1817033"><ele>1010.8000000000001</ele><time>2026-04-21T11:30:03.663Z</time></trkpt><trkpt lat="44.494535" lon="9.181795"><ele>1006.4000000000001</ele><time>2026-04-21T11:30:04.664Z</time></trkpt><trkpt lat="44.494455" lon="9.1818533"><ele>1002.0</ele><time>2026-04-21T11:30:05.663Z</time></trkpt><trkpt lat="44.4943633" lon="9.1818933"><ele>1002.0</ele><time>2026-04-21T11:30:06.663Z</time></trkpt><trkpt lat="44.494275" lon="9.1819367"><ele>1002.0</ele><time>2026-04-21T11:30:07.664Z</time></trkpt><trkpt lat="44.4941983" lon="9.1819967"><ele>1002.0</ele><time>2026-04-21T11:30:08.664Z</time></trkpt><trkpt lat="44.494145" lon="9.1820883"><ele>1002.0</ele><time>2026-04-21T11:30:09.663Z</time></trkpt><trkpt lat="44.494085" lon="9.18221"><ele>1002.0</ele><time>2026-04-21T11:30:10.664Z</time></trkpt><trkpt lat="44.494025" lon="9.1823183"><ele>999.25</ele><time>2026-04-21T11:30:11.664Z</time></trkpt><trkpt lat="44.49393" lon="9.18242"><ele>996.5</ele><time>2026-04-21T11:30:12.664Z</time></trkpt><trkpt lat="44.4938133" lon="9.182495"><ele>993.75</ele><time>2026-04-21T11:30:13.663Z</time></trkpt><trkpt lat="44.4937" lon="9.18256"><ele>991.0</ele><time>2026-04-21T11:30:14.663Z</time></trkpt><trkpt lat="44.4935967" lon="9.1826417"><ele>991.0</ele><time>2026-04-21T11:30:15.663Z</time></trkpt><trkpt lat="44.493495" lon="9.1827483"><ele>991.0</ele><time>2026-04-21T11:30:16.663Z</time></trkpt><trkpt lat="44.4933917" lon="9.1828717"><ele>991.0</ele><time>2026-04-21T11:30:17.663Z</time></trkpt><trkpt lat="44.4932917" lon="9.1830033"><ele>991.0</ele><time>2026-04-21T11:30:18.663Z</time></trkpt><trkpt lat="44.4931917" lon="9.18313"><ele>990.25</ele><time>2026-04-21T11:30:19.664Z</time></trkpt><trkpt lat="44.4930933" lon="9.1832483"><ele>989.5</ele><time>2026-04-21T11:30:20.664Z</time></trkpt><trkpt lat="44.4929917" lon="9.1833567"><ele>988.75</ele><time>2026-04-21T11:30:21.664Z</time></trkpt><trkpt lat="44.4928833" lon="9.18345"><ele>988.0</ele><time>2026-04-21T11:30:22.663Z</time></trkpt><trkpt lat="44.4927717" lon="9.1835283"><ele>988.0</ele><time>2026-04-21T11:30:23.664Z</time></trkpt><trkpt lat="44.4926583" lon="9.183595"><ele>988.0</ele><time>2026-04-21T11:30:24.664Z</time></trkpt><trkpt lat="44.492545" lon="9.1836583"><ele>988.0</ele><time>2026-04-21T11:30:25.663Z</time></trkpt><trkpt lat="44.4924333" lon="9.1837283"><ele>988.0</ele><time>2026-04-21T11:30:26.663Z</time></trkpt><trkpt lat="44.4923367" lon="9.183795"><ele>988.0</ele><time>2026-04-21T11:30:27.663Z</time></trkpt><trkpt lat="44.492225" lon="9.1838283"><ele>988.0</ele><time>2026-04-21T11:30:28.664Z</time></trkpt><trkpt lat="44.49215" lon="9.183805"><ele>988.0</ele><time>2026-04-21T11:30:29.663Z</time></trkpt><trkpt lat="44.492045" lon="9.1837633"><ele>988.0</ele><time>2026-04-21T11:30:30.664Z</time></trkpt><trkpt lat="44.491945" lon="9.1836767"><ele>988.0</ele><time>2026-04-21T11:30:31.664Z</time></trkpt><trkpt lat="44.4918517" lon="9.1835883"><ele>987.75</ele><time>2026-04-21T11:30:32.664Z</time></trkpt><trkpt lat="44.491735" lon="9.1835083"><ele>987.5</ele><time>2026-04-21T11:30:33.663Z</time></trkpt><trkpt lat="44.491585" lon="9.1834383"><ele>987.25</ele><time>2026-04-21T11:30:34.664Z</time></trkpt><trkpt lat="44.4914417" lon="9.1833483"><ele>987.0</ele><time>2026-04-21T11:30:35.664Z</time></trkpt><trkpt lat="44.4912917" lon="9.1832667"><ele>980.25</ele><time>2026-04-21T11:30:36.663Z</time></trkpt><trkpt lat="44.491155" lon="9.1831783"><ele>973.5</ele><time>2026-04-21T11:30:37.663Z</time></trkpt><trkpt lat="44.4910283" lon="9.1830917"><ele>966.75</ele><time>2026-04-21T11:30:38.664Z</time></trkpt><trkpt lat="44.4909383" lon="9.18304"><ele>960.0</ele><time>2026-04-21T11:30:39.664Z</time></trkpt><trkpt lat="44.490855" lon="9.1830217"><ele>960.0</ele><time>2026-04-21T11:30:40.663Z</time></trkpt><trkpt lat="44.49078" lon="9.18303"><ele>960.0</ele><time>2026-04-21T11:30:41.664Z</time></trkpt><trkpt lat="44.490715" lon="9.1830583"><ele>960.0</ele><time>2026-04-21T11:30:42.663Z</time></trkpt><trkpt lat="44.490655" lon="9.183205"><ele>960.0</ele><time>2026-04-21T11:30:44.663Z</time></trkpt><trkpt lat="44.4906633" lon="9.183315"><ele>960.0</ele><time>2026-04-21T11:30:45.663Z</time></trkpt><trkpt lat="44.4906983" lon="9.183475"><ele>964.0</ele><time>2026-04-21T11:30:46.663Z</time></trkpt><trkpt lat="44.4907567" lon="9.1836767"><ele>968.0</ele><time>2026-04-21T11:30:47.664Z</time></trkpt><trkpt lat="44.4907967" lon="9.1838833"><ele>972.0</ele><time>2026-04-21T11:30:48.663Z</time></trkpt><trkpt lat="44.4908167" lon="9.1840767"><ele>976.0</ele><time>2026-04-21T11:30:49.663Z</time></trkpt><trkpt lat="44.49081" lon="9.1842333"><ele>976.5999999999999</ele><time>2026-04-21T11:30:50.663Z</time></trkpt><trkpt lat="44.4907767" lon="9.184365"><ele>977.1999999999999</ele><time>2026-04-21T11:30:51.663Z</time></trkpt><trkpt lat="44.4907083" lon="9.1844867"><ele>977.8000000000001</ele><time>2026-04-21T11:30:52.663Z</time></trkpt><trkpt lat="44.4906383" lon="9.1846167"><ele>978.4000000000001</ele><time>2026-04-21T11:30:53.663Z</time></trkpt><trkpt lat="44.4905783" lon="9.1847667"><ele>979.0</ele><time>2026-04-21T11:30:54.664Z</time></trkpt><trkpt lat="44.4905217" lon="9.1849333"><ele>979.6</ele><time>2026-04-21T11:30:55.663Z</time></trkpt><trkpt lat="44.4904717" lon="9.1850967"><ele>980.2</ele><time>2026-04-21T11:30:56.663Z</time></trkpt><trkpt lat="44.4904167" lon="9.1852283"><ele>980.8000000000001</ele><time>2026-04-21T11:30:57.663Z</time></trkpt><trkpt lat="44.4903617" lon="9.18533"><ele>981.4000000000001</ele><time>2026-04-21T11:30:58.664Z</time></trkpt><trkpt lat="44.4903167" lon="9.1854133"><ele>982.0</ele><time>2026-04-21T11:30:59.663Z</time></trkpt><trkpt lat="44.4902917" lon="9.185505"><ele>980.4000000000001</ele><time>2026-04-21T11:31:00.663Z</time></trkpt><trkpt lat="44.4902883" lon="9.1856133"><ele>978.8000000000001</ele><time>2026-04-21T11:31:01.664Z</time></trkpt><trkpt lat="44.490315" lon="9.18576"><ele>977.2</ele><time>2026-04-21T11:31:02.664Z</time></trkpt><trkpt lat="44.4903767" lon="9.18593"><ele>975.6</ele><time>2026-04-21T11:31:03.664Z</time></trkpt><trkpt lat="44.4904267" lon="9.1860867"><ele>974.0</ele><time>2026-04-21T11:31:04.664Z</time></trkpt><trkpt lat="44.4904783" lon="9.186225"><ele>974.0</ele><time>2026-04-21T11:31:05.663Z</time></trkpt><trkpt lat="44.49055" lon="9.18634"><ele>974.0</ele><time>2026-04-21T11:31:06.664Z</time></trkpt><trkpt lat="44.4906383" lon="9.1864483"><ele>974.0</ele><time>2026-04-21T11:31:07.663Z</time></trkpt><trkpt lat="44.4907333" lon="9.1865667"><ele>974.0</ele><time>2026-04-21T11:31:08.663Z</time></trkpt><trkpt lat="44.4908183" lon="9.1866733"><ele>971.1428571428571</ele><time>2026-04-21T11:31:09.663Z</time></trkpt><trkpt lat="44.4908917" lon="9.18675"><ele>968.2857142857142</ele><time>2026-04-21T11:31:10.664Z</time></trkpt><trkpt lat="44.49096" lon="9.1867867"><ele>965.4285714285713</ele><time>2026-04-21T11:31:11.664Z</time></trkpt><trkpt lat="44.49103" lon="9.1867983"><ele>962.5714285714286</ele><time>2026-04-21T11:31:12.664Z</time></trkpt><trkpt lat="44.4911033" lon="9.18677"><ele>959.7142857142856</ele><time>2026-04-21T11:31:13.664Z</time></trkpt><trkpt lat="44.491165" lon="9.18675"><ele>956.8571428571428</ele><time>2026-04-21T11:31:14.663Z</time></trkpt><trkpt lat="44.4912233" lon="9.1867833"><ele>954.0</ele><time>2026-04-21T11:31:16.664Z</time></trkpt><trkpt lat="44.4911333" lon="9.186865"><ele>954.0</ele><time>2026-04-21T11:31:18.664Z</time></trkpt><trkpt lat="44.49103" lon="9.1869"><ele>954.0</ele><time>2026-04-21T11:31:19.663Z</time></trkpt><trkpt lat="44.4908983" lon="9.18689"><ele>954.0</ele><time>2026-04-21T11:31:20.664Z</time></trkpt><trkpt lat="44.4907667" lon="9.186835"><ele>954.0</ele><time>2026-04-21T11:31:21.664Z</time></trkpt><trkpt lat="44.490645" lon="9.186785"><ele>954.0</ele><time>2026-04-21T11:31:22.664Z</time></trkpt><trkpt lat="44.4905167" lon="9.18673"><ele>954.0</ele><time>2026-04-21T11:31:23.663Z</time></trkpt><trkpt lat="44.4903783" lon="9.1867"><ele>954.0</ele><time>2026-04-21T11:31:24.664Z</time></trkpt><trkpt lat="44.4902533" lon="9.186685"><ele>954.0</ele><time>2026-04-21T11:31:25.663Z</time></trkpt><trkpt lat="44.49015" lon="9.1866983"><ele>951.1666666666666</ele><time>2026-04-21T11:31:26.664Z</time></trkpt><trkpt lat="44.4900667" lon="9.1867383"><ele>948.3333333333333</ele><time>2026-04-21T11:31:27.663Z</time></trkpt><trkpt lat="44.49" lon="9.186795"><ele>945.5</ele><time>2026-04-21T11:31:28.663Z</time></trkpt><trkpt lat="44.489945" lon="9.1868767"><ele>942.6666666666666</ele><time>2026-04-21T11:31:29.663Z</time></trkpt><trkpt lat="44.4898967" lon="9.1869733"><ele>939.8333333333333</ele><time>2026-04-21T11:31:30.664Z</time></trkpt><trkpt lat="44.4898517" lon="9.1871033"><ele>937.0</ele><time>2026-04-21T11:31:31.664Z</time></trkpt><trkpt lat="44.489795" lon="9.187265"><ele>934.5</ele><time>2026-04-21T11:31:32.663Z</time></trkpt><trkpt lat="44.4897333" lon="9.1874267"><ele>932.0</ele><time>2026-04-21T11:31:33.664Z</time></trkpt><trkpt lat="44.489665" lon="9.1875867"><ele>929.5</ele><time>2026-04-21T11:31:34.664Z</time></trkpt><trkpt lat="44.489595" lon="9.1877383"><ele>927.0</ele><time>2026-04-21T11:31:35.663Z</time></trkpt><trkpt lat="44.4895267" lon="9.187885"><ele>924.6</ele><time>2026-04-21T11:31:36.664Z</time></trkpt><trkpt lat="44.4894633" lon="9.18803"><ele>922.2</ele><time>2026-04-21T11:31:37.663Z</time></trkpt><trkpt lat="44.4894017" lon="9.1881583"><ele>919.8</ele><time>2026-04-21T11:31:38.664Z</time></trkpt><trkpt lat="44.4893317" lon="9.1882617"><ele>917.4</ele><time>2026-04-21T11:31:39.663Z</time></trkpt><trkpt lat="44.4892633" lon="9.188345"><ele>915.0</ele><time>2026-04-21T11:31:40.663Z</time></trkpt><trkpt lat="44.4892017" lon="9.1884167"><ele>915.0</ele><time>2026-04-21T11:31:41.663Z</time></trkpt><trkpt lat="44.4891567" lon="9.1884933"><ele>915.0</ele><time>2026-04-21T11:31:42.664Z</time></trkpt><trkpt lat="44.4891317" lon="9.1885767"><ele>915.0</ele><time>2026-04-21T11:31:43.663Z</time></trkpt><trkpt lat="44.4891583" lon="9.1887983"><ele>915.0</ele><time>2026-04-21T11:31:45.664Z</time></trkpt><trkpt lat="44.4891967" lon="9.188965"><ele>915.0</ele><time>2026-04-21T11:31:46.663Z</time></trkpt><trkpt lat="44.489235" lon="9.189165"><ele>914.5</ele><time>2026-04-21T11:31:47.664Z</time></trkpt><trkpt lat="44.4892867" lon="9.189335"><ele>914.0</ele><time>2026-04-21T11:31:48.663Z</time></trkpt><trkpt lat="44.4893233" lon="9.1895133"><ele>913.5</ele><time>2026-04-21T11:31:49.664Z</time></trkpt><trkpt lat="44.4893517" lon="9.1897133"><ele>913.0</ele><time>2026-04-21T11:31:50.663Z</time></trkpt><trkpt lat="44.4893867" lon="9.1899"><ele>910.75</ele><time>2026-04-21T11:31:51.663Z</time></trkpt><trkpt lat="44.4894183" lon="9.1900817"><ele>908.5</ele><time>2026-04-21T11:31:52.664Z</time></trkpt><trkpt lat="44.48946" lon="9.1902583"><ele>906.25</ele><time>2026-04-21T11:31:53.664Z</time></trkpt><trkpt lat="44.4894867" lon="9.1904433"><ele>904.0</ele><time>2026-04-21T11:31:54.664Z</time></trkpt><trkpt lat="44.489505" lon="9.1906433"><ele>901.25</ele><time>2026-04-21T11:31:55.663Z</time></trkpt><trkpt lat="44.4895367" lon="9.1908333"><ele>898.5</ele><time>2026-04-21T11:31:56.664Z</time></trkpt><trkpt lat="44.4895417" lon="9.1910283"><ele>895.75</ele><time>2026-04-21T11:31:57.663Z</time></trkpt><trkpt lat="44.4895417" lon="9.1912233"><ele>893.0</ele><time>2026-04-21T11:31:58.664Z</time></trkpt><trkpt lat="44.4895367" lon="9.1913933"><ele>892.2</ele><time>2026-04-21T11:31:59.664Z</time></trkpt><trkpt lat="44.4895067" lon="9.1915467"><ele>891.4</ele><time>2026-04-21T11:32:00.664Z</time></trkpt><trkpt lat="44.48947" lon="9.19169"><ele>890.6000000000001</ele><time>2026-04-21T11:32:01.664Z</time></trkpt><trkpt lat="44.48944" lon="9.191825"><ele>889.8000000000001</ele><time>2026-04-21T11:32:02.664Z</time></trkpt><trkpt lat="44.4894167" lon="9.1919517"><ele>889.0</ele><time>2026-04-21T11:32:03.663Z</time></trkpt><trkpt lat="44.4894083" lon="9.192075"><ele>889.0</ele><time>2026-04-21T11:32:04.663Z</time></trkpt><trkpt lat="44.4894133" lon="9.1922117"><ele>889.0000000000001</ele><time>2026-04-21T11:32:05.663Z</time></trkpt><trkpt lat="44.4894183" lon="9.1923617"><ele>889.0000000000001</ele><time>2026-04-21T11:32:06.663Z</time></trkpt><trkpt lat="44.4894367" lon="9.1924967"><ele>889.0</ele><time>2026-04-21T11:32:07.663Z</time></trkpt><trkpt lat="44.4894383" lon="9.1926367"><ele>889.0</ele><time>2026-04-21T11:32:08.663Z</time></trkpt><trkpt lat="44.4894333" lon="9.1927567"><ele>890.25</ele><time>2026-04-21T11:32:09.664Z</time></trkpt><trkpt lat="44.489405" lon="9.192875"><ele>891.5</ele><time>2026-04-21T11:32:10.663Z</time></trkpt><trkpt lat="44.4893433" lon="9.1930167"><ele>892.75</ele><time>2026-04-21T11:32:11.664Z</time></trkpt><trkpt lat="44.4892517" lon="9.19317"><ele>894.0</ele><time>2026-04-21T11:32:12.664Z</time></trkpt><trkpt lat="44.4891467" lon="9.1933283"><ele>896.5</ele><time>2026-04-21T11:32:13.664Z</time></trkpt><trkpt lat="44.4890283" lon="9.1934767"><ele>899.0</ele><time>2026-04-21T11:32:14.663Z</time></trkpt><trkpt lat="44.4889117" lon="9.1936033"><ele>901.5</ele><time>2026-04-21T11:32:15.663Z</time></trkpt><trkpt lat="44.4888" lon="9.193725"><ele>904.0</ele><time>2026-04-21T11:32:16.664Z</time></trkpt><trkpt lat="44.488695" lon="9.19385"><ele>901.5</ele><time>2026-04-21T11:32:17.663Z</time></trkpt><trkpt lat="44.4885867" lon="9.193965"><ele>899.0</ele><time>2026-04-21T11:32:18.664Z</time></trkpt><trkpt lat="44.48847" lon="9.194055"><ele>896.5</ele><time>2026-04-21T11:32:19.663Z</time></trkpt><trkpt lat="44.4883567" lon="9.1941283"><ele>894.0</ele><time>2026-04-21T11:32:20.663Z</time></trkpt><trkpt lat="44.4882567" lon="9.1941967"><ele>894.0</ele><time>2026-04-21T11:32:21.664Z</time></trkpt><trkpt lat="44.4881667" lon="9.19425"><ele>894.0</ele><time>2026-04-21T11:32:22.663Z</time></trkpt><trkpt lat="44.4880633" lon="9.1942767"><ele>894.0</ele><time>2026-04-21T11:32:23.663Z</time></trkpt><trkpt lat="44.4879417" lon="9.1942667"><ele>894.0</ele><time>2026-04-21T11:32:24.664Z</time></trkpt><trkpt lat="44.4878183" lon="9.1942317"><ele>889.5</ele><time>2026-04-21T11:32:25.663Z</time></trkpt><trkpt lat="44.4876933" lon="9.1942017"><ele>885.0</ele><time>2026-04-21T11:32:26.663Z</time></trkpt><trkpt lat="44.4875717" lon="9.19418"><ele>880.5</ele><time>2026-04-21T11:32:27.663Z</time></trkpt><trkpt lat="44.487445" lon="9.1941833"><ele>876.0</ele><time>2026-04-21T11:32:28.663Z</time></trkpt><trkpt lat="44.487315" lon="9.1941933"><ele>876.0</ele><time>2026-04-21T11:32:29.663Z</time></trkpt><trkpt lat="44.487195" lon="9.1942117"><ele>875.9999999999999</ele><time>2026-04-21T11:32:30.664Z</time></trkpt><trkpt lat="44.48708" lon="9.19425"><ele>875.9999999999999</ele><time>2026-04-21T11:32:31.664Z</time></trkpt><trkpt lat="44.4869833" lon="9.194275"><ele>876.0</ele><time>2026-04-21T11:32:32.663Z</time></trkpt><trkpt lat="44.4869033" lon="9.19429"><ele>876.0</ele><time>2026-04-21T11:32:33.664Z</time></trkpt><trkpt lat="44.48681" lon="9.19439"><ele>872.1999999999999</ele><time>2026-04-21T11:32:35.663Z</time></trkpt><trkpt lat="44.48681" lon="9.194555"><ele>868.3999999999999</ele><time>2026-04-21T11:32:37.664Z</time></trkpt><trkpt lat="44.4868433" lon="9.1946783"><ele>864.6</ele><time>2026-04-21T11:32:38.664Z</time></trkpt><trkpt lat="44.48689" lon="9.1947983"><ele>860.8</ele><time>2026-04-21T11:32:39.663Z</time></trkpt><trkpt lat="44.4869483" lon="9.19491"><ele>857.0</ele><time>2026-04-21T11:32:40.663Z</time></trkpt><trkpt lat="44.487015" lon="9.1950083"><ele>856.0</ele><time>2026-04-21T11:32:41.663Z</time></trkpt><trkpt lat="44.4870917" lon="9.1950883"><ele>855.0</ele><time>2026-04-21T11:32:42.663Z</time></trkpt><trkpt lat="44.4871683" lon="9.195165"><ele>854.0</ele><time>2026-04-21T11:32:43.663Z</time></trkpt><trkpt lat="44.4872533" lon="9.1952283"><ele>853.0</ele><time>2026-04-21T11:32:44.663Z</time></trkpt><trkpt lat="44.48733" lon="9.1952933"><ele>852.0</ele><time>2026-04-21T11:32:45.664Z</time></trkpt><trkpt lat="44.4873883" lon="9.1953667"><ele>857.4000000000001</ele><time>2026-04-21T11:32:46.663Z</time></trkpt><trkpt lat="44.487435" lon="9.195495"><ele>862.8000000000001</ele><time>2026-04-21T11:32:48.664Z</time></trkpt><trkpt lat="44.4873883" lon="9.1955983"><ele>868.2</ele><time>2026-04-21T11:32:50.664Z</time></trkpt><trkpt lat="44.4873483" lon="9.1957383"><ele>873.6</ele><time>2026-04-21T11:32:52.663Z</time></trkpt><trkpt lat="44.4873417" lon="9.19584"><ele>879.0</ele><time>2026-04-21T11:32:53.663Z</time></trkpt><trkpt lat="44.4873417" lon="9.1959567"><ele>879.0</ele><time>2026-04-21T11:32:54.664Z</time></trkpt><trkpt lat="44.487335" lon="9.1960767"><ele>879.0</ele><time>2026-04-21T11:32:55.663Z</time></trkpt><trkpt lat="44.487295" lon="9.1961683"><ele>879.0</ele><time>2026-04-21T11:32:56.663Z</time></trkpt><trkpt lat="44.48724" lon="9.19624"><ele>879.0</ele><time>2026-04-21T11:32:57.664Z</time></trkpt><trkpt lat="44.4871717" lon="9.1962817"><ele>879.0</ele><time>2026-04-21T11:32:58.663Z</time></trkpt><trkpt lat="44.4871" lon="9.1963267"><ele>879.0</ele><time>2026-04-21T11:32:59.664Z</time></trkpt><trkpt lat="44.4870367" lon="9.1963967"><ele>873.2</ele><time>2026-04-21T11:33:00.664Z</time></trkpt><trkpt lat="44.4869817" lon="9.1964833"><ele>867.4000000000001</ele><time>2026-04-21T11:33:01.664Z</time></trkpt><trkpt lat="44.48694" lon="9.19659"><ele>861.6</ele><time>2026-04-21T11:33:02.663Z</time></trkpt><trkpt lat="44.4869133" lon="9.19672"><ele>855.8</ele><time>2026-04-21T11:33:03.663Z</time></trkpt><trkpt lat="44.4868933" lon="9.1968633"><ele>850.0</ele><time>2026-04-21T11:33:04.664Z</time></trkpt><trkpt lat="44.48688" lon="9.1970033"><ele>850.0</ele><time>2026-04-21T11:33:05.664Z</time></trkpt><trkpt lat="44.486885" lon="9.1971333"><ele>850.0</ele><time>2026-04-21T11:33:06.663Z</time></trkpt><trkpt lat="44.4869017" lon="9.1972517"><ele>850.0</ele><time>2026-04-21T11:33:07.664Z</time></trkpt><trkpt lat="44.4869267" lon="9.1973617"><ele>850.0</ele><time>2026-04-21T11:33:08.663Z</time></trkpt><trkpt lat="44.4869433" lon="9.1975167"><ele>850.0</ele><time>2026-04-21T11:33:10.663Z</time></trkpt><trkpt lat="44.4868733" lon="9.1976"><ele>852.6666666666666</ele><time>2026-04-21T11:33:12.663Z</time></trkpt><trkpt lat="44.48681" lon="9.1976133"><ele>855.3333333333333</ele><time>2026-04-21T11:33:13.663Z</time></trkpt><trkpt lat="44.4867383" lon="9.197605"><ele>858.0</ele><time>2026-04-21T11:33:14.663Z</time></trkpt><trkpt lat="44.486665" lon="9.19757"><ele>860.6666666666667</ele><time>2026-04-21T11:33:15.664Z</time></trkpt><trkpt lat="44.4865867" lon="9.1975217"><ele>863.3333333333334</ele><time>2026-04-21T11:33:16.663Z</time></trkpt><trkpt lat="44.4865083" lon="9.1974567"><ele>866.0</ele><time>2026-04-21T11:33:17.663Z</time></trkpt><trkpt lat="44.4864117" lon="9.19737"><ele>862.0</ele><time>2026-04-21T11:33:18.664Z</time></trkpt><trkpt lat="44.4863133" lon="9.1972433"><ele>858.0</ele><time>2026-04-21T11:33:19.663Z</time></trkpt><trkpt lat="44.4862117" lon="9.197125"><ele>854.0</ele><time>2026-04-21T11:33:20.664Z</time></trkpt><trkpt lat="44.48614" lon="9.19702"><ele>850.0</ele><time>2026-04-21T11:33:21.663Z</time></trkpt><trkpt lat="44.4860667" lon="9.1969517"><ele>847.3333333333333</ele><time>2026-04-21T11:33:22.663Z</time></trkpt><trkpt lat="44.48598" lon="9.1969067"><ele>844.6666666666666</ele><time>2026-04-21T11:33:23.664Z</time></trkpt><trkpt lat="44.48589" lon="9.1968883"><ele>842.0</ele><time>2026-04-21T11:33:24.664Z</time></trkpt><trkpt lat="44.4858" lon="9.196885"><ele>839.3333333333333</ele><time>2026-04-21T11:33:25.663Z</time></trkpt><trkpt lat="44.4857167" lon="9.1968983"><ele>836.6666666666666</ele><time>2026-04-21T11:33:26.663Z</time></trkpt><trkpt lat="44.4856267" lon="9.1969233"><ele>834.0</ele><time>2026-04-21T11:33:27.664Z</time></trkpt><trkpt lat="44.4855067" lon="9.1969633"><ele>831.0</ele><time>2026-04-21T11:33:28.663Z</time></trkpt><trkpt lat="44.4853767" lon="9.1970117"><ele>828.0</ele><time>2026-04-21T11:33:29.663Z</time></trkpt><trkpt lat="44.4852433" lon="9.1970717"><ele>825.0</ele><time>2026-04-21T11:33:30.663Z</time></trkpt><trkpt lat="44.485125" lon="9.1971217"><ele>822.0</ele><time>2026-04-21T11:33:31.664Z</time></trkpt><trkpt lat="44.48501" lon="9.1971533"><ele>822.0</ele><time>2026-04-21T11:33:32.664Z</time></trkpt><trkpt lat="44.48492" lon="9.1971417"><ele>822.0</ele><time>2026-04-21T11:33:33.663Z</time></trkpt><trkpt lat="44.4848183" lon="9.1970983"><ele>822.0</ele><time>2026-04-21T11:33:34.664Z</time></trkpt><trkpt lat="44.48472" lon="9.1970333"><ele>822.0</ele><time>2026-04-21T11:33:35.664Z</time></trkpt><trkpt lat="44.4846117" lon="9.1969583"><ele>822.0</ele><time>2026-04-21T11:33:36.664Z</time></trkpt><trkpt lat="44.4845083" lon="9.1968833"><ele>820.75</ele><time>2026-04-21T11:33:37.663Z</time></trkpt><trkpt lat="44.4843983" lon="9.19681"><ele>819.5</ele><time>2026-04-21T11:33:38.664Z</time></trkpt><trkpt lat="44.4842717" lon="9.1967117"><ele>818.25</ele><time>2026-04-21T11:33:39.663Z</time></trkpt><trkpt lat="44.4841517" lon="9.196625"><ele>817.0</ele><time>2026-04-21T11:33:40.664Z</time></trkpt><trkpt lat="44.484045" lon="9.196555"><ele>816.9999999999999</ele><time>2026-04-21T11:33:41.664Z</time></trkpt><trkpt lat="44.4839833" lon="9.196505"><ele>817.0</ele><time>2026-04-21T11:33:42.663Z</time></trkpt><trkpt lat="44.4839133" lon="9.1964517"><ele>817.0</ele><time>2026-04-21T11:33:43.663Z</time></trkpt><trkpt lat="44.48385" lon="9.1964317"><ele>817.0</ele><time>2026-04-21T11:33:44.663Z</time></trkpt><trkpt lat="44.483785" lon="9.196425"><ele>816.9999999999999</ele><time>2026-04-21T11:33:45.663Z</time></trkpt><trkpt lat="44.48368" lon="9.1964883"><ele>817.0</ele><time>2026-04-21T11:33:47.663Z</time></trkpt><trkpt lat="44.48364" lon="9.1966417"><ele>817.0</ele><time>2026-04-21T11:33:49.663Z</time></trkpt><trkpt lat="44.4836583" lon="9.1967533"><ele>817.0</ele><time>2026-04-21T11:33:50.664Z</time></trkpt><trkpt lat="44.4837" lon="9.1969033"><ele>817.0</ele><time>2026-04-21T11:33:51.664Z</time></trkpt><trkpt lat="44.4837483" lon="9.1970317"><ele>817.0</ele><time>2026-04-21T11:33:52.663Z</time></trkpt><trkpt lat="44.4837983" lon="9.1971333"><ele>817.0</ele><time>2026-04-21T11:33:53.664Z</time></trkpt><trkpt lat="44.4838517" lon="9.1972233"><ele>817.0</ele><time>2026-04-21T11:33:54.663Z</time></trkpt><trkpt lat="44.483895" lon="9.197325"><ele>817.0</ele><time>2026-04-21T11:33:55.663Z</time></trkpt><trkpt lat="44.4839383" lon="9.1974467"><ele>817.0</ele><time>2026-04-21T11:33:56.664Z</time></trkpt><trkpt lat="44.4839917" lon="9.1975917"><ele>817.0</ele><time>2026-04-21T11:33:57.664Z</time></trkpt><trkpt lat="44.4840467" lon="9.197745"><ele>817.0</ele><time>2026-04-21T11:33:58.664Z</time></trkpt><trkpt lat="44.4840967" lon="9.1979067"><ele>818.75</ele><time>2026-04-21T11:33:59.664Z</time></trkpt><trkpt lat="44.4841317" lon="9.1980783"><ele>820.5</ele><time>2026-04-21T11:34:00.663Z</time></trkpt><trkpt lat="44.4841783" lon="9.1982533"><ele>822.25</ele><time>2026-04-21T11:34:01.664Z</time></trkpt><trkpt lat="44.48424" lon="9.19842"><ele>824.0</ele><time>2026-04-21T11:34:02.663Z</time></trkpt><trkpt lat="44.4843167" lon="9.1985883"><ele>821.6</ele><time>2026-04-21T11:34:03.664Z</time></trkpt><trkpt lat="44.4843867" lon="9.1987517"><ele>819.2</ele><time>2026-04-21T11:34:04.663Z</time></trkpt><trkpt lat="44.48445" lon="9.198895"><ele>816.8000000000001</ele><time>2026-04-21T11:34:05.663Z</time></trkpt><trkpt lat="44.4844967" lon="9.1990117"><ele>814.4000000000001</ele><time>2026-04-21T11:34:06.664Z</time></trkpt><trkpt lat="44.4845217" lon="9.199095"><ele>812.0</ele><time>2026-04-21T11:34:07.664Z</time></trkpt><trkpt lat="44.4844717" lon="9.1992483"><ele>812.0</ele><time>2026-04-21T11:34:09.663Z</time></trkpt><trkpt lat="44.4844067" lon="9.199285"><ele>812.0</ele><time>2026-04-21T11:34:10.663Z</time></trkpt><trkpt lat="44.484335" lon="9.1993167"><ele>812.0</ele><time>2026-04-21T11:34:11.664Z</time></trkpt><trkpt lat="44.4842183" lon="9.19932"><ele>812.0</ele><time>2026-04-21T11:34:12.663Z</time></trkpt><trkpt lat="44.4841083" lon="9.1992917"><ele>812.0</ele><time>2026-04-21T11:34:13.663Z</time></trkpt><trkpt lat="44.48401" lon="9.1992517"><ele>812.0</ele><time>2026-04-21T11:34:14.663Z</time></trkpt><trkpt lat="44.4839217" lon="9.19923"><ele>812.0</ele><time>2026-04-21T11:34:15.664Z</time></trkpt><trkpt lat="44.48383" lon="9.199225"><ele>812.0</ele><time>2026-04-21T11:34:16.663Z</time></trkpt><trkpt lat="44.483725" lon="9.19926"><ele>812.0</ele><time>2026-04-21T11:34:17.663Z</time></trkpt><trkpt lat="44.4835967" lon="9.1993133"><ele>812.0</ele><time>2026-04-21T11:34:18.664Z</time></trkpt><trkpt lat="44.4834667" lon="9.1993667"><ele>806.25</ele><time>2026-04-21T11:34:19.663Z</time></trkpt><trkpt lat="44.4833383" lon="9.1994067"><ele>800.5</ele><time>2026-04-21T11:34:20.663Z</time></trkpt><trkpt lat="44.4832167" lon="9.1994383"><ele>794.75</ele><time>2026-04-21T11:34:21.663Z</time></trkpt><trkpt lat="44.4831" lon="9.1994767"><ele>789.0</ele><time>2026-04-21T11:34:22.663Z</time></trkpt><trkpt lat="44.4829933" lon="9.1995183"><ele>785.2</ele><time>2026-04-21T11:34:23.663Z</time></trkpt><trkpt lat="44.4828967" lon="9.19958"><ele>781.4000000000001</ele><time>2026-04-21T11:34:24.664Z</time></trkpt><trkpt lat="44.4828117" lon="9.1996467"><ele>777.6</ele><time>2026-04-21T11:34:25.663Z</time></trkpt><trkpt lat="44.4827267" lon="9.1997067"><ele>773.8</ele><time>2026-04-21T11:34:26.664Z</time></trkpt><trkpt lat="44.48264" lon="9.199745"><ele>770.0</ele><time>2026-04-21T11:34:27.663Z</time></trkpt><trkpt lat="44.4825633" lon="9.19975"><ele>770.0</ele><time>2026-04-21T11:34:28.663Z</time></trkpt><trkpt lat="44.4824917" lon="9.1997483"><ele>770.0</ele><time>2026-04-21T11:34:29.663Z</time></trkpt><trkpt lat="44.48241" lon="9.199785"><ele>770.0</ele><time>2026-04-21T11:34:31.663Z</time></trkpt><trkpt lat="44.4824117" lon="9.1999333"><ele>770.0</ele><time>2026-04-21T11:34:33.663Z</time></trkpt><trkpt lat="44.4824317" lon="9.2000683"><ele>770.0</ele><time>2026-04-21T11:34:34.664Z</time></trkpt><trkpt lat="44.48244" lon="9.200205"><ele>772.0000000000001</ele><time>2026-04-21T11:34:35.664Z</time></trkpt><trkpt lat="44.4824267" lon="9.2003417"><ele>774.0</ele><time>2026-04-21T11:34:36.663Z</time></trkpt><trkpt lat="44.4824117" lon="9.2004633"><ele>776.0</ele><time>2026-04-21T11:34:37.664Z</time></trkpt><trkpt lat="44.482415" lon="9.20057"><ele>778.0</ele><time>2026-04-21T11:34:38.663Z</time></trkpt><trkpt lat="44.4824367" lon="9.2006833"><ele>780.0000000000001</ele><time>2026-04-21T11:34:39.663Z</time></trkpt><trkpt lat="44.4824817" lon="9.2007983"><ele>782.0</ele><time>2026-04-21T11:34:40.663Z</time></trkpt><trkpt lat="44.482525" lon="9.2009083"><ele>782.8333333333334</ele><time>2026-04-21T11:34:41.663Z</time></trkpt><trkpt lat="44.48256" lon="9.2010067"><ele>783.6666666666667</ele><time>2026-04-21T11:34:42.663Z</time></trkpt><trkpt lat="44.48257" lon="9.201115"><ele>784.5</ele><time>2026-04-21T11:34:43.664Z</time></trkpt><trkpt lat="44.482565" lon="9.2012333"><ele>785.3333333333333</ele><time>2026-04-21T11:34:44.663Z</time></trkpt><trkpt lat="44.48254" lon="9.2013467"><ele>786.1666666666666</ele><time>2026-04-21T11:34:45.664Z</time></trkpt><trkpt lat="44.482485" lon="9.20146"><ele>787.0</ele><time>2026-04-21T11:34:46.664Z</time></trkpt><trkpt lat="44.4824117" lon="9.2015783"><ele>788.1666666666666</ele><time>2026-04-21T11:34:47.664Z</time></trkpt><trkpt lat="44.4823233" lon="9.2016817"><ele>789.3333333333333</ele><time>2026-04-21T11:34:48.663Z</time></trkpt><trkpt lat="44.4822533" lon="9.2017767"><ele>790.5</ele><time>2026-04-21T11:34:49.664Z</time></trkpt><trkpt lat="44.4822" lon="9.2018733"><ele>791.6666666666667</ele><time>2026-04-21T11:34:50.663Z</time></trkpt><trkpt lat="44.4821617" lon="9.2019667"><ele>792.8333333333334</ele><time>2026-04-21T11:34:51.664Z</time></trkpt><trkpt lat="44.482145" lon="9.2020583"><ele>794.0</ele><time>2026-04-21T11:34:52.663Z</time></trkpt><trkpt lat="44.4821467" lon="9.20215"><ele>794.0</ele><time>2026-04-21T11:34:53.664Z</time></trkpt><trkpt lat="44.4821733" lon="9.2022333"><ele>794.0</ele><time>2026-04-21T11:34:54.663Z</time></trkpt><trkpt lat="44.4822183" lon="9.2023783"><ele>794.0</ele><time>2026-04-21T11:34:56.663Z</time></trkpt><trkpt lat="44.4821667" lon="9.202525"><ele>794.0</ele><time>2026-04-21T11:34:58.664Z</time></trkpt><trkpt lat="44.482095" lon="9.20258"><ele>794.0</ele><time>2026-04-21T11:34:59.663Z</time></trkpt><trkpt lat="44.4819983" lon="9.20262"><ele>790.3333333333334</ele><time>2026-04-21T11:35:00.664Z</time></trkpt><trkpt lat="44.4819" lon="9.2026217"><ele>786.6666666666667</ele><time>2026-04-21T11:35:01.664Z</time></trkpt><trkpt lat="44.4818083" lon="9.2026267"><ele>783.0</ele><time>2026-04-21T11:35:02.664Z</time></trkpt><trkpt lat="44.4817283" lon="9.2026433"><ele>779.3333333333333</ele><time>2026-04-21T11:35:03.663Z</time></trkpt><trkpt lat="44.4816667" lon="9.2026833"><ele>775.6666666666666</ele><time>2026-04-21T11:35:04.664Z</time></trkpt><trkpt lat="44.4816083" lon="9.2027367"><ele>772.0</ele><time>2026-04-21T11:35:05.663Z</time></trkpt><trkpt lat="44.4814983" lon="9.2027917"><ele>772.0</ele><time>2026-04-21T11:35:07.664Z</time></trkpt><trkpt lat="44.4813767" lon="9.2027617"><ele>772.0</ele><time>2026-04-21T11:35:09.664Z</time></trkpt><trkpt lat="44.4812883" lon="9.2026983"><ele>772.0</ele><time>2026-04-21T11:35:10.664Z</time></trkpt><trkpt lat="44.481185" lon="9.2026167"><ele>772.0</ele><time>2026-04-21T11:35:11.663Z</time></trkpt><trkpt lat="44.4810983" lon="9.2025167"><ele>773.8</ele><time>2026-04-21T11:35:12.664Z</time></trkpt><trkpt lat="44.481035" lon="9.2024217"><ele>775.6</ele><time>2026-04-21T11:35:13.663Z</time></trkpt><trkpt lat="44.4809983" lon="9.20234"><ele>777.4</ele><time>2026-04-21T11:35:14.664Z</time></trkpt><trkpt lat="44.48098" lon="9.202145"><ele>779.1999999999999</ele><time>2026-04-21T11:35:16.664Z</time></trkpt><trkpt lat="44.4809617" lon="9.2020333"><ele>781.0</ele><time>2026-04-21T11:35:17.663Z</time></trkpt><trkpt lat="44.480925" lon="9.201925"><ele>776.9999999999999</ele><time>2026-04-21T11:35:18.663Z</time></trkpt><trkpt lat="44.4808767" lon="9.2018283"><ele>773.0</ele><time>2026-04-21T11:35:19.663Z</time></trkpt><trkpt lat="44.4808167" lon="9.20173"><ele>769.0</ele><time>2026-04-21T11:35:20.664Z</time></trkpt><trkpt lat="44.4807433" lon="9.201645"><ele>765.0</ele><time>2026-04-21T11:35:21.663Z</time></trkpt><trkpt lat="44.4806733" lon="9.2015667"><ele>761.0</ele><time>2026-04-21T11:35:22.664Z</time></trkpt><trkpt lat="44.4806" lon="9.201505"><ele>757.0</ele><time>2026-04-21T11:35:23.663Z</time></trkpt><trkpt lat="44.4805267" lon="9.2014633"><ele>753.8333333333334</ele><time>2026-04-21T11:35:24.663Z</time></trkpt><trkpt lat="44.4804533" lon="9.2014"><ele>750.6666666666667</ele><time>2026-04-21T11:35:25.664Z</time></trkpt><trkpt lat="44.4803817" lon="9.2013317"><ele>747.5</ele><time>2026-04-21T11:35:26.663Z</time></trkpt><trkpt lat="44.4803167" lon="9.2012667"><ele>744.3333333333334</ele><time>2026-04-21T11:35:27.663Z</time></trkpt><trkpt lat="44.48025" lon="9.201215"><ele>741.1666666666666</ele><time>2026-04-21T11:35:28.663Z</time></trkpt><trkpt lat="44.4801767" lon="9.20118"><ele>738.0</ele><time>2026-04-21T11:35:29.663Z</time></trkpt><trkpt lat="44.4800817" lon="9.2011483"><ele>738.0</ele><time>2026-04-21T11:35:30.664Z</time></trkpt><trkpt lat="44.47997" lon="9.2011367"><ele>738.0</ele><time>2026-04-21T11:35:31.664Z</time></trkpt><trkpt lat="44.4798533" lon="9.20115"><ele>738.0</ele><time>2026-04-21T11:35:32.664Z</time></trkpt><trkpt lat="44.4797333" lon="9.2011483"><ele>738.0</ele><time>2026-04-21T11:35:33.663Z</time></trkpt><trkpt lat="44.4796333" lon="9.20117"><ele>740.5</ele><time>2026-04-21T11:35:34.664Z</time></trkpt><trkpt lat="44.4795333" lon="9.2011617"><ele>743.0</ele><time>2026-04-21T11:35:35.664Z</time></trkpt><trkpt lat="44.4794467" lon="9.2011317"><ele>745.5</ele><time>2026-04-21T11:35:36.664Z</time></trkpt><trkpt lat="44.4793783" lon="9.2010783"><ele>748.0</ele><time>2026-04-21T11:35:37.663Z</time></trkpt><trkpt lat="44.4793267" lon="9.20102"><ele>750.5</ele><time>2026-04-21T11:35:38.664Z</time></trkpt><trkpt lat="44.47929" lon="9.2009483"><ele>753.0</ele><time>2026-04-21T11:35:39.664Z</time></trkpt><trkpt lat="44.47927" lon="9.2008567"><ele>753.0</ele><time>2026-04-21T11:35:40.664Z</time></trkpt><trkpt lat="44.47926" lon="9.2007433"><ele>753.0</ele><time>2026-04-21T11:35:41.664Z</time></trkpt><trkpt lat="44.4792483" lon="9.2006083"><ele>753.0</ele><time>2026-04-21T11:35:42.664Z</time></trkpt><trkpt lat="44.479215" lon="9.2004767"><ele>753.0</ele><time>2026-04-21T11:35:43.663Z</time></trkpt><trkpt lat="44.47916" lon="9.2003467"><ele>753.0</ele><time>2026-04-21T11:35:44.663Z</time></trkpt><trkpt lat="44.4790867" lon="9.2002167"><ele>747.75</ele><time>2026-04-21T11:35:45.663Z</time></trkpt><trkpt lat="44.4790083" lon="9.2000883"><ele>742.5</ele><time>2026-04-21T11:35:46.663Z</time></trkpt><trkpt lat="44.4789433" lon="9.1999567"><ele>737.25</ele><time>2026-04-21T11:35:47.663Z</time></trkpt><trkpt lat="44.4788933" lon="9.1998233"><ele>732.0</ele><time>2026-04-21T11:35:48.664Z</time></trkpt><trkpt lat="44.47885" lon="9.1996667"><ele>730.4000000000001</ele><time>2026-04-21T11:35:49.664Z</time></trkpt><trkpt lat="44.47882" lon="9.1995183"><ele>728.8000000000001</ele><time>2026-04-21T11:35:50.663Z</time></trkpt><trkpt lat="44.4787967" lon="9.1993917"><ele>727.2</ele><time>2026-04-21T11:35:51.664Z</time></trkpt><trkpt lat="44.47876" lon="9.1992767"><ele>725.6</ele><time>2026-04-21T11:35:52.664Z</time></trkpt><trkpt lat="44.4787017" lon="9.1991933"><ele>724.0</ele><time>2026-04-21T11:35:53.663Z</time></trkpt><trkpt lat="44.4786217" lon="9.1991433"><ele>724.0</ele><time>2026-04-21T11:35:54.664Z</time></trkpt><trkpt lat="44.47852" lon="9.1990883"><ele>724.0</ele><time>2026-04-21T11:35:55.663Z</time></trkpt><trkpt lat="44.4784067" lon="9.1990067"><ele>724.0</ele><time>2026-04-21T11:35:56.664Z</time></trkpt><trkpt lat="44.478305" lon="9.198915"><ele>724.0</ele><time>2026-04-21T11:35:57.664Z</time></trkpt><trkpt lat="44.4782117" lon="9.1988267"><ele>718.75</ele><time>2026-04-21T11:35:58.664Z</time></trkpt><trkpt lat="44.4781133" lon="9.19876"><ele>713.5</ele><time>2026-04-21T11:35:59.664Z</time></trkpt><trkpt lat="44.478005" lon="9.1987333"><ele>708.25</ele><time>2026-04-21T11:36:00.663Z</time></trkpt><trkpt lat="44.4778833" lon="9.1987633"><ele>703.0</ele><time>2026-04-21T11:36:01.663Z</time></trkpt><trkpt lat="44.4777383" lon="9.1987817"><ele>701.5</ele><time>2026-04-21T11:36:02.663Z</time></trkpt><trkpt lat="44.4775967" lon="9.1987783"><ele>700.0</ele><time>2026-04-21T11:36:03.663Z</time></trkpt><trkpt lat="44.477445" lon="9.1987483"><ele>698.5</ele><time>2026-04-21T11:36:04.663Z</time></trkpt><trkpt lat="44.4773083" lon="9.1987383"><ele>697.0</ele><time>2026-04-21T11:36:05.663Z</time></trkpt><trkpt lat="44.47718" lon="9.1987"><ele>696.8333333333334</ele><time>2026-04-21T11:36:06.663Z</time></trkpt><trkpt lat="44.4770767" lon="9.1986733"><ele>696.6666666666667</ele><time>2026-04-21T11:36:07.663Z</time></trkpt><trkpt lat="44.4769867" lon="9.1986533"><ele>696.5</ele><time>2026-04-21T11:36:08.663Z</time></trkpt><trkpt lat="44.47691" lon="9.1986533"><ele>696.3333333333334</ele><time>2026-04-21T11:36:09.664Z</time></trkpt><trkpt lat="44.47684" lon="9.1986783"><ele>696.1666666666666</ele><time>2026-04-21T11:36:10.664Z</time></trkpt><trkpt lat="44.4767767" lon="9.1987033"><ele>696.0</ele><time>2026-04-21T11:36:11.664Z</time></trkpt><trkpt lat="44.4766933" lon="9.19871"><ele>696.0</ele><time>2026-04-21T11:36:13.663Z</time></trkpt><trkpt lat="44.4767867" lon="9.1985983"><ele>696.0</ele><time>2026-04-21T11:36:16.664Z</time></trkpt><trkpt lat="44.4768733" lon="9.1985533"><ele>696.0</ele><time>2026-04-21T11:36:17.663Z</time></trkpt><trkpt lat="44.476975" lon="9.1985"><ele>696.0</ele><time>2026-04-21T11:36:18.663Z</time></trkpt><trkpt lat="44.4770583" lon="9.198425"><ele>696.0</ele><time>2026-04-21T11:36:19.663Z</time></trkpt><trkpt lat="44.4771367" lon="9.1983433"><ele>696.1999999999999</ele><time>2026-04-21T11:36:20.663Z</time></trkpt><trkpt lat="44.4772" lon="9.19823"><ele>696.4</ele><time>2026-04-21T11:36:21.664Z</time></trkpt><trkpt lat="44.477265" lon="9.1981267"><ele>696.6</ele><time>2026-04-21T11:36:22.664Z</time></trkpt><trkpt lat="44.4773417" lon="9.1980417"><ele>696.8</ele><time>2026-04-21T11:36:23.663Z</time></trkpt><trkpt lat="44.47741" lon="9.1979817"><ele>697.0</ele><time>2026-04-21T11:36:24.663Z</time></trkpt><trkpt lat="44.4774883" lon="9.1979417"><ele>692.0</ele><time>2026-04-21T11:36:25.663Z</time></trkpt><trkpt lat="44.477585" lon="9.1979083"><ele>687.0</ele><time>2026-04-21T11:36:26.663Z</time></trkpt><trkpt lat="44.4777" lon="9.1978733"><ele>682.0</ele><time>2026-04-21T11:36:27.663Z</time></trkpt><trkpt lat="44.47782" lon="9.1978167"><ele>677.0</ele><time>2026-04-21T11:36:28.664Z</time></trkpt><trkpt lat="44.4779333" lon="9.19775"><ele>677.4000000000001</ele><time>2026-04-21T11:36:29.663Z</time></trkpt><trkpt lat="44.47803" lon="9.1976833"><ele>677.8000000000001</ele><time>2026-04-21T11:36:30.663Z</time></trkpt><trkpt lat="44.4781033" lon="9.1976533"><ele>678.2</ele><time>2026-04-21T11:36:31.664Z</time></trkpt><trkpt lat="44.47822" lon="9.1976467"><ele>678.6</ele><time>2026-04-21T11:36:33.664Z</time></trkpt><trkpt lat="44.4781717" lon="9.19754"><ele>679.0</ele><time>2026-04-21T11:36:37.663Z</time></trkpt><trkpt lat="44.478075" lon="9.197535"><ele>679.0</ele><time>2026-04-21T11:36:38.664Z</time></trkpt><trkpt lat="44.4779667" lon="9.1975517"><ele>679.0</ele><time>2026-04-21T11:36:39.664Z</time></trkpt><trkpt lat="44.4778517" lon="9.197565"><ele>679.0</ele><time>2026-04-21T11:36:40.664Z</time></trkpt><trkpt lat="44.4777317" lon="9.197565"><ele>679.0</ele><time>2026-04-21T11:36:41.664Z</time></trkpt><trkpt lat="44.4776083" lon="9.197545"><ele>678.5</ele><time>2026-04-21T11:36:42.664Z</time></trkpt><trkpt lat="44.4774867" lon="9.197515"><ele>678.0</ele><time>2026-04-21T11:36:43.663Z</time></trkpt><trkpt lat="44.47737" lon="9.1974883"><ele>677.5</ele><time>2026-04-21T11:36:44.664Z</time></trkpt><trkpt lat="44.47725" lon="9.1974667"><ele>677.0</ele><time>2026-04-21T11:36:45.664Z</time></trkpt><trkpt lat="44.4771317" lon="9.1974533"><ele>677.0</ele><time>2026-04-21T11:36:46.663Z</time></trkpt><trkpt lat="44.47702" lon="9.197445"><ele>677.0</ele><time>2026-04-21T11:36:47.663Z</time></trkpt><trkpt lat="44.476915" lon="9.1974283"><ele>677.0</ele><time>2026-04-21T11:36:48.663Z</time></trkpt><trkpt lat="44.4768267" lon="9.197375"><ele>677.0</ele><time>2026-04-21T11:36:49.664Z</time></trkpt><trkpt lat="44.4767367" lon="9.1973067"><ele>677.0</ele><time>2026-04-21T11:36:50.663Z</time></trkpt><trkpt lat="44.4766483" lon="9.1972"><ele>672.8</ele><time>2026-04-21T11:36:51.663Z</time></trkpt><trkpt lat="44.476585" lon="9.197085"><ele>668.6</ele><time>2026-04-21T11:36:52.664Z</time></trkpt><trkpt lat="44.4765383" lon="9.1969967"><ele>664.4</ele><time>2026-04-21T11:36:53.663Z</time></trkpt><trkpt lat="44.476495" lon="9.19693"><ele>660.1999999999999</ele><time>2026-04-21T11:36:54.664Z</time></trkpt><trkpt lat="44.4764" lon="9.1968883"><ele>656.0</ele><time>2026-04-21T11:36:56.663Z</time></trkpt><trkpt lat="44.4763033" lon="9.1970083"><ele>656.1999999999999</ele><time>2026-04-21T11:36:58.663Z</time></trkpt><trkpt lat="44.47624" lon="9.1971083"><ele>656.4</ele><time>2026-04-21T11:36:59.663Z</time></trkpt><trkpt lat="44.4761817" lon="9.1972367"><ele>656.6</ele><time>2026-04-21T11:37:00.663Z</time></trkpt><trkpt lat="44.4761183" lon="9.1973717"><ele>656.8</ele><time>2026-04-21T11:37:01.664Z</time></trkpt><trkpt lat="44.4760383" lon="9.1975117"><ele>657.0</ele><time>2026-04-21T11:37:02.664Z</time></trkpt><trkpt lat="44.47595" lon="9.1976167"><ele>657.0</ele><time>2026-04-21T11:37:03.664Z</time></trkpt><trkpt lat="44.4758633" lon="9.19767"><ele>657.0</ele><time>2026-04-21T11:37:04.664Z</time></trkpt><trkpt lat="44.47575" lon="9.1976967"><ele>657.0</ele><time>2026-04-21T11:37:05.663Z</time></trkpt><trkpt lat="44.4756283" lon="9.19767"><ele>657.0</ele><time>2026-04-21T11:37:06.663Z</time></trkpt><trkpt lat="44.4755183" lon="9.197655"><ele>657.0</ele><time>2026-04-21T11:37:07.663Z</time></trkpt><trkpt lat="44.4754267" lon="9.197635"><ele>652.4</ele><time>2026-04-21T11:37:08.664Z</time></trkpt><trkpt lat="44.4753383" lon="9.1976467"><ele>647.8000000000001</ele><time>2026-04-21T11:37:09.663Z</time></trkpt><trkpt lat="44.4752433" lon="9.1976817"><ele>643.2</ele><time>2026-04-21T11:37:10.663Z</time></trkpt><trkpt lat="44.4751467" lon="9.1977283"><ele>638.6</ele><time>2026-04-21T11:37:11.663Z</time></trkpt><trkpt lat="44.475045" lon="9.1977733"><ele>634.0</ele><time>2026-04-21T11:37:12.663Z</time></trkpt><trkpt lat="44.4749517" lon="9.1978167"><ele>634.0</ele><time>2026-04-21T11:37:13.664Z</time></trkpt><trkpt lat="44.47486" lon="9.197895"><ele>634.0</ele><time>2026-04-21T11:37:14.663Z</time></trkpt><trkpt lat="44.4747683" lon="9.1980033"><ele>634.0</ele><time>2026-04-21T11:37:15.663Z</time></trkpt><trkpt lat="44.4746817" lon="9.198105"><ele>634.0</ele><time>2026-04-21T11:37:16.663Z</time></trkpt><trkpt lat="44.474615" lon="9.1982067"><ele>634.0</ele><time>2026-04-21T11:37:17.664Z</time></trkpt><trkpt lat="44.474565" lon="9.1983233"><ele>630.75</ele><time>2026-04-21T11:37:18.664Z</time></trkpt><trkpt lat="44.474525" lon="9.19847"><ele>627.5</ele><time>2026-04-21T11:37:19.664Z</time></trkpt><trkpt lat="44.4744883" lon="9.1986267"><ele>624.25</ele><time>2026-04-21T11:37:20.663Z</time></trkpt><trkpt lat="44.47445" lon="9.198775"><ele>621.0</ele><time>2026-04-21T11:37:21.664Z</time></trkpt><trkpt lat="44.4743983" lon="9.198915"><ele>626.6</ele><time>2026-04-21T11:37:22.663Z</time></trkpt><trkpt lat="44.4743267" lon="9.19903"><ele>632.2</ele><time>2026-04-21T11:37:23.664Z</time></trkpt><trkpt lat="44.4742483" lon="9.19912"><ele>637.8000000000001</ele><time>2026-04-21T11:37:24.663Z</time></trkpt><trkpt lat="44.4741583" lon="9.1991883"><ele>643.4000000000001</ele><time>2026-04-21T11:37:25.664Z</time></trkpt><trkpt lat="44.4740617" lon="9.1992633"><ele>649.0</ele><time>2026-04-21T11:37:26.664Z</time></trkpt><trkpt lat="44.4739683" lon="9.1993367"><ele>649.0</ele><time>2026-04-21T11:37:27.663Z</time></trkpt><trkpt lat="44.4738833" lon="9.199415"><ele>649.0</ele><time>2026-04-21T11:37:28.663Z</time></trkpt><trkpt lat="44.4738183" lon="9.1995117"><ele>649.0</ele><time>2026-04-21T11:37:29.664Z</time></trkpt><trkpt lat="44.4737667" lon="9.1996283"><ele>649.0</ele><time>2026-04-21T11:37:30.663Z</time></trkpt><trkpt lat="44.4737217" lon="9.1997783"><ele>649.0</ele><time>2026-04-21T11:37:31.663Z</time></trkpt><trkpt lat="44.4736733" lon="9.1999367"><ele>644.8000000000001</ele><time>2026-04-21T11:37:32.664Z</time></trkpt><trkpt lat="44.473625" lon="9.2000783"><ele>640.6</ele><time>2026-04-21T11:37:33.663Z</time></trkpt><trkpt lat="44.47357" lon="9.2001833"><ele>636.4</ele><time>2026-04-21T11:37:34.664Z</time></trkpt><trkpt lat="44.4735083" lon="9.2002533"><ele>632.2</ele><time>2026-04-21T11:37:35.663Z</time></trkpt><trkpt lat="44.4733983" lon="9.2002683"><ele>628.0</ele><time>2026-04-21T11:37:37.663Z</time></trkpt><trkpt lat="44.4733067" lon="9.2001583"><ele>628.0</ele><time>2026-04-21T11:37:39.663Z</time></trkpt><trkpt lat="44.4732667" lon="9.2000433"><ele>628.0</ele><time>2026-04-21T11:37:40.663Z</time></trkpt><trkpt lat="44.473235" lon="9.1998817"><ele>628.0</ele><time>2026-04-21T11:37:41.663Z</time></trkpt><trkpt lat="44.4732167" lon="9.1996883"><ele>628.0</ele><time>2026-04-21T11:37:42.664Z</time></trkpt><trkpt lat="44.4732117" lon="9.199485"><ele>626.4</ele><time>2026-04-21T11:37:43.664Z</time></trkpt><trkpt lat="44.4732167" lon="9.1993267"><ele>624.8</ele><time>2026-04-21T11:37:44.663Z</time></trkpt><trkpt lat="44.4732433" lon="9.1991717"><ele>623.2</ele><time>2026-04-21T11:37:45.664Z</time></trkpt><trkpt lat="44.473255" lon="9.1990317"><ele>621.6</ele><time>2026-04-21T11:37:46.663Z</time></trkpt><trkpt lat="44.473265" lon="9.198905"><ele>620.0</ele><time>2026-04-21T11:37:47.663Z</time></trkpt><trkpt lat="44.4732767" lon="9.1987817"><ele>618.4</ele><time>2026-04-21T11:37:48.663Z</time></trkpt><trkpt lat="44.4732783" lon="9.1986367"><ele>616.8</ele><time>2026-04-21T11:37:49.664Z</time></trkpt><trkpt lat="44.4732633" lon="9.1984817"><ele>615.2</ele><time>2026-04-21T11:37:50.663Z</time></trkpt><trkpt lat="44.47324" lon="9.1983167"><ele>613.6</ele><time>2026-04-21T11:37:51.664Z</time></trkpt><trkpt lat="44.47321" lon="9.1981667"><ele>612.0</ele><time>2026-04-21T11:37:52.664Z</time></trkpt><trkpt lat="44.4731667" lon="9.198"><ele>608.4</ele><time>2026-04-21T11:37:53.664Z</time></trkpt><trkpt lat="44.4731283" lon="9.1978417"><ele>604.8000000000001</ele><time>2026-04-21T11:37:54.664Z</time></trkpt><trkpt lat="44.47308" lon="9.1977033"><ele>601.2</ele><time>2026-04-21T11:37:55.664Z</time></trkpt><trkpt lat="44.4730217" lon="9.197595"><ele>597.6</ele><time>2026-04-21T11:37:56.663Z</time></trkpt><trkpt lat="44.4729433" lon="9.19751"><ele>594.0</ele><time>2026-04-21T11:37:57.664Z</time></trkpt><trkpt lat="44.47286" lon="9.1974483"><ele>594.0</ele><time>2026-04-21T11:37:58.664Z</time></trkpt><trkpt lat="44.4727683" lon="9.1974067"><ele>594.0</ele><time>2026-04-21T11:37:59.664Z</time></trkpt><trkpt lat="44.4726817" lon="9.1973633"><ele>594.0</ele><time>2026-04-21T11:38:00.664Z</time></trkpt><trkpt lat="44.4726033" lon="9.1973467"><ele>594.0</ele><time>2026-04-21T11:38:01.664Z</time></trkpt><trkpt lat="44.47254" lon="9.1973483"><ele>594.0</ele><time>2026-04-21T11:38:02.663Z</time></trkpt><trkpt lat="44.4724817" lon="9.19746"><ele>594.0</ele><time>2026-04-21T11:38:04.664Z</time></trkpt><trkpt lat="44.4724967" lon="9.19757"><ele>594.0</ele><time>2026-04-21T11:38:05.663Z</time></trkpt><trkpt lat="44.4725167" lon="9.197695"><ele>594.0</ele><time>2026-04-21T11:38:06.663Z</time></trkpt><trkpt lat="44.47255" lon="9.197855"><ele>594.0</ele><time>2026-04-21T11:38:07.663Z</time></trkpt><trkpt lat="44.472575" lon="9.198025"><ele>594.0</ele><time>2026-04-21T11:38:08.664Z</time></trkpt><trkpt lat="44.472605" lon="9.1982167"><ele>594.0</ele><time>2026-04-21T11:38:09.663Z</time></trkpt><trkpt lat="44.4726383" lon="9.1983883"><ele>594.0</ele><time>2026-04-21T11:38:10.664Z</time></trkpt><trkpt lat="44.4726917" lon="9.1985683"><ele>594.0</ele><time>2026-04-21T11:38:11.663Z</time></trkpt><trkpt lat="44.4727667" lon="9.1987617"><ele>594.0</ele><time>2026-04-21T11:38:12.663Z</time></trkpt><trkpt lat="44.4728217" lon="9.1989367"><ele>591.0</ele><time>2026-04-21T11:38:13.664Z</time></trkpt><trkpt lat="44.472865" lon="9.1991133"><ele>588.0</ele><time>2026-04-21T11:38:14.663Z</time></trkpt><trkpt lat="44.47287" lon="9.1993133"><ele>585.0</ele><time>2026-04-21T11:38:15.663Z</time></trkpt><trkpt lat="44.472855" lon="9.199555"><ele>582.0</ele><time>2026-04-21T11:38:16.663Z</time></trkpt><trkpt lat="44.472855" lon="9.1997833"><ele>583.25</ele><time>2026-04-21T11:38:17.663Z</time></trkpt><trkpt lat="44.4728583" lon="9.19998"><ele>584.5</ele><time>2026-04-21T11:38:18.663Z</time></trkpt><trkpt lat="44.4728567" lon="9.200165"><ele>585.75</ele><time>2026-04-21T11:38:19.663Z</time></trkpt><trkpt lat="44.4728367" lon="9.2003517"><ele>587.0</ele><time>2026-04-21T11:38:20.663Z</time></trkpt><trkpt lat="44.4728" lon="9.2005117"><ele>587.0</ele><time>2026-04-21T11:38:21.663Z</time></trkpt><trkpt lat="44.4727533" lon="9.2006483"><ele>587.0</ele><time>2026-04-21T11:38:22.663Z</time></trkpt><trkpt lat="44.4726933" lon="9.2007733"><ele>587.0</ele><time>2026-04-21T11:38:23.664Z</time></trkpt><trkpt lat="44.4726317" lon="9.2008833"><ele>587.0</ele><time>2026-04-21T11:38:24.664Z</time></trkpt><trkpt lat="44.4725717" lon="9.2009833"><ele>587.0</ele><time>2026-04-21T11:38:25.663Z</time></trkpt><trkpt lat="44.4725217" lon="9.201085"><ele>590.5</ele><time>2026-04-21T11:38:26.664Z</time></trkpt><trkpt lat="44.4724883" lon="9.2012017"><ele>594.0</ele><time>2026-04-21T11:38:27.664Z</time></trkpt><trkpt lat="44.4724633" lon="9.2013483"><ele>597.5</ele><time>2026-04-21T11:38:28.663Z</time></trkpt><trkpt lat="44.47245" lon="9.2015317"><ele>601.0</ele><time>2026-04-21T11:38:29.664Z</time></trkpt><trkpt lat="44.4724317" lon="9.201735"><ele>603.75</ele><time>2026-04-21T11:38:30.664Z</time></trkpt><trkpt lat="44.47241" lon="9.20195"><ele>606.5</ele><time>2026-04-21T11:38:31.664Z</time></trkpt><trkpt lat="44.472385" lon="9.2021483"><ele>609.25</ele><time>2026-04-21T11:38:32.663Z</time></trkpt><trkpt lat="44.47236" lon="9.2023167"><ele>612.0</ele><time>2026-04-21T11:38:33.664Z</time></trkpt><trkpt lat="44.47234" lon="9.2024617"><ele>612.0</ele><time>2026-04-21T11:38:34.663Z</time></trkpt><trkpt lat="44.4723383" lon="9.20259"><ele>612.0</ele><time>2026-04-21T11:38:35.664Z</time></trkpt><trkpt lat="44.47233" lon="9.202715"><ele>612.0</ele><time>2026-04-21T11:38:36.663Z</time></trkpt><trkpt lat="44.4723067" lon="9.2028317"><ele>612.0</ele><time>2026-04-21T11:38:37.664Z</time></trkpt><trkpt lat="44.4722767" lon="9.2029367"><ele>612.0</ele><time>2026-04-21T11:38:38.663Z</time></trkpt><trkpt lat="44.4722533" lon="9.2030433"><ele>612.0</ele><time>2026-04-21T11:38:39.663Z</time></trkpt><trkpt lat="44.4722483" lon="9.2031583"><ele>613.5</ele><time>2026-04-21T11:38:40.663Z</time></trkpt><trkpt lat="44.4722567" lon="9.2032817"><ele>615.0</ele><time>2026-04-21T11:38:41.663Z</time></trkpt><trkpt lat="44.4722617" lon="9.2034"><ele>616.5</ele><time>2026-04-21T11:38:42.664Z</time></trkpt><trkpt lat="44.4722633" lon="9.20351"><ele>618.0</ele><time>2026-04-21T11:38:43.663Z</time></trkpt><trkpt lat="44.4722467" lon="9.2036117"><ele>619.5</ele><time>2026-04-21T11:38:44.663Z</time></trkpt><trkpt lat="44.4722033" lon="9.2037"><ele>621.0</ele><time>2026-04-21T11:38:45.663Z</time></trkpt><trkpt lat="44.47214" lon="9.2037833"><ele>615.2</ele><time>2026-04-21T11:38:46.664Z</time></trkpt><trkpt lat="44.4720667" lon="9.203885"><ele>609.4000000000001</ele><time>2026-04-21T11:38:47.664Z</time></trkpt><trkpt lat="44.471985" lon="9.2040033"><ele>603.6</ele><time>2026-04-21T11:38:48.663Z</time></trkpt><trkpt lat="44.4718983" lon="9.2041133"><ele>597.8000000000001</ele><time>2026-04-21T11:38:49.664Z</time></trkpt><trkpt lat="44.4718217" lon="9.2041967"><ele>592.0</ele><time>2026-04-21T11:38:50.664Z</time></trkpt><trkpt lat="44.4717617" lon="9.204275"><ele>592.0</ele><time>2026-04-21T11:38:51.664Z</time></trkpt><trkpt lat="44.4717167" lon="9.2043883"><ele>592.0</ele><time>2026-04-21T11:38:52.663Z</time></trkpt><trkpt lat="44.47167" lon="9.2045317"><ele>592.0</ele><time>2026-04-21T11:38:53.664Z</time></trkpt><trkpt lat="44.4715933" lon="9.2046767"><ele>592.0</ele><time>2026-04-21T11:38:54.663Z</time></trkpt><trkpt lat="44.4715117" lon="9.2048017"><ele>589.8000000000001</ele><time>2026-04-21T11:38:55.663Z</time></trkpt><trkpt lat="44.47143" lon="9.20492"><ele>587.6</ele><time>2026-04-21T11:38:56.664Z</time></trkpt><trkpt lat="44.4713583" lon="9.2050217"><ele>585.4000000000001</ele><time>2026-04-21T11:38:57.664Z</time></trkpt><trkpt lat="44.4712867" lon="9.205115"><ele>583.2</ele><time>2026-04-21T11:38:58.663Z</time></trkpt><trkpt lat="44.471225" lon="9.205205"><ele>581.0</ele><time>2026-04-21T11:38:59.663Z</time></trkpt><trkpt lat="44.47117" lon="9.2053117"><ele>581.0</ele><time>2026-04-21T11:39:00.663Z</time></trkpt><trkpt lat="44.4711233" lon="9.205425"><ele>581.0</ele><time>2026-04-21T11:39:01.663Z</time></trkpt><trkpt lat="44.47109" lon="9.2055433"><ele>581.0</ele><time>2026-04-21T11:39:02.664Z</time></trkpt><trkpt lat="44.471075" lon="9.20567"><ele>581.0</ele><time>2026-04-21T11:39:03.663Z</time></trkpt><trkpt lat="44.47106" lon="9.20581"><ele>581.0</ele><time>2026-04-21T11:39:04.664Z</time></trkpt><trkpt lat="44.4710317" lon="9.2059467"><ele>581.8</ele><time>2026-04-21T11:39:05.664Z</time></trkpt><trkpt lat="44.4709917" lon="9.20609"><ele>582.6</ele><time>2026-04-21T11:39:06.663Z</time></trkpt><trkpt lat="44.4709517" lon="9.206215"><ele>583.4</ele><time>2026-04-21T11:39:07.663Z</time></trkpt><trkpt lat="44.4709217" lon="9.2063233"><ele>584.2</ele><time>2026-04-21T11:39:08.663Z</time></trkpt><trkpt lat="44.4709133" lon="9.2064367"><ele>585.0</ele><time>2026-04-21T11:39:09.664Z</time></trkpt><trkpt lat="44.47092" lon="9.2065617"><ele>586.2</ele><time>2026-04-21T11:39:10.664Z</time></trkpt><trkpt lat="44.4709333" lon="9.2066933"><ele>587.4</ele><time>2026-04-21T11:39:11.664Z</time></trkpt><trkpt lat="44.470945" lon="9.2068317"><ele>588.6</ele><time>2026-04-21T11:39:12.663Z</time></trkpt><trkpt lat="44.47094" lon="9.206975"><ele>589.8</ele><time>2026-04-21T11:39:13.664Z</time></trkpt><trkpt lat="44.470925" lon="9.2071033"><ele>591.0</ele><time>2026-04-21T11:39:14.663Z</time></trkpt><trkpt lat="44.47088" lon="9.207215"><ele>591.0</ele><time>2026-04-21T11:39:15.664Z</time></trkpt><trkpt lat="44.47082" lon="9.2072933"><ele>591.0</ele><time>2026-04-21T11:39:16.664Z</time></trkpt><trkpt lat="44.4707533" lon="9.2073517"><ele>591.0</ele><time>2026-04-21T11:39:17.664Z</time></trkpt><trkpt lat="44.47069" lon="9.20737"><ele>591.0</ele><time>2026-04-21T11:39:18.664Z</time></trkpt><trkpt lat="44.47063" lon="9.2073433"><ele>591.0</ele><time>2026-04-21T11:39:19.663Z</time></trkpt><trkpt lat="44.4705733" lon="9.2072667"><ele>591.0</ele><time>2026-04-21T11:39:20.664Z</time></trkpt><trkpt lat="44.4705167" lon="9.207145"><ele>591.0</ele><time>2026-04-21T11:39:21.663Z</time></trkpt><trkpt lat="44.470475" lon="9.2069967"><ele>591.0</ele><time>2026-04-21T11:39:22.664Z</time></trkpt><trkpt lat="44.4704183" lon="9.2068033"><ele>591.0</ele><time>2026-04-21T11:39:23.664Z</time></trkpt><trkpt lat="44.4703833" lon="9.20662"><ele>591.0</ele><time>2026-04-21T11:39:24.663Z</time></trkpt><trkpt lat="44.4703567" lon="9.2064283"><ele>595.2</ele><time>2026-04-21T11:39:25.664Z</time></trkpt><trkpt lat="44.470355" lon="9.20625"><ele>599.4000000000001</ele><time>2026-04-21T11:39:26.663Z</time></trkpt><trkpt lat="44.4703533" lon="9.2060817"><ele>603.6</ele><time>2026-04-21T11:39:27.664Z</time></trkpt><trkpt lat="44.47034" lon="9.2059467"><ele>607.8000000000001</ele><time>2026-04-21T11:39:28.663Z</time></trkpt><trkpt lat="44.4703017" lon="9.2058283"><ele>612.0</ele><time>2026-04-21T11:39:29.663Z</time></trkpt><trkpt lat="44.470265" lon="9.20573"><ele>611.5</ele><time>2026-04-21T11:39:30.663Z</time></trkpt><trkpt lat="44.470245" lon="9.205605"><ele>611.0</ele><time>2026-04-21T11:39:31.663Z</time></trkpt><trkpt lat="44.4702483" lon="9.2054983"><ele>610.5</ele><time>2026-04-21T11:39:32.663Z</time></trkpt><trkpt lat="44.4702833" lon="9.2053967"><ele>610.0</ele><time>2026-04-21T11:39:33.663Z</time></trkpt><trkpt lat="44.4703083" lon="9.20529"><ele>609.5</ele><time>2026-04-21T11:39:34.664Z</time></trkpt><trkpt lat="44.4703167" lon="9.2051767"><ele>609.0</ele><time>2026-04-21T11:39:35.664Z</time></trkpt><trkpt lat="44.4703183" lon="9.2050517"><ele>609.0</ele><time>2026-04-21T11:39:36.663Z</time></trkpt><trkpt lat="44.47031" lon="9.2049117"><ele>609.0</ele><time>2026-04-21T11:39:37.664Z</time></trkpt><trkpt lat="44.4703017" lon="9.2047483"><ele>609.0</ele><time>2026-04-21T11:39:38.664Z</time></trkpt><trkpt lat="44.4703117" lon="9.2045533"><ele>609.0</ele><time>2026-04-21T11:39:39.663Z</time></trkpt><trkpt lat="44.4703283" lon="9.204355"><ele>610.0</ele><time>2026-04-21T11:39:40.663Z</time></trkpt><trkpt lat="44.4703533" lon="9.204165"><ele>611.0</ele><time>2026-04-21T11:39:41.664Z</time></trkpt><trkpt lat="44.4703917" lon="9.2039833"><ele>612.0</ele><time>2026-04-21T11:39:42.664Z</time></trkpt><trkpt lat="44.4704367" lon="9.203825"><ele>613.0</ele><time>2026-04-21T11:39:43.663Z</time></trkpt><trkpt lat="44.4704933" lon="9.203695"><ele>607.1999999999999</ele><time>2026-04-21T11:39:44.663Z</time></trkpt><trkpt lat="44.470575" lon="9.2035767"><ele>601.4</ele><time>2026-04-21T11:39:45.663Z</time></trkpt><trkpt lat="44.4706633" lon="9.2034783"><ele>595.5999999999999</ele><time>2026-04-21T11:39:46.663Z</time></trkpt><trkpt lat="44.4707433" lon="9.2034117"><ele>589.8</ele><time>2026-04-21T11:39:47.664Z</time></trkpt><trkpt lat="44.470815" lon="9.20336"><ele>584.0</ele><time>2026-04-21T11:39:48.664Z</time></trkpt><trkpt lat="44.47087" lon="9.2033017"><ele>584.0</ele><time>2026-04-21T11:39:49.663Z</time></trkpt><trkpt lat="44.470915" lon="9.20323"><ele>584.0</ele><time>2026-04-21T11:39:50.663Z</time></trkpt><trkpt lat="44.4709167" lon="9.203055"><ele>584.0</ele><time>2026-04-21T11:39:52.663Z</time></trkpt><trkpt lat="44.47088" lon="9.20295"><ele>584.0</ele><time>2026-04-21T11:39:53.664Z</time></trkpt><trkpt lat="44.4708417" lon="9.2028333"><ele>584.0</ele><time>2026-04-21T11:39:54.663Z</time></trkpt><trkpt lat="44.470795" lon="9.202725"><ele>584.6666666666666</ele><time>2026-04-21T11:39:55.664Z</time></trkpt><trkpt lat="44.47075" lon="9.20262"><ele>585.3333333333333</ele><time>2026-04-21T11:39:56.664Z</time></trkpt><trkpt lat="44.4707167" lon="9.2025167"><ele>586.0</ele><time>2026-04-21T11:39:57.664Z</time></trkpt><trkpt lat="44.4707017" lon="9.202415"><ele>586.6666666666666</ele><time>2026-04-21T11:39:58.664Z</time></trkpt><trkpt lat="44.4706983" lon="9.2023017"><ele>587.3333333333334</ele><time>2026-04-21T11:39:59.664Z</time></trkpt><trkpt lat="44.4707083" lon="9.20217"><ele>588.0</ele><time>2026-04-21T11:40:00.663Z</time></trkpt><trkpt lat="44.47074" lon="9.202015"><ele>589.0</ele><time>2026-04-21T11:40:01.663Z</time></trkpt><trkpt lat="44.47081" lon="9.2018617"><ele>590.0</ele><time>2026-04-21T11:40:02.663Z</time></trkpt><trkpt lat="44.470875" lon="9.20172"><ele>591.0</ele><time>2026-04-21T11:40:03.663Z</time></trkpt><trkpt lat="44.4709267" lon="9.2015983"><ele>592.0</ele><time>2026-04-21T11:40:04.663Z</time></trkpt><trkpt lat="44.4709533" lon="9.20147"><ele>593.0</ele><time>2026-04-21T11:40:05.663Z</time></trkpt><trkpt lat="44.4709567" lon="9.2013383"><ele>594.25</ele><time>2026-04-21T11:40:06.663Z</time></trkpt><trkpt lat="44.47094" lon="9.201195"><ele>595.5</ele><time>2026-04-21T11:40:07.663Z</time></trkpt><trkpt lat="44.47093" lon="9.2010383"><ele>596.75</ele><time>2026-04-21T11:40:08.663Z</time></trkpt><trkpt lat="44.4709233" lon="9.2008517"><ele>598.0</ele><time>2026-04-21T11:40:09.663Z</time></trkpt><trkpt lat="44.4709167" lon="9.2006417"><ele>598.0</ele><time>2026-04-21T11:40:10.663Z</time></trkpt><trkpt lat="44.4709283" lon="9.20046"><ele>598.0</ele><time>2026-04-21T11:40:11.663Z</time></trkpt><trkpt lat="44.4709583" lon="9.2002967"><ele>598.0</ele><time>2026-04-21T11:40:12.663Z</time></trkpt><trkpt lat="44.4709967" lon="9.2001533"><ele>598.0</ele><time>2026-04-21T11:40:13.663Z</time></trkpt><trkpt lat="44.471025" lon="9.1999917"><ele>597.0</ele><time>2026-04-21T11:40:14.663Z</time></trkpt><trkpt lat="44.47105" lon="9.199825"><ele>596.0</ele><time>2026-04-21T11:40:15.663Z</time></trkpt><trkpt lat="44.4710667" lon="9.1996717"><ele>595.0</ele><time>2026-04-21T11:40:16.663Z</time></trkpt><trkpt lat="44.4710867" lon="9.1995333"><ele>594.0</ele><time>2026-04-21T11:40:17.663Z</time></trkpt><trkpt lat="44.4711017" lon="9.1993817"><ele>593.0</ele><time>2026-04-21T11:40:18.664Z</time></trkpt><trkpt lat="44.4711117" lon="9.1992333"><ele>593.0</ele><time>2026-04-21T11:40:19.663Z</time></trkpt><trkpt lat="44.4711233" lon="9.199085"><ele>593.0</ele><time>2026-04-21T11:40:20.664Z</time></trkpt><trkpt lat="44.471135" lon="9.1989367"><ele>593.0</ele><time>2026-04-21T11:40:21.663Z</time></trkpt><trkpt lat="44.4711233" lon="9.19881"><ele>593.0</ele><time>2026-04-21T11:40:22.663Z</time></trkpt><trkpt lat="44.4710883" lon="9.1986817"><ele>593.0</ele><time>2026-04-21T11:40:23.664Z</time></trkpt><trkpt lat="44.4710467" lon="9.1985717"><ele>590.4</ele><time>2026-04-21T11:40:24.664Z</time></trkpt><trkpt lat="44.47098" lon="9.1984717"><ele>587.8</ele><time>2026-04-21T11:40:25.664Z</time></trkpt><trkpt lat="44.4709033" lon="9.1983867"><ele>585.2</ele><time>2026-04-21T11:40:26.663Z</time></trkpt><trkpt lat="44.4707983" lon="9.1983133"><ele>582.6</ele><time>2026-04-21T11:40:27.664Z</time></trkpt><trkpt lat="44.4706967" lon="9.1982533"><ele>580.0</ele><time>2026-04-21T11:40:28.663Z</time></trkpt><trkpt lat="44.4706067" lon="9.1981667"><ele>582.0</ele><time>2026-04-21T11:40:29.664Z</time></trkpt><trkpt lat="44.4705167" lon="9.1980717"><ele>584.0</ele><time>2026-04-21T11:40:30.663Z</time></trkpt><trkpt lat="44.4704217" lon="9.1979417"><ele>586.0</ele><time>2026-04-21T11:40:31.664Z</time></trkpt><trkpt lat="44.4703217" lon="9.197805"><ele>588.0</ele><time>2026-04-21T11:40:32.663Z</time></trkpt><trkpt lat="44.4702217" lon="9.1976733"><ele>588.0</ele><time>2026-04-21T11:40:33.664Z</time></trkpt><trkpt lat="44.4701383" lon="9.1975367"><ele>588.0</ele><time>2026-04-21T11:40:34.663Z</time></trkpt><trkpt lat="44.4700633" lon="9.1973933"><ele>588.0</ele><time>2026-04-21T11:40:35.664Z</time></trkpt><trkpt lat="44.4700117" lon="9.1972417"><ele>588.0</ele><time>2026-04-21T11:40:36.663Z</time></trkpt><trkpt lat="44.469975" lon="9.1970967"><ele>584.1999999999999</ele><time>2026-04-21T11:40:37.664Z</time></trkpt><trkpt lat="44.4699483" lon="9.1969733"><ele>580.4</ele><time>2026-04-21T11:40:38.663Z</time></trkpt><trkpt lat="44.4699" lon="9.1968817"><ele>576.5999999999999</ele><time>2026-04-21T11:40:39.664Z</time></trkpt><trkpt lat="44.4698433" lon="9.1967867"><ele>572.8</ele><time>2026-04-21T11:40:40.664Z</time></trkpt><trkpt lat="44.4697667" lon="9.19671"><ele>569.0</ele><time>2026-04-21T11:40:41.663Z</time></trkpt><trkpt lat="44.4696817" lon="9.1966433"><ele>570.25</ele><time>2026-04-21T11:40:42.663Z</time></trkpt><trkpt lat="44.4695933" lon="9.1965633"><ele>571.5</ele><time>2026-04-21T11:40:43.663Z</time></trkpt><trkpt lat="44.4695033" lon="9.1964667"><ele>572.75</ele><time>2026-04-21T11:40:44.663Z</time></trkpt><trkpt lat="44.4694183" lon="9.1963517"><ele>574.0</ele><time>2026-04-21T11:40:45.663Z</time></trkpt><trkpt lat="44.4693333" lon="9.1962217"><ele>574.0</ele><time>2026-04-21T11:40:46.663Z</time></trkpt><trkpt lat="44.4692583" lon="9.1961017"><ele>574.0</ele><time>2026-04-21T11:40:47.663Z</time></trkpt><trkpt lat="44.46921" lon="9.195995"><ele>574.0</ele><time>2026-04-21T11:40:48.663Z</time></trkpt><trkpt lat="44.4691817" lon="9.1958883"><ele>574.0</ele><time>2026-04-21T11:40:49.663Z</time></trkpt><trkpt lat="44.46918" lon="9.1957517"><ele>574.0</ele><time>2026-04-21T11:40:50.664Z</time></trkpt><trkpt lat="44.4691933" lon="9.1956233"><ele>571.1666666666667</ele><time>2026-04-21T11:40:51.664Z</time></trkpt><trkpt lat="44.4692067" lon="9.1954917"><ele>568.3333333333334</ele><time>2026-04-21T11:40:52.664Z</time></trkpt><trkpt lat="44.4692183" lon="9.1953633"><ele>565.5</ele><time>2026-04-21T11:40:53.664Z</time></trkpt><trkpt lat="44.4692117" lon="9.1952433"><ele>562.6666666666666</ele><time>2026-04-21T11:40:54.663Z</time></trkpt><trkpt lat="44.4691867" lon="9.195135"><ele>559.8333333333333</ele><time>2026-04-21T11:40:55.663Z</time></trkpt><trkpt lat="44.4691317" lon="9.19504"><ele>557.0</ele><time>2026-04-21T11:40:56.663Z</time></trkpt><trkpt lat="44.4690683" lon="9.1949583"><ele>557.0</ele><time>2026-04-21T11:40:57.664Z</time></trkpt><trkpt lat="44.468975" lon="9.1949067"><ele>557.0</ele><time>2026-04-21T11:40:58.663Z</time></trkpt><trkpt lat="44.4688617" lon="9.1948733"><ele>557.0</ele><time>2026-04-21T11:40:59.663Z</time></trkpt><trkpt lat="44.4687433" lon="9.1948783"><ele>557.0</ele><time>2026-04-21T11:41:00.664Z</time></trkpt><trkpt lat="44.468645" lon="9.1949267"><ele>557.0</ele><time>2026-04-21T11:41:01.663Z</time></trkpt><trkpt lat="44.4685367" lon="9.194995"><ele>557.6</ele><time>2026-04-21T11:41:02.664Z</time></trkpt><trkpt lat="44.4684317" lon="9.1950583"><ele>558.2</ele><time>2026-04-21T11:41:03.664Z</time></trkpt><trkpt lat="44.4683267" lon="9.1951233"><ele>558.8</ele><time>2026-04-21T11:41:04.663Z</time></trkpt><trkpt lat="44.468225" lon="9.1951617"><ele>559.4</ele><time>2026-04-21T11:41:05.663Z</time></trkpt><trkpt lat="44.4681267" lon="9.1951683"><ele>560.0</ele><time>2026-04-21T11:41:06.663Z</time></trkpt><trkpt lat="44.4680233" lon="9.195155"><ele>561.0</ele><time>2026-04-21T11:41:07.663Z</time></trkpt><trkpt lat="44.467905" lon="9.1951133"><ele>562.0</ele><time>2026-04-21T11:41:08.664Z</time></trkpt><trkpt lat="44.4677867" lon="9.1950683"><ele>563.0</ele><time>2026-04-21T11:41:09.663Z</time></trkpt><trkpt lat="44.4676733" lon="9.1950083"><ele>564.0</ele><time>2026-04-21T11:41:10.663Z</time></trkpt><trkpt lat="44.46757" lon="9.19495"><ele>564.0</ele><time>2026-04-21T11:41:11.664Z</time></trkpt><trkpt lat="44.4674967" lon="9.1948817"><ele>564.0</ele><time>2026-04-21T11:41:12.663Z</time></trkpt><trkpt lat="44.4674267" lon="9.19476"><ele>564.0</ele><time>2026-04-21T11:41:14.663Z</time></trkpt><trkpt lat="44.46746" lon="9.19458"><ele>564.0</ele><time>2026-04-21T11:41:16.663Z</time></trkpt><trkpt lat="44.4675167" lon="9.194485"><ele>564.0</ele><time>2026-04-21T11:41:17.663Z</time></trkpt><trkpt lat="44.4676083" lon="9.194395"><ele>561.25</ele><time>2026-04-21T11:41:18.663Z</time></trkpt><trkpt lat="44.4677283" lon="9.1943067"><ele>558.5</ele><time>2026-04-21T11:41:19.664Z</time></trkpt><trkpt lat="44.46785" lon="9.19425"><ele>555.75</ele><time>2026-04-21T11:41:20.664Z</time></trkpt><trkpt lat="44.4679483" lon="9.1941867"><ele>553.0</ele><time>2026-04-21T11:41:21.664Z</time></trkpt><trkpt lat="44.46803" lon="9.1941133"><ele>551.4</ele><time>2026-04-21T11:41:22.664Z</time></trkpt><trkpt lat="44.468105" lon="9.19402"><ele>549.8</ele><time>2026-04-21T11:41:23.663Z</time></trkpt><trkpt lat="44.4681633" lon="9.193915"><ele>548.2</ele><time>2026-04-21T11:41:24.664Z</time></trkpt><trkpt lat="44.4682133" lon="9.193795"><ele>546.6</ele><time>2026-04-21T11:41:25.663Z</time></trkpt><trkpt lat="44.4682333" lon="9.1936717"><ele>545.0</ele><time>2026-04-21T11:41:26.663Z</time></trkpt><trkpt lat="44.46823" lon="9.1935333"><ele>544.0</ele><time>2026-04-21T11:41:27.663Z</time></trkpt><trkpt lat="44.4682167" lon="9.19342"><ele>543.0</ele><time>2026-04-21T11:41:28.663Z</time></trkpt><trkpt lat="44.4681933" lon="9.193325"><ele>542.0</ele><time>2026-04-21T11:41:29.664Z</time></trkpt><trkpt lat="44.468085" lon="9.1932167"><ele>541.0</ele><time>2026-04-21T11:41:31.663Z</time></trkpt><trkpt lat="44.4679967" lon="9.1932133"><ele>540.0</ele><time>2026-04-21T11:41:32.663Z</time></trkpt><trkpt lat="44.4678867" lon="9.1932367"><ele>539.0</ele><time>2026-04-21T11:41:33.664Z</time></trkpt><trkpt lat="44.4677933" lon="9.193275"><ele>538.0</ele><time>2026-04-21T11:41:34.663Z</time></trkpt><trkpt lat="44.467715" lon="9.1933217"><ele>537.0</ele><time>2026-04-21T11:41:35.663Z</time></trkpt><trkpt lat="44.4676433" lon="9.19341"><ele>536.0</ele><time>2026-04-21T11:41:36.664Z</time></trkpt><trkpt lat="44.4675683" lon="9.1935067"><ele>535.0</ele><time>2026-04-21T11:41:37.663Z</time></trkpt><trkpt lat="44.4674917" lon="9.1936"><ele>535.0</ele><time>2026-04-21T11:41:38.664Z</time></trkpt><trkpt lat="44.4674083" lon="9.1936717"><ele>535.0</ele><time>2026-04-21T11:41:39.663Z</time></trkpt><trkpt lat="44.4673083" lon="9.193715"><ele>535.0</ele><time>2026-04-21T11:41:40.663Z</time></trkpt><trkpt lat="44.467215" lon="9.1937267"><ele>535.0</ele><time>2026-04-21T11:41:41.663Z</time></trkpt><trkpt lat="44.4670983" lon="9.19372"><ele>535.0</ele><time>2026-04-21T11:41:42.664Z</time></trkpt><trkpt lat="44.4669833" lon="9.19371"><ele>531.25</ele><time>2026-04-21T11:41:43.663Z</time></trkpt><trkpt lat="44.466865" lon="9.1937133"><ele>527.5</ele><time>2026-04-21T11:41:44.664Z</time></trkpt><trkpt lat="44.4667367" lon="9.1937417"><ele>523.75</ele><time>2026-04-21T11:41:45.664Z</time></trkpt><trkpt lat="44.4666133" lon="9.193785"><ele>520.0</ele><time>2026-04-21T11:41:46.663Z</time></trkpt><trkpt lat="44.4664933" lon="9.1938333"><ele>520.0</ele><time>2026-04-21T11:41:47.663Z</time></trkpt><trkpt lat="44.4663717" lon="9.19388"><ele>520.0</ele><time>2026-04-21T11:41:48.664Z</time></trkpt><trkpt lat="44.4662567" lon="9.1939033"><ele>520.0</ele><time>2026-04-21T11:41:49.664Z</time></trkpt><trkpt lat="44.4661367" lon="9.19389"><ele>520.0</ele><time>2026-04-21T11:41:50.663Z</time></trkpt><trkpt lat="44.4660183" lon="9.193855"><ele>520.0</ele><time>2026-04-21T11:41:51.663Z</time></trkpt><trkpt lat="44.4659067" lon="9.19383"><ele>520.0</ele><time>2026-04-21T11:41:52.664Z</time></trkpt><trkpt lat="44.46579" lon="9.1938"><ele>520.0</ele><time>2026-04-21T11:41:53.663Z</time></trkpt><trkpt lat="44.46567" lon="9.1937867"><ele>520.0</ele><time>2026-04-21T11:41:54.663Z</time></trkpt><trkpt lat="44.46556" lon="9.193795"><ele>522.0</ele><time>2026-04-21T11:41:55.663Z</time></trkpt><trkpt lat="44.4654183" lon="9.1937783"><ele>524.0</ele><time>2026-04-21T11:41:56.663Z</time></trkpt><trkpt lat="44.46529" lon="9.1937667"><ele>526.0</ele><time>2026-04-21T11:41:57.664Z</time></trkpt><trkpt lat="44.465175" lon="9.1937483"><ele>528.0</ele><time>2026-04-21T11:41:58.664Z</time></trkpt><trkpt lat="44.4650683" lon="9.1937317"><ele>528.0</ele><time>2026-04-21T11:41:59.663Z</time></trkpt><trkpt lat="44.4649533" lon="9.1936767"><ele>528.0</ele><time>2026-04-21T11:42:01.664Z</time></trkpt><trkpt lat="44.4648967" lon="9.1935867"><ele>528.0</ele><time>2026-04-21T11:42:02.663Z</time></trkpt><trkpt lat="44.46483" lon="9.193475"><ele>528.0</ele><time>2026-04-21T11:42:03.664Z</time></trkpt><trkpt lat="44.4647617" lon="9.1933633"><ele>528.0</ele><time>2026-04-21T11:42:04.664Z</time></trkpt><trkpt lat="44.464685" lon="9.1932733"><ele>531.0</ele><time>2026-04-21T11:42:05.663Z</time></trkpt><trkpt lat="44.4645983" lon="9.1931917"><ele>534.0</ele><time>2026-04-21T11:42:06.663Z</time></trkpt><trkpt lat="44.4645167" lon="9.1931383"><ele>537.0</ele><time>2026-04-21T11:42:07.663Z</time></trkpt><trkpt lat="44.4644383" lon="9.193125"><ele>540.0</ele><time>2026-04-21T11:42:08.663Z</time></trkpt><trkpt lat="44.46435" lon="9.1931383"><ele>543.0</ele><time>2026-04-21T11:42:09.663Z</time></trkpt><trkpt lat="44.4642467" lon="9.1931583"><ele>543.0</ele><time>2026-04-21T11:42:10.663Z</time></trkpt><trkpt lat="44.464145" lon="9.1931817"><ele>543.0</ele><time>2026-04-21T11:42:11.664Z</time></trkpt><trkpt lat="44.4640483" lon="9.1931833"><ele>543.0</ele><time>2026-04-21T11:42:12.663Z</time></trkpt><trkpt lat="44.4639583" lon="9.1931417"><ele>543.0</ele><time>2026-04-21T11:42:13.664Z</time></trkpt><trkpt lat="44.4638567" lon="9.1930633"><ele>543.0</ele><time>2026-04-21T11:42:14.663Z</time></trkpt><trkpt lat="44.4637467" lon="9.1929633"><ele>538.0</ele><time>2026-04-21T11:42:15.664Z</time></trkpt><trkpt lat="44.4636367" lon="9.192865"><ele>533.0</ele><time>2026-04-21T11:42:16.664Z</time></trkpt><trkpt lat="44.4635267" lon="9.1927833"><ele>528.0</ele><time>2026-04-21T11:42:17.663Z</time></trkpt><trkpt lat="44.4634167" lon="9.19269"><ele>523.0</ele><time>2026-04-21T11:42:18.663Z</time></trkpt><trkpt lat="44.4633133" lon="9.1926017"><ele>523.0</ele><time>2026-04-21T11:42:19.663Z</time></trkpt><trkpt lat="44.4632283" lon="9.192505"><ele>523.0</ele><time>2026-04-21T11:42:20.664Z</time></trkpt><trkpt lat="44.46317" lon="9.1924117"><ele>523.0</ele><time>2026-04-21T11:42:21.664Z</time></trkpt><trkpt lat="44.463125" lon="9.1922967"><ele>523.0</ele><time>2026-04-21T11:42:22.664Z</time></trkpt><trkpt lat="44.463085" lon="9.1921917"><ele>523.0</ele><time>2026-04-21T11:42:23.664Z</time></trkpt><trkpt lat="44.4630417" lon="9.1921"><ele>518.4</ele><time>2026-04-21T11:42:24.663Z</time></trkpt><trkpt lat="44.46298" lon="9.1920283"><ele>513.8</ele><time>2026-04-21T11:42:25.663Z</time></trkpt><trkpt lat="44.4629167" lon="9.1919983"><ele>509.2</ele><time>2026-04-21T11:42:26.663Z</time></trkpt><trkpt lat="44.4628317" lon="9.1920083"><ele>504.6</ele><time>2026-04-21T11:42:27.663Z</time></trkpt><trkpt lat="44.4627317" lon="9.19205"><ele>500.0</ele><time>2026-04-21T11:42:28.663Z</time></trkpt><trkpt lat="44.46261" lon="9.1921283"><ele>498.25</ele><time>2026-04-21T11:42:29.664Z</time></trkpt><trkpt lat="44.4624967" lon="9.1921933"><ele>496.5</ele><time>2026-04-21T11:42:30.663Z</time></trkpt><trkpt lat="44.462385" lon="9.1922683"><ele>494.75</ele><time>2026-04-21T11:42:31.663Z</time></trkpt><trkpt lat="44.46227" lon="9.192335"><ele>493.0</ele><time>2026-04-21T11:42:32.664Z</time></trkpt><trkpt lat="44.462165" lon="9.19238"><ele>490.79999999999995</ele><time>2026-04-21T11:42:33.663Z</time></trkpt><trkpt lat="44.4620617" lon="9.192395"><ele>488.59999999999997</ele><time>2026-04-21T11:42:34.664Z</time></trkpt><trkpt lat="44.4619567" lon="9.1923983"><ele>486.40000000000003</ele><time>2026-04-21T11:42:35.663Z</time></trkpt><trkpt lat="44.461865" lon="9.192385"><ele>484.20000000000005</ele><time>2026-04-21T11:42:36.663Z</time></trkpt><trkpt lat="44.4617783" lon="9.192345"><ele>482.0</ele><time>2026-04-21T11:42:37.663Z</time></trkpt><trkpt lat="44.461685" lon="9.1923"><ele>482.0</ele><time>2026-04-21T11:42:38.663Z</time></trkpt><trkpt lat="44.461585" lon="9.1922317"><ele>482.00000000000006</ele><time>2026-04-21T11:42:39.664Z</time></trkpt><trkpt lat="44.4614783" lon="9.1921567"><ele>482.00000000000006</ele><time>2026-04-21T11:42:40.664Z</time></trkpt><trkpt lat="44.4613883" lon="9.1920683"><ele>482.0</ele><time>2026-04-21T11:42:41.664Z</time></trkpt><trkpt lat="44.4613133" lon="9.1919917"><ele>482.0</ele><time>2026-04-21T11:42:42.664Z</time></trkpt><trkpt lat="44.4612483" lon="9.1918883"><ele>479.0</ele><time>2026-04-21T11:42:43.663Z</time></trkpt><trkpt lat="44.4611817" lon="9.191765"><ele>476.0</ele><time>2026-04-21T11:42:44.664Z</time></trkpt><trkpt lat="44.4611067" lon="9.1916233"><ele>473.0</ele><time>2026-04-21T11:42:45.664Z</time></trkpt><trkpt lat="44.4610333" lon="9.1915017"><ele>470.0</ele><time>2026-04-21T11:42:46.663Z</time></trkpt><trkpt lat="44.4609567" lon="9.1914117"><ele>470.0</ele><time>2026-04-21T11:42:47.663Z</time></trkpt><trkpt lat="44.460885" lon="9.1913517"><ele>470.0</ele><time>2026-04-21T11:42:48.663Z</time></trkpt><trkpt lat="44.46081" lon="9.19131"><ele>470.0</ele><time>2026-04-21T11:42:49.663Z</time></trkpt><trkpt lat="44.46073" lon="9.1912833"><ele>470.0</ele><time>2026-04-21T11:42:50.664Z</time></trkpt><trkpt lat="44.4606233" lon="9.191275"><ele>470.0</ele><time>2026-04-21T11:42:51.664Z</time></trkpt><trkpt lat="44.4605033" lon="9.19125"><ele>469.8</ele><time>2026-04-21T11:42:52.663Z</time></trkpt><trkpt lat="44.4603867" lon="9.1912167"><ele>469.6</ele><time>2026-04-21T11:42:53.663Z</time></trkpt><trkpt lat="44.4602833" lon="9.1911917"><ele>469.4</ele><time>2026-04-21T11:42:54.663Z</time></trkpt><trkpt lat="44.46019" lon="9.19117"><ele>469.2</ele><time>2026-04-21T11:42:55.663Z</time></trkpt><trkpt lat="44.4601017" lon="9.1911767"><ele>469.0</ele><time>2026-04-21T11:42:56.664Z</time></trkpt><trkpt lat="44.4600133" lon="9.1912033"><ele>469.0</ele><time>2026-04-21T11:42:57.664Z</time></trkpt><trkpt lat="44.4599" lon="9.1912783"><ele>469.0</ele><time>2026-04-21T11:42:58.663Z</time></trkpt><trkpt lat="44.4597883" lon="9.1913667"><ele>469.0</ele><time>2026-04-21T11:42:59.664Z</time></trkpt><trkpt lat="44.459675" lon="9.1914483"><ele>469.0</ele><time>2026-04-21T11:43:00.663Z</time></trkpt><trkpt lat="44.4595617" lon="9.19152"><ele>472.6</ele><time>2026-04-21T11:43:01.664Z</time></trkpt><trkpt lat="44.45945" lon="9.191585"><ele>476.2</ele><time>2026-04-21T11:43:02.663Z</time></trkpt><trkpt lat="44.459345" lon="9.1916367"><ele>479.80000000000007</ele><time>2026-04-21T11:43:03.663Z</time></trkpt><trkpt lat="44.45925" lon="9.1916833"><ele>483.40000000000003</ele><time>2026-04-21T11:43:04.664Z</time></trkpt><trkpt lat="44.4591567" lon="9.1917233"><ele>487.0</ele><time>2026-04-21T11:43:05.663Z</time></trkpt><trkpt lat="44.4590583" lon="9.1917533"><ele>487.0</ele><time>2026-04-21T11:43:06.663Z</time></trkpt><trkpt lat="44.45894" lon="9.191765"><ele>487.0</ele><time>2026-04-21T11:43:07.664Z</time></trkpt><trkpt lat="44.4588117" lon="9.191765"><ele>487.0</ele><time>2026-04-21T11:43:08.664Z</time></trkpt><trkpt lat="44.4586867" lon="9.1917567"><ele>487.0</ele><time>2026-04-21T11:43:09.663Z</time></trkpt><trkpt lat="44.45858" lon="9.1917367"><ele>485.20000000000005</ele><time>2026-04-21T11:43:10.663Z</time></trkpt><trkpt lat="44.458465" lon="9.1917133"><ele>483.40000000000003</ele><time>2026-04-21T11:43:11.663Z</time></trkpt><trkpt lat="44.458365" lon="9.1916567"><ele>481.59999999999997</ele><time>2026-04-21T11:43:12.664Z</time></trkpt><trkpt lat="44.458275" lon="9.19161"><ele>479.79999999999995</ele><time>2026-04-21T11:43:13.664Z</time></trkpt><trkpt lat="44.458195" lon="9.1915783"><ele>478.0</ele><time>2026-04-21T11:43:14.663Z</time></trkpt><trkpt lat="44.4581183" lon="9.1915733"><ele>478.0</ele><time>2026-04-21T11:43:15.663Z</time></trkpt><trkpt lat="44.4580367" lon="9.19159"><ele>477.99999999999994</ele><time>2026-04-21T11:43:16.663Z</time></trkpt><trkpt lat="44.4579383" lon="9.191625"><ele>477.99999999999994</ele><time>2026-04-21T11:43:17.664Z</time></trkpt><trkpt lat="44.4578317" lon="9.1916717"><ele>478.0</ele><time>2026-04-21T11:43:18.663Z</time></trkpt><trkpt lat="44.4577317" lon="9.1917017"><ele>478.0</ele><time>2026-04-21T11:43:19.663Z</time></trkpt><trkpt lat="44.457645" lon="9.1917383"><ele>475.50000000000006</ele><time>2026-04-21T11:43:20.663Z</time></trkpt><trkpt lat="44.4575583" lon="9.1917833"><ele>473.0</ele><time>2026-04-21T11:43:21.663Z</time></trkpt><trkpt lat="44.4574883" lon="9.1918383"><ele>470.5</ele><time>2026-04-21T11:43:22.663Z</time></trkpt><trkpt lat="44.4574267" lon="9.1918933"><ele>468.0</ele><time>2026-04-21T11:43:23.664Z</time></trkpt><trkpt lat="44.4573617" lon="9.19192"><ele>465.50000000000006</ele><time>2026-04-21T11:43:24.663Z</time></trkpt><trkpt lat="44.4572383" lon="9.1918967"><ele>463.0</ele><time>2026-04-21T11:43:26.664Z</time></trkpt><trkpt lat="44.4571683" lon="9.1918867"><ele>459.2</ele><time>2026-04-21T11:43:27.664Z</time></trkpt><trkpt lat="44.4570883" lon="9.1918967"><ele>455.4</ele><time>2026-04-21T11:43:28.663Z</time></trkpt><trkpt lat="44.4569883" lon="9.1919333"><ele>451.59999999999997</ele><time>2026-04-21T11:43:29.663Z</time></trkpt><trkpt lat="44.4568767" lon="9.1919917"><ele>447.79999999999995</ele><time>2026-04-21T11:43:30.663Z</time></trkpt><trkpt lat="44.4567717" lon="9.1920617"><ele>444.0</ele><time>2026-04-21T11:43:31.664Z</time></trkpt><trkpt lat="44.45668" lon="9.1921433"><ele>444.0</ele><time>2026-04-21T11:43:32.663Z</time></trkpt><trkpt lat="44.4566083" lon="9.1922367"><ele>444.0</ele><time>2026-04-21T11:43:33.663Z</time></trkpt><trkpt lat="44.4565467" lon="9.1923267"><ele>444.0</ele><time>2026-04-21T11:43:34.664Z</time></trkpt><trkpt lat="44.4564833" lon="9.1924183"><ele>444.0</ele><time>2026-04-21T11:43:35.663Z</time></trkpt><trkpt lat="44.4564233" lon="9.1924983"><ele>444.0</ele><time>2026-04-21T11:43:36.663Z</time></trkpt><trkpt lat="44.4563567" lon="9.1925717"><ele>444.0</ele><time>2026-04-21T11:43:37.663Z</time></trkpt><trkpt lat="44.4562767" lon="9.1926333"><ele>444.6</ele><time>2026-04-21T11:43:38.664Z</time></trkpt><trkpt lat="44.4561833" lon="9.1926717"><ele>445.2</ele><time>2026-04-21T11:43:39.664Z</time></trkpt><trkpt lat="44.4560617" lon="9.192695"><ele>445.80000000000007</ele><time>2026-04-21T11:43:41.663Z</time></trkpt><trkpt lat="44.4559967" lon="9.1926233"><ele>446.40000000000003</ele><time>2026-04-21T11:43:43.663Z</time></trkpt><trkpt lat="44.4560433" lon="9.1925467"><ele>447.0</ele><time>2026-04-21T11:43:45.663Z</time></trkpt><trkpt lat="44.4561683" lon="9.19246"><ele>447.0</ele><time>2026-04-21T11:43:47.664Z</time></trkpt><trkpt lat="44.456255" lon="9.192385"><ele>447.0</ele><time>2026-04-21T11:43:48.663Z</time></trkpt><trkpt lat="44.45634" lon="9.192265"><ele>447.0</ele><time>2026-04-21T11:43:49.663Z</time></trkpt><trkpt lat="44.4564133" lon="9.1921383"><ele>447.0</ele><time>2026-04-21T11:43:50.663Z</time></trkpt><trkpt lat="44.4564967" lon="9.1920067"><ele>446.25</ele><time>2026-04-21T11:43:51.664Z</time></trkpt><trkpt lat="44.4565917" lon="9.1918767"><ele>445.5</ele><time>2026-04-21T11:43:52.663Z</time></trkpt><trkpt lat="44.4567" lon="9.19175"><ele>444.75</ele><time>2026-04-21T11:43:53.663Z</time></trkpt><trkpt lat="44.4567867" lon="9.1916583"><ele>444.0</ele><time>2026-04-21T11:43:54.663Z</time></trkpt><trkpt lat="44.456865" lon="9.19158"><ele>444.0</ele><time>2026-04-21T11:43:55.663Z</time></trkpt><trkpt lat="44.456925" lon="9.1915133"><ele>444.0</ele><time>2026-04-21T11:43:56.663Z</time></trkpt><trkpt lat="44.4569683" lon="9.1913867"><ele>444.0</ele><time>2026-04-21T11:43:58.663Z</time></trkpt><trkpt lat="44.456915" lon="9.19128"><ele>444.0</ele><time>2026-04-21T11:44:00.663Z</time></trkpt><trkpt lat="44.45681" lon="9.19133"><ele>444.0</ele><time>2026-04-21T11:44:02.663Z</time></trkpt><trkpt lat="44.4567433" lon="9.1914517"><ele>444.0</ele><time>2026-04-21T11:44:03.663Z</time></trkpt><trkpt lat="44.4566733" lon="9.1915417"><ele>444.0</ele><time>2026-04-21T11:44:04.663Z</time></trkpt><trkpt lat="44.456595" lon="9.1916117"><ele>444.0</ele><time>2026-04-21T11:44:05.663Z</time></trkpt><trkpt lat="44.4565083" lon="9.19167"><ele>444.0</ele><time>2026-04-21T11:44:06.663Z</time></trkpt><trkpt lat="44.4564117" lon="9.1917433"><ele>444.0</ele><time>2026-04-21T11:44:07.663Z</time></trkpt><trkpt lat="44.4563233" lon="9.1918383"><ele>440.1666666666667</ele><time>2026-04-21T11:44:08.663Z</time></trkpt><trkpt lat="44.4562483" lon="9.19192"><ele>436.33333333333337</ele><time>2026-04-21T11:44:09.663Z</time></trkpt><trkpt lat="44.45618" lon="9.1919667"><ele>432.5</ele><time>2026-04-21T11:44:10.663Z</time></trkpt><trkpt lat="44.4560917" lon="9.191935"><ele>428.6666666666667</ele><time>2026-04-21T11:44:12.663Z</time></trkpt><trkpt lat="44.4560833" lon="9.1918033"><ele>424.83333333333337</ele><time>2026-04-21T11:44:14.664Z</time></trkpt><trkpt lat="44.4561333" lon="9.1917233"><ele>421.0</ele><time>2026-04-21T11:44:15.664Z</time></trkpt><trkpt lat="44.4562217" lon="9.1916283"><ele>418.6666666666667</ele><time>2026-04-21T11:44:16.663Z</time></trkpt><trkpt lat="44.4563633" lon="9.191495"><ele>416.33333333333337</ele><time>2026-04-21T11:44:17.663Z</time></trkpt><trkpt lat="44.456495" lon="9.1913533"><ele>414.0</ele><time>2026-04-21T11:44:18.664Z</time></trkpt><trkpt lat="44.4566083" lon="9.1912367"><ele>414.0</ele><time>2026-04-21T11:44:19.664Z</time></trkpt><trkpt lat="44.45672" lon="9.191135"><ele>414.0</ele><time>2026-04-21T11:44:20.663Z</time></trkpt><trkpt lat="44.4568217" lon="9.1910683"><ele>414.0</ele><time>2026-04-21T11:44:21.663Z</time></trkpt><trkpt lat="44.45692" lon="9.1910267"><ele>414.0</ele><time>2026-04-21T11:44:22.663Z</time></trkpt><trkpt lat="44.4570183" lon="9.1910183"><ele>414.0</ele><time>2026-04-21T11:44:23.664Z</time></trkpt><trkpt lat="44.4571017" lon="9.1910133"><ele>413.4</ele><time>2026-04-21T11:44:24.663Z</time></trkpt><trkpt lat="44.4571883" lon="9.1909883"><ele>412.79999999999995</ele><time>2026-04-21T11:44:25.664Z</time></trkpt><trkpt lat="44.4572667" lon="9.1909417"><ele>412.20000000000005</ele><time>2026-04-21T11:44:26.664Z</time></trkpt><trkpt lat="44.45733" lon="9.1908617"><ele>411.6</ele><time>2026-04-21T11:44:27.664Z</time></trkpt><trkpt lat="44.4573733" lon="9.1907367"><ele>411.0</ele><time>2026-04-21T11:44:28.663Z</time></trkpt><trkpt lat="44.4574133" lon="9.1905967"><ele>411.0</ele><time>2026-04-21T11:44:29.664Z</time></trkpt><trkpt lat="44.457465" lon="9.1904617"><ele>411.0</ele><time>2026-04-21T11:44:30.664Z</time></trkpt><trkpt lat="44.4575233" lon="9.19034"><ele>411.0</ele><time>2026-04-21T11:44:31.663Z</time></trkpt><trkpt lat="44.4575667" lon="9.1902383"><ele>411.0</ele><time>2026-04-21T11:44:32.665Z</time></trkpt><trkpt lat="44.4575867" lon="9.1901517"><ele>411.0</ele><time>2026-04-21T11:44:33.664Z</time></trkpt><trkpt lat="44.4575717" lon="9.1900033"><ele>411.0</ele><time>2026-04-21T11:44:35.664Z</time></trkpt><trkpt lat="44.4574867" lon="9.19001"><ele>411.0</ele><time>2026-04-21T11:44:37.665Z</time></trkpt><trkpt lat="44.45744" lon="9.1900867"><ele>411.0</ele><time>2026-04-21T11:44:38.665Z</time></trkpt><trkpt lat="44.4573733" lon="9.1902233"><ele>411.0</ele><time>2026-04-21T11:44:39.664Z</time></trkpt><trkpt lat="44.4573017" lon="9.1904017"><ele>411.0</ele><time>2026-04-21T11:44:40.664Z</time></trkpt><trkpt lat="44.4572283" lon="9.1905467"><ele>411.0</ele><time>2026-04-21T11:44:41.664Z</time></trkpt><trkpt lat="44.4571483" lon="9.19064"><ele>411.0</ele><time>2026-04-21T11:44:42.664Z</time></trkpt><trkpt lat="44.457065" lon="9.19068"><ele>411.0</ele><time>2026-04-21T11:44:43.664Z</time></trkpt><trkpt lat="44.4569733" lon="9.1906983"><ele>411.0</ele><time>2026-04-21T11:44:44.665Z</time></trkpt><trkpt lat="44.4568583" lon="9.19071"><ele>411.0</ele><time>2026-04-21T11:44:45.664Z</time></trkpt><trkpt lat="44.4567183" lon="9.1907383"><ele>412.0</ele><time>2026-04-21T11:44:46.665Z</time></trkpt><trkpt lat="44.4565683" lon="9.1907983"><ele>413.0</ele><time>2026-04-21T11:44:47.664Z</time></trkpt><trkpt lat="44.456415" lon="9.1908733"><ele>414.0</ele><time>2026-04-21T11:44:48.664Z</time></trkpt><trkpt lat="44.45626" lon="9.1909517"><ele>406.0</ele><time>2026-04-21T11:44:49.664Z</time></trkpt><trkpt lat="44.4561133" lon="9.19103"><ele>398.0</ele><time>2026-04-21T11:44:50.664Z</time></trkpt><trkpt lat="44.4559733" lon="9.1911133"><ele>390.0</ele><time>2026-04-21T11:44:51.664Z</time></trkpt><trkpt lat="44.4558417" lon="9.1911967"><ele>390.0</ele><time>2026-04-21T11:44:52.664Z</time></trkpt><trkpt lat="44.4557133" lon="9.191285"><ele>390.0</ele><time>2026-04-21T11:44:53.664Z</time></trkpt><trkpt lat="44.45558" lon="9.1913633"><ele>390.0</ele><time>2026-04-21T11:44:54.665Z</time></trkpt><trkpt lat="44.4554633" lon="9.191445"><ele>390.0</ele><time>2026-04-21T11:44:55.665Z</time></trkpt><trkpt lat="44.455335" lon="9.191515"><ele>390.25</ele><time>2026-04-21T11:44:56.665Z</time></trkpt><trkpt lat="44.4552083" lon="9.1915817"><ele>390.5</ele><time>2026-04-21T11:44:57.664Z</time></trkpt><trkpt lat="44.455085" lon="9.1916483"><ele>390.75</ele><time>2026-04-21T11:44:58.665Z</time></trkpt><trkpt lat="44.4549667" lon="9.1917133"><ele>391.0</ele><time>2026-04-21T11:44:59.664Z</time></trkpt><trkpt lat="44.45486" lon="9.1917867"><ele>391.0</ele><time>2026-04-21T11:45:00.665Z</time></trkpt><trkpt lat="44.454765" lon="9.1918783"><ele>391.0</ele><time>2026-04-21T11:45:01.664Z</time></trkpt><trkpt lat="44.4546733" lon="9.1919883"><ele>391.0</ele><time>2026-04-21T11:45:02.664Z</time></trkpt><trkpt lat="44.45458" lon="9.1921067"><ele>391.0</ele><time>2026-04-21T11:45:03.664Z</time></trkpt><trkpt lat="44.4544783" lon="9.1922217"><ele>389.75</ele><time>2026-04-21T11:45:04.664Z</time></trkpt><trkpt lat="44.4543683" lon="9.19235"><ele>388.5</ele><time>2026-04-21T11:45:05.664Z</time></trkpt><trkpt lat="44.4542683" lon="9.19249"><ele>387.25</ele><time>2026-04-21T11:45:06.664Z</time></trkpt><trkpt lat="44.45418" lon="9.19263"><ele>386.0</ele><time>2026-04-21T11:45:07.665Z</time></trkpt><trkpt lat="44.4540883" lon="9.1927617"><ele>386.0</ele><time>2026-04-21T11:45:08.664Z</time></trkpt><trkpt lat="44.4540067" lon="9.1928817"><ele>386.0</ele><time>2026-04-21T11:45:09.664Z</time></trkpt><trkpt lat="44.4539267" lon="9.1929883"><ele>386.0</ele><time>2026-04-21T11:45:10.665Z</time></trkpt><trkpt lat="44.4538533" lon="9.193075"><ele>386.0</ele><time>2026-04-21T11:45:11.665Z</time></trkpt><trkpt lat="44.453785" lon="9.1931533"><ele>386.0</ele><time>2026-04-21T11:45:12.665Z</time></trkpt><trkpt lat="44.4537233" lon="9.1932033"><ele>386.0</ele><time>2026-04-21T11:45:13.664Z</time></trkpt><trkpt lat="44.453625" lon="9.1932417"><ele>386.0</ele><time>2026-04-21T11:45:15.665Z</time></trkpt><trkpt lat="44.4535917" lon="9.193165"><ele>386.0</ele><time>2026-04-21T11:45:17.664Z</time></trkpt><trkpt lat="44.453665" lon="9.19301"><ele>386.0</ele><time>2026-04-21T11:45:19.664Z</time></trkpt><trkpt lat="44.45373" lon="9.192895"><ele>386.0</ele><time>2026-04-21T11:45:20.664Z</time></trkpt><trkpt lat="44.4537933" lon="9.1927617"><ele>386.0</ele><time>2026-04-21T11:45:21.664Z</time></trkpt><trkpt lat="44.4538467" lon="9.19262"><ele>386.0</ele><time>2026-04-21T11:45:22.665Z</time></trkpt><trkpt lat="44.4539067" lon="9.1924817"><ele>386.0</ele><time>2026-04-21T11:45:23.665Z</time></trkpt><trkpt lat="44.45396" lon="9.1923633"><ele>386.0</ele><time>2026-04-21T11:45:24.664Z</time></trkpt><trkpt lat="44.4540233" lon="9.1922567"><ele>386.0</ele><time>2026-04-21T11:45:25.665Z</time></trkpt><trkpt lat="44.45409" lon="9.1921567"><ele>382.8</ele><time>2026-04-21T11:45:26.665Z</time></trkpt><trkpt lat="44.454175" lon="9.1920733"><ele>379.6</ele><time>2026-04-21T11:45:27.665Z</time></trkpt><trkpt lat="44.4542533" lon="9.1919967"><ele>376.4</ele><time>2026-04-21T11:45:28.665Z</time></trkpt><trkpt lat="44.45433" lon="9.1919267"><ele>373.2</ele><time>2026-04-21T11:45:29.665Z</time></trkpt><trkpt lat="44.4543883" lon="9.1918467"><ele>370.0</ele><time>2026-04-21T11:45:30.664Z</time></trkpt><trkpt lat="44.4544283" lon="9.19175"><ele>370.0</ele><time>2026-04-21T11:45:31.665Z</time></trkpt><trkpt lat="44.454455" lon="9.191645"><ele>370.0</ele><time>2026-04-21T11:45:32.664Z</time></trkpt><trkpt lat="44.4544817" lon="9.1915583"><ele>370.0</ele><time>2026-04-21T11:45:33.665Z</time></trkpt><trkpt lat="44.4545517" lon="9.1914283"><ele>370.0</ele><time>2026-04-21T11:45:35.665Z</time></trkpt><trkpt lat="44.4546033" lon="9.1913717"><ele>370.0</ele><time>2026-04-21T11:45:36.664Z</time></trkpt><trkpt lat="44.4546783" lon="9.1912983"><ele>370.0</ele><time>2026-04-21T11:45:37.664Z</time></trkpt><trkpt lat="44.4547683" lon="9.191215"><ele>370.0</ele><time>2026-04-21T11:45:38.665Z</time></trkpt><trkpt lat="44.4548683" lon="9.19113"><ele>370.0</ele><time>2026-04-21T11:45:39.664Z</time></trkpt><trkpt lat="44.45496" lon="9.1910383"><ele>370.0</ele><time>2026-04-21T11:45:40.665Z</time></trkpt><trkpt lat="44.45505" lon="9.1909417"><ele>370.0</ele><time>2026-04-21T11:45:41.665Z</time></trkpt><trkpt lat="44.455135" lon="9.19085"><ele>370.0</ele><time>2026-04-21T11:45:42.665Z</time></trkpt><trkpt lat="44.4552267" lon="9.19076"><ele>370.0</ele><time>2026-04-21T11:45:43.664Z</time></trkpt><trkpt lat="44.4553167" lon="9.190675"><ele>370.0</ele><time>2026-04-21T11:45:44.664Z</time></trkpt><trkpt lat="44.4554183" lon="9.1906083"><ele>370.0</ele><time>2026-04-21T11:45:45.664Z</time></trkpt><trkpt lat="44.45552" lon="9.1905433"><ele>370.0</ele><time>2026-04-21T11:45:46.665Z</time></trkpt><trkpt lat="44.455615" lon="9.1904867"><ele>369.8333333333333</ele><time>2026-04-21T11:45:47.665Z</time></trkpt><trkpt lat="44.4556833" lon="9.19043"><ele>369.66666666666663</ele><time>2026-04-21T11:45:48.664Z</time></trkpt><trkpt lat="44.455745" lon="9.1903733"><ele>369.5</ele><time>2026-04-21T11:45:49.664Z</time></trkpt><trkpt lat="44.455795" lon="9.1902867"><ele>369.3333333333333</ele><time>2026-04-21T11:45:50.665Z</time></trkpt><trkpt lat="44.455845" lon="9.1901783"><ele>369.1666666666667</ele><time>2026-04-21T11:45:51.664Z</time></trkpt><trkpt lat="44.4559067" lon="9.1900517"><ele>369.0</ele><time>2026-04-21T11:45:52.664Z</time></trkpt><trkpt lat="44.455965" lon="9.189905"><ele>367.6</ele><time>2026-04-21T11:45:53.664Z</time></trkpt><trkpt lat="44.4560217" lon="9.1897783"><ele>366.2</ele><time>2026-04-21T11:45:54.664Z</time></trkpt><trkpt lat="44.4560633" lon="9.1896567"><ele>364.8</ele><time>2026-04-21T11:45:55.664Z</time></trkpt><trkpt lat="44.456085" lon="9.1895333"><ele>363.40000000000003</ele><time>2026-04-21T11:45:56.665Z</time></trkpt><trkpt lat="44.4560817" lon="9.1894183"><ele>362.0</ele><time>2026-04-21T11:45:57.665Z</time></trkpt><trkpt lat="44.45605" lon="9.189325"><ele>362.0</ele><time>2026-04-21T11:45:58.665Z</time></trkpt><trkpt lat="44.4559983" lon="9.1892367"><ele>362.0</ele><time>2026-04-21T11:45:59.664Z</time></trkpt><trkpt lat="44.4559433" lon="9.18916"><ele>362.0</ele><time>2026-04-21T11:46:00.664Z</time></trkpt><trkpt lat="44.4558667" lon="9.1891133"><ele>362.0</ele><time>2026-04-21T11:46:01.664Z</time></trkpt><trkpt lat="44.455785" lon="9.1890983"><ele>362.0</ele><time>2026-04-21T11:46:02.665Z</time></trkpt><trkpt lat="44.4557" lon="9.189135"><ele>362.0</ele><time>2026-04-21T11:46:03.664Z</time></trkpt><trkpt lat="44.4556117" lon="9.1892233"><ele>362.0</ele><time>2026-04-21T11:46:04.665Z</time></trkpt><trkpt lat="44.45551" lon="9.1893317"><ele>362.0</ele><time>2026-04-21T11:46:05.665Z</time></trkpt><trkpt lat="44.455395" lon="9.1894817"><ele>362.0</ele><time>2026-04-21T11:46:06.665Z</time></trkpt><trkpt lat="44.4552883" lon="9.1896417"><ele>362.0</ele><time>2026-04-21T11:46:07.664Z</time></trkpt><trkpt lat="44.455195" lon="9.1897867"><ele>360.5</ele><time>2026-04-21T11:46:08.665Z</time></trkpt><trkpt lat="44.455085" lon="9.1899083"><ele>359.0</ele><time>2026-04-21T11:46:09.664Z</time></trkpt><trkpt lat="44.454985" lon="9.1900217"><ele>357.5</ele><time>2026-04-21T11:46:10.665Z</time></trkpt><trkpt lat="44.45488" lon="9.1901133"><ele>356.0</ele><time>2026-04-21T11:46:11.664Z</time></trkpt><trkpt lat="44.45476" lon="9.190185"><ele>356.0</ele><time>2026-04-21T11:46:12.664Z</time></trkpt><trkpt lat="44.4546483" lon="9.19024"><ele>356.0</ele><time>2026-04-21T11:46:13.665Z</time></trkpt><trkpt lat="44.454545" lon="9.190285"><ele>356.0</ele><time>2026-04-21T11:46:14.664Z</time></trkpt><trkpt lat="44.45445" lon="9.190345"><ele>356.0</ele><time>2026-04-21T11:46:15.664Z</time></trkpt><trkpt lat="44.4543767" lon="9.1904083"><ele>356.0</ele><time>2026-04-21T11:46:16.664Z</time></trkpt><trkpt lat="44.454315" lon="9.1904667"><ele>355.85714285714283</ele><time>2026-04-21T11:46:17.665Z</time></trkpt><trkpt lat="44.4542683" lon="9.1905433"><ele>355.7142857142857</ele><time>2026-04-21T11:46:18.664Z</time></trkpt><trkpt lat="44.454215" lon="9.1906167"><ele>355.57142857142856</ele><time>2026-04-21T11:46:19.665Z</time></trkpt><trkpt lat="44.4541567" lon="9.1906867"><ele>355.42857142857144</ele><time>2026-04-21T11:46:20.664Z</time></trkpt><trkpt lat="44.4541" lon="9.1907467"><ele>355.2857142857143</ele><time>2026-04-21T11:46:21.665Z</time></trkpt><trkpt lat="44.4540383" lon="9.190795"><ele>355.1428571428571</ele><time>2026-04-21T11:46:22.665Z</time></trkpt><trkpt lat="44.45397" lon="9.1908283"><ele>355.0</ele><time>2026-04-21T11:46:23.665Z</time></trkpt><trkpt lat="44.4538867" lon="9.190855"><ele>355.0</ele><time>2026-04-21T11:46:24.665Z</time></trkpt><trkpt lat="44.453795" lon="9.1908633"><ele>355.0</ele><time>2026-04-21T11:46:25.664Z</time></trkpt><trkpt lat="44.4537067" lon="9.1908783"><ele>355.0</ele><time>2026-04-21T11:46:26.664Z</time></trkpt><trkpt lat="44.4536317" lon="9.19091"><ele>355.0</ele><time>2026-04-21T11:46:27.664Z</time></trkpt><trkpt lat="44.4535683" lon="9.190975"><ele>355.0</ele><time>2026-04-21T11:46:28.664Z</time></trkpt><trkpt lat="44.4535083" lon="9.191065"><ele>355.0</ele><time>2026-04-21T11:46:29.665Z</time></trkpt><trkpt lat="44.453445" lon="9.1911983"><ele>353.25</ele><time>2026-04-21T11:46:30.664Z</time></trkpt><trkpt lat="44.4533733" lon="9.1913383"><ele>351.5</ele><time>2026-04-21T11:46:31.665Z</time></trkpt><trkpt lat="44.4532933" lon="9.1914883"><ele>349.75</ele><time>2026-04-21T11:46:32.664Z</time></trkpt><trkpt lat="44.4532183" lon="9.1916283"><ele>348.0</ele><time>2026-04-21T11:46:33.664Z</time></trkpt><trkpt lat="44.4531533" lon="9.1917717"><ele>348.0</ele><time>2026-04-21T11:46:34.665Z</time></trkpt><trkpt lat="44.453105" lon="9.19191"><ele>348.0</ele><time>2026-04-21T11:46:35.665Z</time></trkpt><trkpt lat="44.4530667" lon="9.1920367"><ele>348.0</ele><time>2026-04-21T11:46:36.665Z</time></trkpt><trkpt lat="44.4530333" lon="9.192155"><ele>348.0</ele><time>2026-04-21T11:46:37.665Z</time></trkpt><trkpt lat="44.4529933" lon="9.1922467"><ele>348.0</ele><time>2026-04-21T11:46:38.665Z</time></trkpt><trkpt lat="44.45294" lon="9.19231"><ele>348.0</ele><time>2026-04-21T11:46:39.664Z</time></trkpt><trkpt lat="44.452875" lon="9.1923367"><ele>348.0</ele><time>2026-04-21T11:46:40.664Z</time></trkpt><trkpt lat="44.45281" lon="9.1923133"><ele>348.0</ele><time>2026-04-21T11:46:41.665Z</time></trkpt><trkpt lat="44.4527183" lon="9.1922233"><ele>348.0</ele><time>2026-04-21T11:46:43.665Z</time></trkpt><trkpt lat="44.4526883" lon="9.1921383"><ele>348.0</ele><time>2026-04-21T11:46:44.664Z</time></trkpt><trkpt lat="44.45266" lon="9.19202"><ele>348.0</ele><time>2026-04-21T11:46:45.664Z</time></trkpt><trkpt lat="44.4526367" lon="9.1918817"><ele>348.0</ele><time>2026-04-21T11:46:46.665Z</time></trkpt><trkpt lat="44.4526333" lon="9.19172"><ele>348.0</ele><time>2026-04-21T11:46:47.665Z</time></trkpt><trkpt lat="44.4526567" lon="9.1915283"><ele>348.0</ele><time>2026-04-21T11:46:48.664Z</time></trkpt><trkpt lat="44.4527117" lon="9.1913317"><ele>348.0</ele><time>2026-04-21T11:46:49.665Z</time></trkpt><trkpt lat="44.45277" lon="9.1911217"><ele>346.0</ele><time>2026-04-21T11:46:50.665Z</time></trkpt><trkpt lat="44.45283" lon="9.1909467"><ele>344.0</ele><time>2026-04-21T11:46:51.665Z</time></trkpt><trkpt lat="44.4528867" lon="9.1907833"><ele>342.0</ele><time>2026-04-21T11:46:52.665Z</time></trkpt><trkpt lat="44.452915" lon="9.19065"><ele>340.0</ele><time>2026-04-21T11:46:53.664Z</time></trkpt><trkpt lat="44.4529233" lon="9.1905217"><ele>337.3333333333333</ele><time>2026-04-21T11:46:54.664Z</time></trkpt><trkpt lat="44.452925" lon="9.1904167"><ele>334.66666666666663</ele><time>2026-04-21T11:46:55.665Z</time></trkpt><trkpt lat="44.452895" lon="9.1903367"><ele>332.0</ele><time>2026-04-21T11:46:56.665Z</time></trkpt><trkpt lat="44.4528583" lon="9.1902467"><ele>329.3333333333333</ele><time>2026-04-21T11:46:57.664Z</time></trkpt><trkpt lat="44.452785" lon="9.190155"><ele>326.6666666666667</ele><time>2026-04-21T11:46:58.665Z</time></trkpt><trkpt lat="44.4526833" lon="9.19006"><ele>324.0</ele><time>2026-04-21T11:46:59.665Z</time></trkpt><trkpt lat="44.4525617" lon="9.1899933"><ele>324.0</ele><time>2026-04-21T11:47:00.664Z</time></trkpt><trkpt lat="44.4524533" lon="9.18994"><ele>324.0</ele><time>2026-04-21T11:47:01.665Z</time></trkpt><trkpt lat="44.45235" lon="9.189925"><ele>324.0</ele><time>2026-04-21T11:47:02.664Z</time></trkpt><trkpt lat="44.4522317" lon="9.1899183"><ele>324.0</ele><time>2026-04-21T11:47:03.665Z</time></trkpt><trkpt lat="44.4520883" lon="9.18994"><ele>324.25</ele><time>2026-04-21T11:47:04.664Z</time></trkpt><trkpt lat="44.4519417" lon="9.18996"><ele>324.5</ele><time>2026-04-21T11:47:05.665Z</time></trkpt><trkpt lat="44.45179" lon="9.1899667"><ele>324.75</ele><time>2026-04-21T11:47:06.665Z</time></trkpt><trkpt lat="44.4516667" lon="9.1899633"><ele>325.0</ele><time>2026-04-21T11:47:07.665Z</time></trkpt><trkpt lat="44.4515533" lon="9.1899967"><ele>325.0</ele><time>2026-04-21T11:47:08.664Z</time></trkpt><trkpt lat="44.4514517" lon="9.19005"><ele>325.0</ele><time>2026-04-21T11:47:09.664Z</time></trkpt><trkpt lat="44.451365" lon="9.1901"><ele>325.0</ele><time>2026-04-21T11:47:10.664Z</time></trkpt><trkpt lat="44.4513017" lon="9.1901233"><ele>325.0</ele><time>2026-04-21T11:47:11.665Z</time></trkpt><trkpt lat="44.4512317" lon="9.1901183"><ele>325.0</ele><time>2026-04-21T11:47:12.664Z</time></trkpt><trkpt lat="44.4511617" lon="9.1900717"><ele>325.0</ele><time>2026-04-21T11:47:13.665Z</time></trkpt><trkpt lat="44.4510867" lon="9.18999"><ele>324.5</ele><time>2026-04-21T11:47:14.665Z</time></trkpt><trkpt lat="44.4509967" lon="9.189875"><ele>324.0</ele><time>2026-04-21T11:47:15.664Z</time></trkpt><trkpt lat="44.4509217" lon="9.18976"><ele>323.5</ele><time>2026-04-21T11:47:16.664Z</time></trkpt><trkpt lat="44.4508467" lon="9.1896183"><ele>323.0</ele><time>2026-04-21T11:47:17.665Z</time></trkpt><trkpt lat="44.4507767" lon="9.189475"><ele>323.0</ele><time>2026-04-21T11:47:18.664Z</time></trkpt><trkpt lat="44.4507083" lon="9.1893117"><ele>323.0</ele><time>2026-04-21T11:47:19.664Z</time></trkpt><trkpt lat="44.4506367" lon="9.18916"><ele>323.0</ele><time>2026-04-21T11:47:20.665Z</time></trkpt><trkpt lat="44.4505967" lon="9.1890317"><ele>323.0</ele><time>2026-04-21T11:47:21.665Z</time></trkpt><trkpt lat="44.4505483" lon="9.1889217"><ele>322.79999999999995</ele><time>2026-04-21T11:47:22.664Z</time></trkpt><trkpt lat="44.45048" lon="9.1888117"><ele>322.6</ele><time>2026-04-21T11:47:23.665Z</time></trkpt><trkpt lat="44.4503967" lon="9.1887367"><ele>322.4</ele><time>2026-04-21T11:47:24.664Z</time></trkpt><trkpt lat="44.4503033" lon="9.188635"><ele>322.20000000000005</ele><time>2026-04-21T11:47:25.664Z</time></trkpt><trkpt lat="44.4502017" lon="9.1885567"><ele>322.0</ele><time>2026-04-21T11:47:26.664Z</time></trkpt><trkpt lat="44.4501033" lon="9.18848"><ele>322.0</ele><time>2026-04-21T11:47:27.665Z</time></trkpt><trkpt lat="44.4499933" lon="9.1884183"><ele>322.0</ele><time>2026-04-21T11:47:28.664Z</time></trkpt><trkpt lat="44.449865" lon="9.1883717"><ele>322.0</ele><time>2026-04-21T11:47:29.665Z</time></trkpt><trkpt lat="44.4497417" lon="9.1883417"><ele>322.0</ele><time>2026-04-21T11:47:30.665Z</time></trkpt><trkpt lat="44.44962" lon="9.1883183"><ele>319.0</ele><time>2026-04-21T11:47:31.665Z</time></trkpt><trkpt lat="44.4495133" lon="9.188285"><ele>316.0</ele><time>2026-04-21T11:47:32.665Z</time></trkpt><trkpt lat="44.4494083" lon="9.188245"><ele>313.0</ele><time>2026-04-21T11:47:33.664Z</time></trkpt><trkpt lat="44.4493133" lon="9.18817"><ele>310.0</ele><time>2026-04-21T11:47:34.665Z</time></trkpt><trkpt lat="44.449225" lon="9.188075"><ele>307.0</ele><time>2026-04-21T11:47:35.664Z</time></trkpt><trkpt lat="44.44914" lon="9.18798"><ele>307.0</ele><time>2026-04-21T11:47:36.664Z</time></trkpt><trkpt lat="44.4490533" lon="9.1878983"><ele>307.0</ele><time>2026-04-21T11:47:37.665Z</time></trkpt><trkpt lat="44.4489567" lon="9.1878533"><ele>307.0</ele><time>2026-04-21T11:47:38.664Z</time></trkpt><trkpt lat="44.4488617" lon="9.1878467"><ele>307.0</ele><time>2026-04-21T11:47:39.664Z</time></trkpt><trkpt lat="44.4487617" lon="9.1878583"><ele>307.0</ele><time>2026-04-21T11:47:40.664Z</time></trkpt><trkpt lat="44.4486517" lon="9.1878383"><ele>308.0</ele><time>2026-04-21T11:47:41.664Z</time></trkpt><trkpt lat="44.4485417" lon="9.1877883"><ele>309.0</ele><time>2026-04-21T11:47:42.665Z</time></trkpt><trkpt lat="44.4484233" lon="9.1877217"><ele>310.0</ele><time>2026-04-21T11:47:43.665Z</time></trkpt><trkpt lat="44.4483017" lon="9.1876583"><ele>311.0</ele><time>2026-04-21T11:47:44.664Z</time></trkpt><trkpt lat="44.4481817" lon="9.18761"><ele>311.0</ele><time>2026-04-21T11:47:45.664Z</time></trkpt><trkpt lat="44.4480667" lon="9.187575"><ele>311.0</ele><time>2026-04-21T11:47:46.664Z</time></trkpt><trkpt lat="44.4479533" lon="9.1875483"><ele>311.0</ele><time>2026-04-21T11:47:47.664Z</time></trkpt><trkpt lat="44.44783" lon="9.1875567"><ele>311.0</ele><time>2026-04-21T11:47:48.664Z</time></trkpt><trkpt lat="44.4477033" lon="9.18758"><ele>312.25</ele><time>2026-04-21T11:47:49.664Z</time></trkpt><trkpt lat="44.4475917" lon="9.1875833"><ele>313.5</ele><time>2026-04-21T11:47:50.665Z</time></trkpt><trkpt lat="44.4474833" lon="9.1875517"><ele>314.75</ele><time>2026-04-21T11:47:51.665Z</time></trkpt><trkpt lat="44.4473683" lon="9.1875183"><ele>316.0</ele><time>2026-04-21T11:47:52.665Z</time></trkpt><trkpt lat="44.4472517" lon="9.1875017"><ele>316.0</ele><time>2026-04-21T11:47:53.664Z</time></trkpt><trkpt lat="44.4471317" lon="9.1875217"><ele>316.0</ele><time>2026-04-21T11:47:54.664Z</time></trkpt><trkpt lat="44.4469883" lon="9.1875733"><ele>316.0</ele><time>2026-04-21T11:47:55.665Z</time></trkpt><trkpt lat="44.4468467" lon="9.1876483"><ele>316.0</ele><time>2026-04-21T11:47:56.664Z</time></trkpt><trkpt lat="44.446725" lon="9.1877133"><ele>312.5</ele><time>2026-04-21T11:47:57.664Z</time></trkpt><trkpt lat="44.4466017" lon="9.1877633"><ele>309.0</ele><time>2026-04-21T11:47:58.664Z</time></trkpt><trkpt lat="44.4464783" lon="9.1877933"><ele>305.5</ele><time>2026-04-21T11:47:59.665Z</time></trkpt><trkpt lat="44.446365" lon="9.187835"><ele>302.0</ele><time>2026-04-21T11:48:00.664Z</time></trkpt><trkpt lat="44.4462567" lon="9.187885"><ele>304.25</ele><time>2026-04-21T11:48:01.664Z</time></trkpt><trkpt lat="44.446135" lon="9.1879883"><ele>306.5</ele><time>2026-04-21T11:48:02.665Z</time></trkpt><trkpt lat="44.446015" lon="9.1880867"><ele>308.75</ele><time>2026-04-21T11:48:03.664Z</time></trkpt><trkpt lat="44.4458967" lon="9.1881733"><ele>311.0</ele><time>2026-04-21T11:48:04.664Z</time></trkpt><trkpt lat="44.4457767" lon="9.1882567"><ele>311.0</ele><time>2026-04-21T11:48:05.665Z</time></trkpt><trkpt lat="44.445695" lon="9.1883383"><ele>311.0</ele><time>2026-04-21T11:48:06.665Z</time></trkpt><trkpt lat="44.44564" lon="9.1884433"><ele>311.0</ele><time>2026-04-21T11:48:07.664Z</time></trkpt><trkpt lat="44.4455967" lon="9.18857"><ele>311.0</ele><time>2026-04-21T11:48:08.664Z</time></trkpt><trkpt lat="44.445575" lon="9.188695"><ele>311.0</ele><time>2026-04-21T11:48:09.665Z</time></trkpt><trkpt lat="44.445535" lon="9.1887917"><ele>311.0</ele><time>2026-04-21T11:48:10.665Z</time></trkpt><trkpt lat="44.4454883" lon="9.188875"><ele>311.0</ele><time>2026-04-21T11:48:11.665Z</time></trkpt><trkpt lat="44.44541" lon="9.1889083"><ele>311.0</ele><time>2026-04-21T11:48:12.665Z</time></trkpt><trkpt lat="44.4453167" lon="9.1889317"><ele>311.0</ele><time>2026-04-21T11:48:13.664Z</time></trkpt><trkpt lat="44.445205" lon="9.1889467"><ele>311.0</ele><time>2026-04-21T11:48:14.665Z</time></trkpt><trkpt lat="44.4450817" lon="9.1889767"><ele>312.33333333333337</ele><time>2026-04-21T11:48:15.665Z</time></trkpt><trkpt lat="44.444945" lon="9.1890083"><ele>313.6666666666667</ele><time>2026-04-21T11:48:16.665Z</time></trkpt><trkpt lat="44.4447983" lon="9.18907"><ele>315.0</ele><time>2026-04-21T11:48:17.664Z</time></trkpt><trkpt lat="44.4446417" lon="9.1891467"><ele>308.0</ele><time>2026-04-21T11:48:18.665Z</time></trkpt><trkpt lat="44.4445" lon="9.189215"><ele>301.0</ele><time>2026-04-21T11:48:19.665Z</time></trkpt><trkpt lat="44.4443733" lon="9.1892683"><ele>294.0</ele><time>2026-04-21T11:48:20.664Z</time></trkpt><trkpt lat="44.4442733" lon="9.1892883"><ele>287.0</ele><time>2026-04-21T11:48:21.664Z</time></trkpt><trkpt lat="44.4441817" lon="9.189305"><ele>287.0</ele><time>2026-04-21T11:48:22.665Z</time></trkpt><trkpt lat="44.4440933" lon="9.18934"><ele>287.0</ele><time>2026-04-21T11:48:23.664Z</time></trkpt><trkpt lat="44.4440117" lon="9.1894267"><ele>287.0</ele><time>2026-04-21T11:48:24.664Z</time></trkpt><trkpt lat="44.443945" lon="9.1895283"><ele>287.0</ele><time>2026-04-21T11:48:25.665Z</time></trkpt><trkpt lat="44.4438833" lon="9.1896367"><ele>287.0</ele><time>2026-04-21T11:48:26.664Z</time></trkpt><trkpt lat="44.4438183" lon="9.1897"><ele>288.0</ele><time>2026-04-21T11:48:27.664Z</time></trkpt><trkpt lat="44.4437417" lon="9.1897333"><ele>289.0</ele><time>2026-04-21T11:48:28.664Z</time></trkpt><trkpt lat="44.4436467" lon="9.1897433"><ele>290.0</ele><time>2026-04-21T11:48:29.664Z</time></trkpt><trkpt lat="44.4435333" lon="9.1897733"><ele>291.0</ele><time>2026-04-21T11:48:30.665Z</time></trkpt><trkpt lat="44.44342" lon="9.189835"><ele>292.0</ele><time>2026-04-21T11:48:31.665Z</time></trkpt><trkpt lat="44.4433183" lon="9.1898983"><ele>292.0</ele><time>2026-04-21T11:48:32.664Z</time></trkpt><trkpt lat="44.4432283" lon="9.189965"><ele>292.0</ele><time>2026-04-21T11:48:33.664Z</time></trkpt><trkpt lat="44.44316" lon="9.1900383"><ele>292.0</ele><time>2026-04-21T11:48:34.665Z</time></trkpt><trkpt lat="44.4430917" lon="9.1901117"><ele>292.0</ele><time>2026-04-21T11:48:35.665Z</time></trkpt><trkpt lat="44.4430067" lon="9.1901483"><ele>292.0</ele><time>2026-04-21T11:48:36.664Z</time></trkpt><trkpt lat="44.442915" lon="9.1901617"><ele>291.3333333333333</ele><time>2026-04-21T11:48:37.665Z</time></trkpt><trkpt lat="44.4428183" lon="9.190185"><ele>290.66666666666663</ele><time>2026-04-21T11:48:38.664Z</time></trkpt><trkpt lat="44.4427333" lon="9.1902167"><ele>290.0</ele><time>2026-04-21T11:48:39.664Z</time></trkpt><trkpt lat="44.442645" lon="9.1902633"><ele>289.3333333333333</ele><time>2026-04-21T11:48:40.664Z</time></trkpt><trkpt lat="44.44256" lon="9.190275"><ele>288.6666666666667</ele><time>2026-04-21T11:48:41.664Z</time></trkpt><trkpt lat="44.442485" lon="9.1902517"><ele>288.0</ele><time>2026-04-21T11:48:42.664Z</time></trkpt><trkpt lat="44.4424167" lon="9.190215"><ele>288.0</ele><time>2026-04-21T11:48:43.664Z</time></trkpt><trkpt lat="44.4423417" lon="9.1901117"><ele>288.0</ele><time>2026-04-21T11:48:44.664Z</time></trkpt><trkpt lat="44.4422567" lon="9.189985"><ele>288.0</ele><time>2026-04-21T11:48:45.664Z</time></trkpt><trkpt lat="44.4421533" lon="9.189845"><ele>288.0</ele><time>2026-04-21T11:48:46.664Z</time></trkpt><trkpt lat="44.44205" lon="9.1897167"><ele>286.4</ele><time>2026-04-21T11:48:47.665Z</time></trkpt><trkpt lat="44.4419617" lon="9.1895683"><ele>284.8</ele><time>2026-04-21T11:48:48.664Z</time></trkpt><trkpt lat="44.4419117" lon="9.1894283"><ele>283.2</ele><time>2026-04-21T11:48:49.664Z</time></trkpt><trkpt lat="44.4419033" lon="9.1892933"><ele>281.6</ele><time>2026-04-21T11:48:50.665Z</time></trkpt><trkpt lat="44.44189" lon="9.1891767"><ele>280.0</ele><time>2026-04-21T11:48:51.664Z</time></trkpt><trkpt lat="44.4418567" lon="9.1890917"><ele>280.0</ele><time>2026-04-21T11:48:52.664Z</time></trkpt><trkpt lat="44.44181" lon="9.18901"><ele>280.0</ele><time>2026-04-21T11:48:53.665Z</time></trkpt><trkpt lat="44.4417517" lon="9.188955"><ele>280.0</ele><time>2026-04-21T11:48:54.664Z</time></trkpt><trkpt lat="44.4416833" lon="9.18894"><ele>280.0</ele><time>2026-04-21T11:48:55.665Z</time></trkpt><trkpt lat="44.4415917" lon="9.1889567"><ele>280.0</ele><time>2026-04-21T11:48:56.665Z</time></trkpt><trkpt lat="44.4414717" lon="9.1889933"><ele>280.0</ele><time>2026-04-21T11:48:57.664Z</time></trkpt><trkpt lat="44.441345" lon="9.1889967"><ele>271.0</ele><time>2026-04-21T11:48:58.665Z</time></trkpt><trkpt lat="44.4412083" lon="9.1889783"><ele>262.0</ele><time>2026-04-21T11:48:59.664Z</time></trkpt><trkpt lat="44.4410617" lon="9.18896"><ele>253.0</ele><time>2026-04-21T11:49:00.664Z</time></trkpt><trkpt lat="44.4409217" lon="9.1889383"><ele>244.0</ele><time>2026-04-21T11:49:01.665Z</time></trkpt><trkpt lat="44.44079" lon="9.1889217"><ele>244.0</ele><time>2026-04-21T11:49:02.664Z</time></trkpt><trkpt lat="44.4406717" lon="9.1888917"><ele>243.99999999999997</ele><time>2026-04-21T11:49:03.664Z</time></trkpt><trkpt lat="44.4405733" lon="9.1888583"><ele>243.99999999999997</ele><time>2026-04-21T11:49:04.664Z</time></trkpt><trkpt lat="44.4404867" lon="9.188815"><ele>244.0</ele><time>2026-04-21T11:49:05.665Z</time></trkpt><trkpt lat="44.4404183" lon="9.1887417"><ele>244.0</ele><time>2026-04-21T11:49:06.664Z</time></trkpt><trkpt lat="44.4403583" lon="9.1886533"><ele>245.2</ele><time>2026-04-21T11:49:07.665Z</time></trkpt><trkpt lat="44.440295" lon="9.1885783"><ele>246.39999999999998</ele><time>2026-04-21T11:49:08.665Z</time></trkpt><trkpt lat="44.44021" lon="9.18852"><ele>247.6</ele><time>2026-04-21T11:49:09.664Z</time></trkpt><trkpt lat="44.44012" lon="9.1884883"><ele>248.8</ele><time>2026-04-21T11:49:10.664Z</time></trkpt><trkpt lat="44.44003" lon="9.1884983"><ele>250.0</ele><time>2026-04-21T11:49:11.664Z</time></trkpt><trkpt lat="44.439945" lon="9.1885383"><ele>249.99999999999997</ele><time>2026-04-21T11:49:12.665Z</time></trkpt><trkpt lat="44.439865" lon="9.18858"><ele>250.0</ele><time>2026-04-21T11:49:13.665Z</time></trkpt><trkpt lat="44.4397833" lon="9.18863"><ele>250.0</ele><time>2026-04-21T11:49:14.665Z</time></trkpt><trkpt lat="44.4397083" lon="9.1886383"><ele>250.0</ele><time>2026-04-21T11:49:15.664Z</time></trkpt><trkpt lat="44.4396283" lon="9.18859"><ele>249.99999999999997</ele><time>2026-04-21T11:49:16.664Z</time></trkpt><trkpt lat="44.4395417" lon="9.1885367"><ele>250.0</ele><time>2026-04-21T11:49:17.664Z</time></trkpt><trkpt lat="44.4394517" lon="9.1885033"><ele>249.0</ele><time>2026-04-21T11:49:18.664Z</time></trkpt><trkpt lat="44.4393583" lon="9.1885017"><ele>248.0</ele><time>2026-04-21T11:49:19.664Z</time></trkpt><trkpt lat="44.439265" lon="9.1885367"><ele>247.0</ele><time>2026-04-21T11:49:20.664Z</time></trkpt><trkpt lat="44.43918" lon="9.1885783"><ele>246.0</ele><time>2026-04-21T11:49:21.665Z</time></trkpt><trkpt lat="44.4390733" lon="9.1886067"><ele>245.0</ele><time>2026-04-21T11:49:22.664Z</time></trkpt><trkpt lat="44.4389483" lon="9.1886067"><ele>245.0</ele><time>2026-04-21T11:49:23.664Z</time></trkpt><trkpt lat="44.4388067" lon="9.1886067"><ele>245.0</ele><time>2026-04-21T11:49:24.665Z</time></trkpt><trkpt lat="44.438675" lon="9.188615"><ele>245.0</ele><time>2026-04-21T11:49:25.665Z</time></trkpt><trkpt lat="44.438565" lon="9.1886017"><ele>245.0</ele><time>2026-04-21T11:49:26.664Z</time></trkpt><trkpt lat="44.4384783" lon="9.1885733"><ele>244.50000000000003</ele><time>2026-04-21T11:49:27.664Z</time></trkpt><trkpt lat="44.4383983" lon="9.1885083"><ele>244.0</ele><time>2026-04-21T11:49:28.664Z</time></trkpt><trkpt lat="44.4383367" lon="9.1884267"><ele>243.5</ele><time>2026-04-21T11:49:29.665Z</time></trkpt><trkpt lat="44.43826" lon="9.1883567"><ele>243.0</ele><time>2026-04-21T11:49:30.665Z</time></trkpt><trkpt lat="44.4381817" lon="9.188305"><ele>242.50000000000003</ele><time>2026-04-21T11:49:31.665Z</time></trkpt><trkpt lat="44.4381033" lon="9.1882733"><ele>242.0</ele><time>2026-04-21T11:49:32.665Z</time></trkpt><trkpt lat="44.4380317" lon="9.18828"><ele>243.66666666666669</ele><time>2026-04-21T11:49:33.665Z</time></trkpt><trkpt lat="44.4379583" lon="9.1883183"><ele>245.33333333333334</ele><time>2026-04-21T11:49:34.664Z</time></trkpt><trkpt lat="44.4378883" lon="9.1884233"><ele>247.0</ele><time>2026-04-21T11:49:35.664Z</time></trkpt><trkpt lat="44.4378433" lon="9.1885067"><ele>248.66666666666669</ele><time>2026-04-21T11:49:36.665Z</time></trkpt><trkpt lat="44.4377317" lon="9.1885683"><ele>250.33333333333334</ele><time>2026-04-21T11:49:38.664Z</time></trkpt><trkpt lat="44.43766" lon="9.188565"><ele>252.0</ele><time>2026-04-21T11:49:39.664Z</time></trkpt><trkpt lat="44.43758" lon="9.18853"><ele>252.0</ele><time>2026-04-21T11:49:40.664Z</time></trkpt><trkpt lat="44.4375117" lon="9.1884483"><ele>252.0</ele><time>2026-04-21T11:49:41.664Z</time></trkpt><trkpt lat="44.43746" lon="9.1883317"><ele>252.0</ele><time>2026-04-21T11:49:42.664Z</time></trkpt><trkpt lat="44.437415" lon="9.1881633"><ele>252.0</ele><time>2026-04-21T11:49:43.665Z</time></trkpt><trkpt lat="44.437345" lon="9.18804"><ele>252.0</ele><time>2026-04-21T11:49:44.665Z</time></trkpt><trkpt lat="44.437275" lon="9.1879233"><ele>249.0</ele><time>2026-04-21T11:49:45.664Z</time></trkpt><trkpt lat="44.4371817" lon="9.1878317"><ele>246.0</ele><time>2026-04-21T11:49:46.665Z</time></trkpt><trkpt lat="44.43708" lon="9.18776"><ele>243.0</ele><time>2026-04-21T11:49:47.664Z</time></trkpt><trkpt lat="44.4369917" lon="9.1877383"><ele>240.0</ele><time>2026-04-21T11:49:48.664Z</time></trkpt><trkpt lat="44.43691" lon="9.187755"><ele>237.0</ele><time>2026-04-21T11:49:49.665Z</time></trkpt><trkpt lat="44.4368383" lon="9.1877933"><ele>237.0</ele><time>2026-04-21T11:49:50.664Z</time></trkpt><trkpt lat="44.43677" lon="9.18782"><ele>237.0</ele><time>2026-04-21T11:49:51.664Z</time></trkpt><trkpt lat="44.4366917" lon="9.1878233"><ele>237.0</ele><time>2026-04-21T11:49:52.664Z</time></trkpt><trkpt lat="44.436605" lon="9.1878017"><ele>237.0</ele><time>2026-04-21T11:49:53.665Z</time></trkpt><trkpt lat="44.436495" lon="9.18773"><ele>237.0</ele><time>2026-04-21T11:49:54.665Z</time></trkpt><trkpt lat="44.4363767" lon="9.1875967"><ele>237.33333333333331</ele><time>2026-04-21T11:49:55.664Z</time></trkpt><trkpt lat="44.4362433" lon="9.1873567"><ele>237.66666666666666</ele><time>2026-04-21T11:49:56.665Z</time></trkpt><trkpt lat="44.4361183" lon="9.1871367"><ele>238.0</ele><time>2026-04-21T11:49:57.665Z</time></trkpt><trkpt lat="44.4359967" lon="9.1869517"><ele>238.0</ele><time>2026-04-21T11:49:58.665Z</time></trkpt><trkpt lat="44.4359083" lon="9.18677"><ele>238.0</ele><time>2026-04-21T11:49:59.665Z</time></trkpt><trkpt lat="44.4358383" lon="9.1865967"><ele>238.0</ele><time>2026-04-21T11:50:00.664Z</time></trkpt><trkpt lat="44.4357833" lon="9.1864517"><ele>238.0</ele><time>2026-04-21T11:50:01.665Z</time></trkpt><trkpt lat="44.435725" lon="9.1863433"><ele>229.5</ele><time>2026-04-21T11:50:02.665Z</time></trkpt><trkpt lat="44.435645" lon="9.186275"><ele>221.0</ele><time>2026-04-21T11:50:03.665Z</time></trkpt><trkpt lat="44.4355317" lon="9.186225"><ele>212.5</ele><time>2026-04-21T11:50:04.665Z</time></trkpt><trkpt lat="44.4353917" lon="9.1862067"><ele>204.0</ele><time>2026-04-21T11:50:05.664Z</time></trkpt><trkpt lat="44.4352267" lon="9.18624"><ele>203.5</ele><time>2026-04-21T11:50:06.665Z</time></trkpt><trkpt lat="44.4350733" lon="9.186265"><ele>203.0</ele><time>2026-04-21T11:50:07.664Z</time></trkpt><trkpt lat="44.4349383" lon="9.186305"><ele>202.5</ele><time>2026-04-21T11:50:08.664Z</time></trkpt><trkpt lat="44.4348217" lon="9.186305"><ele>202.0</ele><time>2026-04-21T11:50:09.664Z</time></trkpt><trkpt lat="44.434715" lon="9.1862917"><ele>201.75</ele><time>2026-04-21T11:50:10.664Z</time></trkpt><trkpt lat="44.4346033" lon="9.1862383"><ele>201.5</ele><time>2026-04-21T11:50:11.665Z</time></trkpt><trkpt lat="44.4344833" lon="9.1861783"><ele>201.25</ele><time>2026-04-21T11:50:12.664Z</time></trkpt><trkpt lat="44.4343633" lon="9.1861267"><ele>201.0</ele><time>2026-04-21T11:50:13.664Z</time></trkpt><trkpt lat="44.4342483" lon="9.186095"><ele>201.0</ele><time>2026-04-21T11:50:14.664Z</time></trkpt><trkpt lat="44.4341417" lon="9.1860833"><ele>201.0</ele><time>2026-04-21T11:50:15.664Z</time></trkpt><trkpt lat="44.4340483" lon="9.1860917"><ele>201.0</ele><time>2026-04-21T11:50:16.664Z</time></trkpt><trkpt lat="44.4339667" lon="9.1861283"><ele>201.0</ele><time>2026-04-21T11:50:17.664Z</time></trkpt><trkpt lat="44.4338883" lon="9.186185"><ele>201.0</ele><time>2026-04-21T11:50:18.664Z</time></trkpt><trkpt lat="44.4338083" lon="9.1862617"><ele>199.20000000000002</ele><time>2026-04-21T11:50:19.664Z</time></trkpt><trkpt lat="44.433725" lon="9.1863433"><ele>197.4</ele><time>2026-04-21T11:50:20.665Z</time></trkpt><trkpt lat="44.4336317" lon="9.18642"><ele>195.6</ele><time>2026-04-21T11:50:21.664Z</time></trkpt><trkpt lat="44.43353" lon="9.1864767"><ele>193.8</ele><time>2026-04-21T11:50:22.665Z</time></trkpt><trkpt lat="44.4334117" lon="9.1864733"><ele>192.0</ele><time>2026-04-21T11:50:23.664Z</time></trkpt><trkpt lat="44.4332683" lon="9.1864433"><ele>192.0</ele><time>2026-04-21T11:50:24.665Z</time></trkpt><trkpt lat="44.4331033" lon="9.18641"><ele>192.0</ele><time>2026-04-21T11:50:25.664Z</time></trkpt><trkpt lat="44.4329333" lon="9.18638"><ele>192.0</ele><time>2026-04-21T11:50:26.664Z</time></trkpt><trkpt lat="44.4327733" lon="9.1863533"><ele>191.5</ele><time>2026-04-21T11:50:27.664Z</time></trkpt><trkpt lat="44.4326233" lon="9.1862917"><ele>191.0</ele><time>2026-04-21T11:50:28.665Z</time></trkpt><trkpt lat="44.432495" lon="9.1861967"><ele>190.5</ele><time>2026-04-21T11:50:29.664Z</time></trkpt><trkpt lat="44.432365" lon="9.1861183"><ele>190.0</ele><time>2026-04-21T11:50:30.665Z</time></trkpt><trkpt lat="44.432245" lon="9.1860517"><ele>190.0</ele><time>2026-04-21T11:50:31.664Z</time></trkpt><trkpt lat="44.4321433" lon="9.1859583"><ele>190.0</ele><time>2026-04-21T11:50:32.664Z</time></trkpt><trkpt lat="44.4320617" lon="9.1858467"><ele>190.0</ele><time>2026-04-21T11:50:33.664Z</time></trkpt><trkpt lat="44.4319933" lon="9.18573"><ele>190.0</ele><time>2026-04-21T11:50:34.665Z</time></trkpt><trkpt lat="44.4319383" lon="9.1856133"><ele>190.0</ele><time>2026-04-21T11:50:35.665Z</time></trkpt><trkpt lat="44.4318917" lon="9.1854983"><ele>188.2</ele><time>2026-04-21T11:50:36.664Z</time></trkpt><trkpt lat="44.4318333" lon="9.1854083"><ele>186.4</ele><time>2026-04-21T11:50:37.665Z</time></trkpt><trkpt lat="44.4317817" lon="9.1853517"><ele>184.60000000000002</ele><time>2026-04-21T11:50:38.665Z</time></trkpt><trkpt lat="44.4316467" lon="9.18539"><ele>182.8</ele><time>2026-04-21T11:50:40.664Z</time></trkpt><trkpt lat="44.4315417" lon="9.1854583"><ele>181.0</ele><time>2026-04-21T11:50:41.664Z</time></trkpt><trkpt lat="44.4314267" lon="9.18554"><ele>181.0</ele><time>2026-04-21T11:50:42.664Z</time></trkpt><trkpt lat="44.431305" lon="9.1856017"><ele>181.0</ele><time>2026-04-21T11:50:43.665Z</time></trkpt><trkpt lat="44.4311883" lon="9.185625"><ele>181.0</ele><time>2026-04-21T11:50:44.665Z</time></trkpt><trkpt lat="44.4310767" lon="9.1856233"><ele>181.0</ele><time>2026-04-21T11:50:45.665Z</time></trkpt><trkpt lat="44.43098" lon="9.1856283"><ele>181.0</ele><time>2026-04-21T11:50:46.664Z</time></trkpt><trkpt lat="44.430885" lon="9.1856417"><ele>181.0</ele><time>2026-04-21T11:50:47.665Z</time></trkpt><trkpt lat="44.4308033" lon="9.1856233"><ele>181.0</ele><time>2026-04-21T11:50:48.664Z</time></trkpt><trkpt lat="44.4307317" lon="9.1856033"><ele>181.0</ele><time>2026-04-21T11:50:49.664Z</time></trkpt><trkpt lat="44.43066" lon="9.1855233"><ele>181.0</ele><time>2026-04-21T11:50:51.664Z</time></trkpt><trkpt lat="44.430705" lon="9.1854083"><ele>181.0</ele><time>2026-04-21T11:50:53.665Z</time></trkpt><trkpt lat="44.430785" lon="9.1853583"><ele>181.0</ele><time>2026-04-21T11:50:54.665Z</time></trkpt><trkpt lat="44.4309033" lon="9.1852967"><ele>181.0</ele><time>2026-04-21T11:50:55.664Z</time></trkpt><trkpt lat="44.4310683" lon="9.1852067"><ele>181.0</ele><time>2026-04-21T11:50:56.665Z</time></trkpt><trkpt lat="44.4312667" lon="9.1850667"><ele>181.0</ele><time>2026-04-21T11:50:57.664Z</time></trkpt><trkpt lat="44.4314533" lon="9.1849167"><ele>181.0</ele><time>2026-04-21T11:50:58.664Z</time></trkpt><trkpt lat="44.43158" lon="9.184805"><ele>181.0</ele><time>2026-04-21T11:50:59.664Z</time></trkpt><trkpt lat="44.4316683" lon="9.184725"><ele>178.20000000000002</ele><time>2026-04-21T11:51:00.665Z</time></trkpt><trkpt lat="44.431715" lon="9.1846467"><ele>175.4</ele><time>2026-04-21T11:51:01.665Z</time></trkpt><trkpt lat="44.4317233" lon="9.184505"><ele>172.6</ele><time>2026-04-21T11:51:03.665Z</time></trkpt><trkpt lat="44.4316167" lon="9.18442"><ele>169.8</ele><time>2026-04-21T11:51:05.665Z</time></trkpt><trkpt lat="44.43154" lon="9.18442"><ele>167.0</ele><time>2026-04-21T11:51:06.665Z</time></trkpt><trkpt lat="44.431425" lon="9.1844517"><ele>167.0</ele><time>2026-04-21T11:51:07.664Z</time></trkpt><trkpt lat="44.4312967" lon="9.1844867"><ele>167.0</ele><time>2026-04-21T11:51:08.665Z</time></trkpt><trkpt lat="44.4311783" lon="9.1845017"><ele>167.0</ele><time>2026-04-21T11:51:09.665Z</time></trkpt><trkpt lat="44.431055" lon="9.1844817"><ele>167.0</ele><time>2026-04-21T11:51:10.665Z</time></trkpt><trkpt lat="44.43092" lon="9.1844417"><ele>167.0</ele><time>2026-04-21T11:51:11.664Z</time></trkpt><trkpt lat="44.430815" lon="9.1844033"><ele>167.0</ele><time>2026-04-21T11:51:12.664Z</time></trkpt><trkpt lat="44.43072" lon="9.1843733"><ele>167.0</ele><time>2026-04-21T11:51:13.665Z</time></trkpt><trkpt lat="44.430645" lon="9.184325"><ele>167.0</ele><time>2026-04-21T11:51:14.665Z</time></trkpt><trkpt lat="44.4305867" lon="9.1842317"><ele>167.0</ele><time>2026-04-21T11:51:15.665Z</time></trkpt><trkpt lat="44.4305517" lon="9.1841183"><ele>167.5</ele><time>2026-04-21T11:51:16.664Z</time></trkpt><trkpt lat="44.43054" lon="9.1839667"><ele>168.0</ele><time>2026-04-21T11:51:17.665Z</time></trkpt><trkpt lat="44.4305383" lon="9.183805"><ele>168.5</ele><time>2026-04-21T11:51:18.664Z</time></trkpt><trkpt lat="44.4305017" lon="9.1836383"><ele>169.0</ele><time>2026-04-21T11:51:19.664Z</time></trkpt><trkpt lat="44.4304483" lon="9.1834783"><ele>169.0</ele><time>2026-04-21T11:51:20.664Z</time></trkpt><trkpt lat="44.4303883" lon="9.183325"><ele>169.0</ele><time>2026-04-21T11:51:21.665Z</time></trkpt><trkpt lat="44.4303183" lon="9.1832183"><ele>169.0</ele><time>2026-04-21T11:51:22.664Z</time></trkpt><trkpt lat="44.4302383" lon="9.1831183"><ele>169.0</ele><time>2026-04-21T11:51:23.665Z</time></trkpt><trkpt lat="44.4301583" lon="9.18303"><ele>169.0</ele><time>2026-04-21T11:51:24.664Z</time></trkpt><trkpt lat="44.4300767" lon="9.182945"><ele>166.0</ele><time>2026-04-21T11:51:25.664Z</time></trkpt><trkpt lat="44.43" lon="9.1828683"><ele>163.0</ele><time>2026-04-21T11:51:26.664Z</time></trkpt><trkpt lat="44.429925" lon="9.1827933"><ele>160.0</ele><time>2026-04-21T11:51:27.664Z</time></trkpt><trkpt lat="44.4298667" lon="9.182725"><ele>157.0</ele><time>2026-04-21T11:51:28.664Z</time></trkpt><trkpt lat="44.429785" lon="9.1826333"><ele>154.0</ele><time>2026-04-21T11:51:30.664Z</time></trkpt><trkpt lat="44.42968" lon="9.1826417"><ele>153.4</ele><time>2026-04-21T11:51:37.664Z</time></trkpt><trkpt lat="44.429615" lon="9.18268"><ele>152.8</ele><time>2026-04-21T11:51:38.665Z</time></trkpt><trkpt lat="44.4295467" lon="9.1827533"><ele>152.2</ele><time>2026-04-21T11:51:39.664Z</time></trkpt><trkpt lat="44.4294717" lon="9.1828733"><ele>151.6</ele><time>2026-04-21T11:51:40.665Z</time></trkpt><trkpt lat="44.4294017" lon="9.1830117"><ele>151.0</ele><time>2026-04-21T11:51:41.664Z</time></trkpt><trkpt lat="44.4293433" lon="9.1831517"><ele>152.2</ele><time>2026-04-21T11:51:42.665Z</time></trkpt><trkpt lat="44.42923" lon="9.18325"><ele>153.39999999999998</ele><time>2026-04-21T11:51:43.665Z</time></trkpt><trkpt lat="44.4291933" lon="9.1833833"><ele>154.6</ele><time>2026-04-21T11:51:44.664Z</time></trkpt><trkpt lat="44.4291717" lon="9.1835133"><ele>155.79999999999998</ele><time>2026-04-21T11:51:45.664Z</time></trkpt><trkpt lat="44.4291767" lon="9.183675"><ele>157.0</ele><time>2026-04-21T11:51:46.665Z</time></trkpt><trkpt lat="44.42917" lon="9.1838317"><ele>157.0</ele><time>2026-04-21T11:51:47.664Z</time></trkpt><trkpt lat="44.42916" lon="9.1839933"><ele>157.0</ele><time>2026-04-21T11:51:48.665Z</time></trkpt><trkpt lat="44.4291667" lon="9.18416"><ele>157.0</ele><time>2026-04-21T11:51:49.664Z</time></trkpt><trkpt lat="44.42917" lon="9.1843317"><ele>157.0</ele><time>2026-04-21T11:51:50.664Z</time></trkpt><trkpt lat="44.429175" lon="9.184515"><ele>157.0</ele><time>2026-04-21T11:51:51.665Z</time></trkpt><trkpt lat="44.4291833" lon="9.18471"><ele>157.0</ele><time>2026-04-21T11:51:52.664Z</time></trkpt><trkpt lat="44.4292" lon="9.1849017"><ele>157.0</ele><time>2026-04-21T11:51:53.664Z</time></trkpt><trkpt lat="44.4292083" lon="9.1850983"><ele>157.0</ele><time>2026-04-21T11:51:54.665Z</time></trkpt><trkpt lat="44.4292183" lon="9.18529"><ele>155.5</ele><time>2026-04-21T11:51:55.664Z</time></trkpt><trkpt lat="44.429245" lon="9.1854817"><ele>154.0</ele><time>2026-04-21T11:51:56.664Z</time></trkpt><trkpt lat="44.429235" lon="9.1856917"><ele>152.5</ele><time>2026-04-21T11:51:57.665Z</time></trkpt><trkpt lat="44.4292517" lon="9.1859"><ele>151.0</ele><time>2026-04-21T11:51:58.665Z</time></trkpt><trkpt lat="44.42927" lon="9.1860917"><ele>150.25</ele><time>2026-04-21T11:51:59.664Z</time></trkpt><trkpt lat="44.429295" lon="9.1862833"><ele>149.5</ele><time>2026-04-21T11:52:00.664Z</time></trkpt><trkpt lat="44.4293067" lon="9.1864667"><ele>148.75</ele><time>2026-04-21T11:52:01.664Z</time></trkpt><trkpt lat="44.4293233" lon="9.1866567"><ele>148.0</ele><time>2026-04-21T11:52:02.664Z</time></trkpt><trkpt lat="44.4293267" lon="9.1868567"><ele>147.5</ele><time>2026-04-21T11:52:03.664Z</time></trkpt><trkpt lat="44.4293367" lon="9.1870533"><ele>147.0</ele><time>2026-04-21T11:52:04.664Z</time></trkpt><trkpt lat="44.4293567" lon="9.1872517"><ele>146.5</ele><time>2026-04-21T11:52:05.664Z</time></trkpt><trkpt lat="44.42938" lon="9.1874567"><ele>146.0</ele><time>2026-04-21T11:52:06.665Z</time></trkpt><trkpt lat="44.4294" lon="9.1876767"><ele>144.66666666666666</ele><time>2026-04-21T11:52:07.664Z</time></trkpt><trkpt lat="44.4294133" lon="9.187895"><ele>143.33333333333334</ele><time>2026-04-21T11:52:08.665Z</time></trkpt><trkpt lat="44.4294317" lon="9.1881067"><ele>142.0</ele><time>2026-04-21T11:52:09.665Z</time></trkpt><trkpt lat="44.429445" lon="9.1883033"><ele>142.0</ele><time>2026-04-21T11:52:10.665Z</time></trkpt><trkpt lat="44.4294433" lon="9.1884967"><ele>142.0</ele><time>2026-04-21T11:52:11.665Z</time></trkpt><trkpt lat="44.4294367" lon="9.1887017"><ele>142.0</ele><time>2026-04-21T11:52:12.664Z</time></trkpt><trkpt lat="44.4294333" lon="9.18889"><ele>142.0</ele><time>2026-04-21T11:52:13.664Z</time></trkpt><trkpt lat="44.429415" lon="9.1890917"><ele>142.5</ele><time>2026-04-21T11:52:14.665Z</time></trkpt><trkpt lat="44.4293967" lon="9.189305"><ele>143.0</ele><time>2026-04-21T11:52:15.665Z</time></trkpt><trkpt lat="44.42936" lon="9.1894917"><ele>143.5</ele><time>2026-04-21T11:52:16.665Z</time></trkpt><trkpt lat="44.4293067" lon="9.1896683"><ele>144.0</ele><time>2026-04-21T11:52:17.665Z</time></trkpt><trkpt lat="44.4292417" lon="9.18984"><ele>146.0</ele><time>2026-04-21T11:52:18.665Z</time></trkpt><trkpt lat="44.4291667" lon="9.1900033"><ele>148.0</ele><time>2026-04-21T11:52:19.665Z</time></trkpt><trkpt lat="44.4290683" lon="9.1901583"><ele>150.0</ele><time>2026-04-21T11:52:20.665Z</time></trkpt><trkpt lat="44.4289967" lon="9.1903117"><ele>152.0</ele><time>2026-04-21T11:52:21.665Z</time></trkpt><trkpt lat="44.42892" lon="9.190465"><ele>152.0</ele><time>2026-04-21T11:52:22.665Z</time></trkpt><trkpt lat="44.4288283" lon="9.190615"><ele>152.0</ele><time>2026-04-21T11:52:23.664Z</time></trkpt><trkpt lat="44.4287217" lon="9.19075"><ele>152.0</ele><time>2026-04-21T11:52:24.665Z</time></trkpt><trkpt lat="44.42861" lon="9.1908617"><ele>152.0</ele><time>2026-04-21T11:52:25.664Z</time></trkpt><trkpt lat="44.4284917" lon="9.1909683"><ele>149.75</ele><time>2026-04-21T11:52:26.664Z</time></trkpt><trkpt lat="44.428375" lon="9.191075"><ele>147.5</ele><time>2026-04-21T11:52:27.664Z</time></trkpt><trkpt lat="44.4282483" lon="9.1911417"><ele>145.25</ele><time>2026-04-21T11:52:28.664Z</time></trkpt><trkpt lat="44.428115" lon="9.1911733"><ele>143.0</ele><time>2026-04-21T11:52:29.665Z</time></trkpt><trkpt lat="44.4279833" lon="9.1911733"><ele>144.5</ele><time>2026-04-21T11:52:30.664Z</time></trkpt><trkpt lat="44.4278467" lon="9.1911533"><ele>146.0</ele><time>2026-04-21T11:52:31.664Z</time></trkpt><trkpt lat="44.42771" lon="9.1911117"><ele>147.5</ele><time>2026-04-21T11:52:32.665Z</time></trkpt><trkpt lat="44.42757" lon="9.191045"><ele>149.0</ele><time>2026-04-21T11:52:33.664Z</time></trkpt><trkpt lat="44.4274417" lon="9.19096"><ele>149.0</ele><time>2026-04-21T11:52:34.664Z</time></trkpt><trkpt lat="44.4273417" lon="9.1908333"><ele>149.0</ele><time>2026-04-21T11:52:35.664Z</time></trkpt><trkpt lat="44.427225" lon="9.190725"><ele>149.0</ele><time>2026-04-21T11:52:36.665Z</time></trkpt><trkpt lat="44.4271033" lon="9.1906433"><ele>149.0</ele><time>2026-04-21T11:52:37.665Z</time></trkpt><trkpt lat="44.4269617" lon="9.190615"><ele>146.33333333333331</ele><time>2026-04-21T11:52:38.665Z</time></trkpt><trkpt lat="44.4268133" lon="9.1906133"><ele>143.66666666666666</ele><time>2026-04-21T11:52:39.665Z</time></trkpt><trkpt lat="44.426665" lon="9.1906067"><ele>141.0</ele><time>2026-04-21T11:52:40.664Z</time></trkpt><trkpt lat="44.4264983" lon="9.19059"><ele>141.0</ele><time>2026-04-21T11:52:41.664Z</time></trkpt><trkpt lat="44.42634" lon="9.19057"><ele>141.0</ele><time>2026-04-21T11:52:42.664Z</time></trkpt><trkpt lat="44.426195" lon="9.19058"><ele>141.0</ele><time>2026-04-21T11:52:43.665Z</time></trkpt><trkpt lat="44.4260517" lon="9.1906067"><ele>141.0</ele><time>2026-04-21T11:52:44.665Z</time></trkpt><trkpt lat="44.4259133" lon="9.19064"><ele>140.75</ele><time>2026-04-21T11:52:45.664Z</time></trkpt><trkpt lat="44.4257583" lon="9.190645"><ele>140.5</ele><time>2026-04-21T11:52:46.665Z</time></trkpt><trkpt lat="44.42561" lon="9.1906617"><ele>140.25</ele><time>2026-04-21T11:52:47.664Z</time></trkpt><trkpt lat="44.4254683" lon="9.19068"><ele>140.0</ele><time>2026-04-21T11:52:48.664Z</time></trkpt><trkpt lat="44.42533" lon="9.1906933"><ele>140.5</ele><time>2026-04-21T11:52:49.665Z</time></trkpt><trkpt lat="44.4251967" lon="9.1907233"><ele>141.0</ele><time>2026-04-21T11:52:50.664Z</time></trkpt><trkpt lat="44.42508" lon="9.1907917"><ele>141.5</ele><time>2026-04-21T11:52:51.664Z</time></trkpt><trkpt lat="44.424965" lon="9.1908983"><ele>142.0</ele><time>2026-04-21T11:52:52.664Z</time></trkpt><trkpt lat="44.4248733" lon="9.19103"><ele>142.0</ele><time>2026-04-21T11:52:53.665Z</time></trkpt><trkpt lat="44.4248" lon="9.19119"><ele>142.0</ele><time>2026-04-21T11:52:54.665Z</time></trkpt><trkpt lat="44.424745" lon="9.1913667"><ele>142.0</ele><time>2026-04-21T11:52:55.664Z</time></trkpt><trkpt lat="44.4247267" lon="9.1915483"><ele>142.0</ele><time>2026-04-21T11:52:56.664Z</time></trkpt><trkpt lat="44.4247183" lon="9.1917533"><ele>144.0</ele><time>2026-04-21T11:52:57.664Z</time></trkpt><trkpt lat="44.4247283" lon="9.1919683"><ele>146.0</ele><time>2026-04-21T11:52:58.664Z</time></trkpt><trkpt lat="44.4247433" lon="9.192195"><ele>148.0</ele><time>2026-04-21T11:52:59.664Z</time></trkpt><trkpt lat="44.42476" lon="9.19241"><ele>148.25</ele><time>2026-04-21T11:53:00.664Z</time></trkpt><trkpt lat="44.4247783" lon="9.1926133"><ele>148.5</ele><time>2026-04-21T11:53:01.665Z</time></trkpt><trkpt lat="44.4247967" lon="9.192825"><ele>148.75</ele><time>2026-04-21T11:53:02.664Z</time></trkpt><trkpt lat="44.42481" lon="9.193035"><ele>149.0</ele><time>2026-04-21T11:53:03.665Z</time></trkpt><trkpt lat="44.42483" lon="9.1932283"><ele>148.25</ele><time>2026-04-21T11:53:04.664Z</time></trkpt><trkpt lat="44.4248467" lon="9.19342"><ele>147.5</ele><time>2026-04-21T11:53:05.665Z</time></trkpt><trkpt lat="44.4248783" lon="9.1936033"><ele>146.75</ele><time>2026-04-21T11:53:06.664Z</time></trkpt><trkpt lat="44.4249283" lon="9.19378"><ele>146.0</ele><time>2026-04-21T11:53:07.664Z</time></trkpt><trkpt lat="44.4249783" lon="9.193955"><ele>144.5</ele><time>2026-04-21T11:53:08.665Z</time></trkpt><trkpt lat="44.425025" lon="9.1941117"><ele>143.0</ele><time>2026-04-21T11:53:09.665Z</time></trkpt><trkpt lat="44.42508" lon="9.1942817"><ele>141.5</ele><time>2026-04-21T11:53:10.665Z</time></trkpt><trkpt lat="44.4251333" lon="9.1944533"><ele>140.0</ele><time>2026-04-21T11:53:11.665Z</time></trkpt><trkpt lat="44.4251883" lon="9.1946217"><ele>140.0</ele><time>2026-04-21T11:53:12.665Z</time></trkpt><trkpt lat="44.4252467" lon="9.194785"><ele>140.0</ele><time>2026-04-21T11:53:13.664Z</time></trkpt><trkpt lat="44.4252983" lon="9.1949683"><ele>140.0</ele><time>2026-04-21T11:53:14.664Z</time></trkpt><trkpt lat="44.425355" lon="9.19514"><ele>140.0</ele><time>2026-04-21T11:53:15.665Z</time></trkpt><trkpt lat="44.425395" lon="9.195315"><ele>138.75</ele><time>2026-04-21T11:53:16.665Z</time></trkpt><trkpt lat="44.425425" lon="9.1954917"><ele>137.5</ele><time>2026-04-21T11:53:17.665Z</time></trkpt><trkpt lat="44.4254317" lon="9.1956767"><ele>136.25</ele><time>2026-04-21T11:53:18.664Z</time></trkpt><trkpt lat="44.4254267" lon="9.1958517"><ele>135.0</ele><time>2026-04-21T11:53:19.664Z</time></trkpt><trkpt lat="44.4254017" lon="9.19605"><ele>134.33333333333334</ele><time>2026-04-21T11:53:20.664Z</time></trkpt><trkpt lat="44.4253767" lon="9.1962617"><ele>133.66666666666669</ele><time>2026-04-21T11:53:21.665Z</time></trkpt><trkpt lat="44.4253533" lon="9.1964683"><ele>133.0</ele><time>2026-04-21T11:53:22.665Z</time></trkpt><trkpt lat="44.425315" lon="9.1966783"><ele>133.0</ele><time>2026-04-21T11:53:23.665Z</time></trkpt><trkpt lat="44.4252767" lon="9.19688"><ele>133.0</ele><time>2026-04-21T11:53:24.664Z</time></trkpt><trkpt lat="44.4252183" lon="9.1970767"><ele>133.0</ele><time>2026-04-21T11:53:25.664Z</time></trkpt><trkpt lat="44.42514" lon="9.1972733"><ele>138.0</ele><time>2026-04-21T11:53:26.664Z</time></trkpt><trkpt lat="44.4250533" lon="9.1974617"><ele>143.0</ele><time>2026-04-21T11:53:27.664Z</time></trkpt><trkpt lat="44.424955" lon="9.1976333"><ele>148.0</ele><time>2026-04-21T11:53:28.665Z</time></trkpt><trkpt lat="44.42485" lon="9.1977767"><ele>148.0</ele><time>2026-04-21T11:53:29.665Z</time></trkpt><trkpt lat="44.4247383" lon="9.1978733"><ele>148.0</ele><time>2026-04-21T11:53:30.665Z</time></trkpt><trkpt lat="44.424625" lon="9.19793"><ele>148.0</ele><time>2026-04-21T11:53:31.664Z</time></trkpt><trkpt lat="44.4245033" lon="9.1979667"><ele>148.0</ele><time>2026-04-21T11:53:32.664Z</time></trkpt><trkpt lat="44.4243767" lon="9.1980183"><ele>145.5</ele><time>2026-04-21T11:53:33.665Z</time></trkpt><trkpt lat="44.4242467" lon="9.1981017"><ele>143.0</ele><time>2026-04-21T11:53:34.665Z</time></trkpt><trkpt lat="44.4241233" lon="9.198155"><ele>140.5</ele><time>2026-04-21T11:53:35.665Z</time></trkpt><trkpt lat="44.4239967" lon="9.1981917"><ele>138.0</ele><time>2026-04-21T11:53:36.665Z</time></trkpt><trkpt lat="44.423875" lon="9.198215"><ele>136.0</ele><time>2026-04-21T11:53:37.664Z</time></trkpt><trkpt lat="44.42377" lon="9.1982533"><ele>134.0</ele><time>2026-04-21T11:53:38.664Z</time></trkpt><trkpt lat="44.42369" lon="9.1983267"><ele>132.0</ele><time>2026-04-21T11:53:39.665Z</time></trkpt><trkpt lat="44.4236283" lon="9.1984317"><ele>130.0</ele><time>2026-04-21T11:53:40.664Z</time></trkpt><trkpt lat="44.4235767" lon="9.1985717"><ele>128.0</ele><time>2026-04-21T11:53:41.665Z</time></trkpt><trkpt lat="44.42353" lon="9.1987333"><ele>128.0</ele><time>2026-04-21T11:53:42.664Z</time></trkpt><trkpt lat="44.423485" lon="9.19892"><ele>128.0</ele><time>2026-04-21T11:53:43.664Z</time></trkpt><trkpt lat="44.4234417" lon="9.1990867"><ele>128.0</ele><time>2026-04-21T11:53:44.664Z</time></trkpt><trkpt lat="44.4234033" lon="9.1992583"><ele>128.0</ele><time>2026-04-21T11:53:45.665Z</time></trkpt><trkpt lat="44.4233683" lon="9.1994217"><ele>128.75</ele><time>2026-04-21T11:53:46.664Z</time></trkpt><trkpt lat="44.4233367" lon="9.19957"><ele>129.5</ele><time>2026-04-21T11:53:47.665Z</time></trkpt><trkpt lat="44.423305" lon="9.1997283"><ele>130.25</ele><time>2026-04-21T11:53:48.665Z</time></trkpt><trkpt lat="44.4233083" lon="9.1999033"><ele>131.0</ele><time>2026-04-21T11:53:49.664Z</time></trkpt><trkpt lat="44.4233417" lon="9.2000867"><ele>131.0</ele><time>2026-04-21T11:53:50.664Z</time></trkpt><trkpt lat="44.4233967" lon="9.2002983"><ele>131.0</ele><time>2026-04-21T11:53:51.665Z</time></trkpt><trkpt lat="44.4234667" lon="9.2005117"><ele>131.0</ele><time>2026-04-21T11:53:52.664Z</time></trkpt><trkpt lat="44.42353" lon="9.2007117"><ele>130.5</ele><time>2026-04-21T11:53:53.664Z</time></trkpt><trkpt lat="44.42359" lon="9.2009"><ele>130.0</ele><time>2026-04-21T11:53:54.665Z</time></trkpt><trkpt lat="44.42365" lon="9.201085"><ele>129.5</ele><time>2026-04-21T11:53:55.665Z</time></trkpt><trkpt lat="44.42371" lon="9.2012583"><ele>129.0</ele><time>2026-04-21T11:53:56.665Z</time></trkpt><trkpt lat="44.423765" lon="9.201415"><ele>130.75</ele><time>2026-04-21T11:53:57.665Z</time></trkpt><trkpt lat="44.423815" lon="9.2015717"><ele>132.5</ele><time>2026-04-21T11:53:58.665Z</time></trkpt><trkpt lat="44.4238633" lon="9.2017367"><ele>134.25</ele><time>2026-04-21T11:53:59.664Z</time></trkpt><trkpt lat="44.4239217" lon="9.2019"><ele>136.0</ele><time>2026-04-21T11:54:00.665Z</time></trkpt><trkpt lat="44.4239683" lon="9.2020683"><ele>136.0</ele><time>2026-04-21T11:54:01.665Z</time></trkpt><trkpt lat="44.4240267" lon="9.202235"><ele>136.0</ele><time>2026-04-21T11:54:02.665Z</time></trkpt><trkpt lat="44.4240733" lon="9.2024017"><ele>136.0</ele><time>2026-04-21T11:54:03.664Z</time></trkpt><trkpt lat="44.4241367" lon="9.202565"><ele>136.0</ele><time>2026-04-21T11:54:04.664Z</time></trkpt><trkpt lat="44.4241967" lon="9.2027267"><ele>134.0</ele><time>2026-04-21T11:54:05.665Z</time></trkpt><trkpt lat="44.4242467" lon="9.2028867"><ele>132.0</ele><time>2026-04-21T11:54:06.665Z</time></trkpt><trkpt lat="44.4242833" lon="9.2030433"><ele>130.0</ele><time>2026-04-21T11:54:07.665Z</time></trkpt><trkpt lat="44.4243033" lon="9.203215"><ele>128.0</ele><time>2026-04-21T11:54:08.665Z</time></trkpt><trkpt lat="44.42432" lon="9.20338"><ele>127.4</ele><time>2026-04-21T11:54:09.665Z</time></trkpt><trkpt lat="44.4243267" lon="9.2035383"><ele>126.80000000000001</ele><time>2026-04-21T11:54:10.664Z</time></trkpt><trkpt lat="44.4243117" lon="9.2036967"><ele>126.2</ele><time>2026-04-21T11:54:11.665Z</time></trkpt><trkpt lat="44.4242933" lon="9.2038517"><ele>125.6</ele><time>2026-04-21T11:54:12.664Z</time></trkpt><trkpt lat="44.424265" lon="9.2039917"><ele>125.0</ele><time>2026-04-21T11:54:13.664Z</time></trkpt><trkpt lat="44.4242567" lon="9.204135"><ele>125.0</ele><time>2026-04-21T11:54:14.664Z</time></trkpt><trkpt lat="44.424255" lon="9.2042633"><ele>125.0</ele><time>2026-04-21T11:54:15.664Z</time></trkpt><trkpt lat="44.4242667" lon="9.2043933"><ele>125.0</ele><time>2026-04-21T11:54:16.664Z</time></trkpt><trkpt lat="44.4242833" lon="9.2045367"><ele>125.0</ele><time>2026-04-21T11:54:17.665Z</time></trkpt><trkpt lat="44.4242783" lon="9.2046917"><ele>125.0</ele><time>2026-04-21T11:54:18.665Z</time></trkpt><trkpt lat="44.4242467" lon="9.204835"><ele>126.75</ele><time>2026-04-21T11:54:19.664Z</time></trkpt><trkpt lat="44.4241833" lon="9.2049867"><ele>128.5</ele><time>2026-04-21T11:54:20.664Z</time></trkpt><trkpt lat="44.4240933" lon="9.2051267"><ele>130.25</ele><time>2026-04-21T11:54:21.664Z</time></trkpt><trkpt lat="44.42397" lon="9.2052333"><ele>132.0</ele><time>2026-04-21T11:54:22.665Z</time></trkpt><trkpt lat="44.42383" lon="9.2053133"><ele>131.0</ele><time>2026-04-21T11:54:23.664Z</time></trkpt><trkpt lat="44.4236917" lon="9.2053883"><ele>130.0</ele><time>2026-04-21T11:54:24.665Z</time></trkpt><trkpt lat="44.4235567" lon="9.2054617"><ele>129.0</ele><time>2026-04-21T11:54:25.664Z</time></trkpt><trkpt lat="44.4234317" lon="9.20554"><ele>128.0</ele><time>2026-04-21T11:54:26.664Z</time></trkpt><trkpt lat="44.4233117" lon="9.2056167"><ele>127.75</ele><time>2026-04-21T11:54:27.665Z</time></trkpt><trkpt lat="44.423195" lon="9.2056817"><ele>127.5</ele><time>2026-04-21T11:54:28.664Z</time></trkpt><trkpt lat="44.423085" lon="9.205735"><ele>127.25</ele><time>2026-04-21T11:54:29.664Z</time></trkpt><trkpt lat="44.42298" lon="9.2057967"><ele>127.0</ele><time>2026-04-21T11:54:30.664Z</time></trkpt><trkpt lat="44.4228767" lon="9.205845"><ele>127.0</ele><time>2026-04-21T11:54:31.664Z</time></trkpt><trkpt lat="44.42277" lon="9.2058833"><ele>126.99999999999999</ele><time>2026-04-21T11:54:32.664Z</time></trkpt><trkpt lat="44.422665" lon="9.2059267"><ele>126.99999999999999</ele><time>2026-04-21T11:54:33.665Z</time></trkpt><trkpt lat="44.42256" lon="9.2059583"><ele>127.0</ele><time>2026-04-21T11:54:34.665Z</time></trkpt><trkpt lat="44.4224583" lon="9.205995"><ele>127.0</ele><time>2026-04-21T11:54:35.664Z</time></trkpt><trkpt lat="44.4223767" lon="9.20603"><ele>127.0</ele><time>2026-04-21T11:54:36.664Z</time></trkpt><trkpt lat="44.4222917" lon="9.2060683"><ele>126.99999999999999</ele><time>2026-04-21T11:54:38.665Z</time></trkpt><trkpt lat="44.4222017" lon="9.2061333"><ele>126.99999999999999</ele><time>2026-04-21T11:54:42.665Z</time></trkpt><trkpt lat="44.4221367" lon="9.2061733"><ele>127.0</ele><time>2026-04-21T11:54:43.665Z</time></trkpt><trkpt lat="44.4220517" lon="9.2062333"><ele>127.0</ele><time>2026-04-21T11:54:44.665Z</time></trkpt><trkpt lat="44.4219667" lon="9.2063367"><ele>126.66666666666667</ele><time>2026-04-21T11:54:45.665Z</time></trkpt><trkpt lat="44.42186" lon="9.2064617"><ele>126.33333333333334</ele><time>2026-04-21T11:54:46.664Z</time></trkpt><trkpt lat="44.4217367" lon="9.2065983"><ele>126.0</ele><time>2026-04-21T11:54:47.664Z</time></trkpt><trkpt lat="44.4216167" lon="9.2067367"><ele>126.0</ele><time>2026-04-21T11:54:48.665Z</time></trkpt><trkpt lat="44.4214867" lon="9.20688"><ele>126.0</ele><time>2026-04-21T11:54:49.665Z</time></trkpt><trkpt lat="44.42136" lon="9.2070183"><ele>126.0</ele><time>2026-04-21T11:54:50.664Z</time></trkpt><trkpt lat="44.4212367" lon="9.2071483"><ele>125.33333333333334</ele><time>2026-04-21T11:54:51.664Z</time></trkpt><trkpt lat="44.421115" lon="9.207285"><ele>124.66666666666667</ele><time>2026-04-21T11:54:52.664Z</time></trkpt><trkpt lat="44.4209967" lon="9.207425"><ele>124.0</ele><time>2026-04-21T11:54:53.664Z</time></trkpt><trkpt lat="44.4208783" lon="9.20757"><ele>124.0</ele><time>2026-04-21T11:54:54.665Z</time></trkpt><trkpt lat="44.4207717" lon="9.2077067"><ele>124.0</ele><time>2026-04-21T11:54:55.665Z</time></trkpt><trkpt lat="44.42067" lon="9.207855"><ele>124.0</ele><time>2026-04-21T11:54:56.664Z</time></trkpt><trkpt lat="44.4205883" lon="9.208015"><ele>124.0</ele><time>2026-04-21T11:54:57.664Z</time></trkpt><trkpt lat="44.4205117" lon="9.208175"><ele>123.75</ele><time>2026-04-21T11:54:58.665Z</time></trkpt><trkpt lat="44.4204333" lon="9.20834"><ele>123.5</ele><time>2026-04-21T11:54:59.665Z</time></trkpt><trkpt lat="44.42035" lon="9.2085133"><ele>123.25</ele><time>2026-04-21T11:55:00.665Z</time></trkpt><trkpt lat="44.4202633" lon="9.2086983"><ele>123.0</ele><time>2026-04-21T11:55:01.664Z</time></trkpt><trkpt lat="44.4201783" lon="9.2088667"><ele>124.0</ele><time>2026-04-21T11:55:02.664Z</time></trkpt><trkpt lat="44.4200933" lon="9.20904"><ele>125.0</ele><time>2026-04-21T11:55:03.664Z</time></trkpt><trkpt lat="44.42001" lon="9.2092267"><ele>126.0</ele><time>2026-04-21T11:55:04.665Z</time></trkpt><trkpt lat="44.4199233" lon="9.2094083"><ele>126.0</ele><time>2026-04-21T11:55:05.664Z</time></trkpt><trkpt lat="44.4198433" lon="9.2095883"><ele>126.0</ele><time>2026-04-21T11:55:06.664Z</time></trkpt><trkpt lat="44.4197617" lon="9.2097583"><ele>126.0</ele><time>2026-04-21T11:55:07.665Z</time></trkpt><trkpt lat="44.41968" lon="9.2099217"><ele>126.0</ele><time>2026-04-21T11:55:08.665Z</time></trkpt><trkpt lat="44.419595" lon="9.2100867"><ele>126.0</ele><time>2026-04-21T11:55:09.664Z</time></trkpt><trkpt lat="44.4195167" lon="9.210255"><ele>126.0</ele><time>2026-04-21T11:55:10.665Z</time></trkpt><trkpt lat="44.4194383" lon="9.210425"><ele>126.0</ele><time>2026-04-21T11:55:11.664Z</time></trkpt><trkpt lat="44.4193633" lon="9.2105933"><ele>126.0</ele><time>2026-04-21T11:55:12.665Z</time></trkpt><trkpt lat="44.4193" lon="9.2107617"><ele>126.0</ele><time>2026-04-21T11:55:13.665Z</time></trkpt><trkpt lat="44.4192283" lon="9.2109117"><ele>126.0</ele><time>2026-04-21T11:55:14.664Z</time></trkpt><trkpt lat="44.4191617" lon="9.21106"><ele>126.0</ele><time>2026-04-21T11:55:15.665Z</time></trkpt><trkpt lat="44.419095" lon="9.21121"><ele>126.0</ele><time>2026-04-21T11:55:16.664Z</time></trkpt><trkpt lat="44.41902" lon="9.211345"><ele>126.0</ele><time>2026-04-21T11:55:17.664Z</time></trkpt><trkpt lat="44.418955" lon="9.211485"><ele>126.0</ele><time>2026-04-21T11:55:18.665Z</time></trkpt><trkpt lat="44.4188883" lon="9.2116233"><ele>126.0</ele><time>2026-04-21T11:55:19.664Z</time></trkpt><trkpt lat="44.4188217" lon="9.2117683"><ele>126.0</ele><time>2026-04-21T11:55:20.664Z</time></trkpt><trkpt lat="44.4187567" lon="9.2119117"><ele>125.0</ele><time>2026-04-21T11:55:21.665Z</time></trkpt><trkpt lat="44.4186883" lon="9.2120567"><ele>124.0</ele><time>2026-04-21T11:55:22.665Z</time></trkpt><trkpt lat="44.4186267" lon="9.2122"><ele>123.0</ele><time>2026-04-21T11:55:23.664Z</time></trkpt><trkpt lat="44.418555" lon="9.212355"><ele>122.0</ele><time>2026-04-21T11:55:24.665Z</time></trkpt><trkpt lat="44.4184833" lon="9.21249"><ele>122.0</ele><time>2026-04-21T11:55:25.665Z</time></trkpt><trkpt lat="44.4184133" lon="9.2126367"><ele>122.0</ele><time>2026-04-21T11:55:26.664Z</time></trkpt><trkpt lat="44.4183383" lon="9.2127867"><ele>122.0</ele><time>2026-04-21T11:55:27.664Z</time></trkpt><trkpt lat="44.418265" lon="9.2129433"><ele>122.0</ele><time>2026-04-21T11:55:28.665Z</time></trkpt><trkpt lat="44.4181983" lon="9.2130983"><ele>122.25</ele><time>2026-04-21T11:55:29.665Z</time></trkpt><trkpt lat="44.41813" lon="9.213255"><ele>122.5</ele><time>2026-04-21T11:55:30.665Z</time></trkpt><trkpt lat="44.4180633" lon="9.2134217"><ele>122.75</ele><time>2026-04-21T11:55:31.664Z</time></trkpt><trkpt lat="44.418005" lon="9.21359"><ele>123.0</ele><time>2026-04-21T11:55:32.665Z</time></trkpt><trkpt lat="44.4179683" lon="9.2137633"><ele>121.75</ele><time>2026-04-21T11:55:33.664Z</time></trkpt><trkpt lat="44.417935" lon="9.2139433"><ele>120.5</ele><time>2026-04-21T11:55:34.664Z</time></trkpt><trkpt lat="44.4179067" lon="9.21413"><ele>119.25</ele><time>2026-04-21T11:55:35.664Z</time></trkpt><trkpt lat="44.417875" lon="9.21431"><ele>118.0</ele><time>2026-04-21T11:55:36.664Z</time></trkpt><trkpt lat="44.417845" lon="9.2144883"><ele>118.0</ele><time>2026-04-21T11:55:37.665Z</time></trkpt><trkpt lat="44.4178033" lon="9.2146683"><ele>118.0</ele><time>2026-04-21T11:55:38.665Z</time></trkpt><trkpt lat="44.417775" lon="9.2148317"><ele>118.0</ele><time>2026-04-21T11:55:39.665Z</time></trkpt><trkpt lat="44.41774" lon="9.2150067"><ele>118.0</ele><time>2026-04-21T11:55:40.664Z</time></trkpt><trkpt lat="44.4176967" lon="9.2151933"><ele>118.0</ele><time>2026-04-21T11:55:41.664Z</time></trkpt><trkpt lat="44.4176567" lon="9.2153783"><ele>118.0</ele><time>2026-04-21T11:55:42.664Z</time></trkpt><trkpt lat="44.4176233" lon="9.215535"><ele>118.0</ele><time>2026-04-21T11:55:43.664Z</time></trkpt><trkpt lat="44.417585" lon="9.21569"><ele>118.0</ele><time>2026-04-21T11:55:44.664Z</time></trkpt><trkpt lat="44.417555" lon="9.2158333"><ele>118.0</ele><time>2026-04-21T11:55:45.664Z</time></trkpt><trkpt lat="44.4175317" lon="9.215965"><ele>118.00000000000001</ele><time>2026-04-21T11:55:46.665Z</time></trkpt><trkpt lat="44.417525" lon="9.2161017"><ele>118.00000000000001</ele><time>2026-04-21T11:55:47.664Z</time></trkpt><trkpt lat="44.4175483" lon="9.2162417"><ele>118.0</ele><time>2026-04-21T11:55:48.664Z</time></trkpt><trkpt lat="44.4175983" lon="9.2163833"><ele>118.0</ele><time>2026-04-21T11:55:49.664Z</time></trkpt><trkpt lat="44.417655" lon="9.2165183"><ele>120.2</ele><time>2026-04-21T11:55:50.665Z</time></trkpt><trkpt lat="44.4177083" lon="9.216645"><ele>122.4</ele><time>2026-04-21T11:55:51.664Z</time></trkpt><trkpt lat="44.4177433" lon="9.21677"><ele>124.60000000000001</ele><time>2026-04-21T11:55:52.665Z</time></trkpt><trkpt lat="44.4177833" lon="9.216895"><ele>126.80000000000001</ele><time>2026-04-21T11:55:53.665Z</time></trkpt><trkpt lat="44.4178067" lon="9.2170467"><ele>129.0</ele><time>2026-04-21T11:55:54.665Z</time></trkpt><trkpt lat="44.4178117" lon="9.2172083"><ele>127.0</ele><time>2026-04-21T11:55:55.664Z</time></trkpt><trkpt lat="44.4177983" lon="9.2173717"><ele>125.0</ele><time>2026-04-21T11:55:56.664Z</time></trkpt><trkpt lat="44.417775" lon="9.21753"><ele>123.0</ele><time>2026-04-21T11:55:57.664Z</time></trkpt><trkpt lat="44.417715" lon="9.2176633"><ele>121.0</ele><time>2026-04-21T11:55:58.665Z</time></trkpt><trkpt lat="44.4176417" lon="9.21779"><ele>121.0</ele><time>2026-04-21T11:55:59.664Z</time></trkpt><trkpt lat="44.4175733" lon="9.2179117"><ele>121.0</ele><time>2026-04-21T11:56:00.664Z</time></trkpt><trkpt lat="44.417495" lon="9.217995"><ele>121.0</ele><time>2026-04-21T11:56:01.665Z</time></trkpt><trkpt lat="44.41741" lon="9.2180467"><ele>121.0</ele><time>2026-04-21T11:56:02.665Z</time></trkpt><trkpt lat="44.417315" lon="9.2180833"><ele>121.0</ele><time>2026-04-21T11:56:03.664Z</time></trkpt><trkpt lat="44.4172017" lon="9.2181267"><ele>117.5</ele><time>2026-04-21T11:56:04.665Z</time></trkpt><trkpt lat="44.4170817" lon="9.2181733"><ele>114.0</ele><time>2026-04-21T11:56:05.664Z</time></trkpt><trkpt lat="44.41694" lon="9.2182467"><ele>110.5</ele><time>2026-04-21T11:56:06.664Z</time></trkpt><trkpt lat="44.41678" lon="9.2183217"><ele>107.0</ele><time>2026-04-21T11:56:07.664Z</time></trkpt><trkpt lat="44.4166017" lon="9.2183617"><ele>107.0</ele><time>2026-04-21T11:56:08.664Z</time></trkpt><trkpt lat="44.4164467" lon="9.218405"><ele>107.0</ele><time>2026-04-21T11:56:09.664Z</time></trkpt><trkpt lat="44.4163117" lon="9.2184533"><ele>107.0</ele><time>2026-04-21T11:56:10.665Z</time></trkpt><trkpt lat="44.4161883" lon="9.2185"><ele>107.0</ele><time>2026-04-21T11:56:11.665Z</time></trkpt><trkpt lat="44.416065" lon="9.2185367"><ele>105.0</ele><time>2026-04-21T11:56:12.664Z</time></trkpt><trkpt lat="44.415955" lon="9.218575"><ele>103.0</ele><time>2026-04-21T11:56:13.664Z</time></trkpt><trkpt lat="44.4158433" lon="9.2186017"><ele>101.0</ele><time>2026-04-21T11:56:14.664Z</time></trkpt><trkpt lat="44.415735" lon="9.2186367"><ele>99.0</ele><time>2026-04-21T11:56:15.664Z</time></trkpt><trkpt lat="44.415625" lon="9.2186683"><ele>99.0</ele><time>2026-04-21T11:56:16.664Z</time></trkpt><trkpt lat="44.4155117" lon="9.2186733"><ele>99.0</ele><time>2026-04-21T11:56:17.664Z</time></trkpt><trkpt lat="44.4154033" lon="9.218645"><ele>99.0</ele><time>2026-04-21T11:56:18.664Z</time></trkpt><trkpt lat="44.4152967" lon="9.21858"><ele>99.0</ele><time>2026-04-21T11:56:19.664Z</time></trkpt><trkpt lat="44.415195" lon="9.2185033"><ele>101.6</ele><time>2026-04-21T11:56:20.664Z</time></trkpt><trkpt lat="44.415105" lon="9.2184267"><ele>104.2</ele><time>2026-04-21T11:56:21.665Z</time></trkpt><trkpt lat="44.4150167" lon="9.21836"><ele>106.79999999999998</ele><time>2026-04-21T11:56:22.665Z</time></trkpt><trkpt lat="44.4149333" lon="9.2183017"><ele>109.39999999999999</ele><time>2026-04-21T11:56:23.664Z</time></trkpt><trkpt lat="44.4148433" lon="9.2182483"><ele>112.0</ele><time>2026-04-21T11:56:24.665Z</time></trkpt><trkpt lat="44.4147383" lon="9.21821"><ele>112.5</ele><time>2026-04-21T11:56:25.664Z</time></trkpt><trkpt lat="44.4146183" lon="9.2181917"><ele>113.0</ele><time>2026-04-21T11:56:26.664Z</time></trkpt><trkpt lat="44.4144817" lon="9.218195"><ele>113.5</ele><time>2026-04-21T11:56:27.665Z</time></trkpt><trkpt lat="44.4143417" lon="9.2182"><ele>114.0</ele><time>2026-04-21T11:56:28.664Z</time></trkpt><trkpt lat="44.4141967" lon="9.2182133"><ele>114.0</ele><time>2026-04-21T11:56:29.665Z</time></trkpt><trkpt lat="44.4140617" lon="9.218235"><ele>114.0</ele><time>2026-04-21T11:56:30.665Z</time></trkpt><trkpt lat="44.41394" lon="9.2182667"><ele>114.0</ele><time>2026-04-21T11:56:31.664Z</time></trkpt><trkpt lat="44.413825" lon="9.2182967"><ele>114.0</ele><time>2026-04-21T11:56:32.665Z</time></trkpt><trkpt lat="44.41372" lon="9.21834"><ele>112.6</ele><time>2026-04-21T11:56:33.664Z</time></trkpt><trkpt lat="44.4136217" lon="9.218395"><ele>111.2</ele><time>2026-04-21T11:56:34.665Z</time></trkpt><trkpt lat="44.4135267" lon="9.21846"><ele>109.79999999999998</ele><time>2026-04-21T11:56:35.664Z</time></trkpt><trkpt lat="44.4134383" lon="9.2185367"><ele>108.39999999999999</ele><time>2026-04-21T11:56:36.665Z</time></trkpt><trkpt lat="44.41336" lon="9.2186117"><ele>107.0</ele><time>2026-04-21T11:56:37.664Z</time></trkpt><trkpt lat="44.4132783" lon="9.218695"><ele>107.0</ele><time>2026-04-21T11:56:38.665Z</time></trkpt><trkpt lat="44.4131933" lon="9.2187767"><ele>106.99999999999999</ele><time>2026-04-21T11:56:39.664Z</time></trkpt><trkpt lat="44.4131133" lon="9.218855"><ele>106.99999999999999</ele><time>2026-04-21T11:56:40.665Z</time></trkpt><trkpt lat="44.4130217" lon="9.2189367"><ele>107.0</ele><time>2026-04-21T11:56:41.664Z</time></trkpt><trkpt lat="44.4129283" lon="9.21902"><ele>107.0</ele><time>2026-04-21T11:56:42.665Z</time></trkpt><trkpt lat="44.4128317" lon="9.21912"><ele>107.19999999999999</ele><time>2026-04-21T11:56:43.665Z</time></trkpt><trkpt lat="44.412735" lon="9.2191983"><ele>107.39999999999999</ele><time>2026-04-21T11:56:44.664Z</time></trkpt><trkpt lat="44.41265" lon="9.2192767"><ele>107.60000000000001</ele><time>2026-04-21T11:56:45.664Z</time></trkpt><trkpt lat="44.4125683" lon="9.2193583"><ele>107.80000000000001</ele><time>2026-04-21T11:56:46.664Z</time></trkpt><trkpt lat="44.4124883" lon="9.219435"><ele>108.0</ele><time>2026-04-21T11:56:47.664Z</time></trkpt><trkpt lat="44.4124033" lon="9.2195283"><ele>108.0</ele><time>2026-04-21T11:56:48.664Z</time></trkpt><trkpt lat="44.41233" lon="9.21964"><ele>108.00000000000001</ele><time>2026-04-21T11:56:49.665Z</time></trkpt><trkpt lat="44.4122733" lon="9.2197617"><ele>108.00000000000001</ele><time>2026-04-21T11:56:50.665Z</time></trkpt><trkpt lat="44.412215" lon="9.21988"><ele>108.0</ele><time>2026-04-21T11:56:51.664Z</time></trkpt><trkpt lat="44.4121733" lon="9.220005"><ele>108.0</ele><time>2026-04-21T11:56:52.665Z</time></trkpt><trkpt lat="44.4121383" lon="9.2201533"><ele>106.75</ele><time>2026-04-21T11:56:53.664Z</time></trkpt><trkpt lat="44.412105" lon="9.220315"><ele>105.5</ele><time>2026-04-21T11:56:54.664Z</time></trkpt><trkpt lat="44.4120733" lon="9.2204767"><ele>104.25</ele><time>2026-04-21T11:56:55.664Z</time></trkpt><trkpt lat="44.412025" lon="9.2206517"><ele>103.0</ele><time>2026-04-21T11:56:56.665Z</time></trkpt><trkpt lat="44.4119917" lon="9.2208217"><ele>103.0</ele><time>2026-04-21T11:56:57.664Z</time></trkpt><trkpt lat="44.4119633" lon="9.2209867"><ele>103.0</ele><time>2026-04-21T11:56:58.665Z</time></trkpt><trkpt lat="44.411925" lon="9.2211333"><ele>103.0</ele><time>2026-04-21T11:56:59.665Z</time></trkpt><trkpt lat="44.4118933" lon="9.221275"><ele>103.0</ele><time>2026-04-21T11:57:00.665Z</time></trkpt><trkpt lat="44.4118683" lon="9.22142"><ele>103.0</ele><time>2026-04-21T11:57:01.664Z</time></trkpt><trkpt lat="44.4118417" lon="9.2215817"><ele>102.75</ele><time>2026-04-21T11:57:02.665Z</time></trkpt><trkpt lat="44.4118083" lon="9.22175"><ele>102.5</ele><time>2026-04-21T11:57:03.664Z</time></trkpt><trkpt lat="44.4117833" lon="9.2219283"><ele>102.25</ele><time>2026-04-21T11:57:04.664Z</time></trkpt><trkpt lat="44.411785" lon="9.2221167"><ele>102.0</ele><time>2026-04-21T11:57:05.665Z</time></trkpt><trkpt lat="44.4118033" lon="9.222285"><ele>103.25</ele><time>2026-04-21T11:57:06.664Z</time></trkpt><trkpt lat="44.4118083" lon="9.2224667"><ele>104.5</ele><time>2026-04-21T11:57:07.664Z</time></trkpt><trkpt lat="44.41182" lon="9.2226517"><ele>105.75</ele><time>2026-04-21T11:57:08.665Z</time></trkpt><trkpt lat="44.4118467" lon="9.22281"><ele>107.0</ele><time>2026-04-21T11:57:09.665Z</time></trkpt><trkpt lat="44.41187" lon="9.222975"><ele>107.0</ele><time>2026-04-21T11:57:10.664Z</time></trkpt><trkpt lat="44.4119117" lon="9.22314"><ele>107.0</ele><time>2026-04-21T11:57:11.664Z</time></trkpt><trkpt lat="44.4119367" lon="9.2233033"><ele>107.0</ele><time>2026-04-21T11:57:12.664Z</time></trkpt><trkpt lat="44.4119517" lon="9.22346"><ele>107.0</ele><time>2026-04-21T11:57:13.665Z</time></trkpt><trkpt lat="44.41196" lon="9.223625"><ele>106.0</ele><time>2026-04-21T11:57:14.664Z</time></trkpt><trkpt lat="44.411965" lon="9.2237767"><ele>104.99999999999999</ele><time>2026-04-21T11:57:15.665Z</time></trkpt><trkpt lat="44.41197" lon="9.223925"><ele>104.0</ele><time>2026-04-21T11:57:16.665Z</time></trkpt><trkpt lat="44.4119733" lon="9.2240717"><ele>103.0</ele><time>2026-04-21T11:57:17.664Z</time></trkpt><trkpt lat="44.4119833" lon="9.224215"><ele>102.0</ele><time>2026-04-21T11:57:18.665Z</time></trkpt><trkpt lat="44.412005" lon="9.2243717"><ele>102.0</ele><time>2026-04-21T11:57:19.664Z</time></trkpt><trkpt lat="44.412035" lon="9.2245283"><ele>102.0</ele><time>2026-04-21T11:57:20.665Z</time></trkpt><trkpt lat="44.4120683" lon="9.2246733"><ele>102.0</ele><time>2026-04-21T11:57:21.664Z</time></trkpt><trkpt lat="44.4121033" lon="9.2248083"><ele>102.0</ele><time>2026-04-21T11:57:22.665Z</time></trkpt><trkpt lat="44.4121367" lon="9.224935"><ele>102.0</ele><time>2026-04-21T11:57:23.665Z</time></trkpt><trkpt lat="44.4121683" lon="9.2250517"><ele>103.0</ele><time>2026-04-21T11:57:24.664Z</time></trkpt><trkpt lat="44.4121983" lon="9.2251583"><ele>104.0</ele><time>2026-04-21T11:57:25.664Z</time></trkpt><trkpt lat="44.4122217" lon="9.2252667"><ele>105.0</ele><time>2026-04-21T11:57:26.664Z</time></trkpt><trkpt lat="44.412235" lon="9.2253833"><ele>106.0</ele><time>2026-04-21T11:57:27.664Z</time></trkpt><trkpt lat="44.41224" lon="9.225505"><ele>107.0</ele><time>2026-04-21T11:57:28.665Z</time></trkpt><trkpt lat="44.4122283" lon="9.2256283"><ele>108.0</ele><time>2026-04-21T11:57:29.664Z</time></trkpt><trkpt lat="44.4122" lon="9.22575"><ele>106.0</ele><time>2026-04-21T11:57:30.664Z</time></trkpt><trkpt lat="44.4121517" lon="9.2258683"><ele>104.00000000000001</ele><time>2026-04-21T11:57:31.665Z</time></trkpt><trkpt lat="44.4120783" lon="9.2259717"><ele>102.0</ele><time>2026-04-21T11:57:32.665Z</time></trkpt><trkpt lat="44.411985" lon="9.2260633"><ele>100.0</ele><time>2026-04-21T11:57:33.664Z</time></trkpt><trkpt lat="44.411895" lon="9.2261383"><ele>98.0</ele><time>2026-04-21T11:57:34.664Z</time></trkpt><trkpt lat="44.41181" lon="9.2262067"><ele>98.0</ele><time>2026-04-21T11:57:35.664Z</time></trkpt><trkpt lat="44.41172" lon="9.2262833"><ele>98.0</ele><time>2026-04-21T11:57:36.664Z</time></trkpt><trkpt lat="44.4116317" lon="9.226365"><ele>98.0</ele><time>2026-04-21T11:57:37.665Z</time></trkpt><trkpt lat="44.411545" lon="9.2264633"><ele>98.0</ele><time>2026-04-21T11:57:38.665Z</time></trkpt><trkpt lat="44.41147" lon="9.2265817"><ele>98.0</ele><time>2026-04-21T11:57:39.665Z</time></trkpt><trkpt lat="44.41141" lon="9.2267217"><ele>99.25</ele><time>2026-04-21T11:57:40.665Z</time></trkpt><trkpt lat="44.411375" lon="9.22687"><ele>100.5</ele><time>2026-04-21T11:57:41.665Z</time></trkpt><trkpt lat="44.4113583" lon="9.2270367"><ele>101.75</ele><time>2026-04-21T11:57:42.664Z</time></trkpt><trkpt lat="44.411355" lon="9.227195"><ele>103.0</ele><time>2026-04-21T11:57:43.664Z</time></trkpt><trkpt lat="44.41136" lon="9.2273633"><ele>103.5</ele><time>2026-04-21T11:57:44.665Z</time></trkpt><trkpt lat="44.4113533" lon="9.22754"><ele>104.0</ele><time>2026-04-21T11:57:45.665Z</time></trkpt><trkpt lat="44.4113533" lon="9.2277167"><ele>104.5</ele><time>2026-04-21T11:57:46.664Z</time></trkpt><trkpt lat="44.4113567" lon="9.2278933"><ele>105.0</ele><time>2026-04-21T11:57:47.664Z</time></trkpt><trkpt lat="44.4113617" lon="9.22809"><ele>105.25</ele><time>2026-04-21T11:57:48.664Z</time></trkpt><trkpt lat="44.411375" lon="9.2282767"><ele>105.5</ele><time>2026-04-21T11:57:49.664Z</time></trkpt><trkpt lat="44.41138" lon="9.22846"><ele>105.75</ele><time>2026-04-21T11:57:50.664Z</time></trkpt><trkpt lat="44.4113933" lon="9.2286433"><ele>106.0</ele><time>2026-04-21T11:57:51.664Z</time></trkpt><trkpt lat="44.4114033" lon="9.228825"><ele>105.75</ele><time>2026-04-21T11:57:52.665Z</time></trkpt><trkpt lat="44.411415" lon="9.2289983"><ele>105.5</ele><time>2026-04-21T11:57:53.664Z</time></trkpt><trkpt lat="44.4114167" lon="9.2291783"><ele>105.25</ele><time>2026-04-21T11:57:54.665Z</time></trkpt><trkpt lat="44.411425" lon="9.22936"><ele>105.0</ele><time>2026-04-21T11:57:55.665Z</time></trkpt><trkpt lat="44.41143" lon="9.22954"><ele>105.0</ele><time>2026-04-21T11:57:56.664Z</time></trkpt><trkpt lat="44.4114367" lon="9.2297233"><ele>105.0</ele><time>2026-04-21T11:57:57.664Z</time></trkpt><trkpt lat="44.411445" lon="9.2299"><ele>105.0</ele><time>2026-04-21T11:57:58.665Z</time></trkpt><trkpt lat="44.4114483" lon="9.2300717"><ele>105.0</ele><time>2026-04-21T11:57:59.665Z</time></trkpt><trkpt lat="44.41144" lon="9.2302467"><ele>105.0</ele><time>2026-04-21T11:58:00.664Z</time></trkpt><trkpt lat="44.4114317" lon="9.2304167"><ele>105.0</ele><time>2026-04-21T11:58:01.664Z</time></trkpt><trkpt lat="44.41141" lon="9.2305817"><ele>105.0</ele><time>2026-04-21T11:58:02.664Z</time></trkpt><trkpt lat="44.41138" lon="9.2307517"><ele>105.0</ele><time>2026-04-21T11:58:03.665Z</time></trkpt><trkpt lat="44.411355" lon="9.2309333"><ele>104.25</ele><time>2026-04-21T11:58:04.665Z</time></trkpt><trkpt lat="44.411325" lon="9.2311017"><ele>103.5</ele><time>2026-04-21T11:58:05.664Z</time></trkpt><trkpt lat="44.41129" lon="9.2312617"><ele>102.75</ele><time>2026-04-21T11:58:06.665Z</time></trkpt><trkpt lat="44.411265" lon="9.231415"><ele>102.0</ele><time>2026-04-21T11:58:07.665Z</time></trkpt><trkpt lat="44.411245" lon="9.2315633"><ele>99.0</ele><time>2026-04-21T11:58:08.665Z</time></trkpt><trkpt lat="44.4112183" lon="9.23171"><ele>96.0</ele><time>2026-04-21T11:58:09.664Z</time></trkpt><trkpt lat="44.4111933" lon="9.2318683"><ele>93.0</ele><time>2026-04-21T11:58:10.664Z</time></trkpt><trkpt lat="44.4111767" lon="9.2320217"><ele>90.0</ele><time>2026-04-21T11:58:11.665Z</time></trkpt><trkpt lat="44.4111517" lon="9.2321783"><ele>87.0</ele><time>2026-04-21T11:58:12.665Z</time></trkpt><trkpt lat="44.4111217" lon="9.2323333"><ele>86.66666666666667</ele><time>2026-04-21T11:58:13.665Z</time></trkpt><trkpt lat="44.4111" lon="9.2324833"><ele>86.33333333333333</ele><time>2026-04-21T11:58:14.665Z</time></trkpt><trkpt lat="44.411085" lon="9.232605"><ele>86.0</ele><time>2026-04-21T11:58:15.665Z</time></trkpt><trkpt lat="44.4110683" lon="9.2327017"><ele>85.66666666666666</ele><time>2026-04-21T11:58:16.665Z</time></trkpt><trkpt lat="44.4110517" lon="9.2327883"><ele>85.33333333333333</ele><time>2026-04-21T11:58:17.665Z</time></trkpt><trkpt lat="44.4110183" lon="9.232865"><ele>85.0</ele><time>2026-04-21T11:58:18.665Z</time></trkpt><trkpt lat="44.4109983" lon="9.2329583"><ele>85.0</ele><time>2026-04-21T11:58:19.664Z</time></trkpt><trkpt lat="44.41098" lon="9.2330533"><ele>85.0</ele><time>2026-04-21T11:58:20.664Z</time></trkpt><trkpt lat="44.4109617" lon="9.2331567"><ele>85.0</ele><time>2026-04-21T11:58:21.664Z</time></trkpt><trkpt lat="44.4109383" lon="9.2332683"><ele>85.0</ele><time>2026-04-21T11:58:22.665Z</time></trkpt><trkpt lat="44.410915" lon="9.2334067"><ele>85.0</ele><time>2026-04-21T11:58:23.664Z</time></trkpt><trkpt lat="44.4108833" lon="9.2335633"><ele>85.0</ele><time>2026-04-21T11:58:24.664Z</time></trkpt><trkpt lat="44.4108533" lon="9.233725"><ele>85.4</ele><time>2026-04-21T11:58:25.664Z</time></trkpt><trkpt lat="44.4108283" lon="9.2338767"><ele>85.8</ele><time>2026-04-21T11:58:26.665Z</time></trkpt><trkpt lat="44.410785" lon="9.2340167"><ele>86.19999999999999</ele><time>2026-04-21T11:58:27.664Z</time></trkpt><trkpt lat="44.4107333" lon="9.23415"><ele>86.6</ele><time>2026-04-21T11:58:28.665Z</time></trkpt><trkpt lat="44.4106667" lon="9.2342817"><ele>87.0</ele><time>2026-04-21T11:58:29.664Z</time></trkpt><trkpt lat="44.41061" lon="9.2344283"><ele>85.75</ele><time>2026-04-21T11:58:30.665Z</time></trkpt><trkpt lat="44.41056" lon="9.2345767"><ele>84.5</ele><time>2026-04-21T11:58:31.665Z</time></trkpt><trkpt lat="44.4105117" lon="9.2347233"><ele>83.25</ele><time>2026-04-21T11:58:32.665Z</time></trkpt><trkpt lat="44.4104867" lon="9.2348783"><ele>82.0</ele><time>2026-04-21T11:58:33.665Z</time></trkpt><trkpt lat="44.4104533" lon="9.23502"><ele>82.0</ele><time>2026-04-21T11:58:34.665Z</time></trkpt><trkpt lat="44.4104267" lon="9.2351567"><ele>82.0</ele><time>2026-04-21T11:58:35.665Z</time></trkpt><trkpt lat="44.41039" lon="9.2352867"><ele>82.0</ele><time>2026-04-21T11:58:36.665Z</time></trkpt><trkpt lat="44.41035" lon="9.2354183"><ele>82.0</ele><time>2026-04-21T11:58:37.664Z</time></trkpt><trkpt lat="44.410305" lon="9.2355467"><ele>82.0</ele><time>2026-04-21T11:58:38.665Z</time></trkpt><trkpt lat="44.4102433" lon="9.2356833"><ele>82.33333333333333</ele><time>2026-04-21T11:58:39.665Z</time></trkpt><trkpt lat="44.410185" lon="9.2358017"><ele>82.66666666666666</ele><time>2026-04-21T11:58:40.665Z</time></trkpt><trkpt lat="44.4101417" lon="9.23589"><ele>83.0</ele><time>2026-04-21T11:58:41.664Z</time></trkpt><trkpt lat="44.4100917" lon="9.2359583"><ele>83.33333333333333</ele><time>2026-04-21T11:58:42.665Z</time></trkpt><trkpt lat="44.4100383" lon="9.2360333"><ele>83.66666666666667</ele><time>2026-04-21T11:58:43.664Z</time></trkpt><trkpt lat="44.4099917" lon="9.23614"><ele>84.0</ele><time>2026-04-21T11:58:44.665Z</time></trkpt><trkpt lat="44.4099267" lon="9.23627"><ele>84.0</ele><time>2026-04-21T11:58:45.665Z</time></trkpt><trkpt lat="44.4098567" lon="9.23642"><ele>84.0</ele><time>2026-04-21T11:58:46.664Z</time></trkpt><trkpt lat="44.4097833" lon="9.236575"><ele>84.0</ele><time>2026-04-21T11:58:47.664Z</time></trkpt><trkpt lat="44.4097367" lon="9.23676"><ele>84.0</ele><time>2026-04-21T11:58:48.664Z</time></trkpt><trkpt lat="44.4096817" lon="9.2369417"><ele>84.0</ele><time>2026-04-21T11:58:49.665Z</time></trkpt><trkpt lat="44.40962" lon="9.2371133"><ele>84.0</ele><time>2026-04-21T11:58:50.664Z</time></trkpt><trkpt lat="44.4095583" lon="9.2372767"><ele>84.0</ele><time>2026-04-21T11:58:51.665Z</time></trkpt><trkpt lat="44.409495" lon="9.2374683"><ele>84.0</ele><time>2026-04-21T11:58:52.664Z</time></trkpt><trkpt lat="44.40943" lon="9.2376167"><ele>84.2</ele><time>2026-04-21T11:58:53.664Z</time></trkpt><trkpt lat="44.40938" lon="9.2377433"><ele>84.4</ele><time>2026-04-21T11:58:54.665Z</time></trkpt><trkpt lat="44.4093133" lon="9.2378567"><ele>84.6</ele><time>2026-04-21T11:58:55.664Z</time></trkpt><trkpt lat="44.4092133" lon="9.2379567"><ele>84.8</ele><time>2026-04-21T11:58:56.665Z</time></trkpt><trkpt lat="44.40912" lon="9.238055"><ele>85.0</ele><time>2026-04-21T11:58:57.664Z</time></trkpt><trkpt lat="44.4090217" lon="9.2381583"><ele>83.75</ele><time>2026-04-21T11:58:58.664Z</time></trkpt><trkpt lat="44.4089233" lon="9.238265"><ele>82.5</ele><time>2026-04-21T11:58:59.664Z</time></trkpt><trkpt lat="44.40883" lon="9.23837"><ele>81.25</ele><time>2026-04-21T11:59:00.665Z</time></trkpt><trkpt lat="44.408745" lon="9.2384717"><ele>80.0</ele><time>2026-04-21T11:59:01.664Z</time></trkpt><trkpt lat="44.4086617" lon="9.23857"><ele>80.0</ele><time>2026-04-21T11:59:02.665Z</time></trkpt><trkpt lat="44.4085817" lon="9.2386483"><ele>80.0</ele><time>2026-04-21T11:59:03.665Z</time></trkpt><trkpt lat="44.4085083" lon="9.23873"><ele>80.0</ele><time>2026-04-21T11:59:04.664Z</time></trkpt><trkpt lat="44.4084267" lon="9.2388183"><ele>80.0</ele><time>2026-04-21T11:59:05.664Z</time></trkpt><trkpt lat="44.4083417" lon="9.2389217"><ele>80.0</ele><time>2026-04-21T11:59:06.665Z</time></trkpt><trkpt lat="44.4082567" lon="9.2390233"><ele>81.25</ele><time>2026-04-21T11:59:07.665Z</time></trkpt><trkpt lat="44.4081583" lon="9.2391167"><ele>82.5</ele><time>2026-04-21T11:59:08.664Z</time></trkpt><trkpt lat="44.4080567" lon="9.23921"><ele>83.75</ele><time>2026-04-21T11:59:09.664Z</time></trkpt><trkpt lat="44.4079617" lon="9.2393133"><ele>85.0</ele><time>2026-04-21T11:59:10.665Z</time></trkpt><trkpt lat="44.4078717" lon="9.2394083"><ele>85.0</ele><time>2026-04-21T11:59:11.665Z</time></trkpt><trkpt lat="44.40778" lon="9.2395067"><ele>85.0</ele><time>2026-04-21T11:59:12.665Z</time></trkpt><trkpt lat="44.4076867" lon="9.2396033"><ele>85.0</ele><time>2026-04-21T11:59:13.664Z</time></trkpt><trkpt lat="44.407595" lon="9.2397017"><ele>85.0</ele><time>2026-04-21T11:59:14.665Z</time></trkpt><trkpt lat="44.407505" lon="9.2397983"><ele>85.0</ele><time>2026-04-21T11:59:15.665Z</time></trkpt><trkpt lat="44.4074167" lon="9.2398983"><ele>85.0</ele><time>2026-04-21T11:59:16.665Z</time></trkpt><trkpt lat="44.4073217" lon="9.2400033"><ele>85.0</ele><time>2026-04-21T11:59:17.664Z</time></trkpt><trkpt lat="44.40722" lon="9.2401067"><ele>85.0</ele><time>2026-04-21T11:59:18.664Z</time></trkpt><trkpt lat="44.4071117" lon="9.240195"><ele>85.0</ele><time>2026-04-21T11:59:19.664Z</time></trkpt><trkpt lat="44.407025" lon="9.2402917"><ele>85.0</ele><time>2026-04-21T11:59:20.664Z</time></trkpt><trkpt lat="44.406935" lon="9.2403883"><ele>85.0</ele><time>2026-04-21T11:59:21.665Z</time></trkpt><trkpt lat="44.4068467" lon="9.2404917"><ele>85.0</ele><time>2026-04-21T11:59:22.665Z</time></trkpt><trkpt lat="44.4067517" lon="9.24058"><ele>85.2</ele><time>2026-04-21T11:59:23.664Z</time></trkpt><trkpt lat="44.40666" lon="9.2406767"><ele>85.4</ele><time>2026-04-21T11:59:24.664Z</time></trkpt><trkpt lat="44.4065783" lon="9.2407767"><ele>85.6</ele><time>2026-04-21T11:59:25.665Z</time></trkpt><trkpt lat="44.4064983" lon="9.2408733"><ele>85.8</ele><time>2026-04-21T11:59:26.665Z</time></trkpt><trkpt lat="44.4064083" lon="9.2409633"><ele>86.0</ele><time>2026-04-21T11:59:27.665Z</time></trkpt><trkpt lat="44.40632" lon="9.2410617"><ele>86.0</ele><time>2026-04-21T11:59:28.665Z</time></trkpt><trkpt lat="44.4062267" lon="9.2411617"><ele>86.0</ele><time>2026-04-21T11:59:29.664Z</time></trkpt><trkpt lat="44.406135" lon="9.2412617"><ele>86.0</ele><time>2026-04-21T11:59:30.664Z</time></trkpt><trkpt lat="44.4060517" lon="9.2413517"><ele>86.0</ele><time>2026-04-21T11:59:31.664Z</time></trkpt><trkpt lat="44.4059633" lon="9.2414583"><ele>87.0</ele><time>2026-04-21T11:59:32.664Z</time></trkpt><trkpt lat="44.4058767" lon="9.2415717"><ele>88.0</ele><time>2026-04-21T11:59:33.664Z</time></trkpt><trkpt lat="44.4058" lon="9.241695"><ele>89.0</ele><time>2026-04-21T11:59:34.665Z</time></trkpt><trkpt lat="44.405745" lon="9.241835"><ele>90.0</ele><time>2026-04-21T11:59:35.665Z</time></trkpt><trkpt lat="44.4056917" lon="9.2419783"><ele>90.0</ele><time>2026-04-21T11:59:36.664Z</time></trkpt><trkpt lat="44.4056317" lon="9.2421183"><ele>90.0</ele><time>2026-04-21T11:59:37.664Z</time></trkpt><trkpt lat="44.40558" lon="9.2422567"><ele>90.0</ele><time>2026-04-21T11:59:38.665Z</time></trkpt><trkpt lat="44.4055283" lon="9.242395"><ele>90.0</ele><time>2026-04-21T11:59:39.664Z</time></trkpt><trkpt lat="44.405475" lon="9.2425233"><ele>90.0</ele><time>2026-04-21T11:59:40.665Z</time></trkpt><trkpt lat="44.4054283" lon="9.2426567"><ele>89.4</ele><time>2026-04-21T11:59:41.664Z</time></trkpt><trkpt lat="44.4053767" lon="9.242785"><ele>88.8</ele><time>2026-04-21T11:59:42.665Z</time></trkpt><trkpt lat="44.405325" lon="9.2429133"><ele>88.19999999999999</ele><time>2026-04-21T11:59:43.665Z</time></trkpt><trkpt lat="44.4052767" lon="9.2430483"><ele>87.6</ele><time>2026-04-21T11:59:44.665Z</time></trkpt><trkpt lat="44.4052233" lon="9.24319"><ele>87.0</ele><time>2026-04-21T11:59:45.664Z</time></trkpt><trkpt lat="44.4051683" lon="9.2433267"><ele>87.0</ele><time>2026-04-21T11:59:46.664Z</time></trkpt><trkpt lat="44.405115" lon="9.2434683"><ele>87.0</ele><time>2026-04-21T11:59:47.664Z</time></trkpt><trkpt lat="44.4050633" lon="9.2436083"><ele>87.0</ele><time>2026-04-21T11:59:48.665Z</time></trkpt><trkpt lat="44.4050067" lon="9.2437517"><ele>87.0</ele><time>2026-04-21T11:59:49.665Z</time></trkpt><trkpt lat="44.40495" lon="9.243895"><ele>87.0</ele><time>2026-04-21T11:59:50.665Z</time></trkpt><trkpt lat="44.404895" lon="9.244045"><ele>87.0</ele><time>2026-04-21T11:59:51.664Z</time></trkpt><trkpt lat="44.40483" lon="9.244195"><ele>87.0</ele><time>2026-04-21T11:59:52.664Z</time></trkpt><trkpt lat="44.4047783" lon="9.2443433"><ele>87.0</ele><time>2026-04-21T11:59:53.665Z</time></trkpt><trkpt lat="44.4047283" lon="9.2444883"><ele>87.0</ele><time>2026-04-21T11:59:54.664Z</time></trkpt><trkpt lat="44.4046733" lon="9.2446267"><ele>87.0</ele><time>2026-04-21T11:59:55.664Z</time></trkpt><trkpt lat="44.4046233" lon="9.24476"><ele>87.0</ele><time>2026-04-21T11:59:56.664Z</time></trkpt><trkpt lat="44.4045717" lon="9.2448917"><ele>87.0</ele><time>2026-04-21T11:59:57.664Z</time></trkpt><trkpt lat="44.404515" lon="9.2450283"><ele>87.0</ele><time>2026-04-21T11:59:58.665Z</time></trkpt><trkpt lat="44.4044633" lon="9.2451633"><ele>86.25</ele><time>2026-04-21T11:59:59.664Z</time></trkpt><trkpt lat="44.404405" lon="9.245305"><ele>85.5</ele><time>2026-04-21T12:00:00.665Z</time></trkpt><trkpt lat="44.4043483" lon="9.2454467"><ele>84.75</ele><time>2026-04-21T12:00:01.665Z</time></trkpt><trkpt lat="44.4042967" lon="9.24559"><ele>84.0</ele><time>2026-04-21T12:00:02.665Z</time></trkpt><trkpt lat="44.4042433" lon="9.2457383"><ele>83.75</ele><time>2026-04-21T12:00:03.665Z</time></trkpt><trkpt lat="44.4041883" lon="9.2458767"><ele>83.5</ele><time>2026-04-21T12:00:04.665Z</time></trkpt><trkpt lat="44.4041367" lon="9.2460167"><ele>83.25</ele><time>2026-04-21T12:00:05.664Z</time></trkpt><trkpt lat="44.4040817" lon="9.246145"><ele>83.0</ele><time>2026-04-21T12:00:06.665Z</time></trkpt><trkpt lat="44.40402" lon="9.2462867"><ele>83.0</ele><time>2026-04-21T12:00:07.663Z</time></trkpt><trkpt lat="44.4039667" lon="9.2464383"><ele>83.0</ele><time>2026-04-21T12:00:08.663Z</time></trkpt><trkpt lat="44.4039117" lon="9.24658"><ele>83.0</ele><time>2026-04-21T12:00:09.663Z</time></trkpt><trkpt lat="44.4038583" lon="9.2467217"><ele>83.0</ele><time>2026-04-21T12:00:10.664Z</time></trkpt><trkpt lat="44.4038167" lon="9.24686"><ele>82.80000000000001</ele><time>2026-04-21T12:00:11.664Z</time></trkpt><trkpt lat="44.4037683" lon="9.2469983"><ele>82.6</ele><time>2026-04-21T12:00:12.663Z</time></trkpt><trkpt lat="44.4037133" lon="9.2471283"><ele>82.4</ele><time>2026-04-21T12:00:13.664Z</time></trkpt><trkpt lat="44.4036633" lon="9.2472633"><ele>82.19999999999999</ele><time>2026-04-21T12:00:14.663Z</time></trkpt><trkpt lat="44.403615" lon="9.2473967"><ele>82.0</ele><time>2026-04-21T12:00:15.664Z</time></trkpt><trkpt lat="44.4035617" lon="9.2475367"><ele>82.0</ele><time>2026-04-21T12:00:16.663Z</time></trkpt><trkpt lat="44.4035067" lon="9.2476667"><ele>82.0</ele><time>2026-04-21T12:00:17.664Z</time></trkpt><trkpt lat="44.4034533" lon="9.247795"><ele>82.0</ele><time>2026-04-21T12:00:18.663Z</time></trkpt><trkpt lat="44.4034" lon="9.2479217"><ele>82.0</ele><time>2026-04-21T12:00:19.664Z</time></trkpt><trkpt lat="44.4033483" lon="9.248055"><ele>82.0</ele><time>2026-04-21T12:00:20.663Z</time></trkpt><trkpt lat="44.4033067" lon="9.248175"><ele>81.8</ele><time>2026-04-21T12:00:21.663Z</time></trkpt><trkpt lat="44.4032517" lon="9.2482917"><ele>81.6</ele><time>2026-04-21T12:00:22.663Z</time></trkpt><trkpt lat="44.4031917" lon="9.2484183"><ele>81.39999999999999</ele><time>2026-04-21T12:00:23.664Z</time></trkpt><trkpt lat="44.403135" lon="9.2485667"><ele>81.19999999999999</ele><time>2026-04-21T12:00:24.664Z</time></trkpt><trkpt lat="44.403085" lon="9.2487167"><ele>81.0</ele><time>2026-04-21T12:00:25.663Z</time></trkpt><trkpt lat="44.40302" lon="9.248855"><ele>80.6</ele><time>2026-04-21T12:00:26.664Z</time></trkpt><trkpt lat="44.4029667" lon="9.2489867"><ele>80.19999999999999</ele><time>2026-04-21T12:00:27.664Z</time></trkpt><trkpt lat="44.4029217" lon="9.2491383"><ele>79.80000000000001</ele><time>2026-04-21T12:00:28.663Z</time></trkpt><trkpt lat="44.40288" lon="9.2492783"><ele>79.4</ele><time>2026-04-21T12:00:29.664Z</time></trkpt><trkpt lat="44.402835" lon="9.2494067"><ele>79.0</ele><time>2026-04-21T12:00:30.663Z</time></trkpt><trkpt lat="44.402785" lon="9.2495267"><ele>79.0</ele><time>2026-04-21T12:00:31.664Z</time></trkpt><trkpt lat="44.40274" lon="9.249665"><ele>79.0</ele><time>2026-04-21T12:00:32.663Z</time></trkpt><trkpt lat="44.4026883" lon="9.2498117"><ele>79.0</ele><time>2026-04-21T12:00:33.663Z</time></trkpt><trkpt lat="44.4026283" lon="9.24996"><ele>79.0</ele><time>2026-04-21T12:00:34.664Z</time></trkpt><trkpt lat="44.4025767" lon="9.2501183"><ele>78.25</ele><time>2026-04-21T12:00:35.664Z</time></trkpt><trkpt lat="44.40252" lon="9.250275"><ele>77.5</ele><time>2026-04-21T12:00:36.663Z</time></trkpt><trkpt lat="44.40247" lon="9.2504367"><ele>76.75</ele><time>2026-04-21T12:00:37.664Z</time></trkpt><trkpt lat="44.402405" lon="9.2505967"><ele>76.0</ele><time>2026-04-21T12:00:38.663Z</time></trkpt><trkpt lat="44.40234" lon="9.2507567"><ele>75.5</ele><time>2026-04-21T12:00:39.664Z</time></trkpt><trkpt lat="44.40229" lon="9.2509267"><ele>75.0</ele><time>2026-04-21T12:00:40.663Z</time></trkpt><trkpt lat="44.4022433" lon="9.2510867"><ele>74.5</ele><time>2026-04-21T12:00:41.664Z</time></trkpt><trkpt lat="44.402185" lon="9.25122"><ele>74.0</ele><time>2026-04-21T12:00:42.664Z</time></trkpt><trkpt lat="44.4021433" lon="9.2513467"><ele>74.5</ele><time>2026-04-21T12:00:43.664Z</time></trkpt><trkpt lat="44.4020917" lon="9.25149"><ele>75.0</ele><time>2026-04-21T12:00:44.664Z</time></trkpt><trkpt lat="44.4020417" lon="9.2516367"><ele>75.5</ele><time>2026-04-21T12:00:45.663Z</time></trkpt><trkpt lat="44.4019883" lon="9.251795"><ele>76.0</ele><time>2026-04-21T12:00:46.663Z</time></trkpt><trkpt lat="44.4019433" lon="9.2519417"><ele>76.0</ele><time>2026-04-21T12:00:47.663Z</time></trkpt><trkpt lat="44.4018967" lon="9.2520883"><ele>76.0</ele><time>2026-04-21T12:00:48.664Z</time></trkpt><trkpt lat="44.4018467" lon="9.2522317"><ele>76.0</ele><time>2026-04-21T12:00:49.663Z</time></trkpt><trkpt lat="44.4017917" lon="9.2523767"><ele>76.0</ele><time>2026-04-21T12:00:50.663Z</time></trkpt><trkpt lat="44.4017483" lon="9.2525233"><ele>76.25</ele><time>2026-04-21T12:00:51.663Z</time></trkpt><trkpt lat="44.4017" lon="9.2526733"><ele>76.5</ele><time>2026-04-21T12:00:52.663Z</time></trkpt><trkpt lat="44.4016433" lon="9.2528267"><ele>76.75</ele><time>2026-04-21T12:00:53.664Z</time></trkpt><trkpt lat="44.40159" lon="9.2529833"><ele>77.0</ele><time>2026-04-21T12:00:54.664Z</time></trkpt><trkpt lat="44.4015417" lon="9.25315"><ele>77.4</ele><time>2026-04-21T12:00:55.663Z</time></trkpt><trkpt lat="44.4014783" lon="9.2532817"><ele>77.80000000000001</ele><time>2026-04-21T12:00:56.664Z</time></trkpt><trkpt lat="44.4014333" lon="9.253425"><ele>78.2</ele><time>2026-04-21T12:00:57.664Z</time></trkpt><trkpt lat="44.4013917" lon="9.2535717"><ele>78.60000000000001</ele><time>2026-04-21T12:00:58.663Z</time></trkpt><trkpt lat="44.4013483" lon="9.253705"><ele>79.0</ele><time>2026-04-21T12:00:59.663Z</time></trkpt><trkpt lat="44.4012983" lon="9.25385"><ele>78.2</ele><time>2026-04-21T12:01:00.664Z</time></trkpt><trkpt lat="44.4012467" lon="9.2539867"><ele>77.4</ele><time>2026-04-21T12:01:01.663Z</time></trkpt><trkpt lat="44.4011933" lon="9.254125"><ele>76.6</ele><time>2026-04-21T12:01:02.664Z</time></trkpt><trkpt lat="44.4011383" lon="9.2542583"><ele>75.8</ele><time>2026-04-21T12:01:03.664Z</time></trkpt><trkpt lat="44.4010933" lon="9.2543967"><ele>75.0</ele><time>2026-04-21T12:01:04.664Z</time></trkpt><trkpt lat="44.4010383" lon="9.2545417"><ele>75.0</ele><time>2026-04-21T12:01:05.664Z</time></trkpt><trkpt lat="44.4009867" lon="9.2546967"><ele>75.0</ele><time>2026-04-21T12:01:06.664Z</time></trkpt><trkpt lat="44.400935" lon="9.254845"><ele>75.0</ele><time>2026-04-21T12:01:07.664Z</time></trkpt><trkpt lat="44.4008867" lon="9.2549933"><ele>75.0</ele><time>2026-04-21T12:01:08.664Z</time></trkpt><trkpt lat="44.4008433" lon="9.2551333"><ele>75.0</ele><time>2026-04-21T12:01:09.663Z</time></trkpt><trkpt lat="44.400795" lon="9.2552767"><ele>75.0</ele><time>2026-04-21T12:01:10.664Z</time></trkpt><trkpt lat="44.40075" lon="9.2554167"><ele>75.0</ele><time>2026-04-21T12:01:11.663Z</time></trkpt><trkpt lat="44.4007317" lon="9.2555633"><ele>75.0</ele><time>2026-04-21T12:01:12.664Z</time></trkpt><trkpt lat="44.400745" lon="9.2557133"><ele>75.0</ele><time>2026-04-21T12:01:13.663Z</time></trkpt><trkpt lat="44.4007817" lon="9.255865"><ele>74.75</ele><time>2026-04-21T12:01:14.664Z</time></trkpt><trkpt lat="44.4008083" lon="9.2560283"><ele>74.5</ele><time>2026-04-21T12:01:15.663Z</time></trkpt><trkpt lat="44.4008533" lon="9.256175"><ele>74.25</ele><time>2026-04-21T12:01:16.664Z</time></trkpt><trkpt lat="44.4008917" lon="9.256325"><ele>74.0</ele><time>2026-04-21T12:01:17.664Z</time></trkpt><trkpt lat="44.4009367" lon="9.2564633"><ele>73.75</ele><time>2026-04-21T12:01:18.663Z</time></trkpt><trkpt lat="44.4009767" lon="9.2566083"><ele>73.5</ele><time>2026-04-21T12:01:19.663Z</time></trkpt><trkpt lat="44.4010117" lon="9.2567683"><ele>73.25</ele><time>2026-04-21T12:01:20.664Z</time></trkpt><trkpt lat="44.4010333" lon="9.2569367"><ele>73.0</ele><time>2026-04-21T12:01:21.664Z</time></trkpt><trkpt lat="44.40107" lon="9.2570833"><ele>73.0</ele><time>2026-04-21T12:01:22.663Z</time></trkpt><trkpt lat="44.4011" lon="9.2572233"><ele>73.0</ele><time>2026-04-21T12:01:23.663Z</time></trkpt><trkpt lat="44.401125" lon="9.2573617"><ele>73.0</ele><time>2026-04-21T12:01:24.663Z</time></trkpt><trkpt lat="44.401145" lon="9.2574917"><ele>73.0</ele><time>2026-04-21T12:01:25.663Z</time></trkpt><trkpt lat="44.40115" lon="9.2576217"><ele>73.0</ele><time>2026-04-21T12:01:26.663Z</time></trkpt><trkpt lat="44.4011367" lon="9.2577617"><ele>73.25</ele><time>2026-04-21T12:01:27.663Z</time></trkpt><trkpt lat="44.4010983" lon="9.2579217"><ele>73.5</ele><time>2026-04-21T12:01:28.663Z</time></trkpt><trkpt lat="44.40105" lon="9.2580817"><ele>73.75</ele><time>2026-04-21T12:01:29.664Z</time></trkpt><trkpt lat="44.400995" lon="9.25821"><ele>74.0</ele><time>2026-04-21T12:01:30.663Z</time></trkpt><trkpt lat="44.4009233" lon="9.25834"><ele>75.0</ele><time>2026-04-21T12:01:31.663Z</time></trkpt><trkpt lat="44.4008533" lon="9.25846"><ele>76.0</ele><time>2026-04-21T12:01:32.663Z</time></trkpt><trkpt lat="44.4007717" lon="9.2585767"><ele>77.0</ele><time>2026-04-21T12:01:33.663Z</time></trkpt><trkpt lat="44.400695" lon="9.2586983"><ele>78.0</ele><time>2026-04-21T12:01:34.664Z</time></trkpt><trkpt lat="44.4006233" lon="9.2588217"><ele>78.0</ele><time>2026-04-21T12:01:35.664Z</time></trkpt><trkpt lat="44.400555" lon="9.258945"><ele>78.0</ele><time>2026-04-21T12:01:36.663Z</time></trkpt><trkpt lat="44.4004883" lon="9.259065"><ele>78.0</ele><time>2026-04-21T12:01:37.663Z</time></trkpt><trkpt lat="44.4004117" lon="9.2591717"><ele>78.0</ele><time>2026-04-21T12:01:38.663Z</time></trkpt><trkpt lat="44.4003317" lon="9.2592583"><ele>78.0</ele><time>2026-04-21T12:01:39.664Z</time></trkpt><trkpt lat="44.4002367" lon="9.2593233"><ele>77.5</ele><time>2026-04-21T12:01:40.664Z</time></trkpt><trkpt lat="44.4001283" lon="9.25939"><ele>77.0</ele><time>2026-04-21T12:01:41.664Z</time></trkpt><trkpt lat="44.4000033" lon="9.2594467"><ele>76.5</ele><time>2026-04-21T12:01:42.663Z</time></trkpt><trkpt lat="44.3998733" lon="9.2595"><ele>76.0</ele><time>2026-04-21T12:01:43.663Z</time></trkpt><trkpt lat="44.399745" lon="9.25954"><ele>74.25</ele><time>2026-04-21T12:01:44.663Z</time></trkpt><trkpt lat="44.399615" lon="9.2595567"><ele>72.5</ele><time>2026-04-21T12:01:45.663Z</time></trkpt><trkpt lat="44.3994983" lon="9.2595833"><ele>70.75</ele><time>2026-04-21T12:01:46.663Z</time></trkpt><trkpt lat="44.3993833" lon="9.25961"><ele>69.0</ele><time>2026-04-21T12:01:47.664Z</time></trkpt><trkpt lat="44.3992633" lon="9.2596417"><ele>69.0</ele><time>2026-04-21T12:01:48.664Z</time></trkpt><trkpt lat="44.3991483" lon="9.2596767"><ele>69.0</ele><time>2026-04-21T12:01:49.663Z</time></trkpt><trkpt lat="44.399025" lon="9.2597"><ele>69.0</ele><time>2026-04-21T12:01:50.664Z</time></trkpt><trkpt lat="44.3989217" lon="9.2597183"><ele>69.0</ele><time>2026-04-21T12:01:51.664Z</time></trkpt><trkpt lat="44.3988233" lon="9.2597117"><ele>69.0</ele><time>2026-04-21T12:01:52.663Z</time></trkpt><trkpt lat="44.398725" lon="9.259665"><ele>69.0</ele><time>2026-04-21T12:01:53.664Z</time></trkpt><trkpt lat="44.3986233" lon="9.259605"><ele>69.0</ele><time>2026-04-21T12:01:54.664Z</time></trkpt><trkpt lat="44.3985133" lon="9.25954"><ele>69.0</ele><time>2026-04-21T12:01:55.664Z</time></trkpt><trkpt lat="44.3984017" lon="9.2594733"><ele>69.0</ele><time>2026-04-21T12:01:56.663Z</time></trkpt><trkpt lat="44.39829" lon="9.2594233"><ele>69.0</ele><time>2026-04-21T12:01:57.664Z</time></trkpt><trkpt lat="44.39817" lon="9.2593983"><ele>69.0</ele><time>2026-04-21T12:01:58.663Z</time></trkpt><trkpt lat="44.3980533" lon="9.2593733"><ele>69.0</ele><time>2026-04-21T12:01:59.664Z</time></trkpt><trkpt lat="44.3979317" lon="9.2593617"><ele>69.0</ele><time>2026-04-21T12:02:00.664Z</time></trkpt><trkpt lat="44.3977933" lon="9.2593433"><ele>69.5</ele><time>2026-04-21T12:02:01.664Z</time></trkpt><trkpt lat="44.397665" lon="9.2593317"><ele>70.0</ele><time>2026-04-21T12:02:02.664Z</time></trkpt><trkpt lat="44.3975383" lon="9.2593083"><ele>70.5</ele><time>2026-04-21T12:02:03.664Z</time></trkpt><trkpt lat="44.3974183" lon="9.259285"><ele>71.0</ele><time>2026-04-21T12:02:04.663Z</time></trkpt><trkpt lat="44.397305" lon="9.2592683"><ele>71.0</ele><time>2026-04-21T12:02:05.664Z</time></trkpt><trkpt lat="44.3972017" lon="9.2592517"><ele>71.0</ele><time>2026-04-21T12:02:06.663Z</time></trkpt><trkpt lat="44.3970983" lon="9.259235"><ele>71.0</ele><time>2026-04-21T12:02:07.664Z</time></trkpt><trkpt lat="44.3969983" lon="9.25923"><ele>71.0</ele><time>2026-04-21T12:02:08.664Z</time></trkpt><trkpt lat="44.3968833" lon="9.2592333"><ele>71.0</ele><time>2026-04-21T12:02:09.664Z</time></trkpt><trkpt lat="44.3967533" lon="9.2592517"><ele>71.0</ele><time>2026-04-21T12:02:10.664Z</time></trkpt><trkpt lat="44.3966083" lon="9.2592833"><ele>71.0</ele><time>2026-04-21T12:02:11.664Z</time></trkpt><trkpt lat="44.3964483" lon="9.25934"><ele>71.0</ele><time>2026-04-21T12:02:12.664Z</time></trkpt><trkpt lat="44.3962683" lon="9.25941"><ele>70.0</ele><time>2026-04-21T12:02:13.664Z</time></trkpt><trkpt lat="44.396085" lon="9.2594883"><ele>69.0</ele><time>2026-04-21T12:02:14.663Z</time></trkpt><trkpt lat="44.3959167" lon="9.259565"><ele>68.0</ele><time>2026-04-21T12:02:15.663Z</time></trkpt><trkpt lat="44.3957617" lon="9.259645"><ele>68.0</ele><time>2026-04-21T12:02:16.664Z</time></trkpt><trkpt lat="44.3956117" lon="9.2597217"><ele>68.0</ele><time>2026-04-21T12:02:17.663Z</time></trkpt><trkpt lat="44.395475" lon="9.2598283"><ele>68.0</ele><time>2026-04-21T12:02:18.664Z</time></trkpt><trkpt lat="44.3953633" lon="9.2599583"><ele>68.66666666666667</ele><time>2026-04-21T12:02:19.664Z</time></trkpt><trkpt lat="44.3952683" lon="9.2601283"><ele>69.33333333333333</ele><time>2026-04-21T12:02:20.664Z</time></trkpt><trkpt lat="44.3951817" lon="9.2603383"><ele>70.0</ele><time>2026-04-21T12:02:21.663Z</time></trkpt><trkpt lat="44.395085" lon="9.2605633"><ele>72.0</ele><time>2026-04-21T12:02:22.664Z</time></trkpt><trkpt lat="44.3950083" lon="9.260785"><ele>74.0</ele><time>2026-04-21T12:02:23.663Z</time></trkpt><trkpt lat="44.394925" lon="9.26099"><ele>76.0</ele><time>2026-04-21T12:02:24.664Z</time></trkpt><trkpt lat="44.3948567" lon="9.261195"><ele>76.0</ele><time>2026-04-21T12:02:25.663Z</time></trkpt><trkpt lat="44.3947917" lon="9.2614"><ele>76.0</ele><time>2026-04-21T12:02:26.663Z</time></trkpt><trkpt lat="44.394725" lon="9.261605"><ele>76.0</ele><time>2026-04-21T12:02:27.664Z</time></trkpt><trkpt lat="44.3946667" lon="9.2617883"><ele>73.0</ele><time>2026-04-21T12:02:28.663Z</time></trkpt><trkpt lat="44.3946067" lon="9.2619583"><ele>70.0</ele><time>2026-04-21T12:02:29.664Z</time></trkpt><trkpt lat="44.3945683" lon="9.2621517"><ele>67.0</ele><time>2026-04-21T12:02:30.664Z</time></trkpt><trkpt lat="44.3945583" lon="9.2623633"><ele>64.0</ele><time>2026-04-21T12:02:31.664Z</time></trkpt><trkpt lat="44.394565" lon="9.2625767"><ele>64.0</ele><time>2026-04-21T12:02:32.664Z</time></trkpt><trkpt lat="44.3945783" lon="9.2627717"><ele>64.0</ele><time>2026-04-21T12:02:33.663Z</time></trkpt><trkpt lat="44.3946167" lon="9.262955"><ele>64.0</ele><time>2026-04-21T12:02:34.663Z</time></trkpt><trkpt lat="44.394675" lon="9.2631467"><ele>64.0</ele><time>2026-04-21T12:02:35.663Z</time></trkpt><trkpt lat="44.3947283" lon="9.2633533"><ele>68.0</ele><time>2026-04-21T12:02:36.663Z</time></trkpt><trkpt lat="44.3948017" lon="9.263555"><ele>72.0</ele><time>2026-04-21T12:02:37.663Z</time></trkpt><trkpt lat="44.3948717" lon="9.2637583"><ele>76.0</ele><time>2026-04-21T12:02:38.664Z</time></trkpt><trkpt lat="44.3949417" lon="9.2639483"><ele>76.0</ele><time>2026-04-21T12:02:39.663Z</time></trkpt><trkpt lat="44.395005" lon="9.264145"><ele>76.0</ele><time>2026-04-21T12:02:40.663Z</time></trkpt><trkpt lat="44.395045" lon="9.2643483"><ele>76.0</ele><time>2026-04-21T12:02:41.663Z</time></trkpt><trkpt lat="44.3950483" lon="9.2645583"><ele>76.0</ele><time>2026-04-21T12:02:42.664Z</time></trkpt><trkpt lat="44.3950417" lon="9.2647717"><ele>76.0</ele><time>2026-04-21T12:02:43.663Z</time></trkpt><trkpt lat="44.395015" lon="9.2649833"><ele>76.0</ele><time>2026-04-21T12:02:44.664Z</time></trkpt><trkpt lat="44.3949833" lon="9.2652"><ele>75.66666666666666</ele><time>2026-04-21T12:02:45.663Z</time></trkpt><trkpt lat="44.3949533" lon="9.2654233"><ele>75.33333333333333</ele><time>2026-04-21T12:02:46.663Z</time></trkpt><trkpt lat="44.3949217" lon="9.2656433"><ele>75.0</ele><time>2026-04-21T12:02:47.663Z</time></trkpt><trkpt lat="44.3948817" lon="9.2658517"><ele>74.33333333333333</ele><time>2026-04-21T12:02:48.664Z</time></trkpt><trkpt lat="44.3948467" lon="9.2660683"><ele>73.66666666666666</ele><time>2026-04-21T12:02:49.663Z</time></trkpt><trkpt lat="44.3948167" lon="9.2662867"><ele>73.0</ele><time>2026-04-21T12:02:50.663Z</time></trkpt><trkpt lat="44.3947867" lon="9.2664967"><ele>75.66666666666666</ele><time>2026-04-21T12:02:51.664Z</time></trkpt><trkpt lat="44.39476" lon="9.2667067"><ele>78.33333333333333</ele><time>2026-04-21T12:02:52.663Z</time></trkpt><trkpt lat="44.3947383" lon="9.2669267"><ele>81.0</ele><time>2026-04-21T12:02:53.663Z</time></trkpt><trkpt lat="44.39471" lon="9.26715"><ele>83.0</ele><time>2026-04-21T12:02:54.663Z</time></trkpt><trkpt lat="44.394675" lon="9.2673667"><ele>85.0</ele><time>2026-04-21T12:02:55.664Z</time></trkpt><trkpt lat="44.3946583" lon="9.267575"><ele>87.0</ele><time>2026-04-21T12:02:56.664Z</time></trkpt><trkpt lat="44.3946383" lon="9.26779"><ele>80.33333333333333</ele><time>2026-04-21T12:02:57.663Z</time></trkpt><trkpt lat="44.39461" lon="9.2680033"><ele>73.66666666666666</ele><time>2026-04-21T12:02:58.664Z</time></trkpt><trkpt lat="44.3945767" lon="9.2682183"><ele>67.0</ele><time>2026-04-21T12:02:59.663Z</time></trkpt><trkpt lat="44.3945533" lon="9.2684083"><ele>67.0</ele><time>2026-04-21T12:03:00.664Z</time></trkpt><trkpt lat="44.39452" lon="9.26861"><ele>67.0</ele><time>2026-04-21T12:03:01.664Z</time></trkpt><trkpt lat="44.39449" lon="9.2688017"><ele>67.0</ele><time>2026-04-21T12:03:02.664Z</time></trkpt><trkpt lat="44.3944567" lon="9.26899"><ele>67.0</ele><time>2026-04-21T12:03:03.664Z</time></trkpt><trkpt lat="44.3944267" lon="9.2691883"><ele>68.33333333333333</ele><time>2026-04-21T12:03:04.663Z</time></trkpt><trkpt lat="44.3943967" lon="9.2693933"><ele>69.66666666666667</ele><time>2026-04-21T12:03:05.663Z</time></trkpt><trkpt lat="44.3943467" lon="9.2695983"><ele>71.0</ele><time>2026-04-21T12:03:06.664Z</time></trkpt><trkpt lat="44.394295" lon="9.2698017"><ele>73.0</ele><time>2026-04-21T12:03:07.664Z</time></trkpt><trkpt lat="44.3942317" lon="9.269995"><ele>75.0</ele><time>2026-04-21T12:03:08.663Z</time></trkpt><trkpt lat="44.3941767" lon="9.2701817"><ele>77.0</ele><time>2026-04-21T12:03:09.663Z</time></trkpt><trkpt lat="44.3941117" lon="9.2703667"><ele>79.0</ele><time>2026-04-21T12:03:10.663Z</time></trkpt><trkpt lat="44.3940433" lon="9.2705517"><ele>75.33333333333333</ele><time>2026-04-21T12:03:11.664Z</time></trkpt><trkpt lat="44.39395" lon="9.270745"><ele>71.66666666666667</ele><time>2026-04-21T12:03:12.664Z</time></trkpt><trkpt lat="44.3938833" lon="9.2709317"><ele>68.0</ele><time>2026-04-21T12:03:13.663Z</time></trkpt><trkpt lat="44.393815" lon="9.27112"><ele>68.0</ele><time>2026-04-21T12:03:14.663Z</time></trkpt><trkpt lat="44.39374" lon="9.27131"><ele>68.0</ele><time>2026-04-21T12:03:15.663Z</time></trkpt><trkpt lat="44.3936733" lon="9.2714983"><ele>68.0</ele><time>2026-04-21T12:03:16.663Z</time></trkpt><trkpt lat="44.39361" lon="9.271675"><ele>68.0</ele><time>2026-04-21T12:03:17.664Z</time></trkpt><trkpt lat="44.393535" lon="9.27184"><ele>68.75</ele><time>2026-04-21T12:03:18.663Z</time></trkpt><trkpt lat="44.3934417" lon="9.271985"><ele>69.5</ele><time>2026-04-21T12:03:19.663Z</time></trkpt><trkpt lat="44.3933433" lon="9.2720967"><ele>70.25</ele><time>2026-04-21T12:03:20.664Z</time></trkpt><trkpt lat="44.3932067" lon="9.2721633"><ele>71.0</ele><time>2026-04-21T12:03:21.664Z</time></trkpt><trkpt lat="44.3930533" lon="9.2722167"><ele>71.33333333333334</ele><time>2026-04-21T12:03:22.664Z</time></trkpt><trkpt lat="44.3928917" lon="9.2722467"><ele>71.66666666666667</ele><time>2026-04-21T12:03:23.664Z</time></trkpt><trkpt lat="44.3927433" lon="9.2722733"><ele>72.0</ele><time>2026-04-21T12:03:24.664Z</time></trkpt><trkpt lat="44.3926033" lon="9.2723033"><ele>72.0</ele><time>2026-04-21T12:03:25.664Z</time></trkpt><trkpt lat="44.39247" lon="9.2723383"><ele>72.0</ele><time>2026-04-21T12:03:26.663Z</time></trkpt><trkpt lat="44.3923367" lon="9.272385"><ele>72.0</ele><time>2026-04-21T12:03:27.663Z</time></trkpt><trkpt lat="44.3922133" lon="9.2724567"><ele>72.0</ele><time>2026-04-21T12:03:28.664Z</time></trkpt><trkpt lat="44.3920967" lon="9.2725567"><ele>68.66666666666667</ele><time>2026-04-21T12:03:29.664Z</time></trkpt><trkpt lat="44.39199" lon="9.2727067"><ele>65.33333333333334</ele><time>2026-04-21T12:03:30.664Z</time></trkpt><trkpt lat="44.3919" lon="9.2728767"><ele>62.0</ele><time>2026-04-21T12:03:31.664Z</time></trkpt><trkpt lat="44.3918067" lon="9.2730483"><ele>64.0</ele><time>2026-04-21T12:03:32.663Z</time></trkpt><trkpt lat="44.391715" lon="9.2732233"><ele>66.0</ele><time>2026-04-21T12:03:33.664Z</time></trkpt><trkpt lat="44.3916183" lon="9.2733983"><ele>68.0</ele><time>2026-04-21T12:03:34.663Z</time></trkpt><trkpt lat="44.391525" lon="9.2735783"><ele>68.0</ele><time>2026-04-21T12:03:35.663Z</time></trkpt><trkpt lat="44.3914267" lon="9.2737633"><ele>68.0</ele><time>2026-04-21T12:03:36.663Z</time></trkpt><trkpt lat="44.3913367" lon="9.273945"><ele>68.0</ele><time>2026-04-21T12:03:37.663Z</time></trkpt><trkpt lat="44.3912467" lon="9.2741167"><ele>64.33333333333334</ele><time>2026-04-21T12:03:38.663Z</time></trkpt><trkpt lat="44.39117" lon="9.2742917"><ele>60.66666666666667</ele><time>2026-04-21T12:03:39.664Z</time></trkpt><trkpt lat="44.3910933" lon="9.2744817"><ele>57.0</ele><time>2026-04-21T12:03:40.664Z</time></trkpt><trkpt lat="44.39102" lon="9.27468"><ele>58.33333333333333</ele><time>2026-04-21T12:03:41.664Z</time></trkpt><trkpt lat="44.3909583" lon="9.274905"><ele>59.666666666666664</ele><time>2026-04-21T12:03:42.663Z</time></trkpt><trkpt lat="44.3908967" lon="9.2751517"><ele>61.0</ele><time>2026-04-21T12:03:43.663Z</time></trkpt><trkpt lat="44.3908267" lon="9.2754117"><ele>62.0</ele><time>2026-04-21T12:03:44.663Z</time></trkpt><trkpt lat="44.3907567" lon="9.2756683"><ele>63.0</ele><time>2026-04-21T12:03:45.663Z</time></trkpt><trkpt lat="44.3906833" lon="9.2759033"><ele>64.0</ele><time>2026-04-21T12:03:46.664Z</time></trkpt><trkpt lat="44.3905983" lon="9.2761067"><ele>62.0</ele><time>2026-04-21T12:03:47.663Z</time></trkpt><trkpt lat="44.3904967" lon="9.276305"><ele>60.0</ele><time>2026-04-21T12:03:48.663Z</time></trkpt><trkpt lat="44.3903717" lon="9.2764883"><ele>58.0</ele><time>2026-04-21T12:03:49.663Z</time></trkpt><trkpt lat="44.3902383" lon="9.276675"><ele>58.0</ele><time>2026-04-21T12:03:50.663Z</time></trkpt><trkpt lat="44.390105" lon="9.2768533"><ele>58.0</ele><time>2026-04-21T12:03:51.663Z</time></trkpt><trkpt lat="44.3899833" lon="9.2770233"><ele>58.0</ele><time>2026-04-21T12:03:52.664Z</time></trkpt><trkpt lat="44.3898833" lon="9.2772217"><ele>57.0</ele><time>2026-04-21T12:03:53.663Z</time></trkpt><trkpt lat="44.3897883" lon="9.27743"><ele>56.0</ele><time>2026-04-21T12:03:54.663Z</time></trkpt><trkpt lat="44.3897033" lon="9.27765"><ele>55.0</ele><time>2026-04-21T12:03:55.664Z</time></trkpt><trkpt lat="44.3896167" lon="9.2778683"><ele>55.0</ele><time>2026-04-21T12:03:56.663Z</time></trkpt><trkpt lat="44.3895167" lon="9.2780683"><ele>55.0</ele><time>2026-04-21T12:03:57.664Z</time></trkpt><trkpt lat="44.3894033" lon="9.2782267"><ele>55.0</ele><time>2026-04-21T12:03:58.664Z</time></trkpt><trkpt lat="44.38931" lon="9.2783933"><ele>55.0</ele><time>2026-04-21T12:03:59.663Z</time></trkpt><trkpt lat="44.3892317" lon="9.2785717"><ele>55.0</ele><time>2026-04-21T12:04:00.663Z</time></trkpt><trkpt lat="44.3891667" lon="9.2787533"><ele>55.0</ele><time>2026-04-21T12:04:01.663Z</time></trkpt><trkpt lat="44.3890983" lon="9.278925"><ele>55.0</ele><time>2026-04-21T12:04:02.663Z</time></trkpt><trkpt lat="44.3890133" lon="9.27909"><ele>53.666666666666664</ele><time>2026-04-21T12:04:03.664Z</time></trkpt><trkpt lat="44.3889" lon="9.279245"><ele>52.33333333333333</ele><time>2026-04-21T12:04:04.664Z</time></trkpt><trkpt lat="44.3887767" lon="9.2793883"><ele>51.0</ele><time>2026-04-21T12:04:05.663Z</time></trkpt><trkpt lat="44.3886467" lon="9.2795167"><ele>51.0</ele><time>2026-04-21T12:04:06.664Z</time></trkpt><trkpt lat="44.38852" lon="9.2796333"><ele>51.0</ele><time>2026-04-21T12:04:07.664Z</time></trkpt><trkpt lat="44.388395" lon="9.2797517"><ele>51.0</ele><time>2026-04-21T12:04:08.664Z</time></trkpt><trkpt lat="44.3882783" lon="9.279865"><ele>51.0</ele><time>2026-04-21T12:04:09.664Z</time></trkpt><trkpt lat="44.3881567" lon="9.279965"><ele>50.75</ele><time>2026-04-21T12:04:10.664Z</time></trkpt><trkpt lat="44.38804" lon="9.280085"><ele>50.5</ele><time>2026-04-21T12:04:11.664Z</time></trkpt><trkpt lat="44.3879283" lon="9.2802"><ele>50.25</ele><time>2026-04-21T12:04:12.663Z</time></trkpt><trkpt lat="44.3878233" lon="9.2803217"><ele>50.0</ele><time>2026-04-21T12:04:13.663Z</time></trkpt><trkpt lat="44.3877283" lon="9.2804417"><ele>50.0</ele><time>2026-04-21T12:04:14.664Z</time></trkpt><trkpt lat="44.38763" lon="9.2805467"><ele>50.0</ele><time>2026-04-21T12:04:15.664Z</time></trkpt><trkpt lat="44.3875333" lon="9.28065"><ele>50.0</ele><time>2026-04-21T12:04:16.663Z</time></trkpt><trkpt lat="44.3874167" lon="9.28072"><ele>50.0</ele><time>2026-04-21T12:04:17.664Z</time></trkpt><trkpt lat="44.387295" lon="9.2807683"><ele>50.25</ele><time>2026-04-21T12:04:18.663Z</time></trkpt><trkpt lat="44.387175" lon="9.2807933"><ele>50.5</ele><time>2026-04-21T12:04:19.664Z</time></trkpt><trkpt lat="44.3870617" lon="9.2808017"><ele>50.75</ele><time>2026-04-21T12:04:20.663Z</time></trkpt><trkpt lat="44.38694" lon="9.2808033"><ele>51.0</ele><time>2026-04-21T12:04:21.663Z</time></trkpt><trkpt lat="44.3868217" lon="9.280815"><ele>51.0</ele><time>2026-04-21T12:04:22.663Z</time></trkpt><trkpt lat="44.3867017" lon="9.2808267"><ele>51.0</ele><time>2026-04-21T12:04:23.663Z</time></trkpt><trkpt lat="44.3865867" lon="9.28085"><ele>51.0</ele><time>2026-04-21T12:04:24.664Z</time></trkpt><trkpt lat="44.38647" lon="9.28089"><ele>51.0</ele><time>2026-04-21T12:04:25.663Z</time></trkpt><trkpt lat="44.38636" lon="9.2809483"><ele>51.0</ele><time>2026-04-21T12:04:26.664Z</time></trkpt><trkpt lat="44.3862567" lon="9.2810233"><ele>51.0</ele><time>2026-04-21T12:04:27.663Z</time></trkpt><trkpt lat="44.386145" lon="9.2811267"><ele>51.0</ele><time>2026-04-21T12:04:28.664Z</time></trkpt><trkpt lat="44.386035" lon="9.2812433"><ele>51.0</ele><time>2026-04-21T12:04:29.664Z</time></trkpt><trkpt lat="44.385925" lon="9.2813533"><ele>51.5</ele><time>2026-04-21T12:04:30.663Z</time></trkpt><trkpt lat="44.3858117" lon="9.2814667"><ele>52.0</ele><time>2026-04-21T12:04:31.664Z</time></trkpt><trkpt lat="44.3856967" lon="9.28158"><ele>52.5</ele><time>2026-04-21T12:04:32.664Z</time></trkpt><trkpt lat="44.385575" lon="9.2816783"><ele>53.0</ele><time>2026-04-21T12:04:33.663Z</time></trkpt><trkpt lat="44.38547" lon="9.2817767"><ele>53.25</ele><time>2026-04-21T12:04:34.663Z</time></trkpt><trkpt lat="44.3853617" lon="9.28187"><ele>53.5</ele><time>2026-04-21T12:04:35.664Z</time></trkpt><trkpt lat="44.3852583" lon="9.2819733"><ele>53.75</ele><time>2026-04-21T12:04:36.664Z</time></trkpt><trkpt lat="44.3851583" lon="9.2820883"><ele>54.0</ele><time>2026-04-21T12:04:37.663Z</time></trkpt><trkpt lat="44.38507" lon="9.28221"><ele>54.25</ele><time>2026-04-21T12:04:38.663Z</time></trkpt><trkpt lat="44.38497" lon="9.2823383"><ele>54.5</ele><time>2026-04-21T12:04:39.664Z</time></trkpt><trkpt lat="44.384875" lon="9.2824767"><ele>54.75</ele><time>2026-04-21T12:04:40.663Z</time></trkpt><trkpt lat="44.3847883" lon="9.2826"><ele>55.0</ele><time>2026-04-21T12:04:41.664Z</time></trkpt><trkpt lat="44.3847017" lon="9.2827217"><ele>55.0</ele><time>2026-04-21T12:04:42.663Z</time></trkpt><trkpt lat="44.384615" lon="9.28284"><ele>55.0</ele><time>2026-04-21T12:04:43.664Z</time></trkpt><trkpt lat="44.384525" lon="9.2829667"><ele>55.0</ele><time>2026-04-21T12:04:44.664Z</time></trkpt><trkpt lat="44.3844433" lon="9.2831083"><ele>55.0</ele><time>2026-04-21T12:04:45.663Z</time></trkpt><trkpt lat="44.38435" lon="9.2832433"><ele>55.0</ele><time>2026-04-21T12:04:46.664Z</time></trkpt><trkpt lat="44.384255" lon="9.2833733"><ele>55.0</ele><time>2026-04-21T12:04:47.664Z</time></trkpt><trkpt lat="44.3841633" lon="9.2835167"><ele>55.0</ele><time>2026-04-21T12:04:48.663Z</time></trkpt><trkpt lat="44.3840617" lon="9.283655"><ele>55.0</ele><time>2026-04-21T12:04:49.664Z</time></trkpt><trkpt lat="44.3839583" lon="9.2837783"><ele>54.5</ele><time>2026-04-21T12:04:50.664Z</time></trkpt><trkpt lat="44.383845" lon="9.28389"><ele>54.0</ele><time>2026-04-21T12:04:51.664Z</time></trkpt><trkpt lat="44.383735" lon="9.2840067"><ele>53.5</ele><time>2026-04-21T12:04:52.664Z</time></trkpt><trkpt lat="44.3836167" lon="9.2841333"><ele>53.0</ele><time>2026-04-21T12:04:53.664Z</time></trkpt><trkpt lat="44.3835" lon="9.28426"><ele>52.75</ele><time>2026-04-21T12:04:54.663Z</time></trkpt><trkpt lat="44.3833717" lon="9.28438"><ele>52.5</ele><time>2026-04-21T12:04:55.663Z</time></trkpt><trkpt lat="44.3832517" lon="9.2845017"><ele>52.25</ele><time>2026-04-21T12:04:56.663Z</time></trkpt><trkpt lat="44.383135" lon="9.2846183"><ele>52.0</ele><time>2026-04-21T12:04:57.663Z</time></trkpt><trkpt lat="44.383025" lon="9.284735"><ele>51.75</ele><time>2026-04-21T12:04:58.663Z</time></trkpt><trkpt lat="44.3829083" lon="9.2848433"><ele>51.5</ele><time>2026-04-21T12:04:59.663Z</time></trkpt><trkpt lat="44.3827983" lon="9.28493"><ele>51.25</ele><time>2026-04-21T12:05:00.663Z</time></trkpt><trkpt lat="44.3826983" lon="9.2850217"><ele>51.0</ele><time>2026-04-21T12:05:01.663Z</time></trkpt><trkpt lat="44.3826167" lon="9.2850917"><ele>51.0</ele><time>2026-04-21T12:05:02.663Z</time></trkpt><trkpt lat="44.3825417" lon="9.285165"><ele>51.0</ele><time>2026-04-21T12:05:03.663Z</time></trkpt><trkpt lat="44.3824817" lon="9.2852217"><ele>51.0</ele><time>2026-04-21T12:05:04.663Z</time></trkpt><trkpt lat="44.38241" lon="9.2853167"><ele>51.0</ele><time>2026-04-21T12:05:06.663Z</time></trkpt><trkpt lat="44.382335" lon="9.2852867"><ele>51.0</ele><time>2026-04-21T12:05:09.664Z</time></trkpt><trkpt lat="44.3823417" lon="9.28518"><ele>51.0</ele><time>2026-04-21T12:05:11.664Z</time></trkpt><trkpt lat="44.3824083" lon="9.285085"><ele>51.0</ele><time>2026-04-21T12:05:13.663Z</time></trkpt><trkpt lat="44.3824967" lon="9.2850233"><ele>51.0</ele><time>2026-04-21T12:05:15.664Z</time></trkpt><trkpt lat="44.382585" lon="9.285015"><ele>51.0</ele><time>2026-04-21T12:05:17.663Z</time></trkpt><trkpt lat="44.382625" lon="9.2849433"><ele>51.0</ele><time>2026-04-21T12:05:20.664Z</time></trkpt><trkpt lat="44.38253" lon="9.2849683"><ele>51.0</ele><time>2026-04-21T12:06:13.664Z</time></trkpt><trkpt lat="44.3824483" lon="9.28506"><ele>51.0</ele><time>2026-04-21T12:06:15.663Z</time></trkpt><trkpt lat="44.3823933" lon="9.2851217"><ele>51.0</ele><time>2026-04-21T12:06:16.664Z</time></trkpt><trkpt lat="44.3823467" lon="9.285185"><ele>51.0</ele><time>2026-04-21T12:06:17.663Z</time></trkpt><trkpt lat="44.3823017" lon="9.2853067"><ele>51.0</ele><time>2026-04-21T12:06:19.663Z</time></trkpt><trkpt lat="44.3822933" lon="9.2854283"><ele>51.0</ele><time>2026-04-21T12:06:25.663Z</time></trkpt><trkpt lat="44.3822" lon="9.2856033"><ele>51.75</ele><time>2026-04-21T12:06:27.664Z</time></trkpt><trkpt lat="44.382115" lon="9.285755"><ele>52.5</ele><time>2026-04-21T12:06:28.664Z</time></trkpt><trkpt lat="44.382005" lon="9.2859167"><ele>53.25</ele><time>2026-04-21T12:06:29.664Z</time></trkpt><trkpt lat="44.381895" lon="9.2860617"><ele>54.0</ele><time>2026-04-21T12:06:30.664Z</time></trkpt><trkpt lat="44.3817833" lon="9.2861983"><ele>54.0</ele><time>2026-04-21T12:06:31.663Z</time></trkpt><trkpt lat="44.3816583" lon="9.2863133"><ele>54.0</ele><time>2026-04-21T12:06:32.663Z</time></trkpt><trkpt lat="44.3815383" lon="9.2864333"><ele>54.0</ele><time>2026-04-21T12:06:33.664Z</time></trkpt><trkpt lat="44.38141" lon="9.28654"><ele>54.0</ele><time>2026-04-21T12:06:34.664Z</time></trkpt><trkpt lat="44.3812783" lon="9.28664"><ele>54.0</ele><time>2026-04-21T12:06:35.664Z</time></trkpt><trkpt lat="44.3811467" lon="9.2867383"><ele>54.0</ele><time>2026-04-21T12:06:36.664Z</time></trkpt><trkpt lat="44.3810183" lon="9.2868533"><ele>54.0</ele><time>2026-04-21T12:06:37.664Z</time></trkpt><trkpt lat="44.380875" lon="9.28694"><ele>54.0</ele><time>2026-04-21T12:06:38.664Z</time></trkpt><trkpt lat="44.3807333" lon="9.2870483"><ele>54.0</ele><time>2026-04-21T12:06:39.664Z</time></trkpt><trkpt lat="44.38059" lon="9.2871417"><ele>54.0</ele><time>2026-04-21T12:06:40.663Z</time></trkpt><trkpt lat="44.3804383" lon="9.2872467"><ele>53.33333333333333</ele><time>2026-04-21T12:06:41.664Z</time></trkpt><trkpt lat="44.3802917" lon="9.287365"><ele>52.666666666666664</ele><time>2026-04-21T12:06:42.663Z</time></trkpt><trkpt lat="44.3801583" lon="9.28748"><ele>52.0</ele><time>2026-04-21T12:06:43.664Z</time></trkpt><trkpt lat="44.3800367" lon="9.2876167"><ele>52.0</ele><time>2026-04-21T12:06:44.663Z</time></trkpt><trkpt lat="44.37992" lon="9.287755"><ele>52.0</ele><time>2026-04-21T12:06:45.663Z</time></trkpt><trkpt lat="44.379805" lon="9.2878633"><ele>52.0</ele><time>2026-04-21T12:06:46.663Z</time></trkpt><trkpt lat="44.379715" lon="9.2879567"><ele>52.0</ele><time>2026-04-21T12:06:47.664Z</time></trkpt><trkpt lat="44.3796333" lon="9.288025"><ele>51.6</ele><time>2026-04-21T12:06:48.664Z</time></trkpt><trkpt lat="44.3795733" lon="9.28807"><ele>51.2</ele><time>2026-04-21T12:06:49.664Z</time></trkpt><trkpt lat="44.3795033" lon="9.2881433"><ele>50.8</ele><time>2026-04-21T12:07:17.664Z</time></trkpt><trkpt lat="44.3794567" lon="9.28821"><ele>50.4</ele><time>2026-04-21T12:07:18.664Z</time></trkpt><trkpt lat="44.3793867" lon="9.2883033"><ele>50.0</ele><time>2026-04-21T12:07:19.664Z</time></trkpt><trkpt lat="44.379285" lon="9.28842"><ele>50.0</ele><time>2026-04-21T12:07:20.663Z</time></trkpt><trkpt lat="44.3791567" lon="9.2885583"><ele>50.0</ele><time>2026-04-21T12:07:21.664Z</time></trkpt><trkpt lat="44.3790317" lon="9.2887217"><ele>50.0</ele><time>2026-04-21T12:07:22.663Z</time></trkpt><trkpt lat="44.3789133" lon="9.2889067"><ele>50.0</ele><time>2026-04-21T12:07:23.663Z</time></trkpt><trkpt lat="44.37879" lon="9.2890967"><ele>50.0</ele><time>2026-04-21T12:07:24.663Z</time></trkpt><trkpt lat="44.37867" lon="9.2892767"><ele>50.0</ele><time>2026-04-21T12:07:25.664Z</time></trkpt><trkpt lat="44.378555" lon="9.2894483"><ele>50.0</ele><time>2026-04-21T12:07:26.664Z</time></trkpt><trkpt lat="44.3784617" lon="9.2896367"><ele>50.0</ele><time>2026-04-21T12:07:27.664Z</time></trkpt><trkpt lat="44.3783667" lon="9.289825"><ele>50.0</ele><time>2026-04-21T12:07:28.663Z</time></trkpt><trkpt lat="44.3782817" lon="9.2900233"><ele>49.0</ele><time>2026-04-21T12:07:29.664Z</time></trkpt><trkpt lat="44.3781883" lon="9.2902383"><ele>48.0</ele><time>2026-04-21T12:07:30.663Z</time></trkpt><trkpt lat="44.378095" lon="9.2904517"><ele>47.0</ele><time>2026-04-21T12:07:31.663Z</time></trkpt><trkpt lat="44.3780083" lon="9.2906667"><ele>47.0</ele><time>2026-04-21T12:07:32.663Z</time></trkpt><trkpt lat="44.3779267" lon="9.29088"><ele>47.0</ele><time>2026-04-21T12:07:33.664Z</time></trkpt><trkpt lat="44.3778483" lon="9.29109"><ele>47.0</ele><time>2026-04-21T12:07:34.664Z</time></trkpt><trkpt lat="44.3777833" lon="9.2913033"><ele>50.666666666666664</ele><time>2026-04-21T12:07:35.663Z</time></trkpt><trkpt lat="44.3777117" lon="9.2915167"><ele>54.33333333333333</ele><time>2026-04-21T12:07:36.663Z</time></trkpt><trkpt lat="44.377635" lon="9.2917117"><ele>58.0</ele><time>2026-04-21T12:07:37.664Z</time></trkpt><trkpt lat="44.37755" lon="9.2919017"><ele>58.0</ele><time>2026-04-21T12:07:38.663Z</time></trkpt><trkpt lat="44.3774783" lon="9.2920933"><ele>58.0</ele><time>2026-04-21T12:07:39.664Z</time></trkpt><trkpt lat="44.377395" lon="9.2922917"><ele>58.0</ele><time>2026-04-21T12:07:40.663Z</time></trkpt><trkpt lat="44.37731" lon="9.2925033"><ele>56.666666666666664</ele><time>2026-04-21T12:07:41.663Z</time></trkpt><trkpt lat="44.3772283" lon="9.2927133"><ele>55.33333333333333</ele><time>2026-04-21T12:07:42.663Z</time></trkpt><trkpt lat="44.37714" lon="9.292945"><ele>54.0</ele><time>2026-04-21T12:07:43.663Z</time></trkpt><trkpt lat="44.3770367" lon="9.29317"><ele>54.0</ele><time>2026-04-21T12:07:44.663Z</time></trkpt><trkpt lat="44.37692" lon="9.2934017"><ele>54.0</ele><time>2026-04-21T12:07:45.664Z</time></trkpt><trkpt lat="44.3767883" lon="9.293635"><ele>54.0</ele><time>2026-04-21T12:07:46.663Z</time></trkpt><trkpt lat="44.3766533" lon="9.2938583"><ele>57.0</ele><time>2026-04-21T12:07:47.663Z</time></trkpt><trkpt lat="44.3765067" lon="9.2940633"><ele>60.0</ele><time>2026-04-21T12:07:48.663Z</time></trkpt><trkpt lat="44.3763833" lon="9.29426"><ele>63.0</ele><time>2026-04-21T12:07:49.664Z</time></trkpt><trkpt lat="44.376255" lon="9.2944633"><ele>57.666666666666664</ele><time>2026-04-21T12:07:50.664Z</time></trkpt><trkpt lat="44.3761283" lon="9.2946467"><ele>52.33333333333333</ele><time>2026-04-21T12:07:51.663Z</time></trkpt><trkpt lat="44.3760033" lon="9.2948483"><ele>47.0</ele><time>2026-04-21T12:07:52.664Z</time></trkpt><trkpt lat="44.3758683" lon="9.2950417"><ele>47.0</ele><time>2026-04-21T12:07:53.663Z</time></trkpt><trkpt lat="44.3757383" lon="9.2952383"><ele>47.0</ele><time>2026-04-21T12:07:54.664Z</time></trkpt><trkpt lat="44.37562" lon="9.2954433"><ele>47.0</ele><time>2026-04-21T12:07:55.663Z</time></trkpt><trkpt lat="44.375505" lon="9.2956383"><ele>45.666666666666664</ele><time>2026-04-21T12:07:56.663Z</time></trkpt><trkpt lat="44.3753933" lon="9.2958367"><ele>44.333333333333336</ele><time>2026-04-21T12:07:57.664Z</time></trkpt><trkpt lat="44.3752833" lon="9.296025"><ele>43.0</ele><time>2026-04-21T12:07:58.663Z</time></trkpt><trkpt lat="44.3751767" lon="9.2962133"><ele>43.0</ele><time>2026-04-21T12:07:59.663Z</time></trkpt><trkpt lat="44.3750733" lon="9.2964067"><ele>43.0</ele><time>2026-04-21T12:08:00.663Z</time></trkpt><trkpt lat="44.37498" lon="9.2965983"><ele>43.0</ele><time>2026-04-21T12:08:01.664Z</time></trkpt><trkpt lat="44.3749167" lon="9.296825"><ele>44.66666666666667</ele><time>2026-04-21T12:08:02.663Z</time></trkpt><trkpt lat="44.374845" lon="9.2970433"><ele>46.333333333333336</ele><time>2026-04-21T12:08:03.663Z</time></trkpt><trkpt lat="44.37479" lon="9.29727"><ele>48.0</ele><time>2026-04-21T12:08:04.664Z</time></trkpt><trkpt lat="44.3747483" lon="9.297505"><ele>48.33333333333333</ele><time>2026-04-21T12:08:05.664Z</time></trkpt><trkpt lat="44.3747133" lon="9.29774"><ele>48.666666666666664</ele><time>2026-04-21T12:08:06.664Z</time></trkpt><trkpt lat="44.3746617" lon="9.2979667"><ele>49.0</ele><time>2026-04-21T12:08:07.664Z</time></trkpt><trkpt lat="44.3746167" lon="9.2982067"><ele>46.666666666666664</ele><time>2026-04-21T12:08:08.664Z</time></trkpt><trkpt lat="44.3745667" lon="9.2984483"><ele>44.33333333333333</ele><time>2026-04-21T12:08:09.664Z</time></trkpt><trkpt lat="44.37451" lon="9.2986767"><ele>42.0</ele><time>2026-04-21T12:08:10.663Z</time></trkpt><trkpt lat="44.37445" lon="9.298905"><ele>43.0</ele><time>2026-04-21T12:08:11.664Z</time></trkpt><trkpt lat="44.374385" lon="9.2991283"><ele>44.0</ele><time>2026-04-21T12:08:12.664Z</time></trkpt><trkpt lat="44.37432" lon="9.2993567"><ele>45.0</ele><time>2026-04-21T12:08:13.664Z</time></trkpt><trkpt lat="44.3742517" lon="9.299585"><ele>46.0</ele><time>2026-04-21T12:08:14.664Z</time></trkpt><trkpt lat="44.3741867" lon="9.2998167"><ele>47.0</ele><time>2026-04-21T12:08:15.663Z</time></trkpt><trkpt lat="44.3741167" lon="9.3000383"><ele>48.0</ele><time>2026-04-21T12:08:16.664Z</time></trkpt><trkpt lat="44.3740467" lon="9.3002667"><ele>48.0</ele><time>2026-04-21T12:08:17.663Z</time></trkpt><trkpt lat="44.3739767" lon="9.3005"><ele>48.0</ele><time>2026-04-21T12:08:18.664Z</time></trkpt><trkpt lat="44.3739" lon="9.3007383"><ele>48.0</ele><time>2026-04-21T12:08:19.663Z</time></trkpt><trkpt lat="44.3738317" lon="9.30097"><ele>46.333333333333336</ele><time>2026-04-21T12:08:20.663Z</time></trkpt><trkpt lat="44.37375" lon="9.3012033"><ele>44.66666666666667</ele><time>2026-04-21T12:08:21.663Z</time></trkpt><trkpt lat="44.3737133" lon="9.30144"><ele>43.0</ele><time>2026-04-21T12:08:22.663Z</time></trkpt><trkpt lat="44.3736567" lon="9.3016533"><ele>43.0</ele><time>2026-04-21T12:08:23.663Z</time></trkpt><trkpt lat="44.3736067" lon="9.3018867"><ele>43.0</ele><time>2026-04-21T12:08:24.663Z</time></trkpt><trkpt lat="44.37356" lon="9.302115"><ele>43.0</ele><time>2026-04-21T12:08:25.664Z</time></trkpt><trkpt lat="44.3735217" lon="9.3023383"><ele>44.0</ele><time>2026-04-21T12:08:26.664Z</time></trkpt><trkpt lat="44.3734833" lon="9.3025567"><ele>45.0</ele><time>2026-04-21T12:08:27.664Z</time></trkpt><trkpt lat="44.3734367" lon="9.302775"><ele>46.0</ele><time>2026-04-21T12:08:28.663Z</time></trkpt><trkpt lat="44.3733733" lon="9.302975"><ele>49.0</ele><time>2026-04-21T12:08:29.663Z</time></trkpt><trkpt lat="44.3733183" lon="9.3031817"><ele>52.0</ele><time>2026-04-21T12:08:30.663Z</time></trkpt><trkpt lat="44.3732417" lon="9.3033733"><ele>55.0</ele><time>2026-04-21T12:08:31.663Z</time></trkpt><trkpt lat="44.37316" lon="9.3035467"><ele>55.0</ele><time>2026-04-21T12:08:32.663Z</time></trkpt><trkpt lat="44.37306" lon="9.3037"><ele>55.0</ele><time>2026-04-21T12:08:33.664Z</time></trkpt><trkpt lat="44.3729417" lon="9.3038333"><ele>55.0</ele><time>2026-04-21T12:08:34.664Z</time></trkpt><trkpt lat="44.3728033" lon="9.3039467"><ele>53.33333333333333</ele><time>2026-04-21T12:08:35.663Z</time></trkpt><trkpt lat="44.3726433" lon="9.30405"><ele>51.66666666666667</ele><time>2026-04-21T12:08:36.664Z</time></trkpt><trkpt lat="44.372485" lon="9.304145"><ele>50.0</ele><time>2026-04-21T12:08:37.663Z</time></trkpt><trkpt lat="44.372335" lon="9.30426"><ele>47.66666666666667</ele><time>2026-04-21T12:08:38.663Z</time></trkpt><trkpt lat="44.3721733" lon="9.3043833"><ele>45.333333333333336</ele><time>2026-04-21T12:08:39.664Z</time></trkpt><trkpt lat="44.372005" lon="9.304495"><ele>43.0</ele><time>2026-04-21T12:08:40.663Z</time></trkpt><trkpt lat="44.3718467" lon="9.3045967"><ele>43.0</ele><time>2026-04-21T12:08:41.663Z</time></trkpt><trkpt lat="44.3716867" lon="9.3047"><ele>43.0</ele><time>2026-04-21T12:08:42.663Z</time></trkpt><trkpt lat="44.371535" lon="9.3048183"><ele>43.0</ele><time>2026-04-21T12:08:43.663Z</time></trkpt><trkpt lat="44.3713967" lon="9.3049583"><ele>41.66666666666667</ele><time>2026-04-21T12:08:44.664Z</time></trkpt><trkpt lat="44.37127" lon="9.3051317"><ele>40.333333333333336</ele><time>2026-04-21T12:08:45.663Z</time></trkpt><trkpt lat="44.371145" lon="9.305315"><ele>39.0</ele><time>2026-04-21T12:08:46.664Z</time></trkpt><trkpt lat="44.3710267" lon="9.30549"><ele>44.0</ele><time>2026-04-21T12:08:47.663Z</time></trkpt><trkpt lat="44.3709083" lon="9.30566"><ele>49.0</ele><time>2026-04-21T12:08:48.663Z</time></trkpt><trkpt lat="44.3708" lon="9.3058217"><ele>54.0</ele><time>2026-04-21T12:08:49.663Z</time></trkpt><trkpt lat="44.3707067" lon="9.3060017"><ele>54.0</ele><time>2026-04-21T12:08:50.663Z</time></trkpt><trkpt lat="44.3706183" lon="9.30619"><ele>54.0</ele><time>2026-04-21T12:08:51.663Z</time></trkpt><trkpt lat="44.3705617" lon="9.3063933"><ele>54.0</ele><time>2026-04-21T12:08:52.664Z</time></trkpt><trkpt lat="44.370525" lon="9.306605"><ele>49.0</ele><time>2026-04-21T12:08:53.664Z</time></trkpt><trkpt lat="44.3704983" lon="9.3068267"><ele>44.0</ele><time>2026-04-21T12:08:54.663Z</time></trkpt><trkpt lat="44.370495" lon="9.307065"><ele>39.0</ele><time>2026-04-21T12:08:55.663Z</time></trkpt><trkpt lat="44.3705133" lon="9.3073"><ele>45.33333333333333</ele><time>2026-04-21T12:08:56.664Z</time></trkpt><trkpt lat="44.3705533" lon="9.307515"><ele>51.666666666666664</ele><time>2026-04-21T12:08:57.663Z</time></trkpt><trkpt lat="44.3706017" lon="9.3077017"><ele>58.0</ele><time>2026-04-21T12:08:58.664Z</time></trkpt><trkpt lat="44.3706833" lon="9.3078983"><ele>54.0</ele><time>2026-04-21T12:08:59.663Z</time></trkpt><trkpt lat="44.3707767" lon="9.30809"><ele>50.0</ele><time>2026-04-21T12:09:00.663Z</time></trkpt><trkpt lat="44.3708567" lon="9.3082817"><ele>46.0</ele><time>2026-04-21T12:09:01.664Z</time></trkpt><trkpt lat="44.370935" lon="9.3084683"><ele>46.0</ele><time>2026-04-21T12:09:02.664Z</time></trkpt><trkpt lat="44.371015" lon="9.308665"><ele>46.0</ele><time>2026-04-21T12:09:03.664Z</time></trkpt><trkpt lat="44.3711033" lon="9.3088733"><ele>46.0</ele><time>2026-04-21T12:09:04.664Z</time></trkpt><trkpt lat="44.3711917" lon="9.30908"><ele>43.66666666666667</ele><time>2026-04-21T12:09:05.663Z</time></trkpt><trkpt lat="44.3712833" lon="9.3092733"><ele>41.333333333333336</ele><time>2026-04-21T12:09:06.664Z</time></trkpt><trkpt lat="44.3713683" lon="9.309485"><ele>39.0</ele><time>2026-04-21T12:09:07.664Z</time></trkpt><trkpt lat="44.3714483" lon="9.3096783"><ele>43.33333333333333</ele><time>2026-04-21T12:09:08.663Z</time></trkpt><trkpt lat="44.3715317" lon="9.309875"><ele>47.666666666666664</ele><time>2026-04-21T12:09:09.663Z</time></trkpt><trkpt lat="44.37161" lon="9.3100617"><ele>52.0</ele><time>2026-04-21T12:09:10.664Z</time></trkpt><trkpt lat="44.3716833" lon="9.3102533"><ele>52.0</ele><time>2026-04-21T12:09:11.663Z</time></trkpt><trkpt lat="44.37175" lon="9.3104467"><ele>52.0</ele><time>2026-04-21T12:09:12.663Z</time></trkpt><trkpt lat="44.3717983" lon="9.3106367"><ele>52.0</ele><time>2026-04-21T12:09:13.664Z</time></trkpt><trkpt lat="44.3718267" lon="9.3108467"><ele>49.33333333333333</ele><time>2026-04-21T12:09:14.664Z</time></trkpt><trkpt lat="44.3718333" lon="9.3110533"><ele>46.666666666666664</ele><time>2026-04-21T12:09:15.663Z</time></trkpt><trkpt lat="44.371815" lon="9.3112683"><ele>44.0</ele><time>2026-04-21T12:09:16.664Z</time></trkpt><trkpt lat="44.3717867" lon="9.3114883"><ele>43.5</ele><time>2026-04-21T12:09:17.664Z</time></trkpt><trkpt lat="44.3717583" lon="9.31169"><ele>43.0</ele><time>2026-04-21T12:09:18.663Z</time></trkpt><trkpt lat="44.3717333" lon="9.311875"><ele>42.5</ele><time>2026-04-21T12:09:19.663Z</time></trkpt><trkpt lat="44.3717067" lon="9.3120467"><ele>42.0</ele><time>2026-04-21T12:09:20.663Z</time></trkpt><trkpt lat="44.3716917" lon="9.3122117"><ele>42.400000000000006</ele><time>2026-04-21T12:09:21.664Z</time></trkpt><trkpt lat="44.3716783" lon="9.3123633"><ele>42.800000000000004</ele><time>2026-04-21T12:09:22.663Z</time></trkpt><trkpt lat="44.3716767" lon="9.3124933"><ele>43.2</ele><time>2026-04-21T12:09:23.664Z</time></trkpt><trkpt lat="44.37167" lon="9.3126017"><ele>43.6</ele><time>2026-04-21T12:09:24.663Z</time></trkpt><trkpt lat="44.3716617" lon="9.3126917"><ele>44.0</ele><time>2026-04-21T12:09:25.664Z</time></trkpt><trkpt lat="44.3716483" lon="9.312845"><ele>44.0</ele><time>2026-04-21T12:09:27.664Z</time></trkpt><trkpt lat="44.3716583" lon="9.3129383"><ele>44.0</ele><time>2026-04-21T12:10:00.664Z</time></trkpt><trkpt lat="44.3716433" lon="9.31311"><ele>44.0</ele><time>2026-04-21T12:10:02.663Z</time></trkpt><trkpt lat="44.3716333" lon="9.3132567"><ele>44.0</ele><time>2026-04-21T12:10:03.664Z</time></trkpt><trkpt lat="44.3716167" lon="9.3134067"><ele>44.0</ele><time>2026-04-21T12:10:04.663Z</time></trkpt><trkpt lat="44.3715917" lon="9.313555"><ele>44.5</ele><time>2026-04-21T12:10:05.663Z</time></trkpt><trkpt lat="44.3715583" lon="9.3137"><ele>45.0</ele><time>2026-04-21T12:10:06.663Z</time></trkpt><trkpt lat="44.3715283" lon="9.3138383"><ele>45.5</ele><time>2026-04-21T12:10:07.663Z</time></trkpt><trkpt lat="44.3714933" lon="9.3139917"><ele>46.0</ele><time>2026-04-21T12:10:08.663Z</time></trkpt><trkpt lat="44.371445" lon="9.3141583"><ele>45.75</ele><time>2026-04-21T12:10:09.664Z</time></trkpt><trkpt lat="44.3713867" lon="9.314325"><ele>45.5</ele><time>2026-04-21T12:10:10.663Z</time></trkpt><trkpt lat="44.371325" lon="9.314495"><ele>45.25</ele><time>2026-04-21T12:10:11.664Z</time></trkpt><trkpt lat="44.3712483" lon="9.31465"><ele>45.0</ele><time>2026-04-21T12:10:12.664Z</time></trkpt><trkpt lat="44.3711517" lon="9.3148033"><ele>47.33333333333333</ele><time>2026-04-21T12:10:13.663Z</time></trkpt><trkpt lat="44.37104" lon="9.3149517"><ele>49.666666666666664</ele><time>2026-04-21T12:10:14.663Z</time></trkpt><trkpt lat="44.3709183" lon="9.31509"><ele>52.0</ele><time>2026-04-21T12:10:15.664Z</time></trkpt><trkpt lat="44.3707817" lon="9.31521"><ele>52.0</ele><time>2026-04-21T12:10:16.664Z</time></trkpt><trkpt lat="44.370645" lon="9.3153333"><ele>52.0</ele><time>2026-04-21T12:10:17.663Z</time></trkpt><trkpt lat="44.3705183" lon="9.3154567"><ele>52.0</ele><time>2026-04-21T12:10:18.663Z</time></trkpt><trkpt lat="44.3704" lon="9.3155767"><ele>50.0</ele><time>2026-04-21T12:10:19.663Z</time></trkpt><trkpt lat="44.3702867" lon="9.315695"><ele>48.0</ele><time>2026-04-21T12:10:20.664Z</time></trkpt><trkpt lat="44.3701733" lon="9.3158133"><ele>46.0</ele><time>2026-04-21T12:10:21.663Z</time></trkpt><trkpt lat="44.370045" lon="9.315925"><ele>44.0</ele><time>2026-04-21T12:10:22.663Z</time></trkpt><trkpt lat="44.3699267" lon="9.3160367"><ele>44.0</ele><time>2026-04-21T12:10:23.664Z</time></trkpt><trkpt lat="44.3698133" lon="9.316135"><ele>44.0</ele><time>2026-04-21T12:10:24.664Z</time></trkpt><trkpt lat="44.3697233" lon="9.3162367"><ele>44.0</ele><time>2026-04-21T12:10:25.664Z</time></trkpt><trkpt lat="44.3695983" lon="9.3162717"><ele>44.0</ele><time>2026-04-21T12:10:26.664Z</time></trkpt><trkpt lat="44.369495" lon="9.3162783"><ele>42.6</ele><time>2026-04-21T12:10:27.663Z</time></trkpt><trkpt lat="44.3694133" lon="9.31628"><ele>41.2</ele><time>2026-04-21T12:10:28.663Z</time></trkpt><trkpt lat="44.3692983" lon="9.3162283"><ele>39.800000000000004</ele><time>2026-04-21T12:10:30.663Z</time></trkpt><trkpt lat="44.369265" lon="9.3161383"><ele>38.400000000000006</ele><time>2026-04-21T12:10:31.664Z</time></trkpt><trkpt lat="44.3692417" lon="9.31601"><ele>37.0</ele><time>2026-04-21T12:10:32.664Z</time></trkpt><trkpt lat="44.3692267" lon="9.3158467"><ele>37.0</ele><time>2026-04-21T12:10:33.663Z</time></trkpt><trkpt lat="44.3692133" lon="9.3156683"><ele>37.0</ele><time>2026-04-21T12:10:34.663Z</time></trkpt><trkpt lat="44.3691833" lon="9.31551"><ele>37.0</ele><time>2026-04-21T12:10:35.663Z</time></trkpt><trkpt lat="44.36913" lon="9.3153583"><ele>37.0</ele><time>2026-04-21T12:10:36.663Z</time></trkpt><trkpt lat="44.3690533" lon="9.3152267"><ele>37.0</ele><time>2026-04-21T12:10:37.664Z</time></trkpt><trkpt lat="44.3689667" lon="9.3150933"><ele>37.0</ele><time>2026-04-21T12:10:38.664Z</time></trkpt><trkpt lat="44.36886" lon="9.3149667"><ele>37.0</ele><time>2026-04-21T12:10:39.663Z</time></trkpt><trkpt lat="44.36876" lon="9.3148317"><ele>37.0</ele><time>2026-04-21T12:10:40.664Z</time></trkpt><trkpt lat="44.3686517" lon="9.3147333"><ele>39.0</ele><time>2026-04-21T12:10:41.663Z</time></trkpt><trkpt lat="44.3685467" lon="9.3146433"><ele>41.0</ele><time>2026-04-21T12:10:42.664Z</time></trkpt><trkpt lat="44.3684467" lon="9.3145533"><ele>43.0</ele><time>2026-04-21T12:10:43.664Z</time></trkpt><trkpt lat="44.3683783" lon="9.3144917"><ele>45.0</ele><time>2026-04-21T12:10:44.663Z</time></trkpt><trkpt lat="44.3683283" lon="9.314365"><ele>47.0</ele><time>2026-04-21T12:10:46.663Z</time></trkpt><trkpt lat="44.36836" lon="9.3141817"><ele>47.0</ele><time>2026-04-21T12:10:48.664Z</time></trkpt><trkpt lat="44.3683983" lon="9.3140683"><ele>47.0</ele><time>2026-04-21T12:10:49.663Z</time></trkpt><trkpt lat="44.36845" lon="9.3139317"><ele>47.0</ele><time>2026-04-21T12:10:50.664Z</time></trkpt><trkpt lat="44.3685167" lon="9.3137933"><ele>47.0</ele><time>2026-04-21T12:10:51.663Z</time></trkpt><trkpt lat="44.36858" lon="9.3136633"><ele>47.0</ele><time>2026-04-21T12:10:52.664Z</time></trkpt><trkpt lat="44.3686283" lon="9.31355"><ele>50.6</ele><time>2026-04-21T12:10:53.663Z</time></trkpt><trkpt lat="44.3686517" lon="9.3134517"><ele>54.2</ele><time>2026-04-21T12:10:54.664Z</time></trkpt><trkpt lat="44.368635" lon="9.3133433"><ele>57.8</ele><time>2026-04-21T12:10:56.664Z</time></trkpt><trkpt lat="44.3685717" lon="9.3133483"><ele>61.4</ele><time>2026-04-21T12:10:58.664Z</time></trkpt><trkpt lat="44.3684867" lon="9.3135417"><ele>65.0</ele><time>2026-04-21T12:11:00.664Z</time></trkpt><trkpt lat="44.3684317" lon="9.31369"><ele>65.0</ele><time>2026-04-21T12:11:01.664Z</time></trkpt><trkpt lat="44.3683633" lon="9.31383"><ele>65.0</ele><time>2026-04-21T12:11:02.664Z</time></trkpt><trkpt lat="44.3683" lon="9.313955"><ele>65.0</ele><time>2026-04-21T12:11:03.664Z</time></trkpt><trkpt lat="44.3682317" lon="9.3140483"><ele>65.0</ele><time>2026-04-21T12:11:04.664Z</time></trkpt><trkpt lat="44.3681533" lon="9.3141017"><ele>65.0</ele><time>2026-04-21T12:11:05.663Z</time></trkpt><trkpt lat="44.3680867" lon="9.3141183"><ele>65.66666666666667</ele><time>2026-04-21T12:11:06.663Z</time></trkpt><trkpt lat="44.3680217" lon="9.3141033"><ele>66.33333333333334</ele><time>2026-04-21T12:11:07.663Z</time></trkpt><trkpt lat="44.3679783" lon="9.314035"><ele>67.0</ele><time>2026-04-21T12:11:08.664Z</time></trkpt><trkpt lat="44.367935" lon="9.31394"><ele>67.66666666666667</ele><time>2026-04-21T12:11:09.664Z</time></trkpt><trkpt lat="44.367915" lon="9.313835"><ele>68.33333333333333</ele><time>2026-04-21T12:11:10.663Z</time></trkpt><trkpt lat="44.3679233" lon="9.3137183"><ele>69.0</ele><time>2026-04-21T12:11:11.664Z</time></trkpt><trkpt lat="44.3679433" lon="9.3135867"><ele>69.0</ele><time>2026-04-21T12:11:12.664Z</time></trkpt><trkpt lat="44.36797" lon="9.3134433"><ele>69.0</ele><time>2026-04-21T12:11:13.663Z</time></trkpt><trkpt lat="44.36799" lon="9.3133017"><ele>69.0</ele><time>2026-04-21T12:11:14.663Z</time></trkpt><trkpt lat="44.3679833" lon="9.3131617"><ele>69.0</ele><time>2026-04-21T12:11:15.664Z</time></trkpt><trkpt lat="44.367965" lon="9.3130483"><ele>69.0</ele><time>2026-04-21T12:11:16.663Z</time></trkpt><trkpt lat="44.3679383" lon="9.3129383"><ele>68.2</ele><time>2026-04-21T12:11:17.663Z</time></trkpt><trkpt lat="44.36797" lon="9.3128233"><ele>67.4</ele><time>2026-04-21T12:11:19.663Z</time></trkpt><trkpt lat="44.3680533" lon="9.312845"><ele>66.6</ele><time>2026-04-21T12:11:21.663Z</time></trkpt><trkpt lat="44.36808" lon="9.3129367"><ele>65.8</ele><time>2026-04-21T12:11:22.663Z</time></trkpt><trkpt lat="44.3680983" lon="9.3130933"><ele>65.0</ele><time>2026-04-21T12:11:23.663Z</time></trkpt><trkpt lat="44.3680933" lon="9.3132583"><ele>65.0</ele><time>2026-04-21T12:11:24.664Z</time></trkpt><trkpt lat="44.36807" lon="9.3134217"><ele>65.0</ele><time>2026-04-21T12:11:25.663Z</time></trkpt><trkpt lat="44.36805" lon="9.313545"><ele>65.0</ele><time>2026-04-21T12:11:26.663Z</time></trkpt><trkpt lat="44.3680567" lon="9.3136567"><ele>65.0</ele><time>2026-04-21T12:11:27.663Z</time></trkpt><trkpt lat="44.3681167" lon="9.3137533"><ele>65.0</ele><time>2026-04-21T12:11:29.663Z</time></trkpt><trkpt lat="44.3682133" lon="9.3136417"><ele>65.0</ele><time>2026-04-21T12:11:31.664Z</time></trkpt><trkpt lat="44.368245" lon="9.3135233"><ele>65.0</ele><time>2026-04-21T12:11:32.663Z</time></trkpt><trkpt lat="44.36824" lon="9.3133767"><ele>65.0</ele><time>2026-04-21T12:11:33.663Z</time></trkpt><trkpt lat="44.368225" lon="9.3132317"><ele>65.0</ele><time>2026-04-21T12:11:34.663Z</time></trkpt><trkpt lat="44.368215" lon="9.31308"><ele>65.0</ele><time>2026-04-21T12:11:35.663Z</time></trkpt><trkpt lat="44.3682067" lon="9.3129167"><ele>69.5</ele><time>2026-04-21T12:11:36.663Z</time></trkpt><trkpt lat="44.3682067" lon="9.312735"><ele>74.0</ele><time>2026-04-21T12:11:37.664Z</time></trkpt><trkpt lat="44.368205" lon="9.31255"><ele>78.5</ele><time>2026-04-21T12:11:38.664Z</time></trkpt><trkpt lat="44.368195" lon="9.312385"><ele>83.0</ele><time>2026-04-21T12:11:39.663Z</time></trkpt><trkpt lat="44.368165" lon="9.31224"><ele>86.60000000000001</ele><time>2026-04-21T12:11:40.663Z</time></trkpt><trkpt lat="44.3680967" lon="9.3121267"><ele>90.2</ele><time>2026-04-21T12:11:41.663Z</time></trkpt><trkpt lat="44.3680067" lon="9.3120367"><ele>93.8</ele><time>2026-04-21T12:11:42.663Z</time></trkpt><trkpt lat="44.3679183" lon="9.3119433"><ele>97.4</ele><time>2026-04-21T12:11:43.663Z</time></trkpt><trkpt lat="44.3678567" lon="9.311865"><ele>101.0</ele><time>2026-04-21T12:11:44.663Z</time></trkpt><trkpt lat="44.3678017" lon="9.3118117"><ele>101.99999999999999</ele><time>2026-04-21T12:11:45.664Z</time></trkpt><trkpt lat="44.3677283" lon="9.31183"><ele>103.0</ele><time>2026-04-21T12:11:47.664Z</time></trkpt><trkpt lat="44.3677033" lon="9.31192"><ele>104.0</ele><time>2026-04-21T12:11:48.664Z</time></trkpt><trkpt lat="44.3677183" lon="9.31203"><ele>105.0</ele><time>2026-04-21T12:11:49.664Z</time></trkpt><trkpt lat="44.3677567" lon="9.3121617"><ele>105.99999999999999</ele><time>2026-04-21T12:11:50.664Z</time></trkpt><trkpt lat="44.3677867" lon="9.3122833"><ele>107.0</ele><time>2026-04-21T12:11:51.664Z</time></trkpt><trkpt lat="44.3677883" lon="9.3124183"><ele>104.83333333333333</ele><time>2026-04-21T12:11:52.664Z</time></trkpt><trkpt lat="44.3677483" lon="9.3125483"><ele>102.66666666666666</ele><time>2026-04-21T12:11:53.663Z</time></trkpt><trkpt lat="44.3676867" lon="9.3126633"><ele>100.5</ele><time>2026-04-21T12:11:54.663Z</time></trkpt><trkpt lat="44.3676267" lon="9.3127417"><ele>98.33333333333333</ele><time>2026-04-21T12:11:55.663Z</time></trkpt><trkpt lat="44.3675583" lon="9.312775"><ele>96.16666666666666</ele><time>2026-04-21T12:11:56.663Z</time></trkpt><trkpt lat="44.36749" lon="9.3127733"><ele>94.0</ele><time>2026-04-21T12:11:57.664Z</time></trkpt><trkpt lat="44.3674" lon="9.3127333"><ele>94.0</ele><time>2026-04-21T12:11:58.664Z</time></trkpt><trkpt lat="44.3673133" lon="9.3126983"><ele>94.0</ele><time>2026-04-21T12:11:59.664Z</time></trkpt><trkpt lat="44.367225" lon="9.3126917"><ele>94.0</ele><time>2026-04-21T12:12:00.663Z</time></trkpt><trkpt lat="44.36713" lon="9.3127167"><ele>94.0</ele><time>2026-04-21T12:12:01.663Z</time></trkpt><trkpt lat="44.3670317" lon="9.31275"><ele>94.0</ele><time>2026-04-21T12:12:02.664Z</time></trkpt><trkpt lat="44.3669417" lon="9.3127633"><ele>93.80000000000001</ele><time>2026-04-21T12:12:03.664Z</time></trkpt><trkpt lat="44.3668533" lon="9.3127433"><ele>93.60000000000001</ele><time>2026-04-21T12:12:04.664Z</time></trkpt><trkpt lat="44.36677" lon="9.3126883"><ele>93.4</ele><time>2026-04-21T12:12:05.664Z</time></trkpt><trkpt lat="44.3667017" lon="9.3125983"><ele>93.2</ele><time>2026-04-21T12:12:06.663Z</time></trkpt><trkpt lat="44.3666467" lon="9.3124933"><ele>93.0</ele><time>2026-04-21T12:12:07.663Z</time></trkpt><trkpt lat="44.3665967" lon="9.3123517"><ele>98.25</ele><time>2026-04-21T12:12:08.664Z</time></trkpt><trkpt lat="44.3665467" lon="9.3122033"><ele>103.5</ele><time>2026-04-21T12:12:09.663Z</time></trkpt><trkpt lat="44.3664967" lon="9.31204"><ele>108.75</ele><time>2026-04-21T12:12:10.663Z</time></trkpt><trkpt lat="44.3664417" lon="9.3118683"><ele>114.0</ele><time>2026-04-21T12:12:11.663Z</time></trkpt><trkpt lat="44.3663833" lon="9.3116983"><ele>113.0</ele><time>2026-04-21T12:12:12.664Z</time></trkpt><trkpt lat="44.3663217" lon="9.31153"><ele>112.0</ele><time>2026-04-21T12:12:13.663Z</time></trkpt><trkpt lat="44.3662683" lon="9.3113817"><ele>111.0</ele><time>2026-04-21T12:12:14.664Z</time></trkpt><trkpt lat="44.36621" lon="9.311235"><ele>110.0</ele><time>2026-04-21T12:12:15.664Z</time></trkpt><trkpt lat="44.3661283" lon="9.3111"><ele>110.0</ele><time>2026-04-21T12:12:16.664Z</time></trkpt><trkpt lat="44.36604" lon="9.3109583"><ele>110.0</ele><time>2026-04-21T12:12:17.663Z</time></trkpt><trkpt lat="44.3659633" lon="9.31082"><ele>110.0</ele><time>2026-04-21T12:12:18.664Z</time></trkpt><trkpt lat="44.365885" lon="9.3106783"><ele>110.0</ele><time>2026-04-21T12:12:19.664Z</time></trkpt><trkpt lat="44.3657767" lon="9.3105867"><ele>107.6</ele><time>2026-04-21T12:12:20.663Z</time></trkpt><trkpt lat="44.3656683" lon="9.3105"><ele>105.2</ele><time>2026-04-21T12:12:21.664Z</time></trkpt><trkpt lat="44.3655717" lon="9.3104133"><ele>102.80000000000001</ele><time>2026-04-21T12:12:22.663Z</time></trkpt><trkpt lat="44.3655083" lon="9.3103417"><ele>100.4</ele><time>2026-04-21T12:12:23.663Z</time></trkpt><trkpt lat="44.365465" lon="9.31026"><ele>98.0</ele><time>2026-04-21T12:12:24.663Z</time></trkpt><trkpt lat="44.3654333" lon="9.3101467"><ele>98.0</ele><time>2026-04-21T12:12:25.664Z</time></trkpt><trkpt lat="44.3654233" lon="9.3100083"><ele>98.0</ele><time>2026-04-21T12:12:26.663Z</time></trkpt><trkpt lat="44.3654183" lon="9.3098483"><ele>98.0</ele><time>2026-04-21T12:12:27.663Z</time></trkpt><trkpt lat="44.36541" lon="9.30969"><ele>98.0</ele><time>2026-04-21T12:12:28.663Z</time></trkpt><trkpt lat="44.3653883" lon="9.3095467"><ele>98.0</ele><time>2026-04-21T12:12:29.663Z</time></trkpt><trkpt lat="44.3653383" lon="9.309425"><ele>103.75</ele><time>2026-04-21T12:12:30.664Z</time></trkpt><trkpt lat="44.365275" lon="9.3093117"><ele>109.5</ele><time>2026-04-21T12:12:31.663Z</time></trkpt><trkpt lat="44.3651833" lon="9.3092067"><ele>115.25</ele><time>2026-04-21T12:12:32.663Z</time></trkpt><trkpt lat="44.36508" lon="9.3091333"><ele>121.0</ele><time>2026-04-21T12:12:33.663Z</time></trkpt><trkpt lat="44.3649767" lon="9.30906"><ele>121.0</ele><time>2026-04-21T12:12:34.664Z</time></trkpt><trkpt lat="44.3648983" lon="9.30898"><ele>121.0</ele><time>2026-04-21T12:12:35.664Z</time></trkpt><trkpt lat="44.3648383" lon="9.308885"><ele>121.0</ele><time>2026-04-21T12:12:36.663Z</time></trkpt><trkpt lat="44.3647817" lon="9.30879"><ele>121.0</ele><time>2026-04-21T12:12:37.664Z</time></trkpt><trkpt lat="44.3647467" lon="9.3086367"><ele>121.0</ele><time>2026-04-21T12:12:38.663Z</time></trkpt><trkpt lat="44.3647083" lon="9.30848"><ele>119.0</ele><time>2026-04-21T12:12:39.663Z</time></trkpt><trkpt lat="44.364665" lon="9.3083067"><ele>117.0</ele><time>2026-04-21T12:12:40.663Z</time></trkpt><trkpt lat="44.3646267" lon="9.3081417"><ele>115.0</ele><time>2026-04-21T12:12:41.663Z</time></trkpt><trkpt lat="44.3645867" lon="9.3079983"><ele>113.0</ele><time>2026-04-21T12:12:42.663Z</time></trkpt><trkpt lat="44.3645267" lon="9.3078783"><ele>116.80000000000001</ele><time>2026-04-21T12:12:43.663Z</time></trkpt><trkpt lat="44.3644417" lon="9.3077767"><ele>120.60000000000001</ele><time>2026-04-21T12:12:44.663Z</time></trkpt><trkpt lat="44.364355" lon="9.3076917"><ele>124.39999999999999</ele><time>2026-04-21T12:12:45.663Z</time></trkpt><trkpt lat="44.364275" lon="9.3076133"><ele>128.2</ele><time>2026-04-21T12:12:46.664Z</time></trkpt><trkpt lat="44.3642133" lon="9.3075317"><ele>132.0</ele><time>2026-04-21T12:12:47.663Z</time></trkpt><trkpt lat="44.3641633" lon="9.3074417"><ele>132.0</ele><time>2026-04-21T12:12:48.664Z</time></trkpt><trkpt lat="44.3641367" lon="9.3073383"><ele>132.0</ele><time>2026-04-21T12:12:49.663Z</time></trkpt><trkpt lat="44.3641233" lon="9.3072167"><ele>132.0</ele><time>2026-04-21T12:12:50.663Z</time></trkpt><trkpt lat="44.3641233" lon="9.3070733"><ele>132.0</ele><time>2026-04-21T12:12:51.663Z</time></trkpt><trkpt lat="44.3641233" lon="9.3069333"><ele>132.0</ele><time>2026-04-21T12:12:52.663Z</time></trkpt><trkpt lat="44.3641117" lon="9.3067933"><ele>133.2</ele><time>2026-04-21T12:12:53.664Z</time></trkpt><trkpt lat="44.3640867" lon="9.306665"><ele>134.39999999999998</ele><time>2026-04-21T12:12:54.663Z</time></trkpt><trkpt lat="44.3640317" lon="9.3065717"><ele>135.60000000000002</ele><time>2026-04-21T12:12:55.664Z</time></trkpt><trkpt lat="44.363935" lon="9.3065083"><ele>136.8</ele><time>2026-04-21T12:12:56.664Z</time></trkpt><trkpt lat="44.3638467" lon="9.3064517"><ele>138.0</ele><time>2026-04-21T12:12:57.663Z</time></trkpt><trkpt lat="44.363775" lon="9.3063817"><ele>138.0</ele><time>2026-04-21T12:12:58.663Z</time></trkpt><trkpt lat="44.36371" lon="9.3062817"><ele>138.0</ele><time>2026-04-21T12:12:59.663Z</time></trkpt><trkpt lat="44.3636517" lon="9.3061533"><ele>138.0</ele><time>2026-04-21T12:13:00.663Z</time></trkpt><trkpt lat="44.3635967" lon="9.3060267"><ele>138.0</ele><time>2026-04-21T12:13:01.664Z</time></trkpt><trkpt lat="44.3635417" lon="9.305905"><ele>138.0</ele><time>2026-04-21T12:13:02.664Z</time></trkpt><trkpt lat="44.3635" lon="9.3058033"><ele>138.0</ele><time>2026-04-21T12:13:03.664Z</time></trkpt><trkpt lat="44.3634883" lon="9.3056917"><ele>138.0</ele><time>2026-04-21T12:13:04.664Z</time></trkpt><trkpt lat="44.3635033" lon="9.3055767"><ele>138.0</ele><time>2026-04-21T12:13:05.663Z</time></trkpt><trkpt lat="44.3635483" lon="9.3054483"><ele>138.0</ele><time>2026-04-21T12:13:06.663Z</time></trkpt><trkpt lat="44.3636083" lon="9.3053133"><ele>138.0</ele><time>2026-04-21T12:13:07.664Z</time></trkpt><trkpt lat="44.3636733" lon="9.305165"><ele>139.6</ele><time>2026-04-21T12:13:08.663Z</time></trkpt><trkpt lat="44.36372" lon="9.3050167"><ele>141.20000000000002</ele><time>2026-04-21T12:13:09.664Z</time></trkpt><trkpt lat="44.363735" lon="9.3048683"><ele>142.8</ele><time>2026-04-21T12:13:10.664Z</time></trkpt><trkpt lat="44.3637433" lon="9.3047233"><ele>144.4</ele><time>2026-04-21T12:13:11.663Z</time></trkpt><trkpt lat="44.363715" lon="9.3045733"><ele>146.0</ele><time>2026-04-21T12:13:12.664Z</time></trkpt><trkpt lat="44.36368" lon="9.304435"><ele>147.83333333333331</ele><time>2026-04-21T12:13:13.664Z</time></trkpt><trkpt lat="44.363625" lon="9.304325"><ele>149.66666666666666</ele><time>2026-04-21T12:13:14.663Z</time></trkpt><trkpt lat="44.36356" lon="9.3042617"><ele>151.5</ele><time>2026-04-21T12:13:15.664Z</time></trkpt><trkpt lat="44.3634917" lon="9.3042333"><ele>153.33333333333334</ele><time>2026-04-21T12:13:16.663Z</time></trkpt><trkpt lat="44.3634067" lon="9.304205"><ele>155.16666666666669</ele><time>2026-04-21T12:13:17.664Z</time></trkpt><trkpt lat="44.363325" lon="9.3041533"><ele>157.0</ele><time>2026-04-21T12:13:18.663Z</time></trkpt><trkpt lat="44.3632517" lon="9.3040983"><ele>157.0</ele><time>2026-04-21T12:13:19.663Z</time></trkpt><trkpt lat="44.3632167" lon="9.3040117"><ele>157.0</ele><time>2026-04-21T12:13:20.663Z</time></trkpt><trkpt lat="44.3632117" lon="9.30388"><ele>157.0</ele><time>2026-04-21T12:13:21.663Z</time></trkpt><trkpt lat="44.363235" lon="9.3037183"><ele>157.0</ele><time>2026-04-21T12:13:22.663Z</time></trkpt><trkpt lat="44.3632867" lon="9.30355"><ele>157.0</ele><time>2026-04-21T12:13:23.663Z</time></trkpt><trkpt lat="44.363315" lon="9.3034033"><ele>158.39999999999998</ele><time>2026-04-21T12:13:24.664Z</time></trkpt><trkpt lat="44.363315" lon="9.3032683"><ele>159.79999999999998</ele><time>2026-04-21T12:13:25.663Z</time></trkpt><trkpt lat="44.3632767" lon="9.3031417"><ele>161.2</ele><time>2026-04-21T12:13:26.663Z</time></trkpt><trkpt lat="44.363195" lon="9.3030417"><ele>162.6</ele><time>2026-04-21T12:13:27.663Z</time></trkpt><trkpt lat="44.3630783" lon="9.303005"><ele>164.0</ele><time>2026-04-21T12:13:28.664Z</time></trkpt><trkpt lat="44.3629317" lon="9.3030233"><ele>164.0</ele><time>2026-04-21T12:13:29.664Z</time></trkpt><trkpt lat="44.3628" lon="9.3030367"><ele>164.0</ele><time>2026-04-21T12:13:30.664Z</time></trkpt><trkpt lat="44.362695" lon="9.30302"><ele>164.0</ele><time>2026-04-21T12:13:31.664Z</time></trkpt><trkpt lat="44.3626033" lon="9.3029783"><ele>164.0</ele><time>2026-04-21T12:13:32.663Z</time></trkpt><trkpt lat="44.3625217" lon="9.3029"><ele>164.0</ele><time>2026-04-21T12:13:33.663Z</time></trkpt><trkpt lat="44.3624683" lon="9.3028183"><ele>164.0</ele><time>2026-04-21T12:13:34.664Z</time></trkpt><trkpt lat="44.36245" lon="9.30272"><ele>164.0</ele><time>2026-04-21T12:13:35.664Z</time></trkpt><trkpt lat="44.3624583" lon="9.3026183"><ele>164.0</ele><time>2026-04-21T12:13:36.663Z</time></trkpt><trkpt lat="44.36249" lon="9.30249"><ele>164.0</ele><time>2026-04-21T12:13:37.664Z</time></trkpt><trkpt lat="44.3625267" lon="9.302325"><ele>164.0</ele><time>2026-04-21T12:13:38.663Z</time></trkpt><trkpt lat="44.3625317" lon="9.3021467"><ele>165.0</ele><time>2026-04-21T12:13:39.664Z</time></trkpt><trkpt lat="44.3625467" lon="9.3019867"><ele>166.0</ele><time>2026-04-21T12:13:40.663Z</time></trkpt><trkpt lat="44.3625783" lon="9.30186"><ele>167.0</ele><time>2026-04-21T12:13:41.664Z</time></trkpt><trkpt lat="44.3626383" lon="9.301745"><ele>168.0</ele><time>2026-04-21T12:13:42.664Z</time></trkpt><trkpt lat="44.362705" lon="9.3016267"><ele>169.0</ele><time>2026-04-21T12:13:43.664Z</time></trkpt><trkpt lat="44.3627417" lon="9.3015033"><ele>171.2</ele><time>2026-04-21T12:13:44.664Z</time></trkpt><trkpt lat="44.3627433" lon="9.3013767"><ele>173.39999999999998</ele><time>2026-04-21T12:13:45.663Z</time></trkpt><trkpt lat="44.3627117" lon="9.3012483"><ele>175.6</ele><time>2026-04-21T12:13:46.663Z</time></trkpt><trkpt lat="44.362655" lon="9.3011167"><ele>177.8</ele><time>2026-04-21T12:13:47.663Z</time></trkpt><trkpt lat="44.362585" lon="9.3009883"><ele>180.0</ele><time>2026-04-21T12:13:48.663Z</time></trkpt><trkpt lat="44.362525" lon="9.30087"><ele>180.0</ele><time>2026-04-21T12:13:49.664Z</time></trkpt><trkpt lat="44.3624483" lon="9.30077"><ele>180.0</ele><time>2026-04-21T12:13:50.664Z</time></trkpt><trkpt lat="44.3623483" lon="9.3006933"><ele>180.0</ele><time>2026-04-21T12:13:51.664Z</time></trkpt><trkpt lat="44.3622367" lon="9.300695"><ele>180.0</ele><time>2026-04-21T12:13:52.664Z</time></trkpt><trkpt lat="44.362155" lon="9.3006917"><ele>180.0</ele><time>2026-04-21T12:13:53.663Z</time></trkpt><trkpt lat="44.3620633" lon="9.3005933"><ele>176.8</ele><time>2026-04-21T12:13:55.664Z</time></trkpt><trkpt lat="44.3620617" lon="9.3004833"><ele>173.6</ele><time>2026-04-21T12:13:56.664Z</time></trkpt><trkpt lat="44.3620883" lon="9.3003467"><ele>170.39999999999998</ele><time>2026-04-21T12:13:57.663Z</time></trkpt><trkpt lat="44.362125" lon="9.300185"><ele>167.2</ele><time>2026-04-21T12:13:58.664Z</time></trkpt><trkpt lat="44.362165" lon="9.3000267"><ele>164.0</ele><time>2026-04-21T12:13:59.664Z</time></trkpt><trkpt lat="44.36219" lon="9.2998883"><ele>166.79999999999998</ele><time>2026-04-21T12:14:00.664Z</time></trkpt><trkpt lat="44.3621933" lon="9.2997433"><ele>169.6</ele><time>2026-04-21T12:14:01.664Z</time></trkpt><trkpt lat="44.3621783" lon="9.2995883"><ele>172.4</ele><time>2026-04-21T12:14:02.663Z</time></trkpt><trkpt lat="44.3621583" lon="9.2994333"><ele>175.2</ele><time>2026-04-21T12:14:03.663Z</time></trkpt><trkpt lat="44.3621433" lon="9.299285"><ele>178.0</ele><time>2026-04-21T12:14:04.664Z</time></trkpt><trkpt lat="44.3621117" lon="9.29912"><ele>178.0</ele><time>2026-04-21T12:14:05.663Z</time></trkpt><trkpt lat="44.3620533" lon="9.2989867"><ele>178.0</ele><time>2026-04-21T12:14:06.664Z</time></trkpt><trkpt lat="44.3619617" lon="9.2988817"><ele>178.0</ele><time>2026-04-21T12:14:07.663Z</time></trkpt><trkpt lat="44.3618667" lon="9.2987783"><ele>178.0</ele><time>2026-04-21T12:14:08.663Z</time></trkpt><trkpt lat="44.3617983" lon="9.2986917"><ele>178.0</ele><time>2026-04-21T12:14:09.664Z</time></trkpt><trkpt lat="44.3617383" lon="9.2986"><ele>180.0</ele><time>2026-04-21T12:14:10.663Z</time></trkpt><trkpt lat="44.3617233" lon="9.2984817"><ele>182.0</ele><time>2026-04-21T12:14:11.662Z</time></trkpt><trkpt lat="44.36172" lon="9.2983467"><ele>184.0</ele><time>2026-04-21T12:14:12.662Z</time></trkpt><trkpt lat="44.3617217" lon="9.298195"><ele>186.0</ele><time>2026-04-21T12:14:13.662Z</time></trkpt><trkpt lat="44.3617233" lon="9.2980333"><ele>188.0</ele><time>2026-04-21T12:14:14.662Z</time></trkpt><trkpt lat="44.36173" lon="9.2978533"><ele>191.0</ele><time>2026-04-21T12:14:15.662Z</time></trkpt><trkpt lat="44.3617433" lon="9.2976717"><ele>194.0</ele><time>2026-04-21T12:14:16.662Z</time></trkpt><trkpt lat="44.3617433" lon="9.297495"><ele>197.0</ele><time>2026-04-21T12:14:17.662Z</time></trkpt><trkpt lat="44.3617533" lon="9.29732"><ele>200.0</ele><time>2026-04-21T12:14:18.662Z</time></trkpt><trkpt lat="44.3617683" lon="9.29717"><ele>202.4</ele><time>2026-04-21T12:14:19.662Z</time></trkpt><trkpt lat="44.361765" lon="9.29704"><ele>204.8</ele><time>2026-04-21T12:14:20.662Z</time></trkpt><trkpt lat="44.3617433" lon="9.2969383"><ele>207.2</ele><time>2026-04-21T12:14:21.662Z</time></trkpt><trkpt lat="44.3616217" lon="9.2968833"><ele>209.6</ele><time>2026-04-21T12:14:23.662Z</time></trkpt><trkpt lat="44.3615167" lon="9.2968967"><ele>212.0</ele><time>2026-04-21T12:14:24.662Z</time></trkpt><trkpt lat="44.36139" lon="9.2969367"><ele>213.25</ele><time>2026-04-21T12:14:25.663Z</time></trkpt><trkpt lat="44.3612483" lon="9.2970433"><ele>214.5</ele><time>2026-04-21T12:14:26.662Z</time></trkpt><trkpt lat="44.3611167" lon="9.297135"><ele>215.75</ele><time>2026-04-21T12:14:27.663Z</time></trkpt><trkpt lat="44.36101" lon="9.29722"><ele>217.0</ele><time>2026-04-21T12:14:28.662Z</time></trkpt><trkpt lat="44.36093" lon="9.297275"><ele>217.0</ele><time>2026-04-21T12:14:29.662Z</time></trkpt><trkpt lat="44.3608417" lon="9.2972733"><ele>217.0</ele><time>2026-04-21T12:14:30.662Z</time></trkpt><trkpt lat="44.3607633" lon="9.2972417"><ele>217.0</ele><time>2026-04-21T12:14:31.663Z</time></trkpt><trkpt lat="44.3606983" lon="9.2971567"><ele>217.0</ele><time>2026-04-21T12:14:32.662Z</time></trkpt><trkpt lat="44.360655" lon="9.2970017"><ele>217.0</ele><time>2026-04-21T12:14:33.663Z</time></trkpt><trkpt lat="44.3606417" lon="9.2968033"><ele>217.0</ele><time>2026-04-21T12:14:34.663Z</time></trkpt><trkpt lat="44.3606417" lon="9.296605"><ele>217.0</ele><time>2026-04-21T12:14:35.662Z</time></trkpt><trkpt lat="44.3606267" lon="9.29642"><ele>217.0</ele><time>2026-04-21T12:14:36.662Z</time></trkpt><trkpt lat="44.360595" lon="9.296245"><ele>217.0</ele><time>2026-04-21T12:14:37.662Z</time></trkpt><trkpt lat="44.360545" lon="9.296075"><ele>219.5</ele><time>2026-04-21T12:14:38.663Z</time></trkpt><trkpt lat="44.36048" lon="9.2959017"><ele>222.0</ele><time>2026-04-21T12:14:39.663Z</time></trkpt><trkpt lat="44.3604067" lon="9.2957217"><ele>224.5</ele><time>2026-04-21T12:14:40.663Z</time></trkpt><trkpt lat="44.3603333" lon="9.2955567"><ele>227.0</ele><time>2026-04-21T12:14:41.662Z</time></trkpt><trkpt lat="44.36027" lon="9.2954083"><ele>227.0</ele><time>2026-04-21T12:14:42.662Z</time></trkpt><trkpt lat="44.3602" lon="9.295275"><ele>227.0</ele><time>2026-04-21T12:14:43.663Z</time></trkpt><trkpt lat="44.3601333" lon="9.295175"><ele>227.0</ele><time>2026-04-21T12:14:44.662Z</time></trkpt><trkpt lat="44.360065" lon="9.2951133"><ele>227.0</ele><time>2026-04-21T12:14:45.663Z</time></trkpt><trkpt lat="44.35996" lon="9.2950817"><ele>227.0</ele><time>2026-04-21T12:14:46.662Z</time></trkpt><trkpt lat="44.3598383" lon="9.29509"><ele>227.0</ele><time>2026-04-21T12:14:47.662Z</time></trkpt><trkpt lat="44.35971" lon="9.2951217"><ele>227.0</ele><time>2026-04-21T12:14:48.663Z</time></trkpt><trkpt lat="44.3595817" lon="9.29515"><ele>227.0</ele><time>2026-04-21T12:14:49.663Z</time></trkpt><trkpt lat="44.3594667" lon="9.2951617"><ele>227.0</ele><time>2026-04-21T12:14:50.663Z</time></trkpt><trkpt lat="44.359365" lon="9.29515"><ele>228.6</ele><time>2026-04-21T12:14:51.662Z</time></trkpt><trkpt lat="44.3592767" lon="9.2950883"><ele>230.2</ele><time>2026-04-21T12:14:52.662Z</time></trkpt><trkpt lat="44.3592083" lon="9.2950017"><ele>231.8</ele><time>2026-04-21T12:14:53.663Z</time></trkpt><trkpt lat="44.35915" lon="9.2948967"><ele>233.4</ele><time>2026-04-21T12:14:54.663Z</time></trkpt><trkpt lat="44.3591167" lon="9.2947533"><ele>235.0</ele><time>2026-04-21T12:14:55.662Z</time></trkpt><trkpt lat="44.35911" lon="9.294585"><ele>235.0</ele><time>2026-04-21T12:14:56.662Z</time></trkpt><trkpt lat="44.359095" lon="9.2944167"><ele>235.0</ele><time>2026-04-21T12:14:57.662Z</time></trkpt><trkpt lat="44.3590733" lon="9.294265"><ele>235.0</ele><time>2026-04-21T12:14:58.662Z</time></trkpt><trkpt lat="44.3590267" lon="9.29414"><ele>235.0</ele><time>2026-04-21T12:14:59.662Z</time></trkpt><trkpt lat="44.3589717" lon="9.2940633"><ele>235.0</ele><time>2026-04-21T12:15:00.663Z</time></trkpt><trkpt lat="44.3588783" lon="9.2939933"><ele>232.5</ele><time>2026-04-21T12:15:01.662Z</time></trkpt><trkpt lat="44.358765" lon="9.2939333"><ele>230.0</ele><time>2026-04-21T12:15:02.663Z</time></trkpt><trkpt lat="44.35864" lon="9.2938633"><ele>227.5</ele><time>2026-04-21T12:15:03.663Z</time></trkpt><trkpt lat="44.3585267" lon="9.2938017"><ele>225.0</ele><time>2026-04-21T12:15:04.662Z</time></trkpt><trkpt lat="44.3584033" lon="9.2937683"><ele>231.5</ele><time>2026-04-21T12:15:05.663Z</time></trkpt><trkpt lat="44.3582817" lon="9.2937717"><ele>238.0</ele><time>2026-04-21T12:15:06.662Z</time></trkpt><trkpt lat="44.358165" lon="9.29381"><ele>244.5</ele><time>2026-04-21T12:15:07.663Z</time></trkpt><trkpt lat="44.3580467" lon="9.2938617"><ele>251.0</ele><time>2026-04-21T12:15:08.663Z</time></trkpt><trkpt lat="44.3579417" lon="9.2939417"><ele>251.75</ele><time>2026-04-21T12:15:09.662Z</time></trkpt><trkpt lat="44.3578433" lon="9.294075"><ele>252.5</ele><time>2026-04-21T12:15:10.662Z</time></trkpt><trkpt lat="44.3577483" lon="9.2942133"><ele>253.25</ele><time>2026-04-21T12:15:11.662Z</time></trkpt><trkpt lat="44.3576567" lon="9.2943667"><ele>254.0</ele><time>2026-04-21T12:15:12.662Z</time></trkpt><trkpt lat="44.3575617" lon="9.2945417"><ele>254.0</ele><time>2026-04-21T12:15:13.663Z</time></trkpt><trkpt lat="44.3574633" lon="9.2947183"><ele>254.0</ele><time>2026-04-21T12:15:14.662Z</time></trkpt><trkpt lat="44.3573617" lon="9.2948733"><ele>254.0</ele><time>2026-04-21T12:15:15.662Z</time></trkpt><trkpt lat="44.3572583" lon="9.295005"><ele>256.5</ele><time>2026-04-21T12:15:16.663Z</time></trkpt><trkpt lat="44.3571683" lon="9.295145"><ele>259.0</ele><time>2026-04-21T12:15:17.662Z</time></trkpt><trkpt lat="44.3571083" lon="9.2952933"><ele>261.5</ele><time>2026-04-21T12:15:18.663Z</time></trkpt><trkpt lat="44.3570817" lon="9.2954817"><ele>264.0</ele><time>2026-04-21T12:15:19.662Z</time></trkpt><trkpt lat="44.357065" lon="9.2956717"><ele>258.59999999999997</ele><time>2026-04-21T12:15:20.663Z</time></trkpt><trkpt lat="44.3570633" lon="9.2958517"><ele>253.2</ele><time>2026-04-21T12:15:21.662Z</time></trkpt><trkpt lat="44.357065" lon="9.2960017"><ele>247.79999999999998</ele><time>2026-04-21T12:15:22.662Z</time></trkpt><trkpt lat="44.3570217" lon="9.2961117"><ele>242.39999999999998</ele><time>2026-04-21T12:15:23.662Z</time></trkpt><trkpt lat="44.356955" lon="9.2962083"><ele>237.0</ele><time>2026-04-21T12:15:24.663Z</time></trkpt><trkpt lat="44.35688" lon="9.2962867"><ele>237.0</ele><time>2026-04-21T12:15:25.663Z</time></trkpt><trkpt lat="44.3567983" lon="9.2963267"><ele>237.0</ele><time>2026-04-21T12:15:26.662Z</time></trkpt><trkpt lat="44.3567183" lon="9.2963217"><ele>237.0</ele><time>2026-04-21T12:15:27.662Z</time></trkpt><trkpt lat="44.3566467" lon="9.2962683"><ele>237.0</ele><time>2026-04-21T12:15:28.662Z</time></trkpt><trkpt lat="44.3565717" lon="9.2961767"><ele>237.0</ele><time>2026-04-21T12:15:29.663Z</time></trkpt><trkpt lat="44.3564883" lon="9.2960617"><ele>237.0</ele><time>2026-04-21T12:15:30.662Z</time></trkpt><trkpt lat="44.3563733" lon="9.29594"><ele>237.0</ele><time>2026-04-21T12:15:31.662Z</time></trkpt><trkpt lat="44.3562483" lon="9.295835"><ele>237.0</ele><time>2026-04-21T12:15:32.663Z</time></trkpt><trkpt lat="44.3561317" lon="9.295755"><ele>237.0</ele><time>2026-04-21T12:15:33.663Z</time></trkpt><trkpt lat="44.35601" lon="9.2957167"><ele>235.25</ele><time>2026-04-21T12:15:34.662Z</time></trkpt><trkpt lat="44.35589" lon="9.2957167"><ele>233.5</ele><time>2026-04-21T12:15:35.663Z</time></trkpt><trkpt lat="44.3557617" lon="9.2957267"><ele>231.75</ele><time>2026-04-21T12:15:36.663Z</time></trkpt><trkpt lat="44.355645" lon="9.29574"><ele>230.0</ele><time>2026-04-21T12:15:37.662Z</time></trkpt><trkpt lat="44.355545" lon="9.29572"><ele>228.2</ele><time>2026-04-21T12:15:38.663Z</time></trkpt><trkpt lat="44.3554633" lon="9.2956717"><ele>226.4</ele><time>2026-04-21T12:15:39.662Z</time></trkpt><trkpt lat="44.3553967" lon="9.2955933"><ele>224.60000000000002</ele><time>2026-04-21T12:15:40.663Z</time></trkpt><trkpt lat="44.3553317" lon="9.2954883"><ele>222.8</ele><time>2026-04-21T12:15:41.663Z</time></trkpt><trkpt lat="44.3552617" lon="9.2953633"><ele>221.0</ele><time>2026-04-21T12:15:42.663Z</time></trkpt><trkpt lat="44.35519" lon="9.2952483"><ele>225.20000000000002</ele><time>2026-04-21T12:15:43.663Z</time></trkpt><trkpt lat="44.3551217" lon="9.2951567"><ele>229.40000000000003</ele><time>2026-04-21T12:15:44.662Z</time></trkpt><trkpt lat="44.3550317" lon="9.2951183"><ele>233.6</ele><time>2026-04-21T12:15:45.663Z</time></trkpt><trkpt lat="44.3549333" lon="9.2951167"><ele>237.8</ele><time>2026-04-21T12:15:46.663Z</time></trkpt><trkpt lat="44.354825" lon="9.2951117"><ele>242.0</ele><time>2026-04-21T12:15:47.663Z</time></trkpt><trkpt lat="44.3547067" lon="9.2951033"><ele>242.75</ele><time>2026-04-21T12:15:48.663Z</time></trkpt><trkpt lat="44.3545767" lon="9.2950867"><ele>243.5</ele><time>2026-04-21T12:15:49.663Z</time></trkpt><trkpt lat="44.3544533" lon="9.2950883"><ele>244.25</ele><time>2026-04-21T12:15:50.662Z</time></trkpt><trkpt lat="44.3543383" lon="9.2951"><ele>245.0</ele><time>2026-04-21T12:15:51.663Z</time></trkpt><trkpt lat="44.3542333" lon="9.2950967"><ele>245.00000000000003</ele><time>2026-04-21T12:15:52.663Z</time></trkpt><trkpt lat="44.354145" lon="9.2951033"><ele>245.0</ele><time>2026-04-21T12:15:53.663Z</time></trkpt><trkpt lat="44.3540767" lon="9.29511"><ele>245.0</ele><time>2026-04-21T12:15:54.663Z</time></trkpt><trkpt lat="44.3540133" lon="9.29517"><ele>245.0</ele><time>2026-04-21T12:15:55.662Z</time></trkpt><trkpt lat="44.3539733" lon="9.2952617"><ele>245.00000000000003</ele><time>2026-04-21T12:15:56.662Z</time></trkpt><trkpt lat="44.353945" lon="9.295365"><ele>245.0</ele><time>2026-04-21T12:15:57.662Z</time></trkpt><trkpt lat="44.3539217" lon="9.2954633"><ele>245.0</ele><time>2026-04-21T12:15:58.662Z</time></trkpt><trkpt lat="44.353895" lon="9.29556"><ele>245.0</ele><time>2026-04-21T12:15:59.662Z</time></trkpt><trkpt lat="44.3538683" lon="9.2956633"><ele>245.0</ele><time>2026-04-21T12:16:00.662Z</time></trkpt><trkpt lat="44.3538333" lon="9.2957383"><ele>245.0</ele><time>2026-04-21T12:16:01.663Z</time></trkpt><trkpt lat="44.3537733" lon="9.295785"><ele>245.0</ele><time>2026-04-21T12:16:02.662Z</time></trkpt><trkpt lat="44.3537083" lon="9.295825"><ele>245.0</ele><time>2026-04-21T12:16:03.662Z</time></trkpt><trkpt lat="44.3536483" lon="9.295875"><ele>245.0</ele><time>2026-04-21T12:16:04.663Z</time></trkpt><trkpt lat="44.3536017" lon="9.2959517"><ele>246.8</ele><time>2026-04-21T12:16:05.662Z</time></trkpt><trkpt lat="44.353575" lon="9.296045"><ele>248.6</ele><time>2026-04-21T12:16:06.662Z</time></trkpt><trkpt lat="44.3535617" lon="9.2961567"><ele>250.39999999999998</ele><time>2026-04-21T12:16:07.663Z</time></trkpt><trkpt lat="44.3535717" lon="9.2963083"><ele>252.2</ele><time>2026-04-21T12:16:08.663Z</time></trkpt><trkpt lat="44.3536017" lon="9.296445"><ele>254.0</ele><time>2026-04-21T12:16:09.662Z</time></trkpt><trkpt lat="44.3536267" lon="9.296565"><ele>254.00000000000003</ele><time>2026-04-21T12:16:10.662Z</time></trkpt><trkpt lat="44.35365" lon="9.2966667"><ele>254.0</ele><time>2026-04-21T12:16:11.663Z</time></trkpt><trkpt lat="44.35366" lon="9.29676"><ele>254.0</ele><time>2026-04-21T12:16:12.662Z</time></trkpt><trkpt lat="44.35364" lon="9.296855"><ele>254.0</ele><time>2026-04-21T12:16:13.663Z</time></trkpt><trkpt lat="44.3535933" lon="9.2969467"><ele>254.00000000000003</ele><time>2026-04-21T12:16:14.663Z</time></trkpt><trkpt lat="44.3534933" lon="9.2970533"><ele>254.0</ele><time>2026-04-21T12:16:15.662Z</time></trkpt><trkpt lat="44.35338" lon="9.2971683"><ele>251.25</ele><time>2026-04-21T12:16:16.663Z</time></trkpt><trkpt lat="44.3532533" lon="9.2972833"><ele>248.5</ele><time>2026-04-21T12:16:17.663Z</time></trkpt><trkpt lat="44.35314" lon="9.2973967"><ele>245.75</ele><time>2026-04-21T12:16:18.663Z</time></trkpt><trkpt lat="44.3530317" lon="9.2974967"><ele>243.0</ele><time>2026-04-21T12:16:19.662Z</time></trkpt><trkpt lat="44.3529317" lon="9.2975933"><ele>247.60000000000002</ele><time>2026-04-21T12:16:20.662Z</time></trkpt><trkpt lat="44.3528317" lon="9.297665"><ele>252.20000000000002</ele><time>2026-04-21T12:16:21.663Z</time></trkpt><trkpt lat="44.3527417" lon="9.297715"><ele>256.8</ele><time>2026-04-21T12:16:22.663Z</time></trkpt><trkpt lat="44.35267" lon="9.2977883"><ele>261.40000000000003</ele><time>2026-04-21T12:16:23.663Z</time></trkpt><trkpt lat="44.3526033" lon="9.2978667"><ele>266.0</ele><time>2026-04-21T12:16:24.662Z</time></trkpt><trkpt lat="44.35255" lon="9.2979683"><ele>266.0</ele><time>2026-04-21T12:16:25.662Z</time></trkpt><trkpt lat="44.3525183" lon="9.2980683"><ele>266.0</ele><time>2026-04-21T12:16:26.663Z</time></trkpt><trkpt lat="44.3525" lon="9.2981867"><ele>266.0</ele><time>2026-04-21T12:16:27.662Z</time></trkpt><trkpt lat="44.3525017" lon="9.29833"><ele>266.0</ele><time>2026-04-21T12:16:28.663Z</time></trkpt><trkpt lat="44.3525383" lon="9.2984833"><ele>266.0</ele><time>2026-04-21T12:16:29.663Z</time></trkpt><trkpt lat="44.352645" lon="9.29864"><ele>265.6</ele><time>2026-04-21T12:16:30.663Z</time></trkpt><trkpt lat="44.3527383" lon="9.2987883"><ele>265.20000000000005</ele><time>2026-04-21T12:16:31.662Z</time></trkpt><trkpt lat="44.3527917" lon="9.29892"><ele>264.79999999999995</ele><time>2026-04-21T12:16:32.662Z</time></trkpt><trkpt lat="44.35283" lon="9.29905"><ele>264.4</ele><time>2026-04-21T12:16:33.663Z</time></trkpt><trkpt lat="44.3528317" lon="9.2991883"><ele>264.0</ele><time>2026-04-21T12:16:34.663Z</time></trkpt><trkpt lat="44.3528217" lon="9.29935"><ele>266.0</ele><time>2026-04-21T12:16:35.662Z</time></trkpt><trkpt lat="44.3528283" lon="9.299515"><ele>268.0</ele><time>2026-04-21T12:16:36.663Z</time></trkpt><trkpt lat="44.3528567" lon="9.2996783"><ele>270.0</ele><time>2026-04-21T12:16:37.663Z</time></trkpt><trkpt lat="44.3529067" lon="9.2998267"><ele>272.0</ele><time>2026-04-21T12:16:38.662Z</time></trkpt><trkpt lat="44.3529533" lon="9.299965"><ele>274.0</ele><time>2026-04-21T12:16:39.663Z</time></trkpt><trkpt lat="44.3529933" lon="9.3001117"><ele>276.0</ele><time>2026-04-21T12:16:40.662Z</time></trkpt><trkpt lat="44.3530217" lon="9.30026"><ele>278.0</ele><time>2026-04-21T12:16:41.663Z</time></trkpt><trkpt lat="44.3530417" lon="9.300415"><ele>280.0</ele><time>2026-04-21T12:16:42.662Z</time></trkpt><trkpt lat="44.3530617" lon="9.3005683"><ele>282.0</ele><time>2026-04-21T12:16:43.662Z</time></trkpt><trkpt lat="44.3530717" lon="9.3007217"><ele>278.6</ele><time>2026-04-21T12:16:44.662Z</time></trkpt><trkpt lat="44.3530817" lon="9.30088"><ele>275.2</ele><time>2026-04-21T12:16:45.662Z</time></trkpt><trkpt lat="44.3530967" lon="9.30104"><ele>271.8</ele><time>2026-04-21T12:16:46.662Z</time></trkpt><trkpt lat="44.3531" lon="9.3011983"><ele>268.4</ele><time>2026-04-21T12:16:47.663Z</time></trkpt><trkpt lat="44.3531117" lon="9.3013333"><ele>265.0</ele><time>2026-04-21T12:16:48.662Z</time></trkpt><trkpt lat="44.353095" lon="9.3014617"><ele>265.0</ele><time>2026-04-21T12:16:49.663Z</time></trkpt><trkpt lat="44.35306" lon="9.3015933"><ele>265.0</ele><time>2026-04-21T12:16:50.662Z</time></trkpt><trkpt lat="44.3530233" lon="9.3017117"><ele>265.0</ele><time>2026-04-21T12:16:51.663Z</time></trkpt><trkpt lat="44.35299" lon="9.3018267"><ele>265.0</ele><time>2026-04-21T12:16:52.663Z</time></trkpt><trkpt lat="44.352965" lon="9.30196"><ele>265.0</ele><time>2026-04-21T12:16:53.662Z</time></trkpt><trkpt lat="44.35294" lon="9.3021183"><ele>265.3333333333333</ele><time>2026-04-21T12:16:54.662Z</time></trkpt><trkpt lat="44.3529117" lon="9.3022667"><ele>265.66666666666663</ele><time>2026-04-21T12:16:55.662Z</time></trkpt><trkpt lat="44.3528917" lon="9.3023983"><ele>266.0</ele><time>2026-04-21T12:16:56.663Z</time></trkpt><trkpt lat="44.3528783" lon="9.3025167"><ele>266.3333333333333</ele><time>2026-04-21T12:16:57.663Z</time></trkpt><trkpt lat="44.352875" lon="9.3026183"><ele>266.6666666666667</ele><time>2026-04-21T12:16:58.663Z</time></trkpt><trkpt lat="44.3528717" lon="9.3027067"><ele>267.0</ele><time>2026-04-21T12:16:59.663Z</time></trkpt><trkpt lat="44.3528883" lon="9.3028233"><ele>267.0</ele><time>2026-04-21T12:17:00.662Z</time></trkpt><trkpt lat="44.3529133" lon="9.3029467"><ele>267.0</ele><time>2026-04-21T12:17:01.662Z</time></trkpt><trkpt lat="44.3529567" lon="9.3030817"><ele>267.0</ele><time>2026-04-21T12:17:02.662Z</time></trkpt><trkpt lat="44.3530167" lon="9.3032367"><ele>267.0</ele><time>2026-04-21T12:17:03.663Z</time></trkpt><trkpt lat="44.3530983" lon="9.3034083"><ele>268.5</ele><time>2026-04-21T12:17:04.662Z</time></trkpt><trkpt lat="44.35317" lon="9.3035917"><ele>270.0</ele><time>2026-04-21T12:17:05.663Z</time></trkpt><trkpt lat="44.3532417" lon="9.3037567"><ele>271.5</ele><time>2026-04-21T12:17:06.662Z</time></trkpt><trkpt lat="44.3532933" lon="9.3039217"><ele>273.0</ele><time>2026-04-21T12:17:07.662Z</time></trkpt><trkpt lat="44.3533283" lon="9.3040767"><ele>269.75</ele><time>2026-04-21T12:17:08.663Z</time></trkpt><trkpt lat="44.35334" lon="9.3042367"><ele>266.5</ele><time>2026-04-21T12:17:09.662Z</time></trkpt><trkpt lat="44.3533267" lon="9.3044033"><ele>263.25</ele><time>2026-04-21T12:17:10.662Z</time></trkpt><trkpt lat="44.3533083" lon="9.3045567"><ele>260.0</ele><time>2026-04-21T12:17:11.662Z</time></trkpt><trkpt lat="44.3532533" lon="9.30471"><ele>259.2</ele><time>2026-04-21T12:17:12.662Z</time></trkpt><trkpt lat="44.3532" lon="9.3048433"><ele>258.4</ele><time>2026-04-21T12:17:13.662Z</time></trkpt><trkpt lat="44.353125" lon="9.3049733"><ele>257.6</ele><time>2026-04-21T12:17:14.663Z</time></trkpt><trkpt lat="44.3530467" lon="9.3050917"><ele>256.8</ele><time>2026-04-21T12:17:15.663Z</time></trkpt><trkpt lat="44.352985" lon="9.3052067"><ele>256.0</ele><time>2026-04-21T12:17:16.663Z</time></trkpt><trkpt lat="44.3529433" lon="9.3053383"><ele>251.60000000000002</ele><time>2026-04-21T12:17:17.662Z</time></trkpt><trkpt lat="44.352915" lon="9.30548"><ele>247.20000000000002</ele><time>2026-04-21T12:17:18.663Z</time></trkpt><trkpt lat="44.3529133" lon="9.3056167"><ele>242.79999999999998</ele><time>2026-04-21T12:17:19.663Z</time></trkpt><trkpt lat="44.35292" lon="9.3057633"><ele>238.39999999999998</ele><time>2026-04-21T12:17:20.662Z</time></trkpt><trkpt lat="44.3529183" lon="9.3059033"><ele>234.0</ele><time>2026-04-21T12:17:21.662Z</time></trkpt><trkpt lat="44.352925" lon="9.3060567"><ele>233.39999999999998</ele><time>2026-04-21T12:17:22.663Z</time></trkpt><trkpt lat="44.3529017" lon="9.3061917"><ele>232.79999999999998</ele><time>2026-04-21T12:17:23.663Z</time></trkpt><trkpt lat="44.3528667" lon="9.3063317"><ele>232.20000000000002</ele><time>2026-04-21T12:17:24.662Z</time></trkpt><trkpt lat="44.3528183" lon="9.3064817"><ele>231.60000000000002</ele><time>2026-04-21T12:17:25.663Z</time></trkpt><trkpt lat="44.3527683" lon="9.30664"><ele>231.0</ele><time>2026-04-21T12:17:26.663Z</time></trkpt><trkpt lat="44.3527317" lon="9.3067983"><ele>230.60000000000002</ele><time>2026-04-21T12:17:27.662Z</time></trkpt><trkpt lat="44.352695" lon="9.30695"><ele>230.20000000000002</ele><time>2026-04-21T12:17:28.662Z</time></trkpt><trkpt lat="44.352655" lon="9.3071"><ele>229.79999999999998</ele><time>2026-04-21T12:17:29.662Z</time></trkpt><trkpt lat="44.3525983" lon="9.3072267"><ele>229.39999999999998</ele><time>2026-04-21T12:17:30.662Z</time></trkpt><trkpt lat="44.352535" lon="9.3073367"><ele>229.0</ele><time>2026-04-21T12:17:31.662Z</time></trkpt><trkpt lat="44.3524867" lon="9.3074433"><ele>228.83333333333331</ele><time>2026-04-21T12:17:32.662Z</time></trkpt><trkpt lat="44.352455" lon="9.3075517"><ele>228.66666666666666</ele><time>2026-04-21T12:17:33.663Z</time></trkpt><trkpt lat="44.3524533" lon="9.3076583"><ele>228.5</ele><time>2026-04-21T12:17:34.662Z</time></trkpt><trkpt lat="44.3524833" lon="9.3077567"><ele>228.33333333333331</ele><time>2026-04-21T12:17:35.663Z</time></trkpt><trkpt lat="44.3525317" lon="9.3078533"><ele>228.16666666666666</ele><time>2026-04-21T12:17:36.663Z</time></trkpt><trkpt lat="44.3526133" lon="9.30793"><ele>228.0</ele><time>2026-04-21T12:17:37.662Z</time></trkpt><trkpt lat="44.3527267" lon="9.3079883"><ele>228.0</ele><time>2026-04-21T12:17:38.662Z</time></trkpt><trkpt lat="44.352875" lon="9.30807"><ele>228.0</ele><time>2026-04-21T12:17:39.663Z</time></trkpt><trkpt lat="44.3529967" lon="9.3081683"><ele>228.0</ele><time>2026-04-21T12:17:40.662Z</time></trkpt><trkpt lat="44.3530967" lon="9.3082667"><ele>228.0</ele><time>2026-04-21T12:17:41.662Z</time></trkpt><trkpt lat="44.353175" lon="9.3083567"><ele>227.2</ele><time>2026-04-21T12:17:42.663Z</time></trkpt><trkpt lat="44.35324" lon="9.3084483"><ele>226.4</ele><time>2026-04-21T12:17:43.663Z</time></trkpt><trkpt lat="44.3532883" lon="9.308555"><ele>225.59999999999997</ele><time>2026-04-21T12:17:44.662Z</time></trkpt><trkpt lat="44.3533117" lon="9.3086767"><ele>224.79999999999998</ele><time>2026-04-21T12:17:45.662Z</time></trkpt><trkpt lat="44.3533217" lon="9.3088267"><ele>224.0</ele><time>2026-04-21T12:17:46.662Z</time></trkpt><trkpt lat="44.3533233" lon="9.3089983"><ele>224.0</ele><time>2026-04-21T12:17:47.662Z</time></trkpt><trkpt lat="44.3533367" lon="9.309165"><ele>223.99999999999997</ele><time>2026-04-21T12:17:48.662Z</time></trkpt><trkpt lat="44.353345" lon="9.30931"><ele>223.99999999999997</ele><time>2026-04-21T12:17:49.663Z</time></trkpt><trkpt lat="44.3533483" lon="9.3094317"><ele>224.0</ele><time>2026-04-21T12:17:50.663Z</time></trkpt><trkpt lat="44.353335" lon="9.3095367"><ele>224.0</ele><time>2026-04-21T12:17:51.663Z</time></trkpt><trkpt lat="44.3533033" lon="9.3096383"><ele>224.0</ele><time>2026-04-21T12:17:52.663Z</time></trkpt><trkpt lat="44.3532467" lon="9.3097533"><ele>223.99999999999997</ele><time>2026-04-21T12:17:53.663Z</time></trkpt><trkpt lat="44.3531833" lon="9.30986"><ele>223.99999999999997</ele><time>2026-04-21T12:17:54.662Z</time></trkpt><trkpt lat="44.353135" lon="9.3099917"><ele>224.0</ele><time>2026-04-21T12:17:55.662Z</time></trkpt><trkpt lat="44.353095" lon="9.31012"><ele>224.0</ele><time>2026-04-21T12:17:56.662Z</time></trkpt><trkpt lat="44.3530583" lon="9.310245"><ele>224.0</ele><time>2026-04-21T12:17:57.662Z</time></trkpt><trkpt lat="44.3530467" lon="9.3103883"><ele>223.99999999999997</ele><time>2026-04-21T12:17:58.662Z</time></trkpt><trkpt lat="44.3530333" lon="9.3105317"><ele>223.99999999999997</ele><time>2026-04-21T12:17:59.663Z</time></trkpt><trkpt lat="44.3530117" lon="9.3106683"><ele>224.0</ele><time>2026-04-21T12:18:00.662Z</time></trkpt><trkpt lat="44.3529783" lon="9.3108"><ele>224.0</ele><time>2026-04-21T12:18:01.662Z</time></trkpt><trkpt lat="44.3529267" lon="9.3109533"><ele>221.75</ele><time>2026-04-21T12:18:02.662Z</time></trkpt><trkpt lat="44.3528633" lon="9.311115"><ele>219.5</ele><time>2026-04-21T12:18:03.662Z</time></trkpt><trkpt lat="44.35279" lon="9.3112733"><ele>217.25</ele><time>2026-04-21T12:18:04.663Z</time></trkpt><trkpt lat="44.3527333" lon="9.3114283"><ele>215.0</ele><time>2026-04-21T12:18:05.662Z</time></trkpt><trkpt lat="44.3526667" lon="9.3115567"><ele>215.0</ele><time>2026-04-21T12:18:06.662Z</time></trkpt><trkpt lat="44.3525883" lon="9.3116483"><ele>215.0</ele><time>2026-04-21T12:18:07.662Z</time></trkpt><trkpt lat="44.3524983" lon="9.311725"><ele>215.0</ele><time>2026-04-21T12:18:08.662Z</time></trkpt><trkpt lat="44.3524117" lon="9.3117867"><ele>215.0</ele><time>2026-04-21T12:18:09.662Z</time></trkpt><trkpt lat="44.3523467" lon="9.3118717"><ele>215.0</ele><time>2026-04-21T12:18:10.662Z</time></trkpt><trkpt lat="44.3523133" lon="9.31197"><ele>215.00000000000003</ele><time>2026-04-21T12:18:11.662Z</time></trkpt><trkpt lat="44.3522883" lon="9.3120783"><ele>215.0</ele><time>2026-04-21T12:18:12.663Z</time></trkpt><trkpt lat="44.3522667" lon="9.3122017"><ele>215.0</ele><time>2026-04-21T12:18:13.662Z</time></trkpt><trkpt lat="44.3522317" lon="9.312305"><ele>215.0</ele><time>2026-04-21T12:18:14.663Z</time></trkpt><trkpt lat="44.35218" lon="9.31236"><ele>215.00000000000003</ele><time>2026-04-21T12:18:15.663Z</time></trkpt><trkpt lat="44.352105" lon="9.312365"><ele>215.0</ele><time>2026-04-21T12:18:16.662Z</time></trkpt><trkpt lat="44.3520083" lon="9.3123633"><ele>212.6</ele><time>2026-04-21T12:18:17.663Z</time></trkpt><trkpt lat="44.3519033" lon="9.31236"><ele>210.2</ele><time>2026-04-21T12:18:18.663Z</time></trkpt><trkpt lat="44.3518017" lon="9.3123767"><ele>207.8</ele><time>2026-04-21T12:18:19.662Z</time></trkpt><trkpt lat="44.3516967" lon="9.3124383"><ele>205.4</ele><time>2026-04-21T12:18:20.663Z</time></trkpt><trkpt lat="44.3516017" lon="9.3125117"><ele>203.0</ele><time>2026-04-21T12:18:21.662Z</time></trkpt><trkpt lat="44.3515067" lon="9.3126133"><ele>203.0</ele><time>2026-04-21T12:18:22.662Z</time></trkpt><trkpt lat="44.3514267" lon="9.31272"><ele>203.0</ele><time>2026-04-21T12:18:23.662Z</time></trkpt><trkpt lat="44.3513683" lon="9.3128517"><ele>203.0</ele><time>2026-04-21T12:18:24.663Z</time></trkpt><trkpt lat="44.3513217" lon="9.31302"><ele>203.0</ele><time>2026-04-21T12:18:25.662Z</time></trkpt><trkpt lat="44.351285" lon="9.3131933"><ele>200.2</ele><time>2026-04-21T12:18:26.662Z</time></trkpt><trkpt lat="44.3512533" lon="9.3133533"><ele>197.4</ele><time>2026-04-21T12:18:27.662Z</time></trkpt><trkpt lat="44.3512133" lon="9.3134917"><ele>194.6</ele><time>2026-04-21T12:18:28.663Z</time></trkpt><trkpt lat="44.35116" lon="9.3135983"><ele>191.79999999999998</ele><time>2026-04-21T12:18:29.662Z</time></trkpt><trkpt lat="44.35109" lon="9.3136667"><ele>189.0</ele><time>2026-04-21T12:18:30.663Z</time></trkpt><trkpt lat="44.3510083" lon="9.313705"><ele>189.0</ele><time>2026-04-21T12:18:31.663Z</time></trkpt><trkpt lat="44.350915" lon="9.31371"><ele>189.0</ele><time>2026-04-21T12:18:32.662Z</time></trkpt><trkpt lat="44.3508067" lon="9.3137317"><ele>189.0</ele><time>2026-04-21T12:18:33.662Z</time></trkpt><trkpt lat="44.3506817" lon="9.3137817"><ele>189.0</ele><time>2026-04-21T12:18:34.662Z</time></trkpt><trkpt lat="44.350545" lon="9.3138367"><ele>189.25</ele><time>2026-04-21T12:18:35.663Z</time></trkpt><trkpt lat="44.3504117" lon="9.313905"><ele>189.5</ele><time>2026-04-21T12:18:36.662Z</time></trkpt><trkpt lat="44.3502817" lon="9.3139517"><ele>189.75</ele><time>2026-04-21T12:18:37.663Z</time></trkpt><trkpt lat="44.3501583" lon="9.3139667"><ele>190.0</ele><time>2026-04-21T12:18:38.662Z</time></trkpt><trkpt lat="44.3500383" lon="9.31398"><ele>190.0</ele><time>2026-04-21T12:18:39.662Z</time></trkpt><trkpt lat="44.34993" lon="9.3140183"><ele>190.0</ele><time>2026-04-21T12:18:40.662Z</time></trkpt><trkpt lat="44.349825" lon="9.3140983"><ele>190.0</ele><time>2026-04-21T12:18:41.662Z</time></trkpt><trkpt lat="44.3497333" lon="9.31422"><ele>190.0</ele><time>2026-04-21T12:18:42.662Z</time></trkpt><trkpt lat="44.3496317" lon="9.3143467"><ele>185.0</ele><time>2026-04-21T12:18:43.663Z</time></trkpt><trkpt lat="44.3495333" lon="9.3144667"><ele>180.0</ele><time>2026-04-21T12:18:44.662Z</time></trkpt><trkpt lat="44.349425" lon="9.3145617"><ele>175.0</ele><time>2026-04-21T12:18:45.662Z</time></trkpt><trkpt lat="44.3492933" lon="9.3146133"><ele>170.0</ele><time>2026-04-21T12:18:46.662Z</time></trkpt><trkpt lat="44.3491633" lon="9.314635"><ele>170.0</ele><time>2026-04-21T12:18:47.662Z</time></trkpt><trkpt lat="44.3490383" lon="9.3146467"><ele>170.0</ele><time>2026-04-21T12:18:48.662Z</time></trkpt><trkpt lat="44.3489217" lon="9.314675"><ele>170.0</ele><time>2026-04-21T12:18:49.663Z</time></trkpt><trkpt lat="44.3487967" lon="9.3147267"><ele>170.0</ele><time>2026-04-21T12:18:50.663Z</time></trkpt><trkpt lat="44.3486683" lon="9.3147967"><ele>169.5</ele><time>2026-04-21T12:18:51.662Z</time></trkpt><trkpt lat="44.348535" lon="9.31487"><ele>169.0</ele><time>2026-04-21T12:18:52.663Z</time></trkpt><trkpt lat="44.348415" lon="9.31495"><ele>168.5</ele><time>2026-04-21T12:18:53.662Z</time></trkpt><trkpt lat="44.3483017" lon="9.3150267"><ele>168.0</ele><time>2026-04-21T12:18:54.663Z</time></trkpt><trkpt lat="44.348185" lon="9.3150917"><ele>168.0</ele><time>2026-04-21T12:18:55.662Z</time></trkpt><trkpt lat="44.3480817" lon="9.3151383"><ele>168.0</ele><time>2026-04-21T12:18:56.662Z</time></trkpt><trkpt lat="44.34801" lon="9.31521"><ele>168.0</ele><time>2026-04-21T12:18:57.662Z</time></trkpt><trkpt lat="44.3479533" lon="9.3152833"><ele>168.0</ele><time>2026-04-21T12:18:58.662Z</time></trkpt><trkpt lat="44.34792" lon="9.3153633"><ele>168.0</ele><time>2026-04-21T12:18:59.663Z</time></trkpt><trkpt lat="44.3479117" lon="9.315455"><ele>168.0</ele><time>2026-04-21T12:19:00.662Z</time></trkpt><trkpt lat="44.3479367" lon="9.3155383"><ele>166.0</ele><time>2026-04-21T12:19:01.663Z</time></trkpt><trkpt lat="44.3479867" lon="9.3156117"><ele>164.0</ele><time>2026-04-21T12:19:02.662Z</time></trkpt><trkpt lat="44.3480733" lon="9.31567"><ele>162.0</ele><time>2026-04-21T12:19:03.662Z</time></trkpt><trkpt lat="44.3481917" lon="9.3157233"><ele>160.0</ele><time>2026-04-21T12:19:04.662Z</time></trkpt><trkpt lat="44.3483317" lon="9.3157767"><ele>158.0</ele><time>2026-04-21T12:19:05.662Z</time></trkpt><trkpt lat="44.3484567" lon="9.315865"><ele>158.0</ele><time>2026-04-21T12:19:06.662Z</time></trkpt><trkpt lat="44.348565" lon="9.3159683"><ele>158.0</ele><time>2026-04-21T12:19:07.662Z</time></trkpt><trkpt lat="44.34868" lon="9.316105"><ele>158.0</ele><time>2026-04-21T12:19:08.662Z</time></trkpt><trkpt lat="44.3487933" lon="9.316275"><ele>158.0</ele><time>2026-04-21T12:19:09.662Z</time></trkpt><trkpt lat="44.34891" lon="9.316435"><ele>158.0</ele><time>2026-04-21T12:19:10.663Z</time></trkpt><trkpt lat="44.3490217" lon="9.316585"><ele>158.0</ele><time>2026-04-21T12:19:11.663Z</time></trkpt><trkpt lat="44.349125" lon="9.3167183"><ele>158.0</ele><time>2026-04-21T12:19:12.663Z</time></trkpt><trkpt lat="44.3492233" lon="9.316835"><ele>158.0</ele><time>2026-04-21T12:19:13.663Z</time></trkpt><trkpt lat="44.3493133" lon="9.3169367"><ele>158.0</ele><time>2026-04-21T12:19:14.663Z</time></trkpt><trkpt lat="44.34939" lon="9.3170283"><ele>158.0</ele><time>2026-04-21T12:19:15.662Z</time></trkpt><trkpt lat="44.349445" lon="9.3171217"><ele>158.0</ele><time>2026-04-21T12:19:16.662Z</time></trkpt><trkpt lat="44.3494817" lon="9.317235"><ele>158.0</ele><time>2026-04-21T12:19:17.663Z</time></trkpt><trkpt lat="44.3494867" lon="9.31735"><ele>158.0</ele><time>2026-04-21T12:19:18.662Z</time></trkpt><trkpt lat="44.34946" lon="9.3174617"><ele>158.0</ele><time>2026-04-21T12:19:19.663Z</time></trkpt><trkpt lat="44.3494133" lon="9.317565"><ele>157.0</ele><time>2026-04-21T12:19:20.663Z</time></trkpt><trkpt lat="44.3493417" lon="9.317635"><ele>156.0</ele><time>2026-04-21T12:19:21.663Z</time></trkpt><trkpt lat="44.3492533" lon="9.3176767"><ele>155.0</ele><time>2026-04-21T12:19:22.662Z</time></trkpt><trkpt lat="44.3491283" lon="9.31769"><ele>154.0</ele><time>2026-04-21T12:19:23.663Z</time></trkpt><trkpt lat="44.3489917" lon="9.3177033"><ele>153.0</ele><time>2026-04-21T12:19:24.663Z</time></trkpt><trkpt lat="44.3488583" lon="9.317725"><ele>148.75</ele><time>2026-04-21T12:19:25.663Z</time></trkpt><trkpt lat="44.3487283" lon="9.3177533"><ele>144.5</ele><time>2026-04-21T12:19:26.663Z</time></trkpt><trkpt lat="44.3486017" lon="9.3177767"><ele>140.25</ele><time>2026-04-21T12:19:27.663Z</time></trkpt><trkpt lat="44.3484833" lon="9.3177883"><ele>136.0</ele><time>2026-04-21T12:19:28.662Z</time></trkpt><trkpt lat="44.34839" lon="9.3178083"><ele>136.0</ele><time>2026-04-21T12:19:29.663Z</time></trkpt><trkpt lat="44.34831" lon="9.31783"><ele>136.0</ele><time>2026-04-21T12:19:30.662Z</time></trkpt><trkpt lat="44.348245" lon="9.3178883"><ele>136.0</ele><time>2026-04-21T12:19:31.662Z</time></trkpt><trkpt lat="44.348195" lon="9.3179567"><ele>136.0</ele><time>2026-04-21T12:19:32.662Z</time></trkpt><trkpt lat="44.3481683" lon="9.3180517"><ele>136.0</ele><time>2026-04-21T12:19:33.662Z</time></trkpt><trkpt lat="44.348155" lon="9.31818"><ele>136.0</ele><time>2026-04-21T12:19:34.663Z</time></trkpt><trkpt lat="44.3481317" lon="9.3183083"><ele>136.6</ele><time>2026-04-21T12:19:35.662Z</time></trkpt><trkpt lat="44.34808" lon="9.318415"><ele>137.2</ele><time>2026-04-21T12:19:36.662Z</time></trkpt><trkpt lat="44.348015" lon="9.3184533"><ele>137.8</ele><time>2026-04-21T12:19:37.663Z</time></trkpt><trkpt lat="44.3479283" lon="9.318455"><ele>138.4</ele><time>2026-04-21T12:19:38.663Z</time></trkpt><trkpt lat="44.3478133" lon="9.318425"><ele>139.0</ele><time>2026-04-21T12:19:39.663Z</time></trkpt><trkpt lat="44.347685" lon="9.3184067"><ele>139.0</ele><time>2026-04-21T12:19:40.663Z</time></trkpt><trkpt lat="44.3475483" lon="9.3184283"><ele>139.0</ele><time>2026-04-21T12:19:41.662Z</time></trkpt><trkpt lat="44.34742" lon="9.3184683"><ele>139.0</ele><time>2026-04-21T12:19:42.662Z</time></trkpt><trkpt lat="44.3473" lon="9.318495"><ele>139.0</ele><time>2026-04-21T12:19:43.662Z</time></trkpt><trkpt lat="44.34718" lon="9.318485"><ele>137.5</ele><time>2026-04-21T12:19:44.663Z</time></trkpt><trkpt lat="44.347055" lon="9.3184317"><ele>136.0</ele><time>2026-04-21T12:19:45.662Z</time></trkpt><trkpt lat="44.3469217" lon="9.318395"><ele>134.5</ele><time>2026-04-21T12:19:46.662Z</time></trkpt><trkpt lat="44.3468017" lon="9.3184117"><ele>133.0</ele><time>2026-04-21T12:19:47.663Z</time></trkpt><trkpt lat="44.3466633" lon="9.3184083"><ele>133.0</ele><time>2026-04-21T12:19:48.662Z</time></trkpt><trkpt lat="44.34653" lon="9.3183867"><ele>133.0</ele><time>2026-04-21T12:19:49.663Z</time></trkpt><trkpt lat="44.346405" lon="9.31834"><ele>133.0</ele><time>2026-04-21T12:19:50.663Z</time></trkpt><trkpt lat="44.3462883" lon="9.318285"><ele>133.0</ele><time>2026-04-21T12:19:51.662Z</time></trkpt><trkpt lat="44.3461667" lon="9.3182583"><ele>130.75</ele><time>2026-04-21T12:19:52.662Z</time></trkpt><trkpt lat="44.346045" lon="9.3182417"><ele>128.5</ele><time>2026-04-21T12:19:53.662Z</time></trkpt><trkpt lat="44.34591" lon="9.3182183"><ele>126.25</ele><time>2026-04-21T12:19:54.662Z</time></trkpt><trkpt lat="44.34578" lon="9.3181983"><ele>124.0</ele><time>2026-04-21T12:19:55.663Z</time></trkpt><trkpt lat="44.345665" lon="9.3181717"><ele>124.0</ele><time>2026-04-21T12:19:56.663Z</time></trkpt><trkpt lat="44.3455767" lon="9.3181433"><ele>124.0</ele><time>2026-04-21T12:19:57.663Z</time></trkpt><trkpt lat="44.3454967" lon="9.31814"><ele>124.0</ele><time>2026-04-21T12:19:58.662Z</time></trkpt><trkpt lat="44.3454317" lon="9.318155"><ele>124.0</ele><time>2026-04-21T12:19:59.662Z</time></trkpt><trkpt lat="44.3453583" lon="9.318265"><ele>124.0</ele><time>2026-04-21T12:20:01.663Z</time></trkpt><trkpt lat="44.34539" lon="9.318435"><ele>124.0</ele><time>2026-04-21T12:20:03.663Z</time></trkpt><trkpt lat="44.3454483" lon="9.31855"><ele>124.0</ele><time>2026-04-21T12:20:04.663Z</time></trkpt><trkpt lat="44.3455383" lon="9.3186883"><ele>124.0</ele><time>2026-04-21T12:20:05.662Z</time></trkpt><trkpt lat="44.3456283" lon="9.3188383"><ele>124.0</ele><time>2026-04-21T12:20:06.663Z</time></trkpt><trkpt lat="44.3457" lon="9.3190033"><ele>125.25</ele><time>2026-04-21T12:20:07.663Z</time></trkpt><trkpt lat="44.3457433" lon="9.31917"><ele>126.5</ele><time>2026-04-21T12:20:08.662Z</time></trkpt><trkpt lat="44.3457733" lon="9.319345"><ele>127.75</ele><time>2026-04-21T12:20:09.662Z</time></trkpt><trkpt lat="44.3458067" lon="9.3195033"><ele>129.0</ele><time>2026-04-21T12:20:10.662Z</time></trkpt><trkpt lat="44.3458333" lon="9.3196467"><ele>129.2</ele><time>2026-04-21T12:20:11.662Z</time></trkpt><trkpt lat="44.3458383" lon="9.3197517"><ele>129.4</ele><time>2026-04-21T12:20:12.663Z</time></trkpt><trkpt lat="44.3457767" lon="9.31987"><ele>129.6</ele><time>2026-04-21T12:20:14.662Z</time></trkpt><trkpt lat="44.345645" lon="9.3198433"><ele>129.8</ele><time>2026-04-21T12:20:16.662Z</time></trkpt><trkpt lat="44.3455433" lon="9.3197733"><ele>130.0</ele><time>2026-04-21T12:20:17.662Z</time></trkpt><trkpt lat="44.3454083" lon="9.319675"><ele>121.33333333333334</ele><time>2026-04-21T12:20:18.663Z</time></trkpt><trkpt lat="44.3452433" lon="9.3195283"><ele>112.66666666666666</ele><time>2026-04-21T12:20:19.663Z</time></trkpt><trkpt lat="44.3451117" lon="9.3194117"><ele>104.0</ele><time>2026-04-21T12:20:20.663Z</time></trkpt><trkpt lat="44.3449833" lon="9.31932"><ele>104.0</ele><time>2026-04-21T12:20:21.662Z</time></trkpt><trkpt lat="44.3448317" lon="9.31927"><ele>104.0</ele><time>2026-04-21T12:20:22.662Z</time></trkpt><trkpt lat="44.3447233" lon="9.3192167"><ele>104.0</ele><time>2026-04-21T12:20:23.662Z</time></trkpt><trkpt lat="44.34462" lon="9.3192033"><ele>104.0</ele><time>2026-04-21T12:20:24.663Z</time></trkpt><trkpt lat="44.344525" lon="9.3192217"><ele>101.5</ele><time>2026-04-21T12:20:25.663Z</time></trkpt><trkpt lat="44.344425" lon="9.3192867"><ele>99.0</ele><time>2026-04-21T12:20:26.663Z</time></trkpt><trkpt lat="44.3442983" lon="9.3193767"><ele>96.5</ele><time>2026-04-21T12:20:27.662Z</time></trkpt><trkpt lat="44.3441733" lon="9.3194717"><ele>94.0</ele><time>2026-04-21T12:20:28.663Z</time></trkpt><trkpt lat="44.34406" lon="9.3195483"><ele>94.0</ele><time>2026-04-21T12:20:29.663Z</time></trkpt><trkpt lat="44.3439533" lon="9.31964"><ele>94.0</ele><time>2026-04-21T12:20:30.662Z</time></trkpt><trkpt lat="44.343855" lon="9.31974"><ele>94.0</ele><time>2026-04-21T12:20:31.662Z</time></trkpt><trkpt lat="44.3437817" lon="9.3198617"><ele>94.0</ele><time>2026-04-21T12:20:32.662Z</time></trkpt><trkpt lat="44.3437167" lon="9.3199967"><ele>92.0</ele><time>2026-04-21T12:20:33.662Z</time></trkpt><trkpt lat="44.343665" lon="9.3201533"><ele>90.0</ele><time>2026-04-21T12:20:34.663Z</time></trkpt><trkpt lat="44.343645" lon="9.320335"><ele>88.0</ele><time>2026-04-21T12:20:35.662Z</time></trkpt><trkpt lat="44.3436283" lon="9.3204867"><ele>86.0</ele><time>2026-04-21T12:20:36.662Z</time></trkpt><trkpt lat="44.343635" lon="9.3206267"><ele>89.0</ele><time>2026-04-21T12:20:37.663Z</time></trkpt><trkpt lat="44.3436517" lon="9.3207617"><ele>92.0</ele><time>2026-04-21T12:20:38.662Z</time></trkpt><trkpt lat="44.3436567" lon="9.3208733"><ele>95.0</ele><time>2026-04-21T12:20:39.662Z</time></trkpt><trkpt lat="44.34363" lon="9.3209533"><ele>98.0</ele><time>2026-04-21T12:20:40.662Z</time></trkpt><trkpt lat="44.34355" lon="9.3210367"><ele>100.99999999999999</ele><time>2026-04-21T12:20:42.662Z</time></trkpt><trkpt lat="44.3434717" lon="9.3210133"><ele>104.0</ele><time>2026-04-21T12:20:43.662Z</time></trkpt><trkpt lat="44.3433583" lon="9.3209467"><ele>104.0</ele><time>2026-04-21T12:20:44.663Z</time></trkpt><trkpt lat="44.343215" lon="9.3208333"><ele>104.0</ele><time>2026-04-21T12:20:45.663Z</time></trkpt><trkpt lat="44.343075" lon="9.3207083"><ele>104.0</ele><time>2026-04-21T12:20:46.662Z</time></trkpt><trkpt lat="44.3429617" lon="9.320595"><ele>98.25</ele><time>2026-04-21T12:20:47.662Z</time></trkpt><trkpt lat="44.342865" lon="9.3204833"><ele>92.5</ele><time>2026-04-21T12:20:48.662Z</time></trkpt><trkpt lat="44.3427867" lon="9.320355"><ele>86.75</ele><time>2026-04-21T12:20:49.662Z</time></trkpt><trkpt lat="44.3427183" lon="9.3202167"><ele>81.0</ele><time>2026-04-21T12:20:50.662Z</time></trkpt><trkpt lat="44.342665" lon="9.32008"><ele>81.0</ele><time>2026-04-21T12:20:51.663Z</time></trkpt><trkpt lat="44.3426067" lon="9.3199783"><ele>81.0</ele><time>2026-04-21T12:20:52.663Z</time></trkpt><trkpt lat="44.3425517" lon="9.3199217"><ele>81.0</ele><time>2026-04-21T12:20:53.663Z</time></trkpt><trkpt lat="44.3424867" lon="9.3199133"><ele>81.0</ele><time>2026-04-21T12:20:54.662Z</time></trkpt><trkpt lat="44.3424117" lon="9.3199483"><ele>81.0</ele><time>2026-04-21T12:20:55.662Z</time></trkpt><trkpt lat="44.3423283" lon="9.3200333"><ele>81.0</ele><time>2026-04-21T12:20:56.662Z</time></trkpt><trkpt lat="44.342235" lon="9.3201733"><ele>79.75</ele><time>2026-04-21T12:20:57.663Z</time></trkpt><trkpt lat="44.34215" lon="9.3203283"><ele>78.5</ele><time>2026-04-21T12:20:58.663Z</time></trkpt><trkpt lat="44.3420867" lon="9.3204933"><ele>77.25</ele><time>2026-04-21T12:20:59.662Z</time></trkpt><trkpt lat="44.3420317" lon="9.3207017"><ele>76.0</ele><time>2026-04-21T12:21:00.662Z</time></trkpt><trkpt lat="44.3420067" lon="9.3209167"><ele>76.0</ele><time>2026-04-21T12:21:01.662Z</time></trkpt><trkpt lat="44.34199" lon="9.3210883"><ele>76.0</ele><time>2026-04-21T12:21:02.663Z</time></trkpt><trkpt lat="44.3419533" lon="9.3212217"><ele>76.0</ele><time>2026-04-21T12:21:03.663Z</time></trkpt><trkpt lat="44.3418917" lon="9.3213117"><ele>76.0</ele><time>2026-04-21T12:21:04.662Z</time></trkpt><trkpt lat="44.3418167" lon="9.321355"><ele>76.0</ele><time>2026-04-21T12:21:05.662Z</time></trkpt><trkpt lat="44.3417367" lon="9.32136"><ele>76.0</ele><time>2026-04-21T12:21:06.662Z</time></trkpt><trkpt lat="44.34162" lon="9.3213117"><ele>76.0</ele><time>2026-04-21T12:21:07.662Z</time></trkpt><trkpt lat="44.3415033" lon="9.3212483"><ele>76.0</ele><time>2026-04-21T12:21:08.662Z</time></trkpt><trkpt lat="44.34141" lon="9.32116"><ele>76.0</ele><time>2026-04-21T12:21:09.663Z</time></trkpt><trkpt lat="44.3413267" lon="9.3210467"><ele>74.6</ele><time>2026-04-21T12:21:10.663Z</time></trkpt><trkpt lat="44.341265" lon="9.320925"><ele>73.19999999999999</ele><time>2026-04-21T12:21:11.662Z</time></trkpt><trkpt lat="44.3411917" lon="9.3208217"><ele>71.80000000000001</ele><time>2026-04-21T12:21:12.662Z</time></trkpt><trkpt lat="44.341095" lon="9.3207683"><ele>70.4</ele><time>2026-04-21T12:21:13.663Z</time></trkpt><trkpt lat="44.34101" lon="9.3207433"><ele>69.0</ele><time>2026-04-21T12:21:14.663Z</time></trkpt><trkpt lat="44.340915" lon="9.3207767"><ele>69.0</ele><time>2026-04-21T12:21:15.663Z</time></trkpt><trkpt lat="44.3408083" lon="9.32085"><ele>69.0</ele><time>2026-04-21T12:21:16.662Z</time></trkpt><trkpt lat="44.3406867" lon="9.32097"><ele>69.0</ele><time>2026-04-21T12:21:17.663Z</time></trkpt><trkpt lat="44.3405633" lon="9.3210517"><ele>69.0</ele><time>2026-04-21T12:21:18.662Z</time></trkpt><trkpt lat="44.340425" lon="9.3210667"><ele>66.8</ele><time>2026-04-21T12:21:19.662Z</time></trkpt><trkpt lat="44.3402833" lon="9.3210483"><ele>64.60000000000001</ele><time>2026-04-21T12:21:20.663Z</time></trkpt><trkpt lat="44.34016" lon="9.3210317"><ele>62.4</ele><time>2026-04-21T12:21:21.663Z</time></trkpt><trkpt lat="44.3400683" lon="9.3210383"><ele>60.2</ele><time>2026-04-21T12:21:22.662Z</time></trkpt><trkpt lat="44.3399883" lon="9.321085"><ele>58.0</ele><time>2026-04-21T12:21:23.662Z</time></trkpt><trkpt lat="44.3399217" lon="9.32118"><ele>57.99999999999999</ele><time>2026-04-21T12:21:24.662Z</time></trkpt><trkpt lat="44.33988" lon="9.321305"><ele>58.0</ele><time>2026-04-21T12:21:25.663Z</time></trkpt><trkpt lat="44.33983" lon="9.3214133"><ele>58.0</ele><time>2026-04-21T12:21:26.662Z</time></trkpt><trkpt lat="44.3397783" lon="9.3214817"><ele>58.0</ele><time>2026-04-21T12:21:27.663Z</time></trkpt><trkpt lat="44.33971" lon="9.3214967"><ele>57.99999999999999</ele><time>2026-04-21T12:21:28.663Z</time></trkpt><trkpt lat="44.3396367" lon="9.3214633"><ele>58.0</ele><time>2026-04-21T12:21:29.662Z</time></trkpt><trkpt lat="44.3395567" lon="9.32137"><ele>57.5</ele><time>2026-04-21T12:21:30.662Z</time></trkpt><trkpt lat="44.3394717" lon="9.3212383"><ele>57.0</ele><time>2026-04-21T12:21:31.662Z</time></trkpt><trkpt lat="44.33937" lon="9.3211033"><ele>56.5</ele><time>2026-04-21T12:21:32.662Z</time></trkpt><trkpt lat="44.3392633" lon="9.32099"><ele>56.0</ele><time>2026-04-21T12:21:33.663Z</time></trkpt><trkpt lat="44.3391667" lon="9.32089"><ele>56.0</ele><time>2026-04-21T12:21:34.662Z</time></trkpt><trkpt lat="44.3390717" lon="9.3207817"><ele>55.99999999999999</ele><time>2026-04-21T12:21:35.662Z</time></trkpt><trkpt lat="44.3389767" lon="9.3206883"><ele>55.99999999999999</ele><time>2026-04-21T12:21:36.663Z</time></trkpt><trkpt lat="44.3388967" lon="9.3206233"><ele>56.0</ele><time>2026-04-21T12:21:37.663Z</time></trkpt><trkpt lat="44.3388083" lon="9.3206033"><ele>56.0</ele><time>2026-04-21T12:21:38.662Z</time></trkpt><trkpt lat="44.3387217" lon="9.320615"><ele>52.199999999999996</ele><time>2026-04-21T12:21:39.663Z</time></trkpt><trkpt lat="44.3386367" lon="9.320665"><ele>48.39999999999999</ele><time>2026-04-21T12:21:40.662Z</time></trkpt><trkpt lat="44.3385567" lon="9.32074"><ele>44.6</ele><time>2026-04-21T12:21:41.663Z</time></trkpt><trkpt lat="44.338515" lon="9.3208683"><ele>40.8</ele><time>2026-04-21T12:21:42.663Z</time></trkpt><trkpt lat="44.3384767" lon="9.3210617"><ele>37.0</ele><time>2026-04-21T12:21:43.663Z</time></trkpt><trkpt lat="44.33843" lon="9.3212683"><ele>39.25</ele><time>2026-04-21T12:21:44.662Z</time></trkpt><trkpt lat="44.33837" lon="9.3214583"><ele>41.5</ele><time>2026-04-21T12:21:45.662Z</time></trkpt><trkpt lat="44.3382917" lon="9.3216167"><ele>43.75</ele><time>2026-04-21T12:21:46.663Z</time></trkpt><trkpt lat="44.338205" lon="9.3217433"><ele>46.0</ele><time>2026-04-21T12:21:47.662Z</time></trkpt><trkpt lat="44.3381183" lon="9.3218667"><ele>44.599999999999994</ele><time>2026-04-21T12:21:48.662Z</time></trkpt><trkpt lat="44.3380367" lon="9.3219883"><ele>43.199999999999996</ele><time>2026-04-21T12:21:49.662Z</time></trkpt><trkpt lat="44.33799" lon="9.32211"><ele>41.8</ele><time>2026-04-21T12:21:50.662Z</time></trkpt><trkpt lat="44.3379483" lon="9.322245"><ele>40.4</ele><time>2026-04-21T12:21:51.663Z</time></trkpt><trkpt lat="44.3379083" lon="9.32237"><ele>39.0</ele><time>2026-04-21T12:21:52.662Z</time></trkpt><trkpt lat="44.337865" lon="9.322475"><ele>39.0</ele><time>2026-04-21T12:21:53.663Z</time></trkpt><trkpt lat="44.3378067" lon="9.32255"><ele>39.0</ele><time>2026-04-21T12:21:54.662Z</time></trkpt><trkpt lat="44.3377333" lon="9.3225767"><ele>39.0</ele><time>2026-04-21T12:21:55.663Z</time></trkpt><trkpt lat="44.3376433" lon="9.322575"><ele>39.0</ele><time>2026-04-21T12:21:56.662Z</time></trkpt><trkpt lat="44.3375417" lon="9.3225417"><ele>39.0</ele><time>2026-04-21T12:21:57.663Z</time></trkpt><trkpt lat="44.337405" lon="9.32247"><ele>39.0</ele><time>2026-04-21T12:21:58.663Z</time></trkpt><trkpt lat="44.3372283" lon="9.3223867"><ele>39.0</ele><time>2026-04-21T12:21:59.663Z</time></trkpt><trkpt lat="44.3370217" lon="9.322325"><ele>39.0</ele><time>2026-04-21T12:22:00.663Z</time></trkpt><trkpt lat="44.3368167" lon="9.3222817"><ele>37.666666666666664</ele><time>2026-04-21T12:22:01.663Z</time></trkpt><trkpt lat="44.3366233" lon="9.3222483"><ele>36.33333333333333</ele><time>2026-04-21T12:22:02.662Z</time></trkpt><trkpt lat="44.3364533" lon="9.3222283"><ele>35.0</ele><time>2026-04-21T12:22:03.662Z</time></trkpt><trkpt lat="44.3362983" lon="9.322195"><ele>32.25</ele><time>2026-04-21T12:22:04.662Z</time></trkpt><trkpt lat="44.3361583" lon="9.322185"><ele>29.5</ele><time>2026-04-21T12:22:05.662Z</time></trkpt><trkpt lat="44.3360333" lon="9.322175"><ele>26.75</ele><time>2026-04-21T12:22:06.663Z</time></trkpt><trkpt lat="44.3359183" lon="9.3221733"><ele>24.0</ele><time>2026-04-21T12:22:07.662Z</time></trkpt><trkpt lat="44.3358117" lon="9.3222033"><ele>24.5</ele><time>2026-04-21T12:22:08.662Z</time></trkpt><trkpt lat="44.3357117" lon="9.3222817"><ele>25.0</ele><time>2026-04-21T12:22:09.662Z</time></trkpt><trkpt lat="44.3356133" lon="9.3223567"><ele>25.5</ele><time>2026-04-21T12:22:10.662Z</time></trkpt><trkpt lat="44.3355083" lon="9.322445"><ele>26.0</ele><time>2026-04-21T12:22:11.663Z</time></trkpt><trkpt lat="44.3354117" lon="9.3225233"><ele>24.5</ele><time>2026-04-21T12:22:12.662Z</time></trkpt><trkpt lat="44.3353167" lon="9.322615"><ele>23.0</ele><time>2026-04-21T12:22:13.662Z</time></trkpt><trkpt lat="44.3352233" lon="9.3227067"><ele>21.5</ele><time>2026-04-21T12:22:14.662Z</time></trkpt><trkpt lat="44.33512" lon="9.32278"><ele>20.0</ele><time>2026-04-21T12:22:15.663Z</time></trkpt><trkpt lat="44.3350283" lon="9.3228567"><ele>20.0</ele><time>2026-04-21T12:22:16.662Z</time></trkpt><trkpt lat="44.3349233" lon="9.322915"><ele>20.0</ele><time>2026-04-21T12:22:17.663Z</time></trkpt><trkpt lat="44.3348183" lon="9.3229583"><ele>20.0</ele><time>2026-04-21T12:22:18.663Z</time></trkpt><trkpt lat="44.3347133" lon="9.3229917"><ele>20.0</ele><time>2026-04-21T12:22:19.662Z</time></trkpt><trkpt lat="44.3345983" lon="9.32303"><ele>20.0</ele><time>2026-04-21T12:22:20.662Z</time></trkpt><trkpt lat="44.3344867" lon="9.3230583"><ele>21.0</ele><time>2026-04-21T12:22:21.662Z</time></trkpt><trkpt lat="44.334355" lon="9.3230883"><ele>22.0</ele><time>2026-04-21T12:22:22.663Z</time></trkpt><trkpt lat="44.334225" lon="9.3231017"><ele>23.0</ele><time>2026-04-21T12:22:23.662Z</time></trkpt><trkpt lat="44.3341067" lon="9.3231317"><ele>24.0</ele><time>2026-04-21T12:22:24.662Z</time></trkpt><trkpt lat="44.3339633" lon="9.3231383"><ele>22.25</ele><time>2026-04-21T12:22:25.663Z</time></trkpt><trkpt lat="44.33385" lon="9.3231567"><ele>20.5</ele><time>2026-04-21T12:22:26.663Z</time></trkpt><trkpt lat="44.3337467" lon="9.32318"><ele>18.75</ele><time>2026-04-21T12:22:27.663Z</time></trkpt><trkpt lat="44.333635" lon="9.3232083"><ele>17.0</ele><time>2026-04-21T12:22:28.662Z</time></trkpt><trkpt lat="44.3335167" lon="9.32323"><ele>17.0</ele><time>2026-04-21T12:22:29.663Z</time></trkpt><trkpt lat="44.3333867" lon="9.323255"><ele>17.0</ele><time>2026-04-21T12:22:30.663Z</time></trkpt><trkpt lat="44.3332617" lon="9.3233"><ele>17.0</ele><time>2026-04-21T12:22:31.662Z</time></trkpt><trkpt lat="44.3331367" lon="9.323335"><ele>17.0</ele><time>2026-04-21T12:22:32.662Z</time></trkpt><trkpt lat="44.3330233" lon="9.3233617"><ele>17.0</ele><time>2026-04-21T12:22:33.662Z</time></trkpt><trkpt lat="44.3329133" lon="9.3233783"><ele>17.0</ele><time>2026-04-21T12:22:34.662Z</time></trkpt><trkpt lat="44.3328083" lon="9.3233983"><ele>17.0</ele><time>2026-04-21T12:22:35.663Z</time></trkpt><trkpt lat="44.3327" lon="9.3234083"><ele>17.0</ele><time>2026-04-21T12:22:36.663Z</time></trkpt><trkpt lat="44.3325967" lon="9.32341"><ele>17.0</ele><time>2026-04-21T12:22:37.663Z</time></trkpt><trkpt lat="44.3324833" lon="9.323395"><ele>17.0</ele><time>2026-04-21T12:22:38.663Z</time></trkpt><trkpt lat="44.3323767" lon="9.32336"><ele>17.0</ele><time>2026-04-21T12:22:39.663Z</time></trkpt><trkpt lat="44.3322683" lon="9.3233017"><ele>17.0</ele><time>2026-04-21T12:22:40.662Z</time></trkpt><trkpt lat="44.3321633" lon="9.3232283"><ele>17.0</ele><time>2026-04-21T12:22:41.662Z</time></trkpt><trkpt lat="44.3320667" lon="9.3231517"><ele>17.2</ele><time>2026-04-21T12:22:42.663Z</time></trkpt><trkpt lat="44.331975" lon="9.32307"><ele>17.4</ele><time>2026-04-21T12:22:43.663Z</time></trkpt><trkpt lat="44.3318733" lon="9.32301"><ele>17.6</ele><time>2026-04-21T12:22:44.662Z</time></trkpt><trkpt lat="44.3317717" lon="9.3229433"><ele>17.8</ele><time>2026-04-21T12:22:45.662Z</time></trkpt><trkpt lat="44.33167" lon="9.32287"><ele>18.0</ele><time>2026-04-21T12:22:46.663Z</time></trkpt><trkpt lat="44.3315817" lon="9.32281"><ele>18.0</ele><time>2026-04-21T12:22:47.663Z</time></trkpt><trkpt lat="44.3314767" lon="9.3227733"><ele>18.0</ele><time>2026-04-21T12:22:48.662Z</time></trkpt><trkpt lat="44.3313733" lon="9.3227317"><ele>18.0</ele><time>2026-04-21T12:22:49.663Z</time></trkpt><trkpt lat="44.3312567" lon="9.3226917"><ele>18.0</ele><time>2026-04-21T12:22:50.662Z</time></trkpt><trkpt lat="44.3311317" lon="9.3226817"><ele>17.4</ele><time>2026-04-21T12:22:51.662Z</time></trkpt><trkpt lat="44.3310217" lon="9.3226583"><ele>16.8</ele><time>2026-04-21T12:22:52.663Z</time></trkpt><trkpt lat="44.3309233" lon="9.322635"><ele>16.2</ele><time>2026-04-21T12:22:53.662Z</time></trkpt><trkpt lat="44.330845" lon="9.3226183"><ele>15.6</ele><time>2026-04-21T12:22:54.662Z</time></trkpt><trkpt lat="44.3307583" lon="9.3226083"><ele>15.0</ele><time>2026-04-21T12:22:55.663Z</time></trkpt><trkpt lat="44.33068" lon="9.3225967"><ele>15.0</ele><time>2026-04-21T12:22:56.663Z</time></trkpt><trkpt lat="44.3305883" lon="9.3225767"><ele>15.0</ele><time>2026-04-21T12:22:57.662Z</time></trkpt><trkpt lat="44.3304983" lon="9.3225483"><ele>15.0</ele><time>2026-04-21T12:22:58.663Z</time></trkpt><trkpt lat="44.330405" lon="9.322525"><ele>15.0</ele><time>2026-04-21T12:22:59.662Z</time></trkpt><trkpt lat="44.33032" lon="9.3225183"><ele>15.0</ele><time>2026-04-21T12:23:00.662Z</time></trkpt><trkpt lat="44.3302417" lon="9.3225083"><ele>15.0</ele><time>2026-04-21T12:23:01.662Z</time></trkpt><trkpt lat="44.3301567" lon="9.3224983"><ele>14.8</ele><time>2026-04-21T12:23:02.662Z</time></trkpt><trkpt lat="44.330065" lon="9.3224767"><ele>14.6</ele><time>2026-04-21T12:23:03.663Z</time></trkpt><trkpt lat="44.3299683" lon="9.32244"><ele>14.399999999999999</ele><time>2026-04-21T12:23:04.662Z</time></trkpt><trkpt lat="44.329865" lon="9.3224067"><ele>14.2</ele><time>2026-04-21T12:23:05.663Z</time></trkpt><trkpt lat="44.3297417" lon="9.3223717"><ele>14.0</ele><time>2026-04-21T12:23:06.662Z</time></trkpt><trkpt lat="44.3296183" lon="9.322335"><ele>14.0</ele><time>2026-04-21T12:23:07.663Z</time></trkpt><trkpt lat="44.3295017" lon="9.322295"><ele>14.0</ele><time>2026-04-21T12:23:08.662Z</time></trkpt><trkpt lat="44.3293933" lon="9.3222433"><ele>14.0</ele><time>2026-04-21T12:23:09.663Z</time></trkpt><trkpt lat="44.329285" lon="9.3221967"><ele>14.0</ele><time>2026-04-21T12:23:10.663Z</time></trkpt><trkpt lat="44.32918" lon="9.3221383"><ele>14.0</ele><time>2026-04-21T12:23:11.663Z</time></trkpt><trkpt lat="44.3290817" lon="9.3220917"><ele>13.999999999999998</ele><time>2026-04-21T12:23:12.663Z</time></trkpt><trkpt lat="44.328975" lon="9.3220483"><ele>13.999999999999998</ele><time>2026-04-21T12:23:13.662Z</time></trkpt><trkpt lat="44.3288967" lon="9.322005"><ele>14.0</ele><time>2026-04-21T12:23:14.663Z</time></trkpt><trkpt lat="44.3288233" lon="9.321965"><ele>14.0</ele><time>2026-04-21T12:23:15.662Z</time></trkpt><trkpt lat="44.328735" lon="9.3219217"><ele>14.0</ele><time>2026-04-21T12:23:16.662Z</time></trkpt><trkpt lat="44.32864" lon="9.3219017"><ele>13.999999999999998</ele><time>2026-04-21T12:23:17.662Z</time></trkpt><trkpt lat="44.328525" lon="9.3218933"><ele>13.999999999999998</ele><time>2026-04-21T12:23:18.662Z</time></trkpt><trkpt lat="44.3284183" lon="9.3218767"><ele>14.0</ele><time>2026-04-21T12:23:19.663Z</time></trkpt><trkpt lat="44.3282967" lon="9.3218383"><ele>14.0</ele><time>2026-04-21T12:23:20.662Z</time></trkpt><trkpt lat="44.328175" lon="9.3217817"><ele>12.75</ele><time>2026-04-21T12:23:21.662Z</time></trkpt><trkpt lat="44.32805" lon="9.32171"><ele>11.5</ele><time>2026-04-21T12:23:22.662Z</time></trkpt><trkpt lat="44.3279133" lon="9.3216567"><ele>10.25</ele><time>2026-04-21T12:23:23.662Z</time></trkpt><trkpt lat="44.3277833" lon="9.3216033"><ele>9.0</ele><time>2026-04-21T12:23:24.662Z</time></trkpt><trkpt lat="44.32767" lon="9.32153"><ele>9.0</ele><time>2026-04-21T12:23:25.663Z</time></trkpt><trkpt lat="44.3275583" lon="9.3214917"><ele>9.0</ele><time>2026-04-21T12:23:26.662Z</time></trkpt><trkpt lat="44.3274567" lon="9.3214783"><ele>9.0</ele><time>2026-04-21T12:23:27.662Z</time></trkpt><trkpt lat="44.3273667" lon="9.32149"><ele>9.0</ele><time>2026-04-21T12:23:28.663Z</time></trkpt><trkpt lat="44.327285" lon="9.32153"><ele>9.0</ele><time>2026-04-21T12:23:29.663Z</time></trkpt><trkpt lat="44.3272083" lon="9.3215433"><ele>8.8</ele><time>2026-04-21T12:23:30.662Z</time></trkpt><trkpt lat="44.3270867" lon="9.3215183"><ele>8.600000000000001</ele><time>2026-04-21T12:23:32.662Z</time></trkpt><trkpt lat="44.3269767" lon="9.321405"><ele>8.4</ele><time>2026-04-21T12:23:34.663Z</time></trkpt><trkpt lat="44.3269367" lon="9.3213183"><ele>8.200000000000001</ele><time>2026-04-21T12:23:35.662Z</time></trkpt><trkpt lat="44.326895" lon="9.3212117"><ele>8.0</ele><time>2026-04-21T12:23:36.663Z</time></trkpt><trkpt lat="44.32686" lon="9.3210583"><ele>8.0</ele><time>2026-04-21T12:23:37.662Z</time></trkpt><trkpt lat="44.3268283" lon="9.3209217"><ele>8.0</ele><time>2026-04-21T12:23:38.662Z</time></trkpt><trkpt lat="44.3267783" lon="9.3207967"><ele>8.0</ele><time>2026-04-21T12:23:39.662Z</time></trkpt><trkpt lat="44.3267183" lon="9.32068"><ele>8.0</ele><time>2026-04-21T12:23:40.662Z</time></trkpt><trkpt lat="44.3266533" lon="9.3206"><ele>8.0</ele><time>2026-04-21T12:23:41.662Z</time></trkpt><trkpt lat="44.3265717" lon="9.3205133"><ele>8.0</ele><time>2026-04-21T12:23:42.663Z</time></trkpt><trkpt lat="44.3264783" lon="9.3204183"><ele>8.0</ele><time>2026-04-21T12:23:43.662Z</time></trkpt><trkpt lat="44.3263883" lon="9.3203383"><ele>8.0</ele><time>2026-04-21T12:23:44.662Z</time></trkpt><trkpt lat="44.3262933" lon="9.32024"><ele>8.0</ele><time>2026-04-21T12:23:45.662Z</time></trkpt><trkpt lat="44.3262033" lon="9.3201617"><ele>8.0</ele><time>2026-04-21T12:23:46.662Z</time></trkpt><trkpt lat="44.3261117" lon="9.320085"><ele>7.999999999999999</ele><time>2026-04-21T12:23:47.663Z</time></trkpt><trkpt lat="44.326035" lon="9.3200133"><ele>8.0</ele><time>2026-04-21T12:23:48.662Z</time></trkpt><trkpt lat="44.3259683" lon="9.3199517"><ele>8.0</ele><time>2026-04-21T12:23:49.663Z</time></trkpt><trkpt lat="44.32589" lon="9.3199033"><ele>8.0</ele><time>2026-04-21T12:23:50.662Z</time></trkpt><trkpt lat="44.325815" lon="9.3198867"><ele>7.999999999999999</ele><time>2026-04-21T12:23:51.662Z</time></trkpt><trkpt lat="44.3257367" lon="9.3199033"><ele>8.0</ele><time>2026-04-21T12:23:52.662Z</time></trkpt><trkpt lat="44.3256483" lon="9.31994"><ele>8.600000000000001</ele><time>2026-04-21T12:23:53.662Z</time></trkpt><trkpt lat="44.325555" lon="9.319985"><ele>9.200000000000001</ele><time>2026-04-21T12:23:54.662Z</time></trkpt><trkpt lat="44.3254583" lon="9.3200333"><ele>9.8</ele><time>2026-04-21T12:23:55.663Z</time></trkpt><trkpt lat="44.325365" lon="9.32009"><ele>10.4</ele><time>2026-04-21T12:23:56.662Z</time></trkpt><trkpt lat="44.3252683" lon="9.3201483"><ele>11.0</ele><time>2026-04-21T12:23:57.662Z</time></trkpt><trkpt lat="44.325155" lon="9.320205"><ele>11.0</ele><time>2026-04-21T12:23:58.663Z</time></trkpt><trkpt lat="44.3250417" lon="9.3202567"><ele>11.0</ele><time>2026-04-21T12:23:59.662Z</time></trkpt><trkpt lat="44.3249283" lon="9.32031"><ele>11.0</ele><time>2026-04-21T12:24:00.662Z</time></trkpt><trkpt lat="44.32481" lon="9.32036"><ele>11.0</ele><time>2026-04-21T12:24:01.662Z</time></trkpt><trkpt lat="44.3246983" lon="9.3204167"><ele>10.75</ele><time>2026-04-21T12:24:02.662Z</time></trkpt><trkpt lat="44.3245867" lon="9.320465"><ele>10.5</ele><time>2026-04-21T12:24:03.663Z</time></trkpt><trkpt lat="44.32447" lon="9.32051"><ele>10.25</ele><time>2026-04-21T12:24:04.663Z</time></trkpt><trkpt lat="44.324355" lon="9.3205533"><ele>10.0</ele><time>2026-04-21T12:24:05.662Z</time></trkpt><trkpt lat="44.324245" lon="9.320595"><ele>10.0</ele><time>2026-04-21T12:24:06.662Z</time></trkpt><trkpt lat="44.324125" lon="9.320615"><ele>10.0</ele><time>2026-04-21T12:24:07.662Z</time></trkpt><trkpt lat="44.3240267" lon="9.32067"><ele>10.0</ele><time>2026-04-21T12:24:08.662Z</time></trkpt><trkpt lat="44.3239533" lon="9.3207217"><ele>10.0</ele><time>2026-04-21T12:24:09.662Z</time></trkpt><trkpt lat="44.3238867" lon="9.3207833"><ele>10.0</ele><time>2026-04-21T12:24:10.662Z</time></trkpt><trkpt lat="44.3238367" lon="9.320855"><ele>10.0</ele><time>2026-04-21T12:24:11.663Z</time></trkpt><trkpt lat="44.323805" lon="9.3209517"><ele>10.0</ele><time>2026-04-21T12:24:12.662Z</time></trkpt><trkpt lat="44.323785" lon="9.3210483"><ele>10.0</ele><time>2026-04-21T12:24:13.662Z</time></trkpt><trkpt lat="44.3237767" lon="9.3211483"><ele>10.0</ele><time>2026-04-21T12:24:14.662Z</time></trkpt><trkpt lat="44.3237017" lon="9.32126"><ele>10.0</ele><time>2026-04-21T12:24:16.662Z</time></trkpt><trkpt lat="44.32364" lon="9.32128"><ele>10.0</ele><time>2026-04-21T12:24:17.663Z</time></trkpt><trkpt lat="44.323535" lon="9.3212683"><ele>10.0</ele><time>2026-04-21T12:24:18.662Z</time></trkpt><trkpt lat="44.3233917" lon="9.32125"><ele>10.0</ele><time>2026-04-21T12:24:19.662Z</time></trkpt><trkpt lat="44.3232333" lon="9.3212417"><ele>10.0</ele><time>2026-04-21T12:24:20.663Z</time></trkpt><trkpt lat="44.3231033" lon="9.3212217"><ele>10.0</ele><time>2026-04-21T12:24:21.663Z</time></trkpt><trkpt lat="44.3230067" lon="9.3212117"><ele>10.4</ele><time>2026-04-21T12:24:22.663Z</time></trkpt><trkpt lat="44.32289" lon="9.3212"><ele>10.8</ele><time>2026-04-21T12:24:23.662Z</time></trkpt><trkpt lat="44.3227783" lon="9.3211883"><ele>11.2</ele><time>2026-04-21T12:24:24.662Z</time></trkpt><trkpt lat="44.3226817" lon="9.3211667"><ele>11.6</ele><time>2026-04-21T12:24:25.663Z</time></trkpt><trkpt lat="44.32259" lon="9.3211467"><ele>12.0</ele><time>2026-04-21T12:24:26.663Z</time></trkpt><trkpt lat="44.3224933" lon="9.3211317"><ele>12.0</ele><time>2026-04-21T12:24:27.663Z</time></trkpt><trkpt lat="44.322385" lon="9.32113"><ele>12.0</ele><time>2026-04-21T12:24:28.663Z</time></trkpt><trkpt lat="44.3222883" lon="9.321105"><ele>12.0</ele><time>2026-04-21T12:24:29.662Z</time></trkpt><trkpt lat="44.3221867" lon="9.3210717"><ele>12.0</ele><time>2026-04-21T12:24:30.662Z</time></trkpt><trkpt lat="44.3220867" lon="9.32105"><ele>12.0</ele><time>2026-04-21T12:24:31.663Z</time></trkpt><trkpt lat="44.3219833" lon="9.321045"><ele>11.0</ele><time>2026-04-21T12:24:32.663Z</time></trkpt><trkpt lat="44.3218883" lon="9.32104"><ele>10.0</ele><time>2026-04-21T12:24:33.662Z</time></trkpt><trkpt lat="44.321795" lon="9.3210333"><ele>9.0</ele><time>2026-04-21T12:24:34.662Z</time></trkpt><trkpt lat="44.321705" lon="9.3210317"><ele>8.0</ele><time>2026-04-21T12:24:35.662Z</time></trkpt><trkpt lat="44.3216167" lon="9.3210117"><ele>7.0</ele><time>2026-04-21T12:24:36.663Z</time></trkpt><trkpt lat="44.32154" lon="9.3210033"><ele>6.0</ele><time>2026-04-21T12:24:37.663Z</time></trkpt><trkpt lat="44.3214433" lon="9.320965"><ele>7.0</ele><time>2026-04-21T12:24:39.662Z</time></trkpt><trkpt lat="44.321365" lon="9.320875"><ele>8.0</ele><time>2026-04-21T12:24:42.662Z</time></trkpt><trkpt lat="44.3213067" lon="9.320815"><ele>9.0</ele><time>2026-04-21T12:24:43.662Z</time></trkpt><trkpt lat="44.3212267" lon="9.320765"><ele>10.0</ele><time>2026-04-21T12:24:44.663Z</time></trkpt><trkpt lat="44.3211417" lon="9.3207217"><ele>11.0</ele><time>2026-04-21T12:24:45.663Z</time></trkpt><trkpt lat="44.32106" lon="9.3206783"><ele>12.0</ele><time>2026-04-21T12:24:46.662Z</time></trkpt><trkpt lat="44.3209883" lon="9.3206383"><ele>12.0</ele><time>2026-04-21T12:24:47.663Z</time></trkpt><trkpt lat="44.320925" lon="9.32059"><ele>12.0</ele><time>2026-04-21T12:24:48.662Z</time></trkpt><trkpt lat="44.320865" lon="9.320545"><ele>12.0</ele><time>2026-04-21T12:24:49.662Z</time></trkpt><trkpt lat="44.320815" lon="9.3204833"><ele>12.0</ele><time>2026-04-21T12:24:50.663Z</time></trkpt><trkpt lat="44.32075" lon="9.320425"><ele>12.0</ele><time>2026-04-21T12:24:51.662Z</time></trkpt><trkpt lat="44.3206783" lon="9.3203717"><ele>12.0</ele><time>2026-04-21T12:24:52.663Z</time></trkpt><trkpt lat="44.3206033" lon="9.3203133"><ele>11.833333333333334</ele><time>2026-04-21T12:24:53.662Z</time></trkpt><trkpt lat="44.3205217" lon="9.3202533"><ele>11.666666666666666</ele><time>2026-04-21T12:24:54.662Z</time></trkpt><trkpt lat="44.3204417" lon="9.3201967"><ele>11.5</ele><time>2026-04-21T12:24:55.662Z</time></trkpt><trkpt lat="44.3203617" lon="9.3201483"><ele>11.333333333333332</ele><time>2026-04-21T12:24:56.662Z</time></trkpt><trkpt lat="44.3202883" lon="9.3200917"><ele>11.166666666666666</ele><time>2026-04-21T12:24:57.662Z</time></trkpt><trkpt lat="44.3202133" lon="9.32003"><ele>11.0</ele><time>2026-04-21T12:24:58.662Z</time></trkpt><trkpt lat="44.32014" lon="9.31997"><ele>11.0</ele><time>2026-04-21T12:24:59.662Z</time></trkpt><trkpt lat="44.3200633" lon="9.3199067"><ele>11.0</ele><time>2026-04-21T12:25:00.663Z</time></trkpt><trkpt lat="44.3199917" lon="9.3198383"><ele>11.0</ele><time>2026-04-21T12:25:01.662Z</time></trkpt><trkpt lat="44.3199217" lon="9.3197783"><ele>11.0</ele><time>2026-04-21T12:25:02.662Z</time></trkpt><trkpt lat="44.319855" lon="9.3197133"><ele>11.0</ele><time>2026-04-21T12:25:03.662Z</time></trkpt><trkpt lat="44.319795" lon="9.3196617"><ele>11.0</ele><time>2026-04-21T12:25:04.663Z</time></trkpt><trkpt lat="44.3197433" lon="9.3196"><ele>10.666666666666666</ele><time>2026-04-21T12:25:05.662Z</time></trkpt><trkpt lat="44.3196867" lon="9.3195383"><ele>10.333333333333332</ele><time>2026-04-21T12:25:06.662Z</time></trkpt><trkpt lat="44.3196133" lon="9.3194867"><ele>10.0</ele><time>2026-04-21T12:25:07.663Z</time></trkpt><trkpt lat="44.3195333" lon="9.3194267"><ele>9.666666666666666</ele><time>2026-04-21T12:25:08.662Z</time></trkpt><trkpt lat="44.3194583" lon="9.3193633"><ele>9.333333333333334</ele><time>2026-04-21T12:25:09.662Z</time></trkpt><trkpt lat="44.3193967" lon="9.3192933"><ele>9.0</ele><time>2026-04-21T12:25:10.662Z</time></trkpt><trkpt lat="44.3193183" lon="9.3192317"><ele>9.0</ele><time>2026-04-21T12:25:11.663Z</time></trkpt><trkpt lat="44.3192433" lon="9.319165"><ele>9.0</ele><time>2026-04-21T12:25:12.663Z</time></trkpt><trkpt lat="44.3191633" lon="9.3190983"><ele>9.0</ele><time>2026-04-21T12:25:13.662Z</time></trkpt><trkpt lat="44.3190783" lon="9.3190417"><ele>9.0</ele><time>2026-04-21T12:25:14.662Z</time></trkpt><trkpt lat="44.3189967" lon="9.3189783"><ele>9.0</ele><time>2026-04-21T12:25:15.662Z</time></trkpt><trkpt lat="44.31891" lon="9.31892"><ele>8.5</ele><time>2026-04-21T12:25:16.662Z</time></trkpt><trkpt lat="44.3188317" lon="9.318855"><ele>8.0</ele><time>2026-04-21T12:25:17.662Z</time></trkpt><trkpt lat="44.318755" lon="9.3187917"><ele>7.5</ele><time>2026-04-21T12:25:18.662Z</time></trkpt><trkpt lat="44.318675" lon="9.31874"><ele>7.0</ele><time>2026-04-21T12:25:19.663Z</time></trkpt><trkpt lat="44.318605" lon="9.3186917"><ele>6.5</ele><time>2026-04-21T12:25:20.663Z</time></trkpt><trkpt lat="44.3185533" lon="9.3186267"><ele>6.0</ele><time>2026-04-21T12:25:21.662Z</time></trkpt><trkpt lat="44.3184633" lon="9.3185167"><ele>5.999999999999999</ele><time>2026-04-21T12:25:23.662Z</time></trkpt><trkpt lat="44.318405" lon="9.3184617"><ele>6.0</ele><time>2026-04-21T12:25:24.663Z</time></trkpt><trkpt lat="44.31835" lon="9.31841"><ele>6.0</ele><time>2026-04-21T12:25:25.662Z</time></trkpt><trkpt lat="44.31829" lon="9.318365"><ele>6.0</ele><time>2026-04-21T12:25:26.663Z</time></trkpt><trkpt lat="44.3182333" lon="9.3183117"><ele>6.0</ele><time>2026-04-21T12:25:27.662Z</time></trkpt><trkpt lat="44.3181717" lon="9.3182567"><ele>5.999999999999999</ele><time>2026-04-21T12:25:28.662Z</time></trkpt><trkpt lat="44.31811" lon="9.3182017"><ele>6.0</ele><time>2026-04-21T12:25:29.662Z</time></trkpt><trkpt lat="44.3180467" lon="9.3181483"><ele>6.0</ele><time>2026-04-21T12:25:30.663Z</time></trkpt><trkpt lat="44.31799" lon="9.3180983"><ele>6.0</ele><time>2026-04-21T12:25:31.663Z</time></trkpt><trkpt lat="44.3179283" lon="9.3180483"><ele>6.0</ele><time>2026-04-21T12:25:32.663Z</time></trkpt><trkpt lat="44.317785" lon="9.3179783"><ele>6.0</ele><time>2026-04-21T12:25:34.663Z</time></trkpt><trkpt lat="44.317695" lon="9.3178983"><ele>6.0</ele><time>2026-04-21T12:25:36.662Z</time></trkpt><trkpt lat="44.3175917" lon="9.3178017"><ele>6.0</ele><time>2026-04-21T12:25:38.662Z</time></trkpt><trkpt lat="44.3175167" lon="9.3177267"><ele>6.0</ele><time>2026-04-21T12:25:39.662Z</time></trkpt><trkpt lat="44.317425" lon="9.3176367"><ele>6.0</ele><time>2026-04-21T12:25:40.663Z</time></trkpt><trkpt lat="44.31734" lon="9.3175667"><ele>6.0</ele><time>2026-04-21T12:25:41.663Z</time></trkpt><trkpt lat="44.3172433" lon="9.3174983"><ele>6.0</ele><time>2026-04-21T12:25:42.662Z</time></trkpt><trkpt lat="44.3171683" lon="9.317435"><ele>5.833333333333333</ele><time>2026-04-21T12:25:43.663Z</time></trkpt><trkpt lat="44.3171" lon="9.3174017"><ele>5.666666666666667</ele><time>2026-04-21T12:25:44.662Z</time></trkpt><trkpt lat="44.3170467" lon="9.3173417"><ele>5.5</ele><time>2026-04-21T12:25:45.662Z</time></trkpt><trkpt lat="44.316965" lon="9.3172967"><ele>5.333333333333334</ele><time>2026-04-21T12:25:47.662Z</time></trkpt><trkpt lat="44.3168983" lon="9.3172367"><ele>5.166666666666667</ele><time>2026-04-21T12:25:49.662Z</time></trkpt><trkpt lat="44.3168033" lon="9.3171433"><ele>5.0</ele><time>2026-04-21T12:25:51.662Z</time></trkpt><trkpt lat="44.31671" lon="9.3170633"><ele>5.0</ele><time>2026-04-21T12:25:53.662Z</time></trkpt><trkpt lat="44.316605" lon="9.3169917"><ele>5.0</ele><time>2026-04-21T12:26:02.663Z</time></trkpt><trkpt lat="44.31655" lon="9.3170967"><ele>5.0</ele><time>2026-04-21T12:26:04.662Z</time></trkpt><trkpt lat="44.31651" lon="9.3172"><ele>5.0</ele><time>2026-04-21T12:26:05.662Z</time></trkpt><trkpt lat="44.3164783" lon="9.3172967"><ele>5.0</ele><time>2026-04-21T12:26:06.663Z</time></trkpt><trkpt lat="44.316455" lon="9.31739"><ele>5.0</ele><time>2026-04-21T12:26:07.662Z</time></trkpt><trkpt lat="44.316395" lon="9.317545"><ele>4.571428571428571</ele><time>2026-04-21T12:26:09.662Z</time></trkpt><trkpt lat="44.316355" lon="9.3176217"><ele>4.142857142857143</ele><time>2026-04-21T12:26:10.662Z</time></trkpt><trkpt lat="44.31632" lon="9.31771"><ele>3.7142857142857144</ele><time>2026-04-21T12:26:11.662Z</time></trkpt><trkpt lat="44.31628" lon="9.317795"><ele>3.2857142857142856</ele><time>2026-04-21T12:26:12.662Z</time></trkpt><trkpt lat="44.3162367" lon="9.31788"><ele>2.8571428571428568</ele><time>2026-04-21T12:26:13.663Z</time></trkpt><trkpt lat="44.3161983" lon="9.317955"><ele>2.4285714285714284</ele><time>2026-04-21T12:26:14.662Z</time></trkpt><trkpt lat="44.3161583" lon="9.3180283"><ele>2.0</ele><time>2026-04-21T12:26:15.662Z</time></trkpt><trkpt lat="44.316095" lon="9.3181817"><ele>1.9999999999999998</ele><time>2026-04-21T12:26:17.662Z</time></trkpt><trkpt lat="44.3160583" lon="9.3182583"><ele>2.0</ele><time>2026-04-21T12:26:18.662Z</time></trkpt><trkpt lat="44.316025" lon="9.318335"><ele>2.0</ele><time>2026-04-21T12:26:19.662Z</time></trkpt><trkpt lat="44.3159917" lon="9.318415"><ele>2.0</ele><time>2026-04-21T12:26:20.662Z</time></trkpt><trkpt lat="44.315955" lon="9.318495"><ele>1.9999999999999998</ele><time>2026-04-21T12:26:21.663Z</time></trkpt><trkpt lat="44.315895" lon="9.3186367"><ele>2.0</ele><time>2026-04-21T12:26:23.662Z</time></trkpt><trkpt lat="44.315855" lon="9.3187867"><ele>2.333333333333333</ele><time>2026-04-21T12:26:25.662Z</time></trkpt><trkpt lat="44.315815" lon="9.3189433"><ele>2.6666666666666665</ele><time>2026-04-21T12:26:27.662Z</time></trkpt><trkpt lat="44.31577" lon="9.3190217"><ele>3.0</ele><time>2026-04-21T12:26:28.662Z</time></trkpt><trkpt lat="44.3157167" lon="9.3190967"><ele>3.333333333333333</ele><time>2026-04-21T12:26:29.661Z</time></trkpt><trkpt lat="44.3156667" lon="9.3191683"><ele>3.6666666666666665</ele><time>2026-04-21T12:26:30.661Z</time></trkpt><trkpt lat="44.3156267" lon="9.319245"><ele>4.0</ele><time>2026-04-21T12:26:31.662Z</time></trkpt><trkpt lat="44.31559" lon="9.3193317"><ele>3.714285714285714</ele><time>2026-04-21T12:26:32.661Z</time></trkpt><trkpt lat="44.3155483" lon="9.319415"><ele>3.428571428571428</ele><time>2026-04-21T12:26:33.662Z</time></trkpt><trkpt lat="44.3155033" lon="9.3194967"><ele>3.142857142857143</ele><time>2026-04-21T12:26:34.662Z</time></trkpt><trkpt lat="44.315465" lon="9.3195717"><ele>2.8571428571428568</ele><time>2026-04-21T12:26:35.661Z</time></trkpt><trkpt lat="44.3154267" lon="9.3196467"><ele>2.571428571428571</ele><time>2026-04-21T12:26:36.661Z</time></trkpt><trkpt lat="44.31539" lon="9.31972"><ele>2.2857142857142856</ele><time>2026-04-21T12:26:37.661Z</time></trkpt><trkpt lat="44.3153467" lon="9.3198033"><ele>2.0</ele><time>2026-04-21T12:26:38.662Z</time></trkpt><trkpt lat="44.3153067" lon="9.3198917"><ele>2.0</ele><time>2026-04-21T12:26:39.662Z</time></trkpt><trkpt lat="44.31527" lon="9.31998"><ele>1.9999999999999998</ele><time>2026-04-21T12:26:40.661Z</time></trkpt><trkpt lat="44.3152383" lon="9.3200767"><ele>2.0</ele><time>2026-04-21T12:26:41.661Z</time></trkpt><trkpt lat="44.3152" lon="9.32016"><ele>2.0</ele><time>2026-04-21T12:26:42.661Z</time></trkpt><trkpt lat="44.3151633" lon="9.3202417"><ele>1.9999999999999998</ele><time>2026-04-21T12:26:43.661Z</time></trkpt><trkpt lat="44.3151233" lon="9.3203233"><ele>2.0</ele><time>2026-04-21T12:26:44.661Z</time></trkpt><trkpt lat="44.3150917" lon="9.320415"><ele>2.0</ele><time>2026-04-21T12:26:45.661Z</time></trkpt><trkpt lat="44.3150567" lon="9.3204967"><ele>3.333333333333333</ele><time>2026-04-21T12:26:46.662Z</time></trkpt><trkpt lat="44.315025" lon="9.3205817"><ele>4.666666666666667</ele><time>2026-04-21T12:26:47.662Z</time></trkpt><trkpt lat="44.31499" lon="9.3206733"><ele>6.0</ele><time>2026-04-21T12:26:48.661Z</time></trkpt><trkpt lat="44.31494" lon="9.32076"><ele>7.333333333333334</ele><time>2026-04-21T12:26:49.661Z</time></trkpt><trkpt lat="44.3149" lon="9.320855"><ele>8.666666666666668</ele><time>2026-04-21T12:26:50.661Z</time></trkpt><trkpt lat="44.314865" lon="9.3209417"><ele>10.0</ele><time>2026-04-21T12:26:51.661Z</time></trkpt><trkpt lat="44.3148133" lon="9.321055"><ele>10.0</ele><time>2026-04-21T12:26:53.661Z</time></trkpt><trkpt lat="44.3147817" lon="9.32115"><ele>10.0</ele><time>2026-04-21T12:26:55.661Z</time></trkpt><trkpt lat="44.3147167" lon="9.3213"><ele>10.0</ele><time>2026-04-21T12:26:57.661Z</time></trkpt><trkpt lat="44.3146767" lon="9.3213833"><ele>10.0</ele><time>2026-04-21T12:26:58.661Z</time></trkpt><trkpt lat="44.3146333" lon="9.3214683"><ele>10.0</ele><time>2026-04-21T12:26:59.661Z</time></trkpt><trkpt lat="44.3145917" lon="9.3215583"><ele>10.0</ele><time>2026-04-21T12:27:00.661Z</time></trkpt><trkpt lat="44.31454" lon="9.3216517"><ele>9.0</ele><time>2026-04-21T12:27:01.662Z</time></trkpt><trkpt lat="44.3144933" lon="9.321755"><ele>8.0</ele><time>2026-04-21T12:27:02.662Z</time></trkpt><trkpt lat="44.3144483" lon="9.3218567"><ele>7.0</ele><time>2026-04-21T12:27:03.662Z</time></trkpt><trkpt lat="44.314405" lon="9.3219567"><ele>6.0</ele><time>2026-04-21T12:27:04.661Z</time></trkpt><trkpt lat="44.3143667" lon="9.3220483"><ele>5.0</ele><time>2026-04-21T12:27:05.661Z</time></trkpt><trkpt lat="44.3143317" lon="9.32214"><ele>4.0</ele><time>2026-04-21T12:27:06.661Z</time></trkpt><trkpt lat="44.314285" lon="9.3222367"><ele>4.0</ele><time>2026-04-21T12:27:08.661Z</time></trkpt><trkpt lat="44.3142733" lon="9.3223433"><ele>4.0</ele><time>2026-04-21T12:27:14.661Z</time></trkpt><trkpt lat="44.3142133" lon="9.322495"><ele>4.0</ele><time>2026-04-21T12:27:16.662Z</time></trkpt><trkpt lat="44.3141717" lon="9.3225883"><ele>4.0</ele><time>2026-04-21T12:27:17.662Z</time></trkpt><trkpt lat="44.314105" lon="9.32269"><ele>4.0</ele><time>2026-04-21T12:27:18.661Z</time></trkpt><trkpt lat="44.3140467" lon="9.3228117"><ele>4.0</ele><time>2026-04-21T12:27:19.661Z</time></trkpt><trkpt lat="44.3139933" lon="9.322925"><ele>4.0</ele><time>2026-04-21T12:27:20.662Z</time></trkpt><trkpt lat="44.31394" lon="9.323045"><ele>4.0</ele><time>2026-04-21T12:27:21.661Z</time></trkpt><trkpt lat="44.3138833" lon="9.3231783"><ele>4.0</ele><time>2026-04-21T12:27:22.661Z</time></trkpt><trkpt lat="44.3138267" lon="9.323305"><ele>4.0</ele><time>2026-04-21T12:27:23.661Z</time></trkpt><trkpt lat="44.31377" lon="9.3234233"><ele>3.833333333333333</ele><time>2026-04-21T12:27:24.662Z</time></trkpt><trkpt lat="44.3137217" lon="9.3235333"><ele>3.6666666666666665</ele><time>2026-04-21T12:27:25.662Z</time></trkpt><trkpt lat="44.3136883" lon="9.323645"><ele>3.5</ele><time>2026-04-21T12:27:26.661Z</time></trkpt><trkpt lat="44.3136517" lon="9.32375"><ele>3.333333333333333</ele><time>2026-04-21T12:27:27.661Z</time></trkpt><trkpt lat="44.313605" lon="9.3238517"><ele>3.1666666666666665</ele><time>2026-04-21T12:27:28.662Z</time></trkpt><trkpt lat="44.3135517" lon="9.323955"><ele>3.0</ele><time>2026-04-21T12:27:29.661Z</time></trkpt><trkpt lat="44.3134983" lon="9.3240533"><ele>3.0</ele><time>2026-04-21T12:27:30.661Z</time></trkpt><trkpt lat="44.3134533" lon="9.3241567"><ele>3.0</ele><time>2026-04-21T12:27:31.661Z</time></trkpt><trkpt lat="44.31341" lon="9.3242467"><ele>3.0</ele><time>2026-04-21T12:27:32.662Z</time></trkpt><trkpt lat="44.3133667" lon="9.3243217"><ele>3.0</ele><time>2026-04-21T12:27:33.661Z</time></trkpt><trkpt lat="44.3133267" lon="9.3243917"><ele>3.0</ele><time>2026-04-21T12:27:34.661Z</time></trkpt><trkpt lat="44.31328" lon="9.3244783"><ele>3.0</ele><time>2026-04-21T12:27:36.662Z</time></trkpt></trkseg></trk></gpx>